<?xml version='1.0' encoding='UTF-8'?><gpx version="1.1" creator="JPX - https://github.com/jenetics/jpx" xmlns="http://www.topografix.com/GPX/1/1"><trk><trkseg><trkpt lat="40.8939882" lon="14.2878346"><ele>80.0</ele><time>2026-03-24T12:30:56.88Z</time></trkpt><trkpt lat="40.893775" lon="14.2877917"><ele>80.0</ele><time>2026-03-24T12:31:17.126Z</time></trkpt><trkpt lat="40.8938783" lon="14.2878167"><ele>80.0</ele><time>2026-03-24T12:31:22.126Z</time></trkpt><trkpt lat="40.89393" lon="14.2878967"><ele>80.0</ele><time>2026-03-24T12:31:25.125Z</time></trkpt><trkpt lat="40.8939767" lon="14.287995"><ele>80.0</ele><time>2026-03-24T12:31:28.117Z</time></trkpt><trkpt lat="40.8940117" lon="14.2880683"><ele>80.0</ele><time>2026-03-24T12:31:30.119Z</time></trkpt><trkpt lat="40.8940367" lon="14.28816"><ele>80.0</ele><time>2026-03-24T12:31:32.118Z</time></trkpt><trkpt lat="40.8940717" lon="14.28825"><ele>80.0</ele><time>2026-03-24T12:31:34.12Z</time></trkpt><trkpt lat="40.8941083" lon="14.28835"><ele>80.0</ele><time>2026-03-24T12:31:36.117Z</time></trkpt><trkpt lat="40.89415" lon="14.2884433"><ele>80.0</ele><time>2026-03-24T12:31:38.119Z</time></trkpt><trkpt lat="40.8941867" lon="14.288535"><ele>79.83333333333334</ele><time>2026-03-24T12:31:40.12Z</time></trkpt><trkpt lat="40.8942217" lon="14.2886283"><ele>79.66666666666667</ele><time>2026-03-24T12:31:42.119Z</time></trkpt><trkpt lat="40.8942467" lon="14.28875"><ele>79.5</ele><time>2026-03-24T12:31:44.119Z</time></trkpt><trkpt lat="40.8942683" lon="14.288865"><ele>79.33333333333333</ele><time>2026-03-24T12:31:46.118Z</time></trkpt><trkpt lat="40.8943117" lon="14.2889767"><ele>79.16666666666666</ele><time>2026-03-24T12:31:48.119Z</time></trkpt><trkpt lat="40.8943533" lon="14.2890817"><ele>79.0</ele><time>2026-03-24T12:31:50.121Z</time></trkpt><trkpt lat="40.8943983" lon="14.2891883"><ele>78.8</ele><time>2026-03-24T12:31:52.118Z</time></trkpt><trkpt lat="40.8944017" lon="14.2892733"><ele>78.60000000000001</ele><time>2026-03-24T12:31:53.117Z</time></trkpt><trkpt lat="40.8944083" lon="14.289425"><ele>78.4</ele><time>2026-03-24T12:31:55.12Z</time></trkpt><trkpt lat="40.8943867" lon="14.289585"><ele>78.2</ele><time>2026-03-24T12:31:57.119Z</time></trkpt><trkpt lat="40.8943583" lon="14.28973"><ele>78.0</ele><time>2026-03-24T12:31:59.118Z</time></trkpt><trkpt lat="40.8943183" lon="14.289855"><ele>77.83333333333333</ele><time>2026-03-24T12:32:01.119Z</time></trkpt><trkpt lat="40.89427" lon="14.2899583"><ele>77.66666666666667</ele><time>2026-03-24T12:32:03.118Z</time></trkpt><trkpt lat="40.894225" lon="14.2900617"><ele>77.5</ele><time>2026-03-24T12:32:05.118Z</time></trkpt><trkpt lat="40.8941933" lon="14.2901483"><ele>77.33333333333334</ele><time>2026-03-24T12:32:07.124Z</time></trkpt><trkpt lat="40.8941717" lon="14.2902533"><ele>77.16666666666667</ele><time>2026-03-24T12:32:09.117Z</time></trkpt><trkpt lat="40.8941533" lon="14.2903583"><ele>77.0</ele><time>2026-03-24T12:32:11.12Z</time></trkpt><trkpt lat="40.8941333" lon="14.2904383"><ele>77.0</ele><time>2026-03-24T12:32:13.117Z</time></trkpt><trkpt lat="40.8941433" lon="14.29055"><ele>77.0</ele><time>2026-03-24T12:32:15.117Z</time></trkpt><trkpt lat="40.8941567" lon="14.290675"><ele>77.0</ele><time>2026-03-24T12:32:18.118Z</time></trkpt><trkpt lat="40.894175" lon="14.29077"><ele>77.0</ele><time>2026-03-24T12:32:21.118Z</time></trkpt><trkpt lat="40.8942217" lon="14.2908267"><ele>77.0</ele><time>2026-03-24T12:32:23.118Z</time></trkpt><trkpt lat="40.89428" lon="14.2908933"><ele>77.0</ele><time>2026-03-24T12:32:25.118Z</time></trkpt><trkpt lat="40.89434" lon="14.2909633"><ele>77.0</ele><time>2026-03-24T12:32:27.118Z</time></trkpt><trkpt lat="40.8944017" lon="14.2910433"><ele>77.0</ele><time>2026-03-24T12:32:29.118Z</time></trkpt><trkpt lat="40.89447" lon="14.2911383"><ele>77.0</ele><time>2026-03-24T12:32:31.117Z</time></trkpt><trkpt lat="40.8945233" lon="14.2912367"><ele>77.0</ele><time>2026-03-24T12:32:33.119Z</time></trkpt><trkpt lat="40.894595" lon="14.2913633"><ele>77.0</ele><time>2026-03-24T12:32:35.118Z</time></trkpt><trkpt lat="40.8946533" lon="14.2914767"><ele>77.0</ele><time>2026-03-24T12:32:37.119Z</time></trkpt><trkpt lat="40.8947117" lon="14.2915783"><ele>77.0</ele><time>2026-03-24T12:32:39.118Z</time></trkpt><trkpt lat="40.894765" lon="14.291665"><ele>77.0</ele><time>2026-03-24T12:32:41.118Z</time></trkpt><trkpt lat="40.8948233" lon="14.2917783"><ele>77.0</ele><time>2026-03-24T12:32:43.118Z</time></trkpt><trkpt lat="40.8948867" lon="14.2918917"><ele>77.0</ele><time>2026-03-24T12:32:45.118Z</time></trkpt><trkpt lat="40.8949433" lon="14.2920083"><ele>77.0</ele><time>2026-03-24T12:32:47.118Z</time></trkpt><trkpt lat="40.894985" lon="14.29212"><ele>77.0</ele><time>2026-03-24T12:32:49.12Z</time></trkpt><trkpt lat="40.8950183" lon="14.2921967"><ele>77.0</ele><time>2026-03-24T12:32:51.118Z</time></trkpt><trkpt lat="40.895095" lon="14.2922617"><ele>77.0</ele><time>2026-03-24T12:32:54.118Z</time></trkpt><trkpt lat="40.8951917" lon="14.29226"><ele>77.0</ele><time>2026-03-24T12:32:57.119Z</time></trkpt><trkpt lat="40.8952633" lon="14.2922367"><ele>77.0</ele><time>2026-03-24T12:32:59.118Z</time></trkpt><trkpt lat="40.89533" lon="14.2922567"><ele>77.16666666666667</ele><time>2026-03-24T12:33:02.117Z</time></trkpt><trkpt lat="40.89535" lon="14.29236"><ele>77.33333333333334</ele><time>2026-03-24T12:33:05.118Z</time></trkpt><trkpt lat="40.8953683" lon="14.2924683"><ele>77.5</ele><time>2026-03-24T12:33:07.118Z</time></trkpt><trkpt lat="40.8953917" lon="14.2925617"><ele>77.66666666666667</ele><time>2026-03-24T12:33:09.118Z</time></trkpt><trkpt lat="40.8954217" lon="14.2926667"><ele>77.83333333333333</ele><time>2026-03-24T12:33:11.117Z</time></trkpt><trkpt lat="40.8954583" lon="14.292795"><ele>78.0</ele><time>2026-03-24T12:33:13.118Z</time></trkpt><trkpt lat="40.8955217" lon="14.292855"><ele>78.0</ele><time>2026-03-24T12:33:15.117Z</time></trkpt><trkpt lat="40.89548" lon="14.29278"><ele>78.0</ele><time>2026-03-24T12:33:25.118Z</time></trkpt><trkpt lat="40.8954067" lon="14.292745"><ele>78.0</ele><time>2026-03-24T12:33:28.118Z</time></trkpt><trkpt lat="40.89545" lon="14.2925617"><ele>78.0</ele><time>2026-03-24T12:33:33.119Z</time></trkpt><trkpt lat="40.8954683" lon="14.2924483"><ele>78.0</ele><time>2026-03-24T12:33:34.118Z</time></trkpt><trkpt lat="40.8954767" lon="14.2923133"><ele>77.6</ele><time>2026-03-24T12:33:35.118Z</time></trkpt><trkpt lat="40.895515" lon="14.29214"><ele>77.19999999999999</ele><time>2026-03-24T12:33:36.118Z</time></trkpt><trkpt lat="40.8955533" lon="14.2919833"><ele>76.8</ele><time>2026-03-24T12:33:37.12Z</time></trkpt><trkpt lat="40.8955667" lon="14.2918883"><ele>76.39999999999999</ele><time>2026-03-24T12:33:38.119Z</time></trkpt><trkpt lat="40.895575" lon="14.29179"><ele>76.0</ele><time>2026-03-24T12:33:39.118Z</time></trkpt><trkpt lat="40.8955783" lon="14.2916967"><ele>76.0</ele><time>2026-03-24T12:33:40.118Z</time></trkpt><trkpt lat="40.89558" lon="14.2916017"><ele>76.0</ele><time>2026-03-24T12:33:41.118Z</time></trkpt><trkpt lat="40.8955733" lon="14.29151"><ele>76.0</ele><time>2026-03-24T12:33:42.118Z</time></trkpt><trkpt lat="40.8955617" lon="14.2914217"><ele>76.0</ele><time>2026-03-24T12:33:43.119Z</time></trkpt><trkpt lat="40.89554" lon="14.2913333"><ele>76.0</ele><time>2026-03-24T12:33:44.118Z</time></trkpt><trkpt lat="40.895525" lon="14.291225"><ele>76.0</ele><time>2026-03-24T12:33:45.118Z</time></trkpt><trkpt lat="40.8955133" lon="14.2911233"><ele>76.0</ele><time>2026-03-24T12:33:46.118Z</time></trkpt><trkpt lat="40.8955017" lon="14.2910133"><ele>76.14285714285714</ele><time>2026-03-24T12:33:47.117Z</time></trkpt><trkpt lat="40.8954917" lon="14.29091"><ele>76.28571428571429</ele><time>2026-03-24T12:33:48.12Z</time></trkpt><trkpt lat="40.8954833" lon="14.2908067"><ele>76.42857142857143</ele><time>2026-03-24T12:33:49.118Z</time></trkpt><trkpt lat="40.89547" lon="14.2907183"><ele>76.57142857142857</ele><time>2026-03-24T12:33:50.118Z</time></trkpt><trkpt lat="40.8954667" lon="14.290625"><ele>76.71428571428572</ele><time>2026-03-24T12:33:51.119Z</time></trkpt><trkpt lat="40.8954583" lon="14.2905283"><ele>76.85714285714286</ele><time>2026-03-24T12:33:52.118Z</time></trkpt><trkpt lat="40.8954533" lon="14.2904283"><ele>77.0</ele><time>2026-03-24T12:33:53.118Z</time></trkpt><trkpt lat="40.8954467" lon="14.2903283"><ele>77.0</ele><time>2026-03-24T12:33:54.118Z</time></trkpt><trkpt lat="40.895435" lon="14.2902383"><ele>77.0</ele><time>2026-03-24T12:33:55.118Z</time></trkpt><trkpt lat="40.895425" lon="14.2901517"><ele>77.0</ele><time>2026-03-24T12:33:56.119Z</time></trkpt><trkpt lat="40.895425" lon="14.290055"><ele>77.0</ele><time>2026-03-24T12:33:57.118Z</time></trkpt><trkpt lat="40.895415" lon="14.2899633"><ele>77.0</ele><time>2026-03-24T12:33:58.119Z</time></trkpt><trkpt lat="40.89541" lon="14.28988"><ele>77.0</ele><time>2026-03-24T12:33:59.119Z</time></trkpt><trkpt lat="40.8954067" lon="14.2897933"><ele>77.0</ele><time>2026-03-24T12:34:00.118Z</time></trkpt><trkpt lat="40.8954017" lon="14.2897083"><ele>77.14285714285714</ele><time>2026-03-24T12:34:01.119Z</time></trkpt><trkpt lat="40.8953967" lon="14.2896217"><ele>77.28571428571428</ele><time>2026-03-24T12:34:02.118Z</time></trkpt><trkpt lat="40.89539" lon="14.289535"><ele>77.42857142857143</ele><time>2026-03-24T12:34:03.118Z</time></trkpt><trkpt lat="40.895385" lon="14.28945"><ele>77.57142857142857</ele><time>2026-03-24T12:34:04.119Z</time></trkpt><trkpt lat="40.8953783" lon="14.289365"><ele>77.71428571428571</ele><time>2026-03-24T12:34:05.118Z</time></trkpt><trkpt lat="40.8953733" lon="14.2892817"><ele>77.85714285714286</ele><time>2026-03-24T12:34:06.118Z</time></trkpt><trkpt lat="40.8953517" lon="14.2891217"><ele>78.0</ele><time>2026-03-24T12:34:08.118Z</time></trkpt><trkpt lat="40.8953333" lon="14.2889567"><ele>77.8</ele><time>2026-03-24T12:34:10.118Z</time></trkpt><trkpt lat="40.8953117" lon="14.2887967"><ele>77.6</ele><time>2026-03-24T12:34:12.118Z</time></trkpt><trkpt lat="40.8952967" lon="14.2886467"><ele>77.4</ele><time>2026-03-24T12:34:14.119Z</time></trkpt><trkpt lat="40.8952883" lon="14.2885117"><ele>77.2</ele><time>2026-03-24T12:34:16.118Z</time></trkpt><trkpt lat="40.8952817" lon="14.2883717"><ele>77.0</ele><time>2026-03-24T12:34:18.118Z</time></trkpt><trkpt lat="40.89527" lon="14.2882317"><ele>76.8</ele><time>2026-03-24T12:34:20.118Z</time></trkpt><trkpt lat="40.89525" lon="14.2880917"><ele>76.6</ele><time>2026-03-24T12:34:22.118Z</time></trkpt><trkpt lat="40.8952367" lon="14.2879417"><ele>76.39999999999999</ele><time>2026-03-24T12:34:24.118Z</time></trkpt><trkpt lat="40.8952217" lon="14.2877967"><ele>76.2</ele><time>2026-03-24T12:34:26.118Z</time></trkpt><trkpt lat="40.8952117" lon="14.2876567"><ele>76.0</ele><time>2026-03-24T12:34:28.117Z</time></trkpt><trkpt lat="40.8951967" lon="14.287525"><ele>76.0</ele><time>2026-03-24T12:34:30.119Z</time></trkpt><trkpt lat="40.8951767" lon="14.2873967"><ele>76.0</ele><time>2026-03-24T12:34:32.118Z</time></trkpt><trkpt lat="40.89516" lon="14.287265"><ele>76.0</ele><time>2026-03-24T12:34:34.118Z</time></trkpt><trkpt lat="40.8951367" lon="14.28714"><ele>76.0</ele><time>2026-03-24T12:34:36.12Z</time></trkpt><trkpt lat="40.89512" lon="14.2869967"><ele>76.0</ele><time>2026-03-24T12:34:38.118Z</time></trkpt><trkpt lat="40.89511" lon="14.28685"><ele>76.39999999999999</ele><time>2026-03-24T12:34:40.118Z</time></trkpt><trkpt lat="40.8951" lon="14.28672"><ele>76.8</ele><time>2026-03-24T12:34:42.119Z</time></trkpt><trkpt lat="40.8950967" lon="14.2865817"><ele>77.19999999999999</ele><time>2026-03-24T12:34:44.119Z</time></trkpt><trkpt lat="40.8950917" lon="14.28644"><ele>77.6</ele><time>2026-03-24T12:34:46.121Z</time></trkpt><trkpt lat="40.89509" lon="14.286295"><ele>78.0</ele><time>2026-03-24T12:34:48.118Z</time></trkpt><trkpt lat="40.8950783" lon="14.286145"><ele>78.5</ele><time>2026-03-24T12:34:50.119Z</time></trkpt><trkpt lat="40.8950717" lon="14.2859917"><ele>79.0</ele><time>2026-03-24T12:34:52.118Z</time></trkpt><trkpt lat="40.89507" lon="14.2858417"><ele>79.5</ele><time>2026-03-24T12:34:54.118Z</time></trkpt><trkpt lat="40.8950733" lon="14.2856833"><ele>80.0</ele><time>2026-03-24T12:34:56.118Z</time></trkpt><trkpt lat="40.8950767" lon="14.2855367"><ele>79.8</ele><time>2026-03-24T12:34:58.118Z</time></trkpt><trkpt lat="40.8950833" lon="14.2853883"><ele>79.6</ele><time>2026-03-24T12:35:00.118Z</time></trkpt><trkpt lat="40.8950867" lon="14.2852383"><ele>79.4</ele><time>2026-03-24T12:35:02.118Z</time></trkpt><trkpt lat="40.89509" lon="14.2850967"><ele>79.2</ele><time>2026-03-24T12:35:04.118Z</time></trkpt><trkpt lat="40.8950967" lon="14.2849433"><ele>79.0</ele><time>2026-03-24T12:35:06.119Z</time></trkpt><trkpt lat="40.8950983" lon="14.2847883"><ele>79.6</ele><time>2026-03-24T12:35:08.118Z</time></trkpt><trkpt lat="40.8951117" lon="14.28463"><ele>80.2</ele><time>2026-03-24T12:35:10.12Z</time></trkpt><trkpt lat="40.8951267" lon="14.28446"><ele>80.8</ele><time>2026-03-24T12:35:12.122Z</time></trkpt><trkpt lat="40.8951333" lon="14.2843733"><ele>81.39999999999999</ele><time>2026-03-24T12:35:13.121Z</time></trkpt><trkpt lat="40.8951417" lon="14.2842817"><ele>82.0</ele><time>2026-03-24T12:35:14.119Z</time></trkpt><trkpt lat="40.8951517" lon="14.2841933"><ele>81.99999999999999</ele><time>2026-03-24T12:35:15.118Z</time></trkpt><trkpt lat="40.8951683" lon="14.2841083"><ele>82.0</ele><time>2026-03-24T12:35:16.118Z</time></trkpt><trkpt lat="40.8951967" lon="14.2840217"><ele>82.0</ele><time>2026-03-24T12:35:17.118Z</time></trkpt><trkpt lat="40.8952267" lon="14.28394"><ele>82.0</ele><time>2026-03-24T12:35:18.119Z</time></trkpt><trkpt lat="40.8952517" lon="14.2838583"><ele>82.0</ele><time>2026-03-24T12:35:19.118Z</time></trkpt><trkpt lat="40.8952767" lon="14.283775"><ele>81.99999999999999</ele><time>2026-03-24T12:35:20.118Z</time></trkpt><trkpt lat="40.8953067" lon="14.2836933"><ele>82.0</ele><time>2026-03-24T12:35:21.119Z</time></trkpt><trkpt lat="40.8953317" lon="14.2836067"><ele>82.0</ele><time>2026-03-24T12:35:22.12Z</time></trkpt><trkpt lat="40.89536" lon="14.28352"><ele>82.0</ele><time>2026-03-24T12:35:23.119Z</time></trkpt><trkpt lat="40.8953883" lon="14.283435"><ele>82.0</ele><time>2026-03-24T12:35:24.119Z</time></trkpt><trkpt lat="40.895415" lon="14.2833533"><ele>82.0</ele><time>2026-03-24T12:35:25.118Z</time></trkpt><trkpt lat="40.8954433" lon="14.28327"><ele>82.0</ele><time>2026-03-24T12:35:26.119Z</time></trkpt><trkpt lat="40.8954767" lon="14.28319"><ele>82.0</ele><time>2026-03-24T12:35:27.118Z</time></trkpt><trkpt lat="40.8955367" lon="14.2830483"><ele>81.71428571428571</ele><time>2026-03-24T12:35:29.118Z</time></trkpt><trkpt lat="40.8955733" lon="14.282975"><ele>81.42857142857143</ele><time>2026-03-24T12:35:30.118Z</time></trkpt><trkpt lat="40.8956117" lon="14.2829"><ele>81.14285714285714</ele><time>2026-03-24T12:35:31.118Z</time></trkpt><trkpt lat="40.8956533" lon="14.28283"><ele>80.85714285714286</ele><time>2026-03-24T12:35:32.12Z</time></trkpt><trkpt lat="40.8956917" lon="14.28276"><ele>80.57142857142857</ele><time>2026-03-24T12:35:33.118Z</time></trkpt><trkpt lat="40.8957283" lon="14.2826883"><ele>80.28571428571428</ele><time>2026-03-24T12:35:34.118Z</time></trkpt><trkpt lat="40.8957667" lon="14.2826067"><ele>80.0</ele><time>2026-03-24T12:35:35.119Z</time></trkpt><trkpt lat="40.8958" lon="14.2825317"><ele>80.0</ele><time>2026-03-24T12:35:36.119Z</time></trkpt><trkpt lat="40.895835" lon="14.282455"><ele>80.0</ele><time>2026-03-24T12:35:37.118Z</time></trkpt><trkpt lat="40.895875" lon="14.28238"><ele>80.0</ele><time>2026-03-24T12:35:38.119Z</time></trkpt><trkpt lat="40.8959133" lon="14.282305"><ele>80.0</ele><time>2026-03-24T12:35:39.118Z</time></trkpt><trkpt lat="40.8959517" lon="14.2822333"><ele>80.0</ele><time>2026-03-24T12:35:40.12Z</time></trkpt><trkpt lat="40.895995" lon="14.28216"><ele>80.0</ele><time>2026-03-24T12:35:41.118Z</time></trkpt><trkpt lat="40.896035" lon="14.28209"><ele>80.0</ele><time>2026-03-24T12:35:42.118Z</time></trkpt><trkpt lat="40.8960783" lon="14.2820167"><ele>80.57142857142857</ele><time>2026-03-24T12:35:43.118Z</time></trkpt><trkpt lat="40.8961233" lon="14.2819433"><ele>81.14285714285714</ele><time>2026-03-24T12:35:44.119Z</time></trkpt><trkpt lat="40.8961667" lon="14.2818717"><ele>81.71428571428572</ele><time>2026-03-24T12:35:45.119Z</time></trkpt><trkpt lat="40.8962083" lon="14.2818"><ele>82.28571428571428</ele><time>2026-03-24T12:35:46.119Z</time></trkpt><trkpt lat="40.8962483" lon="14.281725"><ele>82.85714285714286</ele><time>2026-03-24T12:35:47.118Z</time></trkpt><trkpt lat="40.8962917" lon="14.2816483"><ele>83.42857142857143</ele><time>2026-03-24T12:35:48.119Z</time></trkpt><trkpt lat="40.8963333" lon="14.2815733"><ele>84.0</ele><time>2026-03-24T12:35:49.118Z</time></trkpt><trkpt lat="40.89637" lon="14.2815017"><ele>84.0</ele><time>2026-03-24T12:35:50.118Z</time></trkpt><trkpt lat="40.89641" lon="14.2814267"><ele>84.0</ele><time>2026-03-24T12:35:51.118Z</time></trkpt><trkpt lat="40.89645" lon="14.2813533"><ele>84.0</ele><time>2026-03-24T12:35:52.119Z</time></trkpt><trkpt lat="40.8964867" lon="14.2812817"><ele>84.0</ele><time>2026-03-24T12:35:53.118Z</time></trkpt><trkpt lat="40.896525" lon="14.2812117"><ele>84.0</ele><time>2026-03-24T12:35:54.118Z</time></trkpt><trkpt lat="40.8965633" lon="14.2811433"><ele>84.0</ele><time>2026-03-24T12:35:55.118Z</time></trkpt><trkpt lat="40.8966017" lon="14.2810717"><ele>84.0</ele><time>2026-03-24T12:35:56.119Z</time></trkpt><trkpt lat="40.896675" lon="14.2809417"><ele>84.0</ele><time>2026-03-24T12:35:58.122Z</time></trkpt><trkpt lat="40.89675" lon="14.2808167"><ele>84.0</ele><time>2026-03-24T12:36:00.121Z</time></trkpt><trkpt lat="40.8968217" lon="14.28068"><ele>84.0</ele><time>2026-03-24T12:36:02.122Z</time></trkpt><trkpt lat="40.8968583" lon="14.2806117"><ele>84.0</ele><time>2026-03-24T12:36:03.119Z</time></trkpt><trkpt lat="40.8969267" lon="14.2804717"><ele>84.0</ele><time>2026-03-24T12:36:05.119Z</time></trkpt><trkpt lat="40.896965" lon="14.2804033"><ele>84.0</ele><time>2026-03-24T12:36:06.12Z</time></trkpt><trkpt lat="40.8969983" lon="14.28033"><ele>84.0</ele><time>2026-03-24T12:36:07.121Z</time></trkpt><trkpt lat="40.8970333" lon="14.28026"><ele>84.0</ele><time>2026-03-24T12:36:08.121Z</time></trkpt><trkpt lat="40.89707" lon="14.2801867"><ele>84.0</ele><time>2026-03-24T12:36:09.119Z</time></trkpt><trkpt lat="40.8971033" lon="14.280115"><ele>84.0</ele><time>2026-03-24T12:36:10.119Z</time></trkpt><trkpt lat="40.8971333" lon="14.2800417"><ele>84.0</ele><time>2026-03-24T12:36:11.122Z</time></trkpt><trkpt lat="40.8971783" lon="14.2798883"><ele>84.0</ele><time>2026-03-24T12:36:13.12Z</time></trkpt><trkpt lat="40.8972183" lon="14.2797283"><ele>84.0</ele><time>2026-03-24T12:36:15.121Z</time></trkpt><trkpt lat="40.897235" lon="14.2796467"><ele>84.0</ele><time>2026-03-24T12:36:16.119Z</time></trkpt><trkpt lat="40.8972533" lon="14.2795617"><ele>84.0</ele><time>2026-03-24T12:36:17.119Z</time></trkpt><trkpt lat="40.8972683" lon="14.279475"><ele>84.0</ele><time>2026-03-24T12:36:18.121Z</time></trkpt><trkpt lat="40.8972817" lon="14.2793867"><ele>84.0</ele><time>2026-03-24T12:36:19.119Z</time></trkpt><trkpt lat="40.8972933" lon="14.2792967"><ele>84.0</ele><time>2026-03-24T12:36:20.121Z</time></trkpt><trkpt lat="40.897305" lon="14.2792067"><ele>84.0</ele><time>2026-03-24T12:36:21.119Z</time></trkpt><trkpt lat="40.8973133" lon="14.27912"><ele>84.0</ele><time>2026-03-24T12:36:22.119Z</time></trkpt><trkpt lat="40.89732" lon="14.2790317"><ele>84.0</ele><time>2026-03-24T12:36:23.12Z</time></trkpt><trkpt lat="40.8973233" lon="14.278945"><ele>84.0</ele><time>2026-03-24T12:36:24.121Z</time></trkpt><trkpt lat="40.8973267" lon="14.2788533"><ele>84.0</ele><time>2026-03-24T12:36:25.121Z</time></trkpt><trkpt lat="40.8973283" lon="14.2787633"><ele>84.0</ele><time>2026-03-24T12:36:26.122Z</time></trkpt><trkpt lat="40.89733" lon="14.27867"><ele>84.0</ele><time>2026-03-24T12:36:27.119Z</time></trkpt><trkpt lat="40.89733" lon="14.27858"><ele>84.0</ele><time>2026-03-24T12:36:28.121Z</time></trkpt><trkpt lat="40.8973283" lon="14.2784867"><ele>84.14285714285714</ele><time>2026-03-24T12:36:29.121Z</time></trkpt><trkpt lat="40.8973267" lon="14.278395"><ele>84.28571428571428</ele><time>2026-03-24T12:36:30.121Z</time></trkpt><trkpt lat="40.8973267" lon="14.2783017"><ele>84.42857142857143</ele><time>2026-03-24T12:36:31.12Z</time></trkpt><trkpt lat="40.8973233" lon="14.27821"><ele>84.57142857142857</ele><time>2026-03-24T12:36:32.122Z</time></trkpt><trkpt lat="40.89732" lon="14.27812"><ele>84.71428571428571</ele><time>2026-03-24T12:36:33.121Z</time></trkpt><trkpt lat="40.8973183" lon="14.2780233"><ele>84.85714285714286</ele><time>2026-03-24T12:36:34.118Z</time></trkpt><trkpt lat="40.8973233" lon="14.277925"><ele>85.0</ele><time>2026-03-24T12:36:35.121Z</time></trkpt><trkpt lat="40.8973283" lon="14.2778283"><ele>85.0</ele><time>2026-03-24T12:36:36.121Z</time></trkpt><trkpt lat="40.8973317" lon="14.2777317"><ele>85.0</ele><time>2026-03-24T12:36:37.12Z</time></trkpt><trkpt lat="40.8973333" lon="14.2776383"><ele>85.0</ele><time>2026-03-24T12:36:38.121Z</time></trkpt><trkpt lat="40.8973333" lon="14.2775433"><ele>85.0</ele><time>2026-03-24T12:36:39.12Z</time></trkpt><trkpt lat="40.8973317" lon="14.27745"><ele>85.0</ele><time>2026-03-24T12:36:40.12Z</time></trkpt><trkpt lat="40.89733" lon="14.277355"><ele>85.0</ele><time>2026-03-24T12:36:41.121Z</time></trkpt><trkpt lat="40.89733" lon="14.27726"><ele>85.0</ele><time>2026-03-24T12:36:42.12Z</time></trkpt><trkpt lat="40.89733" lon="14.2771683"><ele>85.2</ele><time>2026-03-24T12:36:43.12Z</time></trkpt><trkpt lat="40.8973283" lon="14.2770767"><ele>85.4</ele><time>2026-03-24T12:36:44.121Z</time></trkpt><trkpt lat="40.8973283" lon="14.2769833"><ele>85.6</ele><time>2026-03-24T12:36:45.121Z</time></trkpt><trkpt lat="40.8973267" lon="14.2767883"><ele>85.8</ele><time>2026-03-24T12:36:47.156Z</time></trkpt><trkpt lat="40.8973267" lon="14.2765967"><ele>86.0</ele><time>2026-03-24T12:36:49.126Z</time></trkpt><trkpt lat="40.89733" lon="14.2764067"><ele>86.14285714285715</ele><time>2026-03-24T12:36:51.119Z</time></trkpt><trkpt lat="40.8973317" lon="14.2763117"><ele>86.28571428571429</ele><time>2026-03-24T12:36:52.118Z</time></trkpt><trkpt lat="40.89733" lon="14.2762133"><ele>86.42857142857143</ele><time>2026-03-24T12:36:53.119Z</time></trkpt><trkpt lat="40.8973317" lon="14.2761183"><ele>86.57142857142858</ele><time>2026-03-24T12:36:54.12Z</time></trkpt><trkpt lat="40.8973333" lon="14.2760183"><ele>86.71428571428572</ele><time>2026-03-24T12:36:55.119Z</time></trkpt><trkpt lat="40.8973333" lon="14.27592"><ele>86.85714285714286</ele><time>2026-03-24T12:36:56.122Z</time></trkpt><trkpt lat="40.8973333" lon="14.2758233"><ele>87.0</ele><time>2026-03-24T12:36:57.119Z</time></trkpt><trkpt lat="40.897335" lon="14.27573"><ele>87.0</ele><time>2026-03-24T12:36:58.121Z</time></trkpt><trkpt lat="40.897335" lon="14.2756333"><ele>87.0</ele><time>2026-03-24T12:36:59.12Z</time></trkpt><trkpt lat="40.8973333" lon="14.275535"><ele>87.0</ele><time>2026-03-24T12:37:00.12Z</time></trkpt><trkpt lat="40.897335" lon="14.2754333"><ele>87.0</ele><time>2026-03-24T12:37:01.121Z</time></trkpt><trkpt lat="40.8973333" lon="14.275335"><ele>87.0</ele><time>2026-03-24T12:37:02.12Z</time></trkpt><trkpt lat="40.8973333" lon="14.275235"><ele>87.0</ele><time>2026-03-24T12:37:03.12Z</time></trkpt><trkpt lat="40.8973333" lon="14.2751367"><ele>87.0</ele><time>2026-03-24T12:37:04.121Z</time></trkpt><trkpt lat="40.8973367" lon="14.275035"><ele>87.83333333333333</ele><time>2026-03-24T12:37:05.12Z</time></trkpt><trkpt lat="40.8973333" lon="14.2749333"><ele>88.66666666666667</ele><time>2026-03-24T12:37:06.122Z</time></trkpt><trkpt lat="40.8973283" lon="14.27483"><ele>89.5</ele><time>2026-03-24T12:37:07.121Z</time></trkpt><trkpt lat="40.897325" lon="14.2747267"><ele>90.33333333333334</ele><time>2026-03-24T12:37:08.121Z</time></trkpt><trkpt lat="40.897325" lon="14.27462"><ele>91.16666666666667</ele><time>2026-03-24T12:37:09.119Z</time></trkpt><trkpt lat="40.8973233" lon="14.274515"><ele>92.0</ele><time>2026-03-24T12:37:10.121Z</time></trkpt><trkpt lat="40.8973233" lon="14.2744067"><ele>92.33333333333334</ele><time>2026-03-24T12:37:11.119Z</time></trkpt><trkpt lat="40.8973233" lon="14.2743017"><ele>92.66666666666667</ele><time>2026-03-24T12:37:12.12Z</time></trkpt><trkpt lat="40.89732" lon="14.2741917"><ele>93.0</ele><time>2026-03-24T12:37:13.121Z</time></trkpt><trkpt lat="40.8973183" lon="14.2740817"><ele>93.33333333333333</ele><time>2026-03-24T12:37:14.121Z</time></trkpt><trkpt lat="40.8973167" lon="14.2739717"><ele>93.66666666666666</ele><time>2026-03-24T12:37:15.12Z</time></trkpt><trkpt lat="40.8973183" lon="14.27386"><ele>94.0</ele><time>2026-03-24T12:37:16.123Z</time></trkpt><trkpt lat="40.8973183" lon="14.2737517"><ele>94.0</ele><time>2026-03-24T12:37:17.12Z</time></trkpt><trkpt lat="40.8973183" lon="14.2736417"><ele>94.0</ele><time>2026-03-24T12:37:18.121Z</time></trkpt><trkpt lat="40.897315" lon="14.2735333"><ele>94.0</ele><time>2026-03-24T12:37:19.121Z</time></trkpt><trkpt lat="40.8973133" lon="14.2734233"><ele>94.0</ele><time>2026-03-24T12:37:20.122Z</time></trkpt><trkpt lat="40.89731" lon="14.2733167"><ele>94.0</ele><time>2026-03-24T12:37:21.119Z</time></trkpt><trkpt lat="40.8973133" lon="14.27321"><ele>94.0</ele><time>2026-03-24T12:37:22.121Z</time></trkpt><trkpt lat="40.89732" lon="14.273105"><ele>93.5</ele><time>2026-03-24T12:37:23.121Z</time></trkpt><trkpt lat="40.897325" lon="14.273"><ele>93.0</ele><time>2026-03-24T12:37:24.12Z</time></trkpt><trkpt lat="40.8973333" lon="14.2728967"><ele>92.5</ele><time>2026-03-24T12:37:25.119Z</time></trkpt><trkpt lat="40.8973417" lon="14.27279"><ele>92.0</ele><time>2026-03-24T12:37:26.121Z</time></trkpt><trkpt lat="40.8973483" lon="14.2726833"><ele>91.5</ele><time>2026-03-24T12:37:27.12Z</time></trkpt><trkpt lat="40.8973583" lon="14.272575"><ele>91.0</ele><time>2026-03-24T12:37:28.121Z</time></trkpt><trkpt lat="40.8973667" lon="14.2724733"><ele>91.0</ele><time>2026-03-24T12:37:29.121Z</time></trkpt><trkpt lat="40.8973783" lon="14.27237"><ele>91.0</ele><time>2026-03-24T12:37:30.121Z</time></trkpt><trkpt lat="40.8973917" lon="14.2722667"><ele>91.0</ele><time>2026-03-24T12:37:31.12Z</time></trkpt><trkpt lat="40.8974117" lon="14.272165"><ele>91.0</ele><time>2026-03-24T12:37:32.121Z</time></trkpt><trkpt lat="40.8974333" lon="14.2720683"><ele>91.0</ele><time>2026-03-24T12:37:33.122Z</time></trkpt><trkpt lat="40.8974583" lon="14.271975"><ele>91.0</ele><time>2026-03-24T12:37:34.12Z</time></trkpt><trkpt lat="40.897485" lon="14.2718917"><ele>91.0</ele><time>2026-03-24T12:37:35.119Z</time></trkpt><trkpt lat="40.89754" lon="14.2717717"><ele>91.0</ele><time>2026-03-24T12:37:37.121Z</time></trkpt><trkpt lat="40.8975683" lon="14.2716933"><ele>91.0</ele><time>2026-03-24T12:37:39.12Z</time></trkpt><trkpt lat="40.89761" lon="14.2716133"><ele>91.0</ele><time>2026-03-24T12:37:41.12Z</time></trkpt><trkpt lat="40.89768" lon="14.2715383"><ele>91.0</ele><time>2026-03-24T12:37:43.119Z</time></trkpt><trkpt lat="40.8977717" lon="14.2714533"><ele>91.0</ele><time>2026-03-24T12:37:45.118Z</time></trkpt><trkpt lat="40.8978433" lon="14.2713333"><ele>91.0</ele><time>2026-03-24T12:37:47.119Z</time></trkpt><trkpt lat="40.8978933" lon="14.2711067"><ele>91.0</ele><time>2026-03-24T12:37:50.126Z</time></trkpt><trkpt lat="40.8979133" lon="14.27102"><ele>91.0</ele><time>2026-03-24T12:37:51.136Z</time></trkpt><trkpt lat="40.897945" lon="14.2709333"><ele>91.0</ele><time>2026-03-24T12:37:52.121Z</time></trkpt><trkpt lat="40.897975" lon="14.2708517"><ele>91.0</ele><time>2026-03-24T12:37:53.12Z</time></trkpt><trkpt lat="40.89801" lon="14.2707767"><ele>91.0</ele><time>2026-03-24T12:37:54.122Z</time></trkpt><trkpt lat="40.8980467" lon="14.2707"><ele>91.0</ele><time>2026-03-24T12:37:55.12Z</time></trkpt><trkpt lat="40.8980883" lon="14.2706267"><ele>91.0</ele><time>2026-03-24T12:37:56.128Z</time></trkpt><trkpt lat="40.89813" lon="14.2705583"><ele>91.0</ele><time>2026-03-24T12:37:57.118Z</time></trkpt><trkpt lat="40.8981783" lon="14.27049"><ele>91.0</ele><time>2026-03-24T12:37:58.122Z</time></trkpt><trkpt lat="40.8982217" lon="14.2704233"><ele>91.0</ele><time>2026-03-24T12:37:59.119Z</time></trkpt><trkpt lat="40.8982633" lon="14.2703567"><ele>91.0</ele><time>2026-03-24T12:38:00.118Z</time></trkpt><trkpt lat="40.898305" lon="14.2702917"><ele>91.0</ele><time>2026-03-24T12:38:01.118Z</time></trkpt><trkpt lat="40.8984433" lon="14.2701167"><ele>91.0</ele><time>2026-03-24T12:38:04.119Z</time></trkpt><trkpt lat="40.8984867" lon="14.270035"><ele>91.0</ele><time>2026-03-24T12:38:05.119Z</time></trkpt><trkpt lat="40.8985333" lon="14.269965"><ele>91.0</ele><time>2026-03-24T12:38:06.121Z</time></trkpt><trkpt lat="40.898575" lon="14.2698917"><ele>91.0</ele><time>2026-03-24T12:38:07.119Z</time></trkpt><trkpt lat="40.89862" lon="14.2698267"><ele>90.8</ele><time>2026-03-24T12:38:08.126Z</time></trkpt><trkpt lat="40.8986667" lon="14.269765"><ele>90.6</ele><time>2026-03-24T12:38:09.126Z</time></trkpt><trkpt lat="40.8987583" lon="14.26966"><ele>90.4</ele><time>2026-03-24T12:38:11.126Z</time></trkpt><trkpt lat="40.89886" lon="14.2695817"><ele>90.2</ele><time>2026-03-24T12:38:13.124Z</time></trkpt><trkpt lat="40.89897" lon="14.2695517"><ele>90.0</ele><time>2026-03-24T12:38:15.119Z</time></trkpt><trkpt lat="40.8990717" lon="14.269585"><ele>90.0</ele><time>2026-03-24T12:38:17.122Z</time></trkpt><trkpt lat="40.8991667" lon="14.2696367"><ele>90.0</ele><time>2026-03-24T12:38:19.12Z</time></trkpt><trkpt lat="40.8992467" lon="14.26968"><ele>90.0</ele><time>2026-03-24T12:38:21.128Z</time></trkpt><trkpt lat="40.89933" lon="14.2697133"><ele>90.0</ele><time>2026-03-24T12:38:24.12Z</time></trkpt><trkpt lat="40.8993617" lon="14.269635"><ele>90.0</ele><time>2026-03-24T12:38:29.12Z</time></trkpt><trkpt lat="40.899315" lon="14.2695517"><ele>90.0</ele><time>2026-03-24T12:38:33.119Z</time></trkpt><trkpt lat="40.89925" lon="14.269575"><ele>90.0</ele><time>2026-03-24T12:38:38.119Z</time></trkpt><trkpt lat="40.8992333" lon="14.26966"><ele>90.0</ele><time>2026-03-24T12:38:43.12Z</time></trkpt><trkpt lat="40.8993017" lon="14.2697083"><ele>90.0</ele><time>2026-03-24T12:38:48.121Z</time></trkpt><trkpt lat="40.89936" lon="14.2696667"><ele>90.0</ele><time>2026-03-24T12:38:53.122Z</time></trkpt><trkpt lat="40.8993217" lon="14.2695467"><ele>90.0</ele><time>2026-03-24T12:38:57.167Z</time></trkpt><trkpt lat="40.899305" lon="14.2694267"><ele>90.0</ele><time>2026-03-24T12:39:00.119Z</time></trkpt><trkpt lat="40.8992933" lon="14.2693"><ele>89.66666666666667</ele><time>2026-03-24T12:39:03.119Z</time></trkpt><trkpt lat="40.8992967" lon="14.2691883"><ele>89.33333333333333</ele><time>2026-03-24T12:39:05.121Z</time></trkpt><trkpt lat="40.8993067" lon="14.2690733"><ele>89.0</ele><time>2026-03-24T12:39:07.119Z</time></trkpt><trkpt lat="40.8993133" lon="14.2689583"><ele>88.66666666666666</ele><time>2026-03-24T12:39:09.119Z</time></trkpt><trkpt lat="40.89933" lon="14.2688417"><ele>88.33333333333333</ele><time>2026-03-24T12:39:11.119Z</time></trkpt><trkpt lat="40.89936" lon="14.268715"><ele>88.0</ele><time>2026-03-24T12:39:13.12Z</time></trkpt><trkpt lat="40.8994017" lon="14.26858"><ele>88.0</ele><time>2026-03-24T12:39:15.119Z</time></trkpt><trkpt lat="40.89946" lon="14.2684533"><ele>88.0</ele><time>2026-03-24T12:39:17.119Z</time></trkpt><trkpt lat="40.89953" lon="14.26833"><ele>88.0</ele><time>2026-03-24T12:39:19.119Z</time></trkpt><trkpt lat="40.8996067" lon="14.2682133"><ele>88.0</ele><time>2026-03-24T12:39:21.12Z</time></trkpt><trkpt lat="40.89968" lon="14.2680983"><ele>88.0</ele><time>2026-03-24T12:39:23.122Z</time></trkpt><trkpt lat="40.899755" lon="14.2679817"><ele>88.0</ele><time>2026-03-24T12:39:25.12Z</time></trkpt><trkpt lat="40.89984" lon="14.2678617"><ele>88.0</ele><time>2026-03-24T12:39:27.121Z</time></trkpt><trkpt lat="40.8999217" lon="14.2677383"><ele>88.0</ele><time>2026-03-24T12:39:29.12Z</time></trkpt><trkpt lat="40.899965" lon="14.2676733"><ele>88.0</ele><time>2026-03-24T12:39:30.12Z</time></trkpt><trkpt lat="40.9000083" lon="14.26761"><ele>88.0</ele><time>2026-03-24T12:39:31.121Z</time></trkpt><trkpt lat="40.9000533" lon="14.2675417"><ele>88.0</ele><time>2026-03-24T12:39:32.121Z</time></trkpt><trkpt lat="40.900095" lon="14.2674783"><ele>88.0</ele><time>2026-03-24T12:39:33.12Z</time></trkpt><trkpt lat="40.9001367" lon="14.267415"><ele>88.0</ele><time>2026-03-24T12:39:34.121Z</time></trkpt><trkpt lat="40.9001817" lon="14.2673517"><ele>88.0</ele><time>2026-03-24T12:39:35.122Z</time></trkpt><trkpt lat="40.900225" lon="14.2672883"><ele>88.0</ele><time>2026-03-24T12:39:36.123Z</time></trkpt><trkpt lat="40.9002683" lon="14.2672233"><ele>88.0</ele><time>2026-03-24T12:39:37.122Z</time></trkpt><trkpt lat="40.9003117" lon="14.2671567"><ele>88.0</ele><time>2026-03-24T12:39:38.121Z</time></trkpt><trkpt lat="40.9003567" lon="14.2670933"><ele>88.0</ele><time>2026-03-24T12:39:39.122Z</time></trkpt><trkpt lat="40.9004017" lon="14.2670267"><ele>88.0</ele><time>2026-03-24T12:39:40.12Z</time></trkpt><trkpt lat="40.90045" lon="14.26696"><ele>88.0</ele><time>2026-03-24T12:39:41.124Z</time></trkpt><trkpt lat="40.9004983" lon="14.2668967"><ele>88.0</ele><time>2026-03-24T12:39:42.122Z</time></trkpt><trkpt lat="40.9005483" lon="14.2668333"><ele>88.0</ele><time>2026-03-24T12:39:43.121Z</time></trkpt><trkpt lat="40.900595" lon="14.2667683"><ele>88.0</ele><time>2026-03-24T12:39:44.123Z</time></trkpt><trkpt lat="40.9006383" lon="14.2666983"><ele>88.0</ele><time>2026-03-24T12:39:45.119Z</time></trkpt><trkpt lat="40.9006833" lon="14.266625"><ele>88.0</ele><time>2026-03-24T12:39:46.123Z</time></trkpt><trkpt lat="40.9007317" lon="14.2665533"><ele>88.0</ele><time>2026-03-24T12:39:47.119Z</time></trkpt><trkpt lat="40.9007833" lon="14.2664833"><ele>88.0</ele><time>2026-03-24T12:39:48.12Z</time></trkpt><trkpt lat="40.900835" lon="14.2664117"><ele>88.0</ele><time>2026-03-24T12:39:49.12Z</time></trkpt><trkpt lat="40.9008867" lon="14.26634"><ele>88.0</ele><time>2026-03-24T12:39:50.121Z</time></trkpt><trkpt lat="40.9009367" lon="14.2662717"><ele>88.0</ele><time>2026-03-24T12:39:51.12Z</time></trkpt><trkpt lat="40.9009883" lon="14.266205"><ele>88.28571428571429</ele><time>2026-03-24T12:39:52.119Z</time></trkpt><trkpt lat="40.90104" lon="14.2661417"><ele>88.57142857142857</ele><time>2026-03-24T12:39:53.12Z</time></trkpt><trkpt lat="40.90109" lon="14.2660783"><ele>88.85714285714286</ele><time>2026-03-24T12:39:54.122Z</time></trkpt><trkpt lat="40.90114" lon="14.2660133"><ele>89.14285714285714</ele><time>2026-03-24T12:39:55.121Z</time></trkpt><trkpt lat="40.90119" lon="14.2659467"><ele>89.42857142857143</ele><time>2026-03-24T12:39:56.121Z</time></trkpt><trkpt lat="40.9012367" lon="14.2658783"><ele>89.71428571428571</ele><time>2026-03-24T12:39:57.119Z</time></trkpt><trkpt lat="40.901285" lon="14.2658083"><ele>90.0</ele><time>2026-03-24T12:39:58.121Z</time></trkpt><trkpt lat="40.9013333" lon="14.26574"><ele>90.0</ele><time>2026-03-24T12:39:59.12Z</time></trkpt><trkpt lat="40.901385" lon="14.26567"><ele>90.0</ele><time>2026-03-24T12:40:00.123Z</time></trkpt><trkpt lat="40.9014333" lon="14.2656017"><ele>90.0</ele><time>2026-03-24T12:40:01.125Z</time></trkpt><trkpt lat="40.9014817" lon="14.26553"><ele>90.0</ele><time>2026-03-24T12:40:02.123Z</time></trkpt><trkpt lat="40.9015283" lon="14.26546"><ele>90.0</ele><time>2026-03-24T12:40:03.123Z</time></trkpt><trkpt lat="40.9015717" lon="14.2653917"><ele>90.0</ele><time>2026-03-24T12:40:04.124Z</time></trkpt><trkpt lat="40.9016133" lon="14.2653267"><ele>90.0</ele><time>2026-03-24T12:40:05.122Z</time></trkpt><trkpt lat="40.9016567" lon="14.26526"><ele>90.14285714285714</ele><time>2026-03-24T12:40:06.122Z</time></trkpt><trkpt lat="40.901695" lon="14.2651933"><ele>90.28571428571429</ele><time>2026-03-24T12:40:07.123Z</time></trkpt><trkpt lat="40.9017333" lon="14.265125"><ele>90.42857142857143</ele><time>2026-03-24T12:40:08.121Z</time></trkpt><trkpt lat="40.9017767" lon="14.26506"><ele>90.57142857142857</ele><time>2026-03-24T12:40:09.12Z</time></trkpt><trkpt lat="40.90182" lon="14.2649933"><ele>90.71428571428572</ele><time>2026-03-24T12:40:10.123Z</time></trkpt><trkpt lat="40.9018617" lon="14.26493"><ele>90.85714285714286</ele><time>2026-03-24T12:40:11.121Z</time></trkpt><trkpt lat="40.9019417" lon="14.2648033"><ele>91.0</ele><time>2026-03-24T12:40:13.12Z</time></trkpt><trkpt lat="40.901985" lon="14.2647333"><ele>90.19999999999999</ele><time>2026-03-24T12:40:14.121Z</time></trkpt><trkpt lat="40.90203" lon="14.2646667"><ele>89.39999999999999</ele><time>2026-03-24T12:40:15.121Z</time></trkpt><trkpt lat="40.9020733" lon="14.2645983"><ele>88.6</ele><time>2026-03-24T12:40:16.121Z</time></trkpt><trkpt lat="40.9021133" lon="14.2645317"><ele>87.8</ele><time>2026-03-24T12:40:17.121Z</time></trkpt><trkpt lat="40.9021967" lon="14.2644"><ele>87.0</ele><time>2026-03-24T12:40:19.122Z</time></trkpt><trkpt lat="40.9022733" lon="14.264275"><ele>87.0</ele><time>2026-03-24T12:40:21.119Z</time></trkpt><trkpt lat="40.9023567" lon="14.2641467"><ele>87.0</ele><time>2026-03-24T12:40:23.121Z</time></trkpt><trkpt lat="40.902435" lon="14.2640267"><ele>87.0</ele><time>2026-03-24T12:40:25.121Z</time></trkpt><trkpt lat="40.9025067" lon="14.2639083"><ele>87.0</ele><time>2026-03-24T12:40:27.12Z</time></trkpt><trkpt lat="40.9025783" lon="14.2637833"><ele>87.19999999999999</ele><time>2026-03-24T12:40:29.122Z</time></trkpt><trkpt lat="40.9026567" lon="14.2636567"><ele>87.4</ele><time>2026-03-24T12:40:31.121Z</time></trkpt><trkpt lat="40.9027333" lon="14.2635367"><ele>87.6</ele><time>2026-03-24T12:40:33.12Z</time></trkpt><trkpt lat="40.9028117" lon="14.26341"><ele>87.80000000000001</ele><time>2026-03-24T12:40:35.123Z</time></trkpt><trkpt lat="40.9028517" lon="14.263345"><ele>88.0</ele><time>2026-03-24T12:40:36.122Z</time></trkpt><trkpt lat="40.9028917" lon="14.2632767"><ele>88.0</ele><time>2026-03-24T12:40:37.121Z</time></trkpt><trkpt lat="40.902935" lon="14.2632067"><ele>88.0</ele><time>2026-03-24T12:40:38.123Z</time></trkpt><trkpt lat="40.9029783" lon="14.2631383"><ele>88.0</ele><time>2026-03-24T12:40:39.122Z</time></trkpt><trkpt lat="40.9030217" lon="14.26307"><ele>88.0</ele><time>2026-03-24T12:40:40.119Z</time></trkpt><trkpt lat="40.9030633" lon="14.2630033"><ele>88.0</ele><time>2026-03-24T12:40:41.121Z</time></trkpt><trkpt lat="40.903105" lon="14.262935"><ele>88.0</ele><time>2026-03-24T12:40:42.125Z</time></trkpt><trkpt lat="40.9031483" lon="14.2628683"><ele>88.0</ele><time>2026-03-24T12:40:43.121Z</time></trkpt><trkpt lat="40.90319" lon="14.2627983"><ele>88.0</ele><time>2026-03-24T12:40:44.125Z</time></trkpt><trkpt lat="40.9032317" lon="14.2627283"><ele>88.0</ele><time>2026-03-24T12:40:45.124Z</time></trkpt><trkpt lat="40.9032733" lon="14.2626583"><ele>88.0</ele><time>2026-03-24T12:40:46.123Z</time></trkpt><trkpt lat="40.9033167" lon="14.2625867"><ele>88.0</ele><time>2026-03-24T12:40:47.122Z</time></trkpt><trkpt lat="40.9033633" lon="14.262515"><ele>88.0</ele><time>2026-03-24T12:40:48.121Z</time></trkpt><trkpt lat="40.90341" lon="14.2624433"><ele>88.0</ele><time>2026-03-24T12:40:49.121Z</time></trkpt><trkpt lat="40.903455" lon="14.2623733"><ele>88.0</ele><time>2026-03-24T12:40:50.121Z</time></trkpt><trkpt lat="40.9035" lon="14.262305"><ele>88.57142857142857</ele><time>2026-03-24T12:40:51.119Z</time></trkpt><trkpt lat="40.9035467" lon="14.2622367"><ele>89.14285714285714</ele><time>2026-03-24T12:40:52.119Z</time></trkpt><trkpt lat="40.9035967" lon="14.2621667"><ele>89.71428571428572</ele><time>2026-03-24T12:40:53.122Z</time></trkpt><trkpt lat="40.9036433" lon="14.2620983"><ele>90.28571428571428</ele><time>2026-03-24T12:40:54.121Z</time></trkpt><trkpt lat="40.9036883" lon="14.2620317"><ele>90.85714285714285</ele><time>2026-03-24T12:40:55.12Z</time></trkpt><trkpt lat="40.9037333" lon="14.2619633"><ele>91.42857142857143</ele><time>2026-03-24T12:40:56.121Z</time></trkpt><trkpt lat="40.90378" lon="14.2618933"><ele>92.0</ele><time>2026-03-24T12:40:57.119Z</time></trkpt><trkpt lat="40.903825" lon="14.261825"><ele>92.0</ele><time>2026-03-24T12:40:58.12Z</time></trkpt><trkpt lat="40.903875" lon="14.2617567"><ele>92.0</ele><time>2026-03-24T12:40:59.122Z</time></trkpt><trkpt lat="40.903925" lon="14.2616883"><ele>92.0</ele><time>2026-03-24T12:41:00.121Z</time></trkpt><trkpt lat="40.903975" lon="14.2616217"><ele>92.0</ele><time>2026-03-24T12:41:01.121Z</time></trkpt><trkpt lat="40.904025" lon="14.261555"><ele>92.0</ele><time>2026-03-24T12:41:02.121Z</time></trkpt><trkpt lat="40.9040733" lon="14.2614917"><ele>92.0</ele><time>2026-03-24T12:41:03.12Z</time></trkpt><trkpt lat="40.9041183" lon="14.261425"><ele>92.0</ele><time>2026-03-24T12:41:04.12Z</time></trkpt><trkpt lat="40.904165" lon="14.2613583"><ele>91.85714285714286</ele><time>2026-03-24T12:41:05.121Z</time></trkpt><trkpt lat="40.9042133" lon="14.26129"><ele>91.71428571428571</ele><time>2026-03-24T12:41:06.124Z</time></trkpt><trkpt lat="40.9042633" lon="14.261225"><ele>91.57142857142857</ele><time>2026-03-24T12:41:07.12Z</time></trkpt><trkpt lat="40.9043133" lon="14.2611567"><ele>91.42857142857143</ele><time>2026-03-24T12:41:08.121Z</time></trkpt><trkpt lat="40.9043617" lon="14.26109"><ele>91.28571428571428</ele><time>2026-03-24T12:41:09.122Z</time></trkpt><trkpt lat="40.90441" lon="14.2610233"><ele>91.14285714285714</ele><time>2026-03-24T12:41:10.121Z</time></trkpt><trkpt lat="40.90446" lon="14.260955"><ele>91.0</ele><time>2026-03-24T12:41:11.123Z</time></trkpt><trkpt lat="40.9045083" lon="14.2608867"><ele>90.85714285714286</ele><time>2026-03-24T12:41:12.121Z</time></trkpt><trkpt lat="40.9045567" lon="14.2608183"><ele>90.71428571428572</ele><time>2026-03-24T12:41:13.121Z</time></trkpt><trkpt lat="40.9046033" lon="14.26075"><ele>90.57142857142857</ele><time>2026-03-24T12:41:14.121Z</time></trkpt><trkpt lat="40.9046517" lon="14.2606833"><ele>90.42857142857143</ele><time>2026-03-24T12:41:15.12Z</time></trkpt><trkpt lat="40.9047017" lon="14.2606183"><ele>90.28571428571429</ele><time>2026-03-24T12:41:16.121Z</time></trkpt><trkpt lat="40.9047517" lon="14.2605517"><ele>90.14285714285714</ele><time>2026-03-24T12:41:17.121Z</time></trkpt><trkpt lat="40.9048017" lon="14.2604817"><ele>90.0</ele><time>2026-03-24T12:41:18.121Z</time></trkpt><trkpt lat="40.90485" lon="14.2604117"><ele>90.0</ele><time>2026-03-24T12:41:19.12Z</time></trkpt><trkpt lat="40.9048983" lon="14.260345"><ele>90.0</ele><time>2026-03-24T12:41:20.121Z</time></trkpt><trkpt lat="40.9049483" lon="14.260275"><ele>90.0</ele><time>2026-03-24T12:41:21.124Z</time></trkpt><trkpt lat="40.9049967" lon="14.2602083"><ele>90.0</ele><time>2026-03-24T12:41:22.121Z</time></trkpt><trkpt lat="40.905045" lon="14.26014"><ele>90.0</ele><time>2026-03-24T12:41:23.119Z</time></trkpt><trkpt lat="40.9050967" lon="14.2600667"><ele>90.0</ele><time>2026-03-24T12:41:24.121Z</time></trkpt><trkpt lat="40.90515" lon="14.2599917"><ele>90.0</ele><time>2026-03-24T12:41:25.122Z</time></trkpt><trkpt lat="40.90521" lon="14.259915"><ele>90.16666666666667</ele><time>2026-03-24T12:41:26.121Z</time></trkpt><trkpt lat="40.9052683" lon="14.2598383"><ele>90.33333333333333</ele><time>2026-03-24T12:41:27.123Z</time></trkpt><trkpt lat="40.905325" lon="14.25976"><ele>90.5</ele><time>2026-03-24T12:41:28.123Z</time></trkpt><trkpt lat="40.905385" lon="14.2596783"><ele>90.66666666666666</ele><time>2026-03-24T12:41:29.123Z</time></trkpt><trkpt lat="40.905445" lon="14.2595967"><ele>90.83333333333333</ele><time>2026-03-24T12:41:30.12Z</time></trkpt><trkpt lat="40.9055017" lon="14.2595117"><ele>91.0</ele><time>2026-03-24T12:41:31.123Z</time></trkpt><trkpt lat="40.9055633" lon="14.259425"><ele>91.0</ele><time>2026-03-24T12:41:32.121Z</time></trkpt><trkpt lat="40.905625" lon="14.2593367"><ele>91.0</ele><time>2026-03-24T12:41:33.12Z</time></trkpt><trkpt lat="40.905685" lon="14.2592483"><ele>91.0</ele><time>2026-03-24T12:41:34.119Z</time></trkpt><trkpt lat="40.9057467" lon="14.25916"><ele>91.0</ele><time>2026-03-24T12:41:35.121Z</time></trkpt><trkpt lat="40.9058067" lon="14.25907"><ele>91.0</ele><time>2026-03-24T12:41:36.122Z</time></trkpt><trkpt lat="40.905865" lon="14.25898"><ele>90.83333333333333</ele><time>2026-03-24T12:41:37.121Z</time></trkpt><trkpt lat="40.9059233" lon="14.25889"><ele>90.66666666666666</ele><time>2026-03-24T12:41:38.121Z</time></trkpt><trkpt lat="40.90598" lon="14.2588"><ele>90.5</ele><time>2026-03-24T12:41:39.12Z</time></trkpt><trkpt lat="40.9060367" lon="14.2587067"><ele>90.33333333333333</ele><time>2026-03-24T12:41:40.121Z</time></trkpt><trkpt lat="40.906095" lon="14.2586183"><ele>90.16666666666667</ele><time>2026-03-24T12:41:41.122Z</time></trkpt><trkpt lat="40.9061567" lon="14.2585317"><ele>90.0</ele><time>2026-03-24T12:41:42.121Z</time></trkpt><trkpt lat="40.90622" lon="14.258445"><ele>90.0</ele><time>2026-03-24T12:41:43.122Z</time></trkpt><trkpt lat="40.9062817" lon="14.2583583"><ele>90.0</ele><time>2026-03-24T12:41:44.126Z</time></trkpt><trkpt lat="40.90634" lon="14.2582683"><ele>90.0</ele><time>2026-03-24T12:41:45.123Z</time></trkpt><trkpt lat="40.9063917" lon="14.25818"><ele>90.0</ele><time>2026-03-24T12:41:46.121Z</time></trkpt><trkpt lat="40.90644" lon="14.2581017"><ele>90.0</ele><time>2026-03-24T12:41:47.121Z</time></trkpt><trkpt lat="40.906485" lon="14.258025"><ele>90.0</ele><time>2026-03-24T12:41:48.121Z</time></trkpt><trkpt lat="40.9065333" lon="14.25795"><ele>89.83333333333333</ele><time>2026-03-24T12:41:49.119Z</time></trkpt><trkpt lat="40.9065867" lon="14.2578767"><ele>89.66666666666667</ele><time>2026-03-24T12:41:50.121Z</time></trkpt><trkpt lat="40.9066417" lon="14.2578067"><ele>89.5</ele><time>2026-03-24T12:41:51.121Z</time></trkpt><trkpt lat="40.90669" lon="14.2577333"><ele>89.33333333333334</ele><time>2026-03-24T12:41:52.121Z</time></trkpt><trkpt lat="40.90674" lon="14.25766"><ele>89.16666666666667</ele><time>2026-03-24T12:41:53.121Z</time></trkpt><trkpt lat="40.9067917" lon="14.2575817"><ele>89.0</ele><time>2026-03-24T12:41:54.124Z</time></trkpt><trkpt lat="40.9068433" lon="14.2575067"><ele>89.0</ele><time>2026-03-24T12:41:55.121Z</time></trkpt><trkpt lat="40.9068933" lon="14.25743"><ele>89.0</ele><time>2026-03-24T12:41:56.122Z</time></trkpt><trkpt lat="40.906945" lon="14.25735"><ele>89.0</ele><time>2026-03-24T12:41:57.121Z</time></trkpt><trkpt lat="40.9069933" lon="14.2572733"><ele>89.0</ele><time>2026-03-24T12:41:58.121Z</time></trkpt><trkpt lat="40.9070433" lon="14.257195"><ele>89.0</ele><time>2026-03-24T12:41:59.122Z</time></trkpt><trkpt lat="40.9070967" lon="14.25712"><ele>89.0</ele><time>2026-03-24T12:42:00.124Z</time></trkpt><trkpt lat="40.9071483" lon="14.25705"><ele>89.0</ele><time>2026-03-24T12:42:01.122Z</time></trkpt><trkpt lat="40.9072017" lon="14.2569733"><ele>89.0</ele><time>2026-03-24T12:42:02.123Z</time></trkpt><trkpt lat="40.9072517" lon="14.256895"><ele>89.0</ele><time>2026-03-24T12:42:03.121Z</time></trkpt><trkpt lat="40.907305" lon="14.2568167"><ele>89.0</ele><time>2026-03-24T12:42:04.121Z</time></trkpt><trkpt lat="40.90736" lon="14.2567367"><ele>89.0</ele><time>2026-03-24T12:42:05.122Z</time></trkpt><trkpt lat="40.9074117" lon="14.2566567"><ele>89.0</ele><time>2026-03-24T12:42:06.121Z</time></trkpt><trkpt lat="40.90746" lon="14.2565767"><ele>89.0</ele><time>2026-03-24T12:42:07.122Z</time></trkpt><trkpt lat="40.90751" lon="14.2564983"><ele>89.0</ele><time>2026-03-24T12:42:08.125Z</time></trkpt><trkpt lat="40.9075633" lon="14.2564217"><ele>89.0</ele><time>2026-03-24T12:42:09.123Z</time></trkpt><trkpt lat="40.9076117" lon="14.2563467"><ele>89.0</ele><time>2026-03-24T12:42:10.121Z</time></trkpt><trkpt lat="40.907665" lon="14.2562717"><ele>89.0</ele><time>2026-03-24T12:42:11.122Z</time></trkpt><trkpt lat="40.9077183" lon="14.256195"><ele>89.0</ele><time>2026-03-24T12:42:12.121Z</time></trkpt><trkpt lat="40.90777" lon="14.2561183"><ele>88.83333333333334</ele><time>2026-03-24T12:42:13.123Z</time></trkpt><trkpt lat="40.9078233" lon="14.2560383"><ele>88.66666666666667</ele><time>2026-03-24T12:42:14.124Z</time></trkpt><trkpt lat="40.9078783" lon="14.2559567"><ele>88.5</ele><time>2026-03-24T12:42:15.122Z</time></trkpt><trkpt lat="40.907935" lon="14.255875"><ele>88.33333333333333</ele><time>2026-03-24T12:42:16.119Z</time></trkpt><trkpt lat="40.9079917" lon="14.255795"><ele>88.16666666666666</ele><time>2026-03-24T12:42:17.121Z</time></trkpt><trkpt lat="40.9080467" lon="14.255715"><ele>88.0</ele><time>2026-03-24T12:42:18.124Z</time></trkpt><trkpt lat="40.9081017" lon="14.2556367"><ele>88.0</ele><time>2026-03-24T12:42:19.123Z</time></trkpt><trkpt lat="40.9081567" lon="14.2555583"><ele>88.0</ele><time>2026-03-24T12:42:20.121Z</time></trkpt><trkpt lat="40.9082117" lon="14.2554767"><ele>88.0</ele><time>2026-03-24T12:42:21.12Z</time></trkpt><trkpt lat="40.9082633" lon="14.2553967"><ele>88.0</ele><time>2026-03-24T12:42:22.12Z</time></trkpt><trkpt lat="40.908315" lon="14.2553167"><ele>88.0</ele><time>2026-03-24T12:42:23.123Z</time></trkpt><trkpt lat="40.9083683" lon="14.2552383"><ele>88.0</ele><time>2026-03-24T12:42:24.121Z</time></trkpt><trkpt lat="40.90842" lon="14.25516"><ele>88.0</ele><time>2026-03-24T12:42:25.124Z</time></trkpt><trkpt lat="40.9084717" lon="14.2550817"><ele>88.0</ele><time>2026-03-24T12:42:26.125Z</time></trkpt><trkpt lat="40.908525" lon="14.2550017"><ele>88.0</ele><time>2026-03-24T12:42:27.121Z</time></trkpt><trkpt lat="40.9085767" lon="14.254925"><ele>88.0</ele><time>2026-03-24T12:42:28.123Z</time></trkpt><trkpt lat="40.9086283" lon="14.2548483"><ele>88.0</ele><time>2026-03-24T12:42:29.124Z</time></trkpt><trkpt lat="40.9086833" lon="14.25477"><ele>88.0</ele><time>2026-03-24T12:42:30.123Z</time></trkpt><trkpt lat="40.9087367" lon="14.2546917"><ele>88.16666666666666</ele><time>2026-03-24T12:42:31.123Z</time></trkpt><trkpt lat="40.9087883" lon="14.2546167"><ele>88.33333333333333</ele><time>2026-03-24T12:42:32.124Z</time></trkpt><trkpt lat="40.90884" lon="14.25454"><ele>88.5</ele><time>2026-03-24T12:42:33.121Z</time></trkpt><trkpt lat="40.9088917" lon="14.2544633"><ele>88.66666666666667</ele><time>2026-03-24T12:42:34.122Z</time></trkpt><trkpt lat="40.908945" lon="14.2543833"><ele>88.83333333333334</ele><time>2026-03-24T12:42:35.121Z</time></trkpt><trkpt lat="40.909" lon="14.254305"><ele>89.0</ele><time>2026-03-24T12:42:36.124Z</time></trkpt><trkpt lat="40.9090533" lon="14.2542267"><ele>89.0</ele><time>2026-03-24T12:42:37.123Z</time></trkpt><trkpt lat="40.909105" lon="14.2541467"><ele>89.0</ele><time>2026-03-24T12:42:38.121Z</time></trkpt><trkpt lat="40.9091567" lon="14.2540717"><ele>89.0</ele><time>2026-03-24T12:42:39.122Z</time></trkpt><trkpt lat="40.9092083" lon="14.2539933"><ele>89.0</ele><time>2026-03-24T12:42:40.121Z</time></trkpt><trkpt lat="40.9092583" lon="14.2539167"><ele>89.0</ele><time>2026-03-24T12:42:41.121Z</time></trkpt><trkpt lat="40.90931" lon="14.2538383"><ele>89.0</ele><time>2026-03-24T12:42:42.121Z</time></trkpt><trkpt lat="40.9093617" lon="14.2537617"><ele>89.0</ele><time>2026-03-24T12:42:43.123Z</time></trkpt><trkpt lat="40.9094133" lon="14.2536867"><ele>89.0</ele><time>2026-03-24T12:42:44.124Z</time></trkpt><trkpt lat="40.909465" lon="14.2536117"><ele>89.0</ele><time>2026-03-24T12:42:45.123Z</time></trkpt><trkpt lat="40.909515" lon="14.2535383"><ele>89.0</ele><time>2026-03-24T12:42:46.119Z</time></trkpt><trkpt lat="40.9095667" lon="14.2534633"><ele>89.0</ele><time>2026-03-24T12:42:47.122Z</time></trkpt><trkpt lat="40.9096183" lon="14.2533883"><ele>89.0</ele><time>2026-03-24T12:42:48.12Z</time></trkpt><trkpt lat="40.90967" lon="14.2533117"><ele>89.0</ele><time>2026-03-24T12:42:49.121Z</time></trkpt><trkpt lat="40.90972" lon="14.2532367"><ele>89.0</ele><time>2026-03-24T12:42:50.122Z</time></trkpt><trkpt lat="40.9097683" lon="14.2531617"><ele>89.0</ele><time>2026-03-24T12:42:51.12Z</time></trkpt><trkpt lat="40.90982" lon="14.253085"><ele>89.0</ele><time>2026-03-24T12:42:52.123Z</time></trkpt><trkpt lat="40.9098733" lon="14.2530083"><ele>89.0</ele><time>2026-03-24T12:42:53.123Z</time></trkpt><trkpt lat="40.909925" lon="14.25293"><ele>89.0</ele><time>2026-03-24T12:42:54.123Z</time></trkpt><trkpt lat="40.909975" lon="14.25285"><ele>89.0</ele><time>2026-03-24T12:42:55.123Z</time></trkpt><trkpt lat="40.9100267" lon="14.2527733"><ele>89.0</ele><time>2026-03-24T12:42:56.125Z</time></trkpt><trkpt lat="40.9100783" lon="14.2526967"><ele>89.0</ele><time>2026-03-24T12:42:57.123Z</time></trkpt><trkpt lat="40.9101317" lon="14.25262"><ele>89.0</ele><time>2026-03-24T12:42:58.121Z</time></trkpt><trkpt lat="40.9101817" lon="14.252545"><ele>89.0</ele><time>2026-03-24T12:42:59.123Z</time></trkpt><trkpt lat="40.9102333" lon="14.2524683"><ele>89.0</ele><time>2026-03-24T12:43:00.123Z</time></trkpt><trkpt lat="40.910285" lon="14.2523917"><ele>89.0</ele><time>2026-03-24T12:43:01.123Z</time></trkpt><trkpt lat="40.9103367" lon="14.2523133"><ele>89.0</ele><time>2026-03-24T12:43:02.121Z</time></trkpt><trkpt lat="40.9103883" lon="14.252235"><ele>89.0</ele><time>2026-03-24T12:43:03.121Z</time></trkpt><trkpt lat="40.91044" lon="14.2521583"><ele>89.0</ele><time>2026-03-24T12:43:04.121Z</time></trkpt><trkpt lat="40.9104917" lon="14.2520817"><ele>89.0</ele><time>2026-03-24T12:43:05.121Z</time></trkpt><trkpt lat="40.9105433" lon="14.252005"><ele>89.0</ele><time>2026-03-24T12:43:06.122Z</time></trkpt><trkpt lat="40.910595" lon="14.25193"><ele>89.0</ele><time>2026-03-24T12:43:07.121Z</time></trkpt><trkpt lat="40.9106483" lon="14.2518533"><ele>89.0</ele><time>2026-03-24T12:43:08.122Z</time></trkpt><trkpt lat="40.9107" lon="14.2517767"><ele>89.0</ele><time>2026-03-24T12:43:09.121Z</time></trkpt><trkpt lat="40.9107517" lon="14.2516983"><ele>89.0</ele><time>2026-03-24T12:43:10.12Z</time></trkpt><trkpt lat="40.9108033" lon="14.2516217"><ele>89.0</ele><time>2026-03-24T12:43:11.122Z</time></trkpt><trkpt lat="40.9108533" lon="14.2515433"><ele>89.0</ele><time>2026-03-24T12:43:12.125Z</time></trkpt><trkpt lat="40.910905" lon="14.2514667"><ele>89.33333333333334</ele><time>2026-03-24T12:43:13.121Z</time></trkpt><trkpt lat="40.9109567" lon="14.25139"><ele>89.66666666666667</ele><time>2026-03-24T12:43:14.125Z</time></trkpt><trkpt lat="40.91101" lon="14.2513133"><ele>90.0</ele><time>2026-03-24T12:43:15.12Z</time></trkpt><trkpt lat="40.9110617" lon="14.2512367"><ele>90.33333333333333</ele><time>2026-03-24T12:43:16.12Z</time></trkpt><trkpt lat="40.9111133" lon="14.2511617"><ele>90.66666666666666</ele><time>2026-03-24T12:43:17.119Z</time></trkpt><trkpt lat="40.911165" lon="14.2510833"><ele>91.0</ele><time>2026-03-24T12:43:18.12Z</time></trkpt><trkpt lat="40.9112183" lon="14.2510017"><ele>91.0</ele><time>2026-03-24T12:43:19.121Z</time></trkpt><trkpt lat="40.9112717" lon="14.2509217"><ele>91.0</ele><time>2026-03-24T12:43:20.12Z</time></trkpt><trkpt lat="40.9113283" lon="14.2508417"><ele>91.0</ele><time>2026-03-24T12:43:21.121Z</time></trkpt><trkpt lat="40.9113867" lon="14.25076"><ele>91.0</ele><time>2026-03-24T12:43:22.124Z</time></trkpt><trkpt lat="40.9114417" lon="14.2506767"><ele>91.0</ele><time>2026-03-24T12:43:23.121Z</time></trkpt><trkpt lat="40.911495" lon="14.2505967"><ele>91.0</ele><time>2026-03-24T12:43:24.123Z</time></trkpt><trkpt lat="40.9115467" lon="14.2505167"><ele>90.83333333333333</ele><time>2026-03-24T12:43:25.12Z</time></trkpt><trkpt lat="40.9116" lon="14.250435"><ele>90.66666666666666</ele><time>2026-03-24T12:43:26.122Z</time></trkpt><trkpt lat="40.9116517" lon="14.2503567"><ele>90.5</ele><time>2026-03-24T12:43:27.123Z</time></trkpt><trkpt lat="40.9117067" lon="14.2502767"><ele>90.33333333333333</ele><time>2026-03-24T12:43:28.121Z</time></trkpt><trkpt lat="40.9117617" lon="14.2501967"><ele>90.16666666666667</ele><time>2026-03-24T12:43:29.122Z</time></trkpt><trkpt lat="40.9118133" lon="14.250115"><ele>90.0</ele><time>2026-03-24T12:43:30.121Z</time></trkpt><trkpt lat="40.911865" lon="14.250035"><ele>90.5</ele><time>2026-03-24T12:43:31.121Z</time></trkpt><trkpt lat="40.9119183" lon="14.2499533"><ele>91.0</ele><time>2026-03-24T12:43:32.123Z</time></trkpt><trkpt lat="40.91197" lon="14.249875"><ele>91.5</ele><time>2026-03-24T12:43:33.119Z</time></trkpt><trkpt lat="40.91202" lon="14.2498"><ele>92.0</ele><time>2026-03-24T12:43:34.123Z</time></trkpt><trkpt lat="40.9120717" lon="14.249725"><ele>92.5</ele><time>2026-03-24T12:43:35.121Z</time></trkpt><trkpt lat="40.9121233" lon="14.2496467"><ele>93.0</ele><time>2026-03-24T12:43:36.123Z</time></trkpt><trkpt lat="40.9121783" lon="14.2495683"><ele>93.16666666666667</ele><time>2026-03-24T12:43:37.121Z</time></trkpt><trkpt lat="40.9122317" lon="14.2494867"><ele>93.33333333333333</ele><time>2026-03-24T12:43:38.122Z</time></trkpt><trkpt lat="40.912285" lon="14.2494067"><ele>93.5</ele><time>2026-03-24T12:43:39.12Z</time></trkpt><trkpt lat="40.9123383" lon="14.2493283"><ele>93.66666666666666</ele><time>2026-03-24T12:43:40.12Z</time></trkpt><trkpt lat="40.9123917" lon="14.2492483"><ele>93.83333333333333</ele><time>2026-03-24T12:43:41.121Z</time></trkpt><trkpt lat="40.912445" lon="14.2491717"><ele>94.0</ele><time>2026-03-24T12:43:42.122Z</time></trkpt><trkpt lat="40.9125" lon="14.249095"><ele>94.0</ele><time>2026-03-24T12:43:43.122Z</time></trkpt><trkpt lat="40.9125517" lon="14.249015"><ele>94.0</ele><time>2026-03-24T12:43:44.122Z</time></trkpt><trkpt lat="40.912605" lon="14.248935"><ele>94.0</ele><time>2026-03-24T12:43:45.121Z</time></trkpt><trkpt lat="40.9126583" lon="14.2488583"><ele>94.0</ele><time>2026-03-24T12:43:46.12Z</time></trkpt><trkpt lat="40.9127133" lon="14.2487783"><ele>94.0</ele><time>2026-03-24T12:43:47.121Z</time></trkpt><trkpt lat="40.9127667" lon="14.2486983"><ele>94.0</ele><time>2026-03-24T12:43:48.121Z</time></trkpt><trkpt lat="40.91282" lon="14.2486167"><ele>93.83333333333333</ele><time>2026-03-24T12:43:49.122Z</time></trkpt><trkpt lat="40.91287" lon="14.2485333"><ele>93.66666666666666</ele><time>2026-03-24T12:43:50.122Z</time></trkpt><trkpt lat="40.9129217" lon="14.24845"><ele>93.5</ele><time>2026-03-24T12:43:51.122Z</time></trkpt><trkpt lat="40.912975" lon="14.2483667"><ele>93.33333333333333</ele><time>2026-03-24T12:43:52.121Z</time></trkpt><trkpt lat="40.9130283" lon="14.2482883"><ele>93.16666666666667</ele><time>2026-03-24T12:43:53.121Z</time></trkpt><trkpt lat="40.9130817" lon="14.248205"><ele>93.0</ele><time>2026-03-24T12:43:54.122Z</time></trkpt><trkpt lat="40.9131333" lon="14.24812"><ele>92.66666666666667</ele><time>2026-03-24T12:43:55.121Z</time></trkpt><trkpt lat="40.91318" lon="14.2480317"><ele>92.33333333333333</ele><time>2026-03-24T12:43:56.121Z</time></trkpt><trkpt lat="40.913225" lon="14.2479517"><ele>92.0</ele><time>2026-03-24T12:43:57.121Z</time></trkpt><trkpt lat="40.9132683" lon="14.2478583"><ele>91.66666666666666</ele><time>2026-03-24T12:43:58.121Z</time></trkpt><trkpt lat="40.9133167" lon="14.24777"><ele>91.33333333333333</ele><time>2026-03-24T12:43:59.121Z</time></trkpt><trkpt lat="40.9133617" lon="14.2476833"><ele>91.0</ele><time>2026-03-24T12:44:00.12Z</time></trkpt><trkpt lat="40.9134117" lon="14.2475983"><ele>91.0</ele><time>2026-03-24T12:44:01.119Z</time></trkpt><trkpt lat="40.9134783" lon="14.2475217"><ele>91.0</ele><time>2026-03-24T12:44:02.121Z</time></trkpt><trkpt lat="40.9135433" lon="14.2474483"><ele>91.0</ele><time>2026-03-24T12:44:03.119Z</time></trkpt><trkpt lat="40.9136133" lon="14.247365"><ele>91.0</ele><time>2026-03-24T12:44:04.121Z</time></trkpt><trkpt lat="40.9136783" lon="14.24729"><ele>91.0</ele><time>2026-03-24T12:44:05.12Z</time></trkpt><trkpt lat="40.9137467" lon="14.24721"><ele>91.0</ele><time>2026-03-24T12:44:06.122Z</time></trkpt><trkpt lat="40.91381" lon="14.2471283"><ele>91.0</ele><time>2026-03-24T12:44:07.121Z</time></trkpt><trkpt lat="40.9138683" lon="14.2470517"><ele>91.0</ele><time>2026-03-24T12:44:08.122Z</time></trkpt><trkpt lat="40.9139233" lon="14.24697"><ele>91.0</ele><time>2026-03-24T12:44:09.12Z</time></trkpt><trkpt lat="40.9139767" lon="14.2468867"><ele>91.0</ele><time>2026-03-24T12:44:10.119Z</time></trkpt><trkpt lat="40.9140317" lon="14.2468033"><ele>91.0</ele><time>2026-03-24T12:44:11.121Z</time></trkpt><trkpt lat="40.914085" lon="14.2467233"><ele>91.0</ele><time>2026-03-24T12:44:12.119Z</time></trkpt><trkpt lat="40.9141383" lon="14.2466433"><ele>91.0</ele><time>2026-03-24T12:44:13.122Z</time></trkpt><trkpt lat="40.914195" lon="14.2465633"><ele>91.0</ele><time>2026-03-24T12:44:14.119Z</time></trkpt><trkpt lat="40.91425" lon="14.2464817"><ele>91.0</ele><time>2026-03-24T12:44:15.12Z</time></trkpt><trkpt lat="40.9143033" lon="14.2464017"><ele>91.0</ele><time>2026-03-24T12:44:16.12Z</time></trkpt><trkpt lat="40.9143533" lon="14.2463183"><ele>91.0</ele><time>2026-03-24T12:44:17.122Z</time></trkpt><trkpt lat="40.914405" lon="14.2462317"><ele>91.0</ele><time>2026-03-24T12:44:18.121Z</time></trkpt><trkpt lat="40.914455" lon="14.2461433"><ele>90.5</ele><time>2026-03-24T12:44:19.121Z</time></trkpt><trkpt lat="40.9145" lon="14.2460517"><ele>90.0</ele><time>2026-03-24T12:44:20.119Z</time></trkpt><trkpt lat="40.9145433" lon="14.24596"><ele>89.5</ele><time>2026-03-24T12:44:21.121Z</time></trkpt><trkpt lat="40.9145867" lon="14.2458633"><ele>89.0</ele><time>2026-03-24T12:44:22.12Z</time></trkpt><trkpt lat="40.9146283" lon="14.245765"><ele>88.5</ele><time>2026-03-24T12:44:23.12Z</time></trkpt><trkpt lat="40.9146667" lon="14.2456683"><ele>88.0</ele><time>2026-03-24T12:44:24.121Z</time></trkpt><trkpt lat="40.914705" lon="14.2455683"><ele>88.0</ele><time>2026-03-24T12:44:25.121Z</time></trkpt><trkpt lat="40.9147417" lon="14.24547"><ele>88.0</ele><time>2026-03-24T12:44:26.121Z</time></trkpt><trkpt lat="40.9147783" lon="14.24537"><ele>88.0</ele><time>2026-03-24T12:44:27.123Z</time></trkpt><trkpt lat="40.9148117" lon="14.24527"><ele>88.0</ele><time>2026-03-24T12:44:28.121Z</time></trkpt><trkpt lat="40.914845" lon="14.2451683"><ele>88.0</ele><time>2026-03-24T12:44:29.121Z</time></trkpt><trkpt lat="40.9148767" lon="14.2450633"><ele>88.0</ele><time>2026-03-24T12:44:30.121Z</time></trkpt><trkpt lat="40.914905" lon="14.2449583"><ele>88.0</ele><time>2026-03-24T12:44:31.122Z</time></trkpt><trkpt lat="40.91493" lon="14.244855"><ele>88.0</ele><time>2026-03-24T12:44:32.125Z</time></trkpt><trkpt lat="40.9149517" lon="14.244755"><ele>88.0</ele><time>2026-03-24T12:44:33.123Z</time></trkpt><trkpt lat="40.914975" lon="14.2446517"><ele>88.0</ele><time>2026-03-24T12:44:34.123Z</time></trkpt><trkpt lat="40.9149967" lon="14.2445467"><ele>88.0</ele><time>2026-03-24T12:44:35.12Z</time></trkpt><trkpt lat="40.915015" lon="14.2444467"><ele>88.0</ele><time>2026-03-24T12:44:36.122Z</time></trkpt><trkpt lat="40.9150317" lon="14.2443433"><ele>88.0</ele><time>2026-03-24T12:44:37.121Z</time></trkpt><trkpt lat="40.9150483" lon="14.2442383"><ele>88.0</ele><time>2026-03-24T12:44:38.122Z</time></trkpt><trkpt lat="40.915065" lon="14.2441333"><ele>88.0</ele><time>2026-03-24T12:44:39.122Z</time></trkpt><trkpt lat="40.9150767" lon="14.2440267"><ele>88.0</ele><time>2026-03-24T12:44:40.121Z</time></trkpt><trkpt lat="40.9150867" lon="14.24392"><ele>88.0</ele><time>2026-03-24T12:44:41.123Z</time></trkpt><trkpt lat="40.915095" lon="14.2438133"><ele>88.0</ele><time>2026-03-24T12:44:42.121Z</time></trkpt><trkpt lat="40.9151017" lon="14.2437083"><ele>88.66666666666666</ele><time>2026-03-24T12:44:43.121Z</time></trkpt><trkpt lat="40.91511" lon="14.2435983"><ele>89.33333333333333</ele><time>2026-03-24T12:44:44.125Z</time></trkpt><trkpt lat="40.9151167" lon="14.24349"><ele>90.0</ele><time>2026-03-24T12:44:45.121Z</time></trkpt><trkpt lat="40.9151217" lon="14.2433783"><ele>90.66666666666667</ele><time>2026-03-24T12:44:46.121Z</time></trkpt><trkpt lat="40.9151233" lon="14.2432683"><ele>91.33333333333334</ele><time>2026-03-24T12:44:47.121Z</time></trkpt><trkpt lat="40.9151233" lon="14.24316"><ele>92.0</ele><time>2026-03-24T12:44:48.122Z</time></trkpt><trkpt lat="40.9151217" lon="14.2430533"><ele>92.16666666666667</ele><time>2026-03-24T12:44:49.121Z</time></trkpt><trkpt lat="40.9151183" lon="14.2429483"><ele>92.33333333333334</ele><time>2026-03-24T12:44:50.122Z</time></trkpt><trkpt lat="40.9151117" lon="14.24284"><ele>92.5</ele><time>2026-03-24T12:44:51.121Z</time></trkpt><trkpt lat="40.9151033" lon="14.2427367"><ele>92.66666666666667</ele><time>2026-03-24T12:44:52.121Z</time></trkpt><trkpt lat="40.9150933" lon="14.2426317"><ele>92.83333333333333</ele><time>2026-03-24T12:44:53.121Z</time></trkpt><trkpt lat="40.91508" lon="14.2425267"><ele>93.0</ele><time>2026-03-24T12:44:54.122Z</time></trkpt><trkpt lat="40.9150667" lon="14.2424217"><ele>92.83333333333333</ele><time>2026-03-24T12:44:55.121Z</time></trkpt><trkpt lat="40.9150517" lon="14.2423167"><ele>92.66666666666667</ele><time>2026-03-24T12:44:56.12Z</time></trkpt><trkpt lat="40.915035" lon="14.2422167"><ele>92.5</ele><time>2026-03-24T12:44:57.122Z</time></trkpt><trkpt lat="40.9150217" lon="14.242115"><ele>92.33333333333334</ele><time>2026-03-24T12:44:58.121Z</time></trkpt><trkpt lat="40.9150083" lon="14.2420133"><ele>92.16666666666667</ele><time>2026-03-24T12:44:59.121Z</time></trkpt><trkpt lat="40.91499" lon="14.24191"><ele>92.0</ele><time>2026-03-24T12:45:00.121Z</time></trkpt><trkpt lat="40.91497" lon="14.2418117"><ele>92.0</ele><time>2026-03-24T12:45:01.121Z</time></trkpt><trkpt lat="40.9149483" lon="14.24171"><ele>92.0</ele><time>2026-03-24T12:45:02.122Z</time></trkpt><trkpt lat="40.9149233" lon="14.2416083"><ele>92.0</ele><time>2026-03-24T12:45:03.121Z</time></trkpt><trkpt lat="40.9149" lon="14.2415083"><ele>92.0</ele><time>2026-03-24T12:45:04.121Z</time></trkpt><trkpt lat="40.914875" lon="14.2414083"><ele>92.0</ele><time>2026-03-24T12:45:05.121Z</time></trkpt><trkpt lat="40.9148483" lon="14.24131"><ele>92.0</ele><time>2026-03-24T12:45:06.121Z</time></trkpt><trkpt lat="40.9148183" lon="14.2412133"><ele>92.16666666666667</ele><time>2026-03-24T12:45:07.121Z</time></trkpt><trkpt lat="40.9147833" lon="14.24112"><ele>92.33333333333334</ele><time>2026-03-24T12:45:08.122Z</time></trkpt><trkpt lat="40.9147483" lon="14.2410267"><ele>92.5</ele><time>2026-03-24T12:45:09.124Z</time></trkpt><trkpt lat="40.9147117" lon="14.2409333"><ele>92.66666666666667</ele><time>2026-03-24T12:45:10.122Z</time></trkpt><trkpt lat="40.9146733" lon="14.2408367"><ele>92.83333333333333</ele><time>2026-03-24T12:45:11.121Z</time></trkpt><trkpt lat="40.9146333" lon="14.24074"><ele>93.0</ele><time>2026-03-24T12:45:12.121Z</time></trkpt><trkpt lat="40.9145917" lon="14.240645"><ele>93.0</ele><time>2026-03-24T12:45:13.121Z</time></trkpt><trkpt lat="40.914545" lon="14.2405567"><ele>93.0</ele><time>2026-03-24T12:45:14.122Z</time></trkpt><trkpt lat="40.914495" lon="14.24047"><ele>93.0</ele><time>2026-03-24T12:45:15.121Z</time></trkpt><trkpt lat="40.9144467" lon="14.240385"><ele>93.0</ele><time>2026-03-24T12:45:16.122Z</time></trkpt><trkpt lat="40.9144" lon="14.2402967"><ele>93.0</ele><time>2026-03-24T12:45:17.122Z</time></trkpt><trkpt lat="40.91435" lon="14.2402083"><ele>93.0</ele><time>2026-03-24T12:45:18.12Z</time></trkpt><trkpt lat="40.9143" lon="14.24012"><ele>93.0</ele><time>2026-03-24T12:45:19.122Z</time></trkpt><trkpt lat="40.91425" lon="14.2400317"><ele>93.0</ele><time>2026-03-24T12:45:20.12Z</time></trkpt><trkpt lat="40.9141983" lon="14.2399433"><ele>93.0</ele><time>2026-03-24T12:45:21.123Z</time></trkpt><trkpt lat="40.9141467" lon="14.2398517"><ele>93.0</ele><time>2026-03-24T12:45:22.121Z</time></trkpt><trkpt lat="40.9140967" lon="14.2397617"><ele>93.0</ele><time>2026-03-24T12:45:23.12Z</time></trkpt><trkpt lat="40.9140433" lon="14.239675"><ele>93.0</ele><time>2026-03-24T12:45:24.121Z</time></trkpt><trkpt lat="40.9139917" lon="14.2395917"><ele>93.16666666666667</ele><time>2026-03-24T12:45:25.12Z</time></trkpt><trkpt lat="40.9139383" lon="14.2395117"><ele>93.33333333333333</ele><time>2026-03-24T12:45:26.12Z</time></trkpt><trkpt lat="40.9138867" lon="14.2394367"><ele>93.5</ele><time>2026-03-24T12:45:27.122Z</time></trkpt><trkpt lat="40.913835" lon="14.23936"><ele>93.66666666666666</ele><time>2026-03-24T12:45:28.12Z</time></trkpt><trkpt lat="40.9137833" lon="14.2392883"><ele>93.83333333333333</ele><time>2026-03-24T12:45:29.121Z</time></trkpt><trkpt lat="40.913735" lon="14.2392183"><ele>94.0</ele><time>2026-03-24T12:45:30.122Z</time></trkpt><trkpt lat="40.9136867" lon="14.2391467"><ele>94.0</ele><time>2026-03-24T12:45:31.121Z</time></trkpt><trkpt lat="40.9136433" lon="14.239075"><ele>94.0</ele><time>2026-03-24T12:45:32.12Z</time></trkpt><trkpt lat="40.9136" lon="14.2390017"><ele>94.0</ele><time>2026-03-24T12:45:33.121Z</time></trkpt><trkpt lat="40.9135583" lon="14.238935"><ele>94.0</ele><time>2026-03-24T12:45:34.121Z</time></trkpt><trkpt lat="40.913515" lon="14.2388683"><ele>94.0</ele><time>2026-03-24T12:45:35.121Z</time></trkpt><trkpt lat="40.9134717" lon="14.2388033"><ele>94.0</ele><time>2026-03-24T12:45:36.121Z</time></trkpt><trkpt lat="40.9134317" lon="14.238735"><ele>94.0</ele><time>2026-03-24T12:45:37.121Z</time></trkpt><trkpt lat="40.91339" lon="14.2386683"><ele>94.66666666666666</ele><time>2026-03-24T12:45:38.121Z</time></trkpt><trkpt lat="40.9133067" lon="14.23855"><ele>95.33333333333333</ele><time>2026-03-24T12:45:40.121Z</time></trkpt><trkpt lat="40.9132617" lon="14.2384867"><ele>96.0</ele><time>2026-03-24T12:45:41.121Z</time></trkpt><trkpt lat="40.9132133" lon="14.23842"><ele>96.66666666666666</ele><time>2026-03-24T12:45:42.12Z</time></trkpt><trkpt lat="40.9131683" lon="14.2383517"><ele>97.33333333333333</ele><time>2026-03-24T12:45:43.124Z</time></trkpt><trkpt lat="40.9131217" lon="14.2382817"><ele>98.0</ele><time>2026-03-24T12:45:44.124Z</time></trkpt><trkpt lat="40.913075" lon="14.2382117"><ele>98.0</ele><time>2026-03-24T12:45:45.12Z</time></trkpt><trkpt lat="40.9130317" lon="14.2381383"><ele>98.0</ele><time>2026-03-24T12:45:46.121Z</time></trkpt><trkpt lat="40.912985" lon="14.2380667"><ele>98.0</ele><time>2026-03-24T12:45:47.122Z</time></trkpt><trkpt lat="40.9129367" lon="14.237995"><ele>98.0</ele><time>2026-03-24T12:45:48.122Z</time></trkpt><trkpt lat="40.9128867" lon="14.2379217"><ele>98.0</ele><time>2026-03-24T12:45:49.121Z</time></trkpt><trkpt lat="40.9128383" lon="14.2378467"><ele>98.0</ele><time>2026-03-24T12:45:50.121Z</time></trkpt><trkpt lat="40.9127867" lon="14.2377667"><ele>98.0</ele><time>2026-03-24T12:45:51.121Z</time></trkpt><trkpt lat="40.912735" lon="14.2376867"><ele>97.99999999999999</ele><time>2026-03-24T12:45:52.122Z</time></trkpt><trkpt lat="40.9126817" lon="14.2376067"><ele>98.0</ele><time>2026-03-24T12:45:53.121Z</time></trkpt><trkpt lat="40.9126233" lon="14.2375317"><ele>98.0</ele><time>2026-03-24T12:45:54.122Z</time></trkpt><trkpt lat="40.9125667" lon="14.2374517"><ele>98.0</ele><time>2026-03-24T12:45:55.121Z</time></trkpt><trkpt lat="40.9125133" lon="14.2373733"><ele>97.99999999999999</ele><time>2026-03-24T12:45:56.121Z</time></trkpt><trkpt lat="40.9124567" lon="14.2372933"><ele>98.0</ele><time>2026-03-24T12:45:57.125Z</time></trkpt><trkpt lat="40.9123983" lon="14.237215"><ele>98.66666666666666</ele><time>2026-03-24T12:45:58.12Z</time></trkpt><trkpt lat="40.9123417" lon="14.2371367"><ele>99.33333333333333</ele><time>2026-03-24T12:45:59.124Z</time></trkpt><trkpt lat="40.9122867" lon="14.2370567"><ele>100.0</ele><time>2026-03-24T12:46:00.121Z</time></trkpt><trkpt lat="40.9122317" lon="14.2369767"><ele>100.66666666666666</ele><time>2026-03-24T12:46:01.121Z</time></trkpt><trkpt lat="40.9121767" lon="14.2368983"><ele>101.33333333333333</ele><time>2026-03-24T12:46:02.122Z</time></trkpt><trkpt lat="40.9121217" lon="14.2368183"><ele>102.0</ele><time>2026-03-24T12:46:03.122Z</time></trkpt><trkpt lat="40.9120683" lon="14.23674"><ele>102.0</ele><time>2026-03-24T12:46:04.121Z</time></trkpt><trkpt lat="40.912015" lon="14.2366583"><ele>102.0</ele><time>2026-03-24T12:46:05.121Z</time></trkpt><trkpt lat="40.9119617" lon="14.236575"><ele>102.0</ele><time>2026-03-24T12:46:06.121Z</time></trkpt><trkpt lat="40.9119133" lon="14.2364967"><ele>102.0</ele><time>2026-03-24T12:46:07.122Z</time></trkpt><trkpt lat="40.9118667" lon="14.2364233"><ele>102.0</ele><time>2026-03-24T12:46:08.122Z</time></trkpt><trkpt lat="40.9118133" lon="14.23635"><ele>102.0</ele><time>2026-03-24T12:46:09.122Z</time></trkpt><trkpt lat="40.91176" lon="14.236285"><ele>102.0</ele><time>2026-03-24T12:46:10.121Z</time></trkpt><trkpt lat="40.9117083" lon="14.2362167"><ele>102.0</ele><time>2026-03-24T12:46:11.123Z</time></trkpt><trkpt lat="40.91166" lon="14.2361467"><ele>102.0</ele><time>2026-03-24T12:46:12.122Z</time></trkpt><trkpt lat="40.9116183" lon="14.2360767"><ele>102.0</ele><time>2026-03-24T12:46:13.121Z</time></trkpt><trkpt lat="40.91159" lon="14.2359983"><ele>102.0</ele><time>2026-03-24T12:46:14.122Z</time></trkpt><trkpt lat="40.9115683" lon="14.2359167"><ele>102.0</ele><time>2026-03-24T12:46:15.121Z</time></trkpt><trkpt lat="40.9115467" lon="14.2358367"><ele>102.0</ele><time>2026-03-24T12:46:16.121Z</time></trkpt><trkpt lat="40.9115233" lon="14.2357583"><ele>102.0</ele><time>2026-03-24T12:46:17.121Z</time></trkpt><trkpt lat="40.9114617" lon="14.2356233"><ele>102.0</ele><time>2026-03-24T12:46:19.121Z</time></trkpt><trkpt lat="40.91137" lon="14.2355217"><ele>102.0</ele><time>2026-03-24T12:46:21.119Z</time></trkpt><trkpt lat="40.9113133" lon="14.2354767"><ele>102.0</ele><time>2026-03-24T12:46:22.121Z</time></trkpt><trkpt lat="40.9112567" lon="14.2354267"><ele>102.0</ele><time>2026-03-24T12:46:23.119Z</time></trkpt><trkpt lat="40.9112" lon="14.2353733"><ele>102.0</ele><time>2026-03-24T12:46:24.121Z</time></trkpt><trkpt lat="40.9111467" lon="14.235315"><ele>102.0</ele><time>2026-03-24T12:46:25.123Z</time></trkpt><trkpt lat="40.9111" lon="14.2352483"><ele>102.0</ele><time>2026-03-24T12:46:26.122Z</time></trkpt><trkpt lat="40.9110533" lon="14.2351783"><ele>102.0</ele><time>2026-03-24T12:46:27.121Z</time></trkpt><trkpt lat="40.9110067" lon="14.2351117"><ele>102.0</ele><time>2026-03-24T12:46:28.121Z</time></trkpt><trkpt lat="40.9109617" lon="14.2350417"><ele>102.0</ele><time>2026-03-24T12:46:29.121Z</time></trkpt><trkpt lat="40.9109167" lon="14.2349717"><ele>102.0</ele><time>2026-03-24T12:46:30.122Z</time></trkpt><trkpt lat="40.9108733" lon="14.2349067"><ele>102.0</ele><time>2026-03-24T12:46:31.121Z</time></trkpt><trkpt lat="40.9108317" lon="14.23484"><ele>102.14285714285714</ele><time>2026-03-24T12:46:32.122Z</time></trkpt><trkpt lat="40.9107867" lon="14.2347717"><ele>102.28571428571429</ele><time>2026-03-24T12:46:33.121Z</time></trkpt><trkpt lat="40.9107467" lon="14.2347017"><ele>102.42857142857142</ele><time>2026-03-24T12:46:34.121Z</time></trkpt><trkpt lat="40.9107033" lon="14.234635"><ele>102.57142857142857</ele><time>2026-03-24T12:46:35.121Z</time></trkpt><trkpt lat="40.9106617" lon="14.2345683"><ele>102.71428571428571</ele><time>2026-03-24T12:46:36.122Z</time></trkpt><trkpt lat="40.91062" lon="14.2344983"><ele>102.85714285714285</ele><time>2026-03-24T12:46:37.122Z</time></trkpt><trkpt lat="40.91058" lon="14.23443"><ele>103.0</ele><time>2026-03-24T12:46:38.122Z</time></trkpt><trkpt lat="40.9105433" lon="14.2343583"><ele>102.99999999999999</ele><time>2026-03-24T12:46:39.121Z</time></trkpt><trkpt lat="40.910505" lon="14.234285"><ele>103.0</ele><time>2026-03-24T12:46:40.121Z</time></trkpt><trkpt lat="40.9104683" lon="14.23421"><ele>103.0</ele><time>2026-03-24T12:46:41.122Z</time></trkpt><trkpt lat="40.9104333" lon="14.234135"><ele>103.0</ele><time>2026-03-24T12:46:42.121Z</time></trkpt><trkpt lat="40.9103983" lon="14.23406"><ele>103.0</ele><time>2026-03-24T12:46:43.121Z</time></trkpt><trkpt lat="40.910365" lon="14.2339833"><ele>102.99999999999999</ele><time>2026-03-24T12:46:44.122Z</time></trkpt><trkpt lat="40.9103333" lon="14.2338967"><ele>103.0</ele><time>2026-03-24T12:46:45.121Z</time></trkpt><trkpt lat="40.9102983" lon="14.2338133"><ele>103.14285714285714</ele><time>2026-03-24T12:46:46.12Z</time></trkpt><trkpt lat="40.9102667" lon="14.2337317"><ele>103.28571428571428</ele><time>2026-03-24T12:46:47.121Z</time></trkpt><trkpt lat="40.9102367" lon="14.2336517"><ele>103.42857142857142</ele><time>2026-03-24T12:46:48.12Z</time></trkpt><trkpt lat="40.9102083" lon="14.2335733"><ele>103.57142857142857</ele><time>2026-03-24T12:46:49.121Z</time></trkpt><trkpt lat="40.9101783" lon="14.233495"><ele>103.71428571428572</ele><time>2026-03-24T12:46:50.123Z</time></trkpt><trkpt lat="40.9101517" lon="14.2334133"><ele>103.85714285714285</ele><time>2026-03-24T12:46:51.12Z</time></trkpt><trkpt lat="40.9101267" lon="14.2333317"><ele>104.0</ele><time>2026-03-24T12:46:52.12Z</time></trkpt><trkpt lat="40.9101033" lon="14.2332467"><ele>104.0</ele><time>2026-03-24T12:46:53.121Z</time></trkpt><trkpt lat="40.9100833" lon="14.23316"><ele>104.0</ele><time>2026-03-24T12:46:54.123Z</time></trkpt><trkpt lat="40.9100617" lon="14.2330767"><ele>104.0</ele><time>2026-03-24T12:46:55.123Z</time></trkpt><trkpt lat="40.9100417" lon="14.2329883"><ele>104.0</ele><time>2026-03-24T12:46:56.121Z</time></trkpt><trkpt lat="40.9100233" lon="14.2329"><ele>104.0</ele><time>2026-03-24T12:46:57.122Z</time></trkpt><trkpt lat="40.910005" lon="14.2328133"><ele>104.0</ele><time>2026-03-24T12:46:58.121Z</time></trkpt><trkpt lat="40.90999" lon="14.232725"><ele>104.0</ele><time>2026-03-24T12:46:59.121Z</time></trkpt><trkpt lat="40.909975" lon="14.2326367"><ele>104.28571428571428</ele><time>2026-03-24T12:47:00.121Z</time></trkpt><trkpt lat="40.9099567" lon="14.2325483"><ele>104.57142857142858</ele><time>2026-03-24T12:47:01.121Z</time></trkpt><trkpt lat="40.90994" lon="14.23246"><ele>104.85714285714286</ele><time>2026-03-24T12:47:02.121Z</time></trkpt><trkpt lat="40.9099267" lon="14.23237"><ele>105.14285714285714</ele><time>2026-03-24T12:47:03.122Z</time></trkpt><trkpt lat="40.9099133" lon="14.2322783"><ele>105.42857142857142</ele><time>2026-03-24T12:47:04.12Z</time></trkpt><trkpt lat="40.9099033" lon="14.2321883"><ele>105.71428571428572</ele><time>2026-03-24T12:47:05.119Z</time></trkpt><trkpt lat="40.9098933" lon="14.232095"><ele>106.0</ele><time>2026-03-24T12:47:06.122Z</time></trkpt><trkpt lat="40.90989" lon="14.2320033"><ele>106.0</ele><time>2026-03-24T12:47:07.123Z</time></trkpt><trkpt lat="40.9098867" lon="14.2319133"><ele>106.0</ele><time>2026-03-24T12:47:08.122Z</time></trkpt><trkpt lat="40.9098883" lon="14.2318183"><ele>106.0</ele><time>2026-03-24T12:47:09.121Z</time></trkpt><trkpt lat="40.90989" lon="14.2317233"><ele>106.0</ele><time>2026-03-24T12:47:10.119Z</time></trkpt><trkpt lat="40.9098883" lon="14.2316267"><ele>106.0</ele><time>2026-03-24T12:47:11.121Z</time></trkpt><trkpt lat="40.9098867" lon="14.23153"><ele>106.0</ele><time>2026-03-24T12:47:12.121Z</time></trkpt><trkpt lat="40.909885" lon="14.2314367"><ele>106.0</ele><time>2026-03-24T12:47:13.124Z</time></trkpt><trkpt lat="40.9098833" lon="14.231345"><ele>106.28571428571429</ele><time>2026-03-24T12:47:14.126Z</time></trkpt><trkpt lat="40.9098867" lon="14.2312533"><ele>106.57142857142857</ele><time>2026-03-24T12:47:15.121Z</time></trkpt><trkpt lat="40.9098967" lon="14.2311617"><ele>106.85714285714286</ele><time>2026-03-24T12:47:16.12Z</time></trkpt><trkpt lat="40.9099067" lon="14.23107"><ele>107.14285714285714</ele><time>2026-03-24T12:47:17.121Z</time></trkpt><trkpt lat="40.9099183" lon="14.23098"><ele>107.42857142857142</ele><time>2026-03-24T12:47:18.121Z</time></trkpt><trkpt lat="40.90993" lon="14.23089"><ele>107.71428571428571</ele><time>2026-03-24T12:47:19.12Z</time></trkpt><trkpt lat="40.9099417" lon="14.2308033"><ele>108.0</ele><time>2026-03-24T12:47:20.122Z</time></trkpt><trkpt lat="40.9099533" lon="14.2307133"><ele>108.14285714285714</ele><time>2026-03-24T12:47:21.121Z</time></trkpt><trkpt lat="40.90997" lon="14.230625"><ele>108.28571428571428</ele><time>2026-03-24T12:47:22.121Z</time></trkpt><trkpt lat="40.909985" lon="14.2305333"><ele>108.42857142857143</ele><time>2026-03-24T12:47:23.123Z</time></trkpt><trkpt lat="40.9100017" lon="14.2304433"><ele>108.57142857142857</ele><time>2026-03-24T12:47:24.122Z</time></trkpt><trkpt lat="40.9100233" lon="14.230355"><ele>108.71428571428572</ele><time>2026-03-24T12:47:25.123Z</time></trkpt><trkpt lat="40.910045" lon="14.2302683"><ele>108.85714285714286</ele><time>2026-03-24T12:47:26.122Z</time></trkpt><trkpt lat="40.9100667" lon="14.2301817"><ele>109.0</ele><time>2026-03-24T12:47:27.12Z</time></trkpt><trkpt lat="40.9100917" lon="14.230095"><ele>108.85714285714286</ele><time>2026-03-24T12:47:28.123Z</time></trkpt><trkpt lat="40.9101167" lon="14.2300067"><ele>108.71428571428572</ele><time>2026-03-24T12:47:29.123Z</time></trkpt><trkpt lat="40.910145" lon="14.2299167"><ele>108.57142857142857</ele><time>2026-03-24T12:47:30.12Z</time></trkpt><trkpt lat="40.9101717" lon="14.2298317"><ele>108.42857142857143</ele><time>2026-03-24T12:47:31.121Z</time></trkpt><trkpt lat="40.9102017" lon="14.2297467"><ele>108.28571428571428</ele><time>2026-03-24T12:47:32.121Z</time></trkpt><trkpt lat="40.9102317" lon="14.2296633"><ele>108.14285714285714</ele><time>2026-03-24T12:47:33.121Z</time></trkpt><trkpt lat="40.91026" lon="14.229575"><ele>108.0</ele><time>2026-03-24T12:47:34.12Z</time></trkpt><trkpt lat="40.9102867" lon="14.2294867"><ele>108.0</ele><time>2026-03-24T12:47:35.122Z</time></trkpt><trkpt lat="40.9103167" lon="14.2293983"><ele>108.0</ele><time>2026-03-24T12:47:36.122Z</time></trkpt><trkpt lat="40.91035" lon="14.2293133"><ele>108.0</ele><time>2026-03-24T12:47:37.12Z</time></trkpt><trkpt lat="40.9103817" lon="14.22923"><ele>108.0</ele><time>2026-03-24T12:47:38.13Z</time></trkpt><trkpt lat="40.91041" lon="14.229145"><ele>108.0</ele><time>2026-03-24T12:47:39.141Z</time></trkpt><trkpt lat="40.9104367" lon="14.2290567"><ele>108.0</ele><time>2026-03-24T12:47:40.118Z</time></trkpt><trkpt lat="40.91047" lon="14.228975"><ele>108.0</ele><time>2026-03-24T12:47:41.122Z</time></trkpt><trkpt lat="40.9105" lon="14.2288933"><ele>108.14285714285714</ele><time>2026-03-24T12:47:42.122Z</time></trkpt><trkpt lat="40.9105317" lon="14.2288033"><ele>108.28571428571428</ele><time>2026-03-24T12:47:43.119Z</time></trkpt><trkpt lat="40.9105617" lon="14.22872"><ele>108.42857142857143</ele><time>2026-03-24T12:47:44.12Z</time></trkpt><trkpt lat="40.910595" lon="14.2286283"><ele>108.57142857142857</ele><time>2026-03-24T12:47:45.119Z</time></trkpt><trkpt lat="40.910625" lon="14.2285383"><ele>108.71428571428572</ele><time>2026-03-24T12:47:46.119Z</time></trkpt><trkpt lat="40.9106533" lon="14.2284517"><ele>108.85714285714286</ele><time>2026-03-24T12:47:47.12Z</time></trkpt><trkpt lat="40.9106833" lon="14.2283633"><ele>109.0</ele><time>2026-03-24T12:47:48.121Z</time></trkpt><trkpt lat="40.9107167" lon="14.2282767"><ele>109.0</ele><time>2026-03-24T12:47:49.122Z</time></trkpt><trkpt lat="40.9107517" lon="14.2281883"><ele>109.0</ele><time>2026-03-24T12:47:50.121Z</time></trkpt><trkpt lat="40.9107833" lon="14.2281017"><ele>109.0</ele><time>2026-03-24T12:47:51.122Z</time></trkpt><trkpt lat="40.910815" lon="14.2280133"><ele>109.0</ele><time>2026-03-24T12:47:52.12Z</time></trkpt><trkpt lat="40.91085" lon="14.2279233"><ele>109.0</ele><time>2026-03-24T12:47:53.122Z</time></trkpt><trkpt lat="40.9108833" lon="14.2278367"><ele>109.0</ele><time>2026-03-24T12:47:54.124Z</time></trkpt><trkpt lat="40.9109133" lon="14.227745"><ele>109.0</ele><time>2026-03-24T12:47:55.119Z</time></trkpt><trkpt lat="40.9109433" lon="14.2276567"><ele>108.85714285714286</ele><time>2026-03-24T12:47:56.121Z</time></trkpt><trkpt lat="40.9109717" lon="14.2275717"><ele>108.71428571428572</ele><time>2026-03-24T12:47:57.12Z</time></trkpt><trkpt lat="40.911005" lon="14.22748"><ele>108.57142857142857</ele><time>2026-03-24T12:47:58.122Z</time></trkpt><trkpt lat="40.9110383" lon="14.2273983"><ele>108.42857142857143</ele><time>2026-03-24T12:47:59.119Z</time></trkpt><trkpt lat="40.911075" lon="14.22731"><ele>108.28571428571428</ele><time>2026-03-24T12:48:00.122Z</time></trkpt><trkpt lat="40.9111067" lon="14.22722"><ele>108.14285714285714</ele><time>2026-03-24T12:48:01.12Z</time></trkpt><trkpt lat="40.91114" lon="14.2271317"><ele>108.0</ele><time>2026-03-24T12:48:02.121Z</time></trkpt><trkpt lat="40.9111767" lon="14.227045"><ele>108.28571428571428</ele><time>2026-03-24T12:48:03.122Z</time></trkpt><trkpt lat="40.91121" lon="14.2269583"><ele>108.57142857142857</ele><time>2026-03-24T12:48:04.119Z</time></trkpt><trkpt lat="40.9112517" lon="14.2268717"><ele>108.85714285714286</ele><time>2026-03-24T12:48:05.121Z</time></trkpt><trkpt lat="40.911285" lon="14.2267867"><ele>109.14285714285714</ele><time>2026-03-24T12:48:06.121Z</time></trkpt><trkpt lat="40.9113217" lon="14.2267017"><ele>109.42857142857143</ele><time>2026-03-24T12:48:07.121Z</time></trkpt><trkpt lat="40.9113517" lon="14.22661"><ele>109.71428571428571</ele><time>2026-03-24T12:48:08.121Z</time></trkpt><trkpt lat="40.9113833" lon="14.22652"><ele>110.0</ele><time>2026-03-24T12:48:09.121Z</time></trkpt><trkpt lat="40.911415" lon="14.2264317"><ele>110.14285714285714</ele><time>2026-03-24T12:48:10.119Z</time></trkpt><trkpt lat="40.9114467" lon="14.2263433"><ele>110.28571428571428</ele><time>2026-03-24T12:48:11.121Z</time></trkpt><trkpt lat="40.9114783" lon="14.226255"><ele>110.42857142857142</ele><time>2026-03-24T12:48:12.121Z</time></trkpt><trkpt lat="40.9115117" lon="14.2261667"><ele>110.57142857142857</ele><time>2026-03-24T12:48:13.119Z</time></trkpt><trkpt lat="40.9115433" lon="14.2260767"><ele>110.71428571428572</ele><time>2026-03-24T12:48:14.122Z</time></trkpt><trkpt lat="40.911575" lon="14.2259933"><ele>110.85714285714285</ele><time>2026-03-24T12:48:15.121Z</time></trkpt><trkpt lat="40.9116033" lon="14.2259117"><ele>111.0</ele><time>2026-03-24T12:48:16.121Z</time></trkpt><trkpt lat="40.9116317" lon="14.22583"><ele>111.0</ele><time>2026-03-24T12:48:17.121Z</time></trkpt><trkpt lat="40.911665" lon="14.225745"><ele>111.0</ele><time>2026-03-24T12:48:18.122Z</time></trkpt><trkpt lat="40.9116983" lon="14.2256617"><ele>111.0</ele><time>2026-03-24T12:48:19.119Z</time></trkpt><trkpt lat="40.911735" lon="14.2255733"><ele>111.0</ele><time>2026-03-24T12:48:20.121Z</time></trkpt><trkpt lat="40.91177" lon="14.2254883"><ele>111.0</ele><time>2026-03-24T12:48:21.119Z</time></trkpt><trkpt lat="40.9118033" lon="14.2254017"><ele>111.0</ele><time>2026-03-24T12:48:22.124Z</time></trkpt><trkpt lat="40.9118333" lon="14.2253083"><ele>111.0</ele><time>2026-03-24T12:48:23.118Z</time></trkpt><trkpt lat="40.9118633" lon="14.22522"><ele>110.85714285714285</ele><time>2026-03-24T12:48:24.118Z</time></trkpt><trkpt lat="40.9118967" lon="14.2251317"><ele>110.71428571428572</ele><time>2026-03-24T12:48:25.121Z</time></trkpt><trkpt lat="40.9119333" lon="14.225045"><ele>110.57142857142857</ele><time>2026-03-24T12:48:26.119Z</time></trkpt><trkpt lat="40.9119667" lon="14.2249617"><ele>110.42857142857142</ele><time>2026-03-24T12:48:27.118Z</time></trkpt><trkpt lat="40.91199" lon="14.2248767"><ele>110.28571428571428</ele><time>2026-03-24T12:48:28.119Z</time></trkpt><trkpt lat="40.9120133" lon="14.2247967"><ele>110.14285714285714</ele><time>2026-03-24T12:48:29.119Z</time></trkpt><trkpt lat="40.9120417" lon="14.224715"><ele>110.0</ele><time>2026-03-24T12:48:30.118Z</time></trkpt><trkpt lat="40.9120683" lon="14.224635"><ele>109.99999999999999</ele><time>2026-03-24T12:48:31.118Z</time></trkpt><trkpt lat="40.912105" lon="14.224555"><ele>110.0</ele><time>2026-03-24T12:48:32.121Z</time></trkpt><trkpt lat="40.912135" lon="14.2244717"><ele>110.0</ele><time>2026-03-24T12:48:33.121Z</time></trkpt><trkpt lat="40.9121633" lon="14.2243867"><ele>110.0</ele><time>2026-03-24T12:48:34.121Z</time></trkpt><trkpt lat="40.9121967" lon="14.2242983"><ele>110.0</ele><time>2026-03-24T12:48:35.121Z</time></trkpt><trkpt lat="40.91223" lon="14.2242083"><ele>109.99999999999999</ele><time>2026-03-24T12:48:36.122Z</time></trkpt><trkpt lat="40.9122633" lon="14.22412"><ele>110.0</ele><time>2026-03-24T12:48:37.12Z</time></trkpt><trkpt lat="40.9122917" lon="14.2240317"><ele>110.14285714285714</ele><time>2026-03-24T12:48:38.121Z</time></trkpt><trkpt lat="40.9123233" lon="14.223945"><ele>110.28571428571428</ele><time>2026-03-24T12:48:39.121Z</time></trkpt><trkpt lat="40.9123517" lon="14.2238567"><ele>110.42857142857142</ele><time>2026-03-24T12:48:40.122Z</time></trkpt><trkpt lat="40.9123717" lon="14.2237683"><ele>110.57142857142857</ele><time>2026-03-24T12:48:41.121Z</time></trkpt><trkpt lat="40.912395" lon="14.2236817"><ele>110.71428571428572</ele><time>2026-03-24T12:48:42.12Z</time></trkpt><trkpt lat="40.9124267" lon="14.223595"><ele>110.85714285714285</ele><time>2026-03-24T12:48:43.121Z</time></trkpt><trkpt lat="40.9124583" lon="14.2235083"><ele>111.0</ele><time>2026-03-24T12:48:44.121Z</time></trkpt><trkpt lat="40.91249" lon="14.2234233"><ele>111.0</ele><time>2026-03-24T12:48:45.121Z</time></trkpt><trkpt lat="40.912525" lon="14.2233383"><ele>111.0</ele><time>2026-03-24T12:48:46.122Z</time></trkpt><trkpt lat="40.9125583" lon="14.2232517"><ele>111.0</ele><time>2026-03-24T12:48:47.122Z</time></trkpt><trkpt lat="40.9125883" lon="14.2231683"><ele>111.0</ele><time>2026-03-24T12:48:48.123Z</time></trkpt><trkpt lat="40.9126167" lon="14.2230867"><ele>111.0</ele><time>2026-03-24T12:48:49.121Z</time></trkpt><trkpt lat="40.9126467" lon="14.2230083"><ele>111.0</ele><time>2026-03-24T12:48:50.122Z</time></trkpt><trkpt lat="40.9126767" lon="14.22293"><ele>111.0</ele><time>2026-03-24T12:48:51.122Z</time></trkpt><trkpt lat="40.9127317" lon="14.2227783"><ele>110.85714285714285</ele><time>2026-03-24T12:48:53.122Z</time></trkpt><trkpt lat="40.9127633" lon="14.2227017"><ele>110.71428571428572</ele><time>2026-03-24T12:48:54.122Z</time></trkpt><trkpt lat="40.9127933" lon="14.2226217"><ele>110.57142857142857</ele><time>2026-03-24T12:48:55.121Z</time></trkpt><trkpt lat="40.9128233" lon="14.2225417"><ele>110.42857142857142</ele><time>2026-03-24T12:48:56.121Z</time></trkpt><trkpt lat="40.9128583" lon="14.2224567"><ele>110.28571428571428</ele><time>2026-03-24T12:48:57.121Z</time></trkpt><trkpt lat="40.9128967" lon="14.2223733"><ele>110.14285714285714</ele><time>2026-03-24T12:48:58.121Z</time></trkpt><trkpt lat="40.9129267" lon="14.2222917"><ele>110.0</ele><time>2026-03-24T12:48:59.123Z</time></trkpt><trkpt lat="40.9129567" lon="14.22221"><ele>109.85714285714285</ele><time>2026-03-24T12:49:00.123Z</time></trkpt><trkpt lat="40.9129867" lon="14.22213"><ele>109.71428571428571</ele><time>2026-03-24T12:49:01.122Z</time></trkpt><trkpt lat="40.9130133" lon="14.22205"><ele>109.57142857142857</ele><time>2026-03-24T12:49:02.12Z</time></trkpt><trkpt lat="40.9130417" lon="14.221965"><ele>109.42857142857142</ele><time>2026-03-24T12:49:03.121Z</time></trkpt><trkpt lat="40.9130717" lon="14.2218883"><ele>109.28571428571429</ele><time>2026-03-24T12:49:04.121Z</time></trkpt><trkpt lat="40.913105" lon="14.22181"><ele>109.14285714285714</ele><time>2026-03-24T12:49:05.121Z</time></trkpt><trkpt lat="40.913135" lon="14.221735"><ele>109.0</ele><time>2026-03-24T12:49:06.122Z</time></trkpt><trkpt lat="40.9131667" lon="14.2216567"><ele>109.0</ele><time>2026-03-24T12:49:07.123Z</time></trkpt><trkpt lat="40.9132017" lon="14.221575"><ele>109.0</ele><time>2026-03-24T12:49:08.123Z</time></trkpt><trkpt lat="40.9132317" lon="14.2214917"><ele>109.0</ele><time>2026-03-24T12:49:09.121Z</time></trkpt><trkpt lat="40.9132617" lon="14.2214083"><ele>109.0</ele><time>2026-03-24T12:49:10.12Z</time></trkpt><trkpt lat="40.913295" lon="14.2213283"><ele>109.0</ele><time>2026-03-24T12:49:11.122Z</time></trkpt><trkpt lat="40.9133233" lon="14.22125"><ele>109.0</ele><time>2026-03-24T12:49:12.12Z</time></trkpt><trkpt lat="40.9133533" lon="14.2211683"><ele>109.0</ele><time>2026-03-24T12:49:13.121Z</time></trkpt><trkpt lat="40.9133833" lon="14.2210883"><ele>109.14285714285714</ele><time>2026-03-24T12:49:14.122Z</time></trkpt><trkpt lat="40.913415" lon="14.2210033"><ele>109.28571428571429</ele><time>2026-03-24T12:49:15.121Z</time></trkpt><trkpt lat="40.9134433" lon="14.22092"><ele>109.42857142857142</ele><time>2026-03-24T12:49:16.121Z</time></trkpt><trkpt lat="40.9134717" lon="14.22084"><ele>109.57142857142857</ele><time>2026-03-24T12:49:17.121Z</time></trkpt><trkpt lat="40.9134983" lon="14.22076"><ele>109.71428571428571</ele><time>2026-03-24T12:49:18.123Z</time></trkpt><trkpt lat="40.9135267" lon="14.220675"><ele>109.85714285714285</ele><time>2026-03-24T12:49:19.122Z</time></trkpt><trkpt lat="40.9135567" lon="14.2205967"><ele>110.0</ele><time>2026-03-24T12:49:20.122Z</time></trkpt><trkpt lat="40.9135883" lon="14.2205167"><ele>109.99999999999999</ele><time>2026-03-24T12:49:21.121Z</time></trkpt><trkpt lat="40.91362" lon="14.220435"><ele>110.0</ele><time>2026-03-24T12:49:22.121Z</time></trkpt><trkpt lat="40.9136517" lon="14.22035"><ele>110.0</ele><time>2026-03-24T12:49:23.122Z</time></trkpt><trkpt lat="40.91368" lon="14.22027"><ele>110.0</ele><time>2026-03-24T12:49:24.124Z</time></trkpt><trkpt lat="40.9137133" lon="14.220185"><ele>110.0</ele><time>2026-03-24T12:49:25.123Z</time></trkpt><trkpt lat="40.9137433" lon="14.2200967"><ele>109.99999999999999</ele><time>2026-03-24T12:49:26.125Z</time></trkpt><trkpt lat="40.9137733" lon="14.22001"><ele>110.0</ele><time>2026-03-24T12:49:27.121Z</time></trkpt><trkpt lat="40.913805" lon="14.219925"><ele>109.99999999999999</ele><time>2026-03-24T12:49:28.12Z</time></trkpt><trkpt lat="40.9138383" lon="14.21984"><ele>110.0</ele><time>2026-03-24T12:49:29.122Z</time></trkpt><trkpt lat="40.91387" lon="14.2197517"><ele>110.0</ele><time>2026-03-24T12:49:30.122Z</time></trkpt><trkpt lat="40.913905" lon="14.21966"><ele>110.0</ele><time>2026-03-24T12:49:31.122Z</time></trkpt><trkpt lat="40.913935" lon="14.2195733"><ele>110.0</ele><time>2026-03-24T12:49:32.122Z</time></trkpt><trkpt lat="40.9139683" lon="14.2194867"><ele>109.99999999999999</ele><time>2026-03-24T12:49:33.121Z</time></trkpt><trkpt lat="40.9139967" lon="14.2194017"><ele>110.0</ele><time>2026-03-24T12:49:34.121Z</time></trkpt><trkpt lat="40.914025" lon="14.2193133"><ele>109.99999999999999</ele><time>2026-03-24T12:49:35.121Z</time></trkpt><trkpt lat="40.914055" lon="14.2192217"><ele>110.0</ele><time>2026-03-24T12:49:36.122Z</time></trkpt><trkpt lat="40.9140817" lon="14.219135"><ele>110.0</ele><time>2026-03-24T12:49:37.122Z</time></trkpt><trkpt lat="40.9141117" lon="14.2190483"><ele>110.0</ele><time>2026-03-24T12:49:38.122Z</time></trkpt><trkpt lat="40.914145" lon="14.2189617"><ele>110.0</ele><time>2026-03-24T12:49:39.122Z</time></trkpt><trkpt lat="40.9141767" lon="14.2188733"><ele>109.99999999999999</ele><time>2026-03-24T12:49:40.121Z</time></trkpt><trkpt lat="40.91421" lon="14.2187917"><ele>110.0</ele><time>2026-03-24T12:49:41.121Z</time></trkpt><trkpt lat="40.91424" lon="14.2187183"><ele>109.66666666666666</ele><time>2026-03-24T12:49:42.121Z</time></trkpt><trkpt lat="40.9142683" lon="14.2186417"><ele>109.33333333333333</ele><time>2026-03-24T12:49:43.123Z</time></trkpt><trkpt lat="40.9143217" lon="14.2184833"><ele>109.0</ele><time>2026-03-24T12:49:45.123Z</time></trkpt><trkpt lat="40.9143467" lon="14.2184067"><ele>108.66666666666666</ele><time>2026-03-24T12:49:46.123Z</time></trkpt><trkpt lat="40.9143817" lon="14.2183367"><ele>108.33333333333333</ele><time>2026-03-24T12:49:47.124Z</time></trkpt><trkpt lat="40.9144617" lon="14.218215"><ele>108.0</ele><time>2026-03-24T12:49:49.124Z</time></trkpt><trkpt lat="40.9145333" lon="14.2181167"><ele>108.0</ele><time>2026-03-24T12:49:51.121Z</time></trkpt><trkpt lat="40.9146217" lon="14.218035"><ele>108.0</ele><time>2026-03-24T12:49:53.124Z</time></trkpt><trkpt lat="40.9146633" lon="14.2179683"><ele>108.0</ele><time>2026-03-24T12:49:54.123Z</time></trkpt><trkpt lat="40.91469" lon="14.2178867"><ele>108.0</ele><time>2026-03-24T12:49:55.124Z</time></trkpt><trkpt lat="40.91471" lon="14.2178033"><ele>108.0</ele><time>2026-03-24T12:49:56.121Z</time></trkpt><trkpt lat="40.914725" lon="14.217715"><ele>108.0</ele><time>2026-03-24T12:49:57.124Z</time></trkpt><trkpt lat="40.91474" lon="14.2176267"><ele>108.0</ele><time>2026-03-24T12:49:58.121Z</time></trkpt><trkpt lat="40.914755" lon="14.2175383"><ele>108.0</ele><time>2026-03-24T12:49:59.122Z</time></trkpt><trkpt lat="40.91477" lon="14.2174483"><ele>108.0</ele><time>2026-03-24T12:50:00.121Z</time></trkpt><trkpt lat="40.9147883" lon="14.2173583"><ele>108.0</ele><time>2026-03-24T12:50:01.122Z</time></trkpt><trkpt lat="40.91481" lon="14.2172683"><ele>108.0</ele><time>2026-03-24T12:50:02.122Z</time></trkpt><trkpt lat="40.914835" lon="14.217185"><ele>108.0</ele><time>2026-03-24T12:50:03.124Z</time></trkpt><trkpt lat="40.9148833" lon="14.2170317"><ele>108.0</ele><time>2026-03-24T12:50:05.121Z</time></trkpt><trkpt lat="40.914945" lon="14.2168783"><ele>108.42857142857143</ele><time>2026-03-24T12:50:07.122Z</time></trkpt><trkpt lat="40.9149833" lon="14.2167983"><ele>108.85714285714286</ele><time>2026-03-24T12:50:08.122Z</time></trkpt><trkpt lat="40.915015" lon="14.21672"><ele>109.28571428571428</ele><time>2026-03-24T12:50:09.122Z</time></trkpt><trkpt lat="40.915045" lon="14.2166433"><ele>109.71428571428572</ele><time>2026-03-24T12:50:10.123Z</time></trkpt><trkpt lat="40.9150717" lon="14.21656"><ele>110.14285714285715</ele><time>2026-03-24T12:50:11.124Z</time></trkpt><trkpt lat="40.9151" lon="14.2164783"><ele>110.57142857142857</ele><time>2026-03-24T12:50:12.123Z</time></trkpt><trkpt lat="40.9151317" lon="14.2163933"><ele>111.0</ele><time>2026-03-24T12:50:13.123Z</time></trkpt><trkpt lat="40.915165" lon="14.2163133"><ele>111.14285714285714</ele><time>2026-03-24T12:50:14.121Z</time></trkpt><trkpt lat="40.9151967" lon="14.2162317"><ele>111.28571428571429</ele><time>2026-03-24T12:50:15.121Z</time></trkpt><trkpt lat="40.91523" lon="14.2161467"><ele>111.42857142857143</ele><time>2026-03-24T12:50:16.12Z</time></trkpt><trkpt lat="40.9152567" lon="14.2160633"><ele>111.57142857142857</ele><time>2026-03-24T12:50:17.121Z</time></trkpt><trkpt lat="40.915285" lon="14.2159817"><ele>111.71428571428572</ele><time>2026-03-24T12:50:18.122Z</time></trkpt><trkpt lat="40.9153167" lon="14.2158983"><ele>111.85714285714286</ele><time>2026-03-24T12:50:19.121Z</time></trkpt><trkpt lat="40.9153517" lon="14.2158133"><ele>112.0</ele><time>2026-03-24T12:50:20.125Z</time></trkpt><trkpt lat="40.915385" lon="14.2157267"><ele>111.71428571428571</ele><time>2026-03-24T12:50:21.121Z</time></trkpt><trkpt lat="40.9154167" lon="14.2156433"><ele>111.42857142857143</ele><time>2026-03-24T12:50:22.12Z</time></trkpt><trkpt lat="40.91545" lon="14.2155567"><ele>111.14285714285714</ele><time>2026-03-24T12:50:23.123Z</time></trkpt><trkpt lat="40.9154783" lon="14.2154683"><ele>110.85714285714286</ele><time>2026-03-24T12:50:24.122Z</time></trkpt><trkpt lat="40.9155067" lon="14.2153833"><ele>110.57142857142857</ele><time>2026-03-24T12:50:25.121Z</time></trkpt><trkpt lat="40.91554" lon="14.2153"><ele>110.28571428571428</ele><time>2026-03-24T12:50:26.122Z</time></trkpt><trkpt lat="40.915575" lon="14.2152167"><ele>110.0</ele><time>2026-03-24T12:50:27.119Z</time></trkpt><trkpt lat="40.9156083" lon="14.2151317"><ele>109.99999999999999</ele><time>2026-03-24T12:50:28.121Z</time></trkpt><trkpt lat="40.9156433" lon="14.2150467"><ele>110.0</ele><time>2026-03-24T12:50:29.122Z</time></trkpt><trkpt lat="40.9156783" lon="14.2149583"><ele>110.0</ele><time>2026-03-24T12:50:30.122Z</time></trkpt><trkpt lat="40.9157133" lon="14.2148717"><ele>110.0</ele><time>2026-03-24T12:50:31.121Z</time></trkpt><trkpt lat="40.9157483" lon="14.214785"><ele>110.0</ele><time>2026-03-24T12:50:32.122Z</time></trkpt><trkpt lat="40.9157817" lon="14.2146983"><ele>109.99999999999999</ele><time>2026-03-24T12:50:33.123Z</time></trkpt><trkpt lat="40.9158133" lon="14.2146117"><ele>110.0</ele><time>2026-03-24T12:50:34.121Z</time></trkpt><trkpt lat="40.9158433" lon="14.2145233"><ele>109.99999999999999</ele><time>2026-03-24T12:50:35.122Z</time></trkpt><trkpt lat="40.9158767" lon="14.2144367"><ele>110.0</ele><time>2026-03-24T12:50:36.121Z</time></trkpt><trkpt lat="40.9159083" lon="14.2143483"><ele>110.0</ele><time>2026-03-24T12:50:37.121Z</time></trkpt><trkpt lat="40.91594" lon="14.21426"><ele>110.0</ele><time>2026-03-24T12:50:38.122Z</time></trkpt><trkpt lat="40.915975" lon="14.2141717"><ele>110.0</ele><time>2026-03-24T12:50:39.12Z</time></trkpt><trkpt lat="40.91601" lon="14.2140833"><ele>109.99999999999999</ele><time>2026-03-24T12:50:40.119Z</time></trkpt><trkpt lat="40.9160433" lon="14.213995"><ele>110.0</ele><time>2026-03-24T12:50:41.12Z</time></trkpt><trkpt lat="40.9160767" lon="14.213905"><ele>109.99999999999999</ele><time>2026-03-24T12:50:42.123Z</time></trkpt><trkpt lat="40.916105" lon="14.2138167"><ele>110.0</ele><time>2026-03-24T12:50:43.123Z</time></trkpt><trkpt lat="40.9161333" lon="14.213725"><ele>110.0</ele><time>2026-03-24T12:50:44.122Z</time></trkpt><trkpt lat="40.9161633" lon="14.213635"><ele>110.0</ele><time>2026-03-24T12:50:45.124Z</time></trkpt><trkpt lat="40.9161883" lon="14.2135433"><ele>110.0</ele><time>2026-03-24T12:50:46.123Z</time></trkpt><trkpt lat="40.9162117" lon="14.21345"><ele>109.99999999999999</ele><time>2026-03-24T12:50:47.121Z</time></trkpt><trkpt lat="40.916235" lon="14.213355"><ele>110.0</ele><time>2026-03-24T12:50:48.122Z</time></trkpt><trkpt lat="40.9162583" lon="14.2132583"><ele>109.99999999999999</ele><time>2026-03-24T12:50:49.124Z</time></trkpt><trkpt lat="40.9162783" lon="14.2131617"><ele>110.0</ele><time>2026-03-24T12:50:50.122Z</time></trkpt><trkpt lat="40.9163" lon="14.2130583"><ele>110.0</ele><time>2026-03-24T12:50:51.122Z</time></trkpt><trkpt lat="40.9163167" lon="14.2129583"><ele>110.0</ele><time>2026-03-24T12:50:52.122Z</time></trkpt><trkpt lat="40.9163367" lon="14.212855"><ele>109.99999999999999</ele><time>2026-03-24T12:50:53.122Z</time></trkpt><trkpt lat="40.91635" lon="14.212755"><ele>110.0</ele><time>2026-03-24T12:50:54.122Z</time></trkpt><trkpt lat="40.9163633" lon="14.2126533"><ele>109.99999999999999</ele><time>2026-03-24T12:50:55.122Z</time></trkpt><trkpt lat="40.9163733" lon="14.21255"><ele>110.0</ele><time>2026-03-24T12:50:56.121Z</time></trkpt><trkpt lat="40.9163833" lon="14.2124483"><ele>110.0</ele><time>2026-03-24T12:50:57.122Z</time></trkpt><trkpt lat="40.9163917" lon="14.2123483"><ele>110.0</ele><time>2026-03-24T12:50:58.121Z</time></trkpt><trkpt lat="40.9163983" lon="14.2122467"><ele>109.99999999999999</ele><time>2026-03-24T12:50:59.123Z</time></trkpt><trkpt lat="40.9164083" lon="14.2121483"><ele>110.0</ele><time>2026-03-24T12:51:00.122Z</time></trkpt><trkpt lat="40.9164183" lon="14.2120483"><ele>110.16666666666666</ele><time>2026-03-24T12:51:01.121Z</time></trkpt><trkpt lat="40.91643" lon="14.211945"><ele>110.33333333333333</ele><time>2026-03-24T12:51:02.122Z</time></trkpt><trkpt lat="40.9164383" lon="14.2118417"><ele>110.5</ele><time>2026-03-24T12:51:03.121Z</time></trkpt><trkpt lat="40.916445" lon="14.21174"><ele>110.66666666666666</ele><time>2026-03-24T12:51:04.121Z</time></trkpt><trkpt lat="40.9164517" lon="14.2116383"><ele>110.83333333333333</ele><time>2026-03-24T12:51:05.121Z</time></trkpt><trkpt lat="40.9164567" lon="14.211535"><ele>111.0</ele><time>2026-03-24T12:51:06.122Z</time></trkpt><trkpt lat="40.9164617" lon="14.2114333"><ele>111.0</ele><time>2026-03-24T12:51:07.122Z</time></trkpt><trkpt lat="40.916465" lon="14.21133"><ele>111.0</ele><time>2026-03-24T12:51:08.122Z</time></trkpt><trkpt lat="40.91647" lon="14.2112267"><ele>111.0</ele><time>2026-03-24T12:51:09.121Z</time></trkpt><trkpt lat="40.9164783" lon="14.2111217"><ele>111.0</ele><time>2026-03-24T12:51:10.12Z</time></trkpt><trkpt lat="40.9164867" lon="14.2110183"><ele>111.0</ele><time>2026-03-24T12:51:11.123Z</time></trkpt><trkpt lat="40.916495" lon="14.2109133"><ele>111.0</ele><time>2026-03-24T12:51:12.12Z</time></trkpt><trkpt lat="40.9165033" lon="14.2108067"><ele>111.0</ele><time>2026-03-24T12:51:13.121Z</time></trkpt><trkpt lat="40.9165117" lon="14.2107017"><ele>111.0</ele><time>2026-03-24T12:51:14.123Z</time></trkpt><trkpt lat="40.91652" lon="14.2105967"><ele>111.0</ele><time>2026-03-24T12:51:15.122Z</time></trkpt><trkpt lat="40.9165267" lon="14.2104883"><ele>111.0</ele><time>2026-03-24T12:51:16.121Z</time></trkpt><trkpt lat="40.9165333" lon="14.2103817"><ele>111.0</ele><time>2026-03-24T12:51:17.121Z</time></trkpt><trkpt lat="40.91654" lon="14.210275"><ele>111.0</ele><time>2026-03-24T12:51:18.123Z</time></trkpt><trkpt lat="40.9165467" lon="14.2101667"><ele>111.0</ele><time>2026-03-24T12:51:19.121Z</time></trkpt><trkpt lat="40.9165517" lon="14.2100567"><ele>111.0</ele><time>2026-03-24T12:51:20.12Z</time></trkpt><trkpt lat="40.9165583" lon="14.2099483"><ele>111.0</ele><time>2026-03-24T12:51:21.122Z</time></trkpt><trkpt lat="40.91656" lon="14.20984"><ele>111.0</ele><time>2026-03-24T12:51:22.122Z</time></trkpt><trkpt lat="40.9165667" lon="14.20973"><ele>111.0</ele><time>2026-03-24T12:51:23.121Z</time></trkpt><trkpt lat="40.9165767" lon="14.2096233"><ele>111.0</ele><time>2026-03-24T12:51:24.122Z</time></trkpt><trkpt lat="40.9165867" lon="14.2095183"><ele>111.0</ele><time>2026-03-24T12:51:25.12Z</time></trkpt><trkpt lat="40.9165933" lon="14.2094117"><ele>111.0</ele><time>2026-03-24T12:51:26.122Z</time></trkpt><trkpt lat="40.9166" lon="14.2093017"><ele>111.0</ele><time>2026-03-24T12:51:27.122Z</time></trkpt><trkpt lat="40.9166083" lon="14.20919"><ele>111.0</ele><time>2026-03-24T12:51:28.123Z</time></trkpt><trkpt lat="40.9166167" lon="14.2090817"><ele>111.0</ele><time>2026-03-24T12:51:29.12Z</time></trkpt><trkpt lat="40.91662" lon="14.2089733"><ele>111.0</ele><time>2026-03-24T12:51:30.122Z</time></trkpt><trkpt lat="40.9166283" lon="14.208865"><ele>111.0</ele><time>2026-03-24T12:51:31.121Z</time></trkpt><trkpt lat="40.9166333" lon="14.2087583"><ele>111.0</ele><time>2026-03-24T12:51:32.122Z</time></trkpt><trkpt lat="40.9166367" lon="14.208655"><ele>111.0</ele><time>2026-03-24T12:51:33.12Z</time></trkpt><trkpt lat="40.9166467" lon="14.20855"><ele>111.0</ele><time>2026-03-24T12:51:34.12Z</time></trkpt><trkpt lat="40.9166467" lon="14.2084433"><ele>111.0</ele><time>2026-03-24T12:51:35.124Z</time></trkpt><trkpt lat="40.916655" lon="14.2083367"><ele>111.0</ele><time>2026-03-24T12:51:36.121Z</time></trkpt><trkpt lat="40.9166617" lon="14.20823"><ele>111.33333333333333</ele><time>2026-03-24T12:51:37.121Z</time></trkpt><trkpt lat="40.9166683" lon="14.2081233"><ele>111.66666666666666</ele><time>2026-03-24T12:51:38.122Z</time></trkpt><trkpt lat="40.9166733" lon="14.208015"><ele>112.0</ele><time>2026-03-24T12:51:39.121Z</time></trkpt><trkpt lat="40.9166783" lon="14.2079067"><ele>112.33333333333333</ele><time>2026-03-24T12:51:40.121Z</time></trkpt><trkpt lat="40.9166833" lon="14.2078017"><ele>112.66666666666666</ele><time>2026-03-24T12:51:41.121Z</time></trkpt><trkpt lat="40.91669" lon="14.207695"><ele>113.0</ele><time>2026-03-24T12:51:42.122Z</time></trkpt><trkpt lat="40.9166967" lon="14.20759"><ele>112.99999999999999</ele><time>2026-03-24T12:51:43.122Z</time></trkpt><trkpt lat="40.9167067" lon="14.2074817"><ele>113.0</ele><time>2026-03-24T12:51:44.123Z</time></trkpt><trkpt lat="40.9167117" lon="14.2073733"><ele>113.0</ele><time>2026-03-24T12:51:45.122Z</time></trkpt><trkpt lat="40.9167167" lon="14.2072683"><ele>113.0</ele><time>2026-03-24T12:51:46.12Z</time></trkpt><trkpt lat="40.916725" lon="14.2071617"><ele>112.99999999999999</ele><time>2026-03-24T12:51:47.121Z</time></trkpt><trkpt lat="40.9167317" lon="14.2070567"><ele>113.0</ele><time>2026-03-24T12:51:48.122Z</time></trkpt><trkpt lat="40.91674" lon="14.20695"><ele>112.83333333333333</ele><time>2026-03-24T12:51:49.12Z</time></trkpt><trkpt lat="40.916745" lon="14.2068417"><ele>112.66666666666666</ele><time>2026-03-24T12:51:50.122Z</time></trkpt><trkpt lat="40.9167483" lon="14.2067383"><ele>112.5</ele><time>2026-03-24T12:51:51.121Z</time></trkpt><trkpt lat="40.9167617" lon="14.2066383"><ele>112.33333333333334</ele><time>2026-03-24T12:51:52.12Z</time></trkpt><trkpt lat="40.9167683" lon="14.2065383"><ele>112.16666666666667</ele><time>2026-03-24T12:51:53.121Z</time></trkpt><trkpt lat="40.916775" lon="14.2064367"><ele>112.0</ele><time>2026-03-24T12:51:54.122Z</time></trkpt><trkpt lat="40.9167933" lon="14.206335"><ele>112.00000000000001</ele><time>2026-03-24T12:51:55.122Z</time></trkpt><trkpt lat="40.9168233" lon="14.206235"><ele>112.0</ele><time>2026-03-24T12:51:56.123Z</time></trkpt><trkpt lat="40.9168533" lon="14.2061417"><ele>112.0</ele><time>2026-03-24T12:51:57.123Z</time></trkpt><trkpt lat="40.9168917" lon="14.2060517"><ele>112.0</ele><time>2026-03-24T12:51:58.122Z</time></trkpt><trkpt lat="40.9169267" lon="14.2059583"><ele>112.00000000000001</ele><time>2026-03-24T12:51:59.12Z</time></trkpt><trkpt lat="40.91695" lon="14.2058617"><ele>112.0</ele><time>2026-03-24T12:52:00.122Z</time></trkpt><trkpt lat="40.9169583" lon="14.2057633"><ele>112.0</ele><time>2026-03-24T12:52:01.121Z</time></trkpt><trkpt lat="40.9169533" lon="14.2056683"><ele>112.0</ele><time>2026-03-24T12:52:02.122Z</time></trkpt><trkpt lat="40.91694" lon="14.2055767"><ele>112.0</ele><time>2026-03-24T12:52:03.121Z</time></trkpt><trkpt lat="40.9169117" lon="14.2054933"><ele>112.0</ele><time>2026-03-24T12:52:04.121Z</time></trkpt><trkpt lat="40.91688" lon="14.2054183"><ele>112.0</ele><time>2026-03-24T12:52:05.121Z</time></trkpt><trkpt lat="40.9168583" lon="14.20534"><ele>112.0</ele><time>2026-03-24T12:52:06.122Z</time></trkpt><trkpt lat="40.91685" lon="14.205255"><ele>112.0</ele><time>2026-03-24T12:52:07.122Z</time></trkpt><trkpt lat="40.9168483" lon="14.2051667"><ele>112.0</ele><time>2026-03-24T12:52:08.122Z</time></trkpt><trkpt lat="40.9168533" lon="14.2050783"><ele>112.0</ele><time>2026-03-24T12:52:09.121Z</time></trkpt><trkpt lat="40.9168583" lon="14.204985"><ele>112.0</ele><time>2026-03-24T12:52:10.123Z</time></trkpt><trkpt lat="40.9168683" lon="14.2048867"><ele>112.0</ele><time>2026-03-24T12:52:11.123Z</time></trkpt><trkpt lat="40.9168783" lon="14.20479"><ele>112.0</ele><time>2026-03-24T12:52:12.122Z</time></trkpt><trkpt lat="40.916885" lon="14.204695"><ele>112.0</ele><time>2026-03-24T12:52:13.123Z</time></trkpt><trkpt lat="40.91689" lon="14.2045983"><ele>112.0</ele><time>2026-03-24T12:52:14.125Z</time></trkpt><trkpt lat="40.916895" lon="14.2044967"><ele>112.0</ele><time>2026-03-24T12:52:15.122Z</time></trkpt><trkpt lat="40.9169033" lon="14.2043967"><ele>112.0</ele><time>2026-03-24T12:52:16.123Z</time></trkpt><trkpt lat="40.9169117" lon="14.204295"><ele>112.0</ele><time>2026-03-24T12:52:17.123Z</time></trkpt><trkpt lat="40.9169217" lon="14.2041967"><ele>112.0</ele><time>2026-03-24T12:52:18.121Z</time></trkpt><trkpt lat="40.9169317" lon="14.2041017"><ele>112.0</ele><time>2026-03-24T12:52:19.123Z</time></trkpt><trkpt lat="40.91694" lon="14.204005"><ele>112.0</ele><time>2026-03-24T12:52:20.122Z</time></trkpt><trkpt lat="40.916945" lon="14.2039067"><ele>112.0</ele><time>2026-03-24T12:52:21.122Z</time></trkpt><trkpt lat="40.9169533" lon="14.2038083"><ele>112.0</ele><time>2026-03-24T12:52:22.124Z</time></trkpt><trkpt lat="40.9169617" lon="14.20371"><ele>112.0</ele><time>2026-03-24T12:52:23.122Z</time></trkpt><trkpt lat="40.9169717" lon="14.2036133"><ele>112.0</ele><time>2026-03-24T12:52:24.121Z</time></trkpt><trkpt lat="40.91698" lon="14.20352"><ele>112.0</ele><time>2026-03-24T12:52:25.121Z</time></trkpt><trkpt lat="40.9169867" lon="14.2034267"><ele>112.0</ele><time>2026-03-24T12:52:26.122Z</time></trkpt><trkpt lat="40.9169933" lon="14.2033333"><ele>112.0</ele><time>2026-03-24T12:52:27.123Z</time></trkpt><trkpt lat="40.917005" lon="14.2032367"><ele>112.0</ele><time>2026-03-24T12:52:28.123Z</time></trkpt><trkpt lat="40.9170133" lon="14.20314"><ele>111.85714285714286</ele><time>2026-03-24T12:52:29.12Z</time></trkpt><trkpt lat="40.91702" lon="14.2030467"><ele>111.71428571428572</ele><time>2026-03-24T12:52:30.123Z</time></trkpt><trkpt lat="40.91703" lon="14.2029483"><ele>111.57142857142857</ele><time>2026-03-24T12:52:31.122Z</time></trkpt><trkpt lat="40.917035" lon="14.20285"><ele>111.42857142857143</ele><time>2026-03-24T12:52:32.125Z</time></trkpt><trkpt lat="40.91704" lon="14.20275"><ele>111.28571428571429</ele><time>2026-03-24T12:52:33.12Z</time></trkpt><trkpt lat="40.917045" lon="14.2026533"><ele>111.14285714285714</ele><time>2026-03-24T12:52:34.12Z</time></trkpt><trkpt lat="40.9170533" lon="14.2025567"><ele>111.0</ele><time>2026-03-24T12:52:35.121Z</time></trkpt><trkpt lat="40.9170617" lon="14.2024617"><ele>111.0</ele><time>2026-03-24T12:52:36.123Z</time></trkpt><trkpt lat="40.9170667" lon="14.202365"><ele>111.0</ele><time>2026-03-24T12:52:37.124Z</time></trkpt><trkpt lat="40.9170717" lon="14.20227"><ele>111.0</ele><time>2026-03-24T12:52:38.122Z</time></trkpt><trkpt lat="40.9170783" lon="14.2021767"><ele>111.0</ele><time>2026-03-24T12:52:39.122Z</time></trkpt><trkpt lat="40.9170883" lon="14.2020817"><ele>111.0</ele><time>2026-03-24T12:52:40.119Z</time></trkpt><trkpt lat="40.917095" lon="14.2019883"><ele>111.0</ele><time>2026-03-24T12:52:41.123Z</time></trkpt><trkpt lat="40.9171" lon="14.2018967"><ele>111.0</ele><time>2026-03-24T12:52:42.119Z</time></trkpt><trkpt lat="40.917105" lon="14.201805"><ele>111.0</ele><time>2026-03-24T12:52:43.119Z</time></trkpt><trkpt lat="40.9171133" lon="14.2017133"><ele>111.0</ele><time>2026-03-24T12:52:44.122Z</time></trkpt><trkpt lat="40.91712" lon="14.201625"><ele>111.0</ele><time>2026-03-24T12:52:45.122Z</time></trkpt><trkpt lat="40.917125" lon="14.2015317"><ele>111.0</ele><time>2026-03-24T12:52:46.119Z</time></trkpt><trkpt lat="40.9171283" lon="14.2014433"><ele>111.0</ele><time>2026-03-24T12:52:47.12Z</time></trkpt><trkpt lat="40.9171317" lon="14.2013567"><ele>111.0</ele><time>2026-03-24T12:52:48.121Z</time></trkpt><trkpt lat="40.9171367" lon="14.2012667"><ele>111.0</ele><time>2026-03-24T12:52:49.122Z</time></trkpt><trkpt lat="40.9171417" lon="14.201175"><ele>111.0</ele><time>2026-03-24T12:52:50.122Z</time></trkpt><trkpt lat="40.9171467" lon="14.2010833"><ele>111.0</ele><time>2026-03-24T12:52:51.122Z</time></trkpt><trkpt lat="40.917155" lon="14.2009917"><ele>111.0</ele><time>2026-03-24T12:52:52.121Z</time></trkpt><trkpt lat="40.91716" lon="14.2008983"><ele>111.0</ele><time>2026-03-24T12:52:53.121Z</time></trkpt><trkpt lat="40.91717" lon="14.200805"><ele>111.0</ele><time>2026-03-24T12:52:54.123Z</time></trkpt><trkpt lat="40.9171883" lon="14.2007133"><ele>111.0</ele><time>2026-03-24T12:52:55.121Z</time></trkpt><trkpt lat="40.917205" lon="14.2006217"><ele>111.0</ele><time>2026-03-24T12:52:56.121Z</time></trkpt><trkpt lat="40.9172267" lon="14.2005283"><ele>111.0</ele><time>2026-03-24T12:52:57.119Z</time></trkpt><trkpt lat="40.9172483" lon="14.200435"><ele>111.0</ele><time>2026-03-24T12:52:58.121Z</time></trkpt><trkpt lat="40.9172717" lon="14.2003383"><ele>111.0</ele><time>2026-03-24T12:52:59.121Z</time></trkpt><trkpt lat="40.9172917" lon="14.20024"><ele>111.0</ele><time>2026-03-24T12:53:00.12Z</time></trkpt><trkpt lat="40.917305" lon="14.2001367"><ele>111.0</ele><time>2026-03-24T12:53:01.121Z</time></trkpt><trkpt lat="40.9173133" lon="14.2000333"><ele>111.0</ele><time>2026-03-24T12:53:02.122Z</time></trkpt><trkpt lat="40.9173167" lon="14.1999317"><ele>111.33333333333333</ele><time>2026-03-24T12:53:03.12Z</time></trkpt><trkpt lat="40.91732" lon="14.1998283"><ele>111.66666666666666</ele><time>2026-03-24T12:53:04.121Z</time></trkpt><trkpt lat="40.9173267" lon="14.1997233"><ele>112.0</ele><time>2026-03-24T12:53:05.122Z</time></trkpt><trkpt lat="40.917335" lon="14.1996233"><ele>112.33333333333333</ele><time>2026-03-24T12:53:06.124Z</time></trkpt><trkpt lat="40.9173383" lon="14.199525"><ele>112.66666666666666</ele><time>2026-03-24T12:53:07.123Z</time></trkpt><trkpt lat="40.9173367" lon="14.1994233"><ele>113.0</ele><time>2026-03-24T12:53:08.124Z</time></trkpt><trkpt lat="40.9173317" lon="14.1993217"><ele>112.99999999999999</ele><time>2026-03-24T12:53:09.123Z</time></trkpt><trkpt lat="40.917325" lon="14.19922"><ele>113.0</ele><time>2026-03-24T12:53:10.121Z</time></trkpt><trkpt lat="40.9173217" lon="14.1991183"><ele>113.0</ele><time>2026-03-24T12:53:11.123Z</time></trkpt><trkpt lat="40.9173183" lon="14.199015"><ele>113.0</ele><time>2026-03-24T12:53:12.123Z</time></trkpt><trkpt lat="40.9173133" lon="14.19891"><ele>112.99999999999999</ele><time>2026-03-24T12:53:13.119Z</time></trkpt><trkpt lat="40.9173117" lon="14.1988083"><ele>113.0</ele><time>2026-03-24T12:53:14.123Z</time></trkpt><trkpt lat="40.9173117" lon="14.1987017"><ele>113.16666666666666</ele><time>2026-03-24T12:53:15.121Z</time></trkpt><trkpt lat="40.917315" lon="14.1985933"><ele>113.33333333333333</ele><time>2026-03-24T12:53:16.119Z</time></trkpt><trkpt lat="40.9173233" lon="14.1984867"><ele>113.5</ele><time>2026-03-24T12:53:17.12Z</time></trkpt><trkpt lat="40.91733" lon="14.1983817"><ele>113.66666666666666</ele><time>2026-03-24T12:53:18.12Z</time></trkpt><trkpt lat="40.9173383" lon="14.198275"><ele>113.83333333333333</ele><time>2026-03-24T12:53:19.121Z</time></trkpt><trkpt lat="40.917345" lon="14.198165"><ele>114.0</ele><time>2026-03-24T12:53:20.122Z</time></trkpt><trkpt lat="40.9173517" lon="14.19805"><ele>114.33333333333333</ele><time>2026-03-24T12:53:21.12Z</time></trkpt><trkpt lat="40.9173567" lon="14.19794"><ele>114.66666666666666</ele><time>2026-03-24T12:53:22.121Z</time></trkpt><trkpt lat="40.9173617" lon="14.1978317"><ele>115.0</ele><time>2026-03-24T12:53:23.122Z</time></trkpt><trkpt lat="40.9173683" lon="14.1977233"><ele>115.33333333333333</ele><time>2026-03-24T12:53:24.125Z</time></trkpt><trkpt lat="40.9173783" lon="14.197615"><ele>115.66666666666666</ele><time>2026-03-24T12:53:25.124Z</time></trkpt><trkpt lat="40.9173867" lon="14.1975083"><ele>116.0</ele><time>2026-03-24T12:53:26.126Z</time></trkpt><trkpt lat="40.9173967" lon="14.1974033"><ele>115.83333333333333</ele><time>2026-03-24T12:53:27.122Z</time></trkpt><trkpt lat="40.917405" lon="14.1973"><ele>115.66666666666666</ele><time>2026-03-24T12:53:28.119Z</time></trkpt><trkpt lat="40.91741" lon="14.1971983"><ele>115.5</ele><time>2026-03-24T12:53:29.119Z</time></trkpt><trkpt lat="40.917415" lon="14.1971"><ele>115.33333333333334</ele><time>2026-03-24T12:53:30.121Z</time></trkpt><trkpt lat="40.917425" lon="14.197005"><ele>115.16666666666667</ele><time>2026-03-24T12:53:31.122Z</time></trkpt><trkpt lat="40.91743" lon="14.1969067"><ele>115.0</ele><time>2026-03-24T12:53:32.124Z</time></trkpt><trkpt lat="40.9174383" lon="14.19681"><ele>114.99999999999999</ele><time>2026-03-24T12:53:33.12Z</time></trkpt><trkpt lat="40.9174567" lon="14.1967183"><ele>115.0</ele><time>2026-03-24T12:53:34.123Z</time></trkpt><trkpt lat="40.9174817" lon="14.196635"><ele>114.99999999999999</ele><time>2026-03-24T12:53:35.123Z</time></trkpt><trkpt lat="40.9175117" lon="14.1965533"><ele>114.99999999999999</ele><time>2026-03-24T12:53:36.124Z</time></trkpt><trkpt lat="40.9175467" lon="14.1964817"><ele>115.0</ele><time>2026-03-24T12:53:37.121Z</time></trkpt><trkpt lat="40.9175717" lon="14.1964033"><ele>114.99999999999999</ele><time>2026-03-24T12:53:38.122Z</time></trkpt><trkpt lat="40.9175883" lon="14.1963183"><ele>114.99999999999999</ele><time>2026-03-24T12:53:39.121Z</time></trkpt><trkpt lat="40.9175917" lon="14.196235"><ele>115.16666666666667</ele><time>2026-03-24T12:53:40.122Z</time></trkpt><trkpt lat="40.9175817" lon="14.1960767"><ele>115.33333333333334</ele><time>2026-03-24T12:53:42.121Z</time></trkpt><trkpt lat="40.91756" lon="14.195995"><ele>115.5</ele><time>2026-03-24T12:53:43.122Z</time></trkpt><trkpt lat="40.917535" lon="14.1959117"><ele>115.66666666666666</ele><time>2026-03-24T12:53:44.123Z</time></trkpt><trkpt lat="40.917515" lon="14.195825"><ele>115.83333333333333</ele><time>2026-03-24T12:53:45.119Z</time></trkpt><trkpt lat="40.91749" lon="14.1957333"><ele>116.0</ele><time>2026-03-24T12:53:46.121Z</time></trkpt><trkpt lat="40.9174633" lon="14.1956433"><ele>115.99999999999999</ele><time>2026-03-24T12:53:47.121Z</time></trkpt><trkpt lat="40.917445" lon="14.195545"><ele>116.0</ele><time>2026-03-24T12:53:48.121Z</time></trkpt><trkpt lat="40.9174333" lon="14.1954433"><ele>116.0</ele><time>2026-03-24T12:53:49.122Z</time></trkpt><trkpt lat="40.9174267" lon="14.1953433"><ele>116.0</ele><time>2026-03-24T12:53:50.121Z</time></trkpt><trkpt lat="40.9174267" lon="14.1952383"><ele>115.99999999999999</ele><time>2026-03-24T12:53:51.122Z</time></trkpt><trkpt lat="40.9174183" lon="14.19513"><ele>116.0</ele><time>2026-03-24T12:53:52.123Z</time></trkpt><trkpt lat="40.9174183" lon="14.1950217"><ele>115.99999999999999</ele><time>2026-03-24T12:53:53.122Z</time></trkpt><trkpt lat="40.917415" lon="14.1949117"><ele>116.0</ele><time>2026-03-24T12:53:54.121Z</time></trkpt><trkpt lat="40.917415" lon="14.194805"><ele>116.0</ele><time>2026-03-24T12:53:55.122Z</time></trkpt><trkpt lat="40.917405" lon="14.1947"><ele>116.0</ele><time>2026-03-24T12:53:56.121Z</time></trkpt><trkpt lat="40.917395" lon="14.1945967"><ele>115.99999999999999</ele><time>2026-03-24T12:53:57.12Z</time></trkpt><trkpt lat="40.917385" lon="14.1944933"><ele>116.0</ele><time>2026-03-24T12:53:58.121Z</time></trkpt><trkpt lat="40.9173833" lon="14.1943867"><ele>115.66666666666666</ele><time>2026-03-24T12:53:59.121Z</time></trkpt><trkpt lat="40.9173817" lon="14.194285"><ele>115.33333333333333</ele><time>2026-03-24T12:54:00.125Z</time></trkpt><trkpt lat="40.9173783" lon="14.194185"><ele>115.0</ele><time>2026-03-24T12:54:01.122Z</time></trkpt><trkpt lat="40.9173717" lon="14.194085"><ele>114.66666666666666</ele><time>2026-03-24T12:54:02.123Z</time></trkpt><trkpt lat="40.9173617" lon="14.19399"><ele>114.33333333333333</ele><time>2026-03-24T12:54:03.119Z</time></trkpt><trkpt lat="40.9173533" lon="14.19389"><ele>114.0</ele><time>2026-03-24T12:54:04.119Z</time></trkpt><trkpt lat="40.9173483" lon="14.19379"><ele>114.0</ele><time>2026-03-24T12:54:05.121Z</time></trkpt><trkpt lat="40.91735" lon="14.1936867"><ele>114.0</ele><time>2026-03-24T12:54:06.121Z</time></trkpt><trkpt lat="40.9173583" lon="14.19358"><ele>114.0</ele><time>2026-03-24T12:54:07.121Z</time></trkpt><trkpt lat="40.9173517" lon="14.19348"><ele>114.0</ele><time>2026-03-24T12:54:08.123Z</time></trkpt><trkpt lat="40.9173467" lon="14.1933783"><ele>114.0</ele><time>2026-03-24T12:54:09.121Z</time></trkpt><trkpt lat="40.91734" lon="14.1932767"><ele>114.0</ele><time>2026-03-24T12:54:10.12Z</time></trkpt><trkpt lat="40.9173283" lon="14.193175"><ele>114.28571428571428</ele><time>2026-03-24T12:54:11.122Z</time></trkpt><trkpt lat="40.91732" lon="14.193075"><ele>114.57142857142856</ele><time>2026-03-24T12:54:12.122Z</time></trkpt><trkpt lat="40.917315" lon="14.1929783"><ele>114.85714285714286</ele><time>2026-03-24T12:54:13.12Z</time></trkpt><trkpt lat="40.91731" lon="14.192885"><ele>115.14285714285714</ele><time>2026-03-24T12:54:14.121Z</time></trkpt><trkpt lat="40.9173033" lon="14.1927883"><ele>115.42857142857143</ele><time>2026-03-24T12:54:15.121Z</time></trkpt><trkpt lat="40.9173067" lon="14.1926917"><ele>115.71428571428572</ele><time>2026-03-24T12:54:16.12Z</time></trkpt><trkpt lat="40.9173033" lon="14.192595"><ele>116.00000000000001</ele><time>2026-03-24T12:54:17.121Z</time></trkpt><trkpt lat="40.9173033" lon="14.1924967"><ele>115.99999999999999</ele><time>2026-03-24T12:54:18.122Z</time></trkpt><trkpt lat="40.917305" lon="14.1923967"><ele>116.0</ele><time>2026-03-24T12:54:19.121Z</time></trkpt><trkpt lat="40.9173" lon="14.192295"><ele>116.0</ele><time>2026-03-24T12:54:20.122Z</time></trkpt><trkpt lat="40.9173017" lon="14.1921933"><ele>116.0</ele><time>2026-03-24T12:54:21.121Z</time></trkpt><trkpt lat="40.9173067" lon="14.1920917"><ele>115.99999999999999</ele><time>2026-03-24T12:54:22.121Z</time></trkpt><trkpt lat="40.917305" lon="14.1919917"><ele>116.0</ele><time>2026-03-24T12:54:23.121Z</time></trkpt><trkpt lat="40.917305" lon="14.19189"><ele>115.83333333333333</ele><time>2026-03-24T12:54:24.124Z</time></trkpt><trkpt lat="40.917305" lon="14.1917867"><ele>115.66666666666666</ele><time>2026-03-24T12:54:25.119Z</time></trkpt><trkpt lat="40.9173017" lon="14.1916833"><ele>115.5</ele><time>2026-03-24T12:54:26.122Z</time></trkpt><trkpt lat="40.9173033" lon="14.1915833"><ele>115.33333333333334</ele><time>2026-03-24T12:54:27.122Z</time></trkpt><trkpt lat="40.9173067" lon="14.191485"><ele>115.16666666666667</ele><time>2026-03-24T12:54:28.122Z</time></trkpt><trkpt lat="40.9173083" lon="14.191385"><ele>115.0</ele><time>2026-03-24T12:54:29.123Z</time></trkpt><trkpt lat="40.9173133" lon="14.191285"><ele>114.99999999999999</ele><time>2026-03-24T12:54:30.121Z</time></trkpt><trkpt lat="40.91732" lon="14.1911817"><ele>115.0</ele><time>2026-03-24T12:54:31.121Z</time></trkpt><trkpt lat="40.91733" lon="14.1910833"><ele>114.99999999999999</ele><time>2026-03-24T12:54:32.122Z</time></trkpt><trkpt lat="40.91734" lon="14.1909867"><ele>114.99999999999999</ele><time>2026-03-24T12:54:33.123Z</time></trkpt><trkpt lat="40.9173483" lon="14.1908867"><ele>115.0</ele><time>2026-03-24T12:54:34.124Z</time></trkpt><trkpt lat="40.9173567" lon="14.1907933"><ele>114.99999999999999</ele><time>2026-03-24T12:54:35.122Z</time></trkpt><trkpt lat="40.9173683" lon="14.1906983"><ele>114.99999999999999</ele><time>2026-03-24T12:54:36.12Z</time></trkpt><trkpt lat="40.9173883" lon="14.1906083"><ele>115.00000000000001</ele><time>2026-03-24T12:54:37.12Z</time></trkpt><trkpt lat="40.9174067" lon="14.19051"><ele>115.0</ele><time>2026-03-24T12:54:38.122Z</time></trkpt><trkpt lat="40.9174267" lon="14.1904117"><ele>115.0</ele><time>2026-03-24T12:54:39.123Z</time></trkpt><trkpt lat="40.9174417" lon="14.1903167"><ele>115.0</ele><time>2026-03-24T12:54:40.121Z</time></trkpt><trkpt lat="40.9174533" lon="14.1902217"><ele>115.00000000000001</ele><time>2026-03-24T12:54:41.121Z</time></trkpt><trkpt lat="40.9174633" lon="14.1901217"><ele>115.0</ele><time>2026-03-24T12:54:42.121Z</time></trkpt><trkpt lat="40.917475" lon="14.1900217"><ele>114.99999999999999</ele><time>2026-03-24T12:54:43.121Z</time></trkpt><trkpt lat="40.9174867" lon="14.1899217"><ele>115.0</ele><time>2026-03-24T12:54:44.123Z</time></trkpt><trkpt lat="40.9174983" lon="14.189825"><ele>114.99999999999999</ele><time>2026-03-24T12:54:45.12Z</time></trkpt><trkpt lat="40.9175133" lon="14.18973"><ele>114.99999999999999</ele><time>2026-03-24T12:54:46.123Z</time></trkpt><trkpt lat="40.9175267" lon="14.189635"><ele>115.0</ele><time>2026-03-24T12:54:47.122Z</time></trkpt><trkpt lat="40.9175417" lon="14.1895367"><ele>114.99999999999999</ele><time>2026-03-24T12:54:48.124Z</time></trkpt><trkpt lat="40.917555" lon="14.1894417"><ele>114.99999999999999</ele><time>2026-03-24T12:54:49.121Z</time></trkpt><trkpt lat="40.9175683" lon="14.18935"><ele>115.00000000000001</ele><time>2026-03-24T12:54:50.122Z</time></trkpt><trkpt lat="40.9175833" lon="14.1892567"><ele>115.0</ele><time>2026-03-24T12:54:51.12Z</time></trkpt><trkpt lat="40.9176033" lon="14.1891583"><ele>115.0</ele><time>2026-03-24T12:54:52.123Z</time></trkpt><trkpt lat="40.9176233" lon="14.1890617"><ele>115.0</ele><time>2026-03-24T12:54:53.121Z</time></trkpt><trkpt lat="40.9176433" lon="14.1889667"><ele>115.00000000000001</ele><time>2026-03-24T12:54:54.122Z</time></trkpt><trkpt lat="40.9176633" lon="14.18887"><ele>115.0</ele><time>2026-03-24T12:54:55.12Z</time></trkpt><trkpt lat="40.9176867" lon="14.1887733"><ele>115.00000000000001</ele><time>2026-03-24T12:54:56.123Z</time></trkpt><trkpt lat="40.917705" lon="14.188675"><ele>115.0</ele><time>2026-03-24T12:54:57.123Z</time></trkpt><trkpt lat="40.917725" lon="14.1885767"><ele>115.0</ele><time>2026-03-24T12:54:58.12Z</time></trkpt><trkpt lat="40.9177467" lon="14.1884817"><ele>115.0</ele><time>2026-03-24T12:54:59.121Z</time></trkpt><trkpt lat="40.9177667" lon="14.1883867"><ele>115.00000000000001</ele><time>2026-03-24T12:55:00.121Z</time></trkpt><trkpt lat="40.9177917" lon="14.1882917"><ele>115.0</ele><time>2026-03-24T12:55:01.121Z</time></trkpt><trkpt lat="40.9178183" lon="14.1882"><ele>115.14285714285712</ele><time>2026-03-24T12:55:02.124Z</time></trkpt><trkpt lat="40.9178433" lon="14.1881133"><ele>115.28571428571428</ele><time>2026-03-24T12:55:03.121Z</time></trkpt><trkpt lat="40.9178717" lon="14.188025"><ele>115.42857142857143</ele><time>2026-03-24T12:55:04.12Z</time></trkpt><trkpt lat="40.9179017" lon="14.1879367"><ele>115.57142857142857</ele><time>2026-03-24T12:55:05.12Z</time></trkpt><trkpt lat="40.917925" lon="14.1878467"><ele>115.71428571428572</ele><time>2026-03-24T12:55:06.122Z</time></trkpt><trkpt lat="40.9179417" lon="14.1877517"><ele>115.85714285714288</ele><time>2026-03-24T12:55:07.122Z</time></trkpt><trkpt lat="40.9179617" lon="14.1876583"><ele>116.00000000000001</ele><time>2026-03-24T12:55:08.122Z</time></trkpt><trkpt lat="40.9179967" lon="14.187565"><ele>115.99999999999999</ele><time>2026-03-24T12:55:09.121Z</time></trkpt><trkpt lat="40.9180283" lon="14.1874667"><ele>116.0</ele><time>2026-03-24T12:55:10.122Z</time></trkpt><trkpt lat="40.918055" lon="14.1873683"><ele>116.0</ele><time>2026-03-24T12:55:11.121Z</time></trkpt><trkpt lat="40.9180833" lon="14.187275"><ele>116.0</ele><time>2026-03-24T12:55:12.122Z</time></trkpt><trkpt lat="40.9181083" lon="14.1871917"><ele>115.99999999999999</ele><time>2026-03-24T12:55:13.123Z</time></trkpt><trkpt lat="40.918155" lon="14.1870433"><ele>116.0</ele><time>2026-03-24T12:55:15.121Z</time></trkpt><trkpt lat="40.9182017" lon="14.1869133"><ele>115.8</ele><time>2026-03-24T12:55:17.123Z</time></trkpt><trkpt lat="40.9182417" lon="14.1867983"><ele>115.6</ele><time>2026-03-24T12:55:19.123Z</time></trkpt><trkpt lat="40.9183033" lon="14.1867133"><ele>115.4</ele><time>2026-03-24T12:55:21.124Z</time></trkpt><trkpt lat="40.9183583" lon="14.1866067"><ele>115.2</ele><time>2026-03-24T12:55:23.122Z</time></trkpt><trkpt lat="40.9183883" lon="14.18646"><ele>115.0</ele><time>2026-03-24T12:55:25.123Z</time></trkpt><trkpt lat="40.9184233" lon="14.1863017"><ele>114.7142857142857</ele><time>2026-03-24T12:55:27.121Z</time></trkpt><trkpt lat="40.9184467" lon="14.18622"><ele>114.42857142857142</ele><time>2026-03-24T12:55:28.121Z</time></trkpt><trkpt lat="40.9184783" lon="14.1861367"><ele>114.14285714285714</ele><time>2026-03-24T12:55:29.122Z</time></trkpt><trkpt lat="40.9185083" lon="14.1860483"><ele>113.85714285714285</ele><time>2026-03-24T12:55:30.122Z</time></trkpt><trkpt lat="40.9185367" lon="14.185955"><ele>113.57142857142856</ele><time>2026-03-24T12:55:31.122Z</time></trkpt><trkpt lat="40.9185633" lon="14.1858633"><ele>113.28571428571429</ele><time>2026-03-24T12:55:32.122Z</time></trkpt><trkpt lat="40.9185917" lon="14.1857733"><ele>113.0</ele><time>2026-03-24T12:55:33.121Z</time></trkpt><trkpt lat="40.91862" lon="14.185685"><ele>112.99999999999999</ele><time>2026-03-24T12:55:34.12Z</time></trkpt><trkpt lat="40.9186517" lon="14.185595"><ele>113.0</ele><time>2026-03-24T12:55:35.124Z</time></trkpt><trkpt lat="40.9186833" lon="14.1855033"><ele>113.0</ele><time>2026-03-24T12:55:36.119Z</time></trkpt><trkpt lat="40.91871" lon="14.18541"><ele>113.0</ele><time>2026-03-24T12:55:37.121Z</time></trkpt><trkpt lat="40.9187417" lon="14.18532"><ele>112.99999999999999</ele><time>2026-03-24T12:55:38.121Z</time></trkpt><trkpt lat="40.91877" lon="14.185225"><ele>113.0</ele><time>2026-03-24T12:55:39.12Z</time></trkpt><trkpt lat="40.9188" lon="14.1851317"><ele>112.99999999999999</ele><time>2026-03-24T12:55:40.12Z</time></trkpt><trkpt lat="40.9188267" lon="14.1850317"><ele>113.0</ele><time>2026-03-24T12:55:41.121Z</time></trkpt><trkpt lat="40.9188533" lon="14.184935"><ele>113.0</ele><time>2026-03-24T12:55:42.12Z</time></trkpt><trkpt lat="40.9188833" lon="14.18484"><ele>113.0</ele><time>2026-03-24T12:55:43.123Z</time></trkpt><trkpt lat="40.918915" lon="14.1847467"><ele>112.99999999999999</ele><time>2026-03-24T12:55:44.121Z</time></trkpt><trkpt lat="40.9189483" lon="14.18465"><ele>113.0</ele><time>2026-03-24T12:55:45.122Z</time></trkpt><trkpt lat="40.91898" lon="14.1845517"><ele>112.99999999999999</ele><time>2026-03-24T12:55:46.119Z</time></trkpt><trkpt lat="40.9190117" lon="14.184455"><ele>113.0</ele><time>2026-03-24T12:55:47.121Z</time></trkpt><trkpt lat="40.9190433" lon="14.1843533"><ele>113.0</ele><time>2026-03-24T12:55:48.121Z</time></trkpt><trkpt lat="40.9190717" lon="14.1842533"><ele>113.0</ele><time>2026-03-24T12:55:49.119Z</time></trkpt><trkpt lat="40.9190983" lon="14.1841567"><ele>112.99999999999999</ele><time>2026-03-24T12:55:50.124Z</time></trkpt><trkpt lat="40.9191283" lon="14.18406"><ele>113.0</ele><time>2026-03-24T12:55:51.123Z</time></trkpt><trkpt lat="40.919155" lon="14.18396"><ele>112.99999999999999</ele><time>2026-03-24T12:55:52.12Z</time></trkpt><trkpt lat="40.91919" lon="14.1838617"><ele>113.0</ele><time>2026-03-24T12:55:53.123Z</time></trkpt><trkpt lat="40.9192233" lon="14.1837633"><ele>113.0</ele><time>2026-03-24T12:55:54.12Z</time></trkpt><trkpt lat="40.91925" lon="14.183665"><ele>113.0</ele><time>2026-03-24T12:55:55.121Z</time></trkpt><trkpt lat="40.9192817" lon="14.183565"><ele>112.99999999999999</ele><time>2026-03-24T12:55:56.122Z</time></trkpt><trkpt lat="40.91931" lon="14.183465"><ele>113.0</ele><time>2026-03-24T12:55:57.121Z</time></trkpt><trkpt lat="40.91934" lon="14.1833617"><ele>112.99999999999999</ele><time>2026-03-24T12:55:58.122Z</time></trkpt><trkpt lat="40.9193717" lon="14.1832633"><ele>113.0</ele><time>2026-03-24T12:55:59.122Z</time></trkpt><trkpt lat="40.9194033" lon="14.1831633"><ele>113.0</ele><time>2026-03-24T12:56:00.123Z</time></trkpt><trkpt lat="40.9194317" lon="14.1830667"><ele>113.0</ele><time>2026-03-24T12:56:01.123Z</time></trkpt><trkpt lat="40.9194633" lon="14.18297"><ele>112.99999999999999</ele><time>2026-03-24T12:56:02.121Z</time></trkpt><trkpt lat="40.91949" lon="14.1828767"><ele>113.0</ele><time>2026-03-24T12:56:03.123Z</time></trkpt><trkpt lat="40.919515" lon="14.1827883"><ele>113.14285714285714</ele><time>2026-03-24T12:56:04.121Z</time></trkpt><trkpt lat="40.9195517" lon="14.1827033"><ele>113.28571428571428</ele><time>2026-03-24T12:56:05.122Z</time></trkpt><trkpt lat="40.9195917" lon="14.1826317"><ele>113.42857142857142</ele><time>2026-03-24T12:56:06.122Z</time></trkpt><trkpt lat="40.9196433" lon="14.1825667"><ele>113.57142857142857</ele><time>2026-03-24T12:56:07.122Z</time></trkpt><trkpt lat="40.919695" lon="14.1824933"><ele>113.7142857142857</ele><time>2026-03-24T12:56:08.121Z</time></trkpt><trkpt lat="40.9197433" lon="14.1824117"><ele>113.85714285714285</ele><time>2026-03-24T12:56:09.121Z</time></trkpt><trkpt lat="40.9197817" lon="14.182325"><ele>114.0</ele><time>2026-03-24T12:56:10.12Z</time></trkpt><trkpt lat="40.9198017" lon="14.1822317"><ele>114.16666666666667</ele><time>2026-03-24T12:56:11.122Z</time></trkpt><trkpt lat="40.9198033" lon="14.1821333"><ele>114.33333333333334</ele><time>2026-03-24T12:56:12.124Z</time></trkpt><trkpt lat="40.9197983" lon="14.1820367"><ele>114.5</ele><time>2026-03-24T12:56:13.121Z</time></trkpt><trkpt lat="40.9197983" lon="14.18194"><ele>114.66666666666667</ele><time>2026-03-24T12:56:14.123Z</time></trkpt><trkpt lat="40.9198083" lon="14.1818417"><ele>114.83333333333334</ele><time>2026-03-24T12:56:15.119Z</time></trkpt><trkpt lat="40.919835" lon="14.181745"><ele>115.0</ele><time>2026-03-24T12:56:16.121Z</time></trkpt><trkpt lat="40.919875" lon="14.1816483"><ele>115.00000000000001</ele><time>2026-03-24T12:56:17.122Z</time></trkpt><trkpt lat="40.9199133" lon="14.18155"><ele>115.0</ele><time>2026-03-24T12:56:18.122Z</time></trkpt><trkpt lat="40.91995" lon="14.1814483"><ele>115.0</ele><time>2026-03-24T12:56:19.122Z</time></trkpt><trkpt lat="40.9199833" lon="14.1813433"><ele>115.0</ele><time>2026-03-24T12:56:20.12Z</time></trkpt><trkpt lat="40.9200167" lon="14.181245"><ele>115.00000000000001</ele><time>2026-03-24T12:56:21.122Z</time></trkpt><trkpt lat="40.9200467" lon="14.1811467"><ele>115.0</ele><time>2026-03-24T12:56:22.12Z</time></trkpt><trkpt lat="40.9200817" lon="14.1810467"><ele>114.66666666666667</ele><time>2026-03-24T12:56:23.12Z</time></trkpt><trkpt lat="40.9201067" lon="14.1809517"><ele>114.33333333333334</ele><time>2026-03-24T12:56:24.12Z</time></trkpt><trkpt lat="40.92014" lon="14.180855"><ele>114.0</ele><time>2026-03-24T12:56:25.121Z</time></trkpt><trkpt lat="40.92017" lon="14.1807617"><ele>113.66666666666666</ele><time>2026-03-24T12:56:26.123Z</time></trkpt><trkpt lat="40.9202" lon="14.1806667"><ele>113.33333333333333</ele><time>2026-03-24T12:56:27.121Z</time></trkpt><trkpt lat="40.9202283" lon="14.18057"><ele>113.0</ele><time>2026-03-24T12:56:28.119Z</time></trkpt><trkpt lat="40.920255" lon="14.180475"><ele>112.99999999999999</ele><time>2026-03-24T12:56:29.122Z</time></trkpt><trkpt lat="40.9202817" lon="14.1803767"><ele>113.0</ele><time>2026-03-24T12:56:30.121Z</time></trkpt><trkpt lat="40.9203117" lon="14.18028"><ele>113.0</ele><time>2026-03-24T12:56:31.122Z</time></trkpt><trkpt lat="40.9203467" lon="14.1801833"><ele>113.0</ele><time>2026-03-24T12:56:32.121Z</time></trkpt><trkpt lat="40.9203817" lon="14.180085"><ele>112.99999999999999</ele><time>2026-03-24T12:56:33.121Z</time></trkpt><trkpt lat="40.9204133" lon="14.1799883"><ele>113.0</ele><time>2026-03-24T12:56:34.119Z</time></trkpt><trkpt lat="40.920445" lon="14.1798933"><ele>112.99999999999999</ele><time>2026-03-24T12:56:35.123Z</time></trkpt><trkpt lat="40.920475" lon="14.1797983"><ele>113.0</ele><time>2026-03-24T12:56:36.122Z</time></trkpt><trkpt lat="40.9205083" lon="14.1797033"><ele>113.0</ele><time>2026-03-24T12:56:37.121Z</time></trkpt><trkpt lat="40.92054" lon="14.179605"><ele>113.0</ele><time>2026-03-24T12:56:38.121Z</time></trkpt><trkpt lat="40.9205717" lon="14.179505"><ele>112.99999999999999</ele><time>2026-03-24T12:56:39.122Z</time></trkpt><trkpt lat="40.9206" lon="14.1794083"><ele>113.0</ele><time>2026-03-24T12:56:40.121Z</time></trkpt><trkpt lat="40.920625" lon="14.1793183"><ele>112.99999999999999</ele><time>2026-03-24T12:56:41.121Z</time></trkpt><trkpt lat="40.9206517" lon="14.179225"><ele>113.0</ele><time>2026-03-24T12:56:42.122Z</time></trkpt><trkpt lat="40.92068" lon="14.1791333"><ele>113.0</ele><time>2026-03-24T12:56:43.122Z</time></trkpt><trkpt lat="40.92071" lon="14.1790433"><ele>113.0</ele><time>2026-03-24T12:56:44.122Z</time></trkpt><trkpt lat="40.9207417" lon="14.1789567"><ele>112.99999999999999</ele><time>2026-03-24T12:56:45.121Z</time></trkpt><trkpt lat="40.9207717" lon="14.1788667"><ele>113.0</ele><time>2026-03-24T12:56:46.122Z</time></trkpt><trkpt lat="40.9207983" lon="14.1787683"><ele>112.99999999999999</ele><time>2026-03-24T12:56:47.121Z</time></trkpt><trkpt lat="40.92083" lon="14.1786733"><ele>113.0</ele><time>2026-03-24T12:56:48.121Z</time></trkpt><trkpt lat="40.9208583" lon="14.1785783"><ele>113.0</ele><time>2026-03-24T12:56:49.121Z</time></trkpt><trkpt lat="40.92089" lon="14.1784867"><ele>113.0</ele><time>2026-03-24T12:56:50.121Z</time></trkpt><trkpt lat="40.9209233" lon="14.1783917"><ele>112.99999999999999</ele><time>2026-03-24T12:56:51.12Z</time></trkpt><trkpt lat="40.9209533" lon="14.1782967"><ele>113.0</ele><time>2026-03-24T12:56:52.123Z</time></trkpt><trkpt lat="40.9209867" lon="14.178205"><ele>112.66666666666666</ele><time>2026-03-24T12:56:53.121Z</time></trkpt><trkpt lat="40.9210133" lon="14.17811"><ele>112.33333333333333</ele><time>2026-03-24T12:56:54.122Z</time></trkpt><trkpt lat="40.9210417" lon="14.178015"><ele>112.0</ele><time>2026-03-24T12:56:55.121Z</time></trkpt><trkpt lat="40.9210717" lon="14.17792"><ele>111.66666666666666</ele><time>2026-03-24T12:56:56.121Z</time></trkpt><trkpt lat="40.9210983" lon="14.177825"><ele>111.33333333333333</ele><time>2026-03-24T12:56:57.124Z</time></trkpt><trkpt lat="40.9211283" lon="14.1777233"><ele>111.0</ele><time>2026-03-24T12:56:58.123Z</time></trkpt><trkpt lat="40.9211533" lon="14.1776317"><ele>111.0</ele><time>2026-03-24T12:56:59.124Z</time></trkpt><trkpt lat="40.92118" lon="14.177535"><ele>111.0</ele><time>2026-03-24T12:57:00.12Z</time></trkpt><trkpt lat="40.9212083" lon="14.177435"><ele>111.0</ele><time>2026-03-24T12:57:01.123Z</time></trkpt><trkpt lat="40.921235" lon="14.177335"><ele>111.0</ele><time>2026-03-24T12:57:02.125Z</time></trkpt><trkpt lat="40.9212633" lon="14.177235"><ele>111.0</ele><time>2026-03-24T12:57:03.12Z</time></trkpt><trkpt lat="40.9212933" lon="14.17714"><ele>111.0</ele><time>2026-03-24T12:57:04.121Z</time></trkpt><trkpt lat="40.9213233" lon="14.1770417"><ele>111.0</ele><time>2026-03-24T12:57:05.125Z</time></trkpt><trkpt lat="40.9213517" lon="14.176945"><ele>111.0</ele><time>2026-03-24T12:57:06.12Z</time></trkpt><trkpt lat="40.92138" lon="14.176845"><ele>111.0</ele><time>2026-03-24T12:57:07.122Z</time></trkpt><trkpt lat="40.9214117" lon="14.1767483"><ele>111.0</ele><time>2026-03-24T12:57:08.124Z</time></trkpt><trkpt lat="40.9214383" lon="14.17665"><ele>111.0</ele><time>2026-03-24T12:57:09.123Z</time></trkpt><trkpt lat="40.921465" lon="14.1765467"><ele>111.0</ele><time>2026-03-24T12:57:10.123Z</time></trkpt><trkpt lat="40.9214983" lon="14.17645"><ele>111.0</ele><time>2026-03-24T12:57:11.123Z</time></trkpt><trkpt lat="40.9215317" lon="14.1763567"><ele>111.0</ele><time>2026-03-24T12:57:12.123Z</time></trkpt><trkpt lat="40.921565" lon="14.1762617"><ele>111.0</ele><time>2026-03-24T12:57:13.123Z</time></trkpt><trkpt lat="40.9215983" lon="14.176165"><ele>111.0</ele><time>2026-03-24T12:57:14.122Z</time></trkpt><trkpt lat="40.92163" lon="14.176065"><ele>111.0</ele><time>2026-03-24T12:57:15.121Z</time></trkpt><trkpt lat="40.92166" lon="14.1759667"><ele>111.0</ele><time>2026-03-24T12:57:16.123Z</time></trkpt><trkpt lat="40.92169" lon="14.1758667"><ele>111.0</ele><time>2026-03-24T12:57:17.122Z</time></trkpt><trkpt lat="40.9217217" lon="14.1757667"><ele>111.0</ele><time>2026-03-24T12:57:18.123Z</time></trkpt><trkpt lat="40.9217533" lon="14.1756717"><ele>111.0</ele><time>2026-03-24T12:57:19.123Z</time></trkpt><trkpt lat="40.921785" lon="14.175575"><ele>111.0</ele><time>2026-03-24T12:57:20.124Z</time></trkpt><trkpt lat="40.9218167" lon="14.1754767"><ele>111.0</ele><time>2026-03-24T12:57:21.122Z</time></trkpt><trkpt lat="40.9218483" lon="14.17538"><ele>111.0</ele><time>2026-03-24T12:57:22.124Z</time></trkpt><trkpt lat="40.9218767" lon="14.1752817"><ele>111.0</ele><time>2026-03-24T12:57:23.123Z</time></trkpt><trkpt lat="40.9219067" lon="14.17519"><ele>111.0</ele><time>2026-03-24T12:57:24.122Z</time></trkpt><trkpt lat="40.9219317" lon="14.1750933"><ele>111.0</ele><time>2026-03-24T12:57:25.124Z</time></trkpt><trkpt lat="40.921955" lon="14.1749967"><ele>111.0</ele><time>2026-03-24T12:57:26.122Z</time></trkpt><trkpt lat="40.921975" lon="14.1749017"><ele>111.0</ele><time>2026-03-24T12:57:27.123Z</time></trkpt><trkpt lat="40.922" lon="14.1748117"><ele>111.0</ele><time>2026-03-24T12:57:28.123Z</time></trkpt><trkpt lat="40.9220233" lon="14.1747233"><ele>111.0</ele><time>2026-03-24T12:57:29.121Z</time></trkpt><trkpt lat="40.9220483" lon="14.17463"><ele>111.14285714285714</ele><time>2026-03-24T12:57:30.122Z</time></trkpt><trkpt lat="40.922075" lon="14.17454"><ele>111.28571428571429</ele><time>2026-03-24T12:57:31.123Z</time></trkpt><trkpt lat="40.9220983" lon="14.1744483"><ele>111.42857142857143</ele><time>2026-03-24T12:57:32.123Z</time></trkpt><trkpt lat="40.9221233" lon="14.174365"><ele>111.57142857142857</ele><time>2026-03-24T12:57:33.123Z</time></trkpt><trkpt lat="40.9221483" lon="14.17428"><ele>111.71428571428572</ele><time>2026-03-24T12:57:34.122Z</time></trkpt><trkpt lat="40.9221783" lon="14.1741983"><ele>111.85714285714286</ele><time>2026-03-24T12:57:35.123Z</time></trkpt><trkpt lat="40.9222117" lon="14.174115"><ele>112.0</ele><time>2026-03-24T12:57:36.123Z</time></trkpt><trkpt lat="40.9222417" lon="14.1740333"><ele>111.83333333333334</ele><time>2026-03-24T12:57:37.123Z</time></trkpt><trkpt lat="40.9222683" lon="14.1739467"><ele>111.66666666666667</ele><time>2026-03-24T12:57:38.124Z</time></trkpt><trkpt lat="40.9222933" lon="14.17386"><ele>111.5</ele><time>2026-03-24T12:57:39.12Z</time></trkpt><trkpt lat="40.9223217" lon="14.17377"><ele>111.33333333333334</ele><time>2026-03-24T12:57:40.122Z</time></trkpt><trkpt lat="40.922345" lon="14.1736917"><ele>111.16666666666667</ele><time>2026-03-24T12:57:41.123Z</time></trkpt><trkpt lat="40.9223933" lon="14.17357"><ele>111.0</ele><time>2026-03-24T12:57:43.123Z</time></trkpt><trkpt lat="40.922445" lon="14.173475"><ele>111.0</ele><time>2026-03-24T12:57:45.123Z</time></trkpt><trkpt lat="40.9225017" lon="14.1733683"><ele>111.0</ele><time>2026-03-24T12:57:47.122Z</time></trkpt><trkpt lat="40.9225433" lon="14.1732517"><ele>111.0</ele><time>2026-03-24T12:57:49.12Z</time></trkpt><trkpt lat="40.9225733" lon="14.1731167"><ele>111.0</ele><time>2026-03-24T12:57:51.121Z</time></trkpt><trkpt lat="40.9225883" lon="14.17297"><ele>111.0</ele><time>2026-03-24T12:57:53.121Z</time></trkpt><trkpt lat="40.922625" lon="14.1728117"><ele>111.0</ele><time>2026-03-24T12:57:55.121Z</time></trkpt><trkpt lat="40.9226467" lon="14.17273"><ele>111.0</ele><time>2026-03-24T12:57:56.121Z</time></trkpt><trkpt lat="40.922675" lon="14.172645"><ele>111.0</ele><time>2026-03-24T12:57:57.122Z</time></trkpt><trkpt lat="40.9227033" lon="14.1725583"><ele>111.0</ele><time>2026-03-24T12:57:58.123Z</time></trkpt><trkpt lat="40.9227333" lon="14.1724667"><ele>111.0</ele><time>2026-03-24T12:57:59.12Z</time></trkpt><trkpt lat="40.9227667" lon="14.1723767"><ele>111.0</ele><time>2026-03-24T12:58:00.121Z</time></trkpt><trkpt lat="40.9228017" lon="14.1722883"><ele>111.0</ele><time>2026-03-24T12:58:01.124Z</time></trkpt><trkpt lat="40.9228367" lon="14.1722"><ele>111.0</ele><time>2026-03-24T12:58:02.124Z</time></trkpt><trkpt lat="40.9228717" lon="14.17211"><ele>111.0</ele><time>2026-03-24T12:58:03.121Z</time></trkpt><trkpt lat="40.9229033" lon="14.17202"><ele>111.0</ele><time>2026-03-24T12:58:04.123Z</time></trkpt><trkpt lat="40.9229333" lon="14.1719233"><ele>111.0</ele><time>2026-03-24T12:58:05.123Z</time></trkpt><trkpt lat="40.9229633" lon="14.1718267"><ele>111.0</ele><time>2026-03-24T12:58:06.123Z</time></trkpt><trkpt lat="40.922995" lon="14.17173"><ele>111.0</ele><time>2026-03-24T12:58:07.123Z</time></trkpt><trkpt lat="40.9230267" lon="14.171635"><ele>111.0</ele><time>2026-03-24T12:58:08.124Z</time></trkpt><trkpt lat="40.9230583" lon="14.171545"><ele>111.0</ele><time>2026-03-24T12:58:09.123Z</time></trkpt><trkpt lat="40.923085" lon="14.1714533"><ele>111.0</ele><time>2026-03-24T12:58:10.123Z</time></trkpt><trkpt lat="40.9231133" lon="14.1713633"><ele>111.0</ele><time>2026-03-24T12:58:11.123Z</time></trkpt><trkpt lat="40.923145" lon="14.17127"><ele>111.0</ele><time>2026-03-24T12:58:12.125Z</time></trkpt><trkpt lat="40.923175" lon="14.1711767"><ele>111.0</ele><time>2026-03-24T12:58:13.12Z</time></trkpt><trkpt lat="40.923205" lon="14.171085"><ele>111.0</ele><time>2026-03-24T12:58:14.121Z</time></trkpt><trkpt lat="40.923235" lon="14.170995"><ele>111.0</ele><time>2026-03-24T12:58:15.123Z</time></trkpt><trkpt lat="40.923265" lon="14.1709067"><ele>111.0</ele><time>2026-03-24T12:58:16.123Z</time></trkpt><trkpt lat="40.9232933" lon="14.1708167"><ele>111.0</ele><time>2026-03-24T12:58:17.119Z</time></trkpt><trkpt lat="40.9233217" lon="14.1707267"><ele>111.0</ele><time>2026-03-24T12:58:18.121Z</time></trkpt><trkpt lat="40.92335" lon="14.1706383"><ele>111.0</ele><time>2026-03-24T12:58:19.121Z</time></trkpt><trkpt lat="40.9233783" lon="14.1705467"><ele>111.0</ele><time>2026-03-24T12:58:20.121Z</time></trkpt><trkpt lat="40.9234033" lon="14.1704583"><ele>111.0</ele><time>2026-03-24T12:58:21.121Z</time></trkpt><trkpt lat="40.92343" lon="14.1703683"><ele>111.0</ele><time>2026-03-24T12:58:22.12Z</time></trkpt><trkpt lat="40.9234633" lon="14.170285"><ele>111.0</ele><time>2026-03-24T12:58:23.122Z</time></trkpt><trkpt lat="40.9235067" lon="14.1702083"><ele>111.0</ele><time>2026-03-24T12:58:24.125Z</time></trkpt><trkpt lat="40.9235583" lon="14.170155"><ele>111.0</ele><time>2026-03-24T12:58:25.122Z</time></trkpt><trkpt lat="40.9236133" lon="14.1701067"><ele>111.0</ele><time>2026-03-24T12:58:26.123Z</time></trkpt><trkpt lat="40.92367" lon="14.1700667"><ele>111.0</ele><time>2026-03-24T12:58:27.121Z</time></trkpt><trkpt lat="40.9237183" lon="14.1700083"><ele>111.0</ele><time>2026-03-24T12:58:28.123Z</time></trkpt><trkpt lat="40.92375" lon="14.169935"><ele>111.0</ele><time>2026-03-24T12:58:29.123Z</time></trkpt><trkpt lat="40.9237733" lon="14.1698533"><ele>111.0</ele><time>2026-03-24T12:58:30.119Z</time></trkpt><trkpt lat="40.923785" lon="14.169765"><ele>111.0</ele><time>2026-03-24T12:58:31.12Z</time></trkpt><trkpt lat="40.923795" lon="14.1696717"><ele>111.0</ele><time>2026-03-24T12:58:32.12Z</time></trkpt><trkpt lat="40.9238017" lon="14.169575"><ele>111.0</ele><time>2026-03-24T12:58:33.124Z</time></trkpt><trkpt lat="40.92381" lon="14.169475"><ele>111.0</ele><time>2026-03-24T12:58:34.124Z</time></trkpt><trkpt lat="40.9238183" lon="14.1693783"><ele>110.83333333333333</ele><time>2026-03-24T12:58:35.123Z</time></trkpt><trkpt lat="40.9238333" lon="14.16928"><ele>110.66666666666666</ele><time>2026-03-24T12:58:36.123Z</time></trkpt><trkpt lat="40.9238483" lon="14.169185"><ele>110.5</ele><time>2026-03-24T12:58:37.121Z</time></trkpt><trkpt lat="40.9238633" lon="14.169085"><ele>110.33333333333333</ele><time>2026-03-24T12:58:38.12Z</time></trkpt><trkpt lat="40.92388" lon="14.168985"><ele>110.16666666666666</ele><time>2026-03-24T12:58:39.12Z</time></trkpt><trkpt lat="40.9239033" lon="14.1688883"><ele>110.0</ele><time>2026-03-24T12:58:40.124Z</time></trkpt><trkpt lat="40.92393" lon="14.1687883"><ele>109.99999999999999</ele><time>2026-03-24T12:58:41.124Z</time></trkpt><trkpt lat="40.9239617" lon="14.1686917"><ele>110.0</ele><time>2026-03-24T12:58:42.123Z</time></trkpt><trkpt lat="40.9239933" lon="14.1685917"><ele>110.0</ele><time>2026-03-24T12:58:43.123Z</time></trkpt><trkpt lat="40.9240283" lon="14.1684933"><ele>110.0</ele><time>2026-03-24T12:58:44.122Z</time></trkpt><trkpt lat="40.92406" lon="14.16839"><ele>109.99999999999999</ele><time>2026-03-24T12:58:45.123Z</time></trkpt><trkpt lat="40.92409" lon="14.1682933"><ele>110.0</ele><time>2026-03-24T12:58:46.123Z</time></trkpt><trkpt lat="40.9241167" lon="14.1681983"><ele>109.83333333333333</ele><time>2026-03-24T12:58:47.123Z</time></trkpt><trkpt lat="40.9241417" lon="14.1681"><ele>109.66666666666666</ele><time>2026-03-24T12:58:48.121Z</time></trkpt><trkpt lat="40.9241683" lon="14.168005"><ele>109.5</ele><time>2026-03-24T12:58:49.121Z</time></trkpt><trkpt lat="40.924195" lon="14.1679067"><ele>109.33333333333334</ele><time>2026-03-24T12:58:50.12Z</time></trkpt><trkpt lat="40.9242267" lon="14.16781"><ele>109.16666666666667</ele><time>2026-03-24T12:58:51.12Z</time></trkpt><trkpt lat="40.9242567" lon="14.167715"><ele>109.0</ele><time>2026-03-24T12:58:52.119Z</time></trkpt><trkpt lat="40.9242867" lon="14.16762"><ele>108.66666666666667</ele><time>2026-03-24T12:58:53.121Z</time></trkpt><trkpt lat="40.924315" lon="14.1675233"><ele>108.33333333333334</ele><time>2026-03-24T12:58:54.125Z</time></trkpt><trkpt lat="40.9243467" lon="14.1674267"><ele>108.0</ele><time>2026-03-24T12:58:55.121Z</time></trkpt><trkpt lat="40.92438" lon="14.1673283"><ele>107.66666666666666</ele><time>2026-03-24T12:58:56.12Z</time></trkpt><trkpt lat="40.9244117" lon="14.1672283"><ele>107.33333333333333</ele><time>2026-03-24T12:58:57.123Z</time></trkpt><trkpt lat="40.9244467" lon="14.167135"><ele>107.0</ele><time>2026-03-24T12:58:58.122Z</time></trkpt><trkpt lat="40.92448" lon="14.1670367"><ele>106.99999999999999</ele><time>2026-03-24T12:58:59.123Z</time></trkpt><trkpt lat="40.9245117" lon="14.1669367"><ele>107.0</ele><time>2026-03-24T12:59:00.12Z</time></trkpt><trkpt lat="40.924545" lon="14.1668383"><ele>107.0</ele><time>2026-03-24T12:59:01.123Z</time></trkpt><trkpt lat="40.9245767" lon="14.1667383"><ele>107.0</ele><time>2026-03-24T12:59:02.121Z</time></trkpt><trkpt lat="40.9246117" lon="14.1666383"><ele>106.99999999999999</ele><time>2026-03-24T12:59:03.123Z</time></trkpt><trkpt lat="40.9246433" lon="14.1665383"><ele>107.0</ele><time>2026-03-24T12:59:04.122Z</time></trkpt><trkpt lat="40.924675" lon="14.1664367"><ele>107.16666666666666</ele><time>2026-03-24T12:59:05.123Z</time></trkpt><trkpt lat="40.9247083" lon="14.1663317"><ele>107.33333333333333</ele><time>2026-03-24T12:59:06.123Z</time></trkpt><trkpt lat="40.92474" lon="14.1662317"><ele>107.5</ele><time>2026-03-24T12:59:07.121Z</time></trkpt><trkpt lat="40.92477" lon="14.1661283"><ele>107.66666666666666</ele><time>2026-03-24T12:59:08.123Z</time></trkpt><trkpt lat="40.9248017" lon="14.166025"><ele>107.83333333333333</ele><time>2026-03-24T12:59:09.121Z</time></trkpt><trkpt lat="40.9248333" lon="14.16592"><ele>108.0</ele><time>2026-03-24T12:59:10.119Z</time></trkpt><trkpt lat="40.9248633" lon="14.165815"><ele>108.0</ele><time>2026-03-24T12:59:11.119Z</time></trkpt><trkpt lat="40.924895" lon="14.165715"><ele>108.0</ele><time>2026-03-24T12:59:12.125Z</time></trkpt><trkpt lat="40.924925" lon="14.165615"><ele>108.0</ele><time>2026-03-24T12:59:13.124Z</time></trkpt><trkpt lat="40.9249533" lon="14.1655117"><ele>108.0</ele><time>2026-03-24T12:59:14.12Z</time></trkpt><trkpt lat="40.9249867" lon="14.165415"><ele>108.0</ele><time>2026-03-24T12:59:15.123Z</time></trkpt><trkpt lat="40.9250183" lon="14.1653167"><ele>108.0</ele><time>2026-03-24T12:59:16.121Z</time></trkpt><trkpt lat="40.92505" lon="14.165215"><ele>107.83333333333333</ele><time>2026-03-24T12:59:17.122Z</time></trkpt><trkpt lat="40.9250817" lon="14.165115"><ele>107.66666666666666</ele><time>2026-03-24T12:59:18.122Z</time></trkpt><trkpt lat="40.9251133" lon="14.1650133"><ele>107.5</ele><time>2026-03-24T12:59:19.121Z</time></trkpt><trkpt lat="40.9251483" lon="14.1649083"><ele>107.33333333333333</ele><time>2026-03-24T12:59:20.12Z</time></trkpt><trkpt lat="40.9251833" lon="14.1648017"><ele>107.16666666666666</ele><time>2026-03-24T12:59:21.121Z</time></trkpt><trkpt lat="40.9252167" lon="14.1646983"><ele>107.0</ele><time>2026-03-24T12:59:22.119Z</time></trkpt><trkpt lat="40.9252483" lon="14.1645933"><ele>106.99999999999999</ele><time>2026-03-24T12:59:23.122Z</time></trkpt><trkpt lat="40.925285" lon="14.1644883"><ele>107.0</ele><time>2026-03-24T12:59:24.124Z</time></trkpt><trkpt lat="40.92532" lon="14.1643833"><ele>107.0</ele><time>2026-03-24T12:59:25.124Z</time></trkpt><trkpt lat="40.9253517" lon="14.16428"><ele>107.0</ele><time>2026-03-24T12:59:26.123Z</time></trkpt><trkpt lat="40.9253833" lon="14.1641767"><ele>106.99999999999999</ele><time>2026-03-24T12:59:27.12Z</time></trkpt><trkpt lat="40.9254183" lon="14.1640717"><ele>107.0</ele><time>2026-03-24T12:59:28.121Z</time></trkpt><trkpt lat="40.9254533" lon="14.1639667"><ele>106.66666666666666</ele><time>2026-03-24T12:59:29.119Z</time></trkpt><trkpt lat="40.9254883" lon="14.16386"><ele>106.33333333333333</ele><time>2026-03-24T12:59:30.121Z</time></trkpt><trkpt lat="40.9255217" lon="14.1637533"><ele>106.0</ele><time>2026-03-24T12:59:31.121Z</time></trkpt><trkpt lat="40.925555" lon="14.163645"><ele>105.66666666666666</ele><time>2026-03-24T12:59:32.121Z</time></trkpt><trkpt lat="40.9255867" lon="14.16354"><ele>105.33333333333333</ele><time>2026-03-24T12:59:33.121Z</time></trkpt><trkpt lat="40.9256183" lon="14.1634367"><ele>105.0</ele><time>2026-03-24T12:59:34.119Z</time></trkpt><trkpt lat="40.92565" lon="14.1633317"><ele>105.0</ele><time>2026-03-24T12:59:35.123Z</time></trkpt><trkpt lat="40.9256817" lon="14.1632267"><ele>105.0</ele><time>2026-03-24T12:59:36.123Z</time></trkpt><trkpt lat="40.925715" lon="14.1631233"><ele>105.0</ele><time>2026-03-24T12:59:37.124Z</time></trkpt><trkpt lat="40.9257483" lon="14.1630233"><ele>105.0</ele><time>2026-03-24T12:59:38.123Z</time></trkpt><trkpt lat="40.92578" lon="14.1629217"><ele>105.0</ele><time>2026-03-24T12:59:39.121Z</time></trkpt><trkpt lat="40.9258117" lon="14.16282"><ele>105.0</ele><time>2026-03-24T12:59:40.123Z</time></trkpt><trkpt lat="40.9258467" lon="14.1627183"><ele>105.0</ele><time>2026-03-24T12:59:41.122Z</time></trkpt><trkpt lat="40.92588" lon="14.162615"><ele>105.0</ele><time>2026-03-24T12:59:42.122Z</time></trkpt><trkpt lat="40.9259117" lon="14.1625117"><ele>105.0</ele><time>2026-03-24T12:59:43.121Z</time></trkpt><trkpt lat="40.9259417" lon="14.1624067"><ele>105.0</ele><time>2026-03-24T12:59:44.12Z</time></trkpt><trkpt lat="40.9259717" lon="14.1623"><ele>105.0</ele><time>2026-03-24T12:59:45.12Z</time></trkpt><trkpt lat="40.9260017" lon="14.1622"><ele>105.0</ele><time>2026-03-24T12:59:46.119Z</time></trkpt><trkpt lat="40.9260333" lon="14.1621"><ele>105.0</ele><time>2026-03-24T12:59:47.12Z</time></trkpt><trkpt lat="40.9260633" lon="14.162"><ele>105.0</ele><time>2026-03-24T12:59:48.122Z</time></trkpt><trkpt lat="40.9260933" lon="14.1619017"><ele>105.0</ele><time>2026-03-24T12:59:49.121Z</time></trkpt><trkpt lat="40.926125" lon="14.1618017"><ele>105.0</ele><time>2026-03-24T12:59:50.122Z</time></trkpt><trkpt lat="40.9261567" lon="14.1617033"><ele>105.0</ele><time>2026-03-24T12:59:51.119Z</time></trkpt><trkpt lat="40.92619" lon="14.1616"><ele>105.0</ele><time>2026-03-24T12:59:52.119Z</time></trkpt><trkpt lat="40.926225" lon="14.1615"><ele>104.85714285714286</ele><time>2026-03-24T12:59:53.122Z</time></trkpt><trkpt lat="40.9262633" lon="14.1614083"><ele>104.71428571428572</ele><time>2026-03-24T12:59:54.121Z</time></trkpt><trkpt lat="40.9263017" lon="14.1613217"><ele>104.57142857142857</ele><time>2026-03-24T12:59:55.122Z</time></trkpt><trkpt lat="40.92634" lon="14.1612433"><ele>104.42857142857143</ele><time>2026-03-24T12:59:56.12Z</time></trkpt><trkpt lat="40.9263717" lon="14.1611633"><ele>104.28571428571429</ele><time>2026-03-24T12:59:57.124Z</time></trkpt><trkpt lat="40.926395" lon="14.1610783"><ele>104.14285714285714</ele><time>2026-03-24T12:59:58.122Z</time></trkpt><trkpt lat="40.92641" lon="14.1609867"><ele>104.0</ele><time>2026-03-24T12:59:59.123Z</time></trkpt><trkpt lat="40.926425" lon="14.1608917"><ele>103.99999999999999</ele><time>2026-03-24T13:00:00.123Z</time></trkpt><trkpt lat="40.9264383" lon="14.1607917"><ele>104.0</ele><time>2026-03-24T13:00:01.119Z</time></trkpt><trkpt lat="40.926465" lon="14.1606983"><ele>104.0</ele><time>2026-03-24T13:00:02.12Z</time></trkpt><trkpt lat="40.926495" lon="14.1606067"><ele>104.0</ele><time>2026-03-24T13:00:03.118Z</time></trkpt><trkpt lat="40.9265233" lon="14.16051"><ele>103.99999999999999</ele><time>2026-03-24T13:00:04.119Z</time></trkpt><trkpt lat="40.9265517" lon="14.1604183"><ele>104.0</ele><time>2026-03-24T13:00:05.121Z</time></trkpt><trkpt lat="40.9265817" lon="14.1603267"><ele>103.99999999999999</ele><time>2026-03-24T13:00:06.122Z</time></trkpt><trkpt lat="40.9266117" lon="14.160235"><ele>104.0</ele><time>2026-03-24T13:00:07.12Z</time></trkpt><trkpt lat="40.92664" lon="14.1601417"><ele>104.0</ele><time>2026-03-24T13:00:08.119Z</time></trkpt><trkpt lat="40.926665" lon="14.1600517"><ele>104.0</ele><time>2026-03-24T13:00:09.119Z</time></trkpt><trkpt lat="40.9266917" lon="14.15997"><ele>103.99999999999999</ele><time>2026-03-24T13:00:10.119Z</time></trkpt><trkpt lat="40.926715" lon="14.1598917"><ele>104.0</ele><time>2026-03-24T13:00:11.12Z</time></trkpt><trkpt lat="40.9267617" lon="14.15975"><ele>103.6</ele><time>2026-03-24T13:00:13.122Z</time></trkpt><trkpt lat="40.9268017" lon="14.15961"><ele>103.2</ele><time>2026-03-24T13:00:15.122Z</time></trkpt><trkpt lat="40.926845" lon="14.1594567"><ele>102.8</ele><time>2026-03-24T13:00:17.122Z</time></trkpt><trkpt lat="40.92687" lon="14.1593717"><ele>102.39999999999999</ele><time>2026-03-24T13:00:18.122Z</time></trkpt><trkpt lat="40.9269" lon="14.1592833"><ele>102.0</ele><time>2026-03-24T13:00:19.122Z</time></trkpt><trkpt lat="40.9269267" lon="14.159185"><ele>102.0</ele><time>2026-03-24T13:00:20.121Z</time></trkpt><trkpt lat="40.9269567" lon="14.1590883"><ele>102.0</ele><time>2026-03-24T13:00:21.121Z</time></trkpt><trkpt lat="40.926985" lon="14.15899"><ele>102.0</ele><time>2026-03-24T13:00:22.122Z</time></trkpt><trkpt lat="40.927015" lon="14.15889"><ele>102.0</ele><time>2026-03-24T13:00:23.12Z</time></trkpt><trkpt lat="40.927045" lon="14.158785"><ele>102.0</ele><time>2026-03-24T13:00:24.123Z</time></trkpt><trkpt lat="40.92708" lon="14.15868"><ele>102.0</ele><time>2026-03-24T13:00:25.123Z</time></trkpt><trkpt lat="40.927115" lon="14.1585717"><ele>102.0</ele><time>2026-03-24T13:00:26.124Z</time></trkpt><trkpt lat="40.92715" lon="14.1584617"><ele>102.0</ele><time>2026-03-24T13:00:27.122Z</time></trkpt><trkpt lat="40.927185" lon="14.1583567"><ele>102.0</ele><time>2026-03-24T13:00:28.12Z</time></trkpt><trkpt lat="40.9272183" lon="14.15825"><ele>102.0</ele><time>2026-03-24T13:00:29.12Z</time></trkpt><trkpt lat="40.927255" lon="14.1581467"><ele>102.0</ele><time>2026-03-24T13:00:30.121Z</time></trkpt><trkpt lat="40.9272883" lon="14.158045"><ele>102.0</ele><time>2026-03-24T13:00:31.122Z</time></trkpt><trkpt lat="40.92732" lon="14.1579367"><ele>102.0</ele><time>2026-03-24T13:00:32.122Z</time></trkpt><trkpt lat="40.9273483" lon="14.1578317"><ele>102.0</ele><time>2026-03-24T13:00:33.12Z</time></trkpt><trkpt lat="40.9273783" lon="14.1577283"><ele>102.0</ele><time>2026-03-24T13:00:34.123Z</time></trkpt><trkpt lat="40.9274133" lon="14.1576233"><ele>102.0</ele><time>2026-03-24T13:00:35.122Z</time></trkpt><trkpt lat="40.9274467" lon="14.1575217"><ele>102.0</ele><time>2026-03-24T13:00:36.122Z</time></trkpt><trkpt lat="40.9274783" lon="14.15742"><ele>102.0</ele><time>2026-03-24T13:00:37.122Z</time></trkpt><trkpt lat="40.9275117" lon="14.1573167"><ele>102.0</ele><time>2026-03-24T13:00:38.122Z</time></trkpt><trkpt lat="40.9275417" lon="14.157215"><ele>102.0</ele><time>2026-03-24T13:00:39.122Z</time></trkpt><trkpt lat="40.9275717" lon="14.1571133"><ele>102.0</ele><time>2026-03-24T13:00:40.119Z</time></trkpt><trkpt lat="40.9276017" lon="14.15701"><ele>102.0</ele><time>2026-03-24T13:00:41.122Z</time></trkpt><trkpt lat="40.927635" lon="14.1569083"><ele>102.0</ele><time>2026-03-24T13:00:42.122Z</time></trkpt><trkpt lat="40.9276667" lon="14.1568083"><ele>102.0</ele><time>2026-03-24T13:00:43.122Z</time></trkpt><trkpt lat="40.9276967" lon="14.1567083"><ele>101.5</ele><time>2026-03-24T13:00:44.122Z</time></trkpt><trkpt lat="40.9277317" lon="14.156605"><ele>101.0</ele><time>2026-03-24T13:00:45.123Z</time></trkpt><trkpt lat="40.9277633" lon="14.1565"><ele>100.5</ele><time>2026-03-24T13:00:46.122Z</time></trkpt><trkpt lat="40.9277933" lon="14.1563983"><ele>100.0</ele><time>2026-03-24T13:00:47.121Z</time></trkpt><trkpt lat="40.927825" lon="14.1562983"><ele>99.5</ele><time>2026-03-24T13:00:48.126Z</time></trkpt><trkpt lat="40.9278567" lon="14.1562"><ele>99.0</ele><time>2026-03-24T13:00:49.122Z</time></trkpt><trkpt lat="40.9278867" lon="14.1561"><ele>98.83333333333333</ele><time>2026-03-24T13:00:50.12Z</time></trkpt><trkpt lat="40.9279167" lon="14.156"><ele>98.66666666666666</ele><time>2026-03-24T13:00:51.12Z</time></trkpt><trkpt lat="40.9279483" lon="14.1559"><ele>98.5</ele><time>2026-03-24T13:00:52.121Z</time></trkpt><trkpt lat="40.9279833" lon="14.1557983"><ele>98.33333333333333</ele><time>2026-03-24T13:00:53.12Z</time></trkpt><trkpt lat="40.928015" lon="14.1557"><ele>98.16666666666666</ele><time>2026-03-24T13:00:54.123Z</time></trkpt><trkpt lat="40.928045" lon="14.1556"><ele>98.0</ele><time>2026-03-24T13:00:55.123Z</time></trkpt><trkpt lat="40.92808" lon="14.1555017"><ele>97.83333333333333</ele><time>2026-03-24T13:00:56.123Z</time></trkpt><trkpt lat="40.9281083" lon="14.155405"><ele>97.66666666666666</ele><time>2026-03-24T13:00:57.123Z</time></trkpt><trkpt lat="40.9281383" lon="14.1553067"><ele>97.5</ele><time>2026-03-24T13:00:58.122Z</time></trkpt><trkpt lat="40.928165" lon="14.1552083"><ele>97.33333333333334</ele><time>2026-03-24T13:00:59.123Z</time></trkpt><trkpt lat="40.9281933" lon="14.1551117"><ele>97.16666666666667</ele><time>2026-03-24T13:01:00.122Z</time></trkpt><trkpt lat="40.9282233" lon="14.1550167"><ele>97.0</ele><time>2026-03-24T13:01:01.12Z</time></trkpt><trkpt lat="40.928255" lon="14.1549233"><ele>97.16666666666667</ele><time>2026-03-24T13:01:02.121Z</time></trkpt><trkpt lat="40.9282817" lon="14.154825"><ele>97.33333333333334</ele><time>2026-03-24T13:01:03.12Z</time></trkpt><trkpt lat="40.9283083" lon="14.1547233"><ele>97.5</ele><time>2026-03-24T13:01:04.121Z</time></trkpt><trkpt lat="40.928335" lon="14.15462"><ele>97.66666666666666</ele><time>2026-03-24T13:01:05.122Z</time></trkpt><trkpt lat="40.92837" lon="14.1545183"><ele>97.83333333333333</ele><time>2026-03-24T13:01:06.121Z</time></trkpt><trkpt lat="40.92841" lon="14.154415"><ele>98.0</ele><time>2026-03-24T13:01:07.122Z</time></trkpt><trkpt lat="40.9284483" lon="14.15431"><ele>97.99999999999999</ele><time>2026-03-24T13:01:08.123Z</time></trkpt><trkpt lat="40.9284833" lon="14.154205"><ele>98.0</ele><time>2026-03-24T13:01:09.12Z</time></trkpt><trkpt lat="40.9285133" lon="14.1541017"><ele>98.0</ele><time>2026-03-24T13:01:10.123Z</time></trkpt><trkpt lat="40.928545" lon="14.1539967"><ele>98.0</ele><time>2026-03-24T13:01:11.123Z</time></trkpt><trkpt lat="40.9285767" lon="14.1538933"><ele>97.99999999999999</ele><time>2026-03-24T13:01:12.122Z</time></trkpt><trkpt lat="40.9286067" lon="14.1537883"><ele>98.0</ele><time>2026-03-24T13:01:13.121Z</time></trkpt><trkpt lat="40.9286383" lon="14.15368"><ele>97.66666666666666</ele><time>2026-03-24T13:01:14.123Z</time></trkpt><trkpt lat="40.9286717" lon="14.1535717"><ele>97.33333333333333</ele><time>2026-03-24T13:01:15.123Z</time></trkpt><trkpt lat="40.9287033" lon="14.1534617"><ele>97.0</ele><time>2026-03-24T13:01:16.123Z</time></trkpt><trkpt lat="40.9287367" lon="14.153355"><ele>96.66666666666666</ele><time>2026-03-24T13:01:17.12Z</time></trkpt><trkpt lat="40.9287683" lon="14.15325"><ele>96.33333333333333</ele><time>2026-03-24T13:01:18.119Z</time></trkpt><trkpt lat="40.9288" lon="14.1531483"><ele>96.0</ele><time>2026-03-24T13:01:19.119Z</time></trkpt><trkpt lat="40.9288317" lon="14.1530467"><ele>95.83333333333333</ele><time>2026-03-24T13:01:20.121Z</time></trkpt><trkpt lat="40.9288617" lon="14.1529467"><ele>95.66666666666667</ele><time>2026-03-24T13:01:21.12Z</time></trkpt><trkpt lat="40.9288917" lon="14.1528483"><ele>95.5</ele><time>2026-03-24T13:01:22.119Z</time></trkpt><trkpt lat="40.9289217" lon="14.1527483"><ele>95.33333333333334</ele><time>2026-03-24T13:01:23.121Z</time></trkpt><trkpt lat="40.928955" lon="14.152645"><ele>95.16666666666667</ele><time>2026-03-24T13:01:24.12Z</time></trkpt><trkpt lat="40.9289867" lon="14.15254"><ele>95.0</ele><time>2026-03-24T13:01:25.122Z</time></trkpt><trkpt lat="40.9290183" lon="14.1524367"><ele>95.0</ele><time>2026-03-24T13:01:26.124Z</time></trkpt><trkpt lat="40.92905" lon="14.1523333"><ele>95.0</ele><time>2026-03-24T13:01:27.122Z</time></trkpt><trkpt lat="40.9290783" lon="14.152225"><ele>95.0</ele><time>2026-03-24T13:01:28.12Z</time></trkpt><trkpt lat="40.9291067" lon="14.1521167"><ele>95.0</ele><time>2026-03-24T13:01:29.12Z</time></trkpt><trkpt lat="40.9291333" lon="14.152005"><ele>95.0</ele><time>2026-03-24T13:01:30.123Z</time></trkpt><trkpt lat="40.9291567" lon="14.1518917"><ele>95.0</ele><time>2026-03-24T13:01:31.124Z</time></trkpt><trkpt lat="40.9291817" lon="14.151775"><ele>95.0</ele><time>2026-03-24T13:01:32.123Z</time></trkpt><trkpt lat="40.9292033" lon="14.1516583"><ele>95.0</ele><time>2026-03-24T13:01:33.121Z</time></trkpt><trkpt lat="40.9292267" lon="14.1515383"><ele>95.0</ele><time>2026-03-24T13:01:34.121Z</time></trkpt><trkpt lat="40.9292433" lon="14.1514183"><ele>95.0</ele><time>2026-03-24T13:01:35.122Z</time></trkpt><trkpt lat="40.9292583" lon="14.1513"><ele>95.0</ele><time>2026-03-24T13:01:36.121Z</time></trkpt><trkpt lat="40.9292717" lon="14.1511833"><ele>94.8</ele><time>2026-03-24T13:01:37.121Z</time></trkpt><trkpt lat="40.9292783" lon="14.1510633"><ele>94.6</ele><time>2026-03-24T13:01:38.122Z</time></trkpt><trkpt lat="40.929285" lon="14.1509433"><ele>94.4</ele><time>2026-03-24T13:01:39.12Z</time></trkpt><trkpt lat="40.9292917" lon="14.1508233"><ele>94.2</ele><time>2026-03-24T13:01:40.122Z</time></trkpt><trkpt lat="40.9292967" lon="14.1507017"><ele>94.0</ele><time>2026-03-24T13:01:41.12Z</time></trkpt><trkpt lat="40.9293033" lon="14.15058"><ele>93.83333333333333</ele><time>2026-03-24T13:01:42.12Z</time></trkpt><trkpt lat="40.9293133" lon="14.1504633"><ele>93.66666666666666</ele><time>2026-03-24T13:01:43.12Z</time></trkpt><trkpt lat="40.92932" lon="14.150345"><ele>93.5</ele><time>2026-03-24T13:01:44.12Z</time></trkpt><trkpt lat="40.9293333" lon="14.1502367"><ele>93.33333333333333</ele><time>2026-03-24T13:01:45.122Z</time></trkpt><trkpt lat="40.9293433" lon="14.1501283"><ele>93.16666666666667</ele><time>2026-03-24T13:01:46.119Z</time></trkpt><trkpt lat="40.9293483" lon="14.1500133"><ele>93.0</ele><time>2026-03-24T13:01:47.122Z</time></trkpt><trkpt lat="40.9293517" lon="14.1499"><ele>92.66666666666667</ele><time>2026-03-24T13:01:48.122Z</time></trkpt><trkpt lat="40.9293533" lon="14.14979"><ele>92.33333333333333</ele><time>2026-03-24T13:01:49.123Z</time></trkpt><trkpt lat="40.9293533" lon="14.1496783"><ele>92.0</ele><time>2026-03-24T13:01:50.12Z</time></trkpt><trkpt lat="40.9293533" lon="14.1495667"><ele>91.66666666666666</ele><time>2026-03-24T13:01:51.119Z</time></trkpt><trkpt lat="40.929365" lon="14.149455"><ele>91.33333333333333</ele><time>2026-03-24T13:01:52.122Z</time></trkpt><trkpt lat="40.9293783" lon="14.149345"><ele>91.0</ele><time>2026-03-24T13:01:53.12Z</time></trkpt><trkpt lat="40.9293933" lon="14.149235"><ele>91.0</ele><time>2026-03-24T13:01:54.122Z</time></trkpt><trkpt lat="40.9294017" lon="14.1491217"><ele>91.0</ele><time>2026-03-24T13:01:55.121Z</time></trkpt><trkpt lat="40.92941" lon="14.1490117"><ele>91.0</ele><time>2026-03-24T13:01:56.124Z</time></trkpt><trkpt lat="40.929415" lon="14.1489017"><ele>91.0</ele><time>2026-03-24T13:01:57.12Z</time></trkpt><trkpt lat="40.9294183" lon="14.14879"><ele>91.0</ele><time>2026-03-24T13:01:58.121Z</time></trkpt><trkpt lat="40.9294183" lon="14.1486767"><ele>91.0</ele><time>2026-03-24T13:01:59.121Z</time></trkpt><trkpt lat="40.9294217" lon="14.1485617"><ele>90.5</ele><time>2026-03-24T13:02:00.12Z</time></trkpt><trkpt lat="40.9294267" lon="14.1484467"><ele>90.0</ele><time>2026-03-24T13:02:01.121Z</time></trkpt><trkpt lat="40.9294367" lon="14.1483317"><ele>89.5</ele><time>2026-03-24T13:02:02.119Z</time></trkpt><trkpt lat="40.9294467" lon="14.148215"><ele>89.0</ele><time>2026-03-24T13:02:03.12Z</time></trkpt><trkpt lat="40.9294567" lon="14.1481017"><ele>88.5</ele><time>2026-03-24T13:02:04.12Z</time></trkpt><trkpt lat="40.9294633" lon="14.1479867"><ele>88.0</ele><time>2026-03-24T13:02:05.12Z</time></trkpt><trkpt lat="40.9294717" lon="14.147875"><ele>88.0</ele><time>2026-03-24T13:02:06.121Z</time></trkpt><trkpt lat="40.92948" lon="14.1477633"><ele>88.0</ele><time>2026-03-24T13:02:07.121Z</time></trkpt><trkpt lat="40.92949" lon="14.1476533"><ele>88.0</ele><time>2026-03-24T13:02:08.122Z</time></trkpt><trkpt lat="40.9294933" lon="14.1475417"><ele>88.0</ele><time>2026-03-24T13:02:09.121Z</time></trkpt><trkpt lat="40.9295033" lon="14.1474317"><ele>88.0</ele><time>2026-03-24T13:02:10.122Z</time></trkpt><trkpt lat="40.9295083" lon="14.1473267"><ele>88.0</ele><time>2026-03-24T13:02:11.121Z</time></trkpt><trkpt lat="40.9295117" lon="14.14722"><ele>88.0</ele><time>2026-03-24T13:02:12.12Z</time></trkpt><trkpt lat="40.9295167" lon="14.1471183"><ele>88.0</ele><time>2026-03-24T13:02:13.121Z</time></trkpt><trkpt lat="40.9295233" lon="14.147015"><ele>88.0</ele><time>2026-03-24T13:02:14.124Z</time></trkpt><trkpt lat="40.9295267" lon="14.146915"><ele>88.0</ele><time>2026-03-24T13:02:15.124Z</time></trkpt><trkpt lat="40.9295333" lon="14.1468167"><ele>88.0</ele><time>2026-03-24T13:02:16.12Z</time></trkpt><trkpt lat="40.9295483" lon="14.14672"><ele>88.0</ele><time>2026-03-24T13:02:17.121Z</time></trkpt><trkpt lat="40.9295683" lon="14.1466267"><ele>87.85714285714286</ele><time>2026-03-24T13:02:18.123Z</time></trkpt><trkpt lat="40.9295933" lon="14.1465333"><ele>87.71428571428571</ele><time>2026-03-24T13:02:19.125Z</time></trkpt><trkpt lat="40.9296217" lon="14.14644"><ele>87.57142857142857</ele><time>2026-03-24T13:02:20.125Z</time></trkpt><trkpt lat="40.9296417" lon="14.14635"><ele>87.42857142857143</ele><time>2026-03-24T13:02:21.123Z</time></trkpt><trkpt lat="40.92966" lon="14.1462617"><ele>87.28571428571429</ele><time>2026-03-24T13:02:22.122Z</time></trkpt><trkpt lat="40.9296767" lon="14.1461683"><ele>87.14285714285714</ele><time>2026-03-24T13:02:23.124Z</time></trkpt><trkpt lat="40.9296983" lon="14.1460767"><ele>87.0</ele><time>2026-03-24T13:02:24.123Z</time></trkpt><trkpt lat="40.92972" lon="14.1459833"><ele>87.0</ele><time>2026-03-24T13:02:25.123Z</time></trkpt><trkpt lat="40.929745" lon="14.1458917"><ele>87.0</ele><time>2026-03-24T13:02:26.121Z</time></trkpt><trkpt lat="40.929775" lon="14.145805"><ele>87.0</ele><time>2026-03-24T13:02:27.124Z</time></trkpt><trkpt lat="40.9298017" lon="14.1457183"><ele>87.0</ele><time>2026-03-24T13:02:28.123Z</time></trkpt><trkpt lat="40.9298333" lon="14.1456317"><ele>87.0</ele><time>2026-03-24T13:02:29.122Z</time></trkpt><trkpt lat="40.9298633" lon="14.1455483"><ele>87.0</ele><time>2026-03-24T13:02:30.123Z</time></trkpt><trkpt lat="40.9298917" lon="14.1454633"><ele>87.0</ele><time>2026-03-24T13:02:31.121Z</time></trkpt><trkpt lat="40.929925" lon="14.1453833"><ele>86.85714285714286</ele><time>2026-03-24T13:02:32.124Z</time></trkpt><trkpt lat="40.92996" lon="14.14531"><ele>86.71428571428572</ele><time>2026-03-24T13:02:33.122Z</time></trkpt><trkpt lat="40.9299967" lon="14.145235"><ele>86.57142857142858</ele><time>2026-03-24T13:02:34.119Z</time></trkpt><trkpt lat="40.9300267" lon="14.1451583"><ele>86.42857142857143</ele><time>2026-03-24T13:02:35.121Z</time></trkpt><trkpt lat="40.9300467" lon="14.1450733"><ele>86.28571428571429</ele><time>2026-03-24T13:02:36.121Z</time></trkpt><trkpt lat="40.930055" lon="14.1449867"><ele>86.14285714285715</ele><time>2026-03-24T13:02:37.121Z</time></trkpt><trkpt lat="40.93005" lon="14.1449033"><ele>86.0</ele><time>2026-03-24T13:02:38.122Z</time></trkpt><trkpt lat="40.9300217" lon="14.144825"><ele>85.85714285714286</ele><time>2026-03-24T13:02:39.121Z</time></trkpt><trkpt lat="40.9299833" lon="14.144755"><ele>85.71428571428572</ele><time>2026-03-24T13:02:40.121Z</time></trkpt><trkpt lat="40.929935" lon="14.1446933"><ele>85.57142857142858</ele><time>2026-03-24T13:02:41.125Z</time></trkpt><trkpt lat="40.9298883" lon="14.1446333"><ele>85.42857142857143</ele><time>2026-03-24T13:02:42.122Z</time></trkpt><trkpt lat="40.9298383" lon="14.1445733"><ele>85.28571428571428</ele><time>2026-03-24T13:02:43.122Z</time></trkpt><trkpt lat="40.929795" lon="14.144505"><ele>85.14285714285715</ele><time>2026-03-24T13:02:44.121Z</time></trkpt><trkpt lat="40.9297633" lon="14.1444283"><ele>85.0</ele><time>2026-03-24T13:02:45.121Z</time></trkpt><trkpt lat="40.9297417" lon="14.1443467"><ele>85.0</ele><time>2026-03-24T13:02:46.119Z</time></trkpt><trkpt lat="40.9297217" lon="14.14426"><ele>85.0</ele><time>2026-03-24T13:02:47.12Z</time></trkpt><trkpt lat="40.9297117" lon="14.1441667"><ele>85.0</ele><time>2026-03-24T13:02:48.121Z</time></trkpt><trkpt lat="40.9297133" lon="14.1440717"><ele>85.0</ele><time>2026-03-24T13:02:49.124Z</time></trkpt><trkpt lat="40.9297183" lon="14.1439733"><ele>85.0</ele><time>2026-03-24T13:02:50.124Z</time></trkpt><trkpt lat="40.9297217" lon="14.143875"><ele>85.0</ele><time>2026-03-24T13:02:51.122Z</time></trkpt><trkpt lat="40.929725" lon="14.14378"><ele>85.0</ele><time>2026-03-24T13:02:52.12Z</time></trkpt><trkpt lat="40.92973" lon="14.1436833"><ele>85.0</ele><time>2026-03-24T13:02:53.12Z</time></trkpt><trkpt lat="40.92974" lon="14.1435867"><ele>85.0</ele><time>2026-03-24T13:02:54.12Z</time></trkpt><trkpt lat="40.9297467" lon="14.1434917"><ele>85.0</ele><time>2026-03-24T13:02:55.121Z</time></trkpt><trkpt lat="40.9297483" lon="14.1433967"><ele>85.0</ele><time>2026-03-24T13:02:56.121Z</time></trkpt><trkpt lat="40.92975" lon="14.143305"><ele>85.0</ele><time>2026-03-24T13:02:57.12Z</time></trkpt><trkpt lat="40.9297517" lon="14.1432133"><ele>85.0</ele><time>2026-03-24T13:02:58.119Z</time></trkpt><trkpt lat="40.929755" lon="14.14312"><ele>85.0</ele><time>2026-03-24T13:02:59.123Z</time></trkpt><trkpt lat="40.9297583" lon="14.143025"><ele>85.0</ele><time>2026-03-24T13:03:00.122Z</time></trkpt><trkpt lat="40.9297633" lon="14.14293"><ele>85.0</ele><time>2026-03-24T13:03:01.121Z</time></trkpt><trkpt lat="40.9297667" lon="14.1428333"><ele>85.0</ele><time>2026-03-24T13:03:02.121Z</time></trkpt><trkpt lat="40.929775" lon="14.142735"><ele>85.0</ele><time>2026-03-24T13:03:03.12Z</time></trkpt><trkpt lat="40.9297783" lon="14.1426367"><ele>85.0</ele><time>2026-03-24T13:03:04.12Z</time></trkpt><trkpt lat="40.9297817" lon="14.1425383"><ele>85.0</ele><time>2026-03-24T13:03:05.124Z</time></trkpt><trkpt lat="40.9297867" lon="14.1424417"><ele>85.0</ele><time>2026-03-24T13:03:06.123Z</time></trkpt><trkpt lat="40.9297933" lon="14.1423433"><ele>84.83333333333333</ele><time>2026-03-24T13:03:07.122Z</time></trkpt><trkpt lat="40.9297983" lon="14.1422483"><ele>84.66666666666666</ele><time>2026-03-24T13:03:08.121Z</time></trkpt><trkpt lat="40.9298033" lon="14.1421517"><ele>84.5</ele><time>2026-03-24T13:03:09.123Z</time></trkpt><trkpt lat="40.9298067" lon="14.1420533"><ele>84.33333333333333</ele><time>2026-03-24T13:03:10.124Z</time></trkpt><trkpt lat="40.9298133" lon="14.1419517"><ele>84.16666666666667</ele><time>2026-03-24T13:03:11.122Z</time></trkpt><trkpt lat="40.92982" lon="14.14185"><ele>84.0</ele><time>2026-03-24T13:03:12.122Z</time></trkpt><trkpt lat="40.929825" lon="14.1417467"><ele>84.0</ele><time>2026-03-24T13:03:13.12Z</time></trkpt><trkpt lat="40.9298317" lon="14.1416433"><ele>84.0</ele><time>2026-03-24T13:03:14.122Z</time></trkpt><trkpt lat="40.92984" lon="14.14154"><ele>84.0</ele><time>2026-03-24T13:03:15.121Z</time></trkpt><trkpt lat="40.9298483" lon="14.1414367"><ele>84.0</ele><time>2026-03-24T13:03:16.12Z</time></trkpt><trkpt lat="40.9298533" lon="14.14133"><ele>84.0</ele><time>2026-03-24T13:03:17.122Z</time></trkpt><trkpt lat="40.92986" lon="14.141225"><ele>84.0</ele><time>2026-03-24T13:03:18.123Z</time></trkpt><trkpt lat="40.929865" lon="14.14112"><ele>84.16666666666667</ele><time>2026-03-24T13:03:19.122Z</time></trkpt><trkpt lat="40.9298717" lon="14.1410183"><ele>84.33333333333333</ele><time>2026-03-24T13:03:20.121Z</time></trkpt><trkpt lat="40.9298767" lon="14.1409167"><ele>84.5</ele><time>2026-03-24T13:03:21.122Z</time></trkpt><trkpt lat="40.9298817" lon="14.1408183"><ele>84.66666666666666</ele><time>2026-03-24T13:03:22.121Z</time></trkpt><trkpt lat="40.9298867" lon="14.1407133"><ele>84.83333333333333</ele><time>2026-03-24T13:03:23.121Z</time></trkpt><trkpt lat="40.9298883" lon="14.14061"><ele>85.0</ele><time>2026-03-24T13:03:24.12Z</time></trkpt><trkpt lat="40.929895" lon="14.1405083"><ele>85.0</ele><time>2026-03-24T13:03:25.122Z</time></trkpt><trkpt lat="40.929905" lon="14.1404067"><ele>85.0</ele><time>2026-03-24T13:03:26.119Z</time></trkpt><trkpt lat="40.9299133" lon="14.1403033"><ele>85.0</ele><time>2026-03-24T13:03:27.122Z</time></trkpt><trkpt lat="40.929925" lon="14.1402033"><ele>85.0</ele><time>2026-03-24T13:03:28.12Z</time></trkpt><trkpt lat="40.9299317" lon="14.140105"><ele>85.0</ele><time>2026-03-24T13:03:29.121Z</time></trkpt><trkpt lat="40.9299383" lon="14.1400067"><ele>85.0</ele><time>2026-03-24T13:03:30.123Z</time></trkpt><trkpt lat="40.929945" lon="14.1399033"><ele>85.0</ele><time>2026-03-24T13:03:31.123Z</time></trkpt><trkpt lat="40.9299483" lon="14.1398017"><ele>85.0</ele><time>2026-03-24T13:03:32.121Z</time></trkpt><trkpt lat="40.92995" lon="14.1397033"><ele>85.0</ele><time>2026-03-24T13:03:33.121Z</time></trkpt><trkpt lat="40.9299533" lon="14.139605"><ele>85.0</ele><time>2026-03-24T13:03:34.122Z</time></trkpt><trkpt lat="40.929955" lon="14.1395033"><ele>85.0</ele><time>2026-03-24T13:03:35.122Z</time></trkpt><trkpt lat="40.92996" lon="14.1394033"><ele>85.0</ele><time>2026-03-24T13:03:36.122Z</time></trkpt><trkpt lat="40.929965" lon="14.1393017"><ele>85.0</ele><time>2026-03-24T13:03:37.123Z</time></trkpt><trkpt lat="40.92997" lon="14.1392"><ele>85.0</ele><time>2026-03-24T13:03:38.123Z</time></trkpt><trkpt lat="40.929975" lon="14.1390983"><ele>85.0</ele><time>2026-03-24T13:03:39.123Z</time></trkpt><trkpt lat="40.9299783" lon="14.1389983"><ele>85.0</ele><time>2026-03-24T13:03:40.121Z</time></trkpt><trkpt lat="40.9299833" lon="14.138895"><ele>85.0</ele><time>2026-03-24T13:03:41.121Z</time></trkpt><trkpt lat="40.929985" lon="14.1387967"><ele>85.0</ele><time>2026-03-24T13:03:42.121Z</time></trkpt><trkpt lat="40.9299883" lon="14.138695"><ele>85.16666666666666</ele><time>2026-03-24T13:03:43.122Z</time></trkpt><trkpt lat="40.929995" lon="14.1385917"><ele>85.33333333333333</ele><time>2026-03-24T13:03:44.121Z</time></trkpt><trkpt lat="40.9299983" lon="14.13849"><ele>85.5</ele><time>2026-03-24T13:03:45.122Z</time></trkpt><trkpt lat="40.9300017" lon="14.1383883"><ele>85.66666666666667</ele><time>2026-03-24T13:03:46.123Z</time></trkpt><trkpt lat="40.9300067" lon="14.1382867"><ele>85.83333333333334</ele><time>2026-03-24T13:03:47.122Z</time></trkpt><trkpt lat="40.9300067" lon="14.138185"><ele>86.0</ele><time>2026-03-24T13:03:48.121Z</time></trkpt><trkpt lat="40.93001" lon="14.1380883"><ele>86.0</ele><time>2026-03-24T13:03:49.122Z</time></trkpt><trkpt lat="40.9300133" lon="14.1379917"><ele>86.0</ele><time>2026-03-24T13:03:50.121Z</time></trkpt><trkpt lat="40.9300183" lon="14.1378933"><ele>86.0</ele><time>2026-03-24T13:03:51.12Z</time></trkpt><trkpt lat="40.9300267" lon="14.1377917"><ele>86.0</ele><time>2026-03-24T13:03:52.12Z</time></trkpt><trkpt lat="40.9300333" lon="14.13769"><ele>86.0</ele><time>2026-03-24T13:03:53.121Z</time></trkpt><trkpt lat="40.93004" lon="14.137585"><ele>86.0</ele><time>2026-03-24T13:03:54.12Z</time></trkpt><trkpt lat="40.930045" lon="14.13748"><ele>86.0</ele><time>2026-03-24T13:03:55.12Z</time></trkpt><trkpt lat="40.93005" lon="14.1373733"><ele>86.0</ele><time>2026-03-24T13:03:56.124Z</time></trkpt><trkpt lat="40.930055" lon="14.13727"><ele>86.0</ele><time>2026-03-24T13:03:57.122Z</time></trkpt><trkpt lat="40.9300583" lon="14.137165"><ele>86.0</ele><time>2026-03-24T13:03:58.12Z</time></trkpt><trkpt lat="40.9300583" lon="14.1370583"><ele>86.0</ele><time>2026-03-24T13:03:59.122Z</time></trkpt><trkpt lat="40.9300567" lon="14.1369467"><ele>86.0</ele><time>2026-03-24T13:04:00.124Z</time></trkpt><trkpt lat="40.9300633" lon="14.13684"><ele>86.0</ele><time>2026-03-24T13:04:01.12Z</time></trkpt><trkpt lat="40.93007" lon="14.1367317"><ele>86.0</ele><time>2026-03-24T13:04:02.122Z</time></trkpt><trkpt lat="40.9300767" lon="14.1366233"><ele>86.0</ele><time>2026-03-24T13:04:03.122Z</time></trkpt><trkpt lat="40.9300817" lon="14.13651"><ele>86.0</ele><time>2026-03-24T13:04:04.123Z</time></trkpt><trkpt lat="40.9300867" lon="14.1363983"><ele>86.0</ele><time>2026-03-24T13:04:05.121Z</time></trkpt><trkpt lat="40.9300883" lon="14.1362867"><ele>86.0</ele><time>2026-03-24T13:04:06.122Z</time></trkpt><trkpt lat="40.9300917" lon="14.136175"><ele>85.33333333333334</ele><time>2026-03-24T13:04:07.12Z</time></trkpt><trkpt lat="40.9301017" lon="14.1360667"><ele>84.66666666666667</ele><time>2026-03-24T13:04:08.119Z</time></trkpt><trkpt lat="40.9301083" lon="14.135955"><ele>84.0</ele><time>2026-03-24T13:04:09.123Z</time></trkpt><trkpt lat="40.930115" lon="14.1358417"><ele>83.33333333333333</ele><time>2026-03-24T13:04:10.123Z</time></trkpt><trkpt lat="40.93012" lon="14.13573"><ele>82.66666666666666</ele><time>2026-03-24T13:04:11.121Z</time></trkpt><trkpt lat="40.9301283" lon="14.1356183"><ele>82.0</ele><time>2026-03-24T13:04:12.123Z</time></trkpt><trkpt lat="40.930135" lon="14.135505"><ele>82.0</ele><time>2026-03-24T13:04:13.12Z</time></trkpt><trkpt lat="40.9301383" lon="14.1353967"><ele>82.0</ele><time>2026-03-24T13:04:14.125Z</time></trkpt><trkpt lat="40.9301467" lon="14.1352883"><ele>82.0</ele><time>2026-03-24T13:04:15.123Z</time></trkpt><trkpt lat="40.9301533" lon="14.1351767"><ele>82.0</ele><time>2026-03-24T13:04:16.123Z</time></trkpt><trkpt lat="40.93016" lon="14.135065"><ele>82.0</ele><time>2026-03-24T13:04:17.12Z</time></trkpt><trkpt lat="40.930165" lon="14.134955"><ele>82.0</ele><time>2026-03-24T13:04:18.122Z</time></trkpt><trkpt lat="40.93017" lon="14.1348433"><ele>82.16666666666666</ele><time>2026-03-24T13:04:19.121Z</time></trkpt><trkpt lat="40.9301767" lon="14.1347317"><ele>82.33333333333333</ele><time>2026-03-24T13:04:20.122Z</time></trkpt><trkpt lat="40.9301833" lon="14.1346183"><ele>82.5</ele><time>2026-03-24T13:04:21.119Z</time></trkpt><trkpt lat="40.9301917" lon="14.1345083"><ele>82.66666666666667</ele><time>2026-03-24T13:04:22.12Z</time></trkpt><trkpt lat="40.9302" lon="14.1343983"><ele>82.83333333333334</ele><time>2026-03-24T13:04:23.121Z</time></trkpt><trkpt lat="40.9302067" lon="14.1342883"><ele>83.0</ele><time>2026-03-24T13:04:24.122Z</time></trkpt><trkpt lat="40.93021" lon="14.13418"><ele>83.0</ele><time>2026-03-24T13:04:25.121Z</time></trkpt><trkpt lat="40.9302167" lon="14.1340733"><ele>83.0</ele><time>2026-03-24T13:04:26.121Z</time></trkpt><trkpt lat="40.9302267" lon="14.133965"><ele>83.0</ele><time>2026-03-24T13:04:27.121Z</time></trkpt><trkpt lat="40.9302367" lon="14.1338567"><ele>83.0</ele><time>2026-03-24T13:04:28.119Z</time></trkpt><trkpt lat="40.930245" lon="14.1337483"><ele>83.0</ele><time>2026-03-24T13:04:29.122Z</time></trkpt><trkpt lat="40.9302517" lon="14.1336433"><ele>83.0</ele><time>2026-03-24T13:04:30.125Z</time></trkpt><trkpt lat="40.9302567" lon="14.1335367"><ele>82.66666666666667</ele><time>2026-03-24T13:04:31.122Z</time></trkpt><trkpt lat="40.930265" lon="14.13343"><ele>82.33333333333334</ele><time>2026-03-24T13:04:32.121Z</time></trkpt><trkpt lat="40.9302717" lon="14.1333233"><ele>82.0</ele><time>2026-03-24T13:04:33.123Z</time></trkpt><trkpt lat="40.9302733" lon="14.1332167"><ele>81.66666666666667</ele><time>2026-03-24T13:04:34.12Z</time></trkpt><trkpt lat="40.930275" lon="14.1331117"><ele>81.33333333333333</ele><time>2026-03-24T13:04:35.121Z</time></trkpt><trkpt lat="40.9302783" lon="14.1330017"><ele>81.0</ele><time>2026-03-24T13:04:36.123Z</time></trkpt><trkpt lat="40.93028" lon="14.1328967"><ele>81.0</ele><time>2026-03-24T13:04:37.12Z</time></trkpt><trkpt lat="40.9302833" lon="14.1327883"><ele>81.0</ele><time>2026-03-24T13:04:38.122Z</time></trkpt><trkpt lat="40.930285" lon="14.132685"><ele>81.0</ele><time>2026-03-24T13:04:39.124Z</time></trkpt><trkpt lat="40.930285" lon="14.1325783"><ele>81.0</ele><time>2026-03-24T13:04:40.123Z</time></trkpt><trkpt lat="40.9302867" lon="14.13247"><ele>81.0</ele><time>2026-03-24T13:04:41.121Z</time></trkpt><trkpt lat="40.93029" lon="14.1323633"><ele>81.0</ele><time>2026-03-24T13:04:42.121Z</time></trkpt><trkpt lat="40.930295" lon="14.1322583"><ele>81.0</ele><time>2026-03-24T13:04:43.121Z</time></trkpt><trkpt lat="40.9302967" lon="14.1321483"><ele>81.0</ele><time>2026-03-24T13:04:44.121Z</time></trkpt><trkpt lat="40.9303" lon="14.13204"><ele>81.0</ele><time>2026-03-24T13:04:45.12Z</time></trkpt><trkpt lat="40.9303033" lon="14.1319317"><ele>81.0</ele><time>2026-03-24T13:04:46.118Z</time></trkpt><trkpt lat="40.930305" lon="14.131825"><ele>81.0</ele><time>2026-03-24T13:04:47.119Z</time></trkpt><trkpt lat="40.9303067" lon="14.13172"><ele>81.0</ele><time>2026-03-24T13:04:48.118Z</time></trkpt><trkpt lat="40.930315" lon="14.1315167"><ele>80.83333333333333</ele><time>2026-03-24T13:04:50.119Z</time></trkpt><trkpt lat="40.9303317" lon="14.1314183"><ele>80.66666666666667</ele><time>2026-03-24T13:04:51.121Z</time></trkpt><trkpt lat="40.93034" lon="14.1313283"><ele>80.5</ele><time>2026-03-24T13:04:52.121Z</time></trkpt><trkpt lat="40.9303683" lon="14.1312433"><ele>80.33333333333334</ele><time>2026-03-24T13:04:53.119Z</time></trkpt><trkpt lat="40.9304017" lon="14.1311583"><ele>80.16666666666667</ele><time>2026-03-24T13:04:54.118Z</time></trkpt><trkpt lat="40.9304383" lon="14.1310533"><ele>80.0</ele><time>2026-03-24T13:04:55.12Z</time></trkpt><trkpt lat="40.930495" lon="14.130945"><ele>80.0</ele><time>2026-03-24T13:04:56.119Z</time></trkpt><trkpt lat="40.93053" lon="14.1308633"><ele>80.0</ele><time>2026-03-24T13:04:57.118Z</time></trkpt><trkpt lat="40.9305467" lon="14.13077"><ele>80.0</ele><time>2026-03-24T13:04:58.119Z</time></trkpt><trkpt lat="40.9305633" lon="14.1306733"><ele>80.0</ele><time>2026-03-24T13:04:59.119Z</time></trkpt><trkpt lat="40.9305733" lon="14.1305667"><ele>80.0</ele><time>2026-03-24T13:05:00.118Z</time></trkpt><trkpt lat="40.9305833" lon="14.1304633"><ele>80.0</ele><time>2026-03-24T13:05:01.119Z</time></trkpt><trkpt lat="40.930595" lon="14.1303617"><ele>80.0</ele><time>2026-03-24T13:05:02.118Z</time></trkpt><trkpt lat="40.9305983" lon="14.13026"><ele>80.0</ele><time>2026-03-24T13:05:03.118Z</time></trkpt><trkpt lat="40.9306067" lon="14.1301567"><ele>80.0</ele><time>2026-03-24T13:05:04.119Z</time></trkpt><trkpt lat="40.9306133" lon="14.1300533"><ele>80.0</ele><time>2026-03-24T13:05:05.119Z</time></trkpt><trkpt lat="40.93062" lon="14.12995"><ele>80.0</ele><time>2026-03-24T13:05:06.118Z</time></trkpt><trkpt lat="40.9306283" lon="14.1298467"><ele>80.0</ele><time>2026-03-24T13:05:07.118Z</time></trkpt><trkpt lat="40.9306333" lon="14.1297417"><ele>80.0</ele><time>2026-03-24T13:05:08.118Z</time></trkpt><trkpt lat="40.9306367" lon="14.1296417"><ele>80.0</ele><time>2026-03-24T13:05:09.118Z</time></trkpt><trkpt lat="40.9306417" lon="14.1295383"><ele>80.0</ele><time>2026-03-24T13:05:10.118Z</time></trkpt><trkpt lat="40.9306517" lon="14.1294317"><ele>80.0</ele><time>2026-03-24T13:05:11.118Z</time></trkpt><trkpt lat="40.9306567" lon="14.1293267"><ele>80.0</ele><time>2026-03-24T13:05:12.12Z</time></trkpt><trkpt lat="40.930665" lon="14.12922"><ele>80.0</ele><time>2026-03-24T13:05:13.118Z</time></trkpt><trkpt lat="40.930675" lon="14.1291117"><ele>79.66666666666667</ele><time>2026-03-24T13:05:14.118Z</time></trkpt><trkpt lat="40.9306817" lon="14.129005"><ele>79.33333333333334</ele><time>2026-03-24T13:05:15.119Z</time></trkpt><trkpt lat="40.930685" lon="14.128895"><ele>79.0</ele><time>2026-03-24T13:05:16.118Z</time></trkpt><trkpt lat="40.9306883" lon="14.1287867"><ele>78.66666666666667</ele><time>2026-03-24T13:05:17.118Z</time></trkpt><trkpt lat="40.930695" lon="14.1286783"><ele>78.33333333333333</ele><time>2026-03-24T13:05:18.118Z</time></trkpt><trkpt lat="40.9307033" lon="14.1285683"><ele>78.0</ele><time>2026-03-24T13:05:19.118Z</time></trkpt><trkpt lat="40.9307067" lon="14.1284583"><ele>78.0</ele><time>2026-03-24T13:05:20.119Z</time></trkpt><trkpt lat="40.9307133" lon="14.1283483"><ele>78.0</ele><time>2026-03-24T13:05:21.119Z</time></trkpt><trkpt lat="40.9307167" lon="14.1282367"><ele>78.0</ele><time>2026-03-24T13:05:22.118Z</time></trkpt><trkpt lat="40.930725" lon="14.1281233"><ele>78.0</ele><time>2026-03-24T13:05:23.118Z</time></trkpt><trkpt lat="40.9307283" lon="14.1280133"><ele>78.0</ele><time>2026-03-24T13:05:24.119Z</time></trkpt><trkpt lat="40.930735" lon="14.1279017"><ele>78.0</ele><time>2026-03-24T13:05:25.118Z</time></trkpt><trkpt lat="40.93074" lon="14.12779"><ele>78.0</ele><time>2026-03-24T13:05:26.118Z</time></trkpt><trkpt lat="40.93074" lon="14.1276783"><ele>78.0</ele><time>2026-03-24T13:05:27.119Z</time></trkpt><trkpt lat="40.93074" lon="14.127565"><ele>78.0</ele><time>2026-03-24T13:05:28.118Z</time></trkpt><trkpt lat="40.930745" lon="14.12745"><ele>78.0</ele><time>2026-03-24T13:05:29.118Z</time></trkpt><trkpt lat="40.9307433" lon="14.127335"><ele>78.0</ele><time>2026-03-24T13:05:30.118Z</time></trkpt><trkpt lat="40.9307433" lon="14.1272217"><ele>78.0</ele><time>2026-03-24T13:05:31.119Z</time></trkpt><trkpt lat="40.9307467" lon="14.12711"><ele>78.16666666666667</ele><time>2026-03-24T13:05:32.119Z</time></trkpt><trkpt lat="40.9307533" lon="14.1269983"><ele>78.33333333333333</ele><time>2026-03-24T13:05:33.12Z</time></trkpt><trkpt lat="40.9307617" lon="14.1268833"><ele>78.5</ele><time>2026-03-24T13:05:34.119Z</time></trkpt><trkpt lat="40.9307667" lon="14.1267717"><ele>78.66666666666666</ele><time>2026-03-24T13:05:35.118Z</time></trkpt><trkpt lat="40.93077" lon="14.12666"><ele>78.83333333333333</ele><time>2026-03-24T13:05:36.118Z</time></trkpt><trkpt lat="40.9307767" lon="14.12655"><ele>79.0</ele><time>2026-03-24T13:05:37.118Z</time></trkpt><trkpt lat="40.9307817" lon="14.1264333"><ele>78.5</ele><time>2026-03-24T13:05:38.119Z</time></trkpt><trkpt lat="40.9307883" lon="14.1263133"><ele>78.0</ele><time>2026-03-24T13:05:39.119Z</time></trkpt><trkpt lat="40.9307933" lon="14.126195"><ele>77.5</ele><time>2026-03-24T13:05:40.12Z</time></trkpt><trkpt lat="40.9307933" lon="14.1260783"><ele>77.0</ele><time>2026-03-24T13:05:41.119Z</time></trkpt><trkpt lat="40.9307983" lon="14.1259583"><ele>76.5</ele><time>2026-03-24T13:05:42.118Z</time></trkpt><trkpt lat="40.9308067" lon="14.125845"><ele>76.0</ele><time>2026-03-24T13:05:43.118Z</time></trkpt><trkpt lat="40.9308167" lon="14.1257283"><ele>75.5</ele><time>2026-03-24T13:05:44.118Z</time></trkpt><trkpt lat="40.9308233" lon="14.125615"><ele>75.0</ele><time>2026-03-24T13:05:45.118Z</time></trkpt><trkpt lat="40.9308267" lon="14.1255"><ele>74.5</ele><time>2026-03-24T13:05:46.119Z</time></trkpt><trkpt lat="40.9308267" lon="14.1253817"><ele>74.0</ele><time>2026-03-24T13:05:47.118Z</time></trkpt><trkpt lat="40.9308283" lon="14.1252633"><ele>73.5</ele><time>2026-03-24T13:05:48.119Z</time></trkpt><trkpt lat="40.9308233" lon="14.1251433"><ele>73.0</ele><time>2026-03-24T13:05:49.118Z</time></trkpt><trkpt lat="40.9308167" lon="14.12502"><ele>73.0</ele><time>2026-03-24T13:05:50.118Z</time></trkpt><trkpt lat="40.9308067" lon="14.1248983"><ele>73.0</ele><time>2026-03-24T13:05:51.118Z</time></trkpt><trkpt lat="40.9307967" lon="14.124775"><ele>73.0</ele><time>2026-03-24T13:05:52.119Z</time></trkpt><trkpt lat="40.9307867" lon="14.1246483"><ele>73.0</ele><time>2026-03-24T13:05:53.118Z</time></trkpt><trkpt lat="40.9307783" lon="14.1245217"><ele>73.0</ele><time>2026-03-24T13:05:54.118Z</time></trkpt><trkpt lat="40.9307683" lon="14.1243983"><ele>73.2</ele><time>2026-03-24T13:05:55.118Z</time></trkpt><trkpt lat="40.9307633" lon="14.1242767"><ele>73.4</ele><time>2026-03-24T13:05:56.118Z</time></trkpt><trkpt lat="40.93076" lon="14.1241567"><ele>73.60000000000001</ele><time>2026-03-24T13:05:57.118Z</time></trkpt><trkpt lat="40.930755" lon="14.124035"><ele>73.8</ele><time>2026-03-24T13:05:58.118Z</time></trkpt><trkpt lat="40.9307533" lon="14.1239167"><ele>74.0</ele><time>2026-03-24T13:05:59.118Z</time></trkpt><trkpt lat="40.9307533" lon="14.1238017"><ele>74.0</ele><time>2026-03-24T13:06:00.118Z</time></trkpt><trkpt lat="40.930755" lon="14.123685"><ele>74.0</ele><time>2026-03-24T13:06:01.119Z</time></trkpt><trkpt lat="40.9307533" lon="14.123565"><ele>74.0</ele><time>2026-03-24T13:06:02.12Z</time></trkpt><trkpt lat="40.9307567" lon="14.123445"><ele>74.0</ele><time>2026-03-24T13:06:03.118Z</time></trkpt><trkpt lat="40.9307633" lon="14.1233317"><ele>74.0</ele><time>2026-03-24T13:06:04.12Z</time></trkpt><trkpt lat="40.93077" lon="14.1232217"><ele>74.0</ele><time>2026-03-24T13:06:05.118Z</time></trkpt><trkpt lat="40.93077" lon="14.1231117"><ele>74.0</ele><time>2026-03-24T13:06:06.119Z</time></trkpt><trkpt lat="40.93077" lon="14.123"><ele>74.0</ele><time>2026-03-24T13:06:07.118Z</time></trkpt><trkpt lat="40.93077" lon="14.1228833"><ele>74.0</ele><time>2026-03-24T13:06:08.119Z</time></trkpt><trkpt lat="40.9307717" lon="14.12277"><ele>74.0</ele><time>2026-03-24T13:06:09.118Z</time></trkpt><trkpt lat="40.9307717" lon="14.12266"><ele>74.0</ele><time>2026-03-24T13:06:10.118Z</time></trkpt><trkpt lat="40.9307733" lon="14.1225417"><ele>74.0</ele><time>2026-03-24T13:06:11.12Z</time></trkpt><trkpt lat="40.9307767" lon="14.1224233"><ele>73.5</ele><time>2026-03-24T13:06:12.118Z</time></trkpt><trkpt lat="40.93078" lon="14.1223133"><ele>73.0</ele><time>2026-03-24T13:06:13.118Z</time></trkpt><trkpt lat="40.9307867" lon="14.12221"><ele>72.5</ele><time>2026-03-24T13:06:14.118Z</time></trkpt><trkpt lat="40.93079" lon="14.122095"><ele>72.0</ele><time>2026-03-24T13:06:15.118Z</time></trkpt><trkpt lat="40.930795" lon="14.1219817"><ele>71.5</ele><time>2026-03-24T13:06:16.118Z</time></trkpt><trkpt lat="40.9307983" lon="14.1218633"><ele>71.0</ele><time>2026-03-24T13:06:17.119Z</time></trkpt><trkpt lat="40.9307967" lon="14.1217517"><ele>71.0</ele><time>2026-03-24T13:06:18.118Z</time></trkpt><trkpt lat="40.9307967" lon="14.1216333"><ele>71.0</ele><time>2026-03-24T13:06:19.118Z</time></trkpt><trkpt lat="40.9307933" lon="14.12152"><ele>71.0</ele><time>2026-03-24T13:06:20.119Z</time></trkpt><trkpt lat="40.9307967" lon="14.1213983"><ele>71.0</ele><time>2026-03-24T13:06:21.118Z</time></trkpt><trkpt lat="40.9307983" lon="14.1212817"><ele>71.0</ele><time>2026-03-24T13:06:22.118Z</time></trkpt><trkpt lat="40.9307983" lon="14.1211633"><ele>71.0</ele><time>2026-03-24T13:06:23.119Z</time></trkpt><trkpt lat="40.9307983" lon="14.1210517"><ele>70.39999999999999</ele><time>2026-03-24T13:06:24.118Z</time></trkpt><trkpt lat="40.9307983" lon="14.1209383"><ele>69.8</ele><time>2026-03-24T13:06:25.119Z</time></trkpt><trkpt lat="40.9307983" lon="14.1208183"><ele>69.19999999999999</ele><time>2026-03-24T13:06:26.119Z</time></trkpt><trkpt lat="40.9308017" lon="14.1206967"><ele>68.6</ele><time>2026-03-24T13:06:27.119Z</time></trkpt><trkpt lat="40.9308033" lon="14.120575"><ele>68.0</ele><time>2026-03-24T13:06:28.118Z</time></trkpt><trkpt lat="40.9308083" lon="14.1204533"><ele>67.83333333333334</ele><time>2026-03-24T13:06:29.121Z</time></trkpt><trkpt lat="40.93081" lon="14.1203367"><ele>67.66666666666667</ele><time>2026-03-24T13:06:30.12Z</time></trkpt><trkpt lat="40.9308117" lon="14.1202183"><ele>67.5</ele><time>2026-03-24T13:06:31.118Z</time></trkpt><trkpt lat="40.9308133" lon="14.1201033"><ele>67.33333333333333</ele><time>2026-03-24T13:06:32.118Z</time></trkpt><trkpt lat="40.9308183" lon="14.1199833"><ele>67.16666666666666</ele><time>2026-03-24T13:06:33.119Z</time></trkpt><trkpt lat="40.9308217" lon="14.1198633"><ele>67.0</ele><time>2026-03-24T13:06:34.118Z</time></trkpt><trkpt lat="40.9308283" lon="14.1197433"><ele>67.0</ele><time>2026-03-24T13:06:35.119Z</time></trkpt><trkpt lat="40.9308317" lon="14.1196217"><ele>67.0</ele><time>2026-03-24T13:06:36.119Z</time></trkpt><trkpt lat="40.9308367" lon="14.1194983"><ele>67.0</ele><time>2026-03-24T13:06:37.121Z</time></trkpt><trkpt lat="40.93084" lon="14.119375"><ele>67.0</ele><time>2026-03-24T13:06:38.119Z</time></trkpt><trkpt lat="40.9308467" lon="14.11925"><ele>67.0</ele><time>2026-03-24T13:06:39.118Z</time></trkpt><trkpt lat="40.930855" lon="14.1191267"><ele>67.0</ele><time>2026-03-24T13:06:40.118Z</time></trkpt><trkpt lat="40.9308667" lon="14.1190017"><ele>67.0</ele><time>2026-03-24T13:06:41.119Z</time></trkpt><trkpt lat="40.9308817" lon="14.1188817"><ele>67.0</ele><time>2026-03-24T13:06:42.118Z</time></trkpt><trkpt lat="40.9309" lon="14.1187633"><ele>67.0</ele><time>2026-03-24T13:06:43.118Z</time></trkpt><trkpt lat="40.930915" lon="14.1186417"><ele>67.0</ele><time>2026-03-24T13:06:44.119Z</time></trkpt><trkpt lat="40.9309283" lon="14.118515"><ele>67.0</ele><time>2026-03-24T13:06:45.118Z</time></trkpt><trkpt lat="40.93094" lon="14.1183933"><ele>67.0</ele><time>2026-03-24T13:06:46.118Z</time></trkpt><trkpt lat="40.9309533" lon="14.1182683"><ele>67.0</ele><time>2026-03-24T13:06:47.118Z</time></trkpt><trkpt lat="40.9309667" lon="14.118145"><ele>67.0</ele><time>2026-03-24T13:06:48.119Z</time></trkpt><trkpt lat="40.930975" lon="14.11802"><ele>67.0</ele><time>2026-03-24T13:06:49.119Z</time></trkpt><trkpt lat="40.9309783" lon="14.117895"><ele>66.8</ele><time>2026-03-24T13:06:50.119Z</time></trkpt><trkpt lat="40.93098" lon="14.1177717"><ele>66.6</ele><time>2026-03-24T13:06:51.119Z</time></trkpt><trkpt lat="40.930985" lon="14.1176517"><ele>66.39999999999999</ele><time>2026-03-24T13:06:52.118Z</time></trkpt><trkpt lat="40.9309917" lon="14.1175333"><ele>66.2</ele><time>2026-03-24T13:06:53.118Z</time></trkpt><trkpt lat="40.9309967" lon="14.11741"><ele>66.0</ele><time>2026-03-24T13:06:54.118Z</time></trkpt><trkpt lat="40.9309983" lon="14.1172917"><ele>66.0</ele><time>2026-03-24T13:06:55.119Z</time></trkpt><trkpt lat="40.9309983" lon="14.117175"><ele>66.0</ele><time>2026-03-24T13:06:56.118Z</time></trkpt><trkpt lat="40.931" lon="14.1170567"><ele>66.0</ele><time>2026-03-24T13:06:57.119Z</time></trkpt><trkpt lat="40.931005" lon="14.1169367"><ele>66.0</ele><time>2026-03-24T13:06:58.119Z</time></trkpt><trkpt lat="40.9310117" lon="14.1168167"><ele>66.0</ele><time>2026-03-24T13:06:59.118Z</time></trkpt><trkpt lat="40.9310217" lon="14.1167"><ele>66.0</ele><time>2026-03-24T13:07:00.118Z</time></trkpt><trkpt lat="40.9310333" lon="14.116585"><ele>66.0</ele><time>2026-03-24T13:07:01.118Z</time></trkpt><trkpt lat="40.93104" lon="14.1164733"><ele>66.0</ele><time>2026-03-24T13:07:02.119Z</time></trkpt><trkpt lat="40.93105" lon="14.11636"><ele>66.0</ele><time>2026-03-24T13:07:03.118Z</time></trkpt><trkpt lat="40.9310567" lon="14.1162467"><ele>66.0</ele><time>2026-03-24T13:07:04.118Z</time></trkpt><trkpt lat="40.9310617" lon="14.1161367"><ele>66.0</ele><time>2026-03-24T13:07:05.118Z</time></trkpt><trkpt lat="40.9310733" lon="14.1160267"><ele>66.0</ele><time>2026-03-24T13:07:06.118Z</time></trkpt><trkpt lat="40.931085" lon="14.1159183"><ele>66.0</ele><time>2026-03-24T13:07:07.119Z</time></trkpt><trkpt lat="40.931095" lon="14.1158067"><ele>66.0</ele><time>2026-03-24T13:07:08.119Z</time></trkpt><trkpt lat="40.931105" lon="14.11569"><ele>66.0</ele><time>2026-03-24T13:07:09.118Z</time></trkpt><trkpt lat="40.9311133" lon="14.1155767"><ele>66.0</ele><time>2026-03-24T13:07:10.118Z</time></trkpt><trkpt lat="40.9311233" lon="14.1154667"><ele>66.0</ele><time>2026-03-24T13:07:11.118Z</time></trkpt><trkpt lat="40.931135" lon="14.1153517"><ele>66.0</ele><time>2026-03-24T13:07:12.118Z</time></trkpt><trkpt lat="40.9311417" lon="14.1152367"><ele>65.83333333333333</ele><time>2026-03-24T13:07:13.118Z</time></trkpt><trkpt lat="40.93115" lon="14.1151267"><ele>65.66666666666667</ele><time>2026-03-24T13:07:14.119Z</time></trkpt><trkpt lat="40.9311567" lon="14.1150183"><ele>65.5</ele><time>2026-03-24T13:07:15.119Z</time></trkpt><trkpt lat="40.9311633" lon="14.11491"><ele>65.33333333333334</ele><time>2026-03-24T13:07:16.119Z</time></trkpt><trkpt lat="40.9311717" lon="14.1148033"><ele>65.16666666666667</ele><time>2026-03-24T13:07:17.119Z</time></trkpt><trkpt lat="40.93118" lon="14.1146967"><ele>65.0</ele><time>2026-03-24T13:07:18.119Z</time></trkpt><trkpt lat="40.931185" lon="14.1145883"><ele>64.83333333333334</ele><time>2026-03-24T13:07:19.118Z</time></trkpt><trkpt lat="40.9311917" lon="14.1144817"><ele>64.66666666666667</ele><time>2026-03-24T13:07:20.118Z</time></trkpt><trkpt lat="40.9311967" lon="14.1143733"><ele>64.5</ele><time>2026-03-24T13:07:21.119Z</time></trkpt><trkpt lat="40.9312067" lon="14.1142683"><ele>64.33333333333333</ele><time>2026-03-24T13:07:22.12Z</time></trkpt><trkpt lat="40.93122" lon="14.1141617"><ele>64.16666666666666</ele><time>2026-03-24T13:07:23.119Z</time></trkpt><trkpt lat="40.9312317" lon="14.1140583"><ele>64.0</ele><time>2026-03-24T13:07:24.119Z</time></trkpt><trkpt lat="40.93124" lon="14.113955"><ele>63.99999999999999</ele><time>2026-03-24T13:07:25.118Z</time></trkpt><trkpt lat="40.93125" lon="14.1138467"><ele>64.0</ele><time>2026-03-24T13:07:26.119Z</time></trkpt><trkpt lat="40.9312617" lon="14.1137417"><ele>64.0</ele><time>2026-03-24T13:07:27.118Z</time></trkpt><trkpt lat="40.93127" lon="14.11364"><ele>64.0</ele><time>2026-03-24T13:07:28.119Z</time></trkpt><trkpt lat="40.93128" lon="14.1135383"><ele>63.99999999999999</ele><time>2026-03-24T13:07:29.118Z</time></trkpt><trkpt lat="40.9312883" lon="14.1134367"><ele>64.0</ele><time>2026-03-24T13:07:30.118Z</time></trkpt><trkpt lat="40.931295" lon="14.113335"><ele>63.857142857142854</ele><time>2026-03-24T13:07:31.118Z</time></trkpt><trkpt lat="40.9313" lon="14.1132367"><ele>63.71428571428571</ele><time>2026-03-24T13:07:32.12Z</time></trkpt><trkpt lat="40.9313033" lon="14.11314"><ele>63.57142857142857</ele><time>2026-03-24T13:07:33.118Z</time></trkpt><trkpt lat="40.9313083" lon="14.1130467"><ele>63.42857142857143</ele><time>2026-03-24T13:07:34.118Z</time></trkpt><trkpt lat="40.9313167" lon="14.1129583"><ele>63.285714285714285</ele><time>2026-03-24T13:07:35.118Z</time></trkpt><trkpt lat="40.9313283" lon="14.1128667"><ele>63.14285714285714</ele><time>2026-03-24T13:07:36.118Z</time></trkpt><trkpt lat="40.9313367" lon="14.1127767"><ele>63.0</ele><time>2026-03-24T13:07:37.119Z</time></trkpt><trkpt lat="40.9313467" lon="14.1126917"><ele>63.0</ele><time>2026-03-24T13:07:38.118Z</time></trkpt><trkpt lat="40.9313567" lon="14.1126017"><ele>63.0</ele><time>2026-03-24T13:07:39.118Z</time></trkpt><trkpt lat="40.931365" lon="14.11251"><ele>63.0</ele><time>2026-03-24T13:07:40.118Z</time></trkpt><trkpt lat="40.9313733" lon="14.1124167"><ele>63.0</ele><time>2026-03-24T13:07:41.119Z</time></trkpt><trkpt lat="40.9313817" lon="14.112325"><ele>63.0</ele><time>2026-03-24T13:07:42.118Z</time></trkpt><trkpt lat="40.93139" lon="14.11223"><ele>63.0</ele><time>2026-03-24T13:07:43.119Z</time></trkpt><trkpt lat="40.9313983" lon="14.112135"><ele>63.0</ele><time>2026-03-24T13:07:44.118Z</time></trkpt><trkpt lat="40.931405" lon="14.1120367"><ele>63.0</ele><time>2026-03-24T13:07:45.119Z</time></trkpt><trkpt lat="40.9314133" lon="14.1119367"><ele>63.0</ele><time>2026-03-24T13:07:46.118Z</time></trkpt><trkpt lat="40.9314167" lon="14.1118333"><ele>63.0</ele><time>2026-03-24T13:07:47.119Z</time></trkpt><trkpt lat="40.9314183" lon="14.11173"><ele>63.0</ele><time>2026-03-24T13:07:48.118Z</time></trkpt><trkpt lat="40.93142" lon="14.1116267"><ele>63.0</ele><time>2026-03-24T13:07:49.118Z</time></trkpt><trkpt lat="40.931425" lon="14.111525"><ele>63.0</ele><time>2026-03-24T13:07:50.12Z</time></trkpt><trkpt lat="40.9314317" lon="14.11142"><ele>63.0</ele><time>2026-03-24T13:07:51.119Z</time></trkpt><trkpt lat="40.9314333" lon="14.1113167"><ele>63.0</ele><time>2026-03-24T13:07:52.119Z</time></trkpt><trkpt lat="40.9314367" lon="14.11121"><ele>63.0</ele><time>2026-03-24T13:07:53.118Z</time></trkpt><trkpt lat="40.93144" lon="14.1110983"><ele>63.0</ele><time>2026-03-24T13:07:54.12Z</time></trkpt><trkpt lat="40.931445" lon="14.1109883"><ele>63.0</ele><time>2026-03-24T13:07:55.118Z</time></trkpt><trkpt lat="40.9314517" lon="14.1108783"><ele>63.0</ele><time>2026-03-24T13:07:56.119Z</time></trkpt><trkpt lat="40.9314567" lon="14.1107683"><ele>62.833333333333336</ele><time>2026-03-24T13:07:57.118Z</time></trkpt><trkpt lat="40.9314567" lon="14.1106617"><ele>62.66666666666667</ele><time>2026-03-24T13:07:58.119Z</time></trkpt><trkpt lat="40.9314583" lon="14.11055"><ele>62.5</ele><time>2026-03-24T13:07:59.118Z</time></trkpt><trkpt lat="40.9314583" lon="14.1104433"><ele>62.333333333333336</ele><time>2026-03-24T13:08:00.118Z</time></trkpt><trkpt lat="40.9314617" lon="14.1103333"><ele>62.16666666666667</ele><time>2026-03-24T13:08:01.118Z</time></trkpt><trkpt lat="40.9314633" lon="14.1102283"><ele>62.0</ele><time>2026-03-24T13:08:02.119Z</time></trkpt><trkpt lat="40.9314633" lon="14.11012"><ele>62.00000000000001</ele><time>2026-03-24T13:08:03.118Z</time></trkpt><trkpt lat="40.9314633" lon="14.1100083"><ele>62.0</ele><time>2026-03-24T13:08:04.119Z</time></trkpt><trkpt lat="40.93147" lon="14.1098967"><ele>62.0</ele><time>2026-03-24T13:08:05.119Z</time></trkpt><trkpt lat="40.931475" lon="14.10978"><ele>62.0</ele><time>2026-03-24T13:08:06.119Z</time></trkpt><trkpt lat="40.9314783" lon="14.1096683"><ele>62.00000000000001</ele><time>2026-03-24T13:08:07.118Z</time></trkpt><trkpt lat="40.9314833" lon="14.1095533"><ele>62.0</ele><time>2026-03-24T13:08:08.119Z</time></trkpt><trkpt lat="40.93149" lon="14.1094417"><ele>61.833333333333336</ele><time>2026-03-24T13:08:09.119Z</time></trkpt><trkpt lat="40.9314967" lon="14.10933"><ele>61.66666666666667</ele><time>2026-03-24T13:08:10.119Z</time></trkpt><trkpt lat="40.9315" lon="14.1092233"><ele>61.5</ele><time>2026-03-24T13:08:11.118Z</time></trkpt><trkpt lat="40.931505" lon="14.1091167"><ele>61.33333333333333</ele><time>2026-03-24T13:08:12.118Z</time></trkpt><trkpt lat="40.9315083" lon="14.1090117"><ele>61.166666666666664</ele><time>2026-03-24T13:08:13.12Z</time></trkpt><trkpt lat="40.9315133" lon="14.1089083"><ele>61.0</ele><time>2026-03-24T13:08:14.118Z</time></trkpt><trkpt lat="40.9315117" lon="14.1088017"><ele>60.83333333333333</ele><time>2026-03-24T13:08:15.118Z</time></trkpt><trkpt lat="40.9315133" lon="14.10869"><ele>60.666666666666664</ele><time>2026-03-24T13:08:16.119Z</time></trkpt><trkpt lat="40.931515" lon="14.1085867"><ele>60.5</ele><time>2026-03-24T13:08:17.118Z</time></trkpt><trkpt lat="40.9315167" lon="14.1084833"><ele>60.33333333333333</ele><time>2026-03-24T13:08:18.118Z</time></trkpt><trkpt lat="40.9315217" lon="14.10838"><ele>60.166666666666664</ele><time>2026-03-24T13:08:19.12Z</time></trkpt><trkpt lat="40.931525" lon="14.1082783"><ele>60.0</ele><time>2026-03-24T13:08:20.119Z</time></trkpt><trkpt lat="40.93153" lon="14.1081767"><ele>60.0</ele><time>2026-03-24T13:08:21.119Z</time></trkpt><trkpt lat="40.9315283" lon="14.1080767"><ele>60.0</ele><time>2026-03-24T13:08:22.118Z</time></trkpt><trkpt lat="40.9315183" lon="14.107975"><ele>60.0</ele><time>2026-03-24T13:08:23.118Z</time></trkpt><trkpt lat="40.931515" lon="14.107875"><ele>60.0</ele><time>2026-03-24T13:08:24.119Z</time></trkpt><trkpt lat="40.9315167" lon="14.1077733"><ele>60.0</ele><time>2026-03-24T13:08:25.12Z</time></trkpt><trkpt lat="40.9315183" lon="14.1076717"><ele>60.0</ele><time>2026-03-24T13:08:26.12Z</time></trkpt><trkpt lat="40.931525" lon="14.10757"><ele>60.0</ele><time>2026-03-24T13:08:27.118Z</time></trkpt><trkpt lat="40.931535" lon="14.1074717"><ele>60.0</ele><time>2026-03-24T13:08:28.118Z</time></trkpt><trkpt lat="40.93154" lon="14.10737"><ele>60.0</ele><time>2026-03-24T13:08:29.118Z</time></trkpt><trkpt lat="40.9315517" lon="14.1072683"><ele>60.0</ele><time>2026-03-24T13:08:30.119Z</time></trkpt><trkpt lat="40.9315583" lon="14.1071733"><ele>60.0</ele><time>2026-03-24T13:08:31.118Z</time></trkpt><trkpt lat="40.931565" lon="14.10708"><ele>60.0</ele><time>2026-03-24T13:08:32.118Z</time></trkpt><trkpt lat="40.93157" lon="14.1069867"><ele>60.0</ele><time>2026-03-24T13:08:33.117Z</time></trkpt><trkpt lat="40.9315717" lon="14.1068917"><ele>60.0</ele><time>2026-03-24T13:08:34.117Z</time></trkpt><trkpt lat="40.9315767" lon="14.106795"><ele>60.0</ele><time>2026-03-24T13:08:35.117Z</time></trkpt><trkpt lat="40.93158" lon="14.1067033"><ele>60.0</ele><time>2026-03-24T13:08:36.118Z</time></trkpt><trkpt lat="40.93158" lon="14.106615"><ele>60.0</ele><time>2026-03-24T13:08:37.118Z</time></trkpt><trkpt lat="40.9315883" lon="14.1065283"><ele>60.0</ele><time>2026-03-24T13:08:38.118Z</time></trkpt><trkpt lat="40.9315967" lon="14.106365"><ele>60.0</ele><time>2026-03-24T13:08:40.119Z</time></trkpt><trkpt lat="40.9316033" lon="14.1062083"><ele>60.0</ele><time>2026-03-24T13:08:42.117Z</time></trkpt><trkpt lat="40.9316217" lon="14.1060567"><ele>60.0</ele><time>2026-03-24T13:08:44.117Z</time></trkpt><trkpt lat="40.9316367" lon="14.1058933"><ele>60.0</ele><time>2026-03-24T13:08:46.118Z</time></trkpt><trkpt lat="40.931645" lon="14.10581"><ele>60.0</ele><time>2026-03-24T13:08:47.117Z</time></trkpt><trkpt lat="40.93165" lon="14.1057217"><ele>60.0</ele><time>2026-03-24T13:08:48.118Z</time></trkpt><trkpt lat="40.9316567" lon="14.105635"><ele>60.0</ele><time>2026-03-24T13:08:49.117Z</time></trkpt><trkpt lat="40.93166" lon="14.1055417"><ele>59.714285714285715</ele><time>2026-03-24T13:08:50.117Z</time></trkpt><trkpt lat="40.9316683" lon="14.10545"><ele>59.42857142857143</ele><time>2026-03-24T13:08:51.118Z</time></trkpt><trkpt lat="40.9316717" lon="14.1053567"><ele>59.142857142857146</ele><time>2026-03-24T13:08:52.117Z</time></trkpt><trkpt lat="40.9316767" lon="14.10526"><ele>58.85714285714286</ele><time>2026-03-24T13:08:53.118Z</time></trkpt><trkpt lat="40.93168" lon="14.10516"><ele>58.57142857142857</ele><time>2026-03-24T13:08:54.118Z</time></trkpt><trkpt lat="40.931685" lon="14.1050583"><ele>58.28571428571429</ele><time>2026-03-24T13:08:55.117Z</time></trkpt><trkpt lat="40.931685" lon="14.1049617"><ele>58.00000000000001</ele><time>2026-03-24T13:08:56.117Z</time></trkpt><trkpt lat="40.931685" lon="14.10486"><ele>57.83333333333333</ele><time>2026-03-24T13:08:57.119Z</time></trkpt><trkpt lat="40.931685" lon="14.1047567"><ele>57.666666666666664</ele><time>2026-03-24T13:08:58.117Z</time></trkpt><trkpt lat="40.9316883" lon="14.10465"><ele>57.5</ele><time>2026-03-24T13:08:59.117Z</time></trkpt><trkpt lat="40.9316933" lon="14.1045383"><ele>57.33333333333333</ele><time>2026-03-24T13:09:00.119Z</time></trkpt><trkpt lat="40.931695" lon="14.104425"><ele>57.166666666666664</ele><time>2026-03-24T13:09:01.118Z</time></trkpt><trkpt lat="40.9317" lon="14.1043033"><ele>57.0</ele><time>2026-03-24T13:09:02.118Z</time></trkpt><trkpt lat="40.9317083" lon="14.1041767"><ele>56.400000000000006</ele><time>2026-03-24T13:09:03.118Z</time></trkpt><trkpt lat="40.931715" lon="14.1040483"><ele>55.800000000000004</ele><time>2026-03-24T13:09:04.117Z</time></trkpt><trkpt lat="40.9317217" lon="14.1039183"><ele>55.2</ele><time>2026-03-24T13:09:05.119Z</time></trkpt><trkpt lat="40.9317267" lon="14.1037883"><ele>54.6</ele><time>2026-03-24T13:09:06.117Z</time></trkpt><trkpt lat="40.9317333" lon="14.1036533"><ele>54.0</ele><time>2026-03-24T13:09:07.117Z</time></trkpt><trkpt lat="40.93174" lon="14.10352"><ele>53.800000000000004</ele><time>2026-03-24T13:09:08.118Z</time></trkpt><trkpt lat="40.9317483" lon="14.10338"><ele>53.60000000000001</ele><time>2026-03-24T13:09:09.117Z</time></trkpt><trkpt lat="40.9317583" lon="14.1032417"><ele>53.4</ele><time>2026-03-24T13:09:10.119Z</time></trkpt><trkpt lat="40.9317683" lon="14.10311"><ele>53.2</ele><time>2026-03-24T13:09:11.117Z</time></trkpt><trkpt lat="40.9317817" lon="14.1029833"><ele>53.0</ele><time>2026-03-24T13:09:12.117Z</time></trkpt><trkpt lat="40.9317983" lon="14.1028633"><ele>53.00000000000001</ele><time>2026-03-24T13:09:13.119Z</time></trkpt><trkpt lat="40.9318133" lon="14.1027483"><ele>53.0</ele><time>2026-03-24T13:09:14.117Z</time></trkpt><trkpt lat="40.9318217" lon="14.1026333"><ele>53.0</ele><time>2026-03-24T13:09:15.118Z</time></trkpt><trkpt lat="40.9318283" lon="14.1025167"><ele>53.0</ele><time>2026-03-24T13:09:16.118Z</time></trkpt><trkpt lat="40.9318333" lon="14.1024033"><ele>53.00000000000001</ele><time>2026-03-24T13:09:17.118Z</time></trkpt><trkpt lat="40.93184" lon="14.1022917"><ele>53.0</ele><time>2026-03-24T13:09:18.119Z</time></trkpt><trkpt lat="40.93185" lon="14.1021767"><ele>52.4</ele><time>2026-03-24T13:09:19.118Z</time></trkpt><trkpt lat="40.9318533" lon="14.1020583"><ele>51.8</ele><time>2026-03-24T13:09:20.119Z</time></trkpt><trkpt lat="40.9318567" lon="14.10194"><ele>51.2</ele><time>2026-03-24T13:09:21.117Z</time></trkpt><trkpt lat="40.9318583" lon="14.101815"><ele>50.6</ele><time>2026-03-24T13:09:22.117Z</time></trkpt><trkpt lat="40.931865" lon="14.1016883"><ele>50.0</ele><time>2026-03-24T13:09:23.117Z</time></trkpt><trkpt lat="40.931875" lon="14.10156"><ele>49.8</ele><time>2026-03-24T13:09:24.118Z</time></trkpt><trkpt lat="40.9318867" lon="14.10143"><ele>49.6</ele><time>2026-03-24T13:09:25.117Z</time></trkpt><trkpt lat="40.9319033" lon="14.1013017"><ele>49.400000000000006</ele><time>2026-03-24T13:09:26.118Z</time></trkpt><trkpt lat="40.9319183" lon="14.101175"><ele>49.2</ele><time>2026-03-24T13:09:27.117Z</time></trkpt><trkpt lat="40.9319333" lon="14.10105"><ele>49.0</ele><time>2026-03-24T13:09:28.118Z</time></trkpt><trkpt lat="40.93195" lon="14.1009233"><ele>49.0</ele><time>2026-03-24T13:09:29.117Z</time></trkpt><trkpt lat="40.9319617" lon="14.1007983"><ele>49.0</ele><time>2026-03-24T13:09:30.118Z</time></trkpt><trkpt lat="40.931975" lon="14.1006717"><ele>49.0</ele><time>2026-03-24T13:09:31.118Z</time></trkpt><trkpt lat="40.931985" lon="14.1005433"><ele>49.0</ele><time>2026-03-24T13:09:32.118Z</time></trkpt><trkpt lat="40.9319867" lon="14.100415"><ele>49.0</ele><time>2026-03-24T13:09:33.117Z</time></trkpt><trkpt lat="40.931985" lon="14.1002833"><ele>49.0</ele><time>2026-03-24T13:09:34.118Z</time></trkpt><trkpt lat="40.93198" lon="14.100155"><ele>49.0</ele><time>2026-03-24T13:09:35.117Z</time></trkpt><trkpt lat="40.9319733" lon="14.1000233"><ele>49.0</ele><time>2026-03-24T13:09:36.117Z</time></trkpt><trkpt lat="40.9319717" lon="14.09989"><ele>49.0</ele><time>2026-03-24T13:09:37.117Z</time></trkpt><trkpt lat="40.9319667" lon="14.0997633"><ele>49.0</ele><time>2026-03-24T13:09:38.119Z</time></trkpt><trkpt lat="40.9319617" lon="14.099635"><ele>49.0</ele><time>2026-03-24T13:09:39.117Z</time></trkpt><trkpt lat="40.93196" lon="14.0995117"><ele>49.0</ele><time>2026-03-24T13:09:40.117Z</time></trkpt><trkpt lat="40.9319583" lon="14.099385"><ele>49.0</ele><time>2026-03-24T13:09:41.117Z</time></trkpt><trkpt lat="40.9319567" lon="14.0992567"><ele>49.0</ele><time>2026-03-24T13:09:42.118Z</time></trkpt><trkpt lat="40.9319617" lon="14.0991267"><ele>49.0</ele><time>2026-03-24T13:09:43.12Z</time></trkpt><trkpt lat="40.9319667" lon="14.099"><ele>48.800000000000004</ele><time>2026-03-24T13:09:44.118Z</time></trkpt><trkpt lat="40.9319717" lon="14.0988733"><ele>48.6</ele><time>2026-03-24T13:09:45.118Z</time></trkpt><trkpt lat="40.93198" lon="14.0987483"><ele>48.4</ele><time>2026-03-24T13:09:46.119Z</time></trkpt><trkpt lat="40.9319917" lon="14.0986233"><ele>48.2</ele><time>2026-03-24T13:09:47.12Z</time></trkpt><trkpt lat="40.932" lon="14.0984967"><ele>48.0</ele><time>2026-03-24T13:09:48.119Z</time></trkpt><trkpt lat="40.9320067" lon="14.0983733"><ele>48.0</ele><time>2026-03-24T13:09:49.117Z</time></trkpt><trkpt lat="40.9320133" lon="14.0982517"><ele>48.0</ele><time>2026-03-24T13:09:50.118Z</time></trkpt><trkpt lat="40.9320167" lon="14.0981267"><ele>48.0</ele><time>2026-03-24T13:09:51.117Z</time></trkpt><trkpt lat="40.9320217" lon="14.0980017"><ele>48.0</ele><time>2026-03-24T13:09:52.12Z</time></trkpt><trkpt lat="40.93203" lon="14.0978783"><ele>48.0</ele><time>2026-03-24T13:09:53.118Z</time></trkpt><trkpt lat="40.93204" lon="14.0977533"><ele>48.0</ele><time>2026-03-24T13:09:54.125Z</time></trkpt><trkpt lat="40.93205" lon="14.097625"><ele>48.0</ele><time>2026-03-24T13:09:55.117Z</time></trkpt><trkpt lat="40.9320567" lon="14.0974967"><ele>48.0</ele><time>2026-03-24T13:09:56.117Z</time></trkpt><trkpt lat="40.9320633" lon="14.097365"><ele>48.0</ele><time>2026-03-24T13:09:57.117Z</time></trkpt><trkpt lat="40.932075" lon="14.0972367"><ele>48.0</ele><time>2026-03-24T13:09:58.118Z</time></trkpt><trkpt lat="40.9320817" lon="14.0971017"><ele>48.0</ele><time>2026-03-24T13:09:59.118Z</time></trkpt><trkpt lat="40.9320867" lon="14.0969717"><ele>48.0</ele><time>2026-03-24T13:10:00.117Z</time></trkpt><trkpt lat="40.9320967" lon="14.0968433"><ele>48.0</ele><time>2026-03-24T13:10:01.118Z</time></trkpt><trkpt lat="40.9321133" lon="14.096715"><ele>48.0</ele><time>2026-03-24T13:10:02.118Z</time></trkpt><trkpt lat="40.9321167" lon="14.0965867"><ele>48.0</ele><time>2026-03-24T13:10:03.117Z</time></trkpt><trkpt lat="40.9321183" lon="14.0964583"><ele>48.2</ele><time>2026-03-24T13:10:04.117Z</time></trkpt><trkpt lat="40.93212" lon="14.0963333"><ele>48.4</ele><time>2026-03-24T13:10:05.118Z</time></trkpt><trkpt lat="40.932125" lon="14.0962083"><ele>48.6</ele><time>2026-03-24T13:10:06.117Z</time></trkpt><trkpt lat="40.93213" lon="14.0960817"><ele>48.800000000000004</ele><time>2026-03-24T13:10:07.117Z</time></trkpt><trkpt lat="40.9321317" lon="14.095955"><ele>49.0</ele><time>2026-03-24T13:10:08.117Z</time></trkpt><trkpt lat="40.932135" lon="14.0958317"><ele>48.800000000000004</ele><time>2026-03-24T13:10:09.119Z</time></trkpt><trkpt lat="40.9321383" lon="14.0957067"><ele>48.6</ele><time>2026-03-24T13:10:10.118Z</time></trkpt><trkpt lat="40.9321417" lon="14.095585"><ele>48.4</ele><time>2026-03-24T13:10:11.117Z</time></trkpt><trkpt lat="40.93215" lon="14.09546"><ele>48.2</ele><time>2026-03-24T13:10:12.117Z</time></trkpt><trkpt lat="40.9321567" lon="14.0953383"><ele>48.0</ele><time>2026-03-24T13:10:13.118Z</time></trkpt><trkpt lat="40.9321633" lon="14.0952183"><ele>48.0</ele><time>2026-03-24T13:10:14.117Z</time></trkpt><trkpt lat="40.9321683" lon="14.095095"><ele>48.0</ele><time>2026-03-24T13:10:15.118Z</time></trkpt><trkpt lat="40.932175" lon="14.0949733"><ele>48.0</ele><time>2026-03-24T13:10:16.117Z</time></trkpt><trkpt lat="40.9321833" lon="14.0948517"><ele>48.0</ele><time>2026-03-24T13:10:17.117Z</time></trkpt><trkpt lat="40.93219" lon="14.09473"><ele>48.0</ele><time>2026-03-24T13:10:18.118Z</time></trkpt><trkpt lat="40.932195" lon="14.0946083"><ele>47.833333333333336</ele><time>2026-03-24T13:10:19.119Z</time></trkpt><trkpt lat="40.9322017" lon="14.09449"><ele>47.666666666666664</ele><time>2026-03-24T13:10:20.119Z</time></trkpt><trkpt lat="40.9322083" lon="14.0943733"><ele>47.5</ele><time>2026-03-24T13:10:21.118Z</time></trkpt><trkpt lat="40.932215" lon="14.0942617"><ele>47.33333333333333</ele><time>2026-03-24T13:10:22.119Z</time></trkpt><trkpt lat="40.93222" lon="14.09415"><ele>47.166666666666664</ele><time>2026-03-24T13:10:23.117Z</time></trkpt><trkpt lat="40.9322267" lon="14.094035"><ele>47.0</ele><time>2026-03-24T13:10:24.118Z</time></trkpt><trkpt lat="40.932235" lon="14.09392"><ele>47.0</ele><time>2026-03-24T13:10:25.118Z</time></trkpt><trkpt lat="40.9322417" lon="14.0938067"><ele>47.0</ele><time>2026-03-24T13:10:26.118Z</time></trkpt><trkpt lat="40.9322483" lon="14.0936967"><ele>47.0</ele><time>2026-03-24T13:10:27.118Z</time></trkpt><trkpt lat="40.9322583" lon="14.0935833"><ele>47.0</ele><time>2026-03-24T13:10:28.118Z</time></trkpt><trkpt lat="40.932265" lon="14.09347"><ele>47.0</ele><time>2026-03-24T13:10:29.117Z</time></trkpt><trkpt lat="40.9322733" lon="14.09336"><ele>47.0</ele><time>2026-03-24T13:10:30.117Z</time></trkpt><trkpt lat="40.932275" lon="14.0932467"><ele>47.166666666666664</ele><time>2026-03-24T13:10:31.118Z</time></trkpt><trkpt lat="40.93228" lon="14.09313"><ele>47.33333333333333</ele><time>2026-03-24T13:10:32.118Z</time></trkpt><trkpt lat="40.9322833" lon="14.0930133"><ele>47.5</ele><time>2026-03-24T13:10:33.117Z</time></trkpt><trkpt lat="40.9322917" lon="14.0928983"><ele>47.666666666666664</ele><time>2026-03-24T13:10:34.119Z</time></trkpt><trkpt lat="40.9322983" lon="14.09278"><ele>47.833333333333336</ele><time>2026-03-24T13:10:35.118Z</time></trkpt><trkpt lat="40.9323067" lon="14.0926633"><ele>48.0</ele><time>2026-03-24T13:10:36.119Z</time></trkpt><trkpt lat="40.93231" lon="14.0925483"><ele>48.0</ele><time>2026-03-24T13:10:37.12Z</time></trkpt><trkpt lat="40.9323167" lon="14.092435"><ele>48.0</ele><time>2026-03-24T13:10:38.118Z</time></trkpt><trkpt lat="40.9323233" lon="14.0923183"><ele>48.0</ele><time>2026-03-24T13:10:39.117Z</time></trkpt><trkpt lat="40.9323283" lon="14.0922067"><ele>48.0</ele><time>2026-03-24T13:10:40.118Z</time></trkpt><trkpt lat="40.9323333" lon="14.0920917"><ele>48.0</ele><time>2026-03-24T13:10:41.117Z</time></trkpt><trkpt lat="40.9323383" lon="14.0919783"><ele>48.0</ele><time>2026-03-24T13:10:42.118Z</time></trkpt><trkpt lat="40.9323433" lon="14.0918633"><ele>47.833333333333336</ele><time>2026-03-24T13:10:43.118Z</time></trkpt><trkpt lat="40.9323467" lon="14.0917533"><ele>47.666666666666664</ele><time>2026-03-24T13:10:44.118Z</time></trkpt><trkpt lat="40.9323517" lon="14.0916383"><ele>47.5</ele><time>2026-03-24T13:10:45.118Z</time></trkpt><trkpt lat="40.9323583" lon="14.091525"><ele>47.33333333333333</ele><time>2026-03-24T13:10:46.117Z</time></trkpt><trkpt lat="40.932365" lon="14.0914117"><ele>47.166666666666664</ele><time>2026-03-24T13:10:47.117Z</time></trkpt><trkpt lat="40.9323717" lon="14.0912967"><ele>47.0</ele><time>2026-03-24T13:10:48.118Z</time></trkpt><trkpt lat="40.9323767" lon="14.0911817"><ele>46.8</ele><time>2026-03-24T13:10:49.117Z</time></trkpt><trkpt lat="40.9323783" lon="14.09106"><ele>46.6</ele><time>2026-03-24T13:10:50.118Z</time></trkpt><trkpt lat="40.932385" lon="14.0909383"><ele>46.4</ele><time>2026-03-24T13:10:51.117Z</time></trkpt><trkpt lat="40.9323883" lon="14.09082"><ele>46.199999999999996</ele><time>2026-03-24T13:10:52.119Z</time></trkpt><trkpt lat="40.9323933" lon="14.0907017"><ele>46.0</ele><time>2026-03-24T13:10:53.118Z</time></trkpt><trkpt lat="40.9324017" lon="14.0905833"><ele>46.0</ele><time>2026-03-24T13:10:54.118Z</time></trkpt><trkpt lat="40.9324067" lon="14.0904617"><ele>46.0</ele><time>2026-03-24T13:10:55.118Z</time></trkpt><trkpt lat="40.9324117" lon="14.0903483"><ele>46.0</ele><time>2026-03-24T13:10:56.118Z</time></trkpt><trkpt lat="40.932415" lon="14.0902333"><ele>46.0</ele><time>2026-03-24T13:10:57.118Z</time></trkpt><trkpt lat="40.93242" lon="14.09012"><ele>46.0</ele><time>2026-03-24T13:10:58.118Z</time></trkpt><trkpt lat="40.9324267" lon="14.0900067"><ele>46.0</ele><time>2026-03-24T13:10:59.119Z</time></trkpt><trkpt lat="40.9324333" lon="14.08989"><ele>46.0</ele><time>2026-03-24T13:11:00.118Z</time></trkpt><trkpt lat="40.9324383" lon="14.0897733"><ele>46.0</ele><time>2026-03-24T13:11:01.118Z</time></trkpt><trkpt lat="40.9324417" lon="14.0896583"><ele>46.0</ele><time>2026-03-24T13:11:02.118Z</time></trkpt><trkpt lat="40.932445" lon="14.0895467"><ele>46.0</ele><time>2026-03-24T13:11:03.117Z</time></trkpt><trkpt lat="40.932445" lon="14.089435"><ele>46.0</ele><time>2026-03-24T13:11:04.118Z</time></trkpt><trkpt lat="40.9324467" lon="14.089325"><ele>46.0</ele><time>2026-03-24T13:11:05.119Z</time></trkpt><trkpt lat="40.9324517" lon="14.08921"><ele>46.0</ele><time>2026-03-24T13:11:06.118Z</time></trkpt><trkpt lat="40.9324567" lon="14.0890967"><ele>46.0</ele><time>2026-03-24T13:11:07.118Z</time></trkpt><trkpt lat="40.9324583" lon="14.0889833"><ele>46.0</ele><time>2026-03-24T13:11:08.118Z</time></trkpt><trkpt lat="40.9324617" lon="14.08887"><ele>46.0</ele><time>2026-03-24T13:11:09.118Z</time></trkpt><trkpt lat="40.932465" lon="14.0887567"><ele>46.0</ele><time>2026-03-24T13:11:10.117Z</time></trkpt><trkpt lat="40.9324683" lon="14.0886433"><ele>46.0</ele><time>2026-03-24T13:11:11.118Z</time></trkpt><trkpt lat="40.9324733" lon="14.08853"><ele>46.16666666666667</ele><time>2026-03-24T13:11:12.118Z</time></trkpt><trkpt lat="40.9324783" lon="14.0884167"><ele>46.333333333333336</ele><time>2026-03-24T13:11:13.117Z</time></trkpt><trkpt lat="40.932485" lon="14.0883033"><ele>46.5</ele><time>2026-03-24T13:11:14.117Z</time></trkpt><trkpt lat="40.9324917" lon="14.0881917"><ele>46.666666666666664</ele><time>2026-03-24T13:11:15.117Z</time></trkpt><trkpt lat="40.9325" lon="14.0880833"><ele>46.83333333333333</ele><time>2026-03-24T13:11:16.119Z</time></trkpt><trkpt lat="40.9325067" lon="14.0879767"><ele>47.0</ele><time>2026-03-24T13:11:17.122Z</time></trkpt><trkpt lat="40.9325133" lon="14.0878717"><ele>47.0</ele><time>2026-03-24T13:11:18.118Z</time></trkpt><trkpt lat="40.9325217" lon="14.0877617"><ele>47.0</ele><time>2026-03-24T13:11:19.117Z</time></trkpt><trkpt lat="40.9325317" lon="14.0876517"><ele>47.0</ele><time>2026-03-24T13:11:20.119Z</time></trkpt><trkpt lat="40.9325333" lon="14.0875417"><ele>47.0</ele><time>2026-03-24T13:11:21.118Z</time></trkpt><trkpt lat="40.93254" lon="14.087435"><ele>47.0</ele><time>2026-03-24T13:11:22.118Z</time></trkpt><trkpt lat="40.9325433" lon="14.0873317"><ele>47.0</ele><time>2026-03-24T13:11:23.118Z</time></trkpt><trkpt lat="40.9325483" lon="14.0872267"><ele>46.666666666666664</ele><time>2026-03-24T13:11:24.119Z</time></trkpt><trkpt lat="40.9325517" lon="14.0871217"><ele>46.33333333333333</ele><time>2026-03-24T13:11:25.118Z</time></trkpt><trkpt lat="40.9325567" lon="14.0870183"><ele>46.0</ele><time>2026-03-24T13:11:26.118Z</time></trkpt><trkpt lat="40.932565" lon="14.0869133"><ele>45.666666666666664</ele><time>2026-03-24T13:11:27.118Z</time></trkpt><trkpt lat="40.9325683" lon="14.0868083"><ele>45.333333333333336</ele><time>2026-03-24T13:11:28.117Z</time></trkpt><trkpt lat="40.93257" lon="14.0866983"><ele>45.0</ele><time>2026-03-24T13:11:29.117Z</time></trkpt><trkpt lat="40.9325767" lon="14.0865917"><ele>45.0</ele><time>2026-03-24T13:11:30.118Z</time></trkpt><trkpt lat="40.9325783" lon="14.0864833"><ele>45.0</ele><time>2026-03-24T13:11:31.118Z</time></trkpt><trkpt lat="40.9325817" lon="14.0863783"><ele>45.0</ele><time>2026-03-24T13:11:32.12Z</time></trkpt><trkpt lat="40.9325867" lon="14.0862733"><ele>45.0</ele><time>2026-03-24T13:11:33.117Z</time></trkpt><trkpt lat="40.932595" lon="14.0861683"><ele>45.0</ele><time>2026-03-24T13:11:34.117Z</time></trkpt><trkpt lat="40.9326" lon="14.0860633"><ele>45.0</ele><time>2026-03-24T13:11:35.118Z</time></trkpt><trkpt lat="40.9326067" lon="14.0859567"><ele>45.0</ele><time>2026-03-24T13:11:36.118Z</time></trkpt><trkpt lat="40.9326133" lon="14.0858517"><ele>45.0</ele><time>2026-03-24T13:11:37.119Z</time></trkpt><trkpt lat="40.93262" lon="14.0857483"><ele>45.0</ele><time>2026-03-24T13:11:38.118Z</time></trkpt><trkpt lat="40.9326233" lon="14.0856467"><ele>45.0</ele><time>2026-03-24T13:11:39.117Z</time></trkpt><trkpt lat="40.93263" lon="14.0855467"><ele>45.0</ele><time>2026-03-24T13:11:40.118Z</time></trkpt><trkpt lat="40.9326367" lon="14.0854467"><ele>45.0</ele><time>2026-03-24T13:11:41.12Z</time></trkpt><trkpt lat="40.9326433" lon="14.0853433"><ele>45.166666666666664</ele><time>2026-03-24T13:11:42.118Z</time></trkpt><trkpt lat="40.9326483" lon="14.0852417"><ele>45.333333333333336</ele><time>2026-03-24T13:11:43.118Z</time></trkpt><trkpt lat="40.9326517" lon="14.0851383"><ele>45.5</ele><time>2026-03-24T13:11:44.118Z</time></trkpt><trkpt lat="40.9326567" lon="14.0850367"><ele>45.66666666666667</ele><time>2026-03-24T13:11:45.119Z</time></trkpt><trkpt lat="40.9326567" lon="14.0849333"><ele>45.833333333333336</ele><time>2026-03-24T13:11:46.118Z</time></trkpt><trkpt lat="40.9326617" lon="14.08483"><ele>46.0</ele><time>2026-03-24T13:11:47.118Z</time></trkpt><trkpt lat="40.932665" lon="14.0847267"><ele>46.16666666666667</ele><time>2026-03-24T13:11:48.119Z</time></trkpt><trkpt lat="40.9326667" lon="14.084625"><ele>46.333333333333336</ele><time>2026-03-24T13:11:49.118Z</time></trkpt><trkpt lat="40.9326717" lon="14.0845233"><ele>46.5</ele><time>2026-03-24T13:11:50.118Z</time></trkpt><trkpt lat="40.932675" lon="14.0844183"><ele>46.666666666666664</ele><time>2026-03-24T13:11:51.118Z</time></trkpt><trkpt lat="40.9326817" lon="14.0843117"><ele>46.83333333333333</ele><time>2026-03-24T13:11:52.118Z</time></trkpt><trkpt lat="40.9326883" lon="14.0842083"><ele>47.0</ele><time>2026-03-24T13:11:53.12Z</time></trkpt><trkpt lat="40.9326933" lon="14.0841117"><ele>46.83333333333333</ele><time>2026-03-24T13:11:54.118Z</time></trkpt><trkpt lat="40.932695" lon="14.0840133"><ele>46.666666666666664</ele><time>2026-03-24T13:11:55.118Z</time></trkpt><trkpt lat="40.9327" lon="14.0839083"><ele>46.5</ele><time>2026-03-24T13:11:56.118Z</time></trkpt><trkpt lat="40.9327067" lon="14.0838017"><ele>46.333333333333336</ele><time>2026-03-24T13:11:57.117Z</time></trkpt><trkpt lat="40.9327117" lon="14.083695"><ele>46.16666666666667</ele><time>2026-03-24T13:11:58.12Z</time></trkpt><trkpt lat="40.9327133" lon="14.0835883"><ele>46.0</ele><time>2026-03-24T13:11:59.118Z</time></trkpt><trkpt lat="40.9327167" lon="14.083485"><ele>46.0</ele><time>2026-03-24T13:12:00.118Z</time></trkpt><trkpt lat="40.9327217" lon="14.0833817"><ele>46.0</ele><time>2026-03-24T13:12:01.118Z</time></trkpt><trkpt lat="40.9327233" lon="14.0832817"><ele>46.0</ele><time>2026-03-24T13:12:02.117Z</time></trkpt><trkpt lat="40.93273" lon="14.08318"><ele>46.0</ele><time>2026-03-24T13:12:03.119Z</time></trkpt><trkpt lat="40.9327317" lon="14.0830833"><ele>46.0</ele><time>2026-03-24T13:12:04.119Z</time></trkpt><trkpt lat="40.9327333" lon="14.082985"><ele>46.0</ele><time>2026-03-24T13:12:05.119Z</time></trkpt><trkpt lat="40.9327367" lon="14.082885"><ele>45.66666666666667</ele><time>2026-03-24T13:12:06.119Z</time></trkpt><trkpt lat="40.932745" lon="14.08278"><ele>45.333333333333336</ele><time>2026-03-24T13:12:07.119Z</time></trkpt><trkpt lat="40.9327533" lon="14.0826767"><ele>45.0</ele><time>2026-03-24T13:12:08.118Z</time></trkpt><trkpt lat="40.93276" lon="14.0825733"><ele>44.666666666666664</ele><time>2026-03-24T13:12:09.119Z</time></trkpt><trkpt lat="40.9327683" lon="14.0824717"><ele>44.33333333333333</ele><time>2026-03-24T13:12:10.118Z</time></trkpt><trkpt lat="40.9327767" lon="14.0823667"><ele>44.0</ele><time>2026-03-24T13:12:11.117Z</time></trkpt><trkpt lat="40.9327833" lon="14.0822633"><ele>43.83333333333333</ele><time>2026-03-24T13:12:12.121Z</time></trkpt><trkpt lat="40.9327933" lon="14.082155"><ele>43.666666666666664</ele><time>2026-03-24T13:12:13.117Z</time></trkpt><trkpt lat="40.932805" lon="14.0820433"><ele>43.5</ele><time>2026-03-24T13:12:14.117Z</time></trkpt><trkpt lat="40.932815" lon="14.0819317"><ele>43.333333333333336</ele><time>2026-03-24T13:12:15.118Z</time></trkpt><trkpt lat="40.932825" lon="14.08182"><ele>43.16666666666667</ele><time>2026-03-24T13:12:16.119Z</time></trkpt><trkpt lat="40.932835" lon="14.0817067"><ele>43.0</ele><time>2026-03-24T13:12:17.117Z</time></trkpt><trkpt lat="40.932845" lon="14.0815933"><ele>42.66666666666667</ele><time>2026-03-24T13:12:18.118Z</time></trkpt><trkpt lat="40.9328533" lon="14.0814817"><ele>42.333333333333336</ele><time>2026-03-24T13:12:19.118Z</time></trkpt><trkpt lat="40.9328583" lon="14.0813733"><ele>42.0</ele><time>2026-03-24T13:12:20.118Z</time></trkpt><trkpt lat="40.932865" lon="14.0812683"><ele>41.666666666666664</ele><time>2026-03-24T13:12:21.118Z</time></trkpt><trkpt lat="40.9328717" lon="14.0811617"><ele>41.33333333333333</ele><time>2026-03-24T13:12:22.117Z</time></trkpt><trkpt lat="40.93288" lon="14.0810533"><ele>41.0</ele><time>2026-03-24T13:12:23.118Z</time></trkpt><trkpt lat="40.93289" lon="14.08095"><ele>41.0</ele><time>2026-03-24T13:12:24.118Z</time></trkpt><trkpt lat="40.9329017" lon="14.0808467"><ele>41.0</ele><time>2026-03-24T13:12:25.118Z</time></trkpt><trkpt lat="40.9329133" lon="14.0807417"><ele>41.0</ele><time>2026-03-24T13:12:26.119Z</time></trkpt><trkpt lat="40.932925" lon="14.0806317"><ele>41.0</ele><time>2026-03-24T13:12:27.118Z</time></trkpt><trkpt lat="40.932935" lon="14.0805167"><ele>41.0</ele><time>2026-03-24T13:12:28.117Z</time></trkpt><trkpt lat="40.9329517" lon="14.0804033"><ele>41.0</ele><time>2026-03-24T13:12:29.118Z</time></trkpt><trkpt lat="40.932955" lon="14.0803"><ele>41.0</ele><time>2026-03-24T13:12:30.118Z</time></trkpt><trkpt lat="40.9329633" lon="14.080195"><ele>41.0</ele><time>2026-03-24T13:12:31.117Z</time></trkpt><trkpt lat="40.9329717" lon="14.0800917"><ele>41.0</ele><time>2026-03-24T13:12:32.118Z</time></trkpt><trkpt lat="40.9329833" lon="14.079985"><ele>41.0</ele><time>2026-03-24T13:12:33.119Z</time></trkpt><trkpt lat="40.9329917" lon="14.0798783"><ele>41.0</ele><time>2026-03-24T13:12:34.118Z</time></trkpt><trkpt lat="40.9330067" lon="14.0797733"><ele>41.0</ele><time>2026-03-24T13:12:35.117Z</time></trkpt><trkpt lat="40.93302" lon="14.0796717"><ele>41.0</ele><time>2026-03-24T13:12:36.119Z</time></trkpt><trkpt lat="40.9330333" lon="14.07957"><ele>41.0</ele><time>2026-03-24T13:12:37.118Z</time></trkpt><trkpt lat="40.933045" lon="14.0794667"><ele>41.0</ele><time>2026-03-24T13:12:38.118Z</time></trkpt><trkpt lat="40.9330567" lon="14.07936"><ele>41.0</ele><time>2026-03-24T13:12:39.118Z</time></trkpt><trkpt lat="40.93307" lon="14.0792483"><ele>41.0</ele><time>2026-03-24T13:12:40.117Z</time></trkpt><trkpt lat="40.9330833" lon="14.07914"><ele>41.0</ele><time>2026-03-24T13:12:41.118Z</time></trkpt><trkpt lat="40.9330967" lon="14.07903"><ele>40.83333333333333</ele><time>2026-03-24T13:12:42.118Z</time></trkpt><trkpt lat="40.9331083" lon="14.0789233"><ele>40.666666666666664</ele><time>2026-03-24T13:12:43.118Z</time></trkpt><trkpt lat="40.9331183" lon="14.0788183"><ele>40.5</ele><time>2026-03-24T13:12:44.119Z</time></trkpt><trkpt lat="40.9331367" lon="14.0787133"><ele>40.333333333333336</ele><time>2026-03-24T13:12:45.118Z</time></trkpt><trkpt lat="40.93315" lon="14.0786183"><ele>40.16666666666667</ele><time>2026-03-24T13:12:46.117Z</time></trkpt><trkpt lat="40.93316" lon="14.0785117"><ele>40.0</ele><time>2026-03-24T13:12:47.117Z</time></trkpt><trkpt lat="40.9331717" lon="14.0784067"><ele>40.0</ele><time>2026-03-24T13:12:48.118Z</time></trkpt><trkpt lat="40.93318" lon="14.0782967"><ele>40.0</ele><time>2026-03-24T13:12:49.119Z</time></trkpt><trkpt lat="40.9331917" lon="14.0781867"><ele>40.0</ele><time>2026-03-24T13:12:50.119Z</time></trkpt><trkpt lat="40.9332017" lon="14.0780767"><ele>40.0</ele><time>2026-03-24T13:12:51.119Z</time></trkpt><trkpt lat="40.9332083" lon="14.0779683"><ele>40.0</ele><time>2026-03-24T13:12:52.118Z</time></trkpt><trkpt lat="40.9332183" lon="14.0778567"><ele>40.0</ele><time>2026-03-24T13:12:53.118Z</time></trkpt><trkpt lat="40.9332283" lon="14.0777467"><ele>40.0</ele><time>2026-03-24T13:12:54.118Z</time></trkpt><trkpt lat="40.9332433" lon="14.0776333"><ele>40.0</ele><time>2026-03-24T13:12:55.119Z</time></trkpt><trkpt lat="40.9332533" lon="14.07752"><ele>40.0</ele><time>2026-03-24T13:12:56.118Z</time></trkpt><trkpt lat="40.9332633" lon="14.0774083"><ele>40.0</ele><time>2026-03-24T13:12:57.119Z</time></trkpt><trkpt lat="40.933275" lon="14.0773"><ele>40.0</ele><time>2026-03-24T13:12:58.119Z</time></trkpt><trkpt lat="40.9332883" lon="14.07719"><ele>40.0</ele><time>2026-03-24T13:12:59.118Z</time></trkpt><trkpt lat="40.9333" lon="14.07708"><ele>40.0</ele><time>2026-03-24T13:13:00.119Z</time></trkpt><trkpt lat="40.9333133" lon="14.07697"><ele>40.0</ele><time>2026-03-24T13:13:01.118Z</time></trkpt><trkpt lat="40.9333267" lon="14.0768583"><ele>40.0</ele><time>2026-03-24T13:13:02.118Z</time></trkpt><trkpt lat="40.93334" lon="14.076745"><ele>40.0</ele><time>2026-03-24T13:13:03.118Z</time></trkpt><trkpt lat="40.933355" lon="14.0766333"><ele>40.0</ele><time>2026-03-24T13:13:04.118Z</time></trkpt><trkpt lat="40.93337" lon="14.0765217"><ele>40.0</ele><time>2026-03-24T13:13:05.117Z</time></trkpt><trkpt lat="40.9333833" lon="14.07641"><ele>39.5</ele><time>2026-03-24T13:13:06.118Z</time></trkpt><trkpt lat="40.9334" lon="14.0762983"><ele>39.0</ele><time>2026-03-24T13:13:07.119Z</time></trkpt><trkpt lat="40.93341" lon="14.076185"><ele>38.5</ele><time>2026-03-24T13:13:08.118Z</time></trkpt><trkpt lat="40.9334183" lon="14.0760683"><ele>38.0</ele><time>2026-03-24T13:13:09.118Z</time></trkpt><trkpt lat="40.9334217" lon="14.075955"><ele>37.5</ele><time>2026-03-24T13:13:10.118Z</time></trkpt><trkpt lat="40.933425" lon="14.07584"><ele>37.0</ele><time>2026-03-24T13:13:11.12Z</time></trkpt><trkpt lat="40.9334317" lon="14.0757233"><ele>37.0</ele><time>2026-03-24T13:13:12.119Z</time></trkpt><trkpt lat="40.933435" lon="14.0756083"><ele>37.0</ele><time>2026-03-24T13:13:13.118Z</time></trkpt><trkpt lat="40.9334383" lon="14.0754933"><ele>37.0</ele><time>2026-03-24T13:13:14.118Z</time></trkpt><trkpt lat="40.93344" lon="14.0753767"><ele>37.0</ele><time>2026-03-24T13:13:15.118Z</time></trkpt><trkpt lat="40.9334433" lon="14.0752633"><ele>37.0</ele><time>2026-03-24T13:13:16.118Z</time></trkpt><trkpt lat="40.9334483" lon="14.0751533"><ele>37.0</ele><time>2026-03-24T13:13:17.119Z</time></trkpt><trkpt lat="40.9334517" lon="14.0750433"><ele>37.0</ele><time>2026-03-24T13:13:18.118Z</time></trkpt><trkpt lat="40.9334583" lon="14.07493"><ele>37.0</ele><time>2026-03-24T13:13:19.117Z</time></trkpt><trkpt lat="40.9334667" lon="14.074815"><ele>37.0</ele><time>2026-03-24T13:13:20.118Z</time></trkpt><trkpt lat="40.9334683" lon="14.0747017"><ele>37.0</ele><time>2026-03-24T13:13:21.119Z</time></trkpt><trkpt lat="40.9334717" lon="14.0745867"><ele>37.0</ele><time>2026-03-24T13:13:22.119Z</time></trkpt><trkpt lat="40.933475" lon="14.0744717"><ele>37.0</ele><time>2026-03-24T13:13:23.117Z</time></trkpt><trkpt lat="40.9334783" lon="14.07436"><ele>37.0</ele><time>2026-03-24T13:13:24.118Z</time></trkpt><trkpt lat="40.93348" lon="14.0742517"><ele>37.0</ele><time>2026-03-24T13:13:25.119Z</time></trkpt><trkpt lat="40.9334833" lon="14.0741467"><ele>37.0</ele><time>2026-03-24T13:13:26.118Z</time></trkpt><trkpt lat="40.9334867" lon="14.07404"><ele>37.0</ele><time>2026-03-24T13:13:27.118Z</time></trkpt><trkpt lat="40.9334933" lon="14.0739367"><ele>37.0</ele><time>2026-03-24T13:13:28.118Z</time></trkpt><trkpt lat="40.933495" lon="14.073835"><ele>37.0</ele><time>2026-03-24T13:13:29.117Z</time></trkpt><trkpt lat="40.9334967" lon="14.0737333"><ele>36.66666666666667</ele><time>2026-03-24T13:13:30.118Z</time></trkpt><trkpt lat="40.9335017" lon="14.0736333"><ele>36.333333333333336</ele><time>2026-03-24T13:13:31.118Z</time></trkpt><trkpt lat="40.933505" lon="14.073535"><ele>36.0</ele><time>2026-03-24T13:13:32.119Z</time></trkpt><trkpt lat="40.9335033" lon="14.0734383"><ele>35.666666666666664</ele><time>2026-03-24T13:13:33.117Z</time></trkpt><trkpt lat="40.9335083" lon="14.0733383"><ele>35.33333333333333</ele><time>2026-03-24T13:13:34.118Z</time></trkpt><trkpt lat="40.9335117" lon="14.0732367"><ele>35.0</ele><time>2026-03-24T13:13:35.118Z</time></trkpt><trkpt lat="40.933515" lon="14.073135"><ele>34.83333333333333</ele><time>2026-03-24T13:13:36.119Z</time></trkpt><trkpt lat="40.9335167" lon="14.0730333"><ele>34.666666666666664</ele><time>2026-03-24T13:13:37.117Z</time></trkpt><trkpt lat="40.9335183" lon="14.0729283"><ele>34.5</ele><time>2026-03-24T13:13:38.118Z</time></trkpt><trkpt lat="40.93352" lon="14.0728233"><ele>34.333333333333336</ele><time>2026-03-24T13:13:39.119Z</time></trkpt><trkpt lat="40.9335217" lon="14.0727183"><ele>34.16666666666667</ele><time>2026-03-24T13:13:40.126Z</time></trkpt><trkpt lat="40.93352" lon="14.0726117"><ele>34.0</ele><time>2026-03-24T13:13:41.117Z</time></trkpt><trkpt lat="40.9335183" lon="14.0725117"><ele>34.14285714285714</ele><time>2026-03-24T13:13:42.119Z</time></trkpt><trkpt lat="40.93352" lon="14.0724117"><ele>34.285714285714285</ele><time>2026-03-24T13:13:43.118Z</time></trkpt><trkpt lat="40.9335217" lon="14.072315"><ele>34.42857142857143</ele><time>2026-03-24T13:13:44.118Z</time></trkpt><trkpt lat="40.9335217" lon="14.07222"><ele>34.57142857142857</ele><time>2026-03-24T13:13:45.118Z</time></trkpt><trkpt lat="40.9335217" lon="14.072125"><ele>34.714285714285715</ele><time>2026-03-24T13:13:46.118Z</time></trkpt><trkpt lat="40.933525" lon="14.0720317"><ele>34.857142857142854</ele><time>2026-03-24T13:13:47.118Z</time></trkpt><trkpt lat="40.9335267" lon="14.0719383"><ele>35.0</ele><time>2026-03-24T13:13:48.118Z</time></trkpt><trkpt lat="40.9335267" lon="14.0718467"><ele>35.0</ele><time>2026-03-24T13:13:49.118Z</time></trkpt><trkpt lat="40.9335283" lon="14.0717517"><ele>35.0</ele><time>2026-03-24T13:13:50.118Z</time></trkpt><trkpt lat="40.93353" lon="14.071655"><ele>35.0</ele><time>2026-03-24T13:13:51.117Z</time></trkpt><trkpt lat="40.9335317" lon="14.07156"><ele>35.0</ele><time>2026-03-24T13:13:52.117Z</time></trkpt><trkpt lat="40.9335317" lon="14.071465"><ele>35.0</ele><time>2026-03-24T13:13:53.118Z</time></trkpt><trkpt lat="40.9335317" lon="14.0713717"><ele>35.0</ele><time>2026-03-24T13:13:54.118Z</time></trkpt><trkpt lat="40.9335333" lon="14.0712783"><ele>35.0</ele><time>2026-03-24T13:13:55.118Z</time></trkpt><trkpt lat="40.933535" lon="14.0711833"><ele>35.0</ele><time>2026-03-24T13:13:56.118Z</time></trkpt><trkpt lat="40.9335367" lon="14.07109"><ele>35.0</ele><time>2026-03-24T13:13:57.119Z</time></trkpt><trkpt lat="40.93354" lon="14.0709983"><ele>35.0</ele><time>2026-03-24T13:13:58.118Z</time></trkpt><trkpt lat="40.9335417" lon="14.070905"><ele>35.0</ele><time>2026-03-24T13:13:59.118Z</time></trkpt><trkpt lat="40.9335417" lon="14.0708133"><ele>35.0</ele><time>2026-03-24T13:14:00.119Z</time></trkpt><trkpt lat="40.9335417" lon="14.07072"><ele>35.0</ele><time>2026-03-24T13:14:01.118Z</time></trkpt><trkpt lat="40.9335433" lon="14.0706267"><ele>35.0</ele><time>2026-03-24T13:14:02.118Z</time></trkpt><trkpt lat="40.9335467" lon="14.0705367"><ele>35.0</ele><time>2026-03-24T13:14:03.117Z</time></trkpt><trkpt lat="40.9335483" lon="14.0704467"><ele>35.0</ele><time>2026-03-24T13:14:04.12Z</time></trkpt><trkpt lat="40.9335483" lon="14.0703533"><ele>35.0</ele><time>2026-03-24T13:14:05.119Z</time></trkpt><trkpt lat="40.93355" lon="14.0702583"><ele>35.0</ele><time>2026-03-24T13:14:06.119Z</time></trkpt><trkpt lat="40.93355" lon="14.07016"><ele>35.0</ele><time>2026-03-24T13:14:07.118Z</time></trkpt><trkpt lat="40.9335517" lon="14.0700633"><ele>35.0</ele><time>2026-03-24T13:14:08.118Z</time></trkpt><trkpt lat="40.9335583" lon="14.0699667"><ele>35.0</ele><time>2026-03-24T13:14:09.118Z</time></trkpt><trkpt lat="40.9335617" lon="14.0698683"><ele>35.0</ele><time>2026-03-24T13:14:10.117Z</time></trkpt><trkpt lat="40.933565" lon="14.0697733"><ele>35.0</ele><time>2026-03-24T13:14:11.118Z</time></trkpt><trkpt lat="40.9335617" lon="14.0696833"><ele>35.0</ele><time>2026-03-24T13:14:12.118Z</time></trkpt><trkpt lat="40.9335617" lon="14.0695867"><ele>35.0</ele><time>2026-03-24T13:14:13.118Z</time></trkpt><trkpt lat="40.9335633" lon="14.06949"><ele>35.0</ele><time>2026-03-24T13:14:14.118Z</time></trkpt><trkpt lat="40.9335633" lon="14.0693917"><ele>35.0</ele><time>2026-03-24T13:14:15.118Z</time></trkpt><trkpt lat="40.9335617" lon="14.069295"><ele>35.0</ele><time>2026-03-24T13:14:16.117Z</time></trkpt><trkpt lat="40.93356" lon="14.0692"><ele>34.83333333333333</ele><time>2026-03-24T13:14:17.119Z</time></trkpt><trkpt lat="40.9335583" lon="14.069105"><ele>34.666666666666664</ele><time>2026-03-24T13:14:18.12Z</time></trkpt><trkpt lat="40.9335583" lon="14.0690067"><ele>34.5</ele><time>2026-03-24T13:14:19.118Z</time></trkpt><trkpt lat="40.9335583" lon="14.0689067"><ele>34.333333333333336</ele><time>2026-03-24T13:14:20.121Z</time></trkpt><trkpt lat="40.93356" lon="14.0688067"><ele>34.16666666666667</ele><time>2026-03-24T13:14:21.117Z</time></trkpt><trkpt lat="40.9335667" lon="14.0687"><ele>34.0</ele><time>2026-03-24T13:14:22.119Z</time></trkpt><trkpt lat="40.933575" lon="14.0685967"><ele>33.99999999999999</ele><time>2026-03-24T13:14:23.118Z</time></trkpt><trkpt lat="40.9335833" lon="14.0684983"><ele>34.0</ele><time>2026-03-24T13:14:24.118Z</time></trkpt><trkpt lat="40.93359" lon="14.0683983"><ele>34.0</ele><time>2026-03-24T13:14:25.118Z</time></trkpt><trkpt lat="40.9335967" lon="14.0682967"><ele>34.0</ele><time>2026-03-24T13:14:26.118Z</time></trkpt><trkpt lat="40.9336017" lon="14.0681983"><ele>34.0</ele><time>2026-03-24T13:14:27.118Z</time></trkpt><trkpt lat="40.93361" lon="14.068105"><ele>33.99999999999999</ele><time>2026-03-24T13:14:28.12Z</time></trkpt><trkpt lat="40.933615" lon="14.0680083"><ele>34.0</ele><time>2026-03-24T13:14:29.117Z</time></trkpt><trkpt lat="40.9336167" lon="14.0679117"><ele>34.14285714285714</ele><time>2026-03-24T13:14:30.117Z</time></trkpt><trkpt lat="40.9336183" lon="14.0678133"><ele>34.285714285714285</ele><time>2026-03-24T13:14:31.118Z</time></trkpt><trkpt lat="40.93362" lon="14.0677183"><ele>34.42857142857143</ele><time>2026-03-24T13:14:32.118Z</time></trkpt><trkpt lat="40.93362" lon="14.06762"><ele>34.57142857142857</ele><time>2026-03-24T13:14:33.118Z</time></trkpt><trkpt lat="40.9336217" lon="14.0675233"><ele>34.714285714285715</ele><time>2026-03-24T13:14:34.118Z</time></trkpt><trkpt lat="40.9336167" lon="14.0674233"><ele>34.857142857142854</ele><time>2026-03-24T13:14:35.118Z</time></trkpt><trkpt lat="40.93361" lon="14.0673283"><ele>35.0</ele><time>2026-03-24T13:14:36.12Z</time></trkpt><trkpt lat="40.9336" lon="14.0672333"><ele>35.0</ele><time>2026-03-24T13:14:37.118Z</time></trkpt><trkpt lat="40.9335933" lon="14.0671383"><ele>35.0</ele><time>2026-03-24T13:14:38.119Z</time></trkpt><trkpt lat="40.9335867" lon="14.0670417"><ele>35.0</ele><time>2026-03-24T13:14:39.117Z</time></trkpt><trkpt lat="40.9335817" lon="14.0669483"><ele>35.0</ele><time>2026-03-24T13:14:40.118Z</time></trkpt><trkpt lat="40.9335783" lon="14.0668533"><ele>35.0</ele><time>2026-03-24T13:14:41.117Z</time></trkpt><trkpt lat="40.9335733" lon="14.0667633"><ele>35.0</ele><time>2026-03-24T13:14:42.118Z</time></trkpt><trkpt lat="40.9335683" lon="14.06667"><ele>35.0</ele><time>2026-03-24T13:14:43.118Z</time></trkpt><trkpt lat="40.9335683" lon="14.0665817"><ele>34.714285714285715</ele><time>2026-03-24T13:14:44.118Z</time></trkpt><trkpt lat="40.93357" lon="14.0664967"><ele>34.42857142857143</ele><time>2026-03-24T13:14:45.118Z</time></trkpt><trkpt lat="40.9335733" lon="14.0664067"><ele>34.14285714285714</ele><time>2026-03-24T13:14:46.119Z</time></trkpt><trkpt lat="40.9335783" lon="14.066315"><ele>33.85714285714286</ele><time>2026-03-24T13:14:47.119Z</time></trkpt><trkpt lat="40.9335833" lon="14.066225"><ele>33.57142857142857</ele><time>2026-03-24T13:14:48.118Z</time></trkpt><trkpt lat="40.9335867" lon="14.066135"><ele>33.285714285714285</ele><time>2026-03-24T13:14:49.118Z</time></trkpt><trkpt lat="40.9335917" lon="14.0660433"><ele>33.0</ele><time>2026-03-24T13:14:50.119Z</time></trkpt><trkpt lat="40.9335933" lon="14.06595"><ele>33.0</ele><time>2026-03-24T13:14:51.118Z</time></trkpt><trkpt lat="40.933595" lon="14.065855"><ele>33.0</ele><time>2026-03-24T13:14:52.118Z</time></trkpt><trkpt lat="40.9336" lon="14.06576"><ele>33.0</ele><time>2026-03-24T13:14:53.118Z</time></trkpt><trkpt lat="40.9336033" lon="14.0656667"><ele>33.0</ele><time>2026-03-24T13:14:54.118Z</time></trkpt><trkpt lat="40.93361" lon="14.0655717"><ele>33.0</ele><time>2026-03-24T13:14:55.118Z</time></trkpt><trkpt lat="40.933615" lon="14.0654733"><ele>33.0</ele><time>2026-03-24T13:14:56.118Z</time></trkpt><trkpt lat="40.9336183" lon="14.0653733"><ele>33.0</ele><time>2026-03-24T13:14:57.118Z</time></trkpt><trkpt lat="40.9336233" lon="14.0652783"><ele>33.0</ele><time>2026-03-24T13:14:58.119Z</time></trkpt><trkpt lat="40.9336333" lon="14.065185"><ele>33.0</ele><time>2026-03-24T13:14:59.119Z</time></trkpt><trkpt lat="40.93364" lon="14.065095"><ele>33.0</ele><time>2026-03-24T13:15:00.118Z</time></trkpt><trkpt lat="40.9336417" lon="14.065005"><ele>33.0</ele><time>2026-03-24T13:15:01.119Z</time></trkpt><trkpt lat="40.9336483" lon="14.0649117"><ele>33.0</ele><time>2026-03-24T13:15:02.118Z</time></trkpt><trkpt lat="40.9336533" lon="14.0648167"><ele>33.0</ele><time>2026-03-24T13:15:03.118Z</time></trkpt><trkpt lat="40.9336583" lon="14.0647183"><ele>33.0</ele><time>2026-03-24T13:15:04.118Z</time></trkpt><trkpt lat="40.933665" lon="14.0646167"><ele>33.0</ele><time>2026-03-24T13:15:05.118Z</time></trkpt><trkpt lat="40.9336683" lon="14.06452"><ele>33.0</ele><time>2026-03-24T13:15:06.119Z</time></trkpt><trkpt lat="40.9336767" lon="14.06442"><ele>33.0</ele><time>2026-03-24T13:15:07.117Z</time></trkpt><trkpt lat="40.9336833" lon="14.06432"><ele>33.0</ele><time>2026-03-24T13:15:08.118Z</time></trkpt><trkpt lat="40.93369" lon="14.064215"><ele>33.0</ele><time>2026-03-24T13:15:09.118Z</time></trkpt><trkpt lat="40.9336983" lon="14.0641117"><ele>33.0</ele><time>2026-03-24T13:15:10.118Z</time></trkpt><trkpt lat="40.933705" lon="14.0640067"><ele>33.0</ele><time>2026-03-24T13:15:11.118Z</time></trkpt><trkpt lat="40.9337083" lon="14.0639033"><ele>33.0</ele><time>2026-03-24T13:15:12.12Z</time></trkpt><trkpt lat="40.933715" lon="14.0638"><ele>33.0</ele><time>2026-03-24T13:15:13.118Z</time></trkpt><trkpt lat="40.9337233" lon="14.0636983"><ele>33.0</ele><time>2026-03-24T13:15:14.12Z</time></trkpt><trkpt lat="40.93373" lon="14.063595"><ele>33.0</ele><time>2026-03-24T13:15:15.118Z</time></trkpt><trkpt lat="40.9337367" lon="14.0634933"><ele>33.0</ele><time>2026-03-24T13:15:16.118Z</time></trkpt><trkpt lat="40.9337433" lon="14.06339"><ele>33.0</ele><time>2026-03-24T13:15:17.118Z</time></trkpt><trkpt lat="40.9337533" lon="14.0632817"><ele>33.0</ele><time>2026-03-24T13:15:18.118Z</time></trkpt><trkpt lat="40.9337633" lon="14.063175"><ele>33.0</ele><time>2026-03-24T13:15:19.118Z</time></trkpt><trkpt lat="40.9337717" lon="14.0630667"><ele>33.0</ele><time>2026-03-24T13:15:20.118Z</time></trkpt><trkpt lat="40.93378" lon="14.06296"><ele>33.0</ele><time>2026-03-24T13:15:21.118Z</time></trkpt><trkpt lat="40.9337917" lon="14.06285"><ele>33.0</ele><time>2026-03-24T13:15:22.119Z</time></trkpt><trkpt lat="40.9338" lon="14.06274"><ele>32.833333333333336</ele><time>2026-03-24T13:15:23.118Z</time></trkpt><trkpt lat="40.9338133" lon="14.0626267"><ele>32.666666666666664</ele><time>2026-03-24T13:15:24.119Z</time></trkpt><trkpt lat="40.9338217" lon="14.06252"><ele>32.5</ele><time>2026-03-24T13:15:25.118Z</time></trkpt><trkpt lat="40.9338317" lon="14.0624133"><ele>32.33333333333333</ele><time>2026-03-24T13:15:26.118Z</time></trkpt><trkpt lat="40.933845" lon="14.0623017"><ele>32.166666666666664</ele><time>2026-03-24T13:15:27.118Z</time></trkpt><trkpt lat="40.9338583" lon="14.0621867"><ele>32.0</ele><time>2026-03-24T13:15:28.118Z</time></trkpt><trkpt lat="40.9338717" lon="14.0620717"><ele>31.833333333333332</ele><time>2026-03-24T13:15:29.118Z</time></trkpt><trkpt lat="40.93388" lon="14.0619567"><ele>31.666666666666664</ele><time>2026-03-24T13:15:30.118Z</time></trkpt><trkpt lat="40.93389" lon="14.0618467"><ele>31.5</ele><time>2026-03-24T13:15:31.118Z</time></trkpt><trkpt lat="40.9339017" lon="14.0617367"><ele>31.333333333333336</ele><time>2026-03-24T13:15:32.118Z</time></trkpt><trkpt lat="40.9339133" lon="14.06163"><ele>31.166666666666668</ele><time>2026-03-24T13:15:33.118Z</time></trkpt><trkpt lat="40.933925" lon="14.06153"><ele>31.0</ele><time>2026-03-24T13:15:34.118Z</time></trkpt><trkpt lat="40.9339383" lon="14.0614317"><ele>30.833333333333336</ele><time>2026-03-24T13:15:35.119Z</time></trkpt><trkpt lat="40.93395" lon="14.0613183"><ele>30.666666666666668</ele><time>2026-03-24T13:15:36.118Z</time></trkpt><trkpt lat="40.93396" lon="14.06121"><ele>30.5</ele><time>2026-03-24T13:15:37.119Z</time></trkpt><trkpt lat="40.9339667" lon="14.0611067"><ele>30.333333333333336</ele><time>2026-03-24T13:15:38.118Z</time></trkpt><trkpt lat="40.9339767" lon="14.0610033"><ele>30.166666666666668</ele><time>2026-03-24T13:15:39.12Z</time></trkpt><trkpt lat="40.9339883" lon="14.0609"><ele>30.0</ele><time>2026-03-24T13:15:40.118Z</time></trkpt><trkpt lat="40.9340017" lon="14.0607933"><ele>30.0</ele><time>2026-03-24T13:15:41.118Z</time></trkpt><trkpt lat="40.9340133" lon="14.0606883"><ele>30.0</ele><time>2026-03-24T13:15:42.119Z</time></trkpt><trkpt lat="40.9340233" lon="14.060585"><ele>30.0</ele><time>2026-03-24T13:15:43.119Z</time></trkpt><trkpt lat="40.9340333" lon="14.0604783"><ele>30.0</ele><time>2026-03-24T13:15:44.118Z</time></trkpt><trkpt lat="40.9340433" lon="14.0603767"><ele>30.0</ele><time>2026-03-24T13:15:45.118Z</time></trkpt><trkpt lat="40.9340517" lon="14.0602783"><ele>30.0</ele><time>2026-03-24T13:15:46.117Z</time></trkpt><trkpt lat="40.9340567" lon="14.0601817"><ele>30.0</ele><time>2026-03-24T13:15:47.118Z</time></trkpt><trkpt lat="40.9340583" lon="14.0600867"><ele>30.0</ele><time>2026-03-24T13:15:48.118Z</time></trkpt><trkpt lat="40.9340617" lon="14.0599917"><ele>30.0</ele><time>2026-03-24T13:15:49.118Z</time></trkpt><trkpt lat="40.934065" lon="14.059895"><ele>30.0</ele><time>2026-03-24T13:15:50.119Z</time></trkpt><trkpt lat="40.9340717" lon="14.0597983"><ele>30.0</ele><time>2026-03-24T13:15:51.118Z</time></trkpt><trkpt lat="40.93408" lon="14.0597033"><ele>30.0</ele><time>2026-03-24T13:15:52.119Z</time></trkpt><trkpt lat="40.934085" lon="14.0596083"><ele>30.0</ele><time>2026-03-24T13:15:53.118Z</time></trkpt><trkpt lat="40.9340883" lon="14.0595167"><ele>30.142857142857146</ele><time>2026-03-24T13:15:54.118Z</time></trkpt><trkpt lat="40.9340933" lon="14.059425"><ele>30.285714285714285</ele><time>2026-03-24T13:15:55.118Z</time></trkpt><trkpt lat="40.934095" lon="14.0593367"><ele>30.42857142857143</ele><time>2026-03-24T13:15:56.118Z</time></trkpt><trkpt lat="40.9340967" lon="14.05925"><ele>30.571428571428573</ele><time>2026-03-24T13:15:57.118Z</time></trkpt><trkpt lat="40.9341" lon="14.0591633"><ele>30.714285714285715</ele><time>2026-03-24T13:15:58.118Z</time></trkpt><trkpt lat="40.9341017" lon="14.05908"><ele>30.857142857142858</ele><time>2026-03-24T13:15:59.118Z</time></trkpt><trkpt lat="40.9341083" lon="14.0589933"><ele>31.0</ele><time>2026-03-24T13:16:00.118Z</time></trkpt><trkpt lat="40.9341117" lon="14.0589033"><ele>31.0</ele><time>2026-03-24T13:16:01.119Z</time></trkpt><trkpt lat="40.9341167" lon="14.058815"><ele>31.000000000000004</ele><time>2026-03-24T13:16:02.118Z</time></trkpt><trkpt lat="40.934125" lon="14.0587217"><ele>31.0</ele><time>2026-03-24T13:16:03.118Z</time></trkpt><trkpt lat="40.9341367" lon="14.058625"><ele>31.0</ele><time>2026-03-24T13:16:04.119Z</time></trkpt><trkpt lat="40.9341483" lon="14.05853"><ele>31.000000000000004</ele><time>2026-03-24T13:16:05.118Z</time></trkpt><trkpt lat="40.9341617" lon="14.05843"><ele>31.0</ele><time>2026-03-24T13:16:06.118Z</time></trkpt><trkpt lat="40.934175" lon="14.058335"><ele>31.0</ele><time>2026-03-24T13:16:07.118Z</time></trkpt><trkpt lat="40.9341867" lon="14.058245"><ele>31.000000000000004</ele><time>2026-03-24T13:16:08.118Z</time></trkpt><trkpt lat="40.9342017" lon="14.0581433"><ele>31.0</ele><time>2026-03-24T13:16:09.12Z</time></trkpt><trkpt lat="40.9342133" lon="14.058035"><ele>31.0</ele><time>2026-03-24T13:16:10.118Z</time></trkpt><trkpt lat="40.9342233" lon="14.0579317"><ele>31.0</ele><time>2026-03-24T13:16:11.118Z</time></trkpt><trkpt lat="40.934235" lon="14.0578333"><ele>31.000000000000004</ele><time>2026-03-24T13:16:12.118Z</time></trkpt><trkpt lat="40.93425" lon="14.0577333"><ele>31.0</ele><time>2026-03-24T13:16:13.119Z</time></trkpt><trkpt lat="40.93426" lon="14.0576283"><ele>30.500000000000004</ele><time>2026-03-24T13:16:14.119Z</time></trkpt><trkpt lat="40.9342717" lon="14.057525"><ele>30.0</ele><time>2026-03-24T13:16:15.118Z</time></trkpt><trkpt lat="40.934285" lon="14.05742"><ele>29.5</ele><time>2026-03-24T13:16:16.117Z</time></trkpt><trkpt lat="40.9342983" lon="14.05731"><ele>29.0</ele><time>2026-03-24T13:16:17.118Z</time></trkpt><trkpt lat="40.9343133" lon="14.0572033"><ele>28.500000000000004</ele><time>2026-03-24T13:16:18.118Z</time></trkpt><trkpt lat="40.934325" lon="14.0570983"><ele>28.0</ele><time>2026-03-24T13:16:19.118Z</time></trkpt><trkpt lat="40.9343333" lon="14.0569933"><ele>28.000000000000004</ele><time>2026-03-24T13:16:20.118Z</time></trkpt><trkpt lat="40.9343433" lon="14.0568883"><ele>28.0</ele><time>2026-03-24T13:16:21.119Z</time></trkpt><trkpt lat="40.9343517" lon="14.0567883"><ele>28.0</ele><time>2026-03-24T13:16:22.12Z</time></trkpt><trkpt lat="40.9343567" lon="14.0566833"><ele>28.0</ele><time>2026-03-24T13:16:23.118Z</time></trkpt><trkpt lat="40.9343717" lon="14.0565683"><ele>28.000000000000004</ele><time>2026-03-24T13:16:24.118Z</time></trkpt><trkpt lat="40.93439" lon="14.05645"><ele>28.0</ele><time>2026-03-24T13:16:25.118Z</time></trkpt><trkpt lat="40.934405" lon="14.05632"><ele>28.2</ele><time>2026-03-24T13:16:26.119Z</time></trkpt><trkpt lat="40.93442" lon="14.0561933"><ele>28.4</ele><time>2026-03-24T13:16:27.118Z</time></trkpt><trkpt lat="40.9344283" lon="14.05606"><ele>28.599999999999998</ele><time>2026-03-24T13:16:28.118Z</time></trkpt><trkpt lat="40.934435" lon="14.055925"><ele>28.799999999999997</ele><time>2026-03-24T13:16:29.118Z</time></trkpt><trkpt lat="40.9344383" lon="14.0557917"><ele>29.0</ele><time>2026-03-24T13:16:30.119Z</time></trkpt><trkpt lat="40.9344317" lon="14.0556533"><ele>29.0</ele><time>2026-03-24T13:16:31.119Z</time></trkpt><trkpt lat="40.9344217" lon="14.055515"><ele>29.0</ele><time>2026-03-24T13:16:32.118Z</time></trkpt><trkpt lat="40.9344167" lon="14.0553717"><ele>29.0</ele><time>2026-03-24T13:16:33.119Z</time></trkpt><trkpt lat="40.9344133" lon="14.0552283"><ele>29.0</ele><time>2026-03-24T13:16:34.12Z</time></trkpt><trkpt lat="40.9344067" lon="14.0550917"><ele>29.0</ele><time>2026-03-24T13:16:35.119Z</time></trkpt><trkpt lat="40.9343683" lon="14.0549417"><ele>29.0</ele><time>2026-03-24T13:16:36.119Z</time></trkpt><trkpt lat="40.9343183" lon="14.0547867"><ele>29.0</ele><time>2026-03-24T13:16:37.118Z</time></trkpt><trkpt lat="40.9342817" lon="14.0546317"><ele>29.0</ele><time>2026-03-24T13:16:38.119Z</time></trkpt><trkpt lat="40.9342567" lon="14.0544833"><ele>29.0</ele><time>2026-03-24T13:16:39.118Z</time></trkpt><trkpt lat="40.9342383" lon="14.0543367"><ele>29.0</ele><time>2026-03-24T13:16:40.118Z</time></trkpt><trkpt lat="40.9342283" lon="14.05419"><ele>29.0</ele><time>2026-03-24T13:16:41.117Z</time></trkpt><trkpt lat="40.9342233" lon="14.054055"><ele>29.0</ele><time>2026-03-24T13:16:42.118Z</time></trkpt><trkpt lat="40.9342167" lon="14.0539167"><ele>29.0</ele><time>2026-03-24T13:16:43.118Z</time></trkpt><trkpt lat="40.934215" lon="14.0537833"><ele>29.0</ele><time>2026-03-24T13:16:44.119Z</time></trkpt><trkpt lat="40.934215" lon="14.0536567"><ele>28.499999999999996</ele><time>2026-03-24T13:16:45.118Z</time></trkpt><trkpt lat="40.9342133" lon="14.05354"><ele>28.0</ele><time>2026-03-24T13:16:46.118Z</time></trkpt><trkpt lat="40.934215" lon="14.0534317"><ele>27.5</ele><time>2026-03-24T13:16:47.119Z</time></trkpt><trkpt lat="40.934215" lon="14.0533283"><ele>27.0</ele><time>2026-03-24T13:16:48.118Z</time></trkpt><trkpt lat="40.9342217" lon="14.0532283"><ele>26.499999999999996</ele><time>2026-03-24T13:16:49.118Z</time></trkpt><trkpt lat="40.9342283" lon="14.0531317"><ele>26.0</ele><time>2026-03-24T13:16:50.118Z</time></trkpt><trkpt lat="40.9342367" lon="14.0530317"><ele>26.0</ele><time>2026-03-24T13:16:51.119Z</time></trkpt><trkpt lat="40.9342433" lon="14.052935"><ele>26.0</ele><time>2026-03-24T13:16:52.118Z</time></trkpt><trkpt lat="40.9342517" lon="14.052835"><ele>26.0</ele><time>2026-03-24T13:16:53.118Z</time></trkpt><trkpt lat="40.9342567" lon="14.052745"><ele>26.0</ele><time>2026-03-24T13:16:54.118Z</time></trkpt><trkpt lat="40.93426" lon="14.0526517"><ele>26.0</ele><time>2026-03-24T13:16:55.122Z</time></trkpt><trkpt lat="40.9342683" lon="14.0525617"><ele>26.0</ele><time>2026-03-24T13:16:56.118Z</time></trkpt><trkpt lat="40.93427" lon="14.0524667"><ele>26.0</ele><time>2026-03-24T13:16:57.118Z</time></trkpt><trkpt lat="40.9342683" lon="14.0523717"><ele>25.71428571428571</ele><time>2026-03-24T13:16:58.118Z</time></trkpt><trkpt lat="40.9342717" lon="14.052275"><ele>25.42857142857143</ele><time>2026-03-24T13:16:59.119Z</time></trkpt><trkpt lat="40.9342767" lon="14.0521783"><ele>25.142857142857142</ele><time>2026-03-24T13:17:00.118Z</time></trkpt><trkpt lat="40.9342783" lon="14.05208"><ele>24.857142857142854</ele><time>2026-03-24T13:17:01.118Z</time></trkpt><trkpt lat="40.9342833" lon="14.05198"><ele>24.57142857142857</ele><time>2026-03-24T13:17:02.12Z</time></trkpt><trkpt lat="40.9342917" lon="14.051885"><ele>24.285714285714285</ele><time>2026-03-24T13:17:03.118Z</time></trkpt><trkpt lat="40.9343017" lon="14.0517917"><ele>24.0</ele><time>2026-03-24T13:17:04.119Z</time></trkpt><trkpt lat="40.9343083" lon="14.0517"><ele>23.57142857142857</ele><time>2026-03-24T13:17:05.118Z</time></trkpt><trkpt lat="40.934315" lon="14.0516083"><ele>23.142857142857142</ele><time>2026-03-24T13:17:06.118Z</time></trkpt><trkpt lat="40.9343183" lon="14.0515217"><ele>22.714285714285715</ele><time>2026-03-24T13:17:07.118Z</time></trkpt><trkpt lat="40.93432" lon="14.051435"><ele>22.285714285714285</ele><time>2026-03-24T13:17:08.12Z</time></trkpt><trkpt lat="40.934325" lon="14.0513483"><ele>21.857142857142858</ele><time>2026-03-24T13:17:09.118Z</time></trkpt><trkpt lat="40.93433" lon="14.0512633"><ele>21.428571428571427</ele><time>2026-03-24T13:17:10.118Z</time></trkpt><trkpt lat="40.9343367" lon="14.0511717"><ele>21.0</ele><time>2026-03-24T13:17:11.118Z</time></trkpt><trkpt lat="40.9343433" lon="14.0510767"><ele>21.0</ele><time>2026-03-24T13:17:12.118Z</time></trkpt><trkpt lat="40.9343483" lon="14.0509833"><ele>21.0</ele><time>2026-03-24T13:17:13.118Z</time></trkpt><trkpt lat="40.9343533" lon="14.0508883"><ele>21.0</ele><time>2026-03-24T13:17:14.118Z</time></trkpt><trkpt lat="40.9343583" lon="14.05079"><ele>21.0</ele><time>2026-03-24T13:17:15.118Z</time></trkpt><trkpt lat="40.9343633" lon="14.05069"><ele>21.0</ele><time>2026-03-24T13:17:16.118Z</time></trkpt><trkpt lat="40.934375" lon="14.0505883"><ele>21.0</ele><time>2026-03-24T13:17:17.118Z</time></trkpt><trkpt lat="40.934385" lon="14.050485"><ele>21.0</ele><time>2026-03-24T13:17:18.118Z</time></trkpt><trkpt lat="40.9343967" lon="14.0503767"><ele>21.0</ele><time>2026-03-24T13:17:19.118Z</time></trkpt><trkpt lat="40.93441" lon="14.0502667"><ele>21.0</ele><time>2026-03-24T13:17:20.118Z</time></trkpt><trkpt lat="40.9344217" lon="14.050155"><ele>21.0</ele><time>2026-03-24T13:17:21.118Z</time></trkpt><trkpt lat="40.9344333" lon="14.0500433"><ele>21.0</ele><time>2026-03-24T13:17:22.118Z</time></trkpt><trkpt lat="40.9344433" lon="14.0499317"><ele>21.0</ele><time>2026-03-24T13:17:23.12Z</time></trkpt><trkpt lat="40.934455" lon="14.0498183"><ele>21.0</ele><time>2026-03-24T13:17:24.119Z</time></trkpt><trkpt lat="40.93446" lon="14.049705"><ele>21.166666666666668</ele><time>2026-03-24T13:17:25.118Z</time></trkpt><trkpt lat="40.9344683" lon="14.049595"><ele>21.333333333333332</ele><time>2026-03-24T13:17:26.118Z</time></trkpt><trkpt lat="40.9344783" lon="14.049485"><ele>21.5</ele><time>2026-03-24T13:17:27.118Z</time></trkpt><trkpt lat="40.93449" lon="14.0493733"><ele>21.666666666666664</ele><time>2026-03-24T13:17:28.118Z</time></trkpt><trkpt lat="40.9345033" lon="14.0492617"><ele>21.833333333333332</ele><time>2026-03-24T13:17:29.118Z</time></trkpt><trkpt lat="40.934515" lon="14.0491483"><ele>22.0</ele><time>2026-03-24T13:17:30.118Z</time></trkpt><trkpt lat="40.9345267" lon="14.0490383"><ele>22.166666666666664</ele><time>2026-03-24T13:17:31.118Z</time></trkpt><trkpt lat="40.9345383" lon="14.04893"><ele>22.333333333333332</ele><time>2026-03-24T13:17:32.118Z</time></trkpt><trkpt lat="40.9345517" lon="14.0488267"><ele>22.5</ele><time>2026-03-24T13:17:33.119Z</time></trkpt><trkpt lat="40.9345633" lon="14.0487217"><ele>22.666666666666668</ele><time>2026-03-24T13:17:34.118Z</time></trkpt><trkpt lat="40.93457" lon="14.0486167"><ele>22.833333333333336</ele><time>2026-03-24T13:17:35.118Z</time></trkpt><trkpt lat="40.9345767" lon="14.0485133"><ele>23.0</ele><time>2026-03-24T13:17:36.119Z</time></trkpt><trkpt lat="40.934585" lon="14.048405"><ele>23.0</ele><time>2026-03-24T13:17:37.118Z</time></trkpt><trkpt lat="40.9345883" lon="14.0483017"><ele>23.0</ele><time>2026-03-24T13:17:38.119Z</time></trkpt><trkpt lat="40.93459" lon="14.0481983"><ele>23.0</ele><time>2026-03-24T13:17:39.118Z</time></trkpt><trkpt lat="40.9345917" lon="14.0480933"><ele>23.0</ele><time>2026-03-24T13:17:40.118Z</time></trkpt><trkpt lat="40.9345917" lon="14.0479917"><ele>23.0</ele><time>2026-03-24T13:17:41.118Z</time></trkpt><trkpt lat="40.93459" lon="14.0478883"><ele>23.0</ele><time>2026-03-24T13:17:42.118Z</time></trkpt><trkpt lat="40.9345917" lon="14.047785"><ele>22.857142857142858</ele><time>2026-03-24T13:17:43.118Z</time></trkpt><trkpt lat="40.9345917" lon="14.047685"><ele>22.71428571428571</ele><time>2026-03-24T13:17:44.118Z</time></trkpt><trkpt lat="40.9345883" lon="14.047585"><ele>22.57142857142857</ele><time>2026-03-24T13:17:45.118Z</time></trkpt><trkpt lat="40.93458" lon="14.0474833"><ele>22.42857142857143</ele><time>2026-03-24T13:17:46.119Z</time></trkpt><trkpt lat="40.9345667" lon="14.0473833"><ele>22.285714285714285</ele><time>2026-03-24T13:17:47.118Z</time></trkpt><trkpt lat="40.9345517" lon="14.0472883"><ele>22.142857142857142</ele><time>2026-03-24T13:17:48.119Z</time></trkpt><trkpt lat="40.934535" lon="14.0471983"><ele>22.0</ele><time>2026-03-24T13:17:49.119Z</time></trkpt><trkpt lat="40.9345217" lon="14.047105"><ele>21.857142857142858</ele><time>2026-03-24T13:17:50.119Z</time></trkpt><trkpt lat="40.93451" lon="14.0470133"><ele>21.714285714285715</ele><time>2026-03-24T13:17:51.118Z</time></trkpt><trkpt lat="40.9345" lon="14.0469233"><ele>21.57142857142857</ele><time>2026-03-24T13:17:52.118Z</time></trkpt><trkpt lat="40.9344883" lon="14.0468317"><ele>21.42857142857143</ele><time>2026-03-24T13:17:53.118Z</time></trkpt><trkpt lat="40.9344717" lon="14.0467383"><ele>21.285714285714285</ele><time>2026-03-24T13:17:54.118Z</time></trkpt><trkpt lat="40.9344617" lon="14.0466433"><ele>21.142857142857142</ele><time>2026-03-24T13:17:55.118Z</time></trkpt><trkpt lat="40.93445" lon="14.046555"><ele>21.0</ele><time>2026-03-24T13:17:56.118Z</time></trkpt><trkpt lat="40.9344383" lon="14.046465"><ele>20.857142857142858</ele><time>2026-03-24T13:17:57.119Z</time></trkpt><trkpt lat="40.9344283" lon="14.046375"><ele>20.714285714285715</ele><time>2026-03-24T13:17:58.118Z</time></trkpt><trkpt lat="40.934415" lon="14.0462833"><ele>20.57142857142857</ele><time>2026-03-24T13:17:59.118Z</time></trkpt><trkpt lat="40.9344033" lon="14.0461917"><ele>20.42857142857143</ele><time>2026-03-24T13:18:00.118Z</time></trkpt><trkpt lat="40.9343967" lon="14.0460983"><ele>20.285714285714285</ele><time>2026-03-24T13:18:01.119Z</time></trkpt><trkpt lat="40.9343917" lon="14.0460033"><ele>20.142857142857142</ele><time>2026-03-24T13:18:02.118Z</time></trkpt><trkpt lat="40.9343783" lon="14.0459083"><ele>20.0</ele><time>2026-03-24T13:18:03.118Z</time></trkpt><trkpt lat="40.934365" lon="14.045815"><ele>19.714285714285715</ele><time>2026-03-24T13:18:04.119Z</time></trkpt><trkpt lat="40.9343533" lon="14.04572"><ele>19.42857142857143</ele><time>2026-03-24T13:18:05.118Z</time></trkpt><trkpt lat="40.9343383" lon="14.04563"><ele>19.142857142857146</ele><time>2026-03-24T13:18:06.119Z</time></trkpt><trkpt lat="40.9343217" lon="14.0455417"><ele>18.857142857142858</ele><time>2026-03-24T13:18:07.118Z</time></trkpt><trkpt lat="40.934305" lon="14.045455"><ele>18.571428571428573</ele><time>2026-03-24T13:18:08.119Z</time></trkpt><trkpt lat="40.9342883" lon="14.0453683"><ele>18.28571428571429</ele><time>2026-03-24T13:18:09.118Z</time></trkpt><trkpt lat="40.934275" lon="14.0452817"><ele>18.0</ele><time>2026-03-24T13:18:10.118Z</time></trkpt><trkpt lat="40.9342717" lon="14.0451933"><ele>18.000000000000004</ele><time>2026-03-24T13:18:11.118Z</time></trkpt><trkpt lat="40.93427" lon="14.0451067"><ele>18.0</ele><time>2026-03-24T13:18:12.119Z</time></trkpt><trkpt lat="40.9342667" lon="14.0450167"><ele>18.0</ele><time>2026-03-24T13:18:13.118Z</time></trkpt><trkpt lat="40.9342617" lon="14.0449267"><ele>18.0</ele><time>2026-03-24T13:18:14.12Z</time></trkpt><trkpt lat="40.9342483" lon="14.0448367"><ele>18.0</ele><time>2026-03-24T13:18:15.118Z</time></trkpt><trkpt lat="40.93423" lon="14.0447467"><ele>18.000000000000004</ele><time>2026-03-24T13:18:16.118Z</time></trkpt><trkpt lat="40.934205" lon="14.044655"><ele>18.0</ele><time>2026-03-24T13:18:17.119Z</time></trkpt><trkpt lat="40.93418" lon="14.0445617"><ele>17.5</ele><time>2026-03-24T13:18:18.118Z</time></trkpt><trkpt lat="40.9341567" lon="14.044465"><ele>17.0</ele><time>2026-03-24T13:18:19.119Z</time></trkpt><trkpt lat="40.9341283" lon="14.0443683"><ele>16.5</ele><time>2026-03-24T13:18:20.119Z</time></trkpt><trkpt lat="40.9341" lon="14.044265"><ele>16.0</ele><time>2026-03-24T13:18:21.119Z</time></trkpt><trkpt lat="40.9340717" lon="14.0441633"><ele>15.5</ele><time>2026-03-24T13:18:22.119Z</time></trkpt><trkpt lat="40.934045" lon="14.04406"><ele>15.0</ele><time>2026-03-24T13:18:23.118Z</time></trkpt><trkpt lat="40.934015" lon="14.0439567"><ele>14.166666666666666</ele><time>2026-03-24T13:18:24.118Z</time></trkpt><trkpt lat="40.9339883" lon="14.0438483"><ele>13.333333333333334</ele><time>2026-03-24T13:18:25.118Z</time></trkpt><trkpt lat="40.9339667" lon="14.04374"><ele>12.5</ele><time>2026-03-24T13:18:26.119Z</time></trkpt><trkpt lat="40.93395" lon="14.0436217"><ele>11.666666666666668</ele><time>2026-03-24T13:18:27.118Z</time></trkpt><trkpt lat="40.9339333" lon="14.0435033"><ele>10.833333333333334</ele><time>2026-03-24T13:18:28.118Z</time></trkpt><trkpt lat="40.933915" lon="14.043385"><ele>10.0</ele><time>2026-03-24T13:18:29.118Z</time></trkpt><trkpt lat="40.933895" lon="14.0432717"><ele>9.0</ele><time>2026-03-24T13:18:30.12Z</time></trkpt><trkpt lat="40.9338783" lon="14.043155"><ele>8.0</ele><time>2026-03-24T13:18:31.118Z</time></trkpt><trkpt lat="40.9338633" lon="14.0430367"><ele>7.0</ele><time>2026-03-24T13:18:32.119Z</time></trkpt><trkpt lat="40.93385" lon="14.04292"><ele>6.0</ele><time>2026-03-24T13:18:33.118Z</time></trkpt><trkpt lat="40.9338333" lon="14.0428033"><ele>5.0</ele><time>2026-03-24T13:18:34.119Z</time></trkpt><trkpt lat="40.9338083" lon="14.0426833"><ele>5.0</ele><time>2026-03-24T13:18:35.119Z</time></trkpt><trkpt lat="40.9337767" lon="14.0425667"><ele>5.0</ele><time>2026-03-24T13:18:36.119Z</time></trkpt><trkpt lat="40.9337317" lon="14.0424583"><ele>5.0</ele><time>2026-03-24T13:18:37.118Z</time></trkpt><trkpt lat="40.933675" lon="14.0423617"><ele>5.0</ele><time>2026-03-24T13:18:38.118Z</time></trkpt><trkpt lat="40.9336033" lon="14.04228"><ele>5.0</ele><time>2026-03-24T13:18:39.12Z</time></trkpt><trkpt lat="40.9335183" lon="14.0422083"><ele>5.0</ele><time>2026-03-24T13:18:40.118Z</time></trkpt><trkpt lat="40.9334283" lon="14.042145"><ele>5.0</ele><time>2026-03-24T13:18:41.118Z</time></trkpt><trkpt lat="40.9333367" lon="14.042085"><ele>5.0</ele><time>2026-03-24T13:18:42.118Z</time></trkpt><trkpt lat="40.9332467" lon="14.0420233"><ele>5.0</ele><time>2026-03-24T13:18:43.118Z</time></trkpt><trkpt lat="40.9331583" lon="14.0419583"><ele>5.0</ele><time>2026-03-24T13:18:44.119Z</time></trkpt><trkpt lat="40.9330767" lon="14.0418917"><ele>5.0</ele><time>2026-03-24T13:18:45.118Z</time></trkpt><trkpt lat="40.9329933" lon="14.04181"><ele>5.0</ele><time>2026-03-24T13:18:46.12Z</time></trkpt><trkpt lat="40.932915" lon="14.0417167"><ele>5.0</ele><time>2026-03-24T13:18:47.118Z</time></trkpt><trkpt lat="40.93285" lon="14.0416117"><ele>5.0</ele><time>2026-03-24T13:18:48.118Z</time></trkpt><trkpt lat="40.9328" lon="14.0414933"><ele>5.0</ele><time>2026-03-24T13:18:49.118Z</time></trkpt><trkpt lat="40.9327533" lon="14.0413717"><ele>4.2</ele><time>2026-03-24T13:18:50.118Z</time></trkpt><trkpt lat="40.932715" lon="14.041245"><ele>3.4</ele><time>2026-03-24T13:18:51.118Z</time></trkpt><trkpt lat="40.9326867" lon="14.0411167"><ele>2.6</ele><time>2026-03-24T13:18:52.118Z</time></trkpt><trkpt lat="40.9326683" lon="14.0409833"><ele>1.8</ele><time>2026-03-24T13:18:53.118Z</time></trkpt><trkpt lat="40.9326567" lon="14.04085"><ele>1.0</ele><time>2026-03-24T13:18:54.119Z</time></trkpt><trkpt lat="40.9326367" lon="14.0407183"><ele>0.8</ele><time>2026-03-24T13:18:55.118Z</time></trkpt><trkpt lat="40.93262" lon="14.0405933"><ele>0.6000000000000001</ele><time>2026-03-24T13:18:56.119Z</time></trkpt><trkpt lat="40.9326067" lon="14.0404717"><ele>0.4</ele><time>2026-03-24T13:18:57.118Z</time></trkpt><trkpt lat="40.93259" lon="14.0403483"><ele>0.2</ele><time>2026-03-24T13:18:58.118Z</time></trkpt><trkpt lat="40.9325783" lon="14.040235"><ele>0.0</ele><time>2026-03-24T13:18:59.118Z</time></trkpt><trkpt lat="40.9325667" lon="14.0401233"><ele>0.3333333333333333</ele><time>2026-03-24T13:19:00.118Z</time></trkpt><trkpt lat="40.9325533" lon="14.0400167"><ele>0.6666666666666666</ele><time>2026-03-24T13:19:01.119Z</time></trkpt><trkpt lat="40.932535" lon="14.0399117"><ele>1.0</ele><time>2026-03-24T13:19:02.119Z</time></trkpt><trkpt lat="40.93252" lon="14.0398083"><ele>1.3333333333333333</ele><time>2026-03-24T13:19:03.118Z</time></trkpt><trkpt lat="40.932505" lon="14.039705"><ele>1.6666666666666665</ele><time>2026-03-24T13:19:04.118Z</time></trkpt><trkpt lat="40.9324883" lon="14.0396067"><ele>2.0</ele><time>2026-03-24T13:19:05.118Z</time></trkpt><trkpt lat="40.93248" lon="14.03952"><ele>1.9999999999999998</ele><time>2026-03-24T13:19:06.118Z</time></trkpt><trkpt lat="40.9324917" lon="14.039435"><ele>2.0</ele><time>2026-03-24T13:19:07.118Z</time></trkpt><trkpt lat="40.932545" lon="14.039305"><ele>2.0</ele><time>2026-03-24T13:19:09.121Z</time></trkpt><trkpt lat="40.93267" lon="14.0392633"><ele>2.0</ele><time>2026-03-24T13:19:11.118Z</time></trkpt><trkpt lat="40.9327367" lon="14.03926"><ele>1.9999999999999998</ele><time>2026-03-24T13:19:12.12Z</time></trkpt><trkpt lat="40.9328" lon="14.039265"><ele>2.0</ele><time>2026-03-24T13:19:13.118Z</time></trkpt><trkpt lat="40.9328633" lon="14.0392817"><ele>1.4285714285714284</ele><time>2026-03-24T13:19:14.118Z</time></trkpt><trkpt lat="40.93293" lon="14.0393183"><ele>0.857142857142857</ele><time>2026-03-24T13:19:15.118Z</time></trkpt><trkpt lat="40.9329933" lon="14.0393633"><ele>0.2857142857142857</ele><time>2026-03-24T13:19:16.118Z</time></trkpt><trkpt lat="40.9330533" lon="14.0394167"><ele>-0.2857142857142857</ele><time>2026-03-24T13:19:17.119Z</time></trkpt><trkpt lat="40.9331183" lon="14.0394683"><ele>-0.857142857142857</ele><time>2026-03-24T13:19:18.118Z</time></trkpt><trkpt lat="40.9331817" lon="14.0395167"><ele>-1.4285714285714284</ele><time>2026-03-24T13:19:19.119Z</time></trkpt><trkpt lat="40.9332467" lon="14.039565"><ele>-2.0</ele><time>2026-03-24T13:19:20.118Z</time></trkpt><trkpt lat="40.9333183" lon="14.0396133"><ele>-1.9999999999999998</ele><time>2026-03-24T13:19:21.119Z</time></trkpt><trkpt lat="40.93339" lon="14.0396633"><ele>-2.0</ele><time>2026-03-24T13:19:22.118Z</time></trkpt><trkpt lat="40.9334667" lon="14.0397167"><ele>-2.0</ele><time>2026-03-24T13:19:23.118Z</time></trkpt><trkpt lat="40.9335367" lon="14.0397683"><ele>-2.0</ele><time>2026-03-24T13:19:24.119Z</time></trkpt><trkpt lat="40.9336083" lon="14.03982"><ele>-1.9999999999999998</ele><time>2026-03-24T13:19:25.118Z</time></trkpt><trkpt lat="40.9336767" lon="14.0398717"><ele>-2.0</ele><time>2026-03-24T13:19:26.119Z</time></trkpt><trkpt lat="40.9337483" lon="14.039925"><ele>-1.9999999999999998</ele><time>2026-03-24T13:19:27.119Z</time></trkpt><trkpt lat="40.9338183" lon="14.039975"><ele>-2.0</ele><time>2026-03-24T13:19:28.118Z</time></trkpt><trkpt lat="40.9338917" lon="14.040025"><ele>-2.0</ele><time>2026-03-24T13:19:29.119Z</time></trkpt><trkpt lat="40.9339633" lon="14.040075"><ele>-2.0</ele><time>2026-03-24T13:19:30.119Z</time></trkpt><trkpt lat="40.9340317" lon="14.0401217"><ele>-1.9999999999999998</ele><time>2026-03-24T13:19:31.118Z</time></trkpt><trkpt lat="40.9340967" lon="14.0401667"><ele>-2.0</ele><time>2026-03-24T13:19:32.118Z</time></trkpt><trkpt lat="40.9341633" lon="14.0402117"><ele>-2.0</ele><time>2026-03-24T13:19:33.118Z</time></trkpt><trkpt lat="40.93423" lon="14.04026"><ele>-1.9999999999999998</ele><time>2026-03-24T13:19:34.118Z</time></trkpt><trkpt lat="40.934295" lon="14.040305"><ele>-2.0</ele><time>2026-03-24T13:19:35.118Z</time></trkpt><trkpt lat="40.9343583" lon="14.04035"><ele>-2.0</ele><time>2026-03-24T13:19:36.119Z</time></trkpt><trkpt lat="40.93442" lon="14.0403983"><ele>-1.9999999999999998</ele><time>2026-03-24T13:19:37.118Z</time></trkpt><trkpt lat="40.9344833" lon="14.0404467"><ele>-2.0</ele><time>2026-03-24T13:19:38.119Z</time></trkpt><trkpt lat="40.9345433" lon="14.0405"><ele>-2.0</ele><time>2026-03-24T13:19:39.118Z</time></trkpt><trkpt lat="40.934605" lon="14.0405467"><ele>-2.0</ele><time>2026-03-24T13:19:40.118Z</time></trkpt><trkpt lat="40.9346717" lon="14.04059"><ele>-1.9999999999999998</ele><time>2026-03-24T13:19:41.118Z</time></trkpt><trkpt lat="40.93474" lon="14.0406217"><ele>-2.0</ele><time>2026-03-24T13:19:42.118Z</time></trkpt><trkpt lat="40.93481" lon="14.0406483"><ele>-2.0</ele><time>2026-03-24T13:19:43.118Z</time></trkpt><trkpt lat="40.9348817" lon="14.0406667"><ele>-1.9999999999999998</ele><time>2026-03-24T13:19:44.119Z</time></trkpt><trkpt lat="40.93496" lon="14.0406867"><ele>-2.0</ele><time>2026-03-24T13:19:45.12Z</time></trkpt><trkpt lat="40.935035" lon="14.040705"><ele>-2.0</ele><time>2026-03-24T13:19:46.118Z</time></trkpt><trkpt lat="40.9351117" lon="14.0407233"><ele>-1.9999999999999998</ele><time>2026-03-24T13:19:47.118Z</time></trkpt><trkpt lat="40.9351917" lon="14.04074"><ele>-2.0</ele><time>2026-03-24T13:19:48.119Z</time></trkpt><trkpt lat="40.9352667" lon="14.0407583"><ele>-2.0</ele><time>2026-03-24T13:19:49.118Z</time></trkpt><trkpt lat="40.93534" lon="14.0407733"><ele>-2.0</ele><time>2026-03-24T13:19:50.121Z</time></trkpt><trkpt lat="40.9354183" lon="14.04079"><ele>-1.9999999999999998</ele><time>2026-03-24T13:19:51.118Z</time></trkpt><trkpt lat="40.9355" lon="14.040805"><ele>-2.0</ele><time>2026-03-24T13:19:52.118Z</time></trkpt><trkpt lat="40.93558" lon="14.04082"><ele>-1.9999999999999998</ele><time>2026-03-24T13:19:53.118Z</time></trkpt><trkpt lat="40.9356633" lon="14.0408383"><ele>-2.0</ele><time>2026-03-24T13:19:54.118Z</time></trkpt><trkpt lat="40.93574" lon="14.0408583"><ele>-2.0</ele><time>2026-03-24T13:19:55.118Z</time></trkpt><trkpt lat="40.935815" lon="14.0408767"><ele>-2.0</ele><time>2026-03-24T13:19:56.118Z</time></trkpt><trkpt lat="40.9358917" lon="14.0408967"><ele>-1.9999999999999998</ele><time>2026-03-24T13:19:57.119Z</time></trkpt><trkpt lat="40.93597" lon="14.040915"><ele>-2.0</ele><time>2026-03-24T13:19:58.118Z</time></trkpt><trkpt lat="40.936045" lon="14.0409367"><ele>-2.0</ele><time>2026-03-24T13:19:59.118Z</time></trkpt><trkpt lat="40.9361183" lon="14.04096"><ele>-1.9999999999999998</ele><time>2026-03-24T13:20:00.119Z</time></trkpt><trkpt lat="40.9361917" lon="14.040985"><ele>-2.0</ele><time>2026-03-24T13:20:01.118Z</time></trkpt><trkpt lat="40.93626" lon="14.041005"><ele>-2.0</ele><time>2026-03-24T13:20:02.118Z</time></trkpt><trkpt lat="40.93633" lon="14.0410233"><ele>-1.9999999999999998</ele><time>2026-03-24T13:20:03.118Z</time></trkpt><trkpt lat="40.9364033" lon="14.0410433"><ele>-2.0</ele><time>2026-03-24T13:20:04.118Z</time></trkpt><trkpt lat="40.93648" lon="14.04107"><ele>-2.0</ele><time>2026-03-24T13:20:05.118Z</time></trkpt><trkpt lat="40.9365567" lon="14.0410933"><ele>-1.9999999999999998</ele><time>2026-03-24T13:20:06.119Z</time></trkpt><trkpt lat="40.9366283" lon="14.041115"><ele>-2.0</ele><time>2026-03-24T13:20:07.118Z</time></trkpt><trkpt lat="40.9367033" lon="14.0411317"><ele>-2.0</ele><time>2026-03-24T13:20:08.118Z</time></trkpt><trkpt lat="40.93678" lon="14.04115"><ele>-2.0</ele><time>2026-03-24T13:20:09.119Z</time></trkpt><trkpt lat="40.9368583" lon="14.04117"><ele>-1.9999999999999998</ele><time>2026-03-24T13:20:10.118Z</time></trkpt><trkpt lat="40.9369383" lon="14.0411883"><ele>-2.0</ele><time>2026-03-24T13:20:11.118Z</time></trkpt><trkpt lat="40.9370167" lon="14.0412033"><ele>-1.9999999999999998</ele><time>2026-03-24T13:20:12.119Z</time></trkpt><trkpt lat="40.937095" lon="14.0412217"><ele>-2.0</ele><time>2026-03-24T13:20:13.119Z</time></trkpt><trkpt lat="40.937175" lon="14.0412383"><ele>-2.0</ele><time>2026-03-24T13:20:14.119Z</time></trkpt><trkpt lat="40.9372533" lon="14.041255"><ele>-2.0</ele><time>2026-03-24T13:20:15.118Z</time></trkpt><trkpt lat="40.93733" lon="14.0412733"><ele>-1.9999999999999998</ele><time>2026-03-24T13:20:16.119Z</time></trkpt><trkpt lat="40.9374067" lon="14.04129"><ele>-2.0</ele><time>2026-03-24T13:20:17.121Z</time></trkpt><trkpt lat="40.9374817" lon="14.0413033"><ele>-1.9999999999999998</ele><time>2026-03-24T13:20:18.118Z</time></trkpt><trkpt lat="40.93756" lon="14.0413183"><ele>-2.0</ele><time>2026-03-24T13:20:19.118Z</time></trkpt><trkpt lat="40.93764" lon="14.0413317"><ele>-2.0</ele><time>2026-03-24T13:20:20.118Z</time></trkpt><trkpt lat="40.9377167" lon="14.0413467"><ele>-2.0</ele><time>2026-03-24T13:20:21.118Z</time></trkpt><trkpt lat="40.9377933" lon="14.0413583"><ele>-1.9999999999999998</ele><time>2026-03-24T13:20:22.118Z</time></trkpt><trkpt lat="40.9378717" lon="14.0413683"><ele>-2.0</ele><time>2026-03-24T13:20:23.118Z</time></trkpt><trkpt lat="40.9379517" lon="14.04138"><ele>-2.0</ele><time>2026-03-24T13:20:24.119Z</time></trkpt><trkpt lat="40.93803" lon="14.0413883"><ele>-1.9999999999999998</ele><time>2026-03-24T13:20:25.118Z</time></trkpt><trkpt lat="40.938105" lon="14.0413967"><ele>-2.0</ele><time>2026-03-24T13:20:26.118Z</time></trkpt><trkpt lat="40.938175" lon="14.0414033"><ele>-2.0</ele><time>2026-03-24T13:20:27.119Z</time></trkpt><trkpt lat="40.9382467" lon="14.04141"><ele>-1.9999999999999998</ele><time>2026-03-24T13:20:28.118Z</time></trkpt><trkpt lat="40.9383167" lon="14.0414117"><ele>-2.0</ele><time>2026-03-24T13:20:29.119Z</time></trkpt><trkpt lat="40.9383883" lon="14.041415"><ele>-2.0</ele><time>2026-03-24T13:20:30.12Z</time></trkpt><trkpt lat="40.9384633" lon="14.0414217"><ele>-1.9999999999999998</ele><time>2026-03-24T13:20:31.118Z</time></trkpt><trkpt lat="40.9385467" lon="14.0414283"><ele>-2.0</ele><time>2026-03-24T13:20:32.118Z</time></trkpt><trkpt lat="40.9386233" lon="14.04143"><ele>-2.0</ele><time>2026-03-24T13:20:33.118Z</time></trkpt><trkpt lat="40.9387" lon="14.0414317"><ele>-2.0</ele><time>2026-03-24T13:20:34.118Z</time></trkpt><trkpt lat="40.9387767" lon="14.04143"><ele>-1.9999999999999998</ele><time>2026-03-24T13:20:35.119Z</time></trkpt><trkpt lat="40.9388533" lon="14.04143"><ele>-2.0</ele><time>2026-03-24T13:20:36.119Z</time></trkpt><trkpt lat="40.9389333" lon="14.0414283"><ele>-1.9999999999999998</ele><time>2026-03-24T13:20:37.118Z</time></trkpt><trkpt lat="40.93901" lon="14.041425"><ele>-2.0</ele><time>2026-03-24T13:20:38.122Z</time></trkpt><trkpt lat="40.93909" lon="14.04142"><ele>-2.0</ele><time>2026-03-24T13:20:39.118Z</time></trkpt><trkpt lat="40.93917" lon="14.041415"><ele>-2.0</ele><time>2026-03-24T13:20:40.119Z</time></trkpt><trkpt lat="40.93925" lon="14.0414067"><ele>-1.9999999999999998</ele><time>2026-03-24T13:20:41.119Z</time></trkpt><trkpt lat="40.93933" lon="14.0413983"><ele>-2.0</ele><time>2026-03-24T13:20:42.12Z</time></trkpt><trkpt lat="40.939405" lon="14.041385"><ele>-1.857142857142857</ele><time>2026-03-24T13:20:43.118Z</time></trkpt><trkpt lat="40.9394767" lon="14.0413717"><ele>-1.714285714285714</ele><time>2026-03-24T13:20:44.118Z</time></trkpt><trkpt lat="40.93955" lon="14.0413583"><ele>-1.5714285714285714</ele><time>2026-03-24T13:20:45.118Z</time></trkpt><trkpt lat="40.93962" lon="14.04134"><ele>-1.4285714285714284</ele><time>2026-03-24T13:20:46.118Z</time></trkpt><trkpt lat="40.9396933" lon="14.0413217"><ele>-1.2857142857142856</ele><time>2026-03-24T13:20:47.118Z</time></trkpt><trkpt lat="40.9397667" lon="14.0413083"><ele>-1.1428571428571428</ele><time>2026-03-24T13:20:48.119Z</time></trkpt><trkpt lat="40.9398383" lon="14.0412917"><ele>-1.0</ele><time>2026-03-24T13:20:49.119Z</time></trkpt><trkpt lat="40.9399067" lon="14.041275"><ele>-1.0</ele><time>2026-03-24T13:20:50.118Z</time></trkpt><trkpt lat="40.9399683" lon="14.041255"><ele>-0.9999999999999999</ele><time>2026-03-24T13:20:51.118Z</time></trkpt><trkpt lat="40.94003" lon="14.0412383"><ele>-1.0</ele><time>2026-03-24T13:20:52.119Z</time></trkpt><trkpt lat="40.9400933" lon="14.0412233"><ele>-1.0</ele><time>2026-03-24T13:20:53.119Z</time></trkpt><trkpt lat="40.9401583" lon="14.041205"><ele>-0.9999999999999999</ele><time>2026-03-24T13:20:54.118Z</time></trkpt><trkpt lat="40.940225" lon="14.0411867"><ele>-1.0</ele><time>2026-03-24T13:20:55.119Z</time></trkpt><trkpt lat="40.94029" lon="14.0411683"><ele>-1.0</ele><time>2026-03-24T13:20:56.118Z</time></trkpt><trkpt lat="40.9403533" lon="14.0411467"><ele>-0.8333333333333333</ele><time>2026-03-24T13:20:57.12Z</time></trkpt><trkpt lat="40.9404167" lon="14.0411233"><ele>-0.6666666666666666</ele><time>2026-03-24T13:20:58.118Z</time></trkpt><trkpt lat="40.94048" lon="14.0411017"><ele>-0.5</ele><time>2026-03-24T13:20:59.118Z</time></trkpt><trkpt lat="40.9405417" lon="14.0410833"><ele>-0.3333333333333333</ele><time>2026-03-24T13:21:00.118Z</time></trkpt><trkpt lat="40.9406533" lon="14.04105"><ele>-0.16666666666666666</ele><time>2026-03-24T13:21:02.119Z</time></trkpt><trkpt lat="40.9407683" lon="14.041015"><ele>0.0</ele><time>2026-03-24T13:21:04.118Z</time></trkpt><trkpt lat="40.94088" lon="14.0409817"><ele>0.0</ele><time>2026-03-24T13:21:06.118Z</time></trkpt><trkpt lat="40.9409883" lon="14.0409517"><ele>0.0</ele><time>2026-03-24T13:21:08.118Z</time></trkpt><trkpt lat="40.941095" lon="14.0409217"><ele>0.0</ele><time>2026-03-24T13:21:10.118Z</time></trkpt><trkpt lat="40.9412017" lon="14.04089"><ele>0.0</ele><time>2026-03-24T13:21:12.118Z</time></trkpt><trkpt lat="40.9413083" lon="14.0408517"><ele>0.0</ele><time>2026-03-24T13:21:14.12Z</time></trkpt><trkpt lat="40.94142" lon="14.0408133"><ele>-0.4</ele><time>2026-03-24T13:21:16.118Z</time></trkpt><trkpt lat="40.941535" lon="14.0407767"><ele>-0.8</ele><time>2026-03-24T13:21:18.118Z</time></trkpt><trkpt lat="40.9415967" lon="14.0407567"><ele>-1.2000000000000002</ele><time>2026-03-24T13:21:19.119Z</time></trkpt><trkpt lat="40.9417067" lon="14.0407233"><ele>-1.6</ele><time>2026-03-24T13:21:21.118Z</time></trkpt><trkpt lat="40.9418267" lon="14.0406917"><ele>-2.0</ele><time>2026-03-24T13:21:23.118Z</time></trkpt><trkpt lat="40.941945" lon="14.0406633"><ele>-2.0</ele><time>2026-03-24T13:21:25.118Z</time></trkpt><trkpt lat="40.9420617" lon="14.0406333"><ele>-2.0</ele><time>2026-03-24T13:21:27.118Z</time></trkpt><trkpt lat="40.9421783" lon="14.0405983"><ele>-2.0</ele><time>2026-03-24T13:21:29.12Z</time></trkpt><trkpt lat="40.9423017" lon="14.0405683"><ele>-2.0</ele><time>2026-03-24T13:21:31.118Z</time></trkpt><trkpt lat="40.9424217" lon="14.0405333"><ele>-2.0</ele><time>2026-03-24T13:21:33.118Z</time></trkpt><trkpt lat="40.9425433" lon="14.040495"><ele>-2.0</ele><time>2026-03-24T13:21:35.118Z</time></trkpt><trkpt lat="40.9426067" lon="14.0404733"><ele>-2.0</ele><time>2026-03-24T13:21:36.119Z</time></trkpt><trkpt lat="40.9426683" lon="14.0404517"><ele>-2.0</ele><time>2026-03-24T13:21:37.119Z</time></trkpt><trkpt lat="40.9427883" lon="14.040405"><ele>-2.0</ele><time>2026-03-24T13:21:39.119Z</time></trkpt><trkpt lat="40.9429067" lon="14.0403533"><ele>-1.7142857142857142</ele><time>2026-03-24T13:21:41.118Z</time></trkpt><trkpt lat="40.9429683" lon="14.0403217"><ele>-1.4285714285714284</ele><time>2026-03-24T13:21:42.118Z</time></trkpt><trkpt lat="40.9430267" lon="14.0402883"><ele>-1.1428571428571428</ele><time>2026-03-24T13:21:43.118Z</time></trkpt><trkpt lat="40.9430833" lon="14.0402517"><ele>-0.8571428571428571</ele><time>2026-03-24T13:21:44.118Z</time></trkpt><trkpt lat="40.943195" lon="14.040175"><ele>-0.5714285714285714</ele><time>2026-03-24T13:21:46.119Z</time></trkpt><trkpt lat="40.94325" lon="14.0401317"><ele>-0.2857142857142857</ele><time>2026-03-24T13:21:47.118Z</time></trkpt><trkpt lat="40.943305" lon="14.0400867"><ele>0.0</ele><time>2026-03-24T13:21:48.118Z</time></trkpt><trkpt lat="40.9433617" lon="14.0400417"><ele>0.14285714285714285</ele><time>2026-03-24T13:21:49.118Z</time></trkpt><trkpt lat="40.9434217" lon="14.04"><ele>0.2857142857142857</ele><time>2026-03-24T13:21:50.118Z</time></trkpt><trkpt lat="40.9434817" lon="14.0399533"><ele>0.42857142857142855</ele><time>2026-03-24T13:21:51.118Z</time></trkpt><trkpt lat="40.9435383" lon="14.0399067"><ele>0.5714285714285714</ele><time>2026-03-24T13:21:52.118Z</time></trkpt><trkpt lat="40.9435917" lon="14.0398583"><ele>0.7142857142857142</ele><time>2026-03-24T13:21:53.118Z</time></trkpt><trkpt lat="40.9436433" lon="14.0398033"><ele>0.8571428571428571</ele><time>2026-03-24T13:21:54.12Z</time></trkpt><trkpt lat="40.9436933" lon="14.039745"><ele>1.0</ele><time>2026-03-24T13:21:55.118Z</time></trkpt><trkpt lat="40.9437433" lon="14.0396883"><ele>1.1666666666666665</ele><time>2026-03-24T13:21:56.118Z</time></trkpt><trkpt lat="40.9437933" lon="14.0396333"><ele>1.3333333333333333</ele><time>2026-03-24T13:21:57.118Z</time></trkpt><trkpt lat="40.9438417" lon="14.0395767"><ele>1.5</ele><time>2026-03-24T13:21:58.118Z</time></trkpt><trkpt lat="40.9439333" lon="14.03946"><ele>1.6666666666666665</ele><time>2026-03-24T13:22:00.118Z</time></trkpt><trkpt lat="40.9439767" lon="14.0393933"><ele>1.8333333333333333</ele><time>2026-03-24T13:22:01.118Z</time></trkpt><trkpt lat="40.9440583" lon="14.0392733"><ele>2.0</ele><time>2026-03-24T13:22:03.119Z</time></trkpt><trkpt lat="40.94414" lon="14.0391617"><ele>1.75</ele><time>2026-03-24T13:22:05.119Z</time></trkpt><trkpt lat="40.9442167" lon="14.0390517"><ele>1.5</ele><time>2026-03-24T13:22:07.118Z</time></trkpt><trkpt lat="40.9442867" lon="14.0389383"><ele>1.25</ele><time>2026-03-24T13:22:09.118Z</time></trkpt><trkpt lat="40.9443633" lon="14.0388183"><ele>1.0</ele><time>2026-03-24T13:22:11.119Z</time></trkpt><trkpt lat="40.9444317" lon="14.0387033"><ele>1.0</ele><time>2026-03-24T13:22:13.12Z</time></trkpt><trkpt lat="40.9445033" lon="14.0385983"><ele>1.0</ele><time>2026-03-24T13:22:15.12Z</time></trkpt><trkpt lat="40.944585" lon="14.03849"><ele>1.0</ele><time>2026-03-24T13:22:17.118Z</time></trkpt><trkpt lat="40.9446583" lon="14.0383867"><ele>1.0</ele><time>2026-03-24T13:22:19.127Z</time></trkpt><trkpt lat="40.9447317" lon="14.0382783"><ele>1.0</ele><time>2026-03-24T13:22:21.118Z</time></trkpt><trkpt lat="40.9448083" lon="14.03816"><ele>0.8</ele><time>2026-03-24T13:22:23.118Z</time></trkpt><trkpt lat="40.9448767" lon="14.0380283"><ele>0.6000000000000001</ele><time>2026-03-24T13:22:25.118Z</time></trkpt><trkpt lat="40.9449317" lon="14.03789"><ele>0.4</ele><time>2026-03-24T13:22:27.119Z</time></trkpt><trkpt lat="40.944975" lon="14.0377383"><ele>0.2</ele><time>2026-03-24T13:22:29.118Z</time></trkpt><trkpt lat="40.945" lon="14.03766"><ele>0.0</ele><time>2026-03-24T13:22:30.118Z</time></trkpt><trkpt lat="40.945055" lon="14.037515"><ele>-0.16666666666666666</ele><time>2026-03-24T13:22:32.118Z</time></trkpt><trkpt lat="40.9450867" lon="14.0374417"><ele>-0.3333333333333333</ele><time>2026-03-24T13:22:33.119Z</time></trkpt><trkpt lat="40.9451517" lon="14.037295"><ele>-0.5</ele><time>2026-03-24T13:22:35.118Z</time></trkpt><trkpt lat="40.9452133" lon="14.0371517"><ele>-0.6666666666666666</ele><time>2026-03-24T13:22:37.119Z</time></trkpt><trkpt lat="40.9452433" lon="14.0370767"><ele>-0.8333333333333333</ele><time>2026-03-24T13:22:38.119Z</time></trkpt><trkpt lat="40.9452717" lon="14.0369983"><ele>-1.0</ele><time>2026-03-24T13:22:39.118Z</time></trkpt><trkpt lat="40.9453" lon="14.03692"><ele>-1.0</ele><time>2026-03-24T13:22:40.118Z</time></trkpt><trkpt lat="40.945325" lon="14.0368417"><ele>-1.0</ele><time>2026-03-24T13:22:41.118Z</time></trkpt><trkpt lat="40.94537" lon="14.0366883"><ele>-1.0</ele><time>2026-03-24T13:22:43.118Z</time></trkpt><trkpt lat="40.9454083" lon="14.0365283"><ele>-1.0</ele><time>2026-03-24T13:22:45.118Z</time></trkpt><trkpt lat="40.9454267" lon="14.0364483"><ele>-1.0</ele><time>2026-03-24T13:22:46.125Z</time></trkpt><trkpt lat="40.9454583" lon="14.0362883"><ele>-1.0</ele><time>2026-03-24T13:22:48.118Z</time></trkpt><trkpt lat="40.9454883" lon="14.0361267"><ele>-1.0</ele><time>2026-03-24T13:22:50.119Z</time></trkpt><trkpt lat="40.9455167" lon="14.035965"><ele>-1.0</ele><time>2026-03-24T13:22:52.118Z</time></trkpt><trkpt lat="40.94553" lon="14.0358783"><ele>-1.0</ele><time>2026-03-24T13:22:53.119Z</time></trkpt><trkpt lat="40.9455417" lon="14.035785"><ele>-1.0</ele><time>2026-03-24T13:22:54.119Z</time></trkpt><trkpt lat="40.9455483" lon="14.0356933"><ele>-1.4285714285714284</ele><time>2026-03-24T13:22:55.12Z</time></trkpt><trkpt lat="40.9455533" lon="14.0356033"><ele>-1.857142857142857</ele><time>2026-03-24T13:22:56.12Z</time></trkpt><trkpt lat="40.9455533" lon="14.0355117"><ele>-2.2857142857142856</ele><time>2026-03-24T13:22:57.12Z</time></trkpt><trkpt lat="40.94555" lon="14.0354183"><ele>-2.714285714285714</ele><time>2026-03-24T13:22:58.119Z</time></trkpt><trkpt lat="40.945545" lon="14.0353283"><ele>-3.1428571428571423</ele><time>2026-03-24T13:22:59.12Z</time></trkpt><trkpt lat="40.9455267" lon="14.03524"><ele>-3.571428571428571</ele><time>2026-03-24T13:23:00.12Z</time></trkpt><trkpt lat="40.9455033" lon="14.035155"><ele>-4.0</ele><time>2026-03-24T13:23:01.121Z</time></trkpt><trkpt lat="40.945475" lon="14.0350767"><ele>-4.0</ele><time>2026-03-24T13:23:02.121Z</time></trkpt><trkpt lat="40.9454433" lon="14.035"><ele>-3.9999999999999996</ele><time>2026-03-24T13:23:03.121Z</time></trkpt><trkpt lat="40.945405" lon="14.0349267"><ele>-4.0</ele><time>2026-03-24T13:23:04.119Z</time></trkpt><trkpt lat="40.945365" lon="14.0348567"><ele>-4.0</ele><time>2026-03-24T13:23:05.119Z</time></trkpt><trkpt lat="40.9453233" lon="14.03479"><ele>-3.9999999999999996</ele><time>2026-03-24T13:23:06.12Z</time></trkpt><trkpt lat="40.94528" lon="14.034725"><ele>-4.0</ele><time>2026-03-24T13:23:07.119Z</time></trkpt><trkpt lat="40.9452333" lon="14.03466"><ele>-4.0</ele><time>2026-03-24T13:23:08.12Z</time></trkpt><trkpt lat="40.9451867" lon="14.0345933"><ele>-3.8571428571428568</ele><time>2026-03-24T13:23:09.12Z</time></trkpt><trkpt lat="40.9451417" lon="14.0345283"><ele>-3.714285714285714</ele><time>2026-03-24T13:23:10.119Z</time></trkpt><trkpt lat="40.9450933" lon="14.0344633"><ele>-3.571428571428571</ele><time>2026-03-24T13:23:11.121Z</time></trkpt><trkpt lat="40.94505" lon="14.0344"><ele>-3.4285714285714284</ele><time>2026-03-24T13:23:12.119Z</time></trkpt><trkpt lat="40.9450083" lon="14.0343367"><ele>-3.2857142857142856</ele><time>2026-03-24T13:23:13.119Z</time></trkpt><trkpt lat="40.9449633" lon="14.0342717"><ele>-3.1428571428571423</ele><time>2026-03-24T13:23:14.12Z</time></trkpt><trkpt lat="40.9449183" lon="14.0342083"><ele>-3.0</ele><time>2026-03-24T13:23:15.12Z</time></trkpt><trkpt lat="40.9448733" lon="14.034145"><ele>-2.8333333333333335</ele><time>2026-03-24T13:23:16.118Z</time></trkpt><trkpt lat="40.94483" lon="14.0340833"><ele>-2.6666666666666665</ele><time>2026-03-24T13:23:17.119Z</time></trkpt><trkpt lat="40.944785" lon="14.0340217"><ele>-2.5</ele><time>2026-03-24T13:23:18.119Z</time></trkpt><trkpt lat="40.9447" lon="14.0339"><ele>-2.333333333333333</ele><time>2026-03-24T13:23:20.12Z</time></trkpt><trkpt lat="40.9446567" lon="14.0338333"><ele>-2.1666666666666665</ele><time>2026-03-24T13:23:21.12Z</time></trkpt><trkpt lat="40.9446117" lon="14.0337667"><ele>-2.0</ele><time>2026-03-24T13:23:22.12Z</time></trkpt><trkpt lat="40.9445683" lon="14.0337"><ele>-2.0</ele><time>2026-03-24T13:23:23.12Z</time></trkpt><trkpt lat="40.94452" lon="14.0336367"><ele>-1.9999999999999998</ele><time>2026-03-24T13:23:24.119Z</time></trkpt><trkpt lat="40.9444767" lon="14.0335733"><ele>-2.0</ele><time>2026-03-24T13:23:25.119Z</time></trkpt><trkpt lat="40.9444333" lon="14.0335117"><ele>-2.0</ele><time>2026-03-24T13:23:26.122Z</time></trkpt><trkpt lat="40.9443917" lon="14.033445"><ele>-1.9999999999999998</ele><time>2026-03-24T13:23:27.12Z</time></trkpt><trkpt lat="40.9443483" lon="14.0333767"><ele>-2.0</ele><time>2026-03-24T13:23:28.121Z</time></trkpt><trkpt lat="40.9443083" lon="14.0333033"><ele>-2.0</ele><time>2026-03-24T13:23:29.119Z</time></trkpt><trkpt lat="40.94427" lon="14.0332283"><ele>-2.142857142857143</ele><time>2026-03-24T13:23:30.119Z</time></trkpt><trkpt lat="40.9442367" lon="14.0331533"><ele>-2.2857142857142856</ele><time>2026-03-24T13:23:31.12Z</time></trkpt><trkpt lat="40.9442033" lon="14.0330767"><ele>-2.4285714285714284</ele><time>2026-03-24T13:23:32.12Z</time></trkpt><trkpt lat="40.9441717" lon="14.0329983"><ele>-2.571428571428571</ele><time>2026-03-24T13:23:33.12Z</time></trkpt><trkpt lat="40.94414" lon="14.0329167"><ele>-2.7142857142857144</ele><time>2026-03-24T13:23:34.12Z</time></trkpt><trkpt lat="40.94411" lon="14.0328367"><ele>-2.8571428571428568</ele><time>2026-03-24T13:23:35.12Z</time></trkpt><trkpt lat="40.9440783" lon="14.0327583"><ele>-3.0</ele><time>2026-03-24T13:23:36.121Z</time></trkpt><trkpt lat="40.9440483" lon="14.0326767"><ele>-2.714285714285714</ele><time>2026-03-24T13:23:37.12Z</time></trkpt><trkpt lat="40.94402" lon="14.0325967"><ele>-2.4285714285714284</ele><time>2026-03-24T13:23:38.12Z</time></trkpt><trkpt lat="40.94399" lon="14.032515"><ele>-2.142857142857143</ele><time>2026-03-24T13:23:39.121Z</time></trkpt><trkpt lat="40.9439583" lon="14.032435"><ele>-1.857142857142857</ele><time>2026-03-24T13:23:40.119Z</time></trkpt><trkpt lat="40.94393" lon="14.032355"><ele>-1.5714285714285712</ele><time>2026-03-24T13:23:41.119Z</time></trkpt><trkpt lat="40.9439017" lon="14.0322767"><ele>-1.2857142857142856</ele><time>2026-03-24T13:23:42.119Z</time></trkpt><trkpt lat="40.94387" lon="14.0322"><ele>-1.0</ele><time>2026-03-24T13:23:43.12Z</time></trkpt><trkpt lat="40.9438417" lon="14.0321217"><ele>-1.0</ele><time>2026-03-24T13:23:44.12Z</time></trkpt><trkpt lat="40.9438133" lon="14.032045"><ele>-0.9999999999999999</ele><time>2026-03-24T13:23:45.119Z</time></trkpt><trkpt lat="40.943785" lon="14.03197"><ele>-1.0</ele><time>2026-03-24T13:23:46.12Z</time></trkpt><trkpt lat="40.94376" lon="14.0318917"><ele>-1.0</ele><time>2026-03-24T13:23:47.12Z</time></trkpt><trkpt lat="40.9437317" lon="14.031815"><ele>-0.9999999999999999</ele><time>2026-03-24T13:23:48.12Z</time></trkpt><trkpt lat="40.943705" lon="14.0317383"><ele>-1.0</ele><time>2026-03-24T13:23:49.119Z</time></trkpt><trkpt lat="40.9436783" lon="14.03166"><ele>-1.0</ele><time>2026-03-24T13:23:50.119Z</time></trkpt><trkpt lat="40.9436533" lon="14.0315783"><ele>-1.1666666666666665</ele><time>2026-03-24T13:23:51.119Z</time></trkpt><trkpt lat="40.94363" lon="14.0314967"><ele>-1.3333333333333333</ele><time>2026-03-24T13:23:52.12Z</time></trkpt><trkpt lat="40.9436117" lon="14.0314133"><ele>-1.5</ele><time>2026-03-24T13:23:53.119Z</time></trkpt><trkpt lat="40.9436" lon="14.0313283"><ele>-1.6666666666666665</ele><time>2026-03-24T13:23:54.119Z</time></trkpt><trkpt lat="40.9436017" lon="14.0311667"><ele>-1.8333333333333333</ele><time>2026-03-24T13:23:56.119Z</time></trkpt><trkpt lat="40.9436083" lon="14.0310783"><ele>-2.0</ele><time>2026-03-24T13:23:57.119Z</time></trkpt><trkpt lat="40.9436183" lon="14.03099"><ele>-2.0</ele><time>2026-03-24T13:23:58.121Z</time></trkpt><trkpt lat="40.9436283" lon="14.0309017"><ele>-1.9999999999999998</ele><time>2026-03-24T13:23:59.119Z</time></trkpt><trkpt lat="40.943635" lon="14.0308133"><ele>-2.0</ele><time>2026-03-24T13:24:00.119Z</time></trkpt><trkpt lat="40.9436417" lon="14.0307267"><ele>-2.0</ele><time>2026-03-24T13:24:01.12Z</time></trkpt><trkpt lat="40.9436467" lon="14.0306383"><ele>-1.9999999999999998</ele><time>2026-03-24T13:24:02.12Z</time></trkpt><trkpt lat="40.94365" lon="14.0305483"><ele>-2.0</ele><time>2026-03-24T13:24:03.121Z</time></trkpt><trkpt lat="40.9436533" lon="14.03046"><ele>-2.0</ele><time>2026-03-24T13:24:04.12Z</time></trkpt><trkpt lat="40.9436533" lon="14.0303717"><ele>-1.8333333333333333</ele><time>2026-03-24T13:24:05.121Z</time></trkpt><trkpt lat="40.94365" lon="14.0302867"><ele>-1.6666666666666665</ele><time>2026-03-24T13:24:06.12Z</time></trkpt><trkpt lat="40.9436433" lon="14.0302017"><ele>-1.5</ele><time>2026-03-24T13:24:07.122Z</time></trkpt><trkpt lat="40.9436317" lon="14.0301183"><ele>-1.3333333333333333</ele><time>2026-03-24T13:24:08.122Z</time></trkpt><trkpt lat="40.9436183" lon="14.0300367"><ele>-1.1666666666666665</ele><time>2026-03-24T13:24:09.119Z</time></trkpt><trkpt lat="40.9435917" lon="14.0298867"><ele>-1.0</ele><time>2026-03-24T13:24:11.12Z</time></trkpt><trkpt lat="40.9435483" lon="14.029745"><ele>-1.0</ele><time>2026-03-24T13:24:13.12Z</time></trkpt><trkpt lat="40.94349" lon="14.0296017"><ele>-1.0</ele><time>2026-03-24T13:24:15.119Z</time></trkpt><trkpt lat="40.9434517" lon="14.029445"><ele>-1.0</ele><time>2026-03-24T13:24:17.12Z</time></trkpt><trkpt lat="40.9434083" lon="14.0292883"><ele>-1.0</ele><time>2026-03-24T13:24:19.121Z</time></trkpt><trkpt lat="40.94336" lon="14.0291383"><ele>-0.9999999999999999</ele><time>2026-03-24T13:24:21.119Z</time></trkpt><trkpt lat="40.943335" lon="14.0290617"><ele>-1.0</ele><time>2026-03-24T13:24:22.121Z</time></trkpt><trkpt lat="40.94329" lon="14.0289067"><ele>-1.0</ele><time>2026-03-24T13:24:24.121Z</time></trkpt><trkpt lat="40.9432667" lon="14.0288233"><ele>-1.0</ele><time>2026-03-24T13:24:25.12Z</time></trkpt><trkpt lat="40.9432483" lon="14.0287417"><ele>-0.9999999999999999</ele><time>2026-03-24T13:24:26.121Z</time></trkpt><trkpt lat="40.9432283" lon="14.0286617"><ele>-1.0</ele><time>2026-03-24T13:24:27.119Z</time></trkpt><trkpt lat="40.9431883" lon="14.028505"><ele>-1.0</ele><time>2026-03-24T13:24:29.119Z</time></trkpt><trkpt lat="40.9431433" lon="14.0283533"><ele>-1.0</ele><time>2026-03-24T13:24:31.119Z</time></trkpt><trkpt lat="40.9431033" lon="14.0281967"><ele>-1.0</ele><time>2026-03-24T13:24:33.121Z</time></trkpt><trkpt lat="40.94306" lon="14.02804"><ele>-1.0</ele><time>2026-03-24T13:24:35.119Z</time></trkpt><trkpt lat="40.9430167" lon="14.027885"><ele>-1.1666666666666665</ele><time>2026-03-24T13:24:37.12Z</time></trkpt><trkpt lat="40.9429733" lon="14.0277333"><ele>-1.3333333333333333</ele><time>2026-03-24T13:24:39.119Z</time></trkpt><trkpt lat="40.94293" lon="14.0275767"><ele>-1.5</ele><time>2026-03-24T13:24:41.12Z</time></trkpt><trkpt lat="40.9429083" lon="14.0274967"><ele>-1.6666666666666665</ele><time>2026-03-24T13:24:42.12Z</time></trkpt><trkpt lat="40.9428833" lon="14.0274167"><ele>-1.8333333333333333</ele><time>2026-03-24T13:24:43.12Z</time></trkpt><trkpt lat="40.9428567" lon="14.0273367"><ele>-2.0</ele><time>2026-03-24T13:24:44.119Z</time></trkpt><trkpt lat="40.94281" lon="14.0271917"><ele>-2.25</ele><time>2026-03-24T13:24:46.12Z</time></trkpt><trkpt lat="40.9427617" lon="14.02705"><ele>-2.5</ele><time>2026-03-24T13:24:48.119Z</time></trkpt><trkpt lat="40.9427117" lon="14.026905"><ele>-2.75</ele><time>2026-03-24T13:24:50.124Z</time></trkpt><trkpt lat="40.9426517" lon="14.0267683"><ele>-3.0</ele><time>2026-03-24T13:24:52.12Z</time></trkpt><trkpt lat="40.9425833" lon="14.0266483"><ele>-2.8</ele><time>2026-03-24T13:24:54.121Z</time></trkpt><trkpt lat="40.9424983" lon="14.026535"><ele>-2.5999999999999996</ele><time>2026-03-24T13:24:56.12Z</time></trkpt><trkpt lat="40.9424" lon="14.0264383"><ele>-2.4000000000000004</ele><time>2026-03-24T13:24:58.119Z</time></trkpt><trkpt lat="40.9422967" lon="14.026355"><ele>-2.2</ele><time>2026-03-24T13:25:00.121Z</time></trkpt><trkpt lat="40.94224" lon="14.0263133"><ele>-2.0</ele><time>2026-03-24T13:25:01.12Z</time></trkpt><trkpt lat="40.9421333" lon="14.0262417"><ele>-2.0</ele><time>2026-03-24T13:25:03.12Z</time></trkpt><trkpt lat="40.942025" lon="14.0261667"><ele>-2.0</ele><time>2026-03-24T13:25:05.12Z</time></trkpt><trkpt lat="40.9419133" lon="14.0260967"><ele>-2.0</ele><time>2026-03-24T13:25:07.12Z</time></trkpt><trkpt lat="40.9418033" lon="14.0260167"><ele>-2.0</ele><time>2026-03-24T13:25:09.119Z</time></trkpt><trkpt lat="40.9416917" lon="14.0259367"><ele>-2.0</ele><time>2026-03-24T13:25:11.12Z</time></trkpt><trkpt lat="40.941635" lon="14.025895"><ele>-1.9999999999999998</ele><time>2026-03-24T13:25:12.121Z</time></trkpt><trkpt lat="40.941575" lon="14.0258533"><ele>-2.0</ele><time>2026-03-24T13:25:13.12Z</time></trkpt><trkpt lat="40.94152" lon="14.0258117"><ele>-2.0</ele><time>2026-03-24T13:25:14.12Z</time></trkpt><trkpt lat="40.9414633" lon="14.0257667"><ele>-1.9999999999999998</ele><time>2026-03-24T13:25:15.12Z</time></trkpt><trkpt lat="40.9414067" lon="14.0257233"><ele>-2.0</ele><time>2026-03-24T13:25:16.12Z</time></trkpt><trkpt lat="40.9413483" lon="14.0256817"><ele>-2.0</ele><time>2026-03-24T13:25:17.12Z</time></trkpt><trkpt lat="40.9412917" lon="14.0256417"><ele>-2.0</ele><time>2026-03-24T13:25:18.12Z</time></trkpt><trkpt lat="40.9412367" lon="14.0256"><ele>-1.9999999999999998</ele><time>2026-03-24T13:25:19.119Z</time></trkpt><trkpt lat="40.9411833" lon="14.0255533"><ele>-2.0</ele><time>2026-03-24T13:25:20.119Z</time></trkpt><trkpt lat="40.94113" lon="14.0255083"><ele>-2.0</ele><time>2026-03-24T13:25:21.12Z</time></trkpt><trkpt lat="40.9410217" lon="14.025425"><ele>-1.9999999999999998</ele><time>2026-03-24T13:25:23.119Z</time></trkpt><trkpt lat="40.9409683" lon="14.02538"><ele>-2.0</ele><time>2026-03-24T13:25:24.12Z</time></trkpt><trkpt lat="40.9409167" lon="14.02533"><ele>-2.0</ele><time>2026-03-24T13:25:25.12Z</time></trkpt><trkpt lat="40.9408283" lon="14.0252267"><ele>-1.9999999999999998</ele><time>2026-03-24T13:25:27.12Z</time></trkpt><trkpt lat="40.94074" lon="14.0251067"><ele>-2.0</ele><time>2026-03-24T13:25:29.12Z</time></trkpt><trkpt lat="40.9406917" lon="14.025045"><ele>-2.0</ele><time>2026-03-24T13:25:30.121Z</time></trkpt><trkpt lat="40.9406417" lon="14.02499"><ele>-2.0</ele><time>2026-03-24T13:25:31.12Z</time></trkpt><trkpt lat="40.9405917" lon="14.0249333"><ele>-1.9999999999999998</ele><time>2026-03-24T13:25:32.12Z</time></trkpt><trkpt lat="40.9405417" lon="14.024875"><ele>-2.0</ele><time>2026-03-24T13:25:33.12Z</time></trkpt><trkpt lat="40.94049" lon="14.0248167"><ele>-2.0</ele><time>2026-03-24T13:25:34.12Z</time></trkpt><trkpt lat="40.9404383" lon="14.0247567"><ele>-1.9999999999999998</ele><time>2026-03-24T13:25:35.121Z</time></trkpt><trkpt lat="40.9403883" lon="14.024695"><ele>-2.0</ele><time>2026-03-24T13:25:36.12Z</time></trkpt><trkpt lat="40.9403417" lon="14.0246333"><ele>-2.0</ele><time>2026-03-24T13:25:37.119Z</time></trkpt><trkpt lat="40.940295" lon="14.02457"><ele>-1.9999999999999998</ele><time>2026-03-24T13:25:38.12Z</time></trkpt><trkpt lat="40.9402467" lon="14.0245133"><ele>-2.0</ele><time>2026-03-24T13:25:39.119Z</time></trkpt><trkpt lat="40.9401983" lon="14.024455"><ele>-2.0</ele><time>2026-03-24T13:25:40.119Z</time></trkpt><trkpt lat="40.940145" lon="14.024395"><ele>-2.0</ele><time>2026-03-24T13:25:41.12Z</time></trkpt><trkpt lat="40.9400917" lon="14.02434"><ele>-2.0</ele><time>2026-03-24T13:25:42.12Z</time></trkpt><trkpt lat="40.9400383" lon="14.0242917"><ele>-2.0</ele><time>2026-03-24T13:25:43.119Z</time></trkpt><trkpt lat="40.9399317" lon="14.0242133"><ele>-2.0</ele><time>2026-03-24T13:25:45.119Z</time></trkpt><trkpt lat="40.9398217" lon="14.0241483"><ele>-2.0</ele><time>2026-03-24T13:25:47.119Z</time></trkpt><trkpt lat="40.9397083" lon="14.0240867"><ele>-1.8</ele><time>2026-03-24T13:25:49.12Z</time></trkpt><trkpt lat="40.9396483" lon="14.0240567"><ele>-1.6</ele><time>2026-03-24T13:25:50.12Z</time></trkpt><trkpt lat="40.9395367" lon="14.02399"><ele>-1.4000000000000001</ele><time>2026-03-24T13:25:52.121Z</time></trkpt><trkpt lat="40.93943" lon="14.0239267"><ele>-1.2000000000000002</ele><time>2026-03-24T13:25:54.12Z</time></trkpt><trkpt lat="40.9393717" lon="14.02389"><ele>-1.0</ele><time>2026-03-24T13:25:55.12Z</time></trkpt><trkpt lat="40.9392717" lon="14.0238133"><ele>-1.0</ele><time>2026-03-24T13:25:57.12Z</time></trkpt><trkpt lat="40.9391983" lon="14.0237033"><ele>-1.0</ele><time>2026-03-24T13:25:59.12Z</time></trkpt><trkpt lat="40.9392033" lon="14.02356"><ele>-1.0</ele><time>2026-03-24T13:26:01.12Z</time></trkpt><trkpt lat="40.9392567" lon="14.02343"><ele>-1.0</ele><time>2026-03-24T13:26:03.12Z</time></trkpt><trkpt lat="40.9393167" lon="14.0233017"><ele>-1.0</ele><time>2026-03-24T13:26:05.12Z</time></trkpt><trkpt lat="40.9393567" lon="14.0232367"><ele>-0.75</ele><time>2026-03-24T13:26:06.12Z</time></trkpt><trkpt lat="40.9394317" lon="14.02311"><ele>-0.5</ele><time>2026-03-24T13:26:08.12Z</time></trkpt><trkpt lat="40.939495" lon="14.0229767"><ele>-0.25</ele><time>2026-03-24T13:26:10.12Z</time></trkpt><trkpt lat="40.939555" lon="14.0228367"><ele>0.0</ele><time>2026-03-24T13:26:12.12Z</time></trkpt><trkpt lat="40.939605" lon="14.0227033"><ele>0.0</ele><time>2026-03-24T13:26:14.12Z</time></trkpt><trkpt lat="40.9396567" lon="14.02257"><ele>0.0</ele><time>2026-03-24T13:26:16.12Z</time></trkpt><trkpt lat="40.93971" lon="14.02244"><ele>0.0</ele><time>2026-03-24T13:26:18.12Z</time></trkpt><trkpt lat="40.9397617" lon="14.0223167"><ele>0.0</ele><time>2026-03-24T13:26:20.12Z</time></trkpt><trkpt lat="40.9398133" lon="14.022195"><ele>0.0</ele><time>2026-03-24T13:26:22.119Z</time></trkpt><trkpt lat="40.9398617" lon="14.0220717"><ele>0.0</ele><time>2026-03-24T13:26:24.12Z</time></trkpt><trkpt lat="40.939915" lon="14.0219533"><ele>0.0</ele><time>2026-03-24T13:26:26.12Z</time></trkpt><trkpt lat="40.939965" lon="14.0218283"><ele>0.0</ele><time>2026-03-24T13:26:28.12Z</time></trkpt><trkpt lat="40.9400217" lon="14.0216983"><ele>0.0</ele><time>2026-03-24T13:26:30.121Z</time></trkpt><trkpt lat="40.9400817" lon="14.0215617"><ele>0.0</ele><time>2026-03-24T13:26:32.12Z</time></trkpt><trkpt lat="40.94014" lon="14.0214217"><ele>0.25</ele><time>2026-03-24T13:26:34.12Z</time></trkpt><trkpt lat="40.9402033" lon="14.0212783"><ele>0.5</ele><time>2026-03-24T13:26:36.121Z</time></trkpt><trkpt lat="40.9402617" lon="14.0211383"><ele>0.75</ele><time>2026-03-24T13:26:38.12Z</time></trkpt><trkpt lat="40.94032" lon="14.021005"><ele>1.0</ele><time>2026-03-24T13:26:40.121Z</time></trkpt><trkpt lat="40.9403733" lon="14.02087"><ele>1.0</ele><time>2026-03-24T13:26:42.12Z</time></trkpt><trkpt lat="40.9404333" lon="14.02074"><ele>1.0</ele><time>2026-03-24T13:26:44.12Z</time></trkpt><trkpt lat="40.94049" lon="14.0206133"><ele>1.0</ele><time>2026-03-24T13:26:46.121Z</time></trkpt><trkpt lat="40.94056" lon="14.0204883"><ele>1.0</ele><time>2026-03-24T13:26:48.12Z</time></trkpt><trkpt lat="40.9406517" lon="14.0203883"><ele>1.0</ele><time>2026-03-24T13:26:50.118Z</time></trkpt><trkpt lat="40.940755" lon="14.0203317"><ele>1.0</ele><time>2026-03-24T13:26:52.119Z</time></trkpt><trkpt lat="40.9408733" lon="14.0202933"><ele>1.0</ele><time>2026-03-24T13:26:54.119Z</time></trkpt><trkpt lat="40.9409717" lon="14.0202183"><ele>1.0</ele><time>2026-03-24T13:26:56.118Z</time></trkpt><trkpt lat="40.941025" lon="14.0200933"><ele>0.8333333333333333</ele><time>2026-03-24T13:26:58.118Z</time></trkpt><trkpt lat="40.9410433" lon="14.01995"><ele>0.6666666666666666</ele><time>2026-03-24T13:27:00.119Z</time></trkpt><trkpt lat="40.9410533" lon="14.0197817"><ele>0.5</ele><time>2026-03-24T13:27:02.119Z</time></trkpt><trkpt lat="40.9410533" lon="14.019695"><ele>0.3333333333333333</ele><time>2026-03-24T13:27:03.119Z</time></trkpt><trkpt lat="40.94105" lon="14.0196067"><ele>0.16666666666666666</ele><time>2026-03-24T13:27:04.118Z</time></trkpt><trkpt lat="40.9410483" lon="14.0195133"><ele>0.0</ele><time>2026-03-24T13:27:05.118Z</time></trkpt><trkpt lat="40.9410483" lon="14.019415"><ele>0.0</ele><time>2026-03-24T13:27:06.119Z</time></trkpt><trkpt lat="40.9410483" lon="14.019315"><ele>0.0</ele><time>2026-03-24T13:27:07.118Z</time></trkpt><trkpt lat="40.9410483" lon="14.0192167"><ele>0.0</ele><time>2026-03-24T13:27:08.118Z</time></trkpt><trkpt lat="40.94105" lon="14.0191183"><ele>0.0</ele><time>2026-03-24T13:27:09.118Z</time></trkpt><trkpt lat="40.9410483" lon="14.01902"><ele>0.0</ele><time>2026-03-24T13:27:10.119Z</time></trkpt><trkpt lat="40.9410467" lon="14.0189267"><ele>0.0</ele><time>2026-03-24T13:27:11.118Z</time></trkpt><trkpt lat="40.9410467" lon="14.0188367"><ele>0.0</ele><time>2026-03-24T13:27:12.118Z</time></trkpt><trkpt lat="40.9410467" lon="14.01875"><ele>0.4</ele><time>2026-03-24T13:27:13.118Z</time></trkpt><trkpt lat="40.9410417" lon="14.0185933"><ele>0.8</ele><time>2026-03-24T13:27:15.12Z</time></trkpt><trkpt lat="40.94104" lon="14.01845"><ele>1.2000000000000002</ele><time>2026-03-24T13:27:17.119Z</time></trkpt><trkpt lat="40.9410417" lon="14.0183233"><ele>1.6</ele><time>2026-03-24T13:27:19.119Z</time></trkpt><trkpt lat="40.94104" lon="14.0182167"><ele>2.0</ele><time>2026-03-24T13:27:21.118Z</time></trkpt><trkpt lat="40.9410467" lon="14.018125"><ele>2.4285714285714284</ele><time>2026-03-24T13:27:23.118Z</time></trkpt><trkpt lat="40.9410417" lon="14.0180383"><ele>2.8571428571428568</ele><time>2026-03-24T13:27:26.118Z</time></trkpt><trkpt lat="40.9410417" lon="14.01794"><ele>3.2857142857142856</ele><time>2026-03-24T13:27:29.119Z</time></trkpt><trkpt lat="40.94104" lon="14.0178167"><ele>3.7142857142857144</ele><time>2026-03-24T13:27:32.119Z</time></trkpt><trkpt lat="40.9410533" lon="14.01773"><ele>4.142857142857143</ele><time>2026-03-24T13:27:34.125Z</time></trkpt><trkpt lat="40.9410383" lon="14.01784"><ele>4.571428571428571</ele><time>2026-03-24T13:27:42.119Z</time></trkpt><trkpt lat="40.941025" lon="14.0177583"><ele>5.0</ele><time>2026-03-24T13:29:02.12Z</time></trkpt><trkpt lat="40.94103" lon="14.0176733"><ele>5.0</ele><time>2026-03-24T13:29:04.122Z</time></trkpt><trkpt lat="40.9410317" lon="14.0175767"><ele>5.0</ele><time>2026-03-24T13:29:06.122Z</time></trkpt><trkpt lat="40.9409967" lon="14.0175017"><ele>5.0</ele><time>2026-03-24T13:29:08.12Z</time></trkpt><trkpt lat="40.94093" lon="14.0174783"><ele>5.0</ele><time>2026-03-24T13:29:10.12Z</time></trkpt><trkpt lat="40.9408367" lon="14.0175"><ele>5.0</ele><time>2026-03-24T13:29:12.12Z</time></trkpt><trkpt lat="40.9407267" lon="14.017565"><ele>5.0</ele><time>2026-03-24T13:29:14.12Z</time></trkpt><trkpt lat="40.9406633" lon="14.017605"><ele>5.166666666666667</ele><time>2026-03-24T13:29:15.12Z</time></trkpt><trkpt lat="40.9405967" lon="14.0176467"><ele>5.333333333333334</ele><time>2026-03-24T13:29:16.12Z</time></trkpt><trkpt lat="40.9405283" lon="14.0176933"><ele>5.5</ele><time>2026-03-24T13:29:17.121Z</time></trkpt><trkpt lat="40.9404617" lon="14.0177417"><ele>5.666666666666667</ele><time>2026-03-24T13:29:18.121Z</time></trkpt><trkpt lat="40.9403967" lon="14.0177883"><ele>5.833333333333333</ele><time>2026-03-24T13:29:19.12Z</time></trkpt><trkpt lat="40.9403283" lon="14.0178367"><ele>6.0</ele><time>2026-03-24T13:29:20.122Z</time></trkpt><trkpt lat="40.9402567" lon="14.0178833"><ele>6.0</ele><time>2026-03-24T13:29:21.12Z</time></trkpt><trkpt lat="40.9401833" lon="14.0179283"><ele>6.0</ele><time>2026-03-24T13:29:22.121Z</time></trkpt><trkpt lat="40.9401117" lon="14.0179717"><ele>6.0</ele><time>2026-03-24T13:29:23.121Z</time></trkpt><trkpt lat="40.9400417" lon="14.0180133"><ele>6.0</ele><time>2026-03-24T13:29:24.12Z</time></trkpt><trkpt lat="40.9399717" lon="14.0180567"><ele>6.0</ele><time>2026-03-24T13:29:25.121Z</time></trkpt><trkpt lat="40.9399017" lon="14.0180967"><ele>6.0</ele><time>2026-03-24T13:29:26.12Z</time></trkpt><trkpt lat="40.9398267" lon="14.0181367"><ele>5.833333333333333</ele><time>2026-03-24T13:29:27.121Z</time></trkpt><trkpt lat="40.939755" lon="14.0181817"><ele>5.666666666666667</ele><time>2026-03-24T13:29:28.12Z</time></trkpt><trkpt lat="40.9396817" lon="14.0182283"><ele>5.5</ele><time>2026-03-24T13:29:29.122Z</time></trkpt><trkpt lat="40.93961" lon="14.018275"><ele>5.333333333333334</ele><time>2026-03-24T13:29:30.121Z</time></trkpt><trkpt lat="40.9395333" lon="14.01832"><ele>5.166666666666667</ele><time>2026-03-24T13:29:31.121Z</time></trkpt><trkpt lat="40.9394567" lon="14.0183617"><ele>5.0</ele><time>2026-03-24T13:29:32.12Z</time></trkpt><trkpt lat="40.93938" lon="14.0184017"><ele>5.0</ele><time>2026-03-24T13:29:33.124Z</time></trkpt><trkpt lat="40.939305" lon="14.018445"><ele>5.0</ele><time>2026-03-24T13:29:34.121Z</time></trkpt><trkpt lat="40.9392283" lon="14.01849"><ele>5.0</ele><time>2026-03-24T13:29:35.121Z</time></trkpt><trkpt lat="40.939155" lon="14.018535"><ele>5.0</ele><time>2026-03-24T13:29:36.12Z</time></trkpt><trkpt lat="40.9390783" lon="14.0185817"><ele>5.0</ele><time>2026-03-24T13:29:37.12Z</time></trkpt><trkpt lat="40.9390017" lon="14.0186267"><ele>5.0</ele><time>2026-03-24T13:29:38.122Z</time></trkpt><trkpt lat="40.9389267" lon="14.0186717"><ele>5.5</ele><time>2026-03-24T13:29:39.124Z</time></trkpt><trkpt lat="40.93885" lon="14.01872"><ele>6.0</ele><time>2026-03-24T13:29:40.122Z</time></trkpt><trkpt lat="40.9387733" lon="14.0187667"><ele>6.5</ele><time>2026-03-24T13:29:41.12Z</time></trkpt><trkpt lat="40.9386933" lon="14.0188117"><ele>7.0</ele><time>2026-03-24T13:29:42.12Z</time></trkpt><trkpt lat="40.9386167" lon="14.01886"><ele>7.499999999999999</ele><time>2026-03-24T13:29:43.12Z</time></trkpt><trkpt lat="40.93854" lon="14.0189083"><ele>8.0</ele><time>2026-03-24T13:29:44.12Z</time></trkpt><trkpt lat="40.93846" lon="14.01896"><ele>8.333333333333332</ele><time>2026-03-24T13:29:45.121Z</time></trkpt><trkpt lat="40.9383783" lon="14.0190067"><ele>8.666666666666666</ele><time>2026-03-24T13:29:46.12Z</time></trkpt><trkpt lat="40.9382983" lon="14.0190567"><ele>9.0</ele><time>2026-03-24T13:29:47.12Z</time></trkpt><trkpt lat="40.9382183" lon="14.0191067"><ele>9.333333333333334</ele><time>2026-03-24T13:29:48.12Z</time></trkpt><trkpt lat="40.938135" lon="14.0191533"><ele>9.666666666666668</ele><time>2026-03-24T13:29:49.121Z</time></trkpt><trkpt lat="40.938055" lon="14.0192017"><ele>10.0</ele><time>2026-03-24T13:29:50.121Z</time></trkpt><trkpt lat="40.9379717" lon="14.01925"><ele>10.0</ele><time>2026-03-24T13:29:51.12Z</time></trkpt><trkpt lat="40.93789" lon="14.0192933"><ele>10.0</ele><time>2026-03-24T13:29:52.121Z</time></trkpt><trkpt lat="40.9378083" lon="14.0193383"><ele>10.0</ele><time>2026-03-24T13:29:53.121Z</time></trkpt><trkpt lat="40.9377283" lon="14.0193867"><ele>10.0</ele><time>2026-03-24T13:29:54.12Z</time></trkpt><trkpt lat="40.9376483" lon="14.019435"><ele>10.0</ele><time>2026-03-24T13:29:55.121Z</time></trkpt><trkpt lat="40.9375683" lon="14.0194817"><ele>10.0</ele><time>2026-03-24T13:29:56.12Z</time></trkpt><trkpt lat="40.9374883" lon="14.0195267"><ele>10.0</ele><time>2026-03-24T13:29:57.12Z</time></trkpt><trkpt lat="40.9374083" lon="14.0195717"><ele>10.0</ele><time>2026-03-24T13:29:58.119Z</time></trkpt><trkpt lat="40.9373283" lon="14.0196167"><ele>10.0</ele><time>2026-03-24T13:29:59.12Z</time></trkpt><trkpt lat="40.93725" lon="14.01966"><ele>10.0</ele><time>2026-03-24T13:30:00.12Z</time></trkpt><trkpt lat="40.93717" lon="14.0197083"><ele>10.0</ele><time>2026-03-24T13:30:01.12Z</time></trkpt><trkpt lat="40.9370917" lon="14.019755"><ele>10.0</ele><time>2026-03-24T13:30:02.121Z</time></trkpt><trkpt lat="40.9370133" lon="14.0198017"><ele>10.0</ele><time>2026-03-24T13:30:03.12Z</time></trkpt><trkpt lat="40.9369333" lon="14.01985"><ele>10.0</ele><time>2026-03-24T13:30:04.119Z</time></trkpt><trkpt lat="40.9368517" lon="14.0199"><ele>10.0</ele><time>2026-03-24T13:30:05.121Z</time></trkpt><trkpt lat="40.936775" lon="14.0199467"><ele>10.0</ele><time>2026-03-24T13:30:06.121Z</time></trkpt><trkpt lat="40.936695" lon="14.0199933"><ele>10.0</ele><time>2026-03-24T13:30:07.12Z</time></trkpt><trkpt lat="40.9366183" lon="14.02004"><ele>10.0</ele><time>2026-03-24T13:30:08.12Z</time></trkpt><trkpt lat="40.9365383" lon="14.0200883"><ele>9.166666666666668</ele><time>2026-03-24T13:30:09.12Z</time></trkpt><trkpt lat="40.93646" lon="14.0201333"><ele>8.333333333333334</ele><time>2026-03-24T13:30:10.12Z</time></trkpt><trkpt lat="40.9363817" lon="14.0201783"><ele>7.5</ele><time>2026-03-24T13:30:11.121Z</time></trkpt><trkpt lat="40.9363" lon="14.02022"><ele>6.666666666666667</ele><time>2026-03-24T13:30:12.121Z</time></trkpt><trkpt lat="40.93622" lon="14.0202617"><ele>5.833333333333334</ele><time>2026-03-24T13:30:13.12Z</time></trkpt><trkpt lat="40.936145" lon="14.020305"><ele>5.0</ele><time>2026-03-24T13:30:14.119Z</time></trkpt><trkpt lat="40.93607" lon="14.0203517"><ele>5.0</ele><time>2026-03-24T13:30:15.12Z</time></trkpt><trkpt lat="40.9359917" lon="14.0204"><ele>5.0</ele><time>2026-03-24T13:30:16.12Z</time></trkpt><trkpt lat="40.9359133" lon="14.0204467"><ele>5.0</ele><time>2026-03-24T13:30:17.121Z</time></trkpt><trkpt lat="40.9358333" lon="14.0204933"><ele>5.0</ele><time>2026-03-24T13:30:18.12Z</time></trkpt><trkpt lat="40.935755" lon="14.0205433"><ele>5.0</ele><time>2026-03-24T13:30:19.12Z</time></trkpt><trkpt lat="40.93568" lon="14.02059"><ele>5.0</ele><time>2026-03-24T13:30:20.121Z</time></trkpt><trkpt lat="40.9356033" lon="14.0206283"><ele>5.0</ele><time>2026-03-24T13:30:21.12Z</time></trkpt><trkpt lat="40.9355267" lon="14.02067"><ele>5.0</ele><time>2026-03-24T13:30:22.121Z</time></trkpt><trkpt lat="40.93545" lon="14.0207117"><ele>5.0</ele><time>2026-03-24T13:30:23.121Z</time></trkpt><trkpt lat="40.9353717" lon="14.020755"><ele>5.0</ele><time>2026-03-24T13:30:24.12Z</time></trkpt><trkpt lat="40.9352967" lon="14.020795"><ele>5.0</ele><time>2026-03-24T13:30:25.12Z</time></trkpt><trkpt lat="40.9352183" lon="14.0208383"><ele>5.0</ele><time>2026-03-24T13:30:26.121Z</time></trkpt><trkpt lat="40.93514" lon="14.0208867"><ele>5.0</ele><time>2026-03-24T13:30:27.121Z</time></trkpt><trkpt lat="40.935065" lon="14.020935"><ele>5.0</ele><time>2026-03-24T13:30:28.121Z</time></trkpt><trkpt lat="40.934985" lon="14.0209833"><ele>5.0</ele><time>2026-03-24T13:30:29.12Z</time></trkpt><trkpt lat="40.9349017" lon="14.0210317"><ele>5.0</ele><time>2026-03-24T13:30:30.12Z</time></trkpt><trkpt lat="40.93482" lon="14.02108"><ele>5.0</ele><time>2026-03-24T13:30:31.12Z</time></trkpt><trkpt lat="40.93474" lon="14.0211267"><ele>5.0</ele><time>2026-03-24T13:30:32.121Z</time></trkpt><trkpt lat="40.9346617" lon="14.0211717"><ele>5.5</ele><time>2026-03-24T13:30:33.121Z</time></trkpt><trkpt lat="40.9345833" lon="14.02122"><ele>6.0</ele><time>2026-03-24T13:30:34.119Z</time></trkpt><trkpt lat="40.9345083" lon="14.0212683"><ele>6.5</ele><time>2026-03-24T13:30:35.12Z</time></trkpt><trkpt lat="40.9344333" lon="14.021315"><ele>7.0</ele><time>2026-03-24T13:30:36.12Z</time></trkpt><trkpt lat="40.9343567" lon="14.0213583"><ele>7.499999999999999</ele><time>2026-03-24T13:30:37.12Z</time></trkpt><trkpt lat="40.93428" lon="14.0213983"><ele>8.0</ele><time>2026-03-24T13:30:38.123Z</time></trkpt><trkpt lat="40.9342033" lon="14.0214367"><ele>8.333333333333332</ele><time>2026-03-24T13:30:39.12Z</time></trkpt><trkpt lat="40.9341267" lon="14.0214817"><ele>8.666666666666666</ele><time>2026-03-24T13:30:40.12Z</time></trkpt><trkpt lat="40.9340483" lon="14.0215283"><ele>9.0</ele><time>2026-03-24T13:30:41.12Z</time></trkpt><trkpt lat="40.9339717" lon="14.0215717"><ele>9.333333333333334</ele><time>2026-03-24T13:30:42.12Z</time></trkpt><trkpt lat="40.9338967" lon="14.0216117"><ele>9.666666666666668</ele><time>2026-03-24T13:30:43.12Z</time></trkpt><trkpt lat="40.9338217" lon="14.0216517"><ele>10.0</ele><time>2026-03-24T13:30:44.12Z</time></trkpt><trkpt lat="40.9337483" lon="14.0216967"><ele>9.0</ele><time>2026-03-24T13:30:45.12Z</time></trkpt><trkpt lat="40.933675" lon="14.0217417"><ele>8.0</ele><time>2026-03-24T13:30:46.123Z</time></trkpt><trkpt lat="40.9336017" lon="14.0217867"><ele>7.0</ele><time>2026-03-24T13:30:47.12Z</time></trkpt><trkpt lat="40.9335233" lon="14.0218333"><ele>6.0</ele><time>2026-03-24T13:30:48.12Z</time></trkpt><trkpt lat="40.933445" lon="14.0218767"><ele>5.0</ele><time>2026-03-24T13:30:49.121Z</time></trkpt><trkpt lat="40.9333633" lon="14.0219217"><ele>4.0</ele><time>2026-03-24T13:30:50.119Z</time></trkpt><trkpt lat="40.9332817" lon="14.021965"><ele>3.9999999999999996</ele><time>2026-03-24T13:30:51.119Z</time></trkpt><trkpt lat="40.933205" lon="14.0220117"><ele>4.0</ele><time>2026-03-24T13:30:52.12Z</time></trkpt><trkpt lat="40.933125" lon="14.022055"><ele>4.0</ele><time>2026-03-24T13:30:53.119Z</time></trkpt><trkpt lat="40.9330483" lon="14.0221"><ele>4.0</ele><time>2026-03-24T13:30:54.12Z</time></trkpt><trkpt lat="40.9329717" lon="14.0221433"><ele>3.9999999999999996</ele><time>2026-03-24T13:30:55.119Z</time></trkpt><trkpt lat="40.9328933" lon="14.0221883"><ele>4.0</ele><time>2026-03-24T13:30:56.119Z</time></trkpt><trkpt lat="40.9328167" lon="14.0222317"><ele>3.9999999999999996</ele><time>2026-03-24T13:30:57.119Z</time></trkpt><trkpt lat="40.93274" lon="14.0222733"><ele>4.0</ele><time>2026-03-24T13:30:58.121Z</time></trkpt><trkpt lat="40.9326633" lon="14.0223167"><ele>4.0</ele><time>2026-03-24T13:30:59.12Z</time></trkpt><trkpt lat="40.9325883" lon="14.0223583"><ele>4.0</ele><time>2026-03-24T13:31:00.12Z</time></trkpt><trkpt lat="40.93251" lon="14.0224"><ele>3.9999999999999996</ele><time>2026-03-24T13:31:01.119Z</time></trkpt><trkpt lat="40.9324317" lon="14.022445"><ele>4.0</ele><time>2026-03-24T13:31:02.119Z</time></trkpt><trkpt lat="40.9323533" lon="14.0224917"><ele>4.666666666666666</ele><time>2026-03-24T13:31:03.12Z</time></trkpt><trkpt lat="40.932275" lon="14.022535"><ele>5.333333333333333</ele><time>2026-03-24T13:31:04.121Z</time></trkpt><trkpt lat="40.932195" lon="14.0225817"><ele>6.0</ele><time>2026-03-24T13:31:05.12Z</time></trkpt><trkpt lat="40.9321183" lon="14.0226283"><ele>6.666666666666666</ele><time>2026-03-24T13:31:06.12Z</time></trkpt><trkpt lat="40.9320417" lon="14.022675"><ele>7.333333333333333</ele><time>2026-03-24T13:31:07.122Z</time></trkpt><trkpt lat="40.9319667" lon="14.0227217"><ele>8.0</ele><time>2026-03-24T13:31:08.119Z</time></trkpt><trkpt lat="40.93189" lon="14.02277"><ele>7.999999999999999</ele><time>2026-03-24T13:31:09.119Z</time></trkpt><trkpt lat="40.9318117" lon="14.0228183"><ele>8.0</ele><time>2026-03-24T13:31:10.121Z</time></trkpt><trkpt lat="40.9317283" lon="14.0228633"><ele>8.0</ele><time>2026-03-24T13:31:11.12Z</time></trkpt><trkpt lat="40.9316467" lon="14.0229117"><ele>8.0</ele><time>2026-03-24T13:31:12.119Z</time></trkpt><trkpt lat="40.931565" lon="14.0229583"><ele>7.999999999999999</ele><time>2026-03-24T13:31:13.12Z</time></trkpt><trkpt lat="40.9314867" lon="14.0230017"><ele>8.0</ele><time>2026-03-24T13:31:14.119Z</time></trkpt><trkpt lat="40.9314083" lon="14.023045"><ele>8.5</ele><time>2026-03-24T13:31:15.119Z</time></trkpt><trkpt lat="40.9313317" lon="14.02309"><ele>9.0</ele><time>2026-03-24T13:31:16.119Z</time></trkpt><trkpt lat="40.93125" lon="14.023135"><ele>9.5</ele><time>2026-03-24T13:31:17.12Z</time></trkpt><trkpt lat="40.9311667" lon="14.0231817"><ele>10.0</ele><time>2026-03-24T13:31:18.118Z</time></trkpt><trkpt lat="40.9310883" lon="14.0232267"><ele>10.5</ele><time>2026-03-24T13:31:19.118Z</time></trkpt><trkpt lat="40.9310117" lon="14.0232767"><ele>11.0</ele><time>2026-03-24T13:31:20.121Z</time></trkpt><trkpt lat="40.930935" lon="14.023325"><ele>10.5</ele><time>2026-03-24T13:31:21.119Z</time></trkpt><trkpt lat="40.9308567" lon="14.0233717"><ele>10.0</ele><time>2026-03-24T13:31:22.118Z</time></trkpt><trkpt lat="40.930775" lon="14.0234167"><ele>9.5</ele><time>2026-03-24T13:31:23.118Z</time></trkpt><trkpt lat="40.930695" lon="14.02346"><ele>9.0</ele><time>2026-03-24T13:31:24.118Z</time></trkpt><trkpt lat="40.9306133" lon="14.0235033"><ele>8.5</ele><time>2026-03-24T13:31:25.119Z</time></trkpt><trkpt lat="40.9305317" lon="14.0235467"><ele>8.0</ele><time>2026-03-24T13:31:26.118Z</time></trkpt><trkpt lat="40.9304483" lon="14.0235883"><ele>7.999999999999999</ele><time>2026-03-24T13:31:27.119Z</time></trkpt><trkpt lat="40.9303667" lon="14.0236333"><ele>8.0</ele><time>2026-03-24T13:31:28.118Z</time></trkpt><trkpt lat="40.9302867" lon="14.02368"><ele>8.0</ele><time>2026-03-24T13:31:29.119Z</time></trkpt><trkpt lat="40.9302083" lon="14.02373"><ele>8.0</ele><time>2026-03-24T13:31:30.118Z</time></trkpt><trkpt lat="40.9301283" lon="14.0237817"><ele>7.999999999999999</ele><time>2026-03-24T13:31:31.119Z</time></trkpt><trkpt lat="40.9300467" lon="14.023835"><ele>8.0</ele><time>2026-03-24T13:31:32.118Z</time></trkpt><trkpt lat="40.9299667" lon="14.0238883"><ele>7.666666666666666</ele><time>2026-03-24T13:31:33.119Z</time></trkpt><trkpt lat="40.929885" lon="14.0239333"><ele>7.333333333333333</ele><time>2026-03-24T13:31:34.118Z</time></trkpt><trkpt lat="40.9298033" lon="14.0239767"><ele>7.0</ele><time>2026-03-24T13:31:35.118Z</time></trkpt><trkpt lat="40.9297217" lon="14.024025"><ele>6.666666666666666</ele><time>2026-03-24T13:31:36.12Z</time></trkpt><trkpt lat="40.9296417" lon="14.0240717"><ele>6.333333333333333</ele><time>2026-03-24T13:31:37.118Z</time></trkpt><trkpt lat="40.9295617" lon="14.0241183"><ele>6.0</ele><time>2026-03-24T13:31:38.118Z</time></trkpt><trkpt lat="40.9294833" lon="14.024165"><ele>6.0</ele><time>2026-03-24T13:31:39.121Z</time></trkpt><trkpt lat="40.9294" lon="14.02421"><ele>6.0</ele><time>2026-03-24T13:31:40.12Z</time></trkpt><trkpt lat="40.9293183" lon="14.024255"><ele>6.0</ele><time>2026-03-24T13:31:41.12Z</time></trkpt><trkpt lat="40.9292367" lon="14.0243"><ele>6.0</ele><time>2026-03-24T13:31:42.119Z</time></trkpt><trkpt lat="40.9291567" lon="14.0243383"><ele>6.0</ele><time>2026-03-24T13:31:43.12Z</time></trkpt><trkpt lat="40.929075" lon="14.02438"><ele>6.0</ele><time>2026-03-24T13:31:44.118Z</time></trkpt><trkpt lat="40.928995" lon="14.02442"><ele>6.833333333333333</ele><time>2026-03-24T13:31:45.119Z</time></trkpt><trkpt lat="40.9289167" lon="14.02446"><ele>7.666666666666666</ele><time>2026-03-24T13:31:46.119Z</time></trkpt><trkpt lat="40.92884" lon="14.0244967"><ele>8.5</ele><time>2026-03-24T13:31:47.119Z</time></trkpt><trkpt lat="40.9287633" lon="14.0245267"><ele>9.333333333333332</ele><time>2026-03-24T13:31:48.119Z</time></trkpt><trkpt lat="40.928685" lon="14.0245567"><ele>10.166666666666666</ele><time>2026-03-24T13:31:49.118Z</time></trkpt><trkpt lat="40.928605" lon="14.024585"><ele>11.0</ele><time>2026-03-24T13:31:50.12Z</time></trkpt><trkpt lat="40.928525" lon="14.0246133"><ele>11.0</ele><time>2026-03-24T13:31:51.119Z</time></trkpt><trkpt lat="40.9284433" lon="14.0246417"><ele>11.0</ele><time>2026-03-24T13:31:52.119Z</time></trkpt><trkpt lat="40.9283633" lon="14.0246667"><ele>11.0</ele><time>2026-03-24T13:31:53.118Z</time></trkpt><trkpt lat="40.928285" lon="14.0246917"><ele>11.0</ele><time>2026-03-24T13:31:54.119Z</time></trkpt><trkpt lat="40.9282033" lon="14.0247133"><ele>11.0</ele><time>2026-03-24T13:31:55.118Z</time></trkpt><trkpt lat="40.92812" lon="14.0247333"><ele>11.0</ele><time>2026-03-24T13:31:56.118Z</time></trkpt><trkpt lat="40.9280333" lon="14.0247517"><ele>11.0</ele><time>2026-03-24T13:31:57.119Z</time></trkpt><trkpt lat="40.92795" lon="14.0247683"><ele>11.0</ele><time>2026-03-24T13:31:58.119Z</time></trkpt><trkpt lat="40.9278667" lon="14.024785"><ele>11.0</ele><time>2026-03-24T13:31:59.119Z</time></trkpt><trkpt lat="40.9277817" lon="14.0247967"><ele>11.0</ele><time>2026-03-24T13:32:00.118Z</time></trkpt><trkpt lat="40.9276967" lon="14.0248067"><ele>11.0</ele><time>2026-03-24T13:32:01.125Z</time></trkpt><trkpt lat="40.92761" lon="14.02482"><ele>11.0</ele><time>2026-03-24T13:32:02.119Z</time></trkpt><trkpt lat="40.92752" lon="14.0248333"><ele>11.0</ele><time>2026-03-24T13:32:03.12Z</time></trkpt><trkpt lat="40.92743" lon="14.0248483"><ele>11.0</ele><time>2026-03-24T13:32:04.118Z</time></trkpt><trkpt lat="40.9273433" lon="14.02486"><ele>11.0</ele><time>2026-03-24T13:32:05.119Z</time></trkpt><trkpt lat="40.9272567" lon="14.024865"><ele>11.0</ele><time>2026-03-24T13:32:06.118Z</time></trkpt><trkpt lat="40.92717" lon="14.02487"><ele>11.0</ele><time>2026-03-24T13:32:07.118Z</time></trkpt><trkpt lat="40.9270833" lon="14.024875"><ele>11.0</ele><time>2026-03-24T13:32:08.118Z</time></trkpt><trkpt lat="40.9269983" lon="14.024885"><ele>11.0</ele><time>2026-03-24T13:32:09.119Z</time></trkpt><trkpt lat="40.9269133" lon="14.0248933"><ele>11.0</ele><time>2026-03-24T13:32:10.118Z</time></trkpt><trkpt lat="40.9268267" lon="14.0248983"><ele>11.0</ele><time>2026-03-24T13:32:11.118Z</time></trkpt><trkpt lat="40.92674" lon="14.024895"><ele>11.0</ele><time>2026-03-24T13:32:12.119Z</time></trkpt><trkpt lat="40.9266533" lon="14.0248833"><ele>11.0</ele><time>2026-03-24T13:32:13.119Z</time></trkpt><trkpt lat="40.92657" lon="14.0248717"><ele>11.0</ele><time>2026-03-24T13:32:14.121Z</time></trkpt><trkpt lat="40.9264833" lon="14.02486"><ele>11.0</ele><time>2026-03-24T13:32:15.119Z</time></trkpt><trkpt lat="40.9264" lon="14.0248517"><ele>11.0</ele><time>2026-03-24T13:32:16.118Z</time></trkpt><trkpt lat="40.926315" lon="14.024845"><ele>11.0</ele><time>2026-03-24T13:32:17.119Z</time></trkpt><trkpt lat="40.9262317" lon="14.0248367"><ele>11.0</ele><time>2026-03-24T13:32:18.118Z</time></trkpt><trkpt lat="40.9261483" lon="14.0248317"><ele>11.0</ele><time>2026-03-24T13:32:19.119Z</time></trkpt><trkpt lat="40.9260633" lon="14.0248233"><ele>11.0</ele><time>2026-03-24T13:32:20.118Z</time></trkpt><trkpt lat="40.9259767" lon="14.0248167"><ele>11.166666666666666</ele><time>2026-03-24T13:32:21.12Z</time></trkpt><trkpt lat="40.9258917" lon="14.02481"><ele>11.333333333333332</ele><time>2026-03-24T13:32:22.118Z</time></trkpt><trkpt lat="40.92581" lon="14.0248033"><ele>11.5</ele><time>2026-03-24T13:32:23.118Z</time></trkpt><trkpt lat="40.9257267" lon="14.024795"><ele>11.666666666666666</ele><time>2026-03-24T13:32:24.118Z</time></trkpt><trkpt lat="40.9256467" lon="14.02479"><ele>11.833333333333334</ele><time>2026-03-24T13:32:25.119Z</time></trkpt><trkpt lat="40.9255633" lon="14.0247867"><ele>12.0</ele><time>2026-03-24T13:32:26.118Z</time></trkpt><trkpt lat="40.9254817" lon="14.02478"><ele>12.0</ele><time>2026-03-24T13:32:27.119Z</time></trkpt><trkpt lat="40.9253967" lon="14.0247733"><ele>12.0</ele><time>2026-03-24T13:32:28.119Z</time></trkpt><trkpt lat="40.925315" lon="14.0247683"><ele>12.0</ele><time>2026-03-24T13:32:29.118Z</time></trkpt><trkpt lat="40.9252317" lon="14.024765"><ele>12.0</ele><time>2026-03-24T13:32:30.119Z</time></trkpt><trkpt lat="40.92515" lon="14.0247583"><ele>12.0</ele><time>2026-03-24T13:32:31.12Z</time></trkpt><trkpt lat="40.9250683" lon="14.0247517"><ele>12.0</ele><time>2026-03-24T13:32:32.118Z</time></trkpt><trkpt lat="40.9249867" lon="14.02474"><ele>11.5</ele><time>2026-03-24T13:32:33.119Z</time></trkpt><trkpt lat="40.9249083" lon="14.0247283"><ele>11.0</ele><time>2026-03-24T13:32:34.118Z</time></trkpt><trkpt lat="40.9248267" lon="14.02472"><ele>10.5</ele><time>2026-03-24T13:32:35.118Z</time></trkpt><trkpt lat="40.9247467" lon="14.0247117"><ele>10.0</ele><time>2026-03-24T13:32:36.119Z</time></trkpt><trkpt lat="40.924665" lon="14.0247017"><ele>9.5</ele><time>2026-03-24T13:32:37.119Z</time></trkpt><trkpt lat="40.9245817" lon="14.0246933"><ele>9.0</ele><time>2026-03-24T13:32:38.118Z</time></trkpt><trkpt lat="40.924495" lon="14.0246883"><ele>9.0</ele><time>2026-03-24T13:32:39.119Z</time></trkpt><trkpt lat="40.92441" lon="14.0246817"><ele>9.0</ele><time>2026-03-24T13:32:40.118Z</time></trkpt><trkpt lat="40.924325" lon="14.0246783"><ele>9.0</ele><time>2026-03-24T13:32:41.118Z</time></trkpt><trkpt lat="40.9242383" lon="14.0246733"><ele>9.0</ele><time>2026-03-24T13:32:42.119Z</time></trkpt><trkpt lat="40.9241533" lon="14.0246683"><ele>9.0</ele><time>2026-03-24T13:32:43.118Z</time></trkpt><trkpt lat="40.92407" lon="14.0246617"><ele>9.0</ele><time>2026-03-24T13:32:44.118Z</time></trkpt><trkpt lat="40.9239883" lon="14.02465"><ele>8.833333333333334</ele><time>2026-03-24T13:32:45.118Z</time></trkpt><trkpt lat="40.9239033" lon="14.02464"><ele>8.666666666666666</ele><time>2026-03-24T13:32:46.118Z</time></trkpt><trkpt lat="40.9238217" lon="14.0246317"><ele>8.5</ele><time>2026-03-24T13:32:47.119Z</time></trkpt><trkpt lat="40.9237433" lon="14.024625"><ele>8.333333333333332</ele><time>2026-03-24T13:32:48.119Z</time></trkpt><trkpt lat="40.923665" lon="14.02462"><ele>8.166666666666666</ele><time>2026-03-24T13:32:49.119Z</time></trkpt><trkpt lat="40.923585" lon="14.024615"><ele>8.0</ele><time>2026-03-24T13:32:50.119Z</time></trkpt><trkpt lat="40.9235033" lon="14.02461"><ele>7.999999999999999</ele><time>2026-03-24T13:32:51.119Z</time></trkpt><trkpt lat="40.9234233" lon="14.0246033"><ele>8.0</ele><time>2026-03-24T13:32:52.119Z</time></trkpt><trkpt lat="40.9233433" lon="14.0245983"><ele>8.0</ele><time>2026-03-24T13:32:53.121Z</time></trkpt><trkpt lat="40.92326" lon="14.02459"><ele>8.0</ele><time>2026-03-24T13:32:54.119Z</time></trkpt><trkpt lat="40.92318" lon="14.0245833"><ele>7.999999999999999</ele><time>2026-03-24T13:32:55.118Z</time></trkpt><trkpt lat="40.9231" lon="14.0245783"><ele>8.0</ele><time>2026-03-24T13:32:56.119Z</time></trkpt><trkpt lat="40.9230167" lon="14.02457"><ele>7.333333333333333</ele><time>2026-03-24T13:32:57.118Z</time></trkpt><trkpt lat="40.922935" lon="14.0245583"><ele>6.666666666666666</ele><time>2026-03-24T13:32:58.118Z</time></trkpt><trkpt lat="40.92285" lon="14.0245483"><ele>6.0</ele><time>2026-03-24T13:32:59.12Z</time></trkpt><trkpt lat="40.9227683" lon="14.02454"><ele>5.333333333333333</ele><time>2026-03-24T13:33:00.118Z</time></trkpt><trkpt lat="40.9226867" lon="14.0245333"><ele>4.666666666666666</ele><time>2026-03-24T13:33:01.118Z</time></trkpt><trkpt lat="40.9226067" lon="14.0245267"><ele>4.0</ele><time>2026-03-24T13:33:02.118Z</time></trkpt><trkpt lat="40.922525" lon="14.02452"><ele>3.833333333333333</ele><time>2026-03-24T13:33:03.12Z</time></trkpt><trkpt lat="40.922445" lon="14.0245117"><ele>3.6666666666666665</ele><time>2026-03-24T13:33:04.119Z</time></trkpt><trkpt lat="40.922365" lon="14.0245033"><ele>3.5</ele><time>2026-03-24T13:33:05.118Z</time></trkpt><trkpt lat="40.9222833" lon="14.0244967"><ele>3.333333333333333</ele><time>2026-03-24T13:33:06.12Z</time></trkpt><trkpt lat="40.9221983" lon="14.0244933"><ele>3.1666666666666665</ele><time>2026-03-24T13:33:07.119Z</time></trkpt><trkpt lat="40.9221167" lon="14.02449"><ele>3.0</ele><time>2026-03-24T13:33:08.119Z</time></trkpt><trkpt lat="40.9220333" lon="14.0244833"><ele>3.0</ele><time>2026-03-24T13:33:09.119Z</time></trkpt><trkpt lat="40.9219517" lon="14.0244767"><ele>3.0</ele><time>2026-03-24T13:33:10.118Z</time></trkpt><trkpt lat="40.9218733" lon="14.02447"><ele>3.0</ele><time>2026-03-24T13:33:11.12Z</time></trkpt><trkpt lat="40.92179" lon="14.024465"><ele>3.0</ele><time>2026-03-24T13:33:12.119Z</time></trkpt><trkpt lat="40.92171" lon="14.02446"><ele>3.0</ele><time>2026-03-24T13:33:13.12Z</time></trkpt><trkpt lat="40.9216317" lon="14.0244567"><ele>3.0</ele><time>2026-03-24T13:33:14.121Z</time></trkpt><trkpt lat="40.921555" lon="14.0244533"><ele>3.1666666666666665</ele><time>2026-03-24T13:33:15.118Z</time></trkpt><trkpt lat="40.921475" lon="14.0244483"><ele>3.333333333333333</ele><time>2026-03-24T13:33:16.119Z</time></trkpt><trkpt lat="40.9213967" lon="14.0244383"><ele>3.5</ele><time>2026-03-24T13:33:17.118Z</time></trkpt><trkpt lat="40.9213167" lon="14.0244333"><ele>3.6666666666666665</ele><time>2026-03-24T13:33:18.119Z</time></trkpt><trkpt lat="40.9212367" lon="14.0244267"><ele>3.833333333333333</ele><time>2026-03-24T13:33:19.118Z</time></trkpt><trkpt lat="40.9211567" lon="14.02442"><ele>4.0</ele><time>2026-03-24T13:33:20.118Z</time></trkpt><trkpt lat="40.921075" lon="14.024415"><ele>3.9999999999999996</ele><time>2026-03-24T13:33:21.118Z</time></trkpt><trkpt lat="40.920995" lon="14.02441"><ele>4.0</ele><time>2026-03-24T13:33:22.119Z</time></trkpt><trkpt lat="40.9209167" lon="14.0244083"><ele>4.0</ele><time>2026-03-24T13:33:23.119Z</time></trkpt><trkpt lat="40.92084" lon="14.024405"><ele>4.0</ele><time>2026-03-24T13:33:24.119Z</time></trkpt><trkpt lat="40.9207633" lon="14.024395"><ele>3.9999999999999996</ele><time>2026-03-24T13:33:25.119Z</time></trkpt><trkpt lat="40.9206867" lon="14.024385"><ele>4.0</ele><time>2026-03-24T13:33:26.119Z</time></trkpt><trkpt lat="40.9206083" lon="14.0243767"><ele>4.333333333333333</ele><time>2026-03-24T13:33:27.118Z</time></trkpt><trkpt lat="40.92053" lon="14.0243683"><ele>4.666666666666666</ele><time>2026-03-24T13:33:28.119Z</time></trkpt><trkpt lat="40.9204483" lon="14.0243583"><ele>5.0</ele><time>2026-03-24T13:33:29.118Z</time></trkpt><trkpt lat="40.92037" lon="14.0243517"><ele>5.333333333333333</ele><time>2026-03-24T13:33:30.119Z</time></trkpt><trkpt lat="40.9202917" lon="14.0243433"><ele>5.666666666666667</ele><time>2026-03-24T13:33:31.119Z</time></trkpt><trkpt lat="40.920215" lon="14.0243367"><ele>6.0</ele><time>2026-03-24T13:33:32.12Z</time></trkpt><trkpt lat="40.9201367" lon="14.0243317"><ele>6.0</ele><time>2026-03-24T13:33:33.118Z</time></trkpt><trkpt lat="40.9200633" lon="14.0243267"><ele>6.0</ele><time>2026-03-24T13:33:34.119Z</time></trkpt><trkpt lat="40.9199867" lon="14.024325"><ele>6.0</ele><time>2026-03-24T13:33:35.118Z</time></trkpt><trkpt lat="40.91991" lon="14.02433"><ele>6.0</ele><time>2026-03-24T13:33:36.121Z</time></trkpt><trkpt lat="40.9198317" lon="14.0243383"><ele>6.0</ele><time>2026-03-24T13:33:37.119Z</time></trkpt><trkpt lat="40.9197517" lon="14.0243517"><ele>6.0</ele><time>2026-03-24T13:33:38.118Z</time></trkpt><trkpt lat="40.9196717" lon="14.0243667"><ele>6.0</ele><time>2026-03-24T13:33:39.118Z</time></trkpt><trkpt lat="40.9195917" lon="14.024385"><ele>6.0</ele><time>2026-03-24T13:33:40.12Z</time></trkpt><trkpt lat="40.9195133" lon="14.0244117"><ele>6.0</ele><time>2026-03-24T13:33:41.118Z</time></trkpt><trkpt lat="40.9194333" lon="14.0244417"><ele>6.0</ele><time>2026-03-24T13:33:42.119Z</time></trkpt><trkpt lat="40.9193517" lon="14.024475"><ele>6.0</ele><time>2026-03-24T13:33:43.119Z</time></trkpt><trkpt lat="40.9192683" lon="14.02451"><ele>6.0</ele><time>2026-03-24T13:33:44.118Z</time></trkpt><trkpt lat="40.9191883" lon="14.0245517"><ele>6.0</ele><time>2026-03-24T13:33:45.122Z</time></trkpt><trkpt lat="40.9191083" lon="14.0245967"><ele>6.0</ele><time>2026-03-24T13:33:46.118Z</time></trkpt><trkpt lat="40.919035" lon="14.0246517"><ele>6.0</ele><time>2026-03-24T13:33:47.118Z</time></trkpt><trkpt lat="40.9189683" lon="14.024715"><ele>6.0</ele><time>2026-03-24T13:33:48.118Z</time></trkpt><trkpt lat="40.918905" lon="14.0247867"><ele>6.0</ele><time>2026-03-24T13:33:49.119Z</time></trkpt><trkpt lat="40.9188417" lon="14.0248583"><ele>6.0</ele><time>2026-03-24T13:33:50.119Z</time></trkpt><trkpt lat="40.9187783" lon="14.0249333"><ele>5.833333333333333</ele><time>2026-03-24T13:33:51.12Z</time></trkpt><trkpt lat="40.9187133" lon="14.02501"><ele>5.666666666666667</ele><time>2026-03-24T13:33:52.118Z</time></trkpt><trkpt lat="40.9186533" lon="14.0250883"><ele>5.5</ele><time>2026-03-24T13:33:53.118Z</time></trkpt><trkpt lat="40.918595" lon="14.0251717"><ele>5.333333333333334</ele><time>2026-03-24T13:33:54.119Z</time></trkpt><trkpt lat="40.91854" lon="14.0252567"><ele>5.166666666666667</ele><time>2026-03-24T13:33:55.12Z</time></trkpt><trkpt lat="40.9184883" lon="14.0253467"><ele>5.0</ele><time>2026-03-24T13:33:56.12Z</time></trkpt><trkpt lat="40.9184417" lon="14.0254417"><ele>4.833333333333334</ele><time>2026-03-24T13:33:57.119Z</time></trkpt><trkpt lat="40.918395" lon="14.025535"><ele>4.666666666666667</ele><time>2026-03-24T13:33:58.119Z</time></trkpt><trkpt lat="40.9183517" lon="14.0256317"><ele>4.5</ele><time>2026-03-24T13:33:59.12Z</time></trkpt><trkpt lat="40.9183117" lon="14.0257317"><ele>4.333333333333333</ele><time>2026-03-24T13:34:00.118Z</time></trkpt><trkpt lat="40.918275" lon="14.0258317"><ele>4.166666666666666</ele><time>2026-03-24T13:34:01.12Z</time></trkpt><trkpt lat="40.91824" lon="14.0259333"><ele>4.0</ele><time>2026-03-24T13:34:02.119Z</time></trkpt><trkpt lat="40.9182117" lon="14.02604"><ele>3.9999999999999996</ele><time>2026-03-24T13:34:03.119Z</time></trkpt><trkpt lat="40.9181917" lon="14.0261483"><ele>4.0</ele><time>2026-03-24T13:34:04.118Z</time></trkpt><trkpt lat="40.918175" lon="14.0262583"><ele>4.0</ele><time>2026-03-24T13:34:05.118Z</time></trkpt><trkpt lat="40.9181567" lon="14.0263667"><ele>4.0</ele><time>2026-03-24T13:34:06.119Z</time></trkpt><trkpt lat="40.91814" lon="14.0264717"><ele>3.9999999999999996</ele><time>2026-03-24T13:34:07.119Z</time></trkpt><trkpt lat="40.918125" lon="14.0265767"><ele>4.0</ele><time>2026-03-24T13:34:08.119Z</time></trkpt><trkpt lat="40.9181183" lon="14.0266817"><ele>3.833333333333333</ele><time>2026-03-24T13:34:09.124Z</time></trkpt><trkpt lat="40.9181133" lon="14.0267867"><ele>3.6666666666666665</ele><time>2026-03-24T13:34:10.119Z</time></trkpt><trkpt lat="40.9181067" lon="14.026895"><ele>3.5</ele><time>2026-03-24T13:34:11.119Z</time></trkpt><trkpt lat="40.9181" lon="14.027"><ele>3.333333333333333</ele><time>2026-03-24T13:34:12.12Z</time></trkpt><trkpt lat="40.91809" lon="14.0271083"><ele>3.1666666666666665</ele><time>2026-03-24T13:34:13.118Z</time></trkpt><trkpt lat="40.9180767" lon="14.0272133"><ele>3.0</ele><time>2026-03-24T13:34:14.118Z</time></trkpt><trkpt lat="40.918065" lon="14.0273233"><ele>3.0</ele><time>2026-03-24T13:34:15.119Z</time></trkpt><trkpt lat="40.9180567" lon="14.0274317"><ele>3.0</ele><time>2026-03-24T13:34:16.118Z</time></trkpt><trkpt lat="40.918045" lon="14.0275383"><ele>3.0</ele><time>2026-03-24T13:34:17.118Z</time></trkpt><trkpt lat="40.9180333" lon="14.0276433"><ele>3.0</ele><time>2026-03-24T13:34:18.118Z</time></trkpt><trkpt lat="40.91802" lon="14.0277467"><ele>3.0</ele><time>2026-03-24T13:34:19.12Z</time></trkpt><trkpt lat="40.91801" lon="14.02785"><ele>3.0</ele><time>2026-03-24T13:34:20.119Z</time></trkpt><trkpt lat="40.9180017" lon="14.027955"><ele>2.8333333333333335</ele><time>2026-03-24T13:34:21.119Z</time></trkpt><trkpt lat="40.9179967" lon="14.02806"><ele>2.6666666666666665</ele><time>2026-03-24T13:34:22.119Z</time></trkpt><trkpt lat="40.9179883" lon="14.0281617"><ele>2.5</ele><time>2026-03-24T13:34:23.118Z</time></trkpt><trkpt lat="40.91798" lon="14.0282633"><ele>2.333333333333333</ele><time>2026-03-24T13:34:24.12Z</time></trkpt><trkpt lat="40.9179683" lon="14.028365"><ele>2.1666666666666665</ele><time>2026-03-24T13:34:25.118Z</time></trkpt><trkpt lat="40.9179617" lon="14.02846"><ele>2.0</ele><time>2026-03-24T13:34:26.118Z</time></trkpt><trkpt lat="40.917955" lon="14.028555"><ele>2.6666666666666665</ele><time>2026-03-24T13:34:27.118Z</time></trkpt><trkpt lat="40.91794" lon="14.0286517"><ele>3.333333333333333</ele><time>2026-03-24T13:34:28.118Z</time></trkpt><trkpt lat="40.9179267" lon="14.02875"><ele>4.0</ele><time>2026-03-24T13:34:29.119Z</time></trkpt><trkpt lat="40.9179167" lon="14.0288517"><ele>4.666666666666667</ele><time>2026-03-24T13:34:30.119Z</time></trkpt><trkpt lat="40.9179067" lon="14.028955"><ele>5.333333333333333</ele><time>2026-03-24T13:34:31.118Z</time></trkpt><trkpt lat="40.9178983" lon="14.0290583"><ele>6.0</ele><time>2026-03-24T13:34:32.119Z</time></trkpt><trkpt lat="40.9178883" lon="14.02916"><ele>7.0</ele><time>2026-03-24T13:34:33.119Z</time></trkpt><trkpt lat="40.9178783" lon="14.02926"><ele>8.0</ele><time>2026-03-24T13:34:34.119Z</time></trkpt><trkpt lat="40.9178683" lon="14.0293633"><ele>9.0</ele><time>2026-03-24T13:34:35.12Z</time></trkpt><trkpt lat="40.9178583" lon="14.0294667"><ele>10.0</ele><time>2026-03-24T13:34:36.118Z</time></trkpt><trkpt lat="40.9178483" lon="14.0295717"><ele>11.0</ele><time>2026-03-24T13:34:37.118Z</time></trkpt><trkpt lat="40.9178383" lon="14.029675"><ele>12.0</ele><time>2026-03-24T13:34:38.119Z</time></trkpt><trkpt lat="40.9178317" lon="14.0297783"><ele>12.0</ele><time>2026-03-24T13:34:39.119Z</time></trkpt><trkpt lat="40.9178267" lon="14.0298833"><ele>12.0</ele><time>2026-03-24T13:34:40.119Z</time></trkpt><trkpt lat="40.9178183" lon="14.02998"><ele>12.0</ele><time>2026-03-24T13:34:41.119Z</time></trkpt><trkpt lat="40.9178083" lon="14.0300767"><ele>12.0</ele><time>2026-03-24T13:34:42.119Z</time></trkpt><trkpt lat="40.9178" lon="14.0301733"><ele>12.0</ele><time>2026-03-24T13:34:43.118Z</time></trkpt><trkpt lat="40.9177933" lon="14.0302733"><ele>12.0</ele><time>2026-03-24T13:34:44.118Z</time></trkpt><trkpt lat="40.9177867" lon="14.0303733"><ele>12.0</ele><time>2026-03-24T13:34:45.119Z</time></trkpt><trkpt lat="40.9177767" lon="14.030475"><ele>12.0</ele><time>2026-03-24T13:34:46.119Z</time></trkpt><trkpt lat="40.9177633" lon="14.0305767"><ele>12.0</ele><time>2026-03-24T13:34:47.118Z</time></trkpt><trkpt lat="40.9177517" lon="14.03068"><ele>12.0</ele><time>2026-03-24T13:34:48.118Z</time></trkpt><trkpt lat="40.91774" lon="14.0307817"><ele>12.0</ele><time>2026-03-24T13:34:49.119Z</time></trkpt><trkpt lat="40.9177283" lon="14.0308833"><ele>12.0</ele><time>2026-03-24T13:34:50.119Z</time></trkpt><trkpt lat="40.9177183" lon="14.030985"><ele>11.833333333333334</ele><time>2026-03-24T13:34:51.122Z</time></trkpt><trkpt lat="40.91771" lon="14.0310867"><ele>11.666666666666666</ele><time>2026-03-24T13:34:52.118Z</time></trkpt><trkpt lat="40.9176967" lon="14.0311883"><ele>11.5</ele><time>2026-03-24T13:34:53.118Z</time></trkpt><trkpt lat="40.917685" lon="14.0312883"><ele>11.333333333333332</ele><time>2026-03-24T13:34:54.119Z</time></trkpt><trkpt lat="40.917675" lon="14.0313883"><ele>11.166666666666666</ele><time>2026-03-24T13:34:55.119Z</time></trkpt><trkpt lat="40.9176633" lon="14.0314933"><ele>11.0</ele><time>2026-03-24T13:34:56.119Z</time></trkpt><trkpt lat="40.917655" lon="14.0315983"><ele>11.166666666666666</ele><time>2026-03-24T13:34:57.118Z</time></trkpt><trkpt lat="40.9176517" lon="14.0317033"><ele>11.333333333333332</ele><time>2026-03-24T13:34:58.118Z</time></trkpt><trkpt lat="40.9176433" lon="14.0318067"><ele>11.5</ele><time>2026-03-24T13:34:59.118Z</time></trkpt><trkpt lat="40.9176333" lon="14.03191"><ele>11.666666666666666</ele><time>2026-03-24T13:35:00.119Z</time></trkpt><trkpt lat="40.9176217" lon="14.0320167"><ele>11.833333333333334</ele><time>2026-03-24T13:35:01.12Z</time></trkpt><trkpt lat="40.91761" lon="14.032125"><ele>12.0</ele><time>2026-03-24T13:35:02.119Z</time></trkpt><trkpt lat="40.9176" lon="14.032235"><ele>12.0</ele><time>2026-03-24T13:35:03.118Z</time></trkpt><trkpt lat="40.9175867" lon="14.032345"><ele>12.0</ele><time>2026-03-24T13:35:04.118Z</time></trkpt><trkpt lat="40.9175733" lon="14.032455"><ele>12.0</ele><time>2026-03-24T13:35:05.118Z</time></trkpt><trkpt lat="40.9175617" lon="14.032565"><ele>12.0</ele><time>2026-03-24T13:35:06.12Z</time></trkpt><trkpt lat="40.9175433" lon="14.032675"><ele>12.0</ele><time>2026-03-24T13:35:07.117Z</time></trkpt><trkpt lat="40.91753" lon="14.0327833"><ele>12.0</ele><time>2026-03-24T13:35:08.117Z</time></trkpt><trkpt lat="40.917515" lon="14.032895"><ele>12.0</ele><time>2026-03-24T13:35:09.117Z</time></trkpt><trkpt lat="40.917505" lon="14.0330067"><ele>12.0</ele><time>2026-03-24T13:35:10.117Z</time></trkpt><trkpt lat="40.9174967" lon="14.03312"><ele>12.0</ele><time>2026-03-24T13:35:11.118Z</time></trkpt><trkpt lat="40.9174867" lon="14.033235"><ele>12.0</ele><time>2026-03-24T13:35:12.118Z</time></trkpt><trkpt lat="40.9174717" lon="14.0333467"><ele>12.0</ele><time>2026-03-24T13:35:13.118Z</time></trkpt><trkpt lat="40.9174583" lon="14.03346"><ele>12.0</ele><time>2026-03-24T13:35:14.118Z</time></trkpt><trkpt lat="40.9174483" lon="14.0335717"><ele>12.0</ele><time>2026-03-24T13:35:15.119Z</time></trkpt><trkpt lat="40.91744" lon="14.0336867"><ele>12.0</ele><time>2026-03-24T13:35:16.117Z</time></trkpt><trkpt lat="40.91743" lon="14.0338"><ele>12.0</ele><time>2026-03-24T13:35:17.118Z</time></trkpt><trkpt lat="40.91742" lon="14.0339133"><ele>12.0</ele><time>2026-03-24T13:35:18.117Z</time></trkpt><trkpt lat="40.9174017" lon="14.034025"><ele>12.0</ele><time>2026-03-24T13:35:19.118Z</time></trkpt><trkpt lat="40.9173767" lon="14.0341367"><ele>12.0</ele><time>2026-03-24T13:35:20.117Z</time></trkpt><trkpt lat="40.9173483" lon="14.03425"><ele>11.6</ele><time>2026-03-24T13:35:21.118Z</time></trkpt><trkpt lat="40.9173133" lon="14.0343633"><ele>11.2</ele><time>2026-03-24T13:35:22.117Z</time></trkpt><trkpt lat="40.917275" lon="14.0344733"><ele>10.8</ele><time>2026-03-24T13:35:23.117Z</time></trkpt><trkpt lat="40.9172317" lon="14.0345867"><ele>10.4</ele><time>2026-03-24T13:35:24.117Z</time></trkpt><trkpt lat="40.917185" lon="14.034695"><ele>10.0</ele><time>2026-03-24T13:35:25.119Z</time></trkpt><trkpt lat="40.9171367" lon="14.034805"><ele>10.0</ele><time>2026-03-24T13:35:26.119Z</time></trkpt><trkpt lat="40.91708" lon="14.03491"><ele>10.0</ele><time>2026-03-24T13:35:27.118Z</time></trkpt><trkpt lat="40.917015" lon="14.0350117"><ele>10.0</ele><time>2026-03-24T13:35:28.117Z</time></trkpt><trkpt lat="40.9169433" lon="14.0351083"><ele>10.0</ele><time>2026-03-24T13:35:29.118Z</time></trkpt><trkpt lat="40.9168667" lon="14.0351983"><ele>10.0</ele><time>2026-03-24T13:35:30.118Z</time></trkpt><trkpt lat="40.9167783" lon="14.0352833"><ele>9.0</ele><time>2026-03-24T13:35:31.118Z</time></trkpt><trkpt lat="40.91669" lon="14.0353633"><ele>8.0</ele><time>2026-03-24T13:35:32.117Z</time></trkpt><trkpt lat="40.9166" lon="14.0354383"><ele>7.0</ele><time>2026-03-24T13:35:33.118Z</time></trkpt><trkpt lat="40.9165083" lon="14.0355083"><ele>6.0</ele><time>2026-03-24T13:35:34.117Z</time></trkpt><trkpt lat="40.9164133" lon="14.03557"><ele>5.0</ele><time>2026-03-24T13:35:35.118Z</time></trkpt><trkpt lat="40.916315" lon="14.0356217"><ele>5.0</ele><time>2026-03-24T13:35:36.118Z</time></trkpt><trkpt lat="40.9162183" lon="14.03567"><ele>5.0</ele><time>2026-03-24T13:35:37.118Z</time></trkpt><trkpt lat="40.9161233" lon="14.0357117"><ele>5.0</ele><time>2026-03-24T13:35:38.119Z</time></trkpt><trkpt lat="40.9160267" lon="14.0357483"><ele>5.0</ele><time>2026-03-24T13:35:39.118Z</time></trkpt><trkpt lat="40.9159267" lon="14.03578"><ele>5.0</ele><time>2026-03-24T13:35:40.117Z</time></trkpt><trkpt lat="40.9158283" lon="14.03581"><ele>4.6</ele><time>2026-03-24T13:35:41.117Z</time></trkpt><trkpt lat="40.9157267" lon="14.03584"><ele>4.2</ele><time>2026-03-24T13:35:42.119Z</time></trkpt><trkpt lat="40.91563" lon="14.035865"><ele>3.8</ele><time>2026-03-24T13:35:43.12Z</time></trkpt><trkpt lat="40.9155333" lon="14.0358933"><ele>3.4</ele><time>2026-03-24T13:35:44.118Z</time></trkpt><trkpt lat="40.915435" lon="14.035925"><ele>3.0</ele><time>2026-03-24T13:35:45.118Z</time></trkpt><trkpt lat="40.9153367" lon="14.035955"><ele>3.0</ele><time>2026-03-24T13:35:46.118Z</time></trkpt><trkpt lat="40.9152417" lon="14.0359833"><ele>3.0</ele><time>2026-03-24T13:35:47.118Z</time></trkpt><trkpt lat="40.9151483" lon="14.0360117"><ele>3.0</ele><time>2026-03-24T13:35:48.117Z</time></trkpt><trkpt lat="40.915055" lon="14.03604"><ele>3.0</ele><time>2026-03-24T13:35:49.117Z</time></trkpt><trkpt lat="40.9149617" lon="14.0360667"><ele>3.0</ele><time>2026-03-24T13:35:50.119Z</time></trkpt><trkpt lat="40.9148667" lon="14.036095"><ele>2.4</ele><time>2026-03-24T13:35:51.118Z</time></trkpt><trkpt lat="40.9147733" lon="14.0361267"><ele>1.7999999999999998</ele><time>2026-03-24T13:35:52.118Z</time></trkpt><trkpt lat="40.9146783" lon="14.0361583"><ele>1.2</ele><time>2026-03-24T13:35:53.119Z</time></trkpt><trkpt lat="40.9145883" lon="14.036185"><ele>0.6</ele><time>2026-03-24T13:35:54.12Z</time></trkpt><trkpt lat="40.914495" lon="14.036215"><ele>0.0</ele><time>2026-03-24T13:35:55.118Z</time></trkpt><trkpt lat="40.9143983" lon="14.036245"><ele>0.0</ele><time>2026-03-24T13:35:56.119Z</time></trkpt><trkpt lat="40.9143017" lon="14.036275"><ele>0.0</ele><time>2026-03-24T13:35:57.117Z</time></trkpt><trkpt lat="40.9142083" lon="14.0363017"><ele>0.0</ele><time>2026-03-24T13:35:58.117Z</time></trkpt><trkpt lat="40.9141117" lon="14.0363317"><ele>0.0</ele><time>2026-03-24T13:35:59.119Z</time></trkpt><trkpt lat="40.914015" lon="14.03636"><ele>0.0</ele><time>2026-03-24T13:36:00.119Z</time></trkpt><trkpt lat="40.91392" lon="14.0363867"><ele>0.4</ele><time>2026-03-24T13:36:01.118Z</time></trkpt><trkpt lat="40.91383" lon="14.0364167"><ele>0.8</ele><time>2026-03-24T13:36:02.118Z</time></trkpt><trkpt lat="40.9137417" lon="14.03645"><ele>1.2000000000000002</ele><time>2026-03-24T13:36:03.118Z</time></trkpt><trkpt lat="40.91365" lon="14.036485"><ele>1.6</ele><time>2026-03-24T13:36:04.117Z</time></trkpt><trkpt lat="40.9135567" lon="14.0365133"><ele>2.0</ele><time>2026-03-24T13:36:05.118Z</time></trkpt><trkpt lat="40.9134617" lon="14.03654"><ele>2.0</ele><time>2026-03-24T13:36:06.118Z</time></trkpt><trkpt lat="40.9133717" lon="14.0365633"><ele>2.0</ele><time>2026-03-24T13:36:07.12Z</time></trkpt><trkpt lat="40.9132783" lon="14.0365867"><ele>2.0</ele><time>2026-03-24T13:36:08.119Z</time></trkpt><trkpt lat="40.9131833" lon="14.0366183"><ele>2.0</ele><time>2026-03-24T13:36:09.119Z</time></trkpt><trkpt lat="40.91309" lon="14.03665"><ele>2.0</ele><time>2026-03-24T13:36:10.117Z</time></trkpt><trkpt lat="40.912995" lon="14.0366783"><ele>2.0</ele><time>2026-03-24T13:36:11.118Z</time></trkpt><trkpt lat="40.9129" lon="14.036705"><ele>2.0</ele><time>2026-03-24T13:36:12.117Z</time></trkpt><trkpt lat="40.9128067" lon="14.0367333"><ele>2.0</ele><time>2026-03-24T13:36:13.118Z</time></trkpt><trkpt lat="40.912715" lon="14.0367583"><ele>2.0</ele><time>2026-03-24T13:36:14.118Z</time></trkpt><trkpt lat="40.9126217" lon="14.0367833"><ele>2.0</ele><time>2026-03-24T13:36:15.12Z</time></trkpt><trkpt lat="40.91253" lon="14.0368083"><ele>2.0</ele><time>2026-03-24T13:36:16.117Z</time></trkpt><trkpt lat="40.912435" lon="14.0368383"><ele>2.0</ele><time>2026-03-24T13:36:17.119Z</time></trkpt><trkpt lat="40.9123417" lon="14.0368633"><ele>2.0</ele><time>2026-03-24T13:36:18.117Z</time></trkpt><trkpt lat="40.91225" lon="14.0368883"><ele>2.0</ele><time>2026-03-24T13:36:19.118Z</time></trkpt><trkpt lat="40.91216" lon="14.036915"><ele>2.0</ele><time>2026-03-24T13:36:20.118Z</time></trkpt><trkpt lat="40.9120717" lon="14.0369417"><ele>2.0</ele><time>2026-03-24T13:36:21.117Z</time></trkpt><trkpt lat="40.9119767" lon="14.0369717"><ele>2.0</ele><time>2026-03-24T13:36:22.117Z</time></trkpt><trkpt lat="40.9118833" lon="14.0370033"><ele>2.0</ele><time>2026-03-24T13:36:23.118Z</time></trkpt><trkpt lat="40.9117933" lon="14.0370317"><ele>2.0</ele><time>2026-03-24T13:36:24.117Z</time></trkpt><trkpt lat="40.9117" lon="14.0370617"><ele>2.0</ele><time>2026-03-24T13:36:25.119Z</time></trkpt><trkpt lat="40.9116083" lon="14.0370917"><ele>1.6</ele><time>2026-03-24T13:36:26.118Z</time></trkpt><trkpt lat="40.911515" lon="14.03712"><ele>1.2000000000000002</ele><time>2026-03-24T13:36:27.125Z</time></trkpt><trkpt lat="40.91142" lon="14.0371417"><ele>0.8</ele><time>2026-03-24T13:36:28.119Z</time></trkpt><trkpt lat="40.9113283" lon="14.0371683"><ele>0.4</ele><time>2026-03-24T13:36:29.118Z</time></trkpt><trkpt lat="40.9112317" lon="14.0371933"><ele>0.0</ele><time>2026-03-24T13:36:30.118Z</time></trkpt><trkpt lat="40.9111383" lon="14.0372183"><ele>0.0</ele><time>2026-03-24T13:36:31.118Z</time></trkpt><trkpt lat="40.9110433" lon="14.037245"><ele>0.0</ele><time>2026-03-24T13:36:32.119Z</time></trkpt><trkpt lat="40.910955" lon="14.0372733"><ele>0.0</ele><time>2026-03-24T13:36:33.119Z</time></trkpt><trkpt lat="40.9108667" lon="14.0373033"><ele>0.0</ele><time>2026-03-24T13:36:34.117Z</time></trkpt><trkpt lat="40.9107783" lon="14.03733"><ele>0.0</ele><time>2026-03-24T13:36:35.119Z</time></trkpt><trkpt lat="40.9106867" lon="14.0373583"><ele>0.0</ele><time>2026-03-24T13:36:36.118Z</time></trkpt><trkpt lat="40.910595" lon="14.037385"><ele>0.0</ele><time>2026-03-24T13:36:37.117Z</time></trkpt><trkpt lat="40.9105017" lon="14.03741"><ele>0.0</ele><time>2026-03-24T13:36:38.118Z</time></trkpt><trkpt lat="40.91041" lon="14.0374317"><ele>0.0</ele><time>2026-03-24T13:36:39.118Z</time></trkpt><trkpt lat="40.9103167" lon="14.0374567"><ele>0.0</ele><time>2026-03-24T13:36:40.118Z</time></trkpt><trkpt lat="40.910225" lon="14.0374817"><ele>0.2</ele><time>2026-03-24T13:36:41.117Z</time></trkpt><trkpt lat="40.910135" lon="14.0375117"><ele>0.4</ele><time>2026-03-24T13:36:42.118Z</time></trkpt><trkpt lat="40.9100467" lon="14.03754"><ele>0.6000000000000001</ele><time>2026-03-24T13:36:43.119Z</time></trkpt><trkpt lat="40.9099583" lon="14.03757"><ele>0.8</ele><time>2026-03-24T13:36:44.118Z</time></trkpt><trkpt lat="40.9098733" lon="14.0375983"><ele>1.0</ele><time>2026-03-24T13:36:45.118Z</time></trkpt><trkpt lat="40.9097883" lon="14.0376267"><ele>0.9999999999999999</ele><time>2026-03-24T13:36:46.118Z</time></trkpt><trkpt lat="40.9097" lon="14.0376533"><ele>1.0</ele><time>2026-03-24T13:36:47.118Z</time></trkpt><trkpt lat="40.9096167" lon="14.0376783"><ele>1.0</ele><time>2026-03-24T13:36:48.119Z</time></trkpt><trkpt lat="40.90953" lon="14.0377017"><ele>1.0</ele><time>2026-03-24T13:36:49.119Z</time></trkpt><trkpt lat="40.9094433" lon="14.03773"><ele>0.9999999999999999</ele><time>2026-03-24T13:36:50.118Z</time></trkpt><trkpt lat="40.9093583" lon="14.037755"><ele>1.0</ele><time>2026-03-24T13:36:51.117Z</time></trkpt><trkpt lat="40.9092733" lon="14.0377783"><ele>0.6666666666666666</ele><time>2026-03-24T13:36:52.117Z</time></trkpt><trkpt lat="40.909185" lon="14.0378017"><ele>0.3333333333333333</ele><time>2026-03-24T13:36:53.118Z</time></trkpt><trkpt lat="40.9090983" lon="14.0378233"><ele>0.0</ele><time>2026-03-24T13:36:54.118Z</time></trkpt><trkpt lat="40.909015" lon="14.037845"><ele>-0.3333333333333333</ele><time>2026-03-24T13:36:55.118Z</time></trkpt><trkpt lat="40.9089333" lon="14.037865"><ele>-0.6666666666666666</ele><time>2026-03-24T13:36:56.119Z</time></trkpt><trkpt lat="40.9088517" lon="14.0378867"><ele>-1.0</ele><time>2026-03-24T13:36:57.118Z</time></trkpt><trkpt lat="40.9087683" lon="14.03791"><ele>-0.9999999999999999</ele><time>2026-03-24T13:36:58.117Z</time></trkpt><trkpt lat="40.9086867" lon="14.0379317"><ele>-1.0</ele><time>2026-03-24T13:36:59.12Z</time></trkpt><trkpt lat="40.908605" lon="14.037955"><ele>-1.0</ele><time>2026-03-24T13:37:00.118Z</time></trkpt><trkpt lat="40.9085233" lon="14.0379783"><ele>-1.0</ele><time>2026-03-24T13:37:01.119Z</time></trkpt><trkpt lat="40.9084383" lon="14.038005"><ele>-0.9999999999999999</ele><time>2026-03-24T13:37:02.118Z</time></trkpt><trkpt lat="40.908355" lon="14.0380317"><ele>-1.0</ele><time>2026-03-24T13:37:03.118Z</time></trkpt><trkpt lat="40.9082733" lon="14.0380583"><ele>-0.6666666666666666</ele><time>2026-03-24T13:37:04.117Z</time></trkpt><trkpt lat="40.9081917" lon="14.0380833"><ele>-0.3333333333333333</ele><time>2026-03-24T13:37:05.118Z</time></trkpt><trkpt lat="40.9081117" lon="14.0381067"><ele>0.0</ele><time>2026-03-24T13:37:06.119Z</time></trkpt><trkpt lat="40.9080283" lon="14.03813"><ele>0.3333333333333333</ele><time>2026-03-24T13:37:07.118Z</time></trkpt><trkpt lat="40.9079467" lon="14.0381583"><ele>0.6666666666666666</ele><time>2026-03-24T13:37:08.118Z</time></trkpt><trkpt lat="40.9078683" lon="14.0381883"><ele>1.0</ele><time>2026-03-24T13:37:09.118Z</time></trkpt><trkpt lat="40.9077917" lon="14.0382133"><ele>0.9999999999999999</ele><time>2026-03-24T13:37:10.117Z</time></trkpt><trkpt lat="40.9077133" lon="14.0382383"><ele>1.0</ele><time>2026-03-24T13:37:11.118Z</time></trkpt><trkpt lat="40.907635" lon="14.0382633"><ele>1.0</ele><time>2026-03-24T13:37:12.118Z</time></trkpt><trkpt lat="40.907555" lon="14.038285"><ele>1.0</ele><time>2026-03-24T13:37:13.117Z</time></trkpt><trkpt lat="40.9074783" lon="14.03831"><ele>0.9999999999999999</ele><time>2026-03-24T13:37:14.119Z</time></trkpt><trkpt lat="40.9074017" lon="14.0383367"><ele>1.0</ele><time>2026-03-24T13:37:15.119Z</time></trkpt><trkpt lat="40.9073217" lon="14.0383667"><ele>1.1666666666666665</ele><time>2026-03-24T13:37:16.118Z</time></trkpt><trkpt lat="40.90724" lon="14.0383933"><ele>1.3333333333333333</ele><time>2026-03-24T13:37:17.118Z</time></trkpt><trkpt lat="40.90716" lon="14.0384183"><ele>1.5</ele><time>2026-03-24T13:37:18.118Z</time></trkpt><trkpt lat="40.90708" lon="14.0384433"><ele>1.6666666666666665</ele><time>2026-03-24T13:37:19.118Z</time></trkpt><trkpt lat="40.907" lon="14.03847"><ele>1.8333333333333333</ele><time>2026-03-24T13:37:20.118Z</time></trkpt><trkpt lat="40.906925" lon="14.038495"><ele>2.0</ele><time>2026-03-24T13:37:21.118Z</time></trkpt><trkpt lat="40.9068417" lon="14.0385183"><ele>1.9999999999999998</ele><time>2026-03-24T13:37:22.118Z</time></trkpt><trkpt lat="40.9067583" lon="14.0385383"><ele>2.0</ele><time>2026-03-24T13:37:23.118Z</time></trkpt><trkpt lat="40.9066783" lon="14.0385617"><ele>2.0</ele><time>2026-03-24T13:37:24.118Z</time></trkpt><trkpt lat="40.9065967" lon="14.0385833"><ele>2.0</ele><time>2026-03-24T13:37:25.118Z</time></trkpt><trkpt lat="40.906515" lon="14.0386083"><ele>1.9999999999999998</ele><time>2026-03-24T13:37:26.12Z</time></trkpt><trkpt lat="40.906435" lon="14.038635"><ele>2.0</ele><time>2026-03-24T13:37:27.117Z</time></trkpt><trkpt lat="40.906355" lon="14.03866"><ele>1.8333333333333333</ele><time>2026-03-24T13:37:28.119Z</time></trkpt><trkpt lat="40.9062733" lon="14.0386867"><ele>1.6666666666666665</ele><time>2026-03-24T13:37:29.118Z</time></trkpt><trkpt lat="40.90619" lon="14.0387133"><ele>1.5</ele><time>2026-03-24T13:37:30.118Z</time></trkpt><trkpt lat="40.90611" lon="14.038735"><ele>1.3333333333333333</ele><time>2026-03-24T13:37:31.118Z</time></trkpt><trkpt lat="40.9060333" lon="14.03876"><ele>1.1666666666666665</ele><time>2026-03-24T13:37:32.119Z</time></trkpt><trkpt lat="40.905955" lon="14.0387833"><ele>1.0</ele><time>2026-03-24T13:37:33.119Z</time></trkpt><trkpt lat="40.9058733" lon="14.0388067"><ele>0.9999999999999999</ele><time>2026-03-24T13:37:34.117Z</time></trkpt><trkpt lat="40.90579" lon="14.0388317"><ele>1.0</ele><time>2026-03-24T13:37:35.118Z</time></trkpt><trkpt lat="40.9057083" lon="14.038855"><ele>1.0</ele><time>2026-03-24T13:37:36.124Z</time></trkpt><trkpt lat="40.90563" lon="14.038875"><ele>1.0</ele><time>2026-03-24T13:37:37.118Z</time></trkpt><trkpt lat="40.9055533" lon="14.0388933"><ele>0.9999999999999999</ele><time>2026-03-24T13:37:38.119Z</time></trkpt><trkpt lat="40.9054833" lon="14.038915"><ele>1.0</ele><time>2026-03-24T13:37:39.119Z</time></trkpt><trkpt lat="40.9054083" lon="14.0389367"><ele>0.9999999999999999</ele><time>2026-03-24T13:37:40.118Z</time></trkpt><trkpt lat="40.9053333" lon="14.0389583"><ele>1.0</ele><time>2026-03-24T13:37:41.118Z</time></trkpt><trkpt lat="40.9052567" lon="14.03898"><ele>1.0</ele><time>2026-03-24T13:37:42.119Z</time></trkpt><trkpt lat="40.9051833" lon="14.038995"><ele>1.0</ele><time>2026-03-24T13:37:43.117Z</time></trkpt><trkpt lat="40.9051067" lon="14.0390167"><ele>0.9999999999999999</ele><time>2026-03-24T13:37:44.119Z</time></trkpt><trkpt lat="40.9050317" lon="14.0390433"><ele>1.0</ele><time>2026-03-24T13:37:45.118Z</time></trkpt><trkpt lat="40.9049467" lon="14.03907"><ele>0.9999999999999999</ele><time>2026-03-24T13:37:46.117Z</time></trkpt><trkpt lat="40.9048667" lon="14.0390933"><ele>1.0</ele><time>2026-03-24T13:37:47.118Z</time></trkpt><trkpt lat="40.904795" lon="14.0391167"><ele>1.0</ele><time>2026-03-24T13:37:48.118Z</time></trkpt><trkpt lat="40.904715" lon="14.0391383"><ele>1.0</ele><time>2026-03-24T13:37:49.119Z</time></trkpt><trkpt lat="40.9046333" lon="14.03916"><ele>0.9999999999999999</ele><time>2026-03-24T13:37:50.118Z</time></trkpt><trkpt lat="40.90455" lon="14.0391867"><ele>1.0</ele><time>2026-03-24T13:37:51.119Z</time></trkpt><trkpt lat="40.9044683" lon="14.0392133"><ele>0.9999999999999999</ele><time>2026-03-24T13:37:52.117Z</time></trkpt><trkpt lat="40.9043867" lon="14.0392417"><ele>1.0</ele><time>2026-03-24T13:37:53.118Z</time></trkpt><trkpt lat="40.9043067" lon="14.0392667"><ele>1.0</ele><time>2026-03-24T13:37:54.118Z</time></trkpt><trkpt lat="40.9042233" lon="14.0392933"><ele>1.0</ele><time>2026-03-24T13:37:55.119Z</time></trkpt><trkpt lat="40.904145" lon="14.0393183"><ele>0.9999999999999999</ele><time>2026-03-24T13:37:56.118Z</time></trkpt><trkpt lat="40.9040633" lon="14.0393417"><ele>1.0</ele><time>2026-03-24T13:37:57.119Z</time></trkpt><trkpt lat="40.9039817" lon="14.039365"><ele>0.9999999999999999</ele><time>2026-03-24T13:37:58.118Z</time></trkpt><trkpt lat="40.9038983" lon="14.0393833"><ele>1.0</ele><time>2026-03-24T13:37:59.119Z</time></trkpt><trkpt lat="40.9038217" lon="14.0394067"><ele>1.0</ele><time>2026-03-24T13:38:00.118Z</time></trkpt><trkpt lat="40.903745" lon="14.0394317"><ele>1.0</ele><time>2026-03-24T13:38:01.118Z</time></trkpt><trkpt lat="40.9036683" lon="14.0394533"><ele>0.9999999999999999</ele><time>2026-03-24T13:38:02.118Z</time></trkpt><trkpt lat="40.9035883" lon="14.0394717"><ele>1.0</ele><time>2026-03-24T13:38:03.118Z</time></trkpt><trkpt lat="40.9035117" lon="14.039495"><ele>0.9999999999999999</ele><time>2026-03-24T13:38:04.118Z</time></trkpt><trkpt lat="40.903435" lon="14.0395167"><ele>1.0</ele><time>2026-03-24T13:38:05.121Z</time></trkpt><trkpt lat="40.90336" lon="14.0395417"><ele>1.0</ele><time>2026-03-24T13:38:06.118Z</time></trkpt><trkpt lat="40.9032833" lon="14.0395717"><ele>1.0</ele><time>2026-03-24T13:38:07.118Z</time></trkpt><trkpt lat="40.903205" lon="14.0395983"><ele>0.9999999999999999</ele><time>2026-03-24T13:38:08.118Z</time></trkpt><trkpt lat="40.903125" lon="14.0396217"><ele>1.0</ele><time>2026-03-24T13:38:09.118Z</time></trkpt><trkpt lat="40.90305" lon="14.03965"><ele>1.1666666666666665</ele><time>2026-03-24T13:38:10.119Z</time></trkpt><trkpt lat="40.9029683" lon="14.039675"><ele>1.3333333333333333</ele><time>2026-03-24T13:38:11.118Z</time></trkpt><trkpt lat="40.902885" lon="14.0397"><ele>1.5</ele><time>2026-03-24T13:38:12.118Z</time></trkpt><trkpt lat="40.9028" lon="14.039725"><ele>1.6666666666666665</ele><time>2026-03-24T13:38:13.119Z</time></trkpt><trkpt lat="40.9027117" lon="14.0397517"><ele>1.8333333333333333</ele><time>2026-03-24T13:38:14.118Z</time></trkpt><trkpt lat="40.9026267" lon="14.039775"><ele>2.0</ele><time>2026-03-24T13:38:15.118Z</time></trkpt><trkpt lat="40.9025467" lon="14.0397983"><ele>1.6666666666666665</ele><time>2026-03-24T13:38:16.119Z</time></trkpt><trkpt lat="40.9024617" lon="14.039825"><ele>1.3333333333333333</ele><time>2026-03-24T13:38:17.118Z</time></trkpt><trkpt lat="40.902375" lon="14.0398483"><ele>1.0</ele><time>2026-03-24T13:38:18.117Z</time></trkpt><trkpt lat="40.90229" lon="14.0398733"><ele>0.6666666666666666</ele><time>2026-03-24T13:38:19.118Z</time></trkpt><trkpt lat="40.90221" lon="14.039895"><ele>0.3333333333333333</ele><time>2026-03-24T13:38:20.118Z</time></trkpt><trkpt lat="40.9021283" lon="14.0399183"><ele>0.0</ele><time>2026-03-24T13:38:21.118Z</time></trkpt><trkpt lat="40.9020467" lon="14.0399417"><ele>0.0</ele><time>2026-03-24T13:38:22.117Z</time></trkpt><trkpt lat="40.9019667" lon="14.039965"><ele>0.0</ele><time>2026-03-24T13:38:23.118Z</time></trkpt><trkpt lat="40.9018833" lon="14.0399883"><ele>0.0</ele><time>2026-03-24T13:38:24.118Z</time></trkpt><trkpt lat="40.9017983" lon="14.04001"><ele>0.0</ele><time>2026-03-24T13:38:25.118Z</time></trkpt><trkpt lat="40.9017167" lon="14.0400367"><ele>0.0</ele><time>2026-03-24T13:38:26.118Z</time></trkpt><trkpt lat="40.9016317" lon="14.0400617"><ele>0.0</ele><time>2026-03-24T13:38:27.118Z</time></trkpt><trkpt lat="40.9015517" lon="14.040085"><ele>0.16666666666666666</ele><time>2026-03-24T13:38:28.117Z</time></trkpt><trkpt lat="40.9014667" lon="14.0401133"><ele>0.3333333333333333</ele><time>2026-03-24T13:38:29.118Z</time></trkpt><trkpt lat="40.9013917" lon="14.04014"><ele>0.5</ele><time>2026-03-24T13:38:30.118Z</time></trkpt><trkpt lat="40.9013133" lon="14.040165"><ele>0.6666666666666666</ele><time>2026-03-24T13:38:31.118Z</time></trkpt><trkpt lat="40.9012383" lon="14.04019"><ele>0.8333333333333333</ele><time>2026-03-24T13:38:32.12Z</time></trkpt><trkpt lat="40.9011617" lon="14.040215"><ele>1.0</ele><time>2026-03-24T13:38:33.119Z</time></trkpt><trkpt lat="40.9010867" lon="14.0402383"><ele>0.9999999999999999</ele><time>2026-03-24T13:38:34.118Z</time></trkpt><trkpt lat="40.9010167" lon="14.0402667"><ele>1.0</ele><time>2026-03-24T13:38:35.118Z</time></trkpt><trkpt lat="40.9009333" lon="14.0402983"><ele>1.0</ele><time>2026-03-24T13:38:36.119Z</time></trkpt><trkpt lat="40.9008567" lon="14.040325"><ele>1.0</ele><time>2026-03-24T13:38:37.118Z</time></trkpt><trkpt lat="40.9007817" lon="14.040335"><ele>0.9999999999999999</ele><time>2026-03-24T13:38:38.118Z</time></trkpt><trkpt lat="40.9007033" lon="14.0403383"><ele>1.0</ele><time>2026-03-24T13:38:39.121Z</time></trkpt><trkpt lat="40.9006267" lon="14.04036"><ele>0.9999999999999999</ele><time>2026-03-24T13:38:40.118Z</time></trkpt><trkpt lat="40.9005567" lon="14.0404133"><ele>1.0</ele><time>2026-03-24T13:38:41.12Z</time></trkpt><trkpt lat="40.900495" lon="14.0404883"><ele>1.0</ele><time>2026-03-24T13:38:42.118Z</time></trkpt><trkpt lat="40.90045" lon="14.0405833"><ele>1.0</ele><time>2026-03-24T13:38:43.118Z</time></trkpt><trkpt lat="40.900395" lon="14.04067"><ele>0.9999999999999999</ele><time>2026-03-24T13:38:44.118Z</time></trkpt><trkpt lat="40.9003367" lon="14.04075"><ele>1.0</ele><time>2026-03-24T13:38:45.118Z</time></trkpt><trkpt lat="40.900275" lon="14.0408267"><ele>0.9999999999999999</ele><time>2026-03-24T13:38:46.118Z</time></trkpt><trkpt lat="40.9002133" lon="14.0408983"><ele>1.0</ele><time>2026-03-24T13:38:47.118Z</time></trkpt><trkpt lat="40.9001483" lon="14.0409683"><ele>1.0</ele><time>2026-03-24T13:38:48.118Z</time></trkpt><trkpt lat="40.9000817" lon="14.04104"><ele>1.0</ele><time>2026-03-24T13:38:49.118Z</time></trkpt><trkpt lat="40.900015" lon="14.0411217"><ele>0.9999999999999999</ele><time>2026-03-24T13:38:50.118Z</time></trkpt><trkpt lat="40.8999483" lon="14.0412033"><ele>1.0</ele><time>2026-03-24T13:38:51.118Z</time></trkpt><trkpt lat="40.899885" lon="14.0412867"><ele>1.2000000000000002</ele><time>2026-03-24T13:38:52.119Z</time></trkpt><trkpt lat="40.8998183" lon="14.0413733"><ele>1.4000000000000001</ele><time>2026-03-24T13:38:53.119Z</time></trkpt><trkpt lat="40.8997483" lon="14.04146"><ele>1.6</ele><time>2026-03-24T13:38:54.118Z</time></trkpt><trkpt lat="40.8996817" lon="14.0415467"><ele>1.8</ele><time>2026-03-24T13:38:55.118Z</time></trkpt><trkpt lat="40.8996167" lon="14.0416367"><ele>2.0</ele><time>2026-03-24T13:38:56.118Z</time></trkpt><trkpt lat="40.89955" lon="14.041725"><ele>2.2</ele><time>2026-03-24T13:38:57.118Z</time></trkpt><trkpt lat="40.8994817" lon="14.0418117"><ele>2.4000000000000004</ele><time>2026-03-24T13:38:58.119Z</time></trkpt><trkpt lat="40.8994133" lon="14.0418933"><ele>2.5999999999999996</ele><time>2026-03-24T13:38:59.118Z</time></trkpt><trkpt lat="40.8993467" lon="14.0419767"><ele>2.8</ele><time>2026-03-24T13:39:00.119Z</time></trkpt><trkpt lat="40.8992833" lon="14.0420617"><ele>3.0</ele><time>2026-03-24T13:39:01.118Z</time></trkpt><trkpt lat="40.8992183" lon="14.042145"><ele>3.0</ele><time>2026-03-24T13:39:02.119Z</time></trkpt><trkpt lat="40.899155" lon="14.0422267"><ele>3.0</ele><time>2026-03-24T13:39:03.118Z</time></trkpt><trkpt lat="40.8990933" lon="14.0423083"><ele>3.0</ele><time>2026-03-24T13:39:04.118Z</time></trkpt><trkpt lat="40.8990267" lon="14.0423867"><ele>3.0</ele><time>2026-03-24T13:39:05.118Z</time></trkpt><trkpt lat="40.8989617" lon="14.0424683"><ele>3.0</ele><time>2026-03-24T13:39:06.118Z</time></trkpt><trkpt lat="40.8988967" lon="14.0425483"><ele>3.0</ele><time>2026-03-24T13:39:07.12Z</time></trkpt><trkpt lat="40.8988333" lon="14.04263"><ele>3.0</ele><time>2026-03-24T13:39:08.118Z</time></trkpt><trkpt lat="40.8987667" lon="14.0427133"><ele>3.0</ele><time>2026-03-24T13:39:09.118Z</time></trkpt><trkpt lat="40.8987017" lon="14.0427983"><ele>3.0</ele><time>2026-03-24T13:39:10.118Z</time></trkpt><trkpt lat="40.8986417" lon="14.0428867"><ele>3.0</ele><time>2026-03-24T13:39:11.118Z</time></trkpt><trkpt lat="40.898575" lon="14.042975"><ele>3.0</ele><time>2026-03-24T13:39:12.118Z</time></trkpt><trkpt lat="40.8985067" lon="14.0430583"><ele>3.0</ele><time>2026-03-24T13:39:13.118Z</time></trkpt><trkpt lat="40.898435" lon="14.04314"><ele>3.0</ele><time>2026-03-24T13:39:14.118Z</time></trkpt><trkpt lat="40.898365" lon="14.0432217"><ele>3.0</ele><time>2026-03-24T13:39:15.119Z</time></trkpt><trkpt lat="40.8982933" lon="14.0433"><ele>3.0</ele><time>2026-03-24T13:39:16.118Z</time></trkpt><trkpt lat="40.8982183" lon="14.0433717"><ele>3.0</ele><time>2026-03-24T13:39:17.118Z</time></trkpt><trkpt lat="40.8981433" lon="14.043445"><ele>2.6</ele><time>2026-03-24T13:39:18.118Z</time></trkpt><trkpt lat="40.89806" lon="14.0435167"><ele>2.1999999999999997</ele><time>2026-03-24T13:39:19.118Z</time></trkpt><trkpt lat="40.8979767" lon="14.043585"><ele>1.8</ele><time>2026-03-24T13:39:20.118Z</time></trkpt><trkpt lat="40.8978883" lon="14.0436533"><ele>1.4</ele><time>2026-03-24T13:39:21.119Z</time></trkpt><trkpt lat="40.8978" lon="14.043715"><ele>1.0</ele><time>2026-03-24T13:39:22.118Z</time></trkpt><trkpt lat="40.897715" lon="14.0437733"><ele>1.0</ele><time>2026-03-24T13:39:23.118Z</time></trkpt><trkpt lat="40.8976317" lon="14.0438233"><ele>1.0</ele><time>2026-03-24T13:39:24.118Z</time></trkpt><trkpt lat="40.8975483" lon="14.0438683"><ele>1.0</ele><time>2026-03-24T13:39:25.12Z</time></trkpt><trkpt lat="40.8974617" lon="14.0439117"><ele>1.0</ele><time>2026-03-24T13:39:26.119Z</time></trkpt><trkpt lat="40.8973733" lon="14.0439483"><ele>1.0</ele><time>2026-03-24T13:39:27.118Z</time></trkpt><trkpt lat="40.8972833" lon="14.043985"><ele>1.0</ele><time>2026-03-24T13:39:28.117Z</time></trkpt><trkpt lat="40.8971933" lon="14.04402"><ele>1.0</ele><time>2026-03-24T13:39:29.118Z</time></trkpt><trkpt lat="40.8971033" lon="14.0440483"><ele>1.0</ele><time>2026-03-24T13:39:30.119Z</time></trkpt><trkpt lat="40.89701" lon="14.0440767"><ele>1.0</ele><time>2026-03-24T13:39:31.118Z</time></trkpt><trkpt lat="40.8969183" lon="14.0440967"><ele>1.0</ele><time>2026-03-24T13:39:32.118Z</time></trkpt><trkpt lat="40.8968233" lon="14.044115"><ele>0.9999999999999999</ele><time>2026-03-24T13:39:33.118Z</time></trkpt><trkpt lat="40.89673" lon="14.04413"><ele>1.0</ele><time>2026-03-24T13:39:34.118Z</time></trkpt><trkpt lat="40.8966383" lon="14.0441467"><ele>1.0</ele><time>2026-03-24T13:39:35.118Z</time></trkpt><trkpt lat="40.8965517" lon="14.044165"><ele>1.0</ele><time>2026-03-24T13:39:36.119Z</time></trkpt><trkpt lat="40.8964667" lon="14.044185"><ele>0.9999999999999999</ele><time>2026-03-24T13:39:37.118Z</time></trkpt><trkpt lat="40.8963833" lon="14.044205"><ele>1.0</ele><time>2026-03-24T13:39:38.118Z</time></trkpt><trkpt lat="40.8962967" lon="14.044225"><ele>0.9999999999999999</ele><time>2026-03-24T13:39:39.118Z</time></trkpt><trkpt lat="40.89621" lon="14.0442417"><ele>1.0</ele><time>2026-03-24T13:39:40.118Z</time></trkpt><trkpt lat="40.8961183" lon="14.0442617"><ele>1.0</ele><time>2026-03-24T13:39:41.119Z</time></trkpt><trkpt lat="40.8960283" lon="14.0442783"><ele>1.0</ele><time>2026-03-24T13:39:42.118Z</time></trkpt><trkpt lat="40.8959433" lon="14.0442933"><ele>0.9999999999999999</ele><time>2026-03-24T13:39:43.118Z</time></trkpt><trkpt lat="40.8958567" lon="14.0443117"><ele>1.0</ele><time>2026-03-24T13:39:44.12Z</time></trkpt><trkpt lat="40.8957733" lon="14.0443317"><ele>0.8</ele><time>2026-03-24T13:39:45.118Z</time></trkpt><trkpt lat="40.895685" lon="14.0443517"><ele>0.6000000000000001</ele><time>2026-03-24T13:39:46.118Z</time></trkpt><trkpt lat="40.8955967" lon="14.0443733"><ele>0.4</ele><time>2026-03-24T13:39:47.118Z</time></trkpt><trkpt lat="40.8955067" lon="14.044395"><ele>0.2</ele><time>2026-03-24T13:39:48.118Z</time></trkpt><trkpt lat="40.895415" lon="14.044415"><ele>0.0</ele><time>2026-03-24T13:39:49.118Z</time></trkpt><trkpt lat="40.8953233" lon="14.0444333"><ele>0.0</ele><time>2026-03-24T13:39:50.118Z</time></trkpt><trkpt lat="40.89523" lon="14.04445"><ele>0.0</ele><time>2026-03-24T13:39:51.118Z</time></trkpt><trkpt lat="40.8951367" lon="14.0444733"><ele>0.0</ele><time>2026-03-24T13:39:52.118Z</time></trkpt><trkpt lat="40.895045" lon="14.0444967"><ele>0.0</ele><time>2026-03-24T13:39:53.118Z</time></trkpt><trkpt lat="40.89495" lon="14.0445183"><ele>0.0</ele><time>2026-03-24T13:39:54.118Z</time></trkpt><trkpt lat="40.8948567" lon="14.0445383"><ele>0.2</ele><time>2026-03-24T13:39:55.118Z</time></trkpt><trkpt lat="40.8947617" lon="14.0445617"><ele>0.4</ele><time>2026-03-24T13:39:56.118Z</time></trkpt><trkpt lat="40.8946683" lon="14.0445867"><ele>0.6000000000000001</ele><time>2026-03-24T13:39:57.118Z</time></trkpt><trkpt lat="40.8945767" lon="14.0446083"><ele>0.8</ele><time>2026-03-24T13:39:58.117Z</time></trkpt><trkpt lat="40.8944833" lon="14.0446283"><ele>1.0</ele><time>2026-03-24T13:39:59.122Z</time></trkpt><trkpt lat="40.8943933" lon="14.044645"><ele>1.0</ele><time>2026-03-24T13:40:00.119Z</time></trkpt><trkpt lat="40.8942967" lon="14.044665"><ele>1.0</ele><time>2026-03-24T13:40:01.119Z</time></trkpt><trkpt lat="40.8942083" lon="14.044685"><ele>1.0</ele><time>2026-03-24T13:40:02.118Z</time></trkpt><trkpt lat="40.8941183" lon="14.044705"><ele>1.0</ele><time>2026-03-24T13:40:03.12Z</time></trkpt><trkpt lat="40.8940283" lon="14.044725"><ele>1.0</ele><time>2026-03-24T13:40:04.118Z</time></trkpt><trkpt lat="40.89394" lon="14.044745"><ele>0.8</ele><time>2026-03-24T13:40:05.119Z</time></trkpt><trkpt lat="40.8938483" lon="14.0447683"><ele>0.6000000000000001</ele><time>2026-03-24T13:40:06.118Z</time></trkpt><trkpt lat="40.8937567" lon="14.0447883"><ele>0.4</ele><time>2026-03-24T13:40:07.12Z</time></trkpt><trkpt lat="40.8936683" lon="14.0448117"><ele>0.2</ele><time>2026-03-24T13:40:08.118Z</time></trkpt><trkpt lat="40.8935817" lon="14.0448367"><ele>0.0</ele><time>2026-03-24T13:40:09.119Z</time></trkpt><trkpt lat="40.8934933" lon="14.044855"><ele>0.0</ele><time>2026-03-24T13:40:10.118Z</time></trkpt><trkpt lat="40.8934067" lon="14.0448767"><ele>0.0</ele><time>2026-03-24T13:40:11.118Z</time></trkpt><trkpt lat="40.8933183" lon="14.0448917"><ele>0.0</ele><time>2026-03-24T13:40:12.118Z</time></trkpt><trkpt lat="40.893235" lon="14.04491"><ele>0.0</ele><time>2026-03-24T13:40:13.119Z</time></trkpt><trkpt lat="40.8931483" lon="14.0449283"><ele>0.0</ele><time>2026-03-24T13:40:14.118Z</time></trkpt><trkpt lat="40.893065" lon="14.044945"><ele>0.0</ele><time>2026-03-24T13:40:15.118Z</time></trkpt><trkpt lat="40.8929767" lon="14.044965"><ele>0.0</ele><time>2026-03-24T13:40:16.119Z</time></trkpt><trkpt lat="40.8928817" lon="14.0449833"><ele>0.0</ele><time>2026-03-24T13:40:17.118Z</time></trkpt><trkpt lat="40.8927883" lon="14.0450067"><ele>0.0</ele><time>2026-03-24T13:40:18.118Z</time></trkpt><trkpt lat="40.8926983" lon="14.0450267"><ele>0.0</ele><time>2026-03-24T13:40:19.118Z</time></trkpt><trkpt lat="40.89261" lon="14.0450433"><ele>0.0</ele><time>2026-03-24T13:40:20.118Z</time></trkpt><trkpt lat="40.8925233" lon="14.0450633"><ele>0.16666666666666666</ele><time>2026-03-24T13:40:21.119Z</time></trkpt><trkpt lat="40.89244" lon="14.045085"><ele>0.3333333333333333</ele><time>2026-03-24T13:40:22.118Z</time></trkpt><trkpt lat="40.8923567" lon="14.0451033"><ele>0.5</ele><time>2026-03-24T13:40:23.118Z</time></trkpt><trkpt lat="40.89227" lon="14.0451233"><ele>0.6666666666666666</ele><time>2026-03-24T13:40:24.118Z</time></trkpt><trkpt lat="40.8921867" lon="14.0451417"><ele>0.8333333333333333</ele><time>2026-03-24T13:40:25.118Z</time></trkpt><trkpt lat="40.8921017" lon="14.0451617"><ele>1.0</ele><time>2026-03-24T13:40:26.119Z</time></trkpt><trkpt lat="40.8920167" lon="14.0451833"><ele>0.9999999999999999</ele><time>2026-03-24T13:40:27.118Z</time></trkpt><trkpt lat="40.8919317" lon="14.045205"><ele>1.0</ele><time>2026-03-24T13:40:28.118Z</time></trkpt><trkpt lat="40.8918467" lon="14.0452217"><ele>1.0</ele><time>2026-03-24T13:40:29.118Z</time></trkpt><trkpt lat="40.89176" lon="14.0452433"><ele>1.0</ele><time>2026-03-24T13:40:30.119Z</time></trkpt><trkpt lat="40.8916733" lon="14.0452617"><ele>0.9999999999999999</ele><time>2026-03-24T13:40:31.119Z</time></trkpt><trkpt lat="40.8915783" lon="14.0452817"><ele>1.0</ele><time>2026-03-24T13:40:32.119Z</time></trkpt><trkpt lat="40.8914883" lon="14.0453067"><ele>0.8</ele><time>2026-03-24T13:40:33.118Z</time></trkpt><trkpt lat="40.8913983" lon="14.0453283"><ele>0.6000000000000001</ele><time>2026-03-24T13:40:34.118Z</time></trkpt><trkpt lat="40.89131" lon="14.0453517"><ele>0.4</ele><time>2026-03-24T13:40:35.118Z</time></trkpt><trkpt lat="40.8912183" lon="14.045375"><ele>0.2</ele><time>2026-03-24T13:40:36.118Z</time></trkpt><trkpt lat="40.8911283" lon="14.0453967"><ele>0.0</ele><time>2026-03-24T13:40:37.119Z</time></trkpt><trkpt lat="40.8910367" lon="14.0454183"><ele>0.0</ele><time>2026-03-24T13:40:38.118Z</time></trkpt><trkpt lat="40.890945" lon="14.0454417"><ele>0.0</ele><time>2026-03-24T13:40:39.118Z</time></trkpt><trkpt lat="40.8908533" lon="14.045465"><ele>0.0</ele><time>2026-03-24T13:40:40.117Z</time></trkpt><trkpt lat="40.890765" lon="14.04549"><ele>0.0</ele><time>2026-03-24T13:40:41.118Z</time></trkpt><trkpt lat="40.8906733" lon="14.04551"><ele>0.0</ele><time>2026-03-24T13:40:42.119Z</time></trkpt><trkpt lat="40.89058" lon="14.0455283"><ele>-0.4</ele><time>2026-03-24T13:40:43.118Z</time></trkpt><trkpt lat="40.890485" lon="14.0455517"><ele>-0.8</ele><time>2026-03-24T13:40:44.118Z</time></trkpt><trkpt lat="40.8903933" lon="14.0455733"><ele>-1.2000000000000002</ele><time>2026-03-24T13:40:45.118Z</time></trkpt><trkpt lat="40.8903067" lon="14.0455967"><ele>-1.6</ele><time>2026-03-24T13:40:46.118Z</time></trkpt><trkpt lat="40.8902217" lon="14.0456217"><ele>-2.0</ele><time>2026-03-24T13:40:47.118Z</time></trkpt><trkpt lat="40.8901367" lon="14.045645"><ele>-1.8333333333333333</ele><time>2026-03-24T13:40:48.118Z</time></trkpt><trkpt lat="40.89005" lon="14.0456683"><ele>-1.6666666666666665</ele><time>2026-03-24T13:40:49.118Z</time></trkpt><trkpt lat="40.8899617" lon="14.04569"><ele>-1.5</ele><time>2026-03-24T13:40:50.118Z</time></trkpt><trkpt lat="40.8898717" lon="14.04571"><ele>-1.3333333333333333</ele><time>2026-03-24T13:40:51.118Z</time></trkpt><trkpt lat="40.889785" lon="14.0457317"><ele>-1.1666666666666665</ele><time>2026-03-24T13:40:52.118Z</time></trkpt><trkpt lat="40.889695" lon="14.0457517"><ele>-1.0</ele><time>2026-03-24T13:40:53.118Z</time></trkpt><trkpt lat="40.889605" lon="14.0457717"><ele>-1.0</ele><time>2026-03-24T13:40:54.119Z</time></trkpt><trkpt lat="40.8895117" lon="14.04579"><ele>-1.0</ele><time>2026-03-24T13:40:55.118Z</time></trkpt><trkpt lat="40.8894217" lon="14.04581"><ele>-1.0</ele><time>2026-03-24T13:40:56.118Z</time></trkpt><trkpt lat="40.88933" lon="14.04583"><ele>-1.0</ele><time>2026-03-24T13:40:57.122Z</time></trkpt><trkpt lat="40.8892417" lon="14.04585"><ele>-1.0</ele><time>2026-03-24T13:40:58.118Z</time></trkpt><trkpt lat="40.889155" lon="14.04587"><ele>-1.4</ele><time>2026-03-24T13:40:59.119Z</time></trkpt><trkpt lat="40.8890717" lon="14.04589"><ele>-1.8</ele><time>2026-03-24T13:41:00.118Z</time></trkpt><trkpt lat="40.8889833" lon="14.0459133"><ele>-2.1999999999999997</ele><time>2026-03-24T13:41:01.118Z</time></trkpt><trkpt lat="40.8888917" lon="14.04593"><ele>-2.6</ele><time>2026-03-24T13:41:02.12Z</time></trkpt><trkpt lat="40.8888" lon="14.0459483"><ele>-3.0</ele><time>2026-03-24T13:41:03.119Z</time></trkpt><trkpt lat="40.8887117" lon="14.04597"><ele>-3.0</ele><time>2026-03-24T13:41:04.119Z</time></trkpt><trkpt lat="40.8886217" lon="14.04599"><ele>-3.0</ele><time>2026-03-24T13:41:05.118Z</time></trkpt><trkpt lat="40.888535" lon="14.0460117"><ele>-3.0</ele><time>2026-03-24T13:41:06.118Z</time></trkpt><trkpt lat="40.888445" lon="14.0460317"><ele>-3.0</ele><time>2026-03-24T13:41:07.118Z</time></trkpt><trkpt lat="40.8883567" lon="14.0460517"><ele>-3.0</ele><time>2026-03-24T13:41:08.119Z</time></trkpt><trkpt lat="40.8882667" lon="14.0460683"><ele>-3.2</ele><time>2026-03-24T13:41:09.118Z</time></trkpt><trkpt lat="40.8881767" lon="14.0460833"><ele>-3.4</ele><time>2026-03-24T13:41:10.119Z</time></trkpt><trkpt lat="40.8880883" lon="14.0461017"><ele>-3.6000000000000005</ele><time>2026-03-24T13:41:11.118Z</time></trkpt><trkpt lat="40.888" lon="14.0461217"><ele>-3.8000000000000003</ele><time>2026-03-24T13:41:12.118Z</time></trkpt><trkpt lat="40.8879117" lon="14.0461417"><ele>-4.0</ele><time>2026-03-24T13:41:13.119Z</time></trkpt><trkpt lat="40.88782" lon="14.0461617"><ele>-4.0</ele><time>2026-03-24T13:41:14.118Z</time></trkpt><trkpt lat="40.8877267" lon="14.046185"><ele>-4.0</ele><time>2026-03-24T13:41:15.12Z</time></trkpt><trkpt lat="40.887635" lon="14.0462067"><ele>-4.0</ele><time>2026-03-24T13:41:16.118Z</time></trkpt><trkpt lat="40.8875467" lon="14.0462283"><ele>-4.0</ele><time>2026-03-24T13:41:17.118Z</time></trkpt><trkpt lat="40.8874583" lon="14.04625"><ele>-4.0</ele><time>2026-03-24T13:41:18.12Z</time></trkpt><trkpt lat="40.88737" lon="14.0462717"><ele>-4.166666666666666</ele><time>2026-03-24T13:41:19.118Z</time></trkpt><trkpt lat="40.8872817" lon="14.046295"><ele>-4.333333333333333</ele><time>2026-03-24T13:41:20.118Z</time></trkpt><trkpt lat="40.8871967" lon="14.0463183"><ele>-4.5</ele><time>2026-03-24T13:41:21.118Z</time></trkpt><trkpt lat="40.88711" lon="14.04634"><ele>-4.666666666666667</ele><time>2026-03-24T13:41:22.118Z</time></trkpt><trkpt lat="40.8870217" lon="14.04636"><ele>-4.833333333333334</ele><time>2026-03-24T13:41:23.118Z</time></trkpt><trkpt lat="40.8869333" lon="14.04638"><ele>-5.0</ele><time>2026-03-24T13:41:24.118Z</time></trkpt><trkpt lat="40.8868417" lon="14.0463967"><ele>-4.5</ele><time>2026-03-24T13:41:25.118Z</time></trkpt><trkpt lat="40.8867517" lon="14.046415"><ele>-4.0</ele><time>2026-03-24T13:41:26.118Z</time></trkpt><trkpt lat="40.886665" lon="14.046435"><ele>-3.5</ele><time>2026-03-24T13:41:27.118Z</time></trkpt><trkpt lat="40.8865783" lon="14.046455"><ele>-3.0</ele><time>2026-03-24T13:41:28.118Z</time></trkpt><trkpt lat="40.8864967" lon="14.0464783"><ele>-2.5</ele><time>2026-03-24T13:41:29.118Z</time></trkpt><trkpt lat="40.8864117" lon="14.0464983"><ele>-2.0</ele><time>2026-03-24T13:41:30.118Z</time></trkpt><trkpt lat="40.886325" lon="14.046515"><ele>-1.9999999999999998</ele><time>2026-03-24T13:41:31.119Z</time></trkpt><trkpt lat="40.88624" lon="14.0465283"><ele>-2.0</ele><time>2026-03-24T13:41:32.118Z</time></trkpt><trkpt lat="40.8861533" lon="14.0465433"><ele>-2.0</ele><time>2026-03-24T13:41:33.12Z</time></trkpt><trkpt lat="40.88607" lon="14.0465633"><ele>-2.0</ele><time>2026-03-24T13:41:34.118Z</time></trkpt><trkpt lat="40.885985" lon="14.0465833"><ele>-1.9999999999999998</ele><time>2026-03-24T13:41:35.119Z</time></trkpt><trkpt lat="40.8859017" lon="14.0466017"><ele>-2.0</ele><time>2026-03-24T13:41:36.119Z</time></trkpt><trkpt lat="40.8858217" lon="14.0466233"><ele>-1.8333333333333333</ele><time>2026-03-24T13:41:37.12Z</time></trkpt><trkpt lat="40.8857417" lon="14.0466417"><ele>-1.6666666666666665</ele><time>2026-03-24T13:41:38.118Z</time></trkpt><trkpt lat="40.8856567" lon="14.0466617"><ele>-1.5</ele><time>2026-03-24T13:41:39.12Z</time></trkpt><trkpt lat="40.885575" lon="14.0466833"><ele>-1.3333333333333333</ele><time>2026-03-24T13:41:40.117Z</time></trkpt><trkpt lat="40.8854917" lon="14.0467033"><ele>-1.1666666666666665</ele><time>2026-03-24T13:41:41.119Z</time></trkpt><trkpt lat="40.8854083" lon="14.0467167"><ele>-1.0</ele><time>2026-03-24T13:41:42.118Z</time></trkpt><trkpt lat="40.885325" lon="14.046735"><ele>-0.9999999999999999</ele><time>2026-03-24T13:41:43.123Z</time></trkpt><trkpt lat="40.8852433" lon="14.0467533"><ele>-1.0</ele><time>2026-03-24T13:41:44.118Z</time></trkpt><trkpt lat="40.8851617" lon="14.04677"><ele>-1.0</ele><time>2026-03-24T13:41:45.118Z</time></trkpt><trkpt lat="40.8850817" lon="14.0467883"><ele>-1.0</ele><time>2026-03-24T13:41:46.118Z</time></trkpt><trkpt lat="40.8849983" lon="14.0468067"><ele>-0.9999999999999999</ele><time>2026-03-24T13:41:47.118Z</time></trkpt><trkpt lat="40.8849167" lon="14.0468283"><ele>-1.0</ele><time>2026-03-24T13:41:48.118Z</time></trkpt><trkpt lat="40.8848317" lon="14.0468467"><ele>-0.6666666666666666</ele><time>2026-03-24T13:41:49.118Z</time></trkpt><trkpt lat="40.8847483" lon="14.0468667"><ele>-0.3333333333333333</ele><time>2026-03-24T13:41:50.118Z</time></trkpt><trkpt lat="40.884665" lon="14.0468817"><ele>0.0</ele><time>2026-03-24T13:41:51.118Z</time></trkpt><trkpt lat="40.8845783" lon="14.0468983"><ele>0.3333333333333333</ele><time>2026-03-24T13:41:52.119Z</time></trkpt><trkpt lat="40.8844933" lon="14.0469133"><ele>0.6666666666666666</ele><time>2026-03-24T13:41:53.118Z</time></trkpt><trkpt lat="40.8844083" lon="14.0469317"><ele>1.0</ele><time>2026-03-24T13:41:54.118Z</time></trkpt><trkpt lat="40.8843233" lon="14.0469517"><ele>1.1666666666666665</ele><time>2026-03-24T13:41:55.118Z</time></trkpt><trkpt lat="40.8842417" lon="14.0469667"><ele>1.3333333333333333</ele><time>2026-03-24T13:41:56.118Z</time></trkpt><trkpt lat="40.88416" lon="14.0469833"><ele>1.5</ele><time>2026-03-24T13:41:57.119Z</time></trkpt><trkpt lat="40.88408" lon="14.047"><ele>1.6666666666666665</ele><time>2026-03-24T13:41:58.119Z</time></trkpt><trkpt lat="40.884" lon="14.0470217"><ele>1.8333333333333333</ele><time>2026-03-24T13:41:59.119Z</time></trkpt><trkpt lat="40.8839167" lon="14.0470433"><ele>2.0</ele><time>2026-03-24T13:42:00.119Z</time></trkpt><trkpt lat="40.8838333" lon="14.04706"><ele>1.9999999999999998</ele><time>2026-03-24T13:42:01.118Z</time></trkpt><trkpt lat="40.88375" lon="14.0470817"><ele>2.0</ele><time>2026-03-24T13:42:02.121Z</time></trkpt><trkpt lat="40.883665" lon="14.0471"><ele>2.0</ele><time>2026-03-24T13:42:03.118Z</time></trkpt><trkpt lat="40.883585" lon="14.0471183"><ele>2.0</ele><time>2026-03-24T13:42:04.118Z</time></trkpt><trkpt lat="40.8835067" lon="14.0471383"><ele>1.9999999999999998</ele><time>2026-03-24T13:42:05.118Z</time></trkpt><trkpt lat="40.883425" lon="14.04716"><ele>2.0</ele><time>2026-03-24T13:42:06.119Z</time></trkpt><trkpt lat="40.8833433" lon="14.0471783"><ele>1.8333333333333333</ele><time>2026-03-24T13:42:07.119Z</time></trkpt><trkpt lat="40.8832617" lon="14.0471983"><ele>1.6666666666666665</ele><time>2026-03-24T13:42:08.118Z</time></trkpt><trkpt lat="40.88319" lon="14.0472317"><ele>1.5</ele><time>2026-03-24T13:42:09.118Z</time></trkpt><trkpt lat="40.8831167" lon="14.0472583"><ele>1.3333333333333333</ele><time>2026-03-24T13:42:10.122Z</time></trkpt><trkpt lat="40.8830367" lon="14.04728"><ele>1.1666666666666665</ele><time>2026-03-24T13:42:11.118Z</time></trkpt><trkpt lat="40.8829533" lon="14.0473033"><ele>1.0</ele><time>2026-03-24T13:42:12.119Z</time></trkpt><trkpt lat="40.8828717" lon="14.0473267"><ele>0.9999999999999999</ele><time>2026-03-24T13:42:13.12Z</time></trkpt><trkpt lat="40.88279" lon="14.047345"><ele>1.0</ele><time>2026-03-24T13:42:14.118Z</time></trkpt><trkpt lat="40.8827083" lon="14.0473633"><ele>1.0</ele><time>2026-03-24T13:42:15.118Z</time></trkpt><trkpt lat="40.88262" lon="14.0473833"><ele>1.0</ele><time>2026-03-24T13:42:16.118Z</time></trkpt><trkpt lat="40.8825383" lon="14.0474017"><ele>0.9999999999999999</ele><time>2026-03-24T13:42:17.118Z</time></trkpt><trkpt lat="40.882455" lon="14.0474217"><ele>1.0</ele><time>2026-03-24T13:42:18.118Z</time></trkpt><trkpt lat="40.8823683" lon="14.0474367"><ele>0.9999999999999999</ele><time>2026-03-24T13:42:19.118Z</time></trkpt><trkpt lat="40.8822817" lon="14.0474533"><ele>1.0</ele><time>2026-03-24T13:42:20.12Z</time></trkpt><trkpt lat="40.8821967" lon="14.0474717"><ele>1.0</ele><time>2026-03-24T13:42:21.119Z</time></trkpt><trkpt lat="40.8821067" lon="14.04749"><ele>1.0</ele><time>2026-03-24T13:42:22.119Z</time></trkpt><trkpt lat="40.8820183" lon="14.04751"><ele>0.9999999999999999</ele><time>2026-03-24T13:42:23.119Z</time></trkpt><trkpt lat="40.8819283" lon="14.0475283"><ele>1.0</ele><time>2026-03-24T13:42:24.118Z</time></trkpt><trkpt lat="40.8818383" lon="14.04755"><ele>0.8333333333333333</ele><time>2026-03-24T13:42:25.118Z</time></trkpt><trkpt lat="40.8817483" lon="14.04757"><ele>0.6666666666666666</ele><time>2026-03-24T13:42:26.118Z</time></trkpt><trkpt lat="40.8816583" lon="14.0475917"><ele>0.5</ele><time>2026-03-24T13:42:27.119Z</time></trkpt><trkpt lat="40.88157" lon="14.04761"><ele>0.3333333333333333</ele><time>2026-03-24T13:42:28.118Z</time></trkpt><trkpt lat="40.8814867" lon="14.0476333"><ele>0.16666666666666666</ele><time>2026-03-24T13:42:29.118Z</time></trkpt><trkpt lat="40.88141" lon="14.0476567"><ele>0.0</ele><time>2026-03-24T13:42:30.118Z</time></trkpt><trkpt lat="40.8813267" lon="14.0476767"><ele>0.0</ele><time>2026-03-24T13:42:31.118Z</time></trkpt><trkpt lat="40.881245" lon="14.047695"><ele>0.0</ele><time>2026-03-24T13:42:32.119Z</time></trkpt><trkpt lat="40.8811633" lon="14.0477083"><ele>0.0</ele><time>2026-03-24T13:42:33.118Z</time></trkpt><trkpt lat="40.88108" lon="14.047725"><ele>0.0</ele><time>2026-03-24T13:42:34.118Z</time></trkpt><trkpt lat="40.8809933" lon="14.0477417"><ele>0.0</ele><time>2026-03-24T13:42:35.118Z</time></trkpt><trkpt lat="40.88091" lon="14.04776"><ele>0.0</ele><time>2026-03-24T13:42:36.119Z</time></trkpt><trkpt lat="40.8808217" lon="14.0477767"><ele>0.0</ele><time>2026-03-24T13:42:37.119Z</time></trkpt><trkpt lat="40.880735" lon="14.047795"><ele>0.0</ele><time>2026-03-24T13:42:38.118Z</time></trkpt><trkpt lat="40.880645" lon="14.0478167"><ele>0.0</ele><time>2026-03-24T13:42:39.119Z</time></trkpt><trkpt lat="40.8805567" lon="14.047835"><ele>0.0</ele><time>2026-03-24T13:42:40.118Z</time></trkpt><trkpt lat="40.8804683" lon="14.04785"><ele>0.0</ele><time>2026-03-24T13:42:41.118Z</time></trkpt><trkpt lat="40.88038" lon="14.0478683"><ele>0.0</ele><time>2026-03-24T13:42:42.118Z</time></trkpt><trkpt lat="40.880295" lon="14.0478883"><ele>0.0</ele><time>2026-03-24T13:42:43.119Z</time></trkpt><trkpt lat="40.8802083" lon="14.04791"><ele>0.0</ele><time>2026-03-24T13:42:44.119Z</time></trkpt><trkpt lat="40.8801217" lon="14.0479317"><ele>0.0</ele><time>2026-03-24T13:42:45.119Z</time></trkpt><trkpt lat="40.8800383" lon="14.047955"><ele>0.0</ele><time>2026-03-24T13:42:46.118Z</time></trkpt><trkpt lat="40.8799483" lon="14.0479733"><ele>0.0</ele><time>2026-03-24T13:42:47.118Z</time></trkpt><trkpt lat="40.87986" lon="14.0479933"><ele>0.0</ele><time>2026-03-24T13:42:48.118Z</time></trkpt><trkpt lat="40.8797717" lon="14.0480117"><ele>0.0</ele><time>2026-03-24T13:42:49.118Z</time></trkpt><trkpt lat="40.8796817" lon="14.0480317"><ele>0.0</ele><time>2026-03-24T13:42:50.119Z</time></trkpt><trkpt lat="40.8795933" lon="14.0480517"><ele>0.0</ele><time>2026-03-24T13:42:51.119Z</time></trkpt><trkpt lat="40.879505" lon="14.0480733"><ele>0.0</ele><time>2026-03-24T13:42:52.118Z</time></trkpt><trkpt lat="40.8794167" lon="14.0480933"><ele>0.0</ele><time>2026-03-24T13:42:53.118Z</time></trkpt><trkpt lat="40.8793333" lon="14.0481083"><ele>0.0</ele><time>2026-03-24T13:42:54.118Z</time></trkpt><trkpt lat="40.87925" lon="14.04813"><ele>0.16666666666666666</ele><time>2026-03-24T13:42:55.119Z</time></trkpt><trkpt lat="40.8791717" lon="14.048155"><ele>0.3333333333333333</ele><time>2026-03-24T13:42:56.12Z</time></trkpt><trkpt lat="40.87909" lon="14.0481767"><ele>0.5</ele><time>2026-03-24T13:42:57.118Z</time></trkpt><trkpt lat="40.8790083" lon="14.0482"><ele>0.6666666666666666</ele><time>2026-03-24T13:42:58.118Z</time></trkpt><trkpt lat="40.8789283" lon="14.0482233"><ele>0.8333333333333333</ele><time>2026-03-24T13:42:59.118Z</time></trkpt><trkpt lat="40.8788483" lon="14.04824"><ele>1.0</ele><time>2026-03-24T13:43:00.118Z</time></trkpt><trkpt lat="40.878765" lon="14.04826"><ele>0.9999999999999999</ele><time>2026-03-24T13:43:01.118Z</time></trkpt><trkpt lat="40.8786783" lon="14.0482767"><ele>1.0</ele><time>2026-03-24T13:43:02.118Z</time></trkpt><trkpt lat="40.8785917" lon="14.0482967"><ele>1.0</ele><time>2026-03-24T13:43:03.118Z</time></trkpt><trkpt lat="40.8785083" lon="14.048315"><ele>1.0</ele><time>2026-03-24T13:43:04.118Z</time></trkpt><trkpt lat="40.8784267" lon="14.048335"><ele>0.9999999999999999</ele><time>2026-03-24T13:43:05.118Z</time></trkpt><trkpt lat="40.8783417" lon="14.048355"><ele>1.0</ele><time>2026-03-24T13:43:06.118Z</time></trkpt><trkpt lat="40.8782567" lon="14.0483767"><ele>0.6666666666666666</ele><time>2026-03-24T13:43:07.118Z</time></trkpt><trkpt lat="40.8781733" lon="14.048395"><ele>0.3333333333333333</ele><time>2026-03-24T13:43:08.119Z</time></trkpt><trkpt lat="40.8780833" lon="14.0484167"><ele>0.0</ele><time>2026-03-24T13:43:09.118Z</time></trkpt><trkpt lat="40.8779933" lon="14.0484367"><ele>-0.3333333333333333</ele><time>2026-03-24T13:43:10.118Z</time></trkpt><trkpt lat="40.877905" lon="14.0484583"><ele>-0.6666666666666666</ele><time>2026-03-24T13:43:11.118Z</time></trkpt><trkpt lat="40.8778183" lon="14.04848"><ele>-1.0</ele><time>2026-03-24T13:43:12.118Z</time></trkpt><trkpt lat="40.8777333" lon="14.0485"><ele>-1.0</ele><time>2026-03-24T13:43:13.119Z</time></trkpt><trkpt lat="40.877645" lon="14.04852"><ele>-1.0</ele><time>2026-03-24T13:43:14.118Z</time></trkpt><trkpt lat="40.8775583" lon="14.04854"><ele>-1.0</ele><time>2026-03-24T13:43:15.122Z</time></trkpt><trkpt lat="40.8774683" lon="14.04856"><ele>-1.0</ele><time>2026-03-24T13:43:16.118Z</time></trkpt><trkpt lat="40.8773783" lon="14.0485783"><ele>-1.0</ele><time>2026-03-24T13:43:17.118Z</time></trkpt><trkpt lat="40.8772883" lon="14.0485967"><ele>-0.8333333333333333</ele><time>2026-03-24T13:43:18.118Z</time></trkpt><trkpt lat="40.8772017" lon="14.0486117"><ele>-0.6666666666666666</ele><time>2026-03-24T13:43:19.118Z</time></trkpt><trkpt lat="40.8771117" lon="14.0486317"><ele>-0.5</ele><time>2026-03-24T13:43:20.118Z</time></trkpt><trkpt lat="40.877025" lon="14.0486533"><ele>-0.3333333333333333</ele><time>2026-03-24T13:43:21.119Z</time></trkpt><trkpt lat="40.8769383" lon="14.0486733"><ele>-0.16666666666666666</ele><time>2026-03-24T13:43:22.119Z</time></trkpt><trkpt lat="40.8768517" lon="14.0486917"><ele>0.0</ele><time>2026-03-24T13:43:23.118Z</time></trkpt><trkpt lat="40.8767617" lon="14.0487083"><ele>0.0</ele><time>2026-03-24T13:43:24.118Z</time></trkpt><trkpt lat="40.87667" lon="14.0487267"><ele>0.0</ele><time>2026-03-24T13:43:25.118Z</time></trkpt><trkpt lat="40.87658" lon="14.0487483"><ele>0.0</ele><time>2026-03-24T13:43:26.12Z</time></trkpt><trkpt lat="40.8764883" lon="14.0487683"><ele>0.0</ele><time>2026-03-24T13:43:27.118Z</time></trkpt><trkpt lat="40.8763967" lon="14.04879"><ele>0.0</ele><time>2026-03-24T13:43:28.117Z</time></trkpt><trkpt lat="40.8763067" lon="14.0488133"><ele>0.0</ele><time>2026-03-24T13:43:29.118Z</time></trkpt><trkpt lat="40.8762167" lon="14.0488317"><ele>0.0</ele><time>2026-03-24T13:43:30.118Z</time></trkpt><trkpt lat="40.876125" lon="14.0488533"><ele>0.0</ele><time>2026-03-24T13:43:31.118Z</time></trkpt><trkpt lat="40.876035" lon="14.0488733"><ele>0.0</ele><time>2026-03-24T13:43:32.119Z</time></trkpt><trkpt lat="40.875945" lon="14.048895"><ele>0.0</ele><time>2026-03-24T13:43:33.119Z</time></trkpt><trkpt lat="40.875855" lon="14.04892"><ele>0.0</ele><time>2026-03-24T13:43:34.119Z</time></trkpt><trkpt lat="40.8757617" lon="14.0489417"><ele>0.0</ele><time>2026-03-24T13:43:35.119Z</time></trkpt><trkpt lat="40.8756683" lon="14.0489667"><ele>0.0</ele><time>2026-03-24T13:43:36.118Z</time></trkpt><trkpt lat="40.8755783" lon="14.0489867"><ele>0.0</ele><time>2026-03-24T13:43:37.118Z</time></trkpt><trkpt lat="40.8754883" lon="14.049005"><ele>0.0</ele><time>2026-03-24T13:43:38.119Z</time></trkpt><trkpt lat="40.875395" lon="14.0490267"><ele>0.0</ele><time>2026-03-24T13:43:39.118Z</time></trkpt><trkpt lat="40.8753033" lon="14.049045"><ele>0.0</ele><time>2026-03-24T13:43:40.118Z</time></trkpt><trkpt lat="40.875215" lon="14.049065"><ele>0.0</ele><time>2026-03-24T13:43:41.118Z</time></trkpt><trkpt lat="40.8751267" lon="14.049085"><ele>0.0</ele><time>2026-03-24T13:43:42.118Z</time></trkpt><trkpt lat="40.8750367" lon="14.049105"><ele>0.0</ele><time>2026-03-24T13:43:43.118Z</time></trkpt><trkpt lat="40.87495" lon="14.0491217"><ele>0.16666666666666666</ele><time>2026-03-24T13:43:44.118Z</time></trkpt><trkpt lat="40.8748633" lon="14.0491383"><ele>0.3333333333333333</ele><time>2026-03-24T13:43:45.118Z</time></trkpt><trkpt lat="40.8747783" lon="14.0491567"><ele>0.5</ele><time>2026-03-24T13:43:46.118Z</time></trkpt><trkpt lat="40.8746917" lon="14.0491767"><ele>0.6666666666666666</ele><time>2026-03-24T13:43:47.119Z</time></trkpt><trkpt lat="40.8746083" lon="14.0492"><ele>0.8333333333333333</ele><time>2026-03-24T13:43:48.118Z</time></trkpt><trkpt lat="40.8745217" lon="14.0492217"><ele>1.0</ele><time>2026-03-24T13:43:49.118Z</time></trkpt><trkpt lat="40.8744383" lon="14.049245"><ele>0.9999999999999999</ele><time>2026-03-24T13:43:50.118Z</time></trkpt><trkpt lat="40.87435" lon="14.0492667"><ele>1.0</ele><time>2026-03-24T13:43:51.118Z</time></trkpt><trkpt lat="40.8742617" lon="14.0492867"><ele>1.0</ele><time>2026-03-24T13:43:52.118Z</time></trkpt><trkpt lat="40.8741717" lon="14.0493067"><ele>1.0</ele><time>2026-03-24T13:43:53.12Z</time></trkpt><trkpt lat="40.8740833" lon="14.049325"><ele>0.9999999999999999</ele><time>2026-03-24T13:43:54.118Z</time></trkpt><trkpt lat="40.8739967" lon="14.0493433"><ele>1.0</ele><time>2026-03-24T13:43:55.118Z</time></trkpt><trkpt lat="40.8739083" lon="14.049365"><ele>0.6000000000000001</ele><time>2026-03-24T13:43:56.118Z</time></trkpt><trkpt lat="40.8738167" lon="14.0493867"><ele>0.20000000000000007</ele><time>2026-03-24T13:43:57.12Z</time></trkpt><trkpt lat="40.8737267" lon="14.0494083"><ele>-0.20000000000000007</ele><time>2026-03-24T13:43:58.119Z</time></trkpt><trkpt lat="40.873635" lon="14.0494333"><ele>-0.6000000000000001</ele><time>2026-03-24T13:43:59.119Z</time></trkpt><trkpt lat="40.8735417" lon="14.049455"><ele>-1.0</ele><time>2026-03-24T13:44:00.118Z</time></trkpt><trkpt lat="40.87345" lon="14.0494733"><ele>-1.0</ele><time>2026-03-24T13:44:01.118Z</time></trkpt><trkpt lat="40.8733567" lon="14.0494933"><ele>-1.0</ele><time>2026-03-24T13:44:02.118Z</time></trkpt><trkpt lat="40.8732683" lon="14.04952"><ele>-1.0</ele><time>2026-03-24T13:44:03.118Z</time></trkpt><trkpt lat="40.8731733" lon="14.0495517"><ele>-1.0</ele><time>2026-03-24T13:44:04.118Z</time></trkpt><trkpt lat="40.87309" lon="14.049585"><ele>-1.0</ele><time>2026-03-24T13:44:05.118Z</time></trkpt><trkpt lat="40.8730067" lon="14.0496233"><ele>-0.9999999999999999</ele><time>2026-03-24T13:44:06.119Z</time></trkpt><trkpt lat="40.8729217" lon="14.0496683"><ele>-1.0</ele><time>2026-03-24T13:44:07.119Z</time></trkpt><trkpt lat="40.8728433" lon="14.0497133"><ele>-1.0</ele><time>2026-03-24T13:44:08.119Z</time></trkpt><trkpt lat="40.8727667" lon="14.0497633"><ele>-1.0</ele><time>2026-03-24T13:44:09.118Z</time></trkpt><trkpt lat="40.8726917" lon="14.04982"><ele>-0.9999999999999999</ele><time>2026-03-24T13:44:10.118Z</time></trkpt><trkpt lat="40.8726217" lon="14.0498817"><ele>-1.0</ele><time>2026-03-24T13:44:11.119Z</time></trkpt><trkpt lat="40.8725517" lon="14.0499483"><ele>-0.49999999999999994</ele><time>2026-03-24T13:44:12.118Z</time></trkpt><trkpt lat="40.872485" lon="14.050015"><ele>0.0</ele><time>2026-03-24T13:44:13.118Z</time></trkpt><trkpt lat="40.87242" lon="14.050085"><ele>0.5</ele><time>2026-03-24T13:44:14.118Z</time></trkpt><trkpt lat="40.8723583" lon="14.0501583"><ele>1.0</ele><time>2026-03-24T13:44:15.118Z</time></trkpt><trkpt lat="40.8722983" lon="14.0502317"><ele>1.4999999999999998</ele><time>2026-03-24T13:44:16.118Z</time></trkpt><trkpt lat="40.8722433" lon="14.0503067"><ele>2.0</ele><time>2026-03-24T13:44:17.118Z</time></trkpt><trkpt lat="40.8721883" lon="14.0503833"><ele>1.9999999999999998</ele><time>2026-03-24T13:44:18.118Z</time></trkpt><trkpt lat="40.87214" lon="14.0504617"><ele>2.0</ele><time>2026-03-24T13:44:19.118Z</time></trkpt><trkpt lat="40.87209" lon="14.050545"><ele>2.0</ele><time>2026-03-24T13:44:20.118Z</time></trkpt><trkpt lat="40.87204" lon="14.0506283"><ele>2.0</ele><time>2026-03-24T13:44:21.118Z</time></trkpt><trkpt lat="40.8719917" lon="14.0507117"><ele>1.9999999999999998</ele><time>2026-03-24T13:44:22.118Z</time></trkpt><trkpt lat="40.8719483" lon="14.0508"><ele>2.0</ele><time>2026-03-24T13:44:23.118Z</time></trkpt><trkpt lat="40.8719067" lon="14.0508883"><ele>2.1666666666666665</ele><time>2026-03-24T13:44:24.119Z</time></trkpt><trkpt lat="40.8718683" lon="14.0509783"><ele>2.333333333333333</ele><time>2026-03-24T13:44:25.118Z</time></trkpt><trkpt lat="40.871835" lon="14.0510717"><ele>2.5</ele><time>2026-03-24T13:44:26.118Z</time></trkpt><trkpt lat="40.8718033" lon="14.051165"><ele>2.6666666666666665</ele><time>2026-03-24T13:44:27.119Z</time></trkpt><trkpt lat="40.87177" lon="14.05126"><ele>2.8333333333333335</ele><time>2026-03-24T13:44:28.119Z</time></trkpt><trkpt lat="40.8717417" lon="14.0513583"><ele>3.0</ele><time>2026-03-24T13:44:29.118Z</time></trkpt><trkpt lat="40.8717133" lon="14.0514583"><ele>3.0</ele><time>2026-03-24T13:44:30.118Z</time></trkpt><trkpt lat="40.871685" lon="14.0515583"><ele>3.0</ele><time>2026-03-24T13:44:31.119Z</time></trkpt><trkpt lat="40.8716583" lon="14.0516617"><ele>3.0</ele><time>2026-03-24T13:44:32.119Z</time></trkpt><trkpt lat="40.87163" lon="14.0517683"><ele>3.0</ele><time>2026-03-24T13:44:33.119Z</time></trkpt><trkpt lat="40.8716" lon="14.0518733"><ele>3.0</ele><time>2026-03-24T13:44:34.118Z</time></trkpt><trkpt lat="40.87157" lon="14.0519817"><ele>3.0</ele><time>2026-03-24T13:44:35.119Z</time></trkpt><trkpt lat="40.87154" lon="14.0520933"><ele>3.0</ele><time>2026-03-24T13:44:36.118Z</time></trkpt><trkpt lat="40.8715117" lon="14.052205"><ele>3.0</ele><time>2026-03-24T13:44:37.118Z</time></trkpt><trkpt lat="40.871485" lon="14.05232"><ele>3.0</ele><time>2026-03-24T13:44:38.119Z</time></trkpt><trkpt lat="40.87146" lon="14.0524367"><ele>3.0</ele><time>2026-03-24T13:44:39.118Z</time></trkpt><trkpt lat="40.8714367" lon="14.0525533"><ele>3.0</ele><time>2026-03-24T13:44:40.118Z</time></trkpt><trkpt lat="40.87141" lon="14.0526683"><ele>2.6</ele><time>2026-03-24T13:44:41.119Z</time></trkpt><trkpt lat="40.871385" lon="14.052785"><ele>2.1999999999999997</ele><time>2026-03-24T13:44:42.119Z</time></trkpt><trkpt lat="40.8713583" lon="14.0529033"><ele>1.8</ele><time>2026-03-24T13:44:43.118Z</time></trkpt><trkpt lat="40.8713267" lon="14.0530167"><ele>1.4</ele><time>2026-03-24T13:44:44.119Z</time></trkpt><trkpt lat="40.8712967" lon="14.0531317"><ele>1.0</ele><time>2026-03-24T13:44:45.118Z</time></trkpt><trkpt lat="40.871265" lon="14.0532467"><ele>0.9999999999999999</ele><time>2026-03-24T13:44:46.118Z</time></trkpt><trkpt lat="40.871235" lon="14.0533617"><ele>1.0</ele><time>2026-03-24T13:44:47.119Z</time></trkpt><trkpt lat="40.8712067" lon="14.0534767"><ele>1.0</ele><time>2026-03-24T13:44:48.118Z</time></trkpt><trkpt lat="40.8711817" lon="14.0535867"><ele>1.0</ele><time>2026-03-24T13:44:49.119Z</time></trkpt><trkpt lat="40.8711583" lon="14.0536917"><ele>0.9999999999999999</ele><time>2026-03-24T13:44:50.118Z</time></trkpt><trkpt lat="40.871125" lon="14.0537933"><ele>1.0</ele><time>2026-03-24T13:44:51.118Z</time></trkpt><trkpt lat="40.8710933" lon="14.0538983"><ele>0.9999999999999999</ele><time>2026-03-24T13:44:52.118Z</time></trkpt><trkpt lat="40.8710617" lon="14.0540033"><ele>1.0</ele><time>2026-03-24T13:44:53.119Z</time></trkpt><trkpt lat="40.87103" lon="14.054105"><ele>1.0</ele><time>2026-03-24T13:44:54.119Z</time></trkpt><trkpt lat="40.8709983" lon="14.05421"><ele>1.0</ele><time>2026-03-24T13:44:55.118Z</time></trkpt><trkpt lat="40.8709717" lon="14.05431"><ele>0.9999999999999999</ele><time>2026-03-24T13:44:56.12Z</time></trkpt><trkpt lat="40.870945" lon="14.054415"><ele>1.0</ele><time>2026-03-24T13:44:57.118Z</time></trkpt><trkpt lat="40.8709217" lon="14.0545183"><ele>0.9999999999999999</ele><time>2026-03-24T13:44:58.119Z</time></trkpt><trkpt lat="40.8708967" lon="14.0546267"><ele>1.0</ele><time>2026-03-24T13:44:59.118Z</time></trkpt><trkpt lat="40.8708717" lon="14.0547367"><ele>1.0</ele><time>2026-03-24T13:45:00.119Z</time></trkpt><trkpt lat="40.870845" lon="14.054845"><ele>1.0</ele><time>2026-03-24T13:45:01.118Z</time></trkpt><trkpt lat="40.87082" lon="14.0549517"><ele>0.9999999999999999</ele><time>2026-03-24T13:45:02.119Z</time></trkpt><trkpt lat="40.8707967" lon="14.05506"><ele>1.0</ele><time>2026-03-24T13:45:03.118Z</time></trkpt><trkpt lat="40.8707717" lon="14.0551667"><ele>1.0</ele><time>2026-03-24T13:45:04.118Z</time></trkpt><trkpt lat="40.8707483" lon="14.0552683"><ele>0.9999999999999999</ele><time>2026-03-24T13:45:05.118Z</time></trkpt><trkpt lat="40.8707233" lon="14.0553667"><ele>1.0</ele><time>2026-03-24T13:45:06.12Z</time></trkpt><trkpt lat="40.8707033" lon="14.0554583"><ele>1.0</ele><time>2026-03-24T13:45:07.119Z</time></trkpt><trkpt lat="40.87068" lon="14.0555467"><ele>0.9999999999999999</ele><time>2026-03-24T13:45:08.118Z</time></trkpt><trkpt lat="40.8706567" lon="14.055635"><ele>1.0</ele><time>2026-03-24T13:45:09.12Z</time></trkpt><trkpt lat="40.8706367" lon="14.0557267"><ele>1.0</ele><time>2026-03-24T13:45:10.122Z</time></trkpt><trkpt lat="40.8706183" lon="14.0558167"><ele>1.5</ele><time>2026-03-24T13:45:11.118Z</time></trkpt><trkpt lat="40.8705933" lon="14.0559083"><ele>2.0</ele><time>2026-03-24T13:45:12.118Z</time></trkpt><trkpt lat="40.870565" lon="14.0560017"><ele>2.5</ele><time>2026-03-24T13:45:13.119Z</time></trkpt><trkpt lat="40.8705333" lon="14.0560983"><ele>3.0</ele><time>2026-03-24T13:45:14.119Z</time></trkpt><trkpt lat="40.870505" lon="14.056195"><ele>3.4999999999999996</ele><time>2026-03-24T13:45:15.118Z</time></trkpt><trkpt lat="40.8704783" lon="14.0562967"><ele>4.0</ele><time>2026-03-24T13:45:16.12Z</time></trkpt><trkpt lat="40.87045" lon="14.0564017"><ele>3.9999999999999996</ele><time>2026-03-24T13:45:17.118Z</time></trkpt><trkpt lat="40.8704217" lon="14.0565017"><ele>4.0</ele><time>2026-03-24T13:45:18.118Z</time></trkpt><trkpt lat="40.8703933" lon="14.056605"><ele>4.0</ele><time>2026-03-24T13:45:19.119Z</time></trkpt><trkpt lat="40.870365" lon="14.0567117"><ele>4.0</ele><time>2026-03-24T13:45:20.118Z</time></trkpt><trkpt lat="40.8703383" lon="14.056815"><ele>3.9999999999999996</ele><time>2026-03-24T13:45:21.118Z</time></trkpt><trkpt lat="40.8703083" lon="14.0569167"><ele>4.0</ele><time>2026-03-24T13:45:22.119Z</time></trkpt><trkpt lat="40.8702833" lon="14.0570267"><ele>3.6666666666666665</ele><time>2026-03-24T13:45:23.119Z</time></trkpt><trkpt lat="40.8702567" lon="14.057135"><ele>3.333333333333333</ele><time>2026-03-24T13:45:24.118Z</time></trkpt><trkpt lat="40.8702283" lon="14.0572467"><ele>3.0</ele><time>2026-03-24T13:45:25.121Z</time></trkpt><trkpt lat="40.8701967" lon="14.0573517"><ele>2.6666666666666665</ele><time>2026-03-24T13:45:26.119Z</time></trkpt><trkpt lat="40.8701667" lon="14.0574583"><ele>2.333333333333333</ele><time>2026-03-24T13:45:27.119Z</time></trkpt><trkpt lat="40.8701367" lon="14.0575667"><ele>2.0</ele><time>2026-03-24T13:45:28.119Z</time></trkpt><trkpt lat="40.870105" lon="14.0576767"><ele>1.9999999999999998</ele><time>2026-03-24T13:45:29.118Z</time></trkpt><trkpt lat="40.8700733" lon="14.0577833"><ele>2.0</ele><time>2026-03-24T13:45:30.119Z</time></trkpt><trkpt lat="40.870045" lon="14.0578917"><ele>2.0</ele><time>2026-03-24T13:45:31.118Z</time></trkpt><trkpt lat="40.8700133" lon="14.0580033"><ele>2.0</ele><time>2026-03-24T13:45:32.119Z</time></trkpt><trkpt lat="40.8699817" lon="14.058115"><ele>1.9999999999999998</ele><time>2026-03-24T13:45:33.118Z</time></trkpt><trkpt lat="40.8699483" lon="14.058225"><ele>2.0</ele><time>2026-03-24T13:45:34.119Z</time></trkpt><trkpt lat="40.8699167" lon="14.0583383"><ele>1.9999999999999998</ele><time>2026-03-24T13:45:35.118Z</time></trkpt><trkpt lat="40.86989" lon="14.05845"><ele>2.0</ele><time>2026-03-24T13:45:36.119Z</time></trkpt><trkpt lat="40.86986" lon="14.058565"><ele>2.0</ele><time>2026-03-24T13:45:37.125Z</time></trkpt><trkpt lat="40.86983" lon="14.0586767"><ele>2.0</ele><time>2026-03-24T13:45:38.119Z</time></trkpt><trkpt lat="40.8698" lon="14.05879"><ele>1.9999999999999998</ele><time>2026-03-24T13:45:39.119Z</time></trkpt><trkpt lat="40.8697717" lon="14.0589"><ele>2.0</ele><time>2026-03-24T13:45:40.118Z</time></trkpt><trkpt lat="40.8697433" lon="14.0590133"><ele>2.1666666666666665</ele><time>2026-03-24T13:45:41.119Z</time></trkpt><trkpt lat="40.8697133" lon="14.0591233"><ele>2.333333333333333</ele><time>2026-03-24T13:45:42.118Z</time></trkpt><trkpt lat="40.8696817" lon="14.0592333"><ele>2.5</ele><time>2026-03-24T13:45:43.119Z</time></trkpt><trkpt lat="40.86965" lon="14.0593467"><ele>2.6666666666666665</ele><time>2026-03-24T13:45:44.118Z</time></trkpt><trkpt lat="40.8696233" lon="14.0594533"><ele>2.8333333333333335</ele><time>2026-03-24T13:45:45.118Z</time></trkpt><trkpt lat="40.869595" lon="14.0595583"><ele>3.0</ele><time>2026-03-24T13:45:46.118Z</time></trkpt><trkpt lat="40.8695617" lon="14.0596583"><ele>3.0</ele><time>2026-03-24T13:45:47.118Z</time></trkpt><trkpt lat="40.8695267" lon="14.0597583"><ele>3.0</ele><time>2026-03-24T13:45:48.12Z</time></trkpt><trkpt lat="40.8694883" lon="14.0598583"><ele>3.0</ele><time>2026-03-24T13:45:49.118Z</time></trkpt><trkpt lat="40.86945" lon="14.05996"><ele>3.0</ele><time>2026-03-24T13:45:50.12Z</time></trkpt><trkpt lat="40.8694117" lon="14.0600633"><ele>3.0</ele><time>2026-03-24T13:45:51.118Z</time></trkpt><trkpt lat="40.8693733" lon="14.0601633"><ele>3.0</ele><time>2026-03-24T13:45:52.118Z</time></trkpt><trkpt lat="40.86934" lon="14.060255"><ele>3.0</ele><time>2026-03-24T13:45:53.118Z</time></trkpt><trkpt lat="40.86931" lon="14.0603467"><ele>3.0</ele><time>2026-03-24T13:45:54.119Z</time></trkpt><trkpt lat="40.8692783" lon="14.0604383"><ele>3.0</ele><time>2026-03-24T13:45:55.118Z</time></trkpt><trkpt lat="40.8692467" lon="14.06053"><ele>3.0</ele><time>2026-03-24T13:45:56.119Z</time></trkpt><trkpt lat="40.8692167" lon="14.0606217"><ele>3.0</ele><time>2026-03-24T13:45:57.119Z</time></trkpt><trkpt lat="40.8691867" lon="14.0607133"><ele>3.0</ele><time>2026-03-24T13:45:58.12Z</time></trkpt><trkpt lat="40.8691533" lon="14.060805"><ele>3.0</ele><time>2026-03-24T13:45:59.119Z</time></trkpt><trkpt lat="40.8691183" lon="14.0608933"><ele>3.0</ele><time>2026-03-24T13:46:00.118Z</time></trkpt><trkpt lat="40.869085" lon="14.0609833"><ele>3.0</ele><time>2026-03-24T13:46:01.118Z</time></trkpt><trkpt lat="40.869055" lon="14.0610717"><ele>3.0</ele><time>2026-03-24T13:46:02.119Z</time></trkpt><trkpt lat="40.8690217" lon="14.0611617"><ele>3.0</ele><time>2026-03-24T13:46:03.119Z</time></trkpt><trkpt lat="40.8689867" lon="14.06125"><ele>3.0</ele><time>2026-03-24T13:46:04.118Z</time></trkpt><trkpt lat="40.8689567" lon="14.06134"><ele>3.0</ele><time>2026-03-24T13:46:05.119Z</time></trkpt><trkpt lat="40.8689267" lon="14.0614333"><ele>3.0</ele><time>2026-03-24T13:46:06.119Z</time></trkpt><trkpt lat="40.8688917" lon="14.0615183"><ele>3.0</ele><time>2026-03-24T13:46:07.119Z</time></trkpt><trkpt lat="40.8688583" lon="14.0615967"><ele>3.0</ele><time>2026-03-24T13:46:08.119Z</time></trkpt><trkpt lat="40.8688217" lon="14.0616767"><ele>3.0</ele><time>2026-03-24T13:46:09.118Z</time></trkpt><trkpt lat="40.8687883" lon="14.0617517"><ele>3.0</ele><time>2026-03-24T13:46:10.118Z</time></trkpt><trkpt lat="40.8687383" lon="14.0618933"><ele>3.2</ele><time>2026-03-24T13:46:12.118Z</time></trkpt><trkpt lat="40.86875" lon="14.0620167"><ele>3.4</ele><time>2026-03-24T13:46:14.118Z</time></trkpt><trkpt lat="40.8688467" lon="14.0620483"><ele>3.6000000000000005</ele><time>2026-03-24T13:46:16.118Z</time></trkpt><trkpt lat="40.8689467" lon="14.0619933"><ele>3.8000000000000003</ele><time>2026-03-24T13:46:18.118Z</time></trkpt><trkpt lat="40.8690583" lon="14.06195"><ele>4.0</ele><time>2026-03-24T13:46:20.118Z</time></trkpt><trkpt lat="40.8691783" lon="14.06195"><ele>4.0</ele><time>2026-03-24T13:46:22.117Z</time></trkpt><trkpt lat="40.8692433" lon="14.0619617"><ele>4.0</ele><time>2026-03-24T13:46:23.117Z</time></trkpt><trkpt lat="40.8693633" lon="14.061975"><ele>4.0</ele><time>2026-03-24T13:46:25.117Z</time></trkpt><trkpt lat="40.8694867" lon="14.06199"><ele>4.0</ele><time>2026-03-24T13:46:27.117Z</time></trkpt><trkpt lat="40.8695517" lon="14.061995"><ele>4.0</ele><time>2026-03-24T13:46:28.117Z</time></trkpt><trkpt lat="40.869665" lon="14.0619967"><ele>4.25</ele><time>2026-03-24T13:46:30.118Z</time></trkpt><trkpt lat="40.8697833" lon="14.062005"><ele>4.5</ele><time>2026-03-24T13:46:32.118Z</time></trkpt><trkpt lat="40.869895" lon="14.0620167"><ele>4.75</ele><time>2026-03-24T13:46:34.117Z</time></trkpt><trkpt lat="40.8700083" lon="14.0620233"><ele>5.0</ele><time>2026-03-24T13:46:36.118Z</time></trkpt><trkpt lat="40.8701283" lon="14.06203"><ele>5.0</ele><time>2026-03-24T13:46:38.118Z</time></trkpt><trkpt lat="40.8701917" lon="14.0620317"><ele>5.0</ele><time>2026-03-24T13:46:39.117Z</time></trkpt><trkpt lat="40.8702567" lon="14.0620383"><ele>5.0</ele><time>2026-03-24T13:46:40.12Z</time></trkpt><trkpt lat="40.87032" lon="14.0620433"><ele>5.0</ele><time>2026-03-24T13:46:41.117Z</time></trkpt><trkpt lat="40.8704383" lon="14.06205"><ele>5.0</ele><time>2026-03-24T13:46:43.117Z</time></trkpt><trkpt lat="40.8705633" lon="14.0620633"><ele>5.0</ele><time>2026-03-24T13:46:45.117Z</time></trkpt><trkpt lat="40.8706283" lon="14.06207"><ele>5.0</ele><time>2026-03-24T13:46:46.118Z</time></trkpt><trkpt lat="40.870695" lon="14.062075"><ele>5.0</ele><time>2026-03-24T13:46:47.117Z</time></trkpt><trkpt lat="40.8707583" lon="14.06208"><ele>5.0</ele><time>2026-03-24T13:46:48.117Z</time></trkpt><trkpt lat="40.8708233" lon="14.0620833"><ele>5.0</ele><time>2026-03-24T13:46:49.117Z</time></trkpt><trkpt lat="40.8708917" lon="14.0620883"><ele>5.0</ele><time>2026-03-24T13:46:50.118Z</time></trkpt><trkpt lat="40.8709583" lon="14.0620967"><ele>5.0</ele><time>2026-03-24T13:46:51.121Z</time></trkpt><trkpt lat="40.8710217" lon="14.0621017"><ele>5.0</ele><time>2026-03-24T13:46:52.118Z</time></trkpt><trkpt lat="40.87114" lon="14.06211"><ele>5.0</ele><time>2026-03-24T13:46:54.117Z</time></trkpt><trkpt lat="40.8712033" lon="14.062115"><ele>5.0</ele><time>2026-03-24T13:46:55.118Z</time></trkpt><trkpt lat="40.8712683" lon="14.0621233"><ele>5.0</ele><time>2026-03-24T13:46:56.118Z</time></trkpt><trkpt lat="40.871335" lon="14.062125"><ele>5.0</ele><time>2026-03-24T13:46:57.117Z</time></trkpt><trkpt lat="40.8714033" lon="14.0621283"><ele>5.0</ele><time>2026-03-24T13:46:58.118Z</time></trkpt><trkpt lat="40.8714717" lon="14.062135"><ele>5.0</ele><time>2026-03-24T13:46:59.117Z</time></trkpt><trkpt lat="40.87154" lon="14.062145"><ele>5.0</ele><time>2026-03-24T13:47:00.117Z</time></trkpt><trkpt lat="40.8716083" lon="14.06215"><ele>5.0</ele><time>2026-03-24T13:47:01.118Z</time></trkpt><trkpt lat="40.87168" lon="14.062155"><ele>5.0</ele><time>2026-03-24T13:47:02.117Z</time></trkpt><trkpt lat="40.87175" lon="14.0621567"><ele>5.0</ele><time>2026-03-24T13:47:03.118Z</time></trkpt><trkpt lat="40.8718183" lon="14.0621633"><ele>5.0</ele><time>2026-03-24T13:47:04.118Z</time></trkpt><trkpt lat="40.871885" lon="14.0621683"><ele>5.0</ele><time>2026-03-24T13:47:05.119Z</time></trkpt><trkpt lat="40.871955" lon="14.0621717"><ele>5.0</ele><time>2026-03-24T13:47:06.117Z</time></trkpt><trkpt lat="40.872025" lon="14.062175"><ele>5.0</ele><time>2026-03-24T13:47:07.117Z</time></trkpt><trkpt lat="40.87209" lon="14.0621783"><ele>5.0</ele><time>2026-03-24T13:47:08.118Z</time></trkpt><trkpt lat="40.8721567" lon="14.0621833"><ele>5.0</ele><time>2026-03-24T13:47:09.118Z</time></trkpt><trkpt lat="40.8722233" lon="14.0621867"><ele>5.0</ele><time>2026-03-24T13:47:10.117Z</time></trkpt><trkpt lat="40.8722933" lon="14.0621967"><ele>5.0</ele><time>2026-03-24T13:47:11.117Z</time></trkpt><trkpt lat="40.8723617" lon="14.0622"><ele>5.0</ele><time>2026-03-24T13:47:12.118Z</time></trkpt><trkpt lat="40.872425" lon="14.0622033"><ele>5.0</ele><time>2026-03-24T13:47:13.117Z</time></trkpt><trkpt lat="40.87249" lon="14.062215"><ele>5.0</ele><time>2026-03-24T13:47:14.12Z</time></trkpt><trkpt lat="40.8725567" lon="14.0622183"><ele>5.0</ele><time>2026-03-24T13:47:15.119Z</time></trkpt><trkpt lat="40.8726267" lon="14.062225"><ele>5.0</ele><time>2026-03-24T13:47:16.117Z</time></trkpt><trkpt lat="40.872695" lon="14.0622283"><ele>5.0</ele><time>2026-03-24T13:47:17.118Z</time></trkpt><trkpt lat="40.872765" lon="14.0622333"><ele>5.0</ele><time>2026-03-24T13:47:18.119Z</time></trkpt><trkpt lat="40.8728367" lon="14.0622417"><ele>5.0</ele><time>2026-03-24T13:47:19.118Z</time></trkpt><trkpt lat="40.87291" lon="14.062245"><ele>5.0</ele><time>2026-03-24T13:47:20.117Z</time></trkpt><trkpt lat="40.87298" lon="14.0622533"><ele>5.0</ele><time>2026-03-24T13:47:21.117Z</time></trkpt><trkpt lat="40.8730517" lon="14.0622633"><ele>5.0</ele><time>2026-03-24T13:47:22.118Z</time></trkpt><trkpt lat="40.8731267" lon="14.06227"><ele>5.0</ele><time>2026-03-24T13:47:23.117Z</time></trkpt><trkpt lat="40.8732033" lon="14.06228"><ele>5.0</ele><time>2026-03-24T13:47:24.124Z</time></trkpt><trkpt lat="40.8732833" lon="14.0622883"><ele>5.0</ele><time>2026-03-24T13:47:25.117Z</time></trkpt><trkpt lat="40.87336" lon="14.06229"><ele>5.0</ele><time>2026-03-24T13:47:26.117Z</time></trkpt><trkpt lat="40.8734383" lon="14.06229"><ele>5.0</ele><time>2026-03-24T13:47:27.117Z</time></trkpt><trkpt lat="40.8735233" lon="14.0622967"><ele>5.0</ele><time>2026-03-24T13:47:28.117Z</time></trkpt><trkpt lat="40.8736067" lon="14.0623017"><ele>5.0</ele><time>2026-03-24T13:47:29.117Z</time></trkpt><trkpt lat="40.87369" lon="14.06231"><ele>5.0</ele><time>2026-03-24T13:47:30.118Z</time></trkpt><trkpt lat="40.87377" lon="14.0623183"><ele>5.0</ele><time>2026-03-24T13:47:31.117Z</time></trkpt><trkpt lat="40.87385" lon="14.0623217"><ele>5.0</ele><time>2026-03-24T13:47:32.118Z</time></trkpt><trkpt lat="40.8739267" lon="14.0623267"><ele>5.0</ele><time>2026-03-24T13:47:33.118Z</time></trkpt><trkpt lat="40.8740017" lon="14.0623317"><ele>5.0</ele><time>2026-03-24T13:47:34.117Z</time></trkpt><trkpt lat="40.874075" lon="14.062345"><ele>5.0</ele><time>2026-03-24T13:47:35.12Z</time></trkpt><trkpt lat="40.874145" lon="14.0623517"><ele>5.0</ele><time>2026-03-24T13:47:36.118Z</time></trkpt><trkpt lat="40.8742167" lon="14.0623617"><ele>5.0</ele><time>2026-03-24T13:47:37.118Z</time></trkpt><trkpt lat="40.8742867" lon="14.0623717"><ele>5.0</ele><time>2026-03-24T13:47:38.118Z</time></trkpt><trkpt lat="40.874355" lon="14.062385"><ele>5.0</ele><time>2026-03-24T13:47:39.118Z</time></trkpt><trkpt lat="40.8744233" lon="14.0623883"><ele>5.0</ele><time>2026-03-24T13:47:40.119Z</time></trkpt><trkpt lat="40.87449" lon="14.0623917"><ele>4.714285714285714</ele><time>2026-03-24T13:47:41.117Z</time></trkpt><trkpt lat="40.8745567" lon="14.062395"><ele>4.428571428571429</ele><time>2026-03-24T13:47:42.118Z</time></trkpt><trkpt lat="40.8746233" lon="14.0624017"><ele>4.142857142857142</ele><time>2026-03-24T13:47:43.118Z</time></trkpt><trkpt lat="40.8746933" lon="14.0624067"><ele>3.8571428571428568</ele><time>2026-03-24T13:47:44.118Z</time></trkpt><trkpt lat="40.8747617" lon="14.0624117"><ele>3.571428571428571</ele><time>2026-03-24T13:47:45.117Z</time></trkpt><trkpt lat="40.8748283" lon="14.062415"><ele>3.2857142857142856</ele><time>2026-03-24T13:47:46.117Z</time></trkpt><trkpt lat="40.8748983" lon="14.0624183"><ele>3.0</ele><time>2026-03-24T13:47:47.118Z</time></trkpt><trkpt lat="40.8749667" lon="14.0624233"><ele>2.9999999999999996</ele><time>2026-03-24T13:47:48.118Z</time></trkpt><trkpt lat="40.875035" lon="14.0624333"><ele>3.0</ele><time>2026-03-24T13:47:49.119Z</time></trkpt><trkpt lat="40.875105" lon="14.06244"><ele>3.0</ele><time>2026-03-24T13:47:50.118Z</time></trkpt><trkpt lat="40.875175" lon="14.0624417"><ele>3.0</ele><time>2026-03-24T13:47:51.118Z</time></trkpt><trkpt lat="40.875245" lon="14.0624383"><ele>3.0</ele><time>2026-03-24T13:47:52.117Z</time></trkpt><trkpt lat="40.875315" lon="14.06244"><ele>2.9999999999999996</ele><time>2026-03-24T13:47:53.118Z</time></trkpt><trkpt lat="40.875385" lon="14.0624433"><ele>3.0</ele><time>2026-03-24T13:47:54.119Z</time></trkpt><trkpt lat="40.8754583" lon="14.0624467"><ele>3.571428571428571</ele><time>2026-03-24T13:47:55.118Z</time></trkpt><trkpt lat="40.8755317" lon="14.06245"><ele>4.142857142857142</ele><time>2026-03-24T13:47:56.118Z</time></trkpt><trkpt lat="40.875605" lon="14.0624517"><ele>4.714285714285714</ele><time>2026-03-24T13:47:57.12Z</time></trkpt><trkpt lat="40.8756767" lon="14.0624583"><ele>5.285714285714286</ele><time>2026-03-24T13:47:58.117Z</time></trkpt><trkpt lat="40.8757517" lon="14.0624633"><ele>5.857142857142857</ele><time>2026-03-24T13:47:59.12Z</time></trkpt><trkpt lat="40.8758233" lon="14.0624617"><ele>6.428571428571429</ele><time>2026-03-24T13:48:00.118Z</time></trkpt><trkpt lat="40.8758983" lon="14.0624583"><ele>7.0</ele><time>2026-03-24T13:48:01.118Z</time></trkpt><trkpt lat="40.8759733" lon="14.0624567"><ele>7.0</ele><time>2026-03-24T13:48:02.118Z</time></trkpt><trkpt lat="40.876045" lon="14.0624617"><ele>7.0</ele><time>2026-03-24T13:48:03.118Z</time></trkpt><trkpt lat="40.8761117" lon="14.0624867"><ele>7.0</ele><time>2026-03-24T13:48:04.118Z</time></trkpt><trkpt lat="40.8761683" lon="14.062535"><ele>7.0</ele><time>2026-03-24T13:48:05.119Z</time></trkpt><trkpt lat="40.8762133" lon="14.0626117"><ele>7.0</ele><time>2026-03-24T13:48:06.117Z</time></trkpt><trkpt lat="40.8762467" lon="14.0626983"><ele>7.0</ele><time>2026-03-24T13:48:07.118Z</time></trkpt><trkpt lat="40.8762767" lon="14.0627917"><ele>7.0</ele><time>2026-03-24T13:48:08.118Z</time></trkpt><trkpt lat="40.8763083" lon="14.0628767"><ele>7.0</ele><time>2026-03-24T13:48:09.118Z</time></trkpt><trkpt lat="40.87634" lon="14.062965"><ele>7.0</ele><time>2026-03-24T13:48:10.119Z</time></trkpt><trkpt lat="40.8763717" lon="14.06305"><ele>7.0</ele><time>2026-03-24T13:48:11.118Z</time></trkpt><trkpt lat="40.8764017" lon="14.0631367"><ele>7.0</ele><time>2026-03-24T13:48:12.121Z</time></trkpt><trkpt lat="40.876435" lon="14.0632217"><ele>7.0</ele><time>2026-03-24T13:48:13.118Z</time></trkpt><trkpt lat="40.8764683" lon="14.0633067"><ele>7.0</ele><time>2026-03-24T13:48:14.118Z</time></trkpt><trkpt lat="40.8764983" lon="14.0633917"><ele>7.0</ele><time>2026-03-24T13:48:15.117Z</time></trkpt><trkpt lat="40.87653" lon="14.0634767"><ele>7.285714285714286</ele><time>2026-03-24T13:48:16.118Z</time></trkpt><trkpt lat="40.8765583" lon="14.0635583"><ele>7.571428571428571</ele><time>2026-03-24T13:48:17.117Z</time></trkpt><trkpt lat="40.8765867" lon="14.0636417"><ele>7.857142857142858</ele><time>2026-03-24T13:48:18.117Z</time></trkpt><trkpt lat="40.8766167" lon="14.063725"><ele>8.142857142857142</ele><time>2026-03-24T13:48:19.119Z</time></trkpt><trkpt lat="40.8766483" lon="14.0638083"><ele>8.428571428571429</ele><time>2026-03-24T13:48:20.117Z</time></trkpt><trkpt lat="40.876685" lon="14.0638933"><ele>8.714285714285715</ele><time>2026-03-24T13:48:21.117Z</time></trkpt><trkpt lat="40.8767167" lon="14.0639767"><ele>9.0</ele><time>2026-03-24T13:48:22.118Z</time></trkpt><trkpt lat="40.876745" lon="14.06406"><ele>9.285714285714286</ele><time>2026-03-24T13:48:23.119Z</time></trkpt><trkpt lat="40.8767767" lon="14.0641383"><ele>9.571428571428571</ele><time>2026-03-24T13:48:24.118Z</time></trkpt><trkpt lat="40.8768033" lon="14.06422"><ele>9.857142857142858</ele><time>2026-03-24T13:48:25.119Z</time></trkpt><trkpt lat="40.8768317" lon="14.0643"><ele>10.142857142857142</ele><time>2026-03-24T13:48:26.118Z</time></trkpt><trkpt lat="40.8768583" lon="14.0643817"><ele>10.428571428571429</ele><time>2026-03-24T13:48:27.117Z</time></trkpt><trkpt lat="40.8768867" lon="14.06446"><ele>10.714285714285715</ele><time>2026-03-24T13:48:28.118Z</time></trkpt><trkpt lat="40.8769133" lon="14.0645383"><ele>11.0</ele><time>2026-03-24T13:48:29.118Z</time></trkpt><trkpt lat="40.87696" lon="14.0646967"><ele>11.0</ele><time>2026-03-24T13:48:31.119Z</time></trkpt><trkpt lat="40.8769817" lon="14.06478"><ele>11.0</ele><time>2026-03-24T13:48:32.122Z</time></trkpt><trkpt lat="40.877005" lon="14.0648633"><ele>11.0</ele><time>2026-03-24T13:48:33.118Z</time></trkpt><trkpt lat="40.8770267" lon="14.0649467"><ele>11.0</ele><time>2026-03-24T13:48:34.117Z</time></trkpt><trkpt lat="40.8770483" lon="14.0650317"><ele>11.0</ele><time>2026-03-24T13:48:35.119Z</time></trkpt><trkpt lat="40.8770683" lon="14.0651167"><ele>11.0</ele><time>2026-03-24T13:48:36.118Z</time></trkpt><trkpt lat="40.8770917" lon="14.0652017"><ele>11.0</ele><time>2026-03-24T13:48:37.118Z</time></trkpt><trkpt lat="40.8771167" lon="14.0652817"><ele>10.714285714285715</ele><time>2026-03-24T13:48:38.119Z</time></trkpt><trkpt lat="40.8771367" lon="14.0653633"><ele>10.428571428571429</ele><time>2026-03-24T13:48:39.118Z</time></trkpt><trkpt lat="40.8771533" lon="14.065445"><ele>10.142857142857142</ele><time>2026-03-24T13:48:40.117Z</time></trkpt><trkpt lat="40.8771717" lon="14.0655283"><ele>9.857142857142858</ele><time>2026-03-24T13:48:41.12Z</time></trkpt><trkpt lat="40.87719" lon="14.06561"><ele>9.571428571428571</ele><time>2026-03-24T13:48:42.119Z</time></trkpt><trkpt lat="40.8772067" lon="14.0656933"><ele>9.285714285714286</ele><time>2026-03-24T13:48:43.118Z</time></trkpt><trkpt lat="40.8772417" lon="14.065845"><ele>9.0</ele><time>2026-03-24T13:48:45.12Z</time></trkpt><trkpt lat="40.877265" lon="14.0659233"><ele>9.0</ele><time>2026-03-24T13:48:46.117Z</time></trkpt><trkpt lat="40.8773083" lon="14.0660733"><ele>9.0</ele><time>2026-03-24T13:48:48.119Z</time></trkpt><trkpt lat="40.8773467" lon="14.0662267"><ele>9.0</ele><time>2026-03-24T13:48:50.118Z</time></trkpt><trkpt lat="40.8773683" lon="14.0663117"><ele>9.0</ele><time>2026-03-24T13:48:51.118Z</time></trkpt><trkpt lat="40.8773883" lon="14.0663917"><ele>9.0</ele><time>2026-03-24T13:48:52.119Z</time></trkpt><trkpt lat="40.8774117" lon="14.0664717"><ele>9.0</ele><time>2026-03-24T13:48:53.118Z</time></trkpt><trkpt lat="40.8774333" lon="14.0665583"><ele>8.857142857142858</ele><time>2026-03-24T13:48:54.119Z</time></trkpt><trkpt lat="40.877455" lon="14.0666367"><ele>8.714285714285715</ele><time>2026-03-24T13:48:55.121Z</time></trkpt><trkpt lat="40.8775" lon="14.0667833"><ele>8.571428571428571</ele><time>2026-03-24T13:48:57.121Z</time></trkpt><trkpt lat="40.8775217" lon="14.0668617"><ele>8.428571428571429</ele><time>2026-03-24T13:48:58.119Z</time></trkpt><trkpt lat="40.8775467" lon="14.0669417"><ele>8.285714285714285</ele><time>2026-03-24T13:48:59.118Z</time></trkpt><trkpt lat="40.8775717" lon="14.06702"><ele>8.142857142857142</ele><time>2026-03-24T13:49:00.118Z</time></trkpt><trkpt lat="40.8776" lon="14.0670983"><ele>8.0</ele><time>2026-03-24T13:49:01.118Z</time></trkpt><trkpt lat="40.877625" lon="14.0671767"><ele>8.0</ele><time>2026-03-24T13:49:02.119Z</time></trkpt><trkpt lat="40.8776517" lon="14.0672533"><ele>8.0</ele><time>2026-03-24T13:49:03.124Z</time></trkpt><trkpt lat="40.8776767" lon="14.06733"><ele>8.0</ele><time>2026-03-24T13:49:04.119Z</time></trkpt><trkpt lat="40.87772" lon="14.0674867"><ele>8.0</ele><time>2026-03-24T13:49:06.119Z</time></trkpt><trkpt lat="40.877765" lon="14.06764"><ele>8.0</ele><time>2026-03-24T13:49:08.118Z</time></trkpt><trkpt lat="40.8778117" lon="14.067795"><ele>8.428571428571429</ele><time>2026-03-24T13:49:10.119Z</time></trkpt><trkpt lat="40.87783" lon="14.067875"><ele>8.857142857142856</ele><time>2026-03-24T13:49:11.118Z</time></trkpt><trkpt lat="40.8778567" lon="14.067955"><ele>9.285714285714285</ele><time>2026-03-24T13:49:12.12Z</time></trkpt><trkpt lat="40.8778883" lon="14.068035"><ele>9.714285714285714</ele><time>2026-03-24T13:49:13.118Z</time></trkpt><trkpt lat="40.8779133" lon="14.0681167"><ele>10.142857142857142</ele><time>2026-03-24T13:49:14.119Z</time></trkpt><trkpt lat="40.877935" lon="14.0682"><ele>10.571428571428571</ele><time>2026-03-24T13:49:15.118Z</time></trkpt><trkpt lat="40.8779583" lon="14.0682817"><ele>11.0</ele><time>2026-03-24T13:49:16.118Z</time></trkpt><trkpt lat="40.8779817" lon="14.0683667"><ele>11.571428571428571</ele><time>2026-03-24T13:49:17.118Z</time></trkpt><trkpt lat="40.8780083" lon="14.06845"><ele>12.142857142857142</ele><time>2026-03-24T13:49:18.118Z</time></trkpt><trkpt lat="40.87803" lon="14.0685333"><ele>12.714285714285715</ele><time>2026-03-24T13:49:19.118Z</time></trkpt><trkpt lat="40.8780533" lon="14.0686183"><ele>13.285714285714285</ele><time>2026-03-24T13:49:20.12Z</time></trkpt><trkpt lat="40.8780767" lon="14.0686983"><ele>13.857142857142856</ele><time>2026-03-24T13:49:21.118Z</time></trkpt><trkpt lat="40.8781" lon="14.0687833"><ele>14.428571428571429</ele><time>2026-03-24T13:49:22.118Z</time></trkpt><trkpt lat="40.8781283" lon="14.0688667"><ele>15.0</ele><time>2026-03-24T13:49:23.12Z</time></trkpt><trkpt lat="40.878155" lon="14.0689517"><ele>15.0</ele><time>2026-03-24T13:49:24.118Z</time></trkpt><trkpt lat="40.8781817" lon="14.0690367"><ele>15.0</ele><time>2026-03-24T13:49:25.118Z</time></trkpt><trkpt lat="40.8782067" lon="14.0691217"><ele>15.0</ele><time>2026-03-24T13:49:26.118Z</time></trkpt><trkpt lat="40.878235" lon="14.0692033"><ele>15.0</ele><time>2026-03-24T13:49:27.117Z</time></trkpt><trkpt lat="40.87826" lon="14.0692867"><ele>15.0</ele><time>2026-03-24T13:49:28.119Z</time></trkpt><trkpt lat="40.878285" lon="14.06937"><ele>15.0</ele><time>2026-03-24T13:49:29.119Z</time></trkpt><trkpt lat="40.87831" lon="14.0694517"><ele>15.0</ele><time>2026-03-24T13:49:30.12Z</time></trkpt><trkpt lat="40.8783383" lon="14.0695333"><ele>15.571428571428573</ele><time>2026-03-24T13:49:31.117Z</time></trkpt><trkpt lat="40.8783683" lon="14.069615"><ele>16.142857142857142</ele><time>2026-03-24T13:49:32.118Z</time></trkpt><trkpt lat="40.8784017" lon="14.0696967"><ele>16.714285714285715</ele><time>2026-03-24T13:49:33.117Z</time></trkpt><trkpt lat="40.878435" lon="14.0697783"><ele>17.285714285714285</ele><time>2026-03-24T13:49:34.118Z</time></trkpt><trkpt lat="40.8784683" lon="14.0698567"><ele>17.857142857142858</ele><time>2026-03-24T13:49:35.118Z</time></trkpt><trkpt lat="40.8785017" lon="14.0699333"><ele>18.428571428571427</ele><time>2026-03-24T13:49:36.118Z</time></trkpt><trkpt lat="40.8785383" lon="14.0700083"><ele>19.0</ele><time>2026-03-24T13:49:37.119Z</time></trkpt><trkpt lat="40.8785767" lon="14.0700833"><ele>20.333333333333332</ele><time>2026-03-24T13:49:38.119Z</time></trkpt><trkpt lat="40.878615" lon="14.070155"><ele>21.666666666666664</ele><time>2026-03-24T13:49:39.118Z</time></trkpt><trkpt lat="40.87865" lon="14.07023"><ele>23.0</ele><time>2026-03-24T13:49:40.119Z</time></trkpt><trkpt lat="40.878685" lon="14.0703017"><ele>24.333333333333332</ele><time>2026-03-24T13:49:41.118Z</time></trkpt><trkpt lat="40.878755" lon="14.0704383"><ele>25.666666666666668</ele><time>2026-03-24T13:49:43.118Z</time></trkpt><trkpt lat="40.8787933" lon="14.0705067"><ele>27.0</ele><time>2026-03-24T13:49:44.119Z</time></trkpt><trkpt lat="40.87883" lon="14.0705767"><ele>27.0</ele><time>2026-03-24T13:49:45.118Z</time></trkpt><trkpt lat="40.8788983" lon="14.0707133"><ele>27.0</ele><time>2026-03-24T13:49:47.118Z</time></trkpt><trkpt lat="40.878965" lon="14.07085"><ele>27.0</ele><time>2026-03-24T13:49:49.118Z</time></trkpt><trkpt lat="40.8790333" lon="14.0709833"><ele>27.0</ele><time>2026-03-24T13:49:51.118Z</time></trkpt><trkpt lat="40.8791067" lon="14.07112"><ele>26.75</ele><time>2026-03-24T13:49:53.118Z</time></trkpt><trkpt lat="40.8791783" lon="14.071245"><ele>26.5</ele><time>2026-03-24T13:49:55.118Z</time></trkpt><trkpt lat="40.8792417" lon="14.07137"><ele>26.25</ele><time>2026-03-24T13:49:57.118Z</time></trkpt><trkpt lat="40.8793017" lon="14.0714967"><ele>26.0</ele><time>2026-03-24T13:49:59.118Z</time></trkpt><trkpt lat="40.8793633" lon="14.0716167"><ele>27.6</ele><time>2026-03-24T13:50:01.118Z</time></trkpt><trkpt lat="40.8794233" lon="14.0717317"><ele>29.200000000000003</ele><time>2026-03-24T13:50:03.118Z</time></trkpt><trkpt lat="40.87949" lon="14.0718467"><ele>30.799999999999997</ele><time>2026-03-24T13:50:05.118Z</time></trkpt><trkpt lat="40.879555" lon="14.0719617"><ele>32.4</ele><time>2026-03-24T13:50:07.118Z</time></trkpt><trkpt lat="40.8796317" lon="14.0720683"><ele>34.0</ele><time>2026-03-24T13:50:09.119Z</time></trkpt><trkpt lat="40.879715" lon="14.0721717"><ele>34.0</ele><time>2026-03-24T13:50:11.119Z</time></trkpt><trkpt lat="40.8797967" lon="14.0722533"><ele>34.0</ele><time>2026-03-24T13:50:13.119Z</time></trkpt><trkpt lat="40.8798717" lon="14.0723283"><ele>34.0</ele><time>2026-03-24T13:50:15.118Z</time></trkpt><trkpt lat="40.8799617" lon="14.0724067"><ele>34.0</ele><time>2026-03-24T13:50:17.119Z</time></trkpt><trkpt lat="40.88005" lon="14.0724933"><ele>34.0</ele><time>2026-03-24T13:50:19.119Z</time></trkpt><trkpt lat="40.8801283" lon="14.0725783"><ele>33.2</ele><time>2026-03-24T13:50:21.118Z</time></trkpt><trkpt lat="40.8802" lon="14.0726583"><ele>32.4</ele><time>2026-03-24T13:50:23.119Z</time></trkpt><trkpt lat="40.8802733" lon="14.0727383"><ele>31.6</ele><time>2026-03-24T13:50:25.123Z</time></trkpt><trkpt lat="40.88034" lon="14.0728233"><ele>30.8</ele><time>2026-03-24T13:50:27.118Z</time></trkpt><trkpt lat="40.8804017" lon="14.0729033"><ele>30.0</ele><time>2026-03-24T13:50:29.118Z</time></trkpt><trkpt lat="40.8804667" lon="14.072985"><ele>30.0</ele><time>2026-03-24T13:50:31.118Z</time></trkpt><trkpt lat="40.880525" lon="14.0730617"><ele>30.0</ele><time>2026-03-24T13:50:33.118Z</time></trkpt><trkpt lat="40.88058" lon="14.07314"><ele>30.0</ele><time>2026-03-24T13:50:35.117Z</time></trkpt><trkpt lat="40.8806367" lon="14.0732367"><ele>30.0</ele><time>2026-03-24T13:50:37.119Z</time></trkpt><trkpt lat="40.8807083" lon="14.0733283"><ele>30.0</ele><time>2026-03-24T13:50:39.118Z</time></trkpt><trkpt lat="40.88077" lon="14.0734183"><ele>30.0</ele><time>2026-03-24T13:50:41.119Z</time></trkpt><trkpt lat="40.8808367" lon="14.0735067"><ele>30.2</ele><time>2026-03-24T13:50:43.118Z</time></trkpt><trkpt lat="40.880905" lon="14.0736017"><ele>30.4</ele><time>2026-03-24T13:50:45.118Z</time></trkpt><trkpt lat="40.8809667" lon="14.0736917"><ele>30.6</ele><time>2026-03-24T13:50:47.118Z</time></trkpt><trkpt lat="40.881035" lon="14.0737883"><ele>30.8</ele><time>2026-03-24T13:50:49.119Z</time></trkpt><trkpt lat="40.8811017" lon="14.0738817"><ele>31.0</ele><time>2026-03-24T13:50:51.118Z</time></trkpt><trkpt lat="40.8811683" lon="14.073965"><ele>31.200000000000003</ele><time>2026-03-24T13:50:53.12Z</time></trkpt><trkpt lat="40.881235" lon="14.0740533"><ele>31.400000000000002</ele><time>2026-03-24T13:50:55.118Z</time></trkpt><trkpt lat="40.8813017" lon="14.0741483"><ele>31.6</ele><time>2026-03-24T13:50:57.118Z</time></trkpt><trkpt lat="40.881365" lon="14.0742483"><ele>31.8</ele><time>2026-03-24T13:50:59.118Z</time></trkpt><trkpt lat="40.8814283" lon="14.07434"><ele>32.0</ele><time>2026-03-24T13:51:01.117Z</time></trkpt><trkpt lat="40.8814933" lon="14.07443"><ele>32.0</ele><time>2026-03-24T13:51:03.118Z</time></trkpt><trkpt lat="40.88156" lon="14.0745267"><ele>32.0</ele><time>2026-03-24T13:51:05.119Z</time></trkpt><trkpt lat="40.8816233" lon="14.0746183"><ele>32.0</ele><time>2026-03-24T13:51:07.118Z</time></trkpt><trkpt lat="40.881685" lon="14.0747117"><ele>32.0</ele><time>2026-03-24T13:51:09.118Z</time></trkpt><trkpt lat="40.8817483" lon="14.07481"><ele>32.0</ele><time>2026-03-24T13:51:11.118Z</time></trkpt><trkpt lat="40.8818" lon="14.0749067"><ele>33.0</ele><time>2026-03-24T13:51:13.119Z</time></trkpt><trkpt lat="40.8818533" lon="14.0750033"><ele>34.0</ele><time>2026-03-24T13:51:15.119Z</time></trkpt><trkpt lat="40.8819117" lon="14.0750933"><ele>35.0</ele><time>2026-03-24T13:51:17.118Z</time></trkpt><trkpt lat="40.88197" lon="14.0751917"><ele>36.0</ele><time>2026-03-24T13:51:19.118Z</time></trkpt><trkpt lat="40.88203" lon="14.0753017"><ele>37.0</ele><time>2026-03-24T13:51:21.119Z</time></trkpt><trkpt lat="40.88209" lon="14.0754183"><ele>37.0</ele><time>2026-03-24T13:51:23.122Z</time></trkpt><trkpt lat="40.882155" lon="14.075525"><ele>37.0</ele><time>2026-03-24T13:51:25.118Z</time></trkpt><trkpt lat="40.8822183" lon="14.07565"><ele>37.0</ele><time>2026-03-24T13:51:27.119Z</time></trkpt><trkpt lat="40.8822867" lon="14.0757767"><ele>37.0</ele><time>2026-03-24T13:51:29.119Z</time></trkpt><trkpt lat="40.8823583" lon="14.075905"><ele>37.25</ele><time>2026-03-24T13:51:31.118Z</time></trkpt><trkpt lat="40.882425" lon="14.076025"><ele>37.5</ele><time>2026-03-24T13:51:33.118Z</time></trkpt><trkpt lat="40.8824933" lon="14.076155"><ele>37.75</ele><time>2026-03-24T13:51:35.118Z</time></trkpt><trkpt lat="40.8825717" lon="14.0762833"><ele>38.0</ele><time>2026-03-24T13:51:37.118Z</time></trkpt><trkpt lat="40.882645" lon="14.0764117"><ele>38.599999999999994</ele><time>2026-03-24T13:51:39.118Z</time></trkpt><trkpt lat="40.8827167" lon="14.0765367"><ele>39.199999999999996</ele><time>2026-03-24T13:51:41.118Z</time></trkpt><trkpt lat="40.882785" lon="14.0766667"><ele>39.8</ele><time>2026-03-24T13:51:43.119Z</time></trkpt><trkpt lat="40.88286" lon="14.0768033"><ele>40.4</ele><time>2026-03-24T13:51:45.118Z</time></trkpt><trkpt lat="40.8828967" lon="14.0768733"><ele>41.0</ele><time>2026-03-24T13:51:46.118Z</time></trkpt><trkpt lat="40.8829333" lon="14.0769433"><ele>41.0</ele><time>2026-03-24T13:51:47.118Z</time></trkpt><trkpt lat="40.8829667" lon="14.077015"><ele>41.0</ele><time>2026-03-24T13:51:48.119Z</time></trkpt><trkpt lat="40.88303" lon="14.0771583"><ele>41.0</ele><time>2026-03-24T13:51:50.118Z</time></trkpt><trkpt lat="40.8830633" lon="14.0772333"><ele>41.0</ele><time>2026-03-24T13:51:51.118Z</time></trkpt><trkpt lat="40.8831233" lon="14.077375"><ele>41.0</ele><time>2026-03-24T13:51:53.118Z</time></trkpt><trkpt lat="40.8831567" lon="14.0774483"><ele>41.0</ele><time>2026-03-24T13:51:54.118Z</time></trkpt><trkpt lat="40.8831883" lon="14.0775217"><ele>41.0</ele><time>2026-03-24T13:51:55.118Z</time></trkpt><trkpt lat="40.8832567" lon="14.07766"><ele>41.0</ele><time>2026-03-24T13:51:57.118Z</time></trkpt><trkpt lat="40.88329" lon="14.0777317"><ele>41.0</ele><time>2026-03-24T13:51:58.118Z</time></trkpt><trkpt lat="40.8833567" lon="14.0778717"><ele>41.0</ele><time>2026-03-24T13:52:00.118Z</time></trkpt><trkpt lat="40.88339" lon="14.0779433"><ele>41.0</ele><time>2026-03-24T13:52:01.118Z</time></trkpt><trkpt lat="40.8834267" lon="14.07802"><ele>41.0</ele><time>2026-03-24T13:52:02.119Z</time></trkpt><trkpt lat="40.8834633" lon="14.0780933"><ele>41.285714285714285</ele><time>2026-03-24T13:52:03.118Z</time></trkpt><trkpt lat="40.8835033" lon="14.0781667"><ele>41.57142857142857</ele><time>2026-03-24T13:52:04.118Z</time></trkpt><trkpt lat="40.8835433" lon="14.0782383"><ele>41.85714285714286</ele><time>2026-03-24T13:52:05.118Z</time></trkpt><trkpt lat="40.8835883" lon="14.0783117"><ele>42.14285714285714</ele><time>2026-03-24T13:52:06.12Z</time></trkpt><trkpt lat="40.8836317" lon="14.0783833"><ele>42.42857142857143</ele><time>2026-03-24T13:52:07.118Z</time></trkpt><trkpt lat="40.8836767" lon="14.0784567"><ele>42.714285714285715</ele><time>2026-03-24T13:52:08.118Z</time></trkpt><trkpt lat="40.883725" lon="14.0785283"><ele>43.0</ele><time>2026-03-24T13:52:09.118Z</time></trkpt><trkpt lat="40.883775" lon="14.0786017"><ele>43.00000000000001</ele><time>2026-03-24T13:52:10.119Z</time></trkpt><trkpt lat="40.8838267" lon="14.0786783"><ele>43.0</ele><time>2026-03-24T13:52:11.118Z</time></trkpt><trkpt lat="40.8838783" lon="14.0787533"><ele>43.0</ele><time>2026-03-24T13:52:12.118Z</time></trkpt><trkpt lat="40.88393" lon="14.078825"><ele>43.0</ele><time>2026-03-24T13:52:13.118Z</time></trkpt><trkpt lat="40.8839817" lon="14.078895"><ele>43.0</ele><time>2026-03-24T13:52:14.118Z</time></trkpt><trkpt lat="40.88403" lon="14.078965"><ele>43.00000000000001</ele><time>2026-03-24T13:52:15.119Z</time></trkpt><trkpt lat="40.8840817" lon="14.0790333"><ele>43.0</ele><time>2026-03-24T13:52:16.119Z</time></trkpt><trkpt lat="40.884135" lon="14.0791067"><ele>42.833333333333336</ele><time>2026-03-24T13:52:17.118Z</time></trkpt><trkpt lat="40.8841883" lon="14.0791783"><ele>42.66666666666667</ele><time>2026-03-24T13:52:18.118Z</time></trkpt><trkpt lat="40.88424" lon="14.0792517"><ele>42.5</ele><time>2026-03-24T13:52:19.118Z</time></trkpt><trkpt lat="40.8842917" lon="14.0793233"><ele>42.333333333333336</ele><time>2026-03-24T13:52:20.118Z</time></trkpt><trkpt lat="40.88434" lon="14.0794"><ele>42.166666666666664</ele><time>2026-03-24T13:52:21.118Z</time></trkpt><trkpt lat="40.8843883" lon="14.079475"><ele>42.0</ele><time>2026-03-24T13:52:22.118Z</time></trkpt><trkpt lat="40.8844383" lon="14.07955"><ele>41.833333333333336</ele><time>2026-03-24T13:52:23.118Z</time></trkpt><trkpt lat="40.8844917" lon="14.0796233"><ele>41.666666666666664</ele><time>2026-03-24T13:52:24.118Z</time></trkpt><trkpt lat="40.8845467" lon="14.079695"><ele>41.5</ele><time>2026-03-24T13:52:25.118Z</time></trkpt><trkpt lat="40.8846033" lon="14.0797683"><ele>41.33333333333333</ele><time>2026-03-24T13:52:26.118Z</time></trkpt><trkpt lat="40.884665" lon="14.079835"><ele>41.166666666666664</ele><time>2026-03-24T13:52:27.119Z</time></trkpt><trkpt lat="40.8847317" lon="14.079895"><ele>41.0</ele><time>2026-03-24T13:52:28.118Z</time></trkpt><trkpt lat="40.8848" lon="14.0799517"><ele>41.666666666666664</ele><time>2026-03-24T13:52:29.118Z</time></trkpt><trkpt lat="40.8848733" lon="14.079995"><ele>42.33333333333333</ele><time>2026-03-24T13:52:30.118Z</time></trkpt><trkpt lat="40.8849483" lon="14.08004"><ele>43.0</ele><time>2026-03-24T13:52:31.118Z</time></trkpt><trkpt lat="40.8850217" lon="14.0800833"><ele>43.666666666666664</ele><time>2026-03-24T13:52:32.118Z</time></trkpt><trkpt lat="40.885095" lon="14.0801283"><ele>44.333333333333336</ele><time>2026-03-24T13:52:33.118Z</time></trkpt><trkpt lat="40.8851683" lon="14.080175"><ele>45.0</ele><time>2026-03-24T13:52:34.118Z</time></trkpt><trkpt lat="40.8852383" lon="14.080225"><ele>45.666666666666664</ele><time>2026-03-24T13:52:35.119Z</time></trkpt><trkpt lat="40.8853083" lon="14.080275"><ele>46.33333333333333</ele><time>2026-03-24T13:52:36.119Z</time></trkpt><trkpt lat="40.8853783" lon="14.080325"><ele>47.0</ele><time>2026-03-24T13:52:37.119Z</time></trkpt><trkpt lat="40.8854483" lon="14.08037"><ele>47.666666666666664</ele><time>2026-03-24T13:52:38.118Z</time></trkpt><trkpt lat="40.8855233" lon="14.08041"><ele>48.33333333333333</ele><time>2026-03-24T13:52:39.118Z</time></trkpt><trkpt lat="40.885605" lon="14.08044"><ele>49.0</ele><time>2026-03-24T13:52:40.118Z</time></trkpt><trkpt lat="40.8856883" lon="14.0804517"><ele>48.99999999999999</ele><time>2026-03-24T13:52:41.118Z</time></trkpt><trkpt lat="40.8857667" lon="14.080435"><ele>49.0</ele><time>2026-03-24T13:52:42.119Z</time></trkpt><trkpt lat="40.8858383" lon="14.0804067"><ele>49.0</ele><time>2026-03-24T13:52:43.118Z</time></trkpt><trkpt lat="40.8859117" lon="14.0803733"><ele>49.0</ele><time>2026-03-24T13:52:44.119Z</time></trkpt><trkpt lat="40.885985" lon="14.0803417"><ele>48.99999999999999</ele><time>2026-03-24T13:52:45.118Z</time></trkpt><trkpt lat="40.88606" lon="14.0803133"><ele>49.0</ele><time>2026-03-24T13:52:46.119Z</time></trkpt><trkpt lat="40.8861333" lon="14.0802917"><ele>49.99999999999999</ele><time>2026-03-24T13:52:47.118Z</time></trkpt><trkpt lat="40.8862083" lon="14.08028"><ele>51.0</ele><time>2026-03-24T13:52:48.118Z</time></trkpt><trkpt lat="40.8862817" lon="14.0802717"><ele>52.0</ele><time>2026-03-24T13:52:49.118Z</time></trkpt><trkpt lat="40.8863533" lon="14.0802667"><ele>53.0</ele><time>2026-03-24T13:52:50.119Z</time></trkpt><trkpt lat="40.8864217" lon="14.0802633"><ele>53.99999999999999</ele><time>2026-03-24T13:52:51.118Z</time></trkpt><trkpt lat="40.886485" lon="14.0802617"><ele>55.0</ele><time>2026-03-24T13:52:52.119Z</time></trkpt><trkpt lat="40.886605" lon="14.0802583"><ele>55.0</ele><time>2026-03-24T13:52:54.119Z</time></trkpt><trkpt lat="40.8867167" lon="14.0802517"><ele>55.0</ele><time>2026-03-24T13:52:56.119Z</time></trkpt><trkpt lat="40.886825" lon="14.0802567"><ele>55.0</ele><time>2026-03-24T13:52:58.119Z</time></trkpt><trkpt lat="40.8869383" lon="14.0802817"><ele>55.0</ele><time>2026-03-24T13:53:00.118Z</time></trkpt><trkpt lat="40.8870433" lon="14.080335"><ele>55.0</ele><time>2026-03-24T13:53:02.118Z</time></trkpt><trkpt lat="40.8871483" lon="14.08039"><ele>55.75</ele><time>2026-03-24T13:53:04.118Z</time></trkpt><trkpt lat="40.8872533" lon="14.080455"><ele>56.5</ele><time>2026-03-24T13:53:06.119Z</time></trkpt><trkpt lat="40.8873567" lon="14.0805167"><ele>57.25</ele><time>2026-03-24T13:53:08.118Z</time></trkpt><trkpt lat="40.8874583" lon="14.080585"><ele>58.0</ele><time>2026-03-24T13:53:10.118Z</time></trkpt><trkpt lat="40.887555" lon="14.08065"><ele>58.0</ele><time>2026-03-24T13:53:12.119Z</time></trkpt><trkpt lat="40.88765" lon="14.0807083"><ele>58.0</ele><time>2026-03-24T13:53:14.118Z</time></trkpt><trkpt lat="40.8877433" lon="14.0807617"><ele>58.0</ele><time>2026-03-24T13:53:16.118Z</time></trkpt><trkpt lat="40.8878333" lon="14.0808167"><ele>58.0</ele><time>2026-03-24T13:53:18.118Z</time></trkpt><trkpt lat="40.8879267" lon="14.0808683"><ele>58.0</ele><time>2026-03-24T13:53:20.118Z</time></trkpt><trkpt lat="40.888015" lon="14.080925"><ele>58.0</ele><time>2026-03-24T13:53:22.118Z</time></trkpt><trkpt lat="40.8881083" lon="14.0809733"><ele>58.0</ele><time>2026-03-24T13:53:24.118Z</time></trkpt><trkpt lat="40.888205" lon="14.08103"><ele>58.0</ele><time>2026-03-24T13:53:26.119Z</time></trkpt><trkpt lat="40.8883033" lon="14.08108"><ele>58.0</ele><time>2026-03-24T13:53:28.118Z</time></trkpt><trkpt lat="40.8884033" lon="14.0811367"><ele>58.0</ele><time>2026-03-24T13:53:30.118Z</time></trkpt><trkpt lat="40.8885017" lon="14.0811983"><ele>58.0</ele><time>2026-03-24T13:53:32.118Z</time></trkpt><trkpt lat="40.8886" lon="14.08126"><ele>58.0</ele><time>2026-03-24T13:53:34.118Z</time></trkpt><trkpt lat="40.8886967" lon="14.0813383"><ele>58.0</ele><time>2026-03-24T13:53:36.118Z</time></trkpt><trkpt lat="40.88878" lon="14.0814367"><ele>58.0</ele><time>2026-03-24T13:53:38.119Z</time></trkpt><trkpt lat="40.888835" lon="14.0815617"><ele>58.0</ele><time>2026-03-24T13:53:40.122Z</time></trkpt><trkpt lat="40.8888917" lon="14.0817033"><ele>58.0</ele><time>2026-03-24T13:53:42.118Z</time></trkpt><trkpt lat="40.888945" lon="14.081845"><ele>58.0</ele><time>2026-03-24T13:53:44.119Z</time></trkpt><trkpt lat="40.8889783" lon="14.0819183"><ele>58.0</ele><time>2026-03-24T13:53:45.118Z</time></trkpt><trkpt lat="40.889035" lon="14.08206"><ele>58.0</ele><time>2026-03-24T13:53:47.118Z</time></trkpt><trkpt lat="40.889065" lon="14.0821333"><ele>58.0</ele><time>2026-03-24T13:53:48.118Z</time></trkpt><trkpt lat="40.88912" lon="14.0822717"><ele>58.0</ele><time>2026-03-24T13:53:50.119Z</time></trkpt><trkpt lat="40.8891733" lon="14.0824117"><ele>58.0</ele><time>2026-03-24T13:53:52.118Z</time></trkpt><trkpt lat="40.889225" lon="14.0825517"><ele>58.0</ele><time>2026-03-24T13:53:54.119Z</time></trkpt><trkpt lat="40.889285" lon="14.0826983"><ele>58.0</ele><time>2026-03-24T13:53:56.118Z</time></trkpt><trkpt lat="40.8893183" lon="14.0827717"><ele>58.0</ele><time>2026-03-24T13:53:57.119Z</time></trkpt><trkpt lat="40.889355" lon="14.082845"><ele>58.25</ele><time>2026-03-24T13:53:58.118Z</time></trkpt><trkpt lat="40.889425" lon="14.0829817"><ele>58.5</ele><time>2026-03-24T13:54:00.12Z</time></trkpt><trkpt lat="40.8895117" lon="14.0831017"><ele>58.75</ele><time>2026-03-24T13:54:02.118Z</time></trkpt><trkpt lat="40.8896" lon="14.0832133"><ele>59.0</ele><time>2026-03-24T13:54:04.118Z</time></trkpt><trkpt lat="40.88967" lon="14.0833317"><ele>59.400000000000006</ele><time>2026-03-24T13:54:06.118Z</time></trkpt><trkpt lat="40.889745" lon="14.083425"><ele>59.800000000000004</ele><time>2026-03-24T13:54:08.121Z</time></trkpt><trkpt lat="40.889825" lon="14.083515"><ele>60.199999999999996</ele><time>2026-03-24T13:54:10.119Z</time></trkpt><trkpt lat="40.8899" lon="14.0836167"><ele>60.599999999999994</ele><time>2026-03-24T13:54:12.118Z</time></trkpt><trkpt lat="40.8899783" lon="14.08374"><ele>61.0</ele><time>2026-03-24T13:54:14.118Z</time></trkpt><trkpt lat="40.8900683" lon="14.083845"><ele>61.33333333333333</ele><time>2026-03-24T13:54:16.118Z</time></trkpt><trkpt lat="40.8901517" lon="14.08395"><ele>61.666666666666664</ele><time>2026-03-24T13:54:18.119Z</time></trkpt><trkpt lat="40.890215" lon="14.0840467"><ele>62.0</ele><time>2026-03-24T13:54:20.12Z</time></trkpt><trkpt lat="40.89026" lon="14.084115"><ele>62.33333333333333</ele><time>2026-03-24T13:54:22.118Z</time></trkpt><trkpt lat="40.89031" lon="14.0841833"><ele>62.666666666666664</ele><time>2026-03-24T13:54:24.118Z</time></trkpt><trkpt lat="40.8903517" lon="14.0842517"><ele>63.0</ele><time>2026-03-24T13:54:26.119Z</time></trkpt><trkpt lat="40.8903967" lon="14.0843267"><ele>63.2</ele><time>2026-03-24T13:54:28.118Z</time></trkpt><trkpt lat="40.8904533" lon="14.0844067"><ele>63.4</ele><time>2026-03-24T13:54:30.119Z</time></trkpt><trkpt lat="40.890515" lon="14.0844883"><ele>63.60000000000001</ele><time>2026-03-24T13:54:32.119Z</time></trkpt><trkpt lat="40.8905833" lon="14.0845833"><ele>63.800000000000004</ele><time>2026-03-24T13:54:34.118Z</time></trkpt><trkpt lat="40.8906567" lon="14.0846883"><ele>64.0</ele><time>2026-03-24T13:54:36.12Z</time></trkpt><trkpt lat="40.8907333" lon="14.0847983"><ele>64.0</ele><time>2026-03-24T13:54:38.119Z</time></trkpt><trkpt lat="40.8908133" lon="14.0849133"><ele>64.0</ele><time>2026-03-24T13:54:40.118Z</time></trkpt><trkpt lat="40.8908583" lon="14.0849717"><ele>64.0</ele><time>2026-03-24T13:54:41.119Z</time></trkpt><trkpt lat="40.8909483" lon="14.08509"><ele>64.0</ele><time>2026-03-24T13:54:43.119Z</time></trkpt><trkpt lat="40.8910333" lon="14.0852083"><ele>64.0</ele><time>2026-03-24T13:54:45.12Z</time></trkpt><trkpt lat="40.8910817" lon="14.0852667"><ele>64.42857142857143</ele><time>2026-03-24T13:54:46.118Z</time></trkpt><trkpt lat="40.89113" lon="14.0853233"><ele>64.85714285714285</ele><time>2026-03-24T13:54:47.124Z</time></trkpt><trkpt lat="40.891175" lon="14.0853817"><ele>65.28571428571428</ele><time>2026-03-24T13:54:48.118Z</time></trkpt><trkpt lat="40.8912517" lon="14.08551"><ele>65.71428571428571</ele><time>2026-03-24T13:54:50.118Z</time></trkpt><trkpt lat="40.891285" lon="14.0855817"><ele>66.14285714285714</ele><time>2026-03-24T13:54:51.118Z</time></trkpt><trkpt lat="40.89132" lon="14.085655"><ele>66.57142857142857</ele><time>2026-03-24T13:54:52.12Z</time></trkpt><trkpt lat="40.8913533" lon="14.08573"><ele>67.0</ele><time>2026-03-24T13:54:53.118Z</time></trkpt><trkpt lat="40.89139" lon="14.0858867"><ele>67.42857142857143</ele><time>2026-03-24T13:54:55.118Z</time></trkpt><trkpt lat="40.8913933" lon="14.0859733"><ele>67.85714285714286</ele><time>2026-03-24T13:54:56.119Z</time></trkpt><trkpt lat="40.8913867" lon="14.0860617"><ele>68.28571428571428</ele><time>2026-03-24T13:54:57.119Z</time></trkpt><trkpt lat="40.8913733" lon="14.0861483"><ele>68.71428571428572</ele><time>2026-03-24T13:54:58.118Z</time></trkpt><trkpt lat="40.89135" lon="14.086235"><ele>69.14285714285714</ele><time>2026-03-24T13:54:59.119Z</time></trkpt><trkpt lat="40.8913217" lon="14.08632"><ele>69.57142857142857</ele><time>2026-03-24T13:55:00.119Z</time></trkpt><trkpt lat="40.8912867" lon="14.0864033"><ele>70.0</ele><time>2026-03-24T13:55:01.118Z</time></trkpt><trkpt lat="40.8912567" lon="14.0864867"><ele>70.0</ele><time>2026-03-24T13:55:02.123Z</time></trkpt><trkpt lat="40.8912283" lon="14.0865667"><ele>70.0</ele><time>2026-03-24T13:55:03.118Z</time></trkpt><trkpt lat="40.8912017" lon="14.0866467"><ele>70.0</ele><time>2026-03-24T13:55:04.118Z</time></trkpt><trkpt lat="40.8911733" lon="14.0867267"><ele>70.0</ele><time>2026-03-24T13:55:05.119Z</time></trkpt><trkpt lat="40.8911483" lon="14.086805"><ele>70.0</ele><time>2026-03-24T13:55:06.12Z</time></trkpt><trkpt lat="40.89112" lon="14.0868817"><ele>70.0</ele><time>2026-03-24T13:55:07.118Z</time></trkpt><trkpt lat="40.891095" lon="14.0869583"><ele>70.0</ele><time>2026-03-24T13:55:08.118Z</time></trkpt><trkpt lat="40.891045" lon="14.0871083"><ele>70.2</ele><time>2026-03-24T13:55:10.118Z</time></trkpt><trkpt lat="40.8909983" lon="14.08726"><ele>70.4</ele><time>2026-03-24T13:55:12.119Z</time></trkpt><trkpt lat="40.8909733" lon="14.0873367"><ele>70.6</ele><time>2026-03-24T13:55:13.118Z</time></trkpt><trkpt lat="40.8909233" lon="14.087485"><ele>70.8</ele><time>2026-03-24T13:55:15.119Z</time></trkpt><trkpt lat="40.8908967" lon="14.0875617"><ele>71.0</ele><time>2026-03-24T13:55:16.118Z</time></trkpt><trkpt lat="40.8908483" lon="14.0877167"><ele>71.14285714285714</ele><time>2026-03-24T13:55:18.119Z</time></trkpt><trkpt lat="40.8908233" lon="14.087795"><ele>71.28571428571428</ele><time>2026-03-24T13:55:19.119Z</time></trkpt><trkpt lat="40.8907967" lon="14.0878767"><ele>71.42857142857143</ele><time>2026-03-24T13:55:20.119Z</time></trkpt><trkpt lat="40.89077" lon="14.08796"><ele>71.57142857142857</ele><time>2026-03-24T13:55:21.119Z</time></trkpt><trkpt lat="40.8907417" lon="14.088045"><ele>71.71428571428572</ele><time>2026-03-24T13:55:22.118Z</time></trkpt><trkpt lat="40.8907133" lon="14.08813"><ele>71.85714285714286</ele><time>2026-03-24T13:55:23.121Z</time></trkpt><trkpt lat="40.8906867" lon="14.0882167"><ele>72.0</ele><time>2026-03-24T13:55:24.118Z</time></trkpt><trkpt lat="40.8906633" lon="14.0883033"><ele>72.00000000000001</ele><time>2026-03-24T13:55:25.117Z</time></trkpt><trkpt lat="40.890645" lon="14.08839"><ele>72.0</ele><time>2026-03-24T13:55:26.119Z</time></trkpt><trkpt lat="40.890635" lon="14.0884767"><ele>72.0</ele><time>2026-03-24T13:55:27.118Z</time></trkpt><trkpt lat="40.8906283" lon="14.088565"><ele>72.0</ele><time>2026-03-24T13:55:28.118Z</time></trkpt><trkpt lat="40.8906283" lon="14.0886533"><ele>72.0</ele><time>2026-03-24T13:55:29.117Z</time></trkpt><trkpt lat="40.8906383" lon="14.0887433"><ele>72.00000000000001</ele><time>2026-03-24T13:55:30.119Z</time></trkpt><trkpt lat="40.8906517" lon="14.08883"><ele>72.0</ele><time>2026-03-24T13:55:31.119Z</time></trkpt><trkpt lat="40.8906683" lon="14.0889167"><ele>72.00000000000001</ele><time>2026-03-24T13:55:32.118Z</time></trkpt><trkpt lat="40.8906867" lon="14.0890017"><ele>72.0</ele><time>2026-03-24T13:55:33.119Z</time></trkpt><trkpt lat="40.8907067" lon="14.0890833"><ele>72.0</ele><time>2026-03-24T13:55:34.118Z</time></trkpt><trkpt lat="40.89073" lon="14.0891633"><ele>72.0</ele><time>2026-03-24T13:55:35.118Z</time></trkpt><trkpt lat="40.8907517" lon="14.0892467"><ele>72.0</ele><time>2026-03-24T13:55:36.118Z</time></trkpt><trkpt lat="40.8907733" lon="14.089325"><ele>72.00000000000001</ele><time>2026-03-24T13:55:37.119Z</time></trkpt><trkpt lat="40.890795" lon="14.0894033"><ele>72.0</ele><time>2026-03-24T13:55:38.118Z</time></trkpt><trkpt lat="40.890835" lon="14.08956"><ele>72.14285714285715</ele><time>2026-03-24T13:55:40.118Z</time></trkpt><trkpt lat="40.890855" lon="14.0896433"><ele>72.28571428571429</ele><time>2026-03-24T13:55:41.117Z</time></trkpt><trkpt lat="40.8908733" lon="14.089725"><ele>72.42857142857143</ele><time>2026-03-24T13:55:42.118Z</time></trkpt><trkpt lat="40.89092" lon="14.08988"><ele>72.57142857142858</ele><time>2026-03-24T13:55:44.12Z</time></trkpt><trkpt lat="40.89094" lon="14.08996"><ele>72.71428571428572</ele><time>2026-03-24T13:55:45.117Z</time></trkpt><trkpt lat="40.8909617" lon="14.09004"><ele>72.85714285714286</ele><time>2026-03-24T13:55:46.117Z</time></trkpt><trkpt lat="40.8909817" lon="14.09012"><ele>73.0</ele><time>2026-03-24T13:55:47.12Z</time></trkpt><trkpt lat="40.891005" lon="14.0902017"><ele>73.28571428571428</ele><time>2026-03-24T13:55:48.12Z</time></trkpt><trkpt lat="40.8910283" lon="14.0902867"><ele>73.57142857142857</ele><time>2026-03-24T13:55:49.118Z</time></trkpt><trkpt lat="40.8910483" lon="14.0903767"><ele>73.85714285714286</ele><time>2026-03-24T13:55:50.118Z</time></trkpt><trkpt lat="40.8910717" lon="14.0904633"><ele>74.14285714285714</ele><time>2026-03-24T13:55:51.118Z</time></trkpt><trkpt lat="40.8910917" lon="14.0905483"><ele>74.42857142857143</ele><time>2026-03-24T13:55:52.119Z</time></trkpt><trkpt lat="40.8911117" lon="14.0906367"><ele>74.71428571428571</ele><time>2026-03-24T13:55:53.118Z</time></trkpt><trkpt lat="40.8911267" lon="14.0907233"><ele>75.0</ele><time>2026-03-24T13:55:54.119Z</time></trkpt><trkpt lat="40.8911417" lon="14.0908083"><ele>75.28571428571428</ele><time>2026-03-24T13:55:55.117Z</time></trkpt><trkpt lat="40.89115" lon="14.0908967"><ele>75.57142857142857</ele><time>2026-03-24T13:55:56.117Z</time></trkpt><trkpt lat="40.89115" lon="14.090985"><ele>75.85714285714286</ele><time>2026-03-24T13:55:57.117Z</time></trkpt><trkpt lat="40.8911533" lon="14.0910733"><ele>76.14285714285714</ele><time>2026-03-24T13:55:58.117Z</time></trkpt><trkpt lat="40.89116" lon="14.091165"><ele>76.42857142857143</ele><time>2026-03-24T13:55:59.118Z</time></trkpt><trkpt lat="40.8911633" lon="14.091255"><ele>76.71428571428571</ele><time>2026-03-24T13:56:00.118Z</time></trkpt><trkpt lat="40.8911767" lon="14.0913467"><ele>77.0</ele><time>2026-03-24T13:56:01.118Z</time></trkpt><trkpt lat="40.8911883" lon="14.091435"><ele>77.0</ele><time>2026-03-24T13:56:02.118Z</time></trkpt><trkpt lat="40.8912017" lon="14.09152"><ele>77.0</ele><time>2026-03-24T13:56:03.118Z</time></trkpt><trkpt lat="40.8912117" lon="14.0916083"><ele>77.0</ele><time>2026-03-24T13:56:04.117Z</time></trkpt><trkpt lat="40.8912217" lon="14.0916967"><ele>77.0</ele><time>2026-03-24T13:56:05.118Z</time></trkpt><trkpt lat="40.89123" lon="14.0917867"><ele>77.0</ele><time>2026-03-24T13:56:06.118Z</time></trkpt><trkpt lat="40.8912433" lon="14.0918733"><ele>77.0</ele><time>2026-03-24T13:56:07.118Z</time></trkpt><trkpt lat="40.8912533" lon="14.0919617"><ele>77.0</ele><time>2026-03-24T13:56:08.117Z</time></trkpt><trkpt lat="40.8912633" lon="14.0920533"><ele>77.14285714285714</ele><time>2026-03-24T13:56:09.121Z</time></trkpt><trkpt lat="40.891275" lon="14.0921467"><ele>77.28571428571428</ele><time>2026-03-24T13:56:10.118Z</time></trkpt><trkpt lat="40.8912883" lon="14.09224"><ele>77.42857142857143</ele><time>2026-03-24T13:56:11.118Z</time></trkpt><trkpt lat="40.8913033" lon="14.0923267"><ele>77.57142857142857</ele><time>2026-03-24T13:56:12.117Z</time></trkpt><trkpt lat="40.89132" lon="14.0924117"><ele>77.71428571428571</ele><time>2026-03-24T13:56:13.118Z</time></trkpt><trkpt lat="40.8913333" lon="14.0924983"><ele>77.85714285714286</ele><time>2026-03-24T13:56:14.118Z</time></trkpt><trkpt lat="40.89135" lon="14.0925833"><ele>78.0</ele><time>2026-03-24T13:56:15.117Z</time></trkpt><trkpt lat="40.8913667" lon="14.0926683"><ele>78.14285714285715</ele><time>2026-03-24T13:56:16.117Z</time></trkpt><trkpt lat="40.8913833" lon="14.09275"><ele>78.28571428571428</ele><time>2026-03-24T13:56:17.117Z</time></trkpt><trkpt lat="40.8914017" lon="14.09283"><ele>78.42857142857143</ele><time>2026-03-24T13:56:18.118Z</time></trkpt><trkpt lat="40.8914233" lon="14.0929133"><ele>78.57142857142858</ele><time>2026-03-24T13:56:19.119Z</time></trkpt><trkpt lat="40.891445" lon="14.0929983"><ele>78.71428571428572</ele><time>2026-03-24T13:56:20.118Z</time></trkpt><trkpt lat="40.8914717" lon="14.0930833"><ele>78.85714285714286</ele><time>2026-03-24T13:56:21.117Z</time></trkpt><trkpt lat="40.8915017" lon="14.0931683"><ele>79.0</ele><time>2026-03-24T13:56:22.118Z</time></trkpt><trkpt lat="40.8915333" lon="14.0932467"><ele>79.00000000000001</ele><time>2026-03-24T13:56:23.117Z</time></trkpt><trkpt lat="40.8915667" lon="14.093325"><ele>79.0</ele><time>2026-03-24T13:56:24.118Z</time></trkpt><trkpt lat="40.8916" lon="14.09341"><ele>79.0</ele><time>2026-03-24T13:56:25.117Z</time></trkpt><trkpt lat="40.8916333" lon="14.0934917"><ele>79.0</ele><time>2026-03-24T13:56:26.118Z</time></trkpt><trkpt lat="40.8916683" lon="14.0935717"><ele>79.0</ele><time>2026-03-24T13:56:27.118Z</time></trkpt><trkpt lat="40.891705" lon="14.0936483"><ele>79.00000000000001</ele><time>2026-03-24T13:56:28.118Z</time></trkpt><trkpt lat="40.8917417" lon="14.093725"><ele>79.0</ele><time>2026-03-24T13:56:29.118Z</time></trkpt><trkpt lat="40.8917783" lon="14.0938033"><ele>79.28571428571429</ele><time>2026-03-24T13:56:30.118Z</time></trkpt><trkpt lat="40.8918183" lon="14.0938833"><ele>79.57142857142857</ele><time>2026-03-24T13:56:31.12Z</time></trkpt><trkpt lat="40.8918583" lon="14.0939583"><ele>79.85714285714286</ele><time>2026-03-24T13:56:32.118Z</time></trkpt><trkpt lat="40.8918917" lon="14.094035"><ele>80.14285714285714</ele><time>2026-03-24T13:56:33.117Z</time></trkpt><trkpt lat="40.8919183" lon="14.0941133"><ele>80.42857142857143</ele><time>2026-03-24T13:56:34.12Z</time></trkpt><trkpt lat="40.8919483" lon="14.0941933"><ele>80.71428571428572</ele><time>2026-03-24T13:56:35.117Z</time></trkpt><trkpt lat="40.8919767" lon="14.09427"><ele>81.0</ele><time>2026-03-24T13:56:36.118Z</time></trkpt><trkpt lat="40.8920083" lon="14.0943483"><ele>81.14285714285714</ele><time>2026-03-24T13:56:37.118Z</time></trkpt><trkpt lat="40.8920433" lon="14.0944267"><ele>81.28571428571428</ele><time>2026-03-24T13:56:38.119Z</time></trkpt><trkpt lat="40.8920767" lon="14.0945067"><ele>81.42857142857142</ele><time>2026-03-24T13:56:39.118Z</time></trkpt><trkpt lat="40.8921117" lon="14.0945883"><ele>81.57142857142857</ele><time>2026-03-24T13:56:40.119Z</time></trkpt><trkpt lat="40.8921483" lon="14.0946683"><ele>81.71428571428571</ele><time>2026-03-24T13:56:41.118Z</time></trkpt><trkpt lat="40.892185" lon="14.0947483"><ele>81.85714285714285</ele><time>2026-03-24T13:56:42.121Z</time></trkpt><trkpt lat="40.89222" lon="14.0948317"><ele>82.0</ele><time>2026-03-24T13:56:43.119Z</time></trkpt><trkpt lat="40.89226" lon="14.0949133"><ele>82.28571428571428</ele><time>2026-03-24T13:56:44.117Z</time></trkpt><trkpt lat="40.8922967" lon="14.094995"><ele>82.57142857142857</ele><time>2026-03-24T13:56:45.118Z</time></trkpt><trkpt lat="40.8923333" lon="14.095075"><ele>82.85714285714286</ele><time>2026-03-24T13:56:46.119Z</time></trkpt><trkpt lat="40.89237" lon="14.0951533"><ele>83.14285714285714</ele><time>2026-03-24T13:56:47.118Z</time></trkpt><trkpt lat="40.8924067" lon="14.0952333"><ele>83.42857142857143</ele><time>2026-03-24T13:56:48.119Z</time></trkpt><trkpt lat="40.8924433" lon="14.09531"><ele>83.71428571428571</ele><time>2026-03-24T13:56:49.118Z</time></trkpt><trkpt lat="40.8924767" lon="14.095385"><ele>84.0</ele><time>2026-03-24T13:56:50.118Z</time></trkpt><trkpt lat="40.8925117" lon="14.09546"><ele>84.0</ele><time>2026-03-24T13:56:51.118Z</time></trkpt><trkpt lat="40.8925467" lon="14.09554"><ele>84.0</ele><time>2026-03-24T13:56:52.118Z</time></trkpt><trkpt lat="40.8925783" lon="14.0956183"><ele>84.0</ele><time>2026-03-24T13:56:53.118Z</time></trkpt><trkpt lat="40.8926117" lon="14.0956933"><ele>84.0</ele><time>2026-03-24T13:56:54.119Z</time></trkpt><trkpt lat="40.8926467" lon="14.0957683"><ele>84.0</ele><time>2026-03-24T13:56:55.118Z</time></trkpt><trkpt lat="40.8926767" lon="14.0958417"><ele>84.0</ele><time>2026-03-24T13:56:56.119Z</time></trkpt><trkpt lat="40.892705" lon="14.09592"><ele>84.0</ele><time>2026-03-24T13:56:57.118Z</time></trkpt><trkpt lat="40.8927317" lon="14.0959967"><ele>84.16666666666667</ele><time>2026-03-24T13:56:58.118Z</time></trkpt><trkpt lat="40.892775" lon="14.0961483"><ele>84.33333333333333</ele><time>2026-03-24T13:57:00.118Z</time></trkpt><trkpt lat="40.8928117" lon="14.096305"><ele>84.5</ele><time>2026-03-24T13:57:02.118Z</time></trkpt><trkpt lat="40.89283" lon="14.096385"><ele>84.66666666666666</ele><time>2026-03-24T13:57:03.118Z</time></trkpt><trkpt lat="40.8928517" lon="14.0964633"><ele>84.83333333333333</ele><time>2026-03-24T13:57:04.117Z</time></trkpt><trkpt lat="40.8928767" lon="14.096545"><ele>85.0</ele><time>2026-03-24T13:57:05.12Z</time></trkpt><trkpt lat="40.8928983" lon="14.09663"><ele>85.28571428571429</ele><time>2026-03-24T13:57:06.118Z</time></trkpt><trkpt lat="40.8929183" lon="14.0967167"><ele>85.57142857142857</ele><time>2026-03-24T13:57:07.118Z</time></trkpt><trkpt lat="40.8929417" lon="14.0968033"><ele>85.85714285714286</ele><time>2026-03-24T13:57:08.118Z</time></trkpt><trkpt lat="40.892965" lon="14.0968917"><ele>86.14285714285714</ele><time>2026-03-24T13:57:09.117Z</time></trkpt><trkpt lat="40.8929933" lon="14.09698"><ele>86.42857142857143</ele><time>2026-03-24T13:57:10.118Z</time></trkpt><trkpt lat="40.8930183" lon="14.0970683"><ele>86.71428571428571</ele><time>2026-03-24T13:57:11.118Z</time></trkpt><trkpt lat="40.8930417" lon="14.0971583"><ele>87.0</ele><time>2026-03-24T13:57:12.118Z</time></trkpt><trkpt lat="40.893065" lon="14.0972483"><ele>87.0</ele><time>2026-03-24T13:57:13.118Z</time></trkpt><trkpt lat="40.8930883" lon="14.0973367"><ele>87.0</ele><time>2026-03-24T13:57:14.118Z</time></trkpt><trkpt lat="40.8931117" lon="14.097425"><ele>87.0</ele><time>2026-03-24T13:57:15.117Z</time></trkpt><trkpt lat="40.8931333" lon="14.0975117"><ele>87.0</ele><time>2026-03-24T13:57:16.118Z</time></trkpt><trkpt lat="40.893155" lon="14.0976"><ele>87.0</ele><time>2026-03-24T13:57:17.118Z</time></trkpt><trkpt lat="40.8931767" lon="14.097685"><ele>87.0</ele><time>2026-03-24T13:57:18.118Z</time></trkpt><trkpt lat="40.8931983" lon="14.09777"><ele>87.0</ele><time>2026-03-24T13:57:19.119Z</time></trkpt><trkpt lat="40.89322" lon="14.0978533"><ele>87.0</ele><time>2026-03-24T13:57:20.119Z</time></trkpt><trkpt lat="40.8932417" lon="14.0979333"><ele>87.0</ele><time>2026-03-24T13:57:21.119Z</time></trkpt><trkpt lat="40.8932633" lon="14.0980167"><ele>87.0</ele><time>2026-03-24T13:57:22.118Z</time></trkpt><trkpt lat="40.8932867" lon="14.0981"><ele>87.0</ele><time>2026-03-24T13:57:23.118Z</time></trkpt><trkpt lat="40.8933083" lon="14.098185"><ele>87.0</ele><time>2026-03-24T13:57:24.118Z</time></trkpt><trkpt lat="40.8933283" lon="14.0982683"><ele>87.0</ele><time>2026-03-24T13:57:25.118Z</time></trkpt><trkpt lat="40.8933533" lon="14.0983517"><ele>87.0</ele><time>2026-03-24T13:57:26.118Z</time></trkpt><trkpt lat="40.8933767" lon="14.0984333"><ele>87.0</ele><time>2026-03-24T13:57:27.118Z</time></trkpt><trkpt lat="40.8934017" lon="14.098515"><ele>87.0</ele><time>2026-03-24T13:57:28.117Z</time></trkpt><trkpt lat="40.89342" lon="14.0985983"><ele>87.0</ele><time>2026-03-24T13:57:29.119Z</time></trkpt><trkpt lat="40.893435" lon="14.0986817"><ele>87.0</ele><time>2026-03-24T13:57:30.118Z</time></trkpt><trkpt lat="40.8934667" lon="14.098835"><ele>87.0</ele><time>2026-03-24T13:57:32.119Z</time></trkpt><trkpt lat="40.893505" lon="14.0989733"><ele>87.0</ele><time>2026-03-24T13:57:34.118Z</time></trkpt><trkpt lat="40.8935367" lon="14.09911"><ele>87.16666666666667</ele><time>2026-03-24T13:57:36.118Z</time></trkpt><trkpt lat="40.8935733" lon="14.0992517"><ele>87.33333333333333</ele><time>2026-03-24T13:57:38.118Z</time></trkpt><trkpt lat="40.8936133" lon="14.0994033"><ele>87.5</ele><time>2026-03-24T13:57:40.118Z</time></trkpt><trkpt lat="40.893635" lon="14.099485"><ele>87.66666666666666</ele><time>2026-03-24T13:57:41.119Z</time></trkpt><trkpt lat="40.893655" lon="14.0995667"><ele>87.83333333333333</ele><time>2026-03-24T13:57:42.119Z</time></trkpt><trkpt lat="40.8936733" lon="14.0996467"><ele>88.0</ele><time>2026-03-24T13:57:43.118Z</time></trkpt><trkpt lat="40.8937117" lon="14.0998083"><ele>88.0</ele><time>2026-03-24T13:57:45.118Z</time></trkpt><trkpt lat="40.8937333" lon="14.0998933"><ele>88.0</ele><time>2026-03-24T13:57:46.118Z</time></trkpt><trkpt lat="40.8937517" lon="14.0999783"><ele>88.0</ele><time>2026-03-24T13:57:47.118Z</time></trkpt><trkpt lat="40.8937733" lon="14.1000667"><ele>88.0</ele><time>2026-03-24T13:57:48.118Z</time></trkpt><trkpt lat="40.8937933" lon="14.1001567"><ele>88.0</ele><time>2026-03-24T13:57:49.118Z</time></trkpt><trkpt lat="40.893815" lon="14.1002467"><ele>88.0</ele><time>2026-03-24T13:57:50.118Z</time></trkpt><trkpt lat="40.89384" lon="14.1003333"><ele>88.0</ele><time>2026-03-24T13:57:51.118Z</time></trkpt><trkpt lat="40.8938683" lon="14.10042"><ele>88.0</ele><time>2026-03-24T13:57:52.117Z</time></trkpt><trkpt lat="40.8938933" lon="14.1005"><ele>88.0</ele><time>2026-03-24T13:57:53.118Z</time></trkpt><trkpt lat="40.8939133" lon="14.100585"><ele>88.0</ele><time>2026-03-24T13:57:54.118Z</time></trkpt><trkpt lat="40.8939317" lon="14.1006733"><ele>88.0</ele><time>2026-03-24T13:57:55.118Z</time></trkpt><trkpt lat="40.8939483" lon="14.10076"><ele>88.0</ele><time>2026-03-24T13:57:56.118Z</time></trkpt><trkpt lat="40.8939667" lon="14.1008483"><ele>88.0</ele><time>2026-03-24T13:57:57.122Z</time></trkpt><trkpt lat="40.8939883" lon="14.1009317"><ele>88.0</ele><time>2026-03-24T13:57:58.118Z</time></trkpt><trkpt lat="40.8940167" lon="14.1010167"><ele>88.16666666666666</ele><time>2026-03-24T13:57:59.118Z</time></trkpt><trkpt lat="40.8940417" lon="14.1011067"><ele>88.33333333333333</ele><time>2026-03-24T13:58:00.118Z</time></trkpt><trkpt lat="40.894065" lon="14.1012"><ele>88.5</ele><time>2026-03-24T13:58:01.117Z</time></trkpt><trkpt lat="40.89409" lon="14.1012967"><ele>88.66666666666667</ele><time>2026-03-24T13:58:02.118Z</time></trkpt><trkpt lat="40.8941117" lon="14.1013933"><ele>88.83333333333334</ele><time>2026-03-24T13:58:03.118Z</time></trkpt><trkpt lat="40.8941383" lon="14.1014867"><ele>89.0</ele><time>2026-03-24T13:58:04.119Z</time></trkpt><trkpt lat="40.894165" lon="14.1015783"><ele>89.0</ele><time>2026-03-24T13:58:05.118Z</time></trkpt><trkpt lat="40.894185" lon="14.1016733"><ele>89.0</ele><time>2026-03-24T13:58:06.118Z</time></trkpt><trkpt lat="40.8942017" lon="14.1017683"><ele>89.0</ele><time>2026-03-24T13:58:07.118Z</time></trkpt><trkpt lat="40.8942233" lon="14.101865"><ele>89.0</ele><time>2026-03-24T13:58:08.119Z</time></trkpt><trkpt lat="40.8942433" lon="14.1019583"><ele>89.0</ele><time>2026-03-24T13:58:09.118Z</time></trkpt><trkpt lat="40.894265" lon="14.102055"><ele>89.0</ele><time>2026-03-24T13:58:10.118Z</time></trkpt><trkpt lat="40.8942883" lon="14.1021517"><ele>89.0</ele><time>2026-03-24T13:58:11.118Z</time></trkpt><trkpt lat="40.8943117" lon="14.1022517"><ele>89.0</ele><time>2026-03-24T13:58:12.12Z</time></trkpt><trkpt lat="40.894335" lon="14.1023483"><ele>89.0</ele><time>2026-03-24T13:58:13.118Z</time></trkpt><trkpt lat="40.8943567" lon="14.102445"><ele>89.0</ele><time>2026-03-24T13:58:14.122Z</time></trkpt><trkpt lat="40.89438" lon="14.1025433"><ele>89.0</ele><time>2026-03-24T13:58:15.118Z</time></trkpt><trkpt lat="40.894405" lon="14.1026433"><ele>89.0</ele><time>2026-03-24T13:58:16.118Z</time></trkpt><trkpt lat="40.89443" lon="14.1027417"><ele>88.99999999999999</ele><time>2026-03-24T13:58:17.117Z</time></trkpt><trkpt lat="40.894455" lon="14.1028333"><ele>89.0</ele><time>2026-03-24T13:58:18.118Z</time></trkpt><trkpt lat="40.89448" lon="14.1029233"><ele>89.0</ele><time>2026-03-24T13:58:19.118Z</time></trkpt><trkpt lat="40.894505" lon="14.103015"><ele>89.0</ele><time>2026-03-24T13:58:20.117Z</time></trkpt><trkpt lat="40.8945283" lon="14.103105"><ele>89.0</ele><time>2026-03-24T13:58:21.119Z</time></trkpt><trkpt lat="40.8945533" lon="14.1031967"><ele>88.99999999999999</ele><time>2026-03-24T13:58:22.118Z</time></trkpt><trkpt lat="40.89458" lon="14.1032883"><ele>89.0</ele><time>2026-03-24T13:58:23.122Z</time></trkpt><trkpt lat="40.8946067" lon="14.103375"><ele>89.42857142857142</ele><time>2026-03-24T13:58:24.118Z</time></trkpt><trkpt lat="40.894635" lon="14.1034617"><ele>89.85714285714286</ele><time>2026-03-24T13:58:25.117Z</time></trkpt><trkpt lat="40.8946633" lon="14.1035433"><ele>90.28571428571428</ele><time>2026-03-24T13:58:26.119Z</time></trkpt><trkpt lat="40.8946983" lon="14.1036217"><ele>90.71428571428571</ele><time>2026-03-24T13:58:27.118Z</time></trkpt><trkpt lat="40.8947367" lon="14.1036983"><ele>91.14285714285714</ele><time>2026-03-24T13:58:28.117Z</time></trkpt><trkpt lat="40.89478" lon="14.1037683"><ele>91.57142857142857</ele><time>2026-03-24T13:58:29.119Z</time></trkpt><trkpt lat="40.8948283" lon="14.10383"><ele>92.0</ele><time>2026-03-24T13:58:30.118Z</time></trkpt><trkpt lat="40.8948783" lon="14.1038883"><ele>92.0</ele><time>2026-03-24T13:58:31.118Z</time></trkpt><trkpt lat="40.89493" lon="14.103945"><ele>92.0</ele><time>2026-03-24T13:58:32.118Z</time></trkpt><trkpt lat="40.8949833" lon="14.1039917"><ele>92.0</ele><time>2026-03-24T13:58:33.117Z</time></trkpt><trkpt lat="40.89504" lon="14.1040367"><ele>92.0</ele><time>2026-03-24T13:58:34.118Z</time></trkpt><trkpt lat="40.8950967" lon="14.10408"><ele>92.0</ele><time>2026-03-24T13:58:35.119Z</time></trkpt><trkpt lat="40.895155" lon="14.1041183"><ele>92.0</ele><time>2026-03-24T13:58:36.118Z</time></trkpt><trkpt lat="40.895215" lon="14.1041583"><ele>92.0</ele><time>2026-03-24T13:58:37.118Z</time></trkpt><trkpt lat="40.8952733" lon="14.1042033"><ele>92.14285714285715</ele><time>2026-03-24T13:58:38.118Z</time></trkpt><trkpt lat="40.895335" lon="14.10425"><ele>92.28571428571428</ele><time>2026-03-24T13:58:39.119Z</time></trkpt><trkpt lat="40.8953933" lon="14.1043"><ele>92.42857142857143</ele><time>2026-03-24T13:58:40.118Z</time></trkpt><trkpt lat="40.8954567" lon="14.1043517"><ele>92.57142857142858</ele><time>2026-03-24T13:58:41.118Z</time></trkpt><trkpt lat="40.8955233" lon="14.1044033"><ele>92.71428571428572</ele><time>2026-03-24T13:58:42.118Z</time></trkpt><trkpt lat="40.8955917" lon="14.1044533"><ele>92.85714285714286</ele><time>2026-03-24T13:58:43.118Z</time></trkpt><trkpt lat="40.89566" lon="14.1045017"><ele>93.0</ele><time>2026-03-24T13:58:44.118Z</time></trkpt><trkpt lat="40.8957267" lon="14.1045483"><ele>93.00000000000001</ele><time>2026-03-24T13:58:45.118Z</time></trkpt><trkpt lat="40.8957917" lon="14.1045917"><ele>93.0</ele><time>2026-03-24T13:58:46.117Z</time></trkpt><trkpt lat="40.89586" lon="14.104635"><ele>93.0</ele><time>2026-03-24T13:58:47.117Z</time></trkpt><trkpt lat="40.895925" lon="14.10468"><ele>93.0</ele><time>2026-03-24T13:58:48.121Z</time></trkpt><trkpt lat="40.8959917" lon="14.1047283"><ele>93.0</ele><time>2026-03-24T13:58:49.118Z</time></trkpt><trkpt lat="40.8960533" lon="14.1047783"><ele>93.00000000000001</ele><time>2026-03-24T13:58:50.119Z</time></trkpt><trkpt lat="40.8961117" lon="14.104825"><ele>93.0</ele><time>2026-03-24T13:58:51.119Z</time></trkpt><trkpt lat="40.8961717" lon="14.10487"><ele>93.14285714285715</ele><time>2026-03-24T13:58:52.119Z</time></trkpt><trkpt lat="40.89623" lon="14.1049117"><ele>93.28571428571429</ele><time>2026-03-24T13:58:53.119Z</time></trkpt><trkpt lat="40.8962883" lon="14.1049517"><ele>93.42857142857143</ele><time>2026-03-24T13:58:54.118Z</time></trkpt><trkpt lat="40.8963483" lon="14.1049917"><ele>93.57142857142858</ele><time>2026-03-24T13:58:55.118Z</time></trkpt><trkpt lat="40.8964067" lon="14.1050333"><ele>93.71428571428571</ele><time>2026-03-24T13:58:56.119Z</time></trkpt><trkpt lat="40.8964617" lon="14.105075"><ele>93.85714285714286</ele><time>2026-03-24T13:58:57.119Z</time></trkpt><trkpt lat="40.8965183" lon="14.1051133"><ele>94.0</ele><time>2026-03-24T13:58:58.118Z</time></trkpt><trkpt lat="40.896575" lon="14.105155"><ele>94.14285714285714</ele><time>2026-03-24T13:58:59.12Z</time></trkpt><trkpt lat="40.8966317" lon="14.1052017"><ele>94.28571428571428</ele><time>2026-03-24T13:59:00.118Z</time></trkpt><trkpt lat="40.8966883" lon="14.1052483"><ele>94.42857142857143</ele><time>2026-03-24T13:59:01.119Z</time></trkpt><trkpt lat="40.896745" lon="14.1052967"><ele>94.57142857142857</ele><time>2026-03-24T13:59:02.123Z</time></trkpt><trkpt lat="40.8968033" lon="14.105345"><ele>94.71428571428572</ele><time>2026-03-24T13:59:03.12Z</time></trkpt><trkpt lat="40.89686" lon="14.1053883"><ele>94.85714285714286</ele><time>2026-03-24T13:59:04.117Z</time></trkpt><trkpt lat="40.8969183" lon="14.1054317"><ele>95.0</ele><time>2026-03-24T13:59:05.118Z</time></trkpt><trkpt lat="40.896975" lon="14.1054817"><ele>95.14285714285714</ele><time>2026-03-24T13:59:06.118Z</time></trkpt><trkpt lat="40.8970317" lon="14.105535"><ele>95.28571428571429</ele><time>2026-03-24T13:59:07.118Z</time></trkpt><trkpt lat="40.8970933" lon="14.10559"><ele>95.42857142857142</ele><time>2026-03-24T13:59:08.118Z</time></trkpt><trkpt lat="40.8971533" lon="14.10565"><ele>95.57142857142857</ele><time>2026-03-24T13:59:09.118Z</time></trkpt><trkpt lat="40.8972133" lon="14.1057083"><ele>95.71428571428571</ele><time>2026-03-24T13:59:10.117Z</time></trkpt><trkpt lat="40.8972733" lon="14.1057667"><ele>95.85714285714285</ele><time>2026-03-24T13:59:11.118Z</time></trkpt><trkpt lat="40.8973317" lon="14.1058283"><ele>96.0</ele><time>2026-03-24T13:59:12.119Z</time></trkpt><trkpt lat="40.89739" lon="14.1058933"><ele>95.99999999999999</ele><time>2026-03-24T13:59:13.119Z</time></trkpt><trkpt lat="40.8974433" lon="14.10596"><ele>96.0</ele><time>2026-03-24T13:59:14.118Z</time></trkpt><trkpt lat="40.8974933" lon="14.10603"><ele>96.0</ele><time>2026-03-24T13:59:15.118Z</time></trkpt><trkpt lat="40.897545" lon="14.1061"><ele>96.0</ele><time>2026-03-24T13:59:16.117Z</time></trkpt><trkpt lat="40.8975983" lon="14.1061667"><ele>96.0</ele><time>2026-03-24T13:59:17.118Z</time></trkpt><trkpt lat="40.8976517" lon="14.1062333"><ele>95.99999999999999</ele><time>2026-03-24T13:59:18.119Z</time></trkpt><trkpt lat="40.897705" lon="14.1063"><ele>96.0</ele><time>2026-03-24T13:59:19.118Z</time></trkpt><trkpt lat="40.89776" lon="14.1063683"><ele>95.99999999999999</ele><time>2026-03-24T13:59:20.118Z</time></trkpt><trkpt lat="40.8978117" lon="14.1064317"><ele>96.0</ele><time>2026-03-24T13:59:21.118Z</time></trkpt><trkpt lat="40.89786" lon="14.1064967"><ele>96.0</ele><time>2026-03-24T13:59:22.118Z</time></trkpt><trkpt lat="40.8979067" lon="14.106565"><ele>96.0</ele><time>2026-03-24T13:59:23.118Z</time></trkpt><trkpt lat="40.8979533" lon="14.106635"><ele>96.0</ele><time>2026-03-24T13:59:24.118Z</time></trkpt><trkpt lat="40.898" lon="14.106705"><ele>95.99999999999999</ele><time>2026-03-24T13:59:25.119Z</time></trkpt><trkpt lat="40.8980467" lon="14.1067733"><ele>96.0</ele><time>2026-03-24T13:59:26.12Z</time></trkpt><trkpt lat="40.8980933" lon="14.1068383"><ele>96.14285714285714</ele><time>2026-03-24T13:59:27.118Z</time></trkpt><trkpt lat="40.8981367" lon="14.1069067"><ele>96.28571428571428</ele><time>2026-03-24T13:59:28.118Z</time></trkpt><trkpt lat="40.8981817" lon="14.1069817"><ele>96.42857142857142</ele><time>2026-03-24T13:59:29.118Z</time></trkpt><trkpt lat="40.8982233" lon="14.107065"><ele>96.57142857142857</ele><time>2026-03-24T13:59:30.12Z</time></trkpt><trkpt lat="40.8982667" lon="14.1071483"><ele>96.71428571428572</ele><time>2026-03-24T13:59:31.118Z</time></trkpt><trkpt lat="40.89831" lon="14.1072283"><ele>96.85714285714285</ele><time>2026-03-24T13:59:32.119Z</time></trkpt><trkpt lat="40.8983533" lon="14.1073033"><ele>97.0</ele><time>2026-03-24T13:59:33.117Z</time></trkpt><trkpt lat="40.8983983" lon="14.10738"><ele>97.42857142857143</ele><time>2026-03-24T13:59:34.117Z</time></trkpt><trkpt lat="40.89844" lon="14.1074567"><ele>97.85714285714286</ele><time>2026-03-24T13:59:35.118Z</time></trkpt><trkpt lat="40.8984817" lon="14.1075333"><ele>98.28571428571429</ele><time>2026-03-24T13:59:36.118Z</time></trkpt><trkpt lat="40.8985217" lon="14.1076083"><ele>98.71428571428572</ele><time>2026-03-24T13:59:37.118Z</time></trkpt><trkpt lat="40.898565" lon="14.1076833"><ele>99.14285714285714</ele><time>2026-03-24T13:59:38.118Z</time></trkpt><trkpt lat="40.8986117" lon="14.1077583"><ele>99.57142857142858</ele><time>2026-03-24T13:59:39.119Z</time></trkpt><trkpt lat="40.898655" lon="14.1078367"><ele>100.0</ele><time>2026-03-24T13:59:40.119Z</time></trkpt><trkpt lat="40.8987" lon="14.1079167"><ele>100.00000000000001</ele><time>2026-03-24T13:59:41.118Z</time></trkpt><trkpt lat="40.89875" lon="14.1079967"><ele>100.0</ele><time>2026-03-24T13:59:42.118Z</time></trkpt><trkpt lat="40.8987983" lon="14.1080817"><ele>100.0</ele><time>2026-03-24T13:59:43.117Z</time></trkpt><trkpt lat="40.898845" lon="14.108165"><ele>100.0</ele><time>2026-03-24T13:59:44.12Z</time></trkpt><trkpt lat="40.8988933" lon="14.1082467"><ele>100.00000000000001</ele><time>2026-03-24T13:59:45.118Z</time></trkpt><trkpt lat="40.898945" lon="14.1083217"><ele>100.0</ele><time>2026-03-24T13:59:46.117Z</time></trkpt><trkpt lat="40.8990017" lon="14.10839"><ele>100.00000000000001</ele><time>2026-03-24T13:59:47.118Z</time></trkpt><trkpt lat="40.8990617" lon="14.1084533"><ele>100.0</ele><time>2026-03-24T13:59:48.118Z</time></trkpt><trkpt lat="40.8991233" lon="14.1085183"><ele>100.0</ele><time>2026-03-24T13:59:49.118Z</time></trkpt><trkpt lat="40.8991867" lon="14.108585"><ele>100.0</ele><time>2026-03-24T13:59:50.118Z</time></trkpt><trkpt lat="40.8992583" lon="14.1086517"><ele>100.00000000000001</ele><time>2026-03-24T13:59:51.118Z</time></trkpt><trkpt lat="40.8993217" lon="14.1087133"><ele>100.0</ele><time>2026-03-24T13:59:52.118Z</time></trkpt><trkpt lat="40.899385" lon="14.1087783"><ele>100.16666666666667</ele><time>2026-03-24T13:59:53.119Z</time></trkpt><trkpt lat="40.8994467" lon="14.10884"><ele>100.33333333333334</ele><time>2026-03-24T13:59:54.118Z</time></trkpt><trkpt lat="40.8995117" lon="14.1089017"><ele>100.5</ele><time>2026-03-24T13:59:55.118Z</time></trkpt><trkpt lat="40.8995733" lon="14.10896"><ele>100.66666666666666</ele><time>2026-03-24T13:59:56.118Z</time></trkpt><trkpt lat="40.899635" lon="14.109015"><ele>100.83333333333333</ele><time>2026-03-24T13:59:57.118Z</time></trkpt><trkpt lat="40.8996983" lon="14.10907"><ele>101.0</ele><time>2026-03-24T13:59:58.118Z</time></trkpt><trkpt lat="40.89976" lon="14.1091283"><ele>101.0</ele><time>2026-03-24T13:59:59.119Z</time></trkpt><trkpt lat="40.89982" lon="14.1091867"><ele>101.0</ele><time>2026-03-24T14:00:00.118Z</time></trkpt><trkpt lat="40.8998767" lon="14.1092467"><ele>101.0</ele><time>2026-03-24T14:00:01.118Z</time></trkpt><trkpt lat="40.8999367" lon="14.1093"><ele>101.0</ele><time>2026-03-24T14:00:02.119Z</time></trkpt><trkpt lat="40.899995" lon="14.109355"><ele>101.0</ele><time>2026-03-24T14:00:03.119Z</time></trkpt><trkpt lat="40.9000517" lon="14.1094133"><ele>101.0</ele><time>2026-03-24T14:00:04.118Z</time></trkpt><trkpt lat="40.9001067" lon="14.10947"><ele>101.0</ele><time>2026-03-24T14:00:05.118Z</time></trkpt><trkpt lat="40.9001633" lon="14.1095217"><ele>101.0</ele><time>2026-03-24T14:00:06.118Z</time></trkpt><trkpt lat="40.9002183" lon="14.109575"><ele>101.0</ele><time>2026-03-24T14:00:07.123Z</time></trkpt><trkpt lat="40.9002783" lon="14.1096283"><ele>101.0</ele><time>2026-03-24T14:00:08.119Z</time></trkpt><trkpt lat="40.90034" lon="14.1096833"><ele>101.0</ele><time>2026-03-24T14:00:09.121Z</time></trkpt><trkpt lat="40.9004" lon="14.10974"><ele>101.0</ele><time>2026-03-24T14:00:10.119Z</time></trkpt><trkpt lat="40.9004583" lon="14.10979"><ele>101.0</ele><time>2026-03-24T14:00:11.118Z</time></trkpt><trkpt lat="40.9005167" lon="14.1098417"><ele>101.0</ele><time>2026-03-24T14:00:12.118Z</time></trkpt><trkpt lat="40.9005783" lon="14.1098933"><ele>100.66666666666666</ele><time>2026-03-24T14:00:13.118Z</time></trkpt><trkpt lat="40.9006433" lon="14.1099467"><ele>100.33333333333333</ele><time>2026-03-24T14:00:14.118Z</time></trkpt><trkpt lat="40.90071" lon="14.1100017"><ele>100.0</ele><time>2026-03-24T14:00:15.118Z</time></trkpt><trkpt lat="40.9007783" lon="14.1100517"><ele>99.66666666666666</ele><time>2026-03-24T14:00:16.119Z</time></trkpt><trkpt lat="40.9008433" lon="14.1101017"><ele>99.33333333333333</ele><time>2026-03-24T14:00:17.12Z</time></trkpt><trkpt lat="40.9009133" lon="14.1101533"><ele>99.0</ele><time>2026-03-24T14:00:18.118Z</time></trkpt><trkpt lat="40.900985" lon="14.110205"><ele>99.0</ele><time>2026-03-24T14:00:19.119Z</time></trkpt><trkpt lat="40.9010567" lon="14.1102583"><ele>99.0</ele><time>2026-03-24T14:00:20.118Z</time></trkpt><trkpt lat="40.9011267" lon="14.1103067"><ele>99.0</ele><time>2026-03-24T14:00:21.119Z</time></trkpt><trkpt lat="40.901195" lon="14.1103533"><ele>99.0</ele><time>2026-03-24T14:00:22.118Z</time></trkpt><trkpt lat="40.9012633" lon="14.1104083"><ele>99.0</ele><time>2026-03-24T14:00:23.118Z</time></trkpt><trkpt lat="40.90133" lon="14.1104583"><ele>99.0</ele><time>2026-03-24T14:00:24.119Z</time></trkpt><trkpt lat="40.9013967" lon="14.1105083"><ele>99.0</ele><time>2026-03-24T14:00:25.12Z</time></trkpt><trkpt lat="40.9014633" lon="14.110555"><ele>99.0</ele><time>2026-03-24T14:00:26.118Z</time></trkpt><trkpt lat="40.9015283" lon="14.1106033"><ele>99.0</ele><time>2026-03-24T14:00:27.118Z</time></trkpt><trkpt lat="40.9015933" lon="14.1106533"><ele>99.0</ele><time>2026-03-24T14:00:28.119Z</time></trkpt><trkpt lat="40.9016617" lon="14.1107033"><ele>99.0</ele><time>2026-03-24T14:00:29.12Z</time></trkpt><trkpt lat="40.90173" lon="14.1107567"><ele>99.0</ele><time>2026-03-24T14:00:30.118Z</time></trkpt><trkpt lat="40.9017983" lon="14.110815"><ele>99.0</ele><time>2026-03-24T14:00:31.118Z</time></trkpt><trkpt lat="40.9018683" lon="14.11087"><ele>99.0</ele><time>2026-03-24T14:00:32.118Z</time></trkpt><trkpt lat="40.9019367" lon="14.1109233"><ele>99.0</ele><time>2026-03-24T14:00:33.119Z</time></trkpt><trkpt lat="40.902" lon="14.110975"><ele>99.0</ele><time>2026-03-24T14:00:34.118Z</time></trkpt><trkpt lat="40.9020667" lon="14.1110367"><ele>99.0</ele><time>2026-03-24T14:00:35.118Z</time></trkpt><trkpt lat="40.9021317" lon="14.1111"><ele>99.0</ele><time>2026-03-24T14:00:36.119Z</time></trkpt><trkpt lat="40.902195" lon="14.1111617"><ele>99.0</ele><time>2026-03-24T14:00:37.118Z</time></trkpt><trkpt lat="40.9022533" lon="14.1112283"><ele>99.0</ele><time>2026-03-24T14:00:38.118Z</time></trkpt><trkpt lat="40.90231" lon="14.1112967"><ele>99.0</ele><time>2026-03-24T14:00:39.12Z</time></trkpt><trkpt lat="40.9023683" lon="14.1113733"><ele>99.0</ele><time>2026-03-24T14:00:40.118Z</time></trkpt><trkpt lat="40.9024233" lon="14.1114517"><ele>99.0</ele><time>2026-03-24T14:00:41.119Z</time></trkpt><trkpt lat="40.90248" lon="14.1115333"><ele>99.0</ele><time>2026-03-24T14:00:42.119Z</time></trkpt><trkpt lat="40.902535" lon="14.1116183"><ele>99.16666666666667</ele><time>2026-03-24T14:00:43.118Z</time></trkpt><trkpt lat="40.9025883" lon="14.1117117"><ele>99.33333333333334</ele><time>2026-03-24T14:00:44.118Z</time></trkpt><trkpt lat="40.902635" lon="14.1118117"><ele>99.5</ele><time>2026-03-24T14:00:45.118Z</time></trkpt><trkpt lat="40.9026767" lon="14.1119183"><ele>99.66666666666667</ele><time>2026-03-24T14:00:46.118Z</time></trkpt><trkpt lat="40.9027133" lon="14.1120267"><ele>99.83333333333334</ele><time>2026-03-24T14:00:47.118Z</time></trkpt><trkpt lat="40.9027467" lon="14.1121367"><ele>100.0</ele><time>2026-03-24T14:00:48.119Z</time></trkpt><trkpt lat="40.9027767" lon="14.1122483"><ele>100.00000000000001</ele><time>2026-03-24T14:00:49.118Z</time></trkpt><trkpt lat="40.9028017" lon="14.1123633"><ele>100.0</ele><time>2026-03-24T14:00:50.119Z</time></trkpt><trkpt lat="40.902825" lon="14.1124783"><ele>100.0</ele><time>2026-03-24T14:00:51.123Z</time></trkpt><trkpt lat="40.9028467" lon="14.1125933"><ele>100.0</ele><time>2026-03-24T14:00:52.119Z</time></trkpt><trkpt lat="40.9028667" lon="14.1127033"><ele>100.00000000000001</ele><time>2026-03-24T14:00:53.118Z</time></trkpt><trkpt lat="40.9028867" lon="14.112815"><ele>100.0</ele><time>2026-03-24T14:00:54.118Z</time></trkpt><trkpt lat="40.9029083" lon="14.1129267"><ele>100.33333333333334</ele><time>2026-03-24T14:00:55.118Z</time></trkpt><trkpt lat="40.9029267" lon="14.1130367"><ele>100.66666666666667</ele><time>2026-03-24T14:00:56.119Z</time></trkpt><trkpt lat="40.9029483" lon="14.1131467"><ele>101.0</ele><time>2026-03-24T14:00:57.118Z</time></trkpt><trkpt lat="40.902965" lon="14.1132567"><ele>101.33333333333334</ele><time>2026-03-24T14:00:58.118Z</time></trkpt><trkpt lat="40.90298" lon="14.113365"><ele>101.66666666666667</ele><time>2026-03-24T14:00:59.118Z</time></trkpt><trkpt lat="40.9030017" lon="14.1134733"><ele>102.0</ele><time>2026-03-24T14:01:00.118Z</time></trkpt><trkpt lat="40.9030217" lon="14.1135817"><ele>102.0</ele><time>2026-03-24T14:01:01.118Z</time></trkpt><trkpt lat="40.9030417" lon="14.11369"><ele>102.0</ele><time>2026-03-24T14:01:02.119Z</time></trkpt><trkpt lat="40.9030617" lon="14.1137983"><ele>102.0</ele><time>2026-03-24T14:01:03.12Z</time></trkpt><trkpt lat="40.9030783" lon="14.1139133"><ele>102.0</ele><time>2026-03-24T14:01:04.118Z</time></trkpt><trkpt lat="40.9030933" lon="14.1140267"><ele>102.0</ele><time>2026-03-24T14:01:05.118Z</time></trkpt><trkpt lat="40.9031167" lon="14.1141367"><ele>102.0</ele><time>2026-03-24T14:01:06.118Z</time></trkpt><trkpt lat="40.9031367" lon="14.114245"><ele>101.83333333333333</ele><time>2026-03-24T14:01:07.118Z</time></trkpt><trkpt lat="40.9031533" lon="14.1143567"><ele>101.66666666666666</ele><time>2026-03-24T14:01:08.119Z</time></trkpt><trkpt lat="40.90317" lon="14.1144633"><ele>101.5</ele><time>2026-03-24T14:01:09.118Z</time></trkpt><trkpt lat="40.9031867" lon="14.1145717"><ele>101.33333333333333</ele><time>2026-03-24T14:01:10.12Z</time></trkpt><trkpt lat="40.9032033" lon="14.1146817"><ele>101.16666666666666</ele><time>2026-03-24T14:01:11.118Z</time></trkpt><trkpt lat="40.9032217" lon="14.1147933"><ele>101.0</ele><time>2026-03-24T14:01:12.118Z</time></trkpt><trkpt lat="40.9032433" lon="14.1149083"><ele>100.99999999999999</ele><time>2026-03-24T14:01:13.118Z</time></trkpt><trkpt lat="40.9032617" lon="14.1150217"><ele>101.0</ele><time>2026-03-24T14:01:14.118Z</time></trkpt><trkpt lat="40.9032817" lon="14.1151367"><ele>101.0</ele><time>2026-03-24T14:01:15.118Z</time></trkpt><trkpt lat="40.9033" lon="14.11525"><ele>101.0</ele><time>2026-03-24T14:01:16.118Z</time></trkpt><trkpt lat="40.9033183" lon="14.1153633"><ele>100.99999999999999</ele><time>2026-03-24T14:01:17.118Z</time></trkpt><trkpt lat="40.903335" lon="14.1154783"><ele>101.0</ele><time>2026-03-24T14:01:18.123Z</time></trkpt><trkpt lat="40.9033533" lon="14.11559"><ele>100.99999999999999</ele><time>2026-03-24T14:01:19.119Z</time></trkpt><trkpt lat="40.9033717" lon="14.1156983"><ele>101.0</ele><time>2026-03-24T14:01:20.12Z</time></trkpt><trkpt lat="40.9033967" lon="14.1158067"><ele>101.0</ele><time>2026-03-24T14:01:21.118Z</time></trkpt><trkpt lat="40.9034183" lon="14.1159133"><ele>101.0</ele><time>2026-03-24T14:01:22.118Z</time></trkpt><trkpt lat="40.9034383" lon="14.1160183"><ele>100.99999999999999</ele><time>2026-03-24T14:01:23.118Z</time></trkpt><trkpt lat="40.90346" lon="14.11612"><ele>101.0</ele><time>2026-03-24T14:01:24.119Z</time></trkpt><trkpt lat="40.9034783" lon="14.1162233"><ele>101.49999999999999</ele><time>2026-03-24T14:01:25.119Z</time></trkpt><trkpt lat="40.9034967" lon="14.1163267"><ele>102.0</ele><time>2026-03-24T14:01:26.118Z</time></trkpt><trkpt lat="40.9035133" lon="14.1164317"><ele>102.5</ele><time>2026-03-24T14:01:27.118Z</time></trkpt><trkpt lat="40.9035317" lon="14.116535"><ele>103.0</ele><time>2026-03-24T14:01:28.119Z</time></trkpt><trkpt lat="40.90355" lon="14.11664"><ele>103.49999999999999</ele><time>2026-03-24T14:01:29.118Z</time></trkpt><trkpt lat="40.9035733" lon="14.1167467"><ele>104.0</ele><time>2026-03-24T14:01:30.118Z</time></trkpt><trkpt lat="40.9035933" lon="14.1168533"><ele>103.99999999999999</ele><time>2026-03-24T14:01:31.118Z</time></trkpt><trkpt lat="40.903605" lon="14.1169567"><ele>104.0</ele><time>2026-03-24T14:01:32.119Z</time></trkpt><trkpt lat="40.9036183" lon="14.1170617"><ele>104.0</ele><time>2026-03-24T14:01:33.119Z</time></trkpt><trkpt lat="40.9036267" lon="14.1171633"><ele>104.0</ele><time>2026-03-24T14:01:34.118Z</time></trkpt><trkpt lat="40.90363" lon="14.1172617"><ele>103.99999999999999</ele><time>2026-03-24T14:01:35.119Z</time></trkpt><trkpt lat="40.903635" lon="14.11736"><ele>104.0</ele><time>2026-03-24T14:01:36.118Z</time></trkpt><trkpt lat="40.9036383" lon="14.1174567"><ele>104.14285714285714</ele><time>2026-03-24T14:01:37.125Z</time></trkpt><trkpt lat="40.9036433" lon="14.11755"><ele>104.28571428571429</ele><time>2026-03-24T14:01:38.118Z</time></trkpt><trkpt lat="40.90365" lon="14.11764"><ele>104.42857142857143</ele><time>2026-03-24T14:01:39.119Z</time></trkpt><trkpt lat="40.9036533" lon="14.1177333"><ele>104.57142857142857</ele><time>2026-03-24T14:01:40.118Z</time></trkpt><trkpt lat="40.9036583" lon="14.117825"><ele>104.71428571428572</ele><time>2026-03-24T14:01:41.12Z</time></trkpt><trkpt lat="40.9036567" lon="14.1179167"><ele>104.85714285714286</ele><time>2026-03-24T14:01:42.119Z</time></trkpt><trkpt lat="40.9036567" lon="14.11801"><ele>105.0</ele><time>2026-03-24T14:01:43.118Z</time></trkpt><trkpt lat="40.90366" lon="14.1181067"><ele>105.0</ele><time>2026-03-24T14:01:44.118Z</time></trkpt><trkpt lat="40.9036633" lon="14.1182067"><ele>105.0</ele><time>2026-03-24T14:01:45.118Z</time></trkpt><trkpt lat="40.9036683" lon="14.1183067"><ele>105.0</ele><time>2026-03-24T14:01:46.118Z</time></trkpt><trkpt lat="40.9036667" lon="14.1184067"><ele>105.0</ele><time>2026-03-24T14:01:47.118Z</time></trkpt><trkpt lat="40.90367" lon="14.11851"><ele>105.0</ele><time>2026-03-24T14:01:48.119Z</time></trkpt><trkpt lat="40.90368" lon="14.11861"><ele>105.0</ele><time>2026-03-24T14:01:49.118Z</time></trkpt><trkpt lat="40.9036967" lon="14.11871"><ele>105.16666666666667</ele><time>2026-03-24T14:01:50.118Z</time></trkpt><trkpt lat="40.9037117" lon="14.1188067"><ele>105.33333333333334</ele><time>2026-03-24T14:01:51.118Z</time></trkpt><trkpt lat="40.9037333" lon="14.1189033"><ele>105.5</ele><time>2026-03-24T14:01:52.118Z</time></trkpt><trkpt lat="40.9037583" lon="14.1189983"><ele>105.66666666666667</ele><time>2026-03-24T14:01:53.118Z</time></trkpt><trkpt lat="40.9037833" lon="14.1190933"><ele>105.83333333333334</ele><time>2026-03-24T14:01:54.119Z</time></trkpt><trkpt lat="40.9038133" lon="14.1191867"><ele>106.0</ele><time>2026-03-24T14:01:55.121Z</time></trkpt><trkpt lat="40.9038483" lon="14.1192783"><ele>106.28571428571429</ele><time>2026-03-24T14:01:56.119Z</time></trkpt><trkpt lat="40.9038883" lon="14.1193667"><ele>106.57142857142857</ele><time>2026-03-24T14:01:57.118Z</time></trkpt><trkpt lat="40.9039217" lon="14.119455"><ele>106.85714285714286</ele><time>2026-03-24T14:01:58.118Z</time></trkpt><trkpt lat="40.903955" lon="14.1195417"><ele>107.14285714285714</ele><time>2026-03-24T14:01:59.119Z</time></trkpt><trkpt lat="40.90399" lon="14.1196283"><ele>107.42857142857142</ele><time>2026-03-24T14:02:00.118Z</time></trkpt><trkpt lat="40.9040233" lon="14.1197133"><ele>107.71428571428571</ele><time>2026-03-24T14:02:01.118Z</time></trkpt><trkpt lat="40.9040583" lon="14.119795"><ele>108.0</ele><time>2026-03-24T14:02:02.118Z</time></trkpt><trkpt lat="40.9040967" lon="14.1198717"><ele>108.28571428571428</ele><time>2026-03-24T14:02:03.118Z</time></trkpt><trkpt lat="40.904135" lon="14.1199433"><ele>108.57142857142857</ele><time>2026-03-24T14:02:04.124Z</time></trkpt><trkpt lat="40.9041767" lon="14.1200183"><ele>108.85714285714286</ele><time>2026-03-24T14:02:05.118Z</time></trkpt><trkpt lat="40.9042167" lon="14.12009"><ele>109.14285714285714</ele><time>2026-03-24T14:02:06.118Z</time></trkpt><trkpt lat="40.9042533" lon="14.120165"><ele>109.42857142857143</ele><time>2026-03-24T14:02:07.118Z</time></trkpt><trkpt lat="40.90429" lon="14.1202383"><ele>109.71428571428571</ele><time>2026-03-24T14:02:08.118Z</time></trkpt><trkpt lat="40.904325" lon="14.1203133"><ele>110.0</ele><time>2026-03-24T14:02:09.119Z</time></trkpt><trkpt lat="40.904355" lon="14.12039"><ele>110.4</ele><time>2026-03-24T14:02:10.118Z</time></trkpt><trkpt lat="40.9043683" lon="14.1204717"><ele>110.8</ele><time>2026-03-24T14:02:11.118Z</time></trkpt><trkpt lat="40.90435" lon="14.1206217"><ele>111.19999999999999</ele><time>2026-03-24T14:02:13.119Z</time></trkpt><trkpt lat="40.9042933" lon="14.1207417"><ele>111.6</ele><time>2026-03-24T14:02:15.12Z</time></trkpt><trkpt lat="40.90424" lon="14.120875"><ele>112.0</ele><time>2026-03-24T14:02:17.118Z</time></trkpt><trkpt lat="40.9042317" lon="14.1210333"><ele>111.16666666666667</ele><time>2026-03-24T14:02:19.12Z</time></trkpt><trkpt lat="40.9042533" lon="14.1211117"><ele>110.33333333333334</ele><time>2026-03-24T14:02:20.119Z</time></trkpt><trkpt lat="40.9043333" lon="14.12124"><ele>109.5</ele><time>2026-03-24T14:02:22.118Z</time></trkpt><trkpt lat="40.90439" lon="14.1212917"><ele>108.66666666666666</ele><time>2026-03-24T14:02:23.119Z</time></trkpt><trkpt lat="40.90445" lon="14.1213417"><ele>107.83333333333333</ele><time>2026-03-24T14:02:24.118Z</time></trkpt><trkpt lat="40.9045067" lon="14.121395"><ele>107.0</ele><time>2026-03-24T14:02:25.119Z</time></trkpt><trkpt lat="40.904565" lon="14.1214517"><ele>107.00000000000001</ele><time>2026-03-24T14:02:26.118Z</time></trkpt><trkpt lat="40.9046183" lon="14.1215167"><ele>107.0</ele><time>2026-03-24T14:02:27.118Z</time></trkpt><trkpt lat="40.904665" lon="14.12159"><ele>107.0</ele><time>2026-03-24T14:02:28.118Z</time></trkpt><trkpt lat="40.9047067" lon="14.121665"><ele>107.0</ele><time>2026-03-24T14:02:29.119Z</time></trkpt><trkpt lat="40.9047367" lon="14.1217483"><ele>107.0</ele><time>2026-03-24T14:02:30.119Z</time></trkpt><trkpt lat="40.9047633" lon="14.1218317"><ele>107.00000000000001</ele><time>2026-03-24T14:02:31.118Z</time></trkpt><trkpt lat="40.90479" lon="14.121915"><ele>107.0</ele><time>2026-03-24T14:02:32.118Z</time></trkpt><trkpt lat="40.90482" lon="14.1219933"><ele>106.85714285714286</ele><time>2026-03-24T14:02:33.118Z</time></trkpt><trkpt lat="40.9048517" lon="14.1220717"><ele>106.71428571428572</ele><time>2026-03-24T14:02:34.118Z</time></trkpt><trkpt lat="40.9048833" lon="14.1221483"><ele>106.57142857142858</ele><time>2026-03-24T14:02:35.118Z</time></trkpt><trkpt lat="40.904915" lon="14.1222233"><ele>106.42857142857143</ele><time>2026-03-24T14:02:36.119Z</time></trkpt><trkpt lat="40.904945" lon="14.1223017"><ele>106.28571428571428</ele><time>2026-03-24T14:02:37.118Z</time></trkpt><trkpt lat="40.9049733" lon="14.1223833"><ele>106.14285714285715</ele><time>2026-03-24T14:02:38.118Z</time></trkpt><trkpt lat="40.9049983" lon="14.1224683"><ele>106.0</ele><time>2026-03-24T14:02:39.118Z</time></trkpt><trkpt lat="40.905025" lon="14.1225517"><ele>106.28571428571429</ele><time>2026-03-24T14:02:40.118Z</time></trkpt><trkpt lat="40.9050517" lon="14.1226333"><ele>106.57142857142857</ele><time>2026-03-24T14:02:41.119Z</time></trkpt><trkpt lat="40.9050767" lon="14.12272"><ele>106.85714285714286</ele><time>2026-03-24T14:02:42.118Z</time></trkpt><trkpt lat="40.9051117" lon="14.122805"><ele>107.14285714285714</ele><time>2026-03-24T14:02:43.119Z</time></trkpt><trkpt lat="40.9051433" lon="14.12289"><ele>107.42857142857142</ele><time>2026-03-24T14:02:44.119Z</time></trkpt><trkpt lat="40.9051783" lon="14.122975"><ele>107.71428571428571</ele><time>2026-03-24T14:02:45.119Z</time></trkpt><trkpt lat="40.90521" lon="14.123065"><ele>108.0</ele><time>2026-03-24T14:02:46.118Z</time></trkpt><trkpt lat="40.90524" lon="14.1231567"><ele>107.28571428571428</ele><time>2026-03-24T14:02:47.118Z</time></trkpt><trkpt lat="40.9052683" lon="14.1232533"><ele>106.57142857142857</ele><time>2026-03-24T14:02:48.118Z</time></trkpt><trkpt lat="40.9052967" lon="14.1233433"><ele>105.85714285714286</ele><time>2026-03-24T14:02:49.12Z</time></trkpt><trkpt lat="40.9053267" lon="14.12343"><ele>105.14285714285714</ele><time>2026-03-24T14:02:50.119Z</time></trkpt><trkpt lat="40.9053533" lon="14.1235217"><ele>104.42857142857143</ele><time>2026-03-24T14:02:51.119Z</time></trkpt><trkpt lat="40.9053833" lon="14.12361"><ele>103.71428571428571</ele><time>2026-03-24T14:02:52.118Z</time></trkpt><trkpt lat="40.905415" lon="14.1236967"><ele>103.0</ele><time>2026-03-24T14:02:53.118Z</time></trkpt><trkpt lat="40.905445" lon="14.12379"><ele>102.99999999999999</ele><time>2026-03-24T14:02:54.119Z</time></trkpt><trkpt lat="40.9054783" lon="14.1238783"><ele>103.0</ele><time>2026-03-24T14:02:55.119Z</time></trkpt><trkpt lat="40.90551" lon="14.1239667"><ele>103.0</ele><time>2026-03-24T14:02:56.118Z</time></trkpt><trkpt lat="40.9055383" lon="14.1240567"><ele>103.0</ele><time>2026-03-24T14:02:57.119Z</time></trkpt><trkpt lat="40.9055667" lon="14.1241483"><ele>103.0</ele><time>2026-03-24T14:02:58.118Z</time></trkpt><trkpt lat="40.9055933" lon="14.12424"><ele>102.99999999999999</ele><time>2026-03-24T14:02:59.118Z</time></trkpt><trkpt lat="40.9056283" lon="14.1243317"><ele>103.0</ele><time>2026-03-24T14:03:00.12Z</time></trkpt><trkpt lat="40.9056617" lon="14.124425"><ele>103.66666666666667</ele><time>2026-03-24T14:03:01.119Z</time></trkpt><trkpt lat="40.9056983" lon="14.1245183"><ele>104.33333333333334</ele><time>2026-03-24T14:03:02.118Z</time></trkpt><trkpt lat="40.9057317" lon="14.1246067"><ele>105.0</ele><time>2026-03-24T14:03:03.118Z</time></trkpt><trkpt lat="40.905765" lon="14.1246967"><ele>105.66666666666666</ele><time>2026-03-24T14:03:04.118Z</time></trkpt><trkpt lat="40.9057967" lon="14.124785"><ele>106.33333333333333</ele><time>2026-03-24T14:03:05.118Z</time></trkpt><trkpt lat="40.905825" lon="14.12488"><ele>107.0</ele><time>2026-03-24T14:03:06.12Z</time></trkpt><trkpt lat="40.9058583" lon="14.1249783"><ele>106.99999999999999</ele><time>2026-03-24T14:03:07.118Z</time></trkpt><trkpt lat="40.9058867" lon="14.1250767"><ele>107.0</ele><time>2026-03-24T14:03:08.12Z</time></trkpt><trkpt lat="40.9059167" lon="14.125175"><ele>107.0</ele><time>2026-03-24T14:03:09.12Z</time></trkpt><trkpt lat="40.90595" lon="14.1252733"><ele>107.0</ele><time>2026-03-24T14:03:10.119Z</time></trkpt><trkpt lat="40.9059833" lon="14.1253683"><ele>106.99999999999999</ele><time>2026-03-24T14:03:11.118Z</time></trkpt><trkpt lat="40.90602" lon="14.1254667"><ele>107.0</ele><time>2026-03-24T14:03:12.119Z</time></trkpt><trkpt lat="40.90606" lon="14.125565"><ele>106.66666666666666</ele><time>2026-03-24T14:03:13.119Z</time></trkpt><trkpt lat="40.9060983" lon="14.1256633"><ele>106.33333333333333</ele><time>2026-03-24T14:03:14.119Z</time></trkpt><trkpt lat="40.906135" lon="14.1257633"><ele>106.0</ele><time>2026-03-24T14:03:15.121Z</time></trkpt><trkpt lat="40.9061683" lon="14.12586"><ele>105.66666666666666</ele><time>2026-03-24T14:03:16.119Z</time></trkpt><trkpt lat="40.9062033" lon="14.125955"><ele>105.33333333333333</ele><time>2026-03-24T14:03:17.118Z</time></trkpt><trkpt lat="40.90624" lon="14.1260517"><ele>105.0</ele><time>2026-03-24T14:03:18.119Z</time></trkpt><trkpt lat="40.906275" lon="14.1261517"><ele>105.0</ele><time>2026-03-24T14:03:19.118Z</time></trkpt><trkpt lat="40.9063117" lon="14.1262533"><ele>105.0</ele><time>2026-03-24T14:03:20.119Z</time></trkpt><trkpt lat="40.9063467" lon="14.1263517"><ele>105.0</ele><time>2026-03-24T14:03:21.118Z</time></trkpt><trkpt lat="40.906385" lon="14.1264583"><ele>105.0</ele><time>2026-03-24T14:03:22.118Z</time></trkpt><trkpt lat="40.9064217" lon="14.12656"><ele>105.0</ele><time>2026-03-24T14:03:23.12Z</time></trkpt><trkpt lat="40.9064567" lon="14.1266633"><ele>105.0</ele><time>2026-03-24T14:03:24.118Z</time></trkpt><trkpt lat="40.9064933" lon="14.1267733"><ele>105.33333333333333</ele><time>2026-03-24T14:03:25.118Z</time></trkpt><trkpt lat="40.9065283" lon="14.12688"><ele>105.66666666666666</ele><time>2026-03-24T14:03:26.119Z</time></trkpt><trkpt lat="40.9065633" lon="14.12699"><ele>106.0</ele><time>2026-03-24T14:03:27.119Z</time></trkpt><trkpt lat="40.9066" lon="14.127095"><ele>106.33333333333333</ele><time>2026-03-24T14:03:28.119Z</time></trkpt><trkpt lat="40.9066317" lon="14.1272017"><ele>106.66666666666666</ele><time>2026-03-24T14:03:29.118Z</time></trkpt><trkpt lat="40.9066717" lon="14.12731"><ele>107.0</ele><time>2026-03-24T14:03:30.119Z</time></trkpt><trkpt lat="40.9067133" lon="14.1274183"><ele>106.66666666666666</ele><time>2026-03-24T14:03:31.118Z</time></trkpt><trkpt lat="40.9067517" lon="14.1275267"><ele>106.33333333333333</ele><time>2026-03-24T14:03:32.119Z</time></trkpt><trkpt lat="40.9067833" lon="14.1276367"><ele>106.0</ele><time>2026-03-24T14:03:33.119Z</time></trkpt><trkpt lat="40.9068183" lon="14.1277433"><ele>105.66666666666666</ele><time>2026-03-24T14:03:34.118Z</time></trkpt><trkpt lat="40.9068583" lon="14.12785"><ele>105.33333333333333</ele><time>2026-03-24T14:03:35.118Z</time></trkpt><trkpt lat="40.9069" lon="14.1279533"><ele>105.0</ele><time>2026-03-24T14:03:36.118Z</time></trkpt><trkpt lat="40.90694" lon="14.1280567"><ele>105.0</ele><time>2026-03-24T14:03:37.119Z</time></trkpt><trkpt lat="40.906985" lon="14.1281583"><ele>105.0</ele><time>2026-03-24T14:03:38.118Z</time></trkpt><trkpt lat="40.9070267" lon="14.12826"><ele>105.0</ele><time>2026-03-24T14:03:39.119Z</time></trkpt><trkpt lat="40.9070667" lon="14.1283633"><ele>105.0</ele><time>2026-03-24T14:03:40.118Z</time></trkpt><trkpt lat="40.907105" lon="14.128465"><ele>105.0</ele><time>2026-03-24T14:03:41.117Z</time></trkpt><trkpt lat="40.90714" lon="14.1285667"><ele>105.0</ele><time>2026-03-24T14:03:42.117Z</time></trkpt><trkpt lat="40.9071817" lon="14.1286683"><ele>105.0</ele><time>2026-03-24T14:03:43.118Z</time></trkpt><trkpt lat="40.9072183" lon="14.1287683"><ele>105.0</ele><time>2026-03-24T14:03:44.118Z</time></trkpt><trkpt lat="40.9072533" lon="14.1288667"><ele>105.0</ele><time>2026-03-24T14:03:45.118Z</time></trkpt><trkpt lat="40.907285" lon="14.1289667"><ele>105.0</ele><time>2026-03-24T14:03:46.117Z</time></trkpt><trkpt lat="40.90732" lon="14.1290667"><ele>105.0</ele><time>2026-03-24T14:03:47.118Z</time></trkpt><trkpt lat="40.907355" lon="14.12917"><ele>105.0</ele><time>2026-03-24T14:03:48.118Z</time></trkpt><trkpt lat="40.907385" lon="14.1292717"><ele>105.0</ele><time>2026-03-24T14:03:49.118Z</time></trkpt><trkpt lat="40.9074167" lon="14.1293717"><ele>105.0</ele><time>2026-03-24T14:03:50.118Z</time></trkpt><trkpt lat="40.907445" lon="14.1294717"><ele>105.0</ele><time>2026-03-24T14:03:51.12Z</time></trkpt><trkpt lat="40.9074767" lon="14.1295683"><ele>105.0</ele><time>2026-03-24T14:03:52.117Z</time></trkpt><trkpt lat="40.90751" lon="14.1296633"><ele>105.0</ele><time>2026-03-24T14:03:53.118Z</time></trkpt><trkpt lat="40.9075433" lon="14.1297617"><ele>105.0</ele><time>2026-03-24T14:03:54.118Z</time></trkpt><trkpt lat="40.907575" lon="14.1298567"><ele>104.83333333333333</ele><time>2026-03-24T14:03:55.118Z</time></trkpt><trkpt lat="40.9076083" lon="14.129955"><ele>104.66666666666666</ele><time>2026-03-24T14:03:56.118Z</time></trkpt><trkpt lat="40.9076433" lon="14.1300533"><ele>104.5</ele><time>2026-03-24T14:03:57.121Z</time></trkpt><trkpt lat="40.9076767" lon="14.130155"><ele>104.33333333333333</ele><time>2026-03-24T14:03:58.118Z</time></trkpt><trkpt lat="40.90771" lon="14.1302583"><ele>104.16666666666666</ele><time>2026-03-24T14:03:59.126Z</time></trkpt><trkpt lat="40.907745" lon="14.1303617"><ele>104.0</ele><time>2026-03-24T14:04:00.119Z</time></trkpt><trkpt lat="40.9077733" lon="14.130465"><ele>103.99999999999999</ele><time>2026-03-24T14:04:01.119Z</time></trkpt><trkpt lat="40.9078117" lon="14.1305617"><ele>104.0</ele><time>2026-03-24T14:04:02.118Z</time></trkpt><trkpt lat="40.9078433" lon="14.130655"><ele>104.0</ele><time>2026-03-24T14:04:03.118Z</time></trkpt><trkpt lat="40.9078783" lon="14.130745"><ele>104.0</ele><time>2026-03-24T14:04:04.119Z</time></trkpt><trkpt lat="40.907915" lon="14.1308367"><ele>103.99999999999999</ele><time>2026-03-24T14:04:05.118Z</time></trkpt><trkpt lat="40.90795" lon="14.1309317"><ele>104.0</ele><time>2026-03-24T14:04:06.118Z</time></trkpt><trkpt lat="40.9079817" lon="14.1310267"><ele>103.99999999999999</ele><time>2026-03-24T14:04:07.118Z</time></trkpt><trkpt lat="40.9080183" lon="14.1311217"><ele>104.0</ele><time>2026-03-24T14:04:08.117Z</time></trkpt><trkpt lat="40.90806" lon="14.1312117"><ele>104.0</ele><time>2026-03-24T14:04:09.118Z</time></trkpt><trkpt lat="40.908095" lon="14.131305"><ele>104.0</ele><time>2026-03-24T14:04:10.117Z</time></trkpt><trkpt lat="40.90813" lon="14.1313983"><ele>103.99999999999999</ele><time>2026-03-24T14:04:11.119Z</time></trkpt><trkpt lat="40.9081633" lon="14.1314983"><ele>104.0</ele><time>2026-03-24T14:04:12.121Z</time></trkpt><trkpt lat="40.9082" lon="14.1316"><ele>103.83333333333333</ele><time>2026-03-24T14:04:13.119Z</time></trkpt><trkpt lat="40.90824" lon="14.131695"><ele>103.66666666666666</ele><time>2026-03-24T14:04:14.119Z</time></trkpt><trkpt lat="40.908275" lon="14.1317917"><ele>103.5</ele><time>2026-03-24T14:04:15.118Z</time></trkpt><trkpt lat="40.908315" lon="14.1318967"><ele>103.33333333333334</ele><time>2026-03-24T14:04:16.118Z</time></trkpt><trkpt lat="40.90835" lon="14.132005"><ele>103.16666666666667</ele><time>2026-03-24T14:04:17.119Z</time></trkpt><trkpt lat="40.908385" lon="14.1321083"><ele>103.0</ele><time>2026-03-24T14:04:18.118Z</time></trkpt><trkpt lat="40.90842" lon="14.13221"><ele>103.00000000000001</ele><time>2026-03-24T14:04:19.117Z</time></trkpt><trkpt lat="40.908455" lon="14.1323133"><ele>103.0</ele><time>2026-03-24T14:04:20.118Z</time></trkpt><trkpt lat="40.90849" lon="14.1324183"><ele>103.0</ele><time>2026-03-24T14:04:21.118Z</time></trkpt><trkpt lat="40.908525" lon="14.1325233"><ele>103.0</ele><time>2026-03-24T14:04:22.117Z</time></trkpt><trkpt lat="40.9085583" lon="14.1326267"><ele>103.00000000000001</ele><time>2026-03-24T14:04:23.117Z</time></trkpt><trkpt lat="40.9085883" lon="14.1327317"><ele>103.0</ele><time>2026-03-24T14:04:24.118Z</time></trkpt><trkpt lat="40.9086217" lon="14.1328367"><ele>103.00000000000001</ele><time>2026-03-24T14:04:25.118Z</time></trkpt><trkpt lat="40.9086583" lon="14.1329417"><ele>103.0</ele><time>2026-03-24T14:04:26.118Z</time></trkpt><trkpt lat="40.908695" lon="14.1330467"><ele>103.0</ele><time>2026-03-24T14:04:27.118Z</time></trkpt><trkpt lat="40.90873" lon="14.1331517"><ele>103.0</ele><time>2026-03-24T14:04:28.118Z</time></trkpt><trkpt lat="40.9087683" lon="14.13326"><ele>103.00000000000001</ele><time>2026-03-24T14:04:29.118Z</time></trkpt><trkpt lat="40.9088033" lon="14.13337"><ele>103.0</ele><time>2026-03-24T14:04:30.117Z</time></trkpt><trkpt lat="40.9088383" lon="14.1334783"><ele>103.00000000000001</ele><time>2026-03-24T14:04:31.118Z</time></trkpt><trkpt lat="40.9088717" lon="14.1335817"><ele>103.0</ele><time>2026-03-24T14:04:32.118Z</time></trkpt><trkpt lat="40.90891" lon="14.1336867"><ele>103.0</ele><time>2026-03-24T14:04:33.119Z</time></trkpt><trkpt lat="40.9089483" lon="14.13379"><ele>103.0</ele><time>2026-03-24T14:04:34.118Z</time></trkpt><trkpt lat="40.9089867" lon="14.1338917"><ele>103.00000000000001</ele><time>2026-03-24T14:04:35.118Z</time></trkpt><trkpt lat="40.909025" lon="14.1339967"><ele>103.0</ele><time>2026-03-24T14:04:36.118Z</time></trkpt><trkpt lat="40.9090617" lon="14.1340967"><ele>103.16666666666667</ele><time>2026-03-24T14:04:37.119Z</time></trkpt><trkpt lat="40.9090983" lon="14.1341967"><ele>103.33333333333334</ele><time>2026-03-24T14:04:38.118Z</time></trkpt><trkpt lat="40.9091367" lon="14.1342967"><ele>103.5</ele><time>2026-03-24T14:04:39.118Z</time></trkpt><trkpt lat="40.90917" lon="14.1344"><ele>103.66666666666666</ele><time>2026-03-24T14:04:40.118Z</time></trkpt><trkpt lat="40.9092067" lon="14.1345"><ele>103.83333333333333</ele><time>2026-03-24T14:04:41.119Z</time></trkpt><trkpt lat="40.9092433" lon="14.1346017"><ele>104.0</ele><time>2026-03-24T14:04:42.118Z</time></trkpt><trkpt lat="40.9092817" lon="14.1347017"><ele>103.33333333333333</ele><time>2026-03-24T14:04:43.117Z</time></trkpt><trkpt lat="40.909315" lon="14.134805"><ele>102.66666666666666</ele><time>2026-03-24T14:04:44.118Z</time></trkpt><trkpt lat="40.9093517" lon="14.1349067"><ele>102.0</ele><time>2026-03-24T14:04:45.119Z</time></trkpt><trkpt lat="40.90939" lon="14.1350083"><ele>101.33333333333334</ele><time>2026-03-24T14:04:46.117Z</time></trkpt><trkpt lat="40.909425" lon="14.1351083"><ele>100.66666666666667</ele><time>2026-03-24T14:04:47.118Z</time></trkpt><trkpt lat="40.9094617" lon="14.1352083"><ele>100.0</ele><time>2026-03-24T14:04:48.118Z</time></trkpt><trkpt lat="40.909495" lon="14.135315"><ele>100.00000000000001</ele><time>2026-03-24T14:04:49.117Z</time></trkpt><trkpt lat="40.9095283" lon="14.1354167"><ele>100.0</ele><time>2026-03-24T14:04:50.118Z</time></trkpt><trkpt lat="40.909565" lon="14.135515"><ele>100.0</ele><time>2026-03-24T14:04:51.119Z</time></trkpt><trkpt lat="40.9096017" lon="14.1356133"><ele>100.0</ele><time>2026-03-24T14:04:52.119Z</time></trkpt><trkpt lat="40.909635" lon="14.1357167"><ele>100.00000000000001</ele><time>2026-03-24T14:04:53.118Z</time></trkpt><trkpt lat="40.9096717" lon="14.135815"><ele>100.0</ele><time>2026-03-24T14:04:54.118Z</time></trkpt><trkpt lat="40.90971" lon="14.1359117"><ele>100.33333333333334</ele><time>2026-03-24T14:04:55.117Z</time></trkpt><trkpt lat="40.90975" lon="14.1360083"><ele>100.66666666666667</ele><time>2026-03-24T14:04:56.118Z</time></trkpt><trkpt lat="40.9097917" lon="14.1361083"><ele>101.0</ele><time>2026-03-24T14:04:57.117Z</time></trkpt><trkpt lat="40.909825" lon="14.1362067"><ele>101.33333333333334</ele><time>2026-03-24T14:04:58.118Z</time></trkpt><trkpt lat="40.90986" lon="14.1363033"><ele>101.66666666666667</ele><time>2026-03-24T14:04:59.117Z</time></trkpt><trkpt lat="40.909895" lon="14.1364"><ele>102.0</ele><time>2026-03-24T14:05:00.118Z</time></trkpt><trkpt lat="40.9099283" lon="14.1364983"><ele>102.33333333333333</ele><time>2026-03-24T14:05:01.119Z</time></trkpt><trkpt lat="40.909965" lon="14.136595"><ele>102.66666666666666</ele><time>2026-03-24T14:05:02.118Z</time></trkpt><trkpt lat="40.9099983" lon="14.1366883"><ele>103.0</ele><time>2026-03-24T14:05:03.117Z</time></trkpt><trkpt lat="40.91003" lon="14.13678"><ele>103.33333333333333</ele><time>2026-03-24T14:05:04.119Z</time></trkpt><trkpt lat="40.910065" lon="14.1368733"><ele>103.66666666666666</ele><time>2026-03-24T14:05:05.117Z</time></trkpt><trkpt lat="40.9101017" lon="14.13696"><ele>104.0</ele><time>2026-03-24T14:05:06.118Z</time></trkpt><trkpt lat="40.910135" lon="14.1370483"><ele>103.28571428571428</ele><time>2026-03-24T14:05:07.117Z</time></trkpt><trkpt lat="40.9101667" lon="14.1371383"><ele>102.57142857142858</ele><time>2026-03-24T14:05:08.118Z</time></trkpt><trkpt lat="40.9101983" lon="14.137225"><ele>101.85714285714286</ele><time>2026-03-24T14:05:09.117Z</time></trkpt><trkpt lat="40.91023" lon="14.1373117"><ele>101.14285714285714</ele><time>2026-03-24T14:05:10.117Z</time></trkpt><trkpt lat="40.9102617" lon="14.1374033"><ele>100.42857142857142</ele><time>2026-03-24T14:05:11.117Z</time></trkpt><trkpt lat="40.9102917" lon="14.137495"><ele>99.71428571428572</ele><time>2026-03-24T14:05:12.12Z</time></trkpt><trkpt lat="40.9103217" lon="14.1375883"><ele>99.0</ele><time>2026-03-24T14:05:13.117Z</time></trkpt><trkpt lat="40.91035" lon="14.13768"><ele>99.0</ele><time>2026-03-24T14:05:14.119Z</time></trkpt><trkpt lat="40.9103817" lon="14.137775"><ele>99.0</ele><time>2026-03-24T14:05:15.117Z</time></trkpt><trkpt lat="40.910415" lon="14.13787"><ele>99.0</ele><time>2026-03-24T14:05:16.117Z</time></trkpt><trkpt lat="40.9104483" lon="14.137965"><ele>99.0</ele><time>2026-03-24T14:05:17.118Z</time></trkpt><trkpt lat="40.9104833" lon="14.13806"><ele>99.0</ele><time>2026-03-24T14:05:18.12Z</time></trkpt><trkpt lat="40.9105183" lon="14.1381533"><ele>99.0</ele><time>2026-03-24T14:05:19.118Z</time></trkpt><trkpt lat="40.9105483" lon="14.1382433"><ele>99.0</ele><time>2026-03-24T14:05:20.117Z</time></trkpt><trkpt lat="40.9105783" lon="14.1383367"><ele>99.0</ele><time>2026-03-24T14:05:21.119Z</time></trkpt><trkpt lat="40.9106117" lon="14.1384283"><ele>99.0</ele><time>2026-03-24T14:05:22.118Z</time></trkpt><trkpt lat="40.9106483" lon="14.1385217"><ele>99.0</ele><time>2026-03-24T14:05:23.117Z</time></trkpt><trkpt lat="40.910685" lon="14.138615"><ele>99.0</ele><time>2026-03-24T14:05:24.117Z</time></trkpt><trkpt lat="40.91072" lon="14.13871"><ele>99.0</ele><time>2026-03-24T14:05:25.118Z</time></trkpt><trkpt lat="40.9107583" lon="14.138805"><ele>99.0</ele><time>2026-03-24T14:05:26.118Z</time></trkpt><trkpt lat="40.9107933" lon="14.1388967"><ele>99.0</ele><time>2026-03-24T14:05:27.118Z</time></trkpt><trkpt lat="40.9108317" lon="14.1389917"><ele>99.0</ele><time>2026-03-24T14:05:28.118Z</time></trkpt><trkpt lat="40.910865" lon="14.1390867"><ele>99.0</ele><time>2026-03-24T14:05:29.117Z</time></trkpt><trkpt lat="40.9108967" lon="14.1391867"><ele>99.0</ele><time>2026-03-24T14:05:30.118Z</time></trkpt><trkpt lat="40.9109283" lon="14.1392883"><ele>99.0</ele><time>2026-03-24T14:05:31.118Z</time></trkpt><trkpt lat="40.91096" lon="14.13939"><ele>98.83333333333333</ele><time>2026-03-24T14:05:32.119Z</time></trkpt><trkpt lat="40.910995" lon="14.13949"><ele>98.66666666666666</ele><time>2026-03-24T14:05:33.119Z</time></trkpt><trkpt lat="40.9110317" lon="14.1395867"><ele>98.5</ele><time>2026-03-24T14:05:34.117Z</time></trkpt><trkpt lat="40.9110683" lon="14.1396883"><ele>98.33333333333333</ele><time>2026-03-24T14:05:35.117Z</time></trkpt><trkpt lat="40.911105" lon="14.13979"><ele>98.16666666666666</ele><time>2026-03-24T14:05:36.117Z</time></trkpt><trkpt lat="40.91114" lon="14.1398933"><ele>98.0</ele><time>2026-03-24T14:05:37.122Z</time></trkpt><trkpt lat="40.911175" lon="14.1399933"><ele>97.66666666666666</ele><time>2026-03-24T14:05:38.12Z</time></trkpt><trkpt lat="40.91121" lon="14.1400917"><ele>97.33333333333333</ele><time>2026-03-24T14:05:39.119Z</time></trkpt><trkpt lat="40.9112433" lon="14.1401967"><ele>97.0</ele><time>2026-03-24T14:05:40.117Z</time></trkpt><trkpt lat="40.9112783" lon="14.1403"><ele>96.66666666666666</ele><time>2026-03-24T14:05:41.118Z</time></trkpt><trkpt lat="40.9113133" lon="14.1404017"><ele>96.33333333333333</ele><time>2026-03-24T14:05:42.119Z</time></trkpt><trkpt lat="40.9113467" lon="14.1405067"><ele>96.0</ele><time>2026-03-24T14:05:43.118Z</time></trkpt><trkpt lat="40.91138" lon="14.1406083"><ele>96.0</ele><time>2026-03-24T14:05:44.118Z</time></trkpt><trkpt lat="40.9114133" lon="14.1407117"><ele>96.0</ele><time>2026-03-24T14:05:45.119Z</time></trkpt><trkpt lat="40.9114483" lon="14.1408117"><ele>96.0</ele><time>2026-03-24T14:05:46.118Z</time></trkpt><trkpt lat="40.9114867" lon="14.14091"><ele>96.0</ele><time>2026-03-24T14:05:47.118Z</time></trkpt><trkpt lat="40.911525" lon="14.14101"><ele>96.0</ele><time>2026-03-24T14:05:48.118Z</time></trkpt><trkpt lat="40.9115633" lon="14.1411133"><ele>96.0</ele><time>2026-03-24T14:05:49.118Z</time></trkpt><trkpt lat="40.9116017" lon="14.1412167"><ele>96.16666666666667</ele><time>2026-03-24T14:05:50.118Z</time></trkpt><trkpt lat="40.9116367" lon="14.14132"><ele>96.33333333333334</ele><time>2026-03-24T14:05:51.117Z</time></trkpt><trkpt lat="40.91167" lon="14.1414233"><ele>96.5</ele><time>2026-03-24T14:05:52.118Z</time></trkpt><trkpt lat="40.9117033" lon="14.141525"><ele>96.66666666666667</ele><time>2026-03-24T14:05:53.119Z</time></trkpt><trkpt lat="40.9117367" lon="14.1416267"><ele>96.83333333333334</ele><time>2026-03-24T14:05:54.118Z</time></trkpt><trkpt lat="40.9117733" lon="14.1417283"><ele>97.0</ele><time>2026-03-24T14:05:55.118Z</time></trkpt><trkpt lat="40.91181" lon="14.141825"><ele>97.00000000000001</ele><time>2026-03-24T14:05:56.118Z</time></trkpt><trkpt lat="40.911845" lon="14.1419233"><ele>97.0</ele><time>2026-03-24T14:05:57.118Z</time></trkpt><trkpt lat="40.9118817" lon="14.1420233"><ele>97.0</ele><time>2026-03-24T14:05:58.118Z</time></trkpt><trkpt lat="40.9119167" lon="14.1421233"><ele>97.0</ele><time>2026-03-24T14:05:59.118Z</time></trkpt><trkpt lat="40.9119517" lon="14.1422217"><ele>97.00000000000001</ele><time>2026-03-24T14:06:00.117Z</time></trkpt><trkpt lat="40.911985" lon="14.1423183"><ele>97.0</ele><time>2026-03-24T14:06:01.119Z</time></trkpt><trkpt lat="40.9120167" lon="14.1424133"><ele>97.00000000000001</ele><time>2026-03-24T14:06:02.118Z</time></trkpt><trkpt lat="40.9120467" lon="14.1425067"><ele>97.0</ele><time>2026-03-24T14:06:03.118Z</time></trkpt><trkpt lat="40.9120767" lon="14.1425917"><ele>97.0</ele><time>2026-03-24T14:06:04.117Z</time></trkpt><trkpt lat="40.912105" lon="14.1426717"><ele>97.0</ele><time>2026-03-24T14:06:05.117Z</time></trkpt><trkpt lat="40.9121283" lon="14.1427517"><ele>97.00000000000001</ele><time>2026-03-24T14:06:06.117Z</time></trkpt><trkpt lat="40.9121517" lon="14.14283"><ele>97.0</ele><time>2026-03-24T14:06:07.118Z</time></trkpt><trkpt lat="40.9122033" lon="14.1429817"><ele>97.00000000000001</ele><time>2026-03-24T14:06:09.119Z</time></trkpt><trkpt lat="40.91223" lon="14.14306"><ele>97.0</ele><time>2026-03-24T14:06:10.117Z</time></trkpt><trkpt lat="40.9122617" lon="14.1431383"><ele>97.0</ele><time>2026-03-24T14:06:11.118Z</time></trkpt><trkpt lat="40.9122967" lon="14.1432117"><ele>97.0</ele><time>2026-03-24T14:06:12.118Z</time></trkpt><trkpt lat="40.9123333" lon="14.1432817"><ele>97.00000000000001</ele><time>2026-03-24T14:06:13.12Z</time></trkpt><trkpt lat="40.912395" lon="14.1434267"><ele>97.0</ele><time>2026-03-24T14:06:15.119Z</time></trkpt><trkpt lat="40.9124267" lon="14.1435"><ele>97.28571428571428</ele><time>2026-03-24T14:06:16.117Z</time></trkpt><trkpt lat="40.9124567" lon="14.1435767"><ele>97.57142857142858</ele><time>2026-03-24T14:06:17.117Z</time></trkpt><trkpt lat="40.912485" lon="14.1436533"><ele>97.85714285714286</ele><time>2026-03-24T14:06:18.117Z</time></trkpt><trkpt lat="40.9125117" lon="14.14373"><ele>98.14285714285714</ele><time>2026-03-24T14:06:19.121Z</time></trkpt><trkpt lat="40.9125383" lon="14.1438117"><ele>98.42857142857142</ele><time>2026-03-24T14:06:20.119Z</time></trkpt><trkpt lat="40.912565" lon="14.143895"><ele>98.71428571428572</ele><time>2026-03-24T14:06:21.118Z</time></trkpt><trkpt lat="40.9125933" lon="14.1439783"><ele>99.0</ele><time>2026-03-24T14:06:22.117Z</time></trkpt><trkpt lat="40.9126233" lon="14.1440533"><ele>97.75</ele><time>2026-03-24T14:06:23.117Z</time></trkpt><trkpt lat="40.9126783" lon="14.1441817"><ele>96.5</ele><time>2026-03-24T14:06:25.118Z</time></trkpt><trkpt lat="40.91273" lon="14.1443067"><ele>95.25</ele><time>2026-03-24T14:06:27.118Z</time></trkpt><trkpt lat="40.9127767" lon="14.1444483"><ele>94.0</ele><time>2026-03-24T14:06:29.118Z</time></trkpt><trkpt lat="40.91281" lon="14.1445933"><ele>94.0</ele><time>2026-03-24T14:06:31.118Z</time></trkpt><trkpt lat="40.9128533" lon="14.14473"><ele>94.0</ele><time>2026-03-24T14:06:33.118Z</time></trkpt><trkpt lat="40.9129067" lon="14.1448717"><ele>94.0</ele><time>2026-03-24T14:06:35.119Z</time></trkpt><trkpt lat="40.9129583" lon="14.1449933"><ele>94.0</ele><time>2026-03-24T14:06:37.121Z</time></trkpt><trkpt lat="40.913" lon="14.1450933"><ele>94.0</ele><time>2026-03-24T14:06:39.118Z</time></trkpt><trkpt lat="40.913045" lon="14.14519"><ele>94.4</ele><time>2026-03-24T14:06:41.118Z</time></trkpt><trkpt lat="40.9131083" lon="14.1452667"><ele>94.80000000000001</ele><time>2026-03-24T14:06:43.119Z</time></trkpt><trkpt lat="40.9131883" lon="14.1453167"><ele>95.19999999999999</ele><time>2026-03-24T14:06:45.118Z</time></trkpt><trkpt lat="40.9132783" lon="14.1453933"><ele>95.6</ele><time>2026-03-24T14:06:47.118Z</time></trkpt><trkpt lat="40.913375" lon="14.1455"><ele>96.0</ele><time>2026-03-24T14:06:49.118Z</time></trkpt><trkpt lat="40.9134267" lon="14.14556"><ele>95.99999999999999</ele><time>2026-03-24T14:06:50.118Z</time></trkpt><trkpt lat="40.9134767" lon="14.1456183"><ele>96.0</ele><time>2026-03-24T14:06:51.117Z</time></trkpt><trkpt lat="40.91353" lon="14.1456767"><ele>96.0</ele><time>2026-03-24T14:06:52.119Z</time></trkpt><trkpt lat="40.9135817" lon="14.1457367"><ele>96.0</ele><time>2026-03-24T14:06:53.118Z</time></trkpt><trkpt lat="40.9136333" lon="14.1458"><ele>96.0</ele><time>2026-03-24T14:06:54.118Z</time></trkpt><trkpt lat="40.9136833" lon="14.1458667"><ele>95.99999999999999</ele><time>2026-03-24T14:06:55.118Z</time></trkpt><trkpt lat="40.9137383" lon="14.1459333"><ele>96.0</ele><time>2026-03-24T14:06:56.119Z</time></trkpt><trkpt lat="40.913795" lon="14.145995"><ele>96.33333333333333</ele><time>2026-03-24T14:06:57.118Z</time></trkpt><trkpt lat="40.9138533" lon="14.1460583"><ele>96.66666666666666</ele><time>2026-03-24T14:06:58.117Z</time></trkpt><trkpt lat="40.9139117" lon="14.1461217"><ele>97.0</ele><time>2026-03-24T14:06:59.121Z</time></trkpt><trkpt lat="40.9139683" lon="14.1461867"><ele>97.33333333333333</ele><time>2026-03-24T14:07:00.119Z</time></trkpt><trkpt lat="40.9140217" lon="14.1462533"><ele>97.66666666666666</ele><time>2026-03-24T14:07:01.118Z</time></trkpt><trkpt lat="40.91408" lon="14.1463167"><ele>98.0</ele><time>2026-03-24T14:07:02.118Z</time></trkpt><trkpt lat="40.9141383" lon="14.14638"><ele>98.0</ele><time>2026-03-24T14:07:03.118Z</time></trkpt><trkpt lat="40.9142017" lon="14.1464367"><ele>98.0</ele><time>2026-03-24T14:07:04.117Z</time></trkpt><trkpt lat="40.9142617" lon="14.146495"><ele>98.0</ele><time>2026-03-24T14:07:05.117Z</time></trkpt><trkpt lat="40.91432" lon="14.1465533"><ele>98.0</ele><time>2026-03-24T14:07:06.118Z</time></trkpt><trkpt lat="40.9143733" lon="14.1466117"><ele>98.0</ele><time>2026-03-24T14:07:07.118Z</time></trkpt><trkpt lat="40.9144283" lon="14.146665"><ele>98.0</ele><time>2026-03-24T14:07:08.119Z</time></trkpt><trkpt lat="40.9144817" lon="14.1467167"><ele>98.0</ele><time>2026-03-24T14:07:09.118Z</time></trkpt><trkpt lat="40.91453" lon="14.1467783"><ele>98.28571428571429</ele><time>2026-03-24T14:07:10.118Z</time></trkpt><trkpt lat="40.91458" lon="14.1468383"><ele>98.57142857142857</ele><time>2026-03-24T14:07:11.119Z</time></trkpt><trkpt lat="40.9146267" lon="14.1468983"><ele>98.85714285714286</ele><time>2026-03-24T14:07:12.119Z</time></trkpt><trkpt lat="40.914675" lon="14.146955"><ele>99.14285714285714</ele><time>2026-03-24T14:07:13.118Z</time></trkpt><trkpt lat="40.914725" lon="14.147015"><ele>99.42857142857143</ele><time>2026-03-24T14:07:14.118Z</time></trkpt><trkpt lat="40.9147733" lon="14.1470783"><ele>99.71428571428572</ele><time>2026-03-24T14:07:15.118Z</time></trkpt><trkpt lat="40.914825" lon="14.1471383"><ele>100.0</ele><time>2026-03-24T14:07:16.117Z</time></trkpt><trkpt lat="40.9148783" lon="14.147195"><ele>100.00000000000001</ele><time>2026-03-24T14:07:17.118Z</time></trkpt><trkpt lat="40.91493" lon="14.14725"><ele>100.0</ele><time>2026-03-24T14:07:18.118Z</time></trkpt><trkpt lat="40.91498" lon="14.1473067"><ele>100.0</ele><time>2026-03-24T14:07:19.118Z</time></trkpt><trkpt lat="40.9150317" lon="14.1473633"><ele>100.0</ele><time>2026-03-24T14:07:20.118Z</time></trkpt><trkpt lat="40.9150867" lon="14.1474233"><ele>100.0</ele><time>2026-03-24T14:07:21.118Z</time></trkpt><trkpt lat="40.9151417" lon="14.1474783"><ele>100.00000000000001</ele><time>2026-03-24T14:07:22.118Z</time></trkpt><trkpt lat="40.9151933" lon="14.1475417"><ele>100.0</ele><time>2026-03-24T14:07:23.118Z</time></trkpt><trkpt lat="40.9152433" lon="14.147605"><ele>100.28571428571429</ele><time>2026-03-24T14:07:24.118Z</time></trkpt><trkpt lat="40.9152967" lon="14.147665"><ele>100.57142857142857</ele><time>2026-03-24T14:07:25.118Z</time></trkpt><trkpt lat="40.9153517" lon="14.14773"><ele>100.85714285714286</ele><time>2026-03-24T14:07:26.118Z</time></trkpt><trkpt lat="40.915405" lon="14.147795"><ele>101.14285714285714</ele><time>2026-03-24T14:07:27.117Z</time></trkpt><trkpt lat="40.91546" lon="14.1478567"><ele>101.42857142857143</ele><time>2026-03-24T14:07:28.117Z</time></trkpt><trkpt lat="40.9155133" lon="14.1479183"><ele>101.71428571428572</ele><time>2026-03-24T14:07:29.119Z</time></trkpt><trkpt lat="40.9155633" lon="14.14798"><ele>102.0</ele><time>2026-03-24T14:07:30.118Z</time></trkpt><trkpt lat="40.91562" lon="14.1480367"><ele>102.0</ele><time>2026-03-24T14:07:31.118Z</time></trkpt><trkpt lat="40.9156783" lon="14.14809"><ele>102.0</ele><time>2026-03-24T14:07:32.118Z</time></trkpt><trkpt lat="40.9157367" lon="14.14815"><ele>102.0</ele><time>2026-03-24T14:07:33.117Z</time></trkpt><trkpt lat="40.9157933" lon="14.14821"><ele>102.0</ele><time>2026-03-24T14:07:34.117Z</time></trkpt><trkpt lat="40.9158517" lon="14.1482683"><ele>102.0</ele><time>2026-03-24T14:07:35.117Z</time></trkpt><trkpt lat="40.9159117" lon="14.1483267"><ele>102.0</ele><time>2026-03-24T14:07:36.118Z</time></trkpt><trkpt lat="40.9159667" lon="14.1483917"><ele>102.0</ele><time>2026-03-24T14:07:37.118Z</time></trkpt><trkpt lat="40.91602" lon="14.148455"><ele>102.0</ele><time>2026-03-24T14:07:38.118Z</time></trkpt><trkpt lat="40.9160717" lon="14.14852"><ele>102.0</ele><time>2026-03-24T14:07:39.118Z</time></trkpt><trkpt lat="40.916125" lon="14.1485783"><ele>102.0</ele><time>2026-03-24T14:07:40.117Z</time></trkpt><trkpt lat="40.9161767" lon="14.1486333"><ele>102.0</ele><time>2026-03-24T14:07:41.117Z</time></trkpt><trkpt lat="40.91623" lon="14.1486933"><ele>102.0</ele><time>2026-03-24T14:07:42.118Z</time></trkpt><trkpt lat="40.9162817" lon="14.1487567"><ele>102.0</ele><time>2026-03-24T14:07:43.119Z</time></trkpt><trkpt lat="40.9163333" lon="14.1488217"><ele>102.0</ele><time>2026-03-24T14:07:44.118Z</time></trkpt><trkpt lat="40.9163867" lon="14.148885"><ele>102.0</ele><time>2026-03-24T14:07:45.118Z</time></trkpt><trkpt lat="40.916445" lon="14.1489467"><ele>102.0</ele><time>2026-03-24T14:07:46.117Z</time></trkpt><trkpt lat="40.9165017" lon="14.1490133"><ele>102.0</ele><time>2026-03-24T14:07:47.118Z</time></trkpt><trkpt lat="40.916565" lon="14.1490733"><ele>102.0</ele><time>2026-03-24T14:07:48.118Z</time></trkpt><trkpt lat="40.916625" lon="14.149135"><ele>102.0</ele><time>2026-03-24T14:07:49.117Z</time></trkpt><trkpt lat="40.9166817" lon="14.1491983"><ele>102.0</ele><time>2026-03-24T14:07:50.118Z</time></trkpt><trkpt lat="40.9167383" lon="14.1492567"><ele>101.83333333333333</ele><time>2026-03-24T14:07:51.118Z</time></trkpt><trkpt lat="40.9167967" lon="14.1493133"><ele>101.66666666666666</ele><time>2026-03-24T14:07:52.117Z</time></trkpt><trkpt lat="40.91685" lon="14.1493717"><ele>101.5</ele><time>2026-03-24T14:07:53.118Z</time></trkpt><trkpt lat="40.9169017" lon="14.1494233"><ele>101.33333333333333</ele><time>2026-03-24T14:07:54.118Z</time></trkpt><trkpt lat="40.9169533" lon="14.149475"><ele>101.16666666666666</ele><time>2026-03-24T14:07:55.117Z</time></trkpt><trkpt lat="40.91705" lon="14.1495717"><ele>101.0</ele><time>2026-03-24T14:07:57.117Z</time></trkpt><trkpt lat="40.9171417" lon="14.149665"><ele>101.0</ele><time>2026-03-24T14:07:59.118Z</time></trkpt><trkpt lat="40.91722" lon="14.1497733"><ele>101.0</ele><time>2026-03-24T14:08:01.117Z</time></trkpt><trkpt lat="40.917295" lon="14.1498883"><ele>101.0</ele><time>2026-03-24T14:08:03.117Z</time></trkpt><trkpt lat="40.9173783" lon="14.1500017"><ele>101.0</ele><time>2026-03-24T14:08:05.118Z</time></trkpt><trkpt lat="40.91746" lon="14.1501083"><ele>101.25</ele><time>2026-03-24T14:08:07.117Z</time></trkpt><trkpt lat="40.9175367" lon="14.150225"><ele>101.5</ele><time>2026-03-24T14:08:09.118Z</time></trkpt><trkpt lat="40.9176133" lon="14.1503433"><ele>101.75</ele><time>2026-03-24T14:08:11.118Z</time></trkpt><trkpt lat="40.9176883" lon="14.150465"><ele>102.0</ele><time>2026-03-24T14:08:13.118Z</time></trkpt><trkpt lat="40.9177583" lon="14.1505883"><ele>102.19999999999999</ele><time>2026-03-24T14:08:15.117Z</time></trkpt><trkpt lat="40.917825" lon="14.1507133"><ele>102.4</ele><time>2026-03-24T14:08:17.118Z</time></trkpt><trkpt lat="40.9178817" lon="14.1508483"><ele>102.6</ele><time>2026-03-24T14:08:19.117Z</time></trkpt><trkpt lat="40.9179367" lon="14.1509817"><ele>102.80000000000001</ele><time>2026-03-24T14:08:21.117Z</time></trkpt><trkpt lat="40.9179833" lon="14.1511017"><ele>103.0</ele><time>2026-03-24T14:08:23.117Z</time></trkpt><trkpt lat="40.9180017" lon="14.1511983"><ele>103.00000000000001</ele><time>2026-03-24T14:08:26.118Z</time></trkpt><trkpt lat="40.9179267" lon="14.1512433"><ele>103.0</ele><time>2026-03-24T14:08:29.118Z</time></trkpt><trkpt lat="40.917845" lon="14.1512717"><ele>103.0</ele><time>2026-03-24T14:08:32.119Z</time></trkpt><trkpt lat="40.9177717" lon="14.15129"><ele>103.0</ele><time>2026-03-24T14:08:34.118Z</time></trkpt><trkpt lat="40.91768" lon="14.151315"><ele>103.00000000000001</ele><time>2026-03-24T14:08:36.118Z</time></trkpt><trkpt lat="40.9175733" lon="14.1513517"><ele>103.0</ele><time>2026-03-24T14:08:38.118Z</time></trkpt><trkpt lat="40.9174817" lon="14.1513883"><ele>103.00000000000001</ele><time>2026-03-24T14:08:40.12Z</time></trkpt><trkpt lat="40.91742" lon="14.1514567"><ele>103.0</ele><time>2026-03-24T14:08:42.118Z</time></trkpt><trkpt lat="40.91738" lon="14.1515283"><ele>103.0</ele><time>2026-03-24T14:08:44.119Z</time></trkpt><trkpt lat="40.9173333" lon="14.1515917"><ele>103.0</ele><time>2026-03-24T14:09:30.118Z</time></trkpt><trkpt lat="40.917405" lon="14.151585"><ele>103.00000000000001</ele><time>2026-03-24T14:12:21.119Z</time></trkpt><trkpt lat="40.9174083" lon="14.1517133"><ele>103.0</ele><time>2026-03-24T14:13:05.119Z</time></trkpt><trkpt lat="40.9174233" lon="14.1518233"><ele>103.00000000000001</ele><time>2026-03-24T14:13:09.118Z</time></trkpt><trkpt lat="40.917475" lon="14.15191"><ele>103.0</ele><time>2026-03-24T14:13:12.118Z</time></trkpt><trkpt lat="40.9175083" lon="14.152"><ele>103.0</ele><time>2026-03-24T14:13:15.118Z</time></trkpt><trkpt lat="40.9175333" lon="14.1520867"><ele>103.0</ele><time>2026-03-24T14:13:18.118Z</time></trkpt><trkpt lat="40.91758" lon="14.15217"><ele>103.00000000000001</ele><time>2026-03-24T14:13:21.119Z</time></trkpt><trkpt lat="40.9176183" lon="14.1522683"><ele>103.0</ele><time>2026-03-24T14:13:24.119Z</time></trkpt><trkpt lat="40.9176583" lon="14.1523683"><ele>103.14285714285714</ele><time>2026-03-24T14:13:27.117Z</time></trkpt><trkpt lat="40.9176783" lon="14.1524633"><ele>103.28571428571428</ele><time>2026-03-24T14:13:30.118Z</time></trkpt><trkpt lat="40.917705" lon="14.1525433"><ele>103.42857142857142</ele><time>2026-03-24T14:13:33.118Z</time></trkpt><trkpt lat="40.917735" lon="14.15262"><ele>103.57142857142857</ele><time>2026-03-24T14:13:36.118Z</time></trkpt><trkpt lat="40.9177933" lon="14.1526667"><ele>103.71428571428572</ele><time>2026-03-24T14:13:39.119Z</time></trkpt><trkpt lat="40.917865" lon="14.152675"><ele>103.85714285714285</ele><time>2026-03-24T14:13:43.118Z</time></trkpt><trkpt lat="40.9179517" lon="14.152635"><ele>104.0</ele><time>2026-03-24T14:13:46.117Z</time></trkpt><trkpt lat="40.9180133" lon="14.152615"><ele>103.99999999999999</ele><time>2026-03-24T14:13:48.119Z</time></trkpt><trkpt lat="40.9180933" lon="14.1525717"><ele>104.0</ele><time>2026-03-24T14:13:51.119Z</time></trkpt><trkpt lat="40.9181517" lon="14.1525333"><ele>104.0</ele><time>2026-03-24T14:13:53.118Z</time></trkpt><trkpt lat="40.9182217" lon="14.1525083"><ele>104.0</ele><time>2026-03-24T14:13:55.118Z</time></trkpt><trkpt lat="40.9182967" lon="14.1524833"><ele>103.99999999999999</ele><time>2026-03-24T14:13:58.119Z</time></trkpt><trkpt lat="40.9183717" lon="14.152435"><ele>104.0</ele><time>2026-03-24T14:14:01.119Z</time></trkpt><trkpt lat="40.9184383" lon="14.1524367"><ele>103.83333333333333</ele><time>2026-03-24T14:14:04.118Z</time></trkpt><trkpt lat="40.9184817" lon="14.1525217"><ele>103.66666666666666</ele><time>2026-03-24T14:14:07.118Z</time></trkpt><trkpt lat="40.9185083" lon="14.15264"><ele>103.5</ele><time>2026-03-24T14:14:10.118Z</time></trkpt><trkpt lat="40.9185367" lon="14.152735"><ele>103.33333333333334</ele><time>2026-03-24T14:14:12.119Z</time></trkpt><trkpt lat="40.9185567" lon="14.1528233"><ele>103.16666666666667</ele><time>2026-03-24T14:14:14.118Z</time></trkpt><trkpt lat="40.91857" lon="14.1529117"><ele>103.0</ele><time>2026-03-24T14:14:16.117Z</time></trkpt><trkpt lat="40.9185717" lon="14.1530267"><ele>103.00000000000001</ele><time>2026-03-24T14:14:19.118Z</time></trkpt><trkpt lat="40.9186083" lon="14.15313"><ele>103.0</ele><time>2026-03-24T14:14:22.12Z</time></trkpt><trkpt lat="40.91864" lon="14.15323"><ele>103.0</ele><time>2026-03-24T14:14:24.12Z</time></trkpt><trkpt lat="40.9186917" lon="14.15332"><ele>103.0</ele><time>2026-03-24T14:14:26.119Z</time></trkpt><trkpt lat="40.9187117" lon="14.153425"><ele>103.00000000000001</ele><time>2026-03-24T14:14:28.118Z</time></trkpt><trkpt lat="40.9187267" lon="14.1535233"><ele>103.0</ele><time>2026-03-24T14:14:30.119Z</time></trkpt><trkpt lat="40.918735" lon="14.153635"><ele>103.2</ele><time>2026-03-24T14:14:32.119Z</time></trkpt><trkpt lat="40.918755" lon="14.1537283"><ele>103.4</ele><time>2026-03-24T14:14:34.119Z</time></trkpt><trkpt lat="40.9188033" lon="14.1538067"><ele>103.60000000000001</ele><time>2026-03-24T14:14:36.118Z</time></trkpt><trkpt lat="40.9188567" lon="14.153905"><ele>103.80000000000001</ele><time>2026-03-24T14:14:38.118Z</time></trkpt><trkpt lat="40.9189017" lon="14.154035"><ele>104.0</ele><time>2026-03-24T14:14:40.119Z</time></trkpt><trkpt lat="40.9189467" lon="14.154185"><ele>104.28571428571428</ele><time>2026-03-24T14:14:42.118Z</time></trkpt><trkpt lat="40.9189767" lon="14.1542733"><ele>104.57142857142858</ele><time>2026-03-24T14:14:43.118Z</time></trkpt><trkpt lat="40.9189983" lon="14.154355"><ele>104.85714285714286</ele><time>2026-03-24T14:14:44.118Z</time></trkpt><trkpt lat="40.9190317" lon="14.1544383"><ele>105.14285714285714</ele><time>2026-03-24T14:14:45.119Z</time></trkpt><trkpt lat="40.91906" lon="14.1545233"><ele>105.42857142857142</ele><time>2026-03-24T14:14:46.117Z</time></trkpt><trkpt lat="40.9190917" lon="14.1546167"><ele>105.71428571428572</ele><time>2026-03-24T14:14:47.118Z</time></trkpt><trkpt lat="40.9191183" lon="14.15471"><ele>106.0</ele><time>2026-03-24T14:14:48.118Z</time></trkpt><trkpt lat="40.919145" lon="14.1548"><ele>105.85714285714286</ele><time>2026-03-24T14:14:49.119Z</time></trkpt><trkpt lat="40.9191783" lon="14.1548883"><ele>105.71428571428571</ele><time>2026-03-24T14:14:50.118Z</time></trkpt><trkpt lat="40.9192083" lon="14.154975"><ele>105.57142857142857</ele><time>2026-03-24T14:14:51.119Z</time></trkpt><trkpt lat="40.9192367" lon="14.1550617"><ele>105.42857142857143</ele><time>2026-03-24T14:14:52.118Z</time></trkpt><trkpt lat="40.919265" lon="14.1551467"><ele>105.28571428571428</ele><time>2026-03-24T14:14:53.126Z</time></trkpt><trkpt lat="40.91929" lon="14.1552317"><ele>105.14285714285714</ele><time>2026-03-24T14:14:54.118Z</time></trkpt><trkpt lat="40.919315" lon="14.15532"><ele>105.0</ele><time>2026-03-24T14:14:55.12Z</time></trkpt><trkpt lat="40.9193467" lon="14.155405"><ele>105.0</ele><time>2026-03-24T14:14:56.119Z</time></trkpt><trkpt lat="40.919375" lon="14.15549"><ele>105.0</ele><time>2026-03-24T14:14:57.119Z</time></trkpt><trkpt lat="40.9194017" lon="14.1555733"><ele>105.0</ele><time>2026-03-24T14:14:58.118Z</time></trkpt><trkpt lat="40.9194283" lon="14.1556533"><ele>105.0</ele><time>2026-03-24T14:14:59.118Z</time></trkpt><trkpt lat="40.9194533" lon="14.1557367"><ele>105.0</ele><time>2026-03-24T14:15:00.119Z</time></trkpt><trkpt lat="40.9194767" lon="14.1558233"><ele>105.0</ele><time>2026-03-24T14:15:01.119Z</time></trkpt><trkpt lat="40.9195017" lon="14.15591"><ele>105.0</ele><time>2026-03-24T14:15:02.118Z</time></trkpt><trkpt lat="40.9195233" lon="14.15599"><ele>105.0</ele><time>2026-03-24T14:15:03.118Z</time></trkpt><trkpt lat="40.9195483" lon="14.1560683"><ele>105.0</ele><time>2026-03-24T14:15:04.119Z</time></trkpt><trkpt lat="40.9195733" lon="14.15615"><ele>105.0</ele><time>2026-03-24T14:15:05.118Z</time></trkpt><trkpt lat="40.9196017" lon="14.1562317"><ele>105.0</ele><time>2026-03-24T14:15:06.12Z</time></trkpt><trkpt lat="40.91963" lon="14.1563117"><ele>105.0</ele><time>2026-03-24T14:15:07.119Z</time></trkpt><trkpt lat="40.919655" lon="14.1563967"><ele>105.0</ele><time>2026-03-24T14:15:08.118Z</time></trkpt><trkpt lat="40.9196817" lon="14.156485"><ele>105.0</ele><time>2026-03-24T14:15:09.119Z</time></trkpt><trkpt lat="40.9197083" lon="14.1565683"><ele>105.0</ele><time>2026-03-24T14:15:10.119Z</time></trkpt><trkpt lat="40.9197383" lon="14.15665"><ele>105.0</ele><time>2026-03-24T14:15:11.118Z</time></trkpt><trkpt lat="40.919765" lon="14.15673"><ele>105.0</ele><time>2026-03-24T14:15:12.119Z</time></trkpt><trkpt lat="40.9197883" lon="14.156815"><ele>105.0</ele><time>2026-03-24T14:15:13.119Z</time></trkpt><trkpt lat="40.9198117" lon="14.1568967"><ele>105.0</ele><time>2026-03-24T14:15:14.119Z</time></trkpt><trkpt lat="40.9198333" lon="14.15698"><ele>105.0</ele><time>2026-03-24T14:15:15.118Z</time></trkpt><trkpt lat="40.91986" lon="14.1570617"><ele>105.0</ele><time>2026-03-24T14:15:16.118Z</time></trkpt><trkpt lat="40.9198817" lon="14.1571467"><ele>105.0</ele><time>2026-03-24T14:15:17.118Z</time></trkpt><trkpt lat="40.9199067" lon="14.1572267"><ele>105.0</ele><time>2026-03-24T14:15:18.119Z</time></trkpt><trkpt lat="40.9199283" lon="14.1573067"><ele>105.0</ele><time>2026-03-24T14:15:19.12Z</time></trkpt><trkpt lat="40.9199533" lon="14.15739"><ele>105.0</ele><time>2026-03-24T14:15:20.12Z</time></trkpt><trkpt lat="40.919975" lon="14.157475"><ele>105.0</ele><time>2026-03-24T14:15:21.118Z</time></trkpt><trkpt lat="40.9200017" lon="14.1575633"><ele>105.0</ele><time>2026-03-24T14:15:22.12Z</time></trkpt><trkpt lat="40.920025" lon="14.1576533"><ele>105.0</ele><time>2026-03-24T14:15:23.119Z</time></trkpt><trkpt lat="40.9200517" lon="14.1577367"><ele>105.14285714285714</ele><time>2026-03-24T14:15:24.119Z</time></trkpt><trkpt lat="40.920075" lon="14.157825"><ele>105.28571428571428</ele><time>2026-03-24T14:15:25.118Z</time></trkpt><trkpt lat="40.9200983" lon="14.1579133"><ele>105.42857142857143</ele><time>2026-03-24T14:15:26.122Z</time></trkpt><trkpt lat="40.920125" lon="14.158"><ele>105.57142857142857</ele><time>2026-03-24T14:15:27.118Z</time></trkpt><trkpt lat="40.9201483" lon="14.158085"><ele>105.71428571428571</ele><time>2026-03-24T14:15:28.12Z</time></trkpt><trkpt lat="40.9201733" lon="14.15817"><ele>105.85714285714286</ele><time>2026-03-24T14:15:29.118Z</time></trkpt><trkpt lat="40.9202" lon="14.1582567"><ele>106.0</ele><time>2026-03-24T14:15:30.119Z</time></trkpt><trkpt lat="40.920225" lon="14.1583433"><ele>106.00000000000001</ele><time>2026-03-24T14:15:31.118Z</time></trkpt><trkpt lat="40.9202517" lon="14.1584283"><ele>106.0</ele><time>2026-03-24T14:15:32.119Z</time></trkpt><trkpt lat="40.9202767" lon="14.158515"><ele>106.0</ele><time>2026-03-24T14:15:33.119Z</time></trkpt><trkpt lat="40.9203017" lon="14.1586"><ele>106.0</ele><time>2026-03-24T14:15:34.118Z</time></trkpt><trkpt lat="40.9203283" lon="14.1586817"><ele>106.00000000000001</ele><time>2026-03-24T14:15:35.12Z</time></trkpt><trkpt lat="40.920355" lon="14.1587617"><ele>106.0</ele><time>2026-03-24T14:15:36.119Z</time></trkpt><trkpt lat="40.9204017" lon="14.1589117"><ele>106.00000000000001</ele><time>2026-03-24T14:15:38.119Z</time></trkpt><trkpt lat="40.9204517" lon="14.1590583"><ele>106.0</ele><time>2026-03-24T14:15:40.119Z</time></trkpt><trkpt lat="40.9204783" lon="14.159135"><ele>106.0</ele><time>2026-03-24T14:15:41.121Z</time></trkpt><trkpt lat="40.920505" lon="14.1592133"><ele>106.0</ele><time>2026-03-24T14:15:42.119Z</time></trkpt><trkpt lat="40.9205333" lon="14.1592933"><ele>106.00000000000001</ele><time>2026-03-24T14:15:43.119Z</time></trkpt><trkpt lat="40.92056" lon="14.1593767"><ele>106.0</ele><time>2026-03-24T14:15:44.119Z</time></trkpt><trkpt lat="40.920585" lon="14.1594567"><ele>106.0</ele><time>2026-03-24T14:15:45.118Z</time></trkpt><trkpt lat="40.9206117" lon="14.1595383"><ele>106.0</ele><time>2026-03-24T14:15:46.119Z</time></trkpt><trkpt lat="40.9206417" lon="14.159625"><ele>106.0</ele><time>2026-03-24T14:15:47.119Z</time></trkpt><trkpt lat="40.9206733" lon="14.1597117"><ele>106.0</ele><time>2026-03-24T14:15:48.119Z</time></trkpt><trkpt lat="40.9207033" lon="14.1597967"><ele>106.0</ele><time>2026-03-24T14:15:49.12Z</time></trkpt><trkpt lat="40.9207283" lon="14.1598833"><ele>106.0</ele><time>2026-03-24T14:15:50.12Z</time></trkpt><trkpt lat="40.920755" lon="14.15997"><ele>106.0</ele><time>2026-03-24T14:15:51.118Z</time></trkpt><trkpt lat="40.92078" lon="14.1600567"><ele>106.0</ele><time>2026-03-24T14:15:52.119Z</time></trkpt><trkpt lat="40.9208067" lon="14.16014"><ele>106.0</ele><time>2026-03-24T14:15:53.119Z</time></trkpt><trkpt lat="40.9208333" lon="14.160225"><ele>106.0</ele><time>2026-03-24T14:15:54.118Z</time></trkpt><trkpt lat="40.920855" lon="14.160315"><ele>106.0</ele><time>2026-03-24T14:15:55.118Z</time></trkpt><trkpt lat="40.92088" lon="14.1604083"><ele>106.0</ele><time>2026-03-24T14:15:56.119Z</time></trkpt><trkpt lat="40.920905" lon="14.1605017"><ele>106.0</ele><time>2026-03-24T14:15:57.118Z</time></trkpt><trkpt lat="40.92093" lon="14.1605917"><ele>106.0</ele><time>2026-03-24T14:15:58.118Z</time></trkpt><trkpt lat="40.920955" lon="14.1606817"><ele>106.0</ele><time>2026-03-24T14:15:59.118Z</time></trkpt><trkpt lat="40.9209817" lon="14.16077"><ele>106.0</ele><time>2026-03-24T14:16:00.118Z</time></trkpt><trkpt lat="40.921005" lon="14.1608583"><ele>106.0</ele><time>2026-03-24T14:16:01.12Z</time></trkpt><trkpt lat="40.9210317" lon="14.1609467"><ele>106.0</ele><time>2026-03-24T14:16:02.119Z</time></trkpt><trkpt lat="40.92106" lon="14.1610333"><ele>106.0</ele><time>2026-03-24T14:16:03.119Z</time></trkpt><trkpt lat="40.9210883" lon="14.16112"><ele>106.0</ele><time>2026-03-24T14:16:04.119Z</time></trkpt><trkpt lat="40.921115" lon="14.1612083"><ele>106.0</ele><time>2026-03-24T14:16:05.118Z</time></trkpt><trkpt lat="40.92114" lon="14.161295"><ele>106.0</ele><time>2026-03-24T14:16:06.123Z</time></trkpt><trkpt lat="40.9211633" lon="14.16138"><ele>106.0</ele><time>2026-03-24T14:16:07.119Z</time></trkpt><trkpt lat="40.9211883" lon="14.1614633"><ele>106.0</ele><time>2026-03-24T14:16:08.122Z</time></trkpt><trkpt lat="40.9212133" lon="14.1615483"><ele>106.0</ele><time>2026-03-24T14:16:09.119Z</time></trkpt><trkpt lat="40.92124" lon="14.1616317"><ele>106.0</ele><time>2026-03-24T14:16:10.118Z</time></trkpt><trkpt lat="40.9212683" lon="14.161715"><ele>106.0</ele><time>2026-03-24T14:16:11.119Z</time></trkpt><trkpt lat="40.921295" lon="14.1617983"><ele>106.0</ele><time>2026-03-24T14:16:12.12Z</time></trkpt><trkpt lat="40.9213233" lon="14.1618817"><ele>106.14285714285715</ele><time>2026-03-24T14:16:13.119Z</time></trkpt><trkpt lat="40.9213483" lon="14.1619683"><ele>106.28571428571428</ele><time>2026-03-24T14:16:14.119Z</time></trkpt><trkpt lat="40.92137" lon="14.162055"><ele>106.42857142857143</ele><time>2026-03-24T14:16:15.119Z</time></trkpt><trkpt lat="40.9213917" lon="14.162145"><ele>106.57142857142858</ele><time>2026-03-24T14:16:16.118Z</time></trkpt><trkpt lat="40.9214217" lon="14.1622317"><ele>106.71428571428572</ele><time>2026-03-24T14:16:17.12Z</time></trkpt><trkpt lat="40.92145" lon="14.1623167"><ele>106.85714285714286</ele><time>2026-03-24T14:16:18.119Z</time></trkpt><trkpt lat="40.9214783" lon="14.1624033"><ele>107.0</ele><time>2026-03-24T14:16:19.118Z</time></trkpt><trkpt lat="40.9215067" lon="14.1624917"><ele>107.14285714285715</ele><time>2026-03-24T14:16:20.118Z</time></trkpt><trkpt lat="40.9215317" lon="14.1625817"><ele>107.28571428571429</ele><time>2026-03-24T14:16:21.118Z</time></trkpt><trkpt lat="40.9215567" lon="14.1626733"><ele>107.42857142857143</ele><time>2026-03-24T14:16:22.118Z</time></trkpt><trkpt lat="40.92158" lon="14.1627667"><ele>107.57142857142858</ele><time>2026-03-24T14:16:23.119Z</time></trkpt><trkpt lat="40.921605" lon="14.16286"><ele>107.71428571428571</ele><time>2026-03-24T14:16:24.119Z</time></trkpt><trkpt lat="40.9216333" lon="14.162955"><ele>107.85714285714286</ele><time>2026-03-24T14:16:25.119Z</time></trkpt><trkpt lat="40.92166" lon="14.16305"><ele>108.0</ele><time>2026-03-24T14:16:26.119Z</time></trkpt><trkpt lat="40.9216867" lon="14.1631433"><ele>108.16666666666667</ele><time>2026-03-24T14:16:27.12Z</time></trkpt><trkpt lat="40.921715" lon="14.1632383"><ele>108.33333333333334</ele><time>2026-03-24T14:16:28.12Z</time></trkpt><trkpt lat="40.9217417" lon="14.163335"><ele>108.5</ele><time>2026-03-24T14:16:29.119Z</time></trkpt><trkpt lat="40.9217683" lon="14.1634283"><ele>108.66666666666667</ele><time>2026-03-24T14:16:30.119Z</time></trkpt><trkpt lat="40.9217933" lon="14.1635233"><ele>108.83333333333334</ele><time>2026-03-24T14:16:31.118Z</time></trkpt><trkpt lat="40.9218183" lon="14.16362"><ele>109.0</ele><time>2026-03-24T14:16:32.119Z</time></trkpt><trkpt lat="40.9218467" lon="14.1637133"><ele>109.0</ele><time>2026-03-24T14:16:33.118Z</time></trkpt><trkpt lat="40.921875" lon="14.1638067"><ele>109.0</ele><time>2026-03-24T14:16:34.119Z</time></trkpt><trkpt lat="40.9219017" lon="14.1638983"><ele>109.0</ele><time>2026-03-24T14:16:35.12Z</time></trkpt><trkpt lat="40.9219283" lon="14.16399"><ele>109.0</ele><time>2026-03-24T14:16:36.119Z</time></trkpt><trkpt lat="40.9219567" lon="14.16408"><ele>109.0</ele><time>2026-03-24T14:16:37.118Z</time></trkpt><trkpt lat="40.9219817" lon="14.1641683"><ele>109.0</ele><time>2026-03-24T14:16:38.119Z</time></trkpt><trkpt lat="40.92201" lon="14.16426"><ele>109.0</ele><time>2026-03-24T14:16:39.118Z</time></trkpt><trkpt lat="40.92204" lon="14.1643483"><ele>109.00000000000001</ele><time>2026-03-24T14:16:40.117Z</time></trkpt><trkpt lat="40.922065" lon="14.1644383"><ele>109.0</ele><time>2026-03-24T14:16:41.12Z</time></trkpt><trkpt lat="40.92209" lon="14.16453"><ele>109.0</ele><time>2026-03-24T14:16:42.119Z</time></trkpt><trkpt lat="40.922115" lon="14.164625"><ele>109.0</ele><time>2026-03-24T14:16:43.118Z</time></trkpt><trkpt lat="40.922145" lon="14.1647183"><ele>109.00000000000001</ele><time>2026-03-24T14:16:44.118Z</time></trkpt><trkpt lat="40.9221767" lon="14.1648117"><ele>109.0</ele><time>2026-03-24T14:16:45.117Z</time></trkpt><trkpt lat="40.9222067" lon="14.1649017"><ele>109.00000000000001</ele><time>2026-03-24T14:16:46.118Z</time></trkpt><trkpt lat="40.9222383" lon="14.1649933"><ele>109.0</ele><time>2026-03-24T14:16:47.118Z</time></trkpt><trkpt lat="40.92227" lon="14.1650883"><ele>109.0</ele><time>2026-03-24T14:16:48.118Z</time></trkpt><trkpt lat="40.9222983" lon="14.1651817"><ele>109.0</ele><time>2026-03-24T14:16:49.119Z</time></trkpt><trkpt lat="40.92233" lon="14.165275"><ele>109.00000000000001</ele><time>2026-03-24T14:16:50.119Z</time></trkpt><trkpt lat="40.9223617" lon="14.1653667"><ele>109.0</ele><time>2026-03-24T14:16:51.118Z</time></trkpt><trkpt lat="40.9223933" lon="14.1654583"><ele>109.00000000000001</ele><time>2026-03-24T14:16:52.119Z</time></trkpt><trkpt lat="40.9224217" lon="14.1655483"><ele>109.0</ele><time>2026-03-24T14:16:53.118Z</time></trkpt><trkpt lat="40.92245" lon="14.165635"><ele>109.0</ele><time>2026-03-24T14:16:54.119Z</time></trkpt><trkpt lat="40.92248" lon="14.1657233"><ele>109.0</ele><time>2026-03-24T14:16:55.118Z</time></trkpt><trkpt lat="40.9225067" lon="14.1658167"><ele>109.00000000000001</ele><time>2026-03-24T14:16:56.12Z</time></trkpt><trkpt lat="40.9225333" lon="14.1659133"><ele>109.0</ele><time>2026-03-24T14:16:57.118Z</time></trkpt><trkpt lat="40.92256" lon="14.1660117"><ele>109.00000000000001</ele><time>2026-03-24T14:16:58.12Z</time></trkpt><trkpt lat="40.92259" lon="14.16611"><ele>109.0</ele><time>2026-03-24T14:16:59.12Z</time></trkpt><trkpt lat="40.9226167" lon="14.166215"><ele>109.0</ele><time>2026-03-24T14:17:00.12Z</time></trkpt><trkpt lat="40.922645" lon="14.166315"><ele>109.0</ele><time>2026-03-24T14:17:01.122Z</time></trkpt><trkpt lat="40.92267" lon="14.1664167"><ele>109.00000000000001</ele><time>2026-03-24T14:17:02.12Z</time></trkpt><trkpt lat="40.9226933" lon="14.166515"><ele>109.0</ele><time>2026-03-24T14:17:03.118Z</time></trkpt><trkpt lat="40.922715" lon="14.1666133"><ele>109.16666666666667</ele><time>2026-03-24T14:17:04.117Z</time></trkpt><trkpt lat="40.9227467" lon="14.16671"><ele>109.33333333333334</ele><time>2026-03-24T14:17:05.117Z</time></trkpt><trkpt lat="40.9227767" lon="14.16681"><ele>109.5</ele><time>2026-03-24T14:17:06.117Z</time></trkpt><trkpt lat="40.9228067" lon="14.1669083"><ele>109.66666666666666</ele><time>2026-03-24T14:17:07.118Z</time></trkpt><trkpt lat="40.92284" lon="14.1670017"><ele>109.83333333333333</ele><time>2026-03-24T14:17:08.118Z</time></trkpt><trkpt lat="40.92287" lon="14.167095"><ele>110.0</ele><time>2026-03-24T14:17:09.119Z</time></trkpt><trkpt lat="40.9229033" lon="14.1671867"><ele>109.99999999999999</ele><time>2026-03-24T14:17:10.118Z</time></trkpt><trkpt lat="40.9229433" lon="14.167275"><ele>110.0</ele><time>2026-03-24T14:17:11.118Z</time></trkpt><trkpt lat="40.9229833" lon="14.1673567"><ele>110.0</ele><time>2026-03-24T14:17:12.118Z</time></trkpt><trkpt lat="40.9230233" lon="14.1674367"><ele>110.0</ele><time>2026-03-24T14:17:13.118Z</time></trkpt><trkpt lat="40.9230617" lon="14.1675183"><ele>110.0</ele><time>2026-03-24T14:17:14.117Z</time></trkpt><trkpt lat="40.92309" lon="14.1676017"><ele>109.99999999999999</ele><time>2026-03-24T14:17:15.12Z</time></trkpt><trkpt lat="40.9231133" lon="14.1676917"><ele>110.0</ele><time>2026-03-24T14:17:16.118Z</time></trkpt><trkpt lat="40.923135" lon="14.1677767"><ele>109.99999999999999</ele><time>2026-03-24T14:17:17.118Z</time></trkpt><trkpt lat="40.92316" lon="14.167865"><ele>110.0</ele><time>2026-03-24T14:17:18.118Z</time></trkpt><trkpt lat="40.92318" lon="14.1679533"><ele>110.0</ele><time>2026-03-24T14:17:19.119Z</time></trkpt><trkpt lat="40.9232" lon="14.16804"><ele>110.0</ele><time>2026-03-24T14:17:20.118Z</time></trkpt><trkpt lat="40.9232233" lon="14.168125"><ele>110.0</ele><time>2026-03-24T14:17:21.117Z</time></trkpt><trkpt lat="40.923245" lon="14.16821"><ele>109.99999999999999</ele><time>2026-03-24T14:17:22.118Z</time></trkpt><trkpt lat="40.92327" lon="14.1682933"><ele>110.0</ele><time>2026-03-24T14:17:23.117Z</time></trkpt><trkpt lat="40.923295" lon="14.1683767"><ele>109.99999999999999</ele><time>2026-03-24T14:17:24.118Z</time></trkpt><trkpt lat="40.9233217" lon="14.1684617"><ele>110.0</ele><time>2026-03-24T14:17:25.117Z</time></trkpt><trkpt lat="40.9233467" lon="14.1685467"><ele>110.0</ele><time>2026-03-24T14:17:26.118Z</time></trkpt><trkpt lat="40.9233683" lon="14.1686317"><ele>110.0</ele><time>2026-03-24T14:17:27.118Z</time></trkpt><trkpt lat="40.9233867" lon="14.1687183"><ele>110.0</ele><time>2026-03-24T14:17:28.119Z</time></trkpt><trkpt lat="40.9234" lon="14.16881"><ele>109.99999999999999</ele><time>2026-03-24T14:17:29.119Z</time></trkpt><trkpt lat="40.9234133" lon="14.1689033"><ele>110.0</ele><time>2026-03-24T14:17:30.118Z</time></trkpt><trkpt lat="40.9234217" lon="14.1690033"><ele>109.99999999999999</ele><time>2026-03-24T14:17:31.117Z</time></trkpt><trkpt lat="40.92343" lon="14.1690967"><ele>110.0</ele><time>2026-03-24T14:17:32.118Z</time></trkpt><trkpt lat="40.9234367" lon="14.1691917"><ele>110.0</ele><time>2026-03-24T14:17:33.118Z</time></trkpt><trkpt lat="40.92344" lon="14.16929"><ele>110.0</ele><time>2026-03-24T14:17:34.118Z</time></trkpt><trkpt lat="40.9234417" lon="14.169385"><ele>110.0</ele><time>2026-03-24T14:17:35.118Z</time></trkpt><trkpt lat="40.9234417" lon="14.1694833"><ele>109.99999999999999</ele><time>2026-03-24T14:17:36.118Z</time></trkpt><trkpt lat="40.92344" lon="14.16958"><ele>110.0</ele><time>2026-03-24T14:17:37.117Z</time></trkpt><trkpt lat="40.9234283" lon="14.1696783"><ele>109.99999999999999</ele><time>2026-03-24T14:17:38.119Z</time></trkpt><trkpt lat="40.923415" lon="14.169775"><ele>110.0</ele><time>2026-03-24T14:17:39.123Z</time></trkpt><trkpt lat="40.9233983" lon="14.1698733"><ele>110.0</ele><time>2026-03-24T14:17:40.118Z</time></trkpt><trkpt lat="40.92338" lon="14.1699717"><ele>110.0</ele><time>2026-03-24T14:17:41.117Z</time></trkpt><trkpt lat="40.92336" lon="14.1700683"><ele>109.99999999999999</ele><time>2026-03-24T14:17:42.118Z</time></trkpt><trkpt lat="40.9233333" lon="14.170165"><ele>110.0</ele><time>2026-03-24T14:17:43.118Z</time></trkpt><trkpt lat="40.9233067" lon="14.1702583"><ele>109.99999999999999</ele><time>2026-03-24T14:17:44.118Z</time></trkpt><trkpt lat="40.923275" lon="14.1703517"><ele>110.0</ele><time>2026-03-24T14:17:45.118Z</time></trkpt><trkpt lat="40.9232467" lon="14.170445"><ele>110.0</ele><time>2026-03-24T14:17:46.118Z</time></trkpt><trkpt lat="40.9232217" lon="14.17054"><ele>110.0</ele><time>2026-03-24T14:17:47.117Z</time></trkpt><trkpt lat="40.923195" lon="14.17063"><ele>109.99999999999999</ele><time>2026-03-24T14:17:48.119Z</time></trkpt><trkpt lat="40.9231667" lon="14.1707233"><ele>110.0</ele><time>2026-03-24T14:17:49.118Z</time></trkpt><trkpt lat="40.92314" lon="14.17082"><ele>109.99999999999999</ele><time>2026-03-24T14:17:50.118Z</time></trkpt><trkpt lat="40.9231117" lon="14.1709183"><ele>110.0</ele><time>2026-03-24T14:17:51.118Z</time></trkpt><trkpt lat="40.92308" lon="14.1710167"><ele>110.0</ele><time>2026-03-24T14:17:52.118Z</time></trkpt><trkpt lat="40.9230483" lon="14.171115"><ele>110.0</ele><time>2026-03-24T14:17:53.117Z</time></trkpt><trkpt lat="40.923015" lon="14.1712117"><ele>109.99999999999999</ele><time>2026-03-24T14:17:54.118Z</time></trkpt><trkpt lat="40.9229833" lon="14.1713067"><ele>110.0</ele><time>2026-03-24T14:17:55.118Z</time></trkpt><trkpt lat="40.9229533" lon="14.1714033"><ele>109.99999999999999</ele><time>2026-03-24T14:17:56.118Z</time></trkpt><trkpt lat="40.9229233" lon="14.1714967"><ele>110.0</ele><time>2026-03-24T14:17:57.119Z</time></trkpt><trkpt lat="40.9228917" lon="14.1715917"><ele>110.0</ele><time>2026-03-24T14:17:58.118Z</time></trkpt><trkpt lat="40.9228583" lon="14.1716883"><ele>110.0</ele><time>2026-03-24T14:17:59.12Z</time></trkpt><trkpt lat="40.9228267" lon="14.17179"><ele>109.99999999999999</ele><time>2026-03-24T14:18:00.118Z</time></trkpt><trkpt lat="40.922795" lon="14.1718917"><ele>110.0</ele><time>2026-03-24T14:18:01.118Z</time></trkpt><trkpt lat="40.9227617" lon="14.1719883"><ele>110.16666666666666</ele><time>2026-03-24T14:18:02.118Z</time></trkpt><trkpt lat="40.9227267" lon="14.17209"><ele>110.33333333333333</ele><time>2026-03-24T14:18:03.117Z</time></trkpt><trkpt lat="40.92269" lon="14.1721933"><ele>110.5</ele><time>2026-03-24T14:18:04.117Z</time></trkpt><trkpt lat="40.9226533" lon="14.1722967"><ele>110.66666666666666</ele><time>2026-03-24T14:18:05.117Z</time></trkpt><trkpt lat="40.92262" lon="14.1723967"><ele>110.83333333333333</ele><time>2026-03-24T14:18:06.118Z</time></trkpt><trkpt lat="40.9225883" lon="14.1724917"><ele>111.0</ele><time>2026-03-24T14:18:07.118Z</time></trkpt><trkpt lat="40.9225567" lon="14.1725883"><ele>111.0</ele><time>2026-03-24T14:18:08.119Z</time></trkpt><trkpt lat="40.922525" lon="14.1726783"><ele>111.0</ele><time>2026-03-24T14:18:09.119Z</time></trkpt><trkpt lat="40.9224983" lon="14.1727683"><ele>111.0</ele><time>2026-03-24T14:18:10.117Z</time></trkpt><trkpt lat="40.9224717" lon="14.1728533"><ele>111.0</ele><time>2026-03-24T14:18:11.117Z</time></trkpt><trkpt lat="40.9224233" lon="14.1729867"><ele>111.0</ele><time>2026-03-24T14:18:13.118Z</time></trkpt><trkpt lat="40.92237" lon="14.1731"><ele>111.0</ele><time>2026-03-24T14:18:15.119Z</time></trkpt><trkpt lat="40.9223167" lon="14.1732217"><ele>111.0</ele><time>2026-03-24T14:18:17.118Z</time></trkpt><trkpt lat="40.9222867" lon="14.173355"><ele>111.0</ele><time>2026-03-24T14:18:19.118Z</time></trkpt><trkpt lat="40.9222583" lon="14.173505"><ele>111.0</ele><time>2026-03-24T14:18:21.118Z</time></trkpt><trkpt lat="40.922215" lon="14.1736483"><ele>111.0</ele><time>2026-03-24T14:18:23.119Z</time></trkpt><trkpt lat="40.9221667" lon="14.1737933"><ele>111.0</ele><time>2026-03-24T14:18:25.118Z</time></trkpt><trkpt lat="40.9221183" lon="14.17394"><ele>111.0</ele><time>2026-03-24T14:18:27.117Z</time></trkpt><trkpt lat="40.9220917" lon="14.1740167"><ele>111.0</ele><time>2026-03-24T14:18:28.121Z</time></trkpt><trkpt lat="40.9220633" lon="14.1740967"><ele>111.0</ele><time>2026-03-24T14:18:29.118Z</time></trkpt><trkpt lat="40.922035" lon="14.174175"><ele>111.0</ele><time>2026-03-24T14:18:30.118Z</time></trkpt><trkpt lat="40.9220117" lon="14.174255"><ele>111.0</ele><time>2026-03-24T14:18:31.119Z</time></trkpt><trkpt lat="40.9219883" lon="14.1743383"><ele>111.0</ele><time>2026-03-24T14:18:32.118Z</time></trkpt><trkpt lat="40.9219633" lon="14.1744217"><ele>111.0</ele><time>2026-03-24T14:18:33.118Z</time></trkpt><trkpt lat="40.921935" lon="14.1745033"><ele>111.0</ele><time>2026-03-24T14:18:34.117Z</time></trkpt><trkpt lat="40.9219083" lon="14.1745883"><ele>111.0</ele><time>2026-03-24T14:18:35.118Z</time></trkpt><trkpt lat="40.92188" lon="14.1746733"><ele>111.0</ele><time>2026-03-24T14:18:36.119Z</time></trkpt><trkpt lat="40.921855" lon="14.174755"><ele>111.0</ele><time>2026-03-24T14:18:37.118Z</time></trkpt><trkpt lat="40.9218317" lon="14.1748367"><ele>111.0</ele><time>2026-03-24T14:18:38.118Z</time></trkpt><trkpt lat="40.9218067" lon="14.1749183"><ele>111.0</ele><time>2026-03-24T14:18:39.125Z</time></trkpt><trkpt lat="40.921785" lon="14.175"><ele>111.0</ele><time>2026-03-24T14:18:40.118Z</time></trkpt><trkpt lat="40.9217583" lon="14.1750833"><ele>111.0</ele><time>2026-03-24T14:18:41.118Z</time></trkpt><trkpt lat="40.9217317" lon="14.1751667"><ele>111.0</ele><time>2026-03-24T14:18:42.118Z</time></trkpt><trkpt lat="40.9217083" lon="14.1752533"><ele>111.0</ele><time>2026-03-24T14:18:43.118Z</time></trkpt><trkpt lat="40.9216833" lon="14.1753417"><ele>111.0</ele><time>2026-03-24T14:18:44.118Z</time></trkpt><trkpt lat="40.921655" lon="14.17543"><ele>111.0</ele><time>2026-03-24T14:18:45.118Z</time></trkpt><trkpt lat="40.921625" lon="14.1755233"><ele>111.0</ele><time>2026-03-24T14:18:46.118Z</time></trkpt><trkpt lat="40.9215967" lon="14.1756117"><ele>111.0</ele><time>2026-03-24T14:18:47.118Z</time></trkpt><trkpt lat="40.921565" lon="14.175705"><ele>111.0</ele><time>2026-03-24T14:18:48.118Z</time></trkpt><trkpt lat="40.921535" lon="14.1757983"><ele>111.0</ele><time>2026-03-24T14:18:49.118Z</time></trkpt><trkpt lat="40.9215083" lon="14.17589"><ele>111.0</ele><time>2026-03-24T14:18:50.118Z</time></trkpt><trkpt lat="40.92148" lon="14.1759817"><ele>111.0</ele><time>2026-03-24T14:18:51.118Z</time></trkpt><trkpt lat="40.921445" lon="14.17607"><ele>111.0</ele><time>2026-03-24T14:18:52.117Z</time></trkpt><trkpt lat="40.9214117" lon="14.1761667"><ele>111.0</ele><time>2026-03-24T14:18:53.118Z</time></trkpt><trkpt lat="40.92138" lon="14.1762583"><ele>111.0</ele><time>2026-03-24T14:18:54.118Z</time></trkpt><trkpt lat="40.9213483" lon="14.1763517"><ele>111.0</ele><time>2026-03-24T14:18:55.118Z</time></trkpt><trkpt lat="40.92132" lon="14.1764467"><ele>111.0</ele><time>2026-03-24T14:18:56.118Z</time></trkpt><trkpt lat="40.9212917" lon="14.1765417"><ele>111.0</ele><time>2026-03-24T14:18:57.118Z</time></trkpt><trkpt lat="40.92126" lon="14.176635"><ele>111.0</ele><time>2026-03-24T14:18:58.117Z</time></trkpt><trkpt lat="40.9212283" lon="14.1767317"><ele>111.0</ele><time>2026-03-24T14:18:59.118Z</time></trkpt><trkpt lat="40.9211967" lon="14.1768267"><ele>111.0</ele><time>2026-03-24T14:19:00.118Z</time></trkpt><trkpt lat="40.9211667" lon="14.1769167"><ele>111.0</ele><time>2026-03-24T14:19:01.118Z</time></trkpt><trkpt lat="40.921135" lon="14.1770067"><ele>111.0</ele><time>2026-03-24T14:19:02.118Z</time></trkpt><trkpt lat="40.9211083" lon="14.1770967"><ele>111.0</ele><time>2026-03-24T14:19:03.118Z</time></trkpt><trkpt lat="40.92108" lon="14.1771883"><ele>111.0</ele><time>2026-03-24T14:19:04.118Z</time></trkpt><trkpt lat="40.92105" lon="14.1772817"><ele>111.0</ele><time>2026-03-24T14:19:05.12Z</time></trkpt><trkpt lat="40.92102" lon="14.1773767"><ele>111.0</ele><time>2026-03-24T14:19:06.118Z</time></trkpt><trkpt lat="40.9209917" lon="14.1774733"><ele>111.0</ele><time>2026-03-24T14:19:07.118Z</time></trkpt><trkpt lat="40.920965" lon="14.17757"><ele>111.0</ele><time>2026-03-24T14:19:08.123Z</time></trkpt><trkpt lat="40.9209367" lon="14.17767"><ele>111.0</ele><time>2026-03-24T14:19:09.118Z</time></trkpt><trkpt lat="40.92091" lon="14.1777667"><ele>111.0</ele><time>2026-03-24T14:19:10.118Z</time></trkpt><trkpt lat="40.9208783" lon="14.1778617"><ele>111.28571428571428</ele><time>2026-03-24T14:19:11.118Z</time></trkpt><trkpt lat="40.92085" lon="14.177955"><ele>111.57142857142858</ele><time>2026-03-24T14:19:12.118Z</time></trkpt><trkpt lat="40.9208217" lon="14.178045"><ele>111.85714285714286</ele><time>2026-03-24T14:19:13.118Z</time></trkpt><trkpt lat="40.9207933" lon="14.17813"><ele>112.14285714285714</ele><time>2026-03-24T14:19:14.118Z</time></trkpt><trkpt lat="40.9207667" lon="14.1782133"><ele>112.42857142857142</ele><time>2026-03-24T14:19:15.119Z</time></trkpt><trkpt lat="40.92074" lon="14.1783"><ele>112.71428571428572</ele><time>2026-03-24T14:19:16.117Z</time></trkpt><trkpt lat="40.920715" lon="14.1783883"><ele>113.0</ele><time>2026-03-24T14:19:17.121Z</time></trkpt><trkpt lat="40.9206867" lon="14.1784767"><ele>112.99999999999999</ele><time>2026-03-24T14:19:18.123Z</time></trkpt><trkpt lat="40.9206583" lon="14.17857"><ele>113.0</ele><time>2026-03-24T14:19:19.12Z</time></trkpt><trkpt lat="40.92063" lon="14.1786633"><ele>113.0</ele><time>2026-03-24T14:19:20.118Z</time></trkpt><trkpt lat="40.9206" lon="14.1787583"><ele>113.0</ele><time>2026-03-24T14:19:21.118Z</time></trkpt><trkpt lat="40.9205733" lon="14.1788533"><ele>112.99999999999999</ele><time>2026-03-24T14:19:22.118Z</time></trkpt><trkpt lat="40.920545" lon="14.178945"><ele>113.0</ele><time>2026-03-24T14:19:23.118Z</time></trkpt><trkpt lat="40.9205167" lon="14.1790333"><ele>113.0</ele><time>2026-03-24T14:19:24.118Z</time></trkpt><trkpt lat="40.9204867" lon="14.179125"><ele>113.0</ele><time>2026-03-24T14:19:25.12Z</time></trkpt><trkpt lat="40.9204583" lon="14.1792117"><ele>113.0</ele><time>2026-03-24T14:19:26.118Z</time></trkpt><trkpt lat="40.92043" lon="14.1793017"><ele>113.0</ele><time>2026-03-24T14:19:27.121Z</time></trkpt><trkpt lat="40.9204033" lon="14.17939"><ele>113.0</ele><time>2026-03-24T14:19:28.118Z</time></trkpt><trkpt lat="40.920375" lon="14.17948"><ele>113.0</ele><time>2026-03-24T14:19:29.118Z</time></trkpt><trkpt lat="40.9203483" lon="14.179575"><ele>113.0</ele><time>2026-03-24T14:19:30.118Z</time></trkpt><trkpt lat="40.9203183" lon="14.1796667"><ele>112.99999999999999</ele><time>2026-03-24T14:19:31.119Z</time></trkpt><trkpt lat="40.9202867" lon="14.1797583"><ele>113.0</ele><time>2026-03-24T14:19:32.118Z</time></trkpt><trkpt lat="40.920255" lon="14.1798517"><ele>113.0</ele><time>2026-03-24T14:19:33.118Z</time></trkpt><trkpt lat="40.9202283" lon="14.179945"><ele>113.0</ele><time>2026-03-24T14:19:34.118Z</time></trkpt><trkpt lat="40.9202" lon="14.18004"><ele>112.99999999999999</ele><time>2026-03-24T14:19:35.12Z</time></trkpt><trkpt lat="40.9201717" lon="14.1801283"><ele>113.0</ele><time>2026-03-24T14:19:36.119Z</time></trkpt><trkpt lat="40.920145" lon="14.1802167"><ele>112.99999999999999</ele><time>2026-03-24T14:19:37.118Z</time></trkpt><trkpt lat="40.9201167" lon="14.1803083"><ele>113.0</ele><time>2026-03-24T14:19:38.118Z</time></trkpt><trkpt lat="40.9200933" lon="14.180405"><ele>113.0</ele><time>2026-03-24T14:19:39.118Z</time></trkpt><trkpt lat="40.9200667" lon="14.1805"><ele>113.0</ele><time>2026-03-24T14:19:40.118Z</time></trkpt><trkpt lat="40.92004" lon="14.180595"><ele>112.99999999999999</ele><time>2026-03-24T14:19:41.119Z</time></trkpt><trkpt lat="40.9200117" lon="14.1806917"><ele>113.0</ele><time>2026-03-24T14:19:42.119Z</time></trkpt><trkpt lat="40.9199783" lon="14.180785"><ele>113.16666666666666</ele><time>2026-03-24T14:19:43.118Z</time></trkpt><trkpt lat="40.9199483" lon="14.1808867"><ele>113.33333333333333</ele><time>2026-03-24T14:19:44.118Z</time></trkpt><trkpt lat="40.9199167" lon="14.1809817"><ele>113.5</ele><time>2026-03-24T14:19:45.12Z</time></trkpt><trkpt lat="40.9198867" lon="14.181075"><ele>113.66666666666666</ele><time>2026-03-24T14:19:46.118Z</time></trkpt><trkpt lat="40.9198583" lon="14.18117"><ele>113.83333333333333</ele><time>2026-03-24T14:19:47.118Z</time></trkpt><trkpt lat="40.91983" lon="14.1812683"><ele>114.0</ele><time>2026-03-24T14:19:48.118Z</time></trkpt><trkpt lat="40.9198033" lon="14.1813633"><ele>114.0</ele><time>2026-03-24T14:19:49.119Z</time></trkpt><trkpt lat="40.9197767" lon="14.1814483"><ele>113.99999999999999</ele><time>2026-03-24T14:19:50.121Z</time></trkpt><trkpt lat="40.9197483" lon="14.1815267"><ele>114.0</ele><time>2026-03-24T14:19:51.118Z</time></trkpt><trkpt lat="40.919715" lon="14.18161"><ele>114.0</ele><time>2026-03-24T14:19:52.118Z</time></trkpt><trkpt lat="40.919685" lon="14.1816933"><ele>113.99999999999999</ele><time>2026-03-24T14:19:53.118Z</time></trkpt><trkpt lat="40.919655" lon="14.18177"><ele>114.0</ele><time>2026-03-24T14:19:54.119Z</time></trkpt><trkpt lat="40.9196183" lon="14.1818383"><ele>114.0</ele><time>2026-03-24T14:19:55.118Z</time></trkpt><trkpt lat="40.9195717" lon="14.181905"><ele>114.0</ele><time>2026-03-24T14:19:56.118Z</time></trkpt><trkpt lat="40.9195267" lon="14.1819683"><ele>113.99999999999999</ele><time>2026-03-24T14:19:57.118Z</time></trkpt><trkpt lat="40.919485" lon="14.1820417"><ele>114.0</ele><time>2026-03-24T14:19:58.118Z</time></trkpt><trkpt lat="40.919455" lon="14.182115"><ele>114.0</ele><time>2026-03-24T14:19:59.119Z</time></trkpt><trkpt lat="40.91944" lon="14.1821983"><ele>113.99999999999999</ele><time>2026-03-24T14:20:00.117Z</time></trkpt><trkpt lat="40.919435" lon="14.1822833"><ele>114.0</ele><time>2026-03-24T14:20:01.119Z</time></trkpt><trkpt lat="40.91943" lon="14.18237"><ele>114.0</ele><time>2026-03-24T14:20:02.118Z</time></trkpt><trkpt lat="40.9194183" lon="14.1825367"><ele>114.0</ele><time>2026-03-24T14:20:04.118Z</time></trkpt><trkpt lat="40.9193917" lon="14.1827"><ele>114.0</ele><time>2026-03-24T14:20:06.118Z</time></trkpt><trkpt lat="40.919365" lon="14.18278"><ele>114.0</ele><time>2026-03-24T14:20:07.117Z</time></trkpt><trkpt lat="40.9193383" lon="14.1828617"><ele>114.0</ele><time>2026-03-24T14:20:08.118Z</time></trkpt><trkpt lat="40.9193117" lon="14.182945"><ele>114.0</ele><time>2026-03-24T14:20:09.119Z</time></trkpt><trkpt lat="40.919285" lon="14.1830283"><ele>114.0</ele><time>2026-03-24T14:20:10.118Z</time></trkpt><trkpt lat="40.9192583" lon="14.1831183"><ele>113.85714285714285</ele><time>2026-03-24T14:20:11.117Z</time></trkpt><trkpt lat="40.919235" lon="14.1832033"><ele>113.7142857142857</ele><time>2026-03-24T14:20:12.119Z</time></trkpt><trkpt lat="40.9192083" lon="14.183285"><ele>113.57142857142857</ele><time>2026-03-24T14:20:13.118Z</time></trkpt><trkpt lat="40.9191883" lon="14.18337"><ele>113.42857142857142</ele><time>2026-03-24T14:20:14.119Z</time></trkpt><trkpt lat="40.9191667" lon="14.1834583"><ele>113.28571428571428</ele><time>2026-03-24T14:20:15.118Z</time></trkpt><trkpt lat="40.91914" lon="14.183545"><ele>113.14285714285714</ele><time>2026-03-24T14:20:16.119Z</time></trkpt><trkpt lat="40.919115" lon="14.1836283"><ele>113.0</ele><time>2026-03-24T14:20:17.121Z</time></trkpt><trkpt lat="40.919085" lon="14.1837117"><ele>113.0</ele><time>2026-03-24T14:20:18.118Z</time></trkpt><trkpt lat="40.91905" lon="14.183795"><ele>113.0</ele><time>2026-03-24T14:20:19.121Z</time></trkpt><trkpt lat="40.9190083" lon="14.1838817"><ele>113.0</ele><time>2026-03-24T14:20:20.121Z</time></trkpt><trkpt lat="40.9189717" lon="14.1839667"><ele>113.0</ele><time>2026-03-24T14:20:21.121Z</time></trkpt><trkpt lat="40.9189383" lon="14.18405"><ele>113.0</ele><time>2026-03-24T14:20:22.12Z</time></trkpt><trkpt lat="40.9189067" lon="14.184135"><ele>113.0</ele><time>2026-03-24T14:20:23.118Z</time></trkpt><trkpt lat="40.9188767" lon="14.1842217"><ele>113.0</ele><time>2026-03-24T14:20:24.118Z</time></trkpt><trkpt lat="40.9188467" lon="14.1843117"><ele>113.0</ele><time>2026-03-24T14:20:25.117Z</time></trkpt><trkpt lat="40.9188183" lon="14.1843983"><ele>113.0</ele><time>2026-03-24T14:20:26.118Z</time></trkpt><trkpt lat="40.9187917" lon="14.1844817"><ele>113.0</ele><time>2026-03-24T14:20:27.12Z</time></trkpt><trkpt lat="40.9187667" lon="14.18457"><ele>113.0</ele><time>2026-03-24T14:20:28.117Z</time></trkpt><trkpt lat="40.91875" lon="14.18466"><ele>113.0</ele><time>2026-03-24T14:20:29.117Z</time></trkpt><trkpt lat="40.9187283" lon="14.1847417"><ele>113.0</ele><time>2026-03-24T14:20:30.118Z</time></trkpt><trkpt lat="40.9187083" lon="14.1848233"><ele>113.0</ele><time>2026-03-24T14:20:31.119Z</time></trkpt><trkpt lat="40.9186833" lon="14.1849083"><ele>113.0</ele><time>2026-03-24T14:20:32.12Z</time></trkpt><trkpt lat="40.91866" lon="14.1849967"><ele>113.0</ele><time>2026-03-24T14:20:33.119Z</time></trkpt><trkpt lat="40.9186367" lon="14.1850833"><ele>113.0</ele><time>2026-03-24T14:20:34.121Z</time></trkpt><trkpt lat="40.918615" lon="14.1851667"><ele>113.0</ele><time>2026-03-24T14:20:35.121Z</time></trkpt><trkpt lat="40.9185883" lon="14.1852483"><ele>113.0</ele><time>2026-03-24T14:20:36.119Z</time></trkpt><trkpt lat="40.9185567" lon="14.1853283"><ele>113.0</ele><time>2026-03-24T14:20:37.118Z</time></trkpt><trkpt lat="40.918525" lon="14.1854133"><ele>113.0</ele><time>2026-03-24T14:20:38.119Z</time></trkpt><trkpt lat="40.91849" lon="14.185495"><ele>113.0</ele><time>2026-03-24T14:20:39.118Z</time></trkpt><trkpt lat="40.91846" lon="14.185575"><ele>113.00000000000001</ele><time>2026-03-24T14:20:40.118Z</time></trkpt><trkpt lat="40.9184317" lon="14.185655"><ele>113.00000000000001</ele><time>2026-03-24T14:20:41.118Z</time></trkpt><trkpt lat="40.9183817" lon="14.1858"><ele>113.0</ele><time>2026-03-24T14:20:43.118Z</time></trkpt><trkpt lat="40.9183383" lon="14.1859483"><ele>113.0</ele><time>2026-03-24T14:20:45.118Z</time></trkpt><trkpt lat="40.9182967" lon="14.186085"><ele>113.4</ele><time>2026-03-24T14:20:47.117Z</time></trkpt><trkpt lat="40.9182667" lon="14.1862117"><ele>113.80000000000001</ele><time>2026-03-24T14:20:49.118Z</time></trkpt><trkpt lat="40.91823" lon="14.1863383"><ele>114.2</ele><time>2026-03-24T14:20:51.117Z</time></trkpt><trkpt lat="40.91819" lon="14.1864717"><ele>114.6</ele><time>2026-03-24T14:20:53.118Z</time></trkpt><trkpt lat="40.91815" lon="14.1866133"><ele>115.0</ele><time>2026-03-24T14:20:55.119Z</time></trkpt><trkpt lat="40.9181083" lon="14.1867717"><ele>114.99999999999999</ele><time>2026-03-24T14:20:57.119Z</time></trkpt><trkpt lat="40.918085" lon="14.1868533"><ele>115.0</ele><time>2026-03-24T14:20:58.118Z</time></trkpt><trkpt lat="40.91806" lon="14.18694"><ele>114.99999999999999</ele><time>2026-03-24T14:20:59.118Z</time></trkpt><trkpt lat="40.918035" lon="14.1870233"><ele>114.99999999999999</ele><time>2026-03-24T14:21:00.118Z</time></trkpt><trkpt lat="40.9180117" lon="14.1871067"><ele>115.0</ele><time>2026-03-24T14:21:01.121Z</time></trkpt><trkpt lat="40.9179817" lon="14.18719"><ele>114.99999999999999</ele><time>2026-03-24T14:21:02.119Z</time></trkpt><trkpt lat="40.9179533" lon="14.1872767"><ele>114.99999999999999</ele><time>2026-03-24T14:21:03.121Z</time></trkpt><trkpt lat="40.917925" lon="14.1873683"><ele>115.14285714285712</ele><time>2026-03-24T14:21:04.121Z</time></trkpt><trkpt lat="40.9178933" lon="14.1874583"><ele>115.28571428571428</ele><time>2026-03-24T14:21:05.121Z</time></trkpt><trkpt lat="40.9178667" lon="14.1875467"><ele>115.42857142857143</ele><time>2026-03-24T14:21:06.118Z</time></trkpt><trkpt lat="40.91784" lon="14.1876333"><ele>115.57142857142857</ele><time>2026-03-24T14:21:07.118Z</time></trkpt><trkpt lat="40.9178133" lon="14.1877183"><ele>115.71428571428572</ele><time>2026-03-24T14:21:08.121Z</time></trkpt><trkpt lat="40.917785" lon="14.1878017"><ele>115.85714285714288</ele><time>2026-03-24T14:21:09.121Z</time></trkpt><trkpt lat="40.9177617" lon="14.1878817"><ele>116.00000000000001</ele><time>2026-03-24T14:21:10.118Z</time></trkpt><trkpt lat="40.9177383" lon="14.18796"><ele>116.0</ele><time>2026-03-24T14:21:11.118Z</time></trkpt><trkpt lat="40.9176983" lon="14.188115"><ele>116.0</ele><time>2026-03-24T14:21:13.118Z</time></trkpt><trkpt lat="40.91766" lon="14.1882517"><ele>116.0</ele><time>2026-03-24T14:21:15.118Z</time></trkpt><trkpt lat="40.917615" lon="14.1883867"><ele>116.0</ele><time>2026-03-24T14:21:17.118Z</time></trkpt><trkpt lat="40.9175667" lon="14.1885217"><ele>115.99999999999999</ele><time>2026-03-24T14:21:19.118Z</time></trkpt><trkpt lat="40.9175233" lon="14.1886733"><ele>116.0</ele><time>2026-03-24T14:21:21.117Z</time></trkpt><trkpt lat="40.917505" lon="14.1887567"><ele>116.0</ele><time>2026-03-24T14:21:22.118Z</time></trkpt><trkpt lat="40.9174867" lon="14.1888383"><ele>116.0</ele><time>2026-03-24T14:21:23.118Z</time></trkpt><trkpt lat="40.9174717" lon="14.1889267"><ele>115.99999999999999</ele><time>2026-03-24T14:21:24.12Z</time></trkpt><trkpt lat="40.917455" lon="14.1890183"><ele>116.0</ele><time>2026-03-24T14:21:25.119Z</time></trkpt><trkpt lat="40.9174417" lon="14.1891067"><ele>116.00000000000001</ele><time>2026-03-24T14:21:26.119Z</time></trkpt><trkpt lat="40.9174267" lon="14.189195"><ele>116.0</ele><time>2026-03-24T14:21:27.118Z</time></trkpt><trkpt lat="40.9174117" lon="14.189285"><ele>116.00000000000001</ele><time>2026-03-24T14:21:28.118Z</time></trkpt><trkpt lat="40.9173983" lon="14.1893783"><ele>116.00000000000001</ele><time>2026-03-24T14:21:29.118Z</time></trkpt><trkpt lat="40.917385" lon="14.1894683"><ele>116.0</ele><time>2026-03-24T14:21:30.121Z</time></trkpt><trkpt lat="40.91737" lon="14.1895583"><ele>116.00000000000001</ele><time>2026-03-24T14:21:31.117Z</time></trkpt><trkpt lat="40.9173567" lon="14.1896517"><ele>116.00000000000001</ele><time>2026-03-24T14:21:32.119Z</time></trkpt><trkpt lat="40.9173433" lon="14.1897433"><ele>116.00000000000001</ele><time>2026-03-24T14:21:33.119Z</time></trkpt><trkpt lat="40.9173283" lon="14.1898383"><ele>116.0</ele><time>2026-03-24T14:21:34.118Z</time></trkpt><trkpt lat="40.9173133" lon="14.1899367"><ele>116.00000000000001</ele><time>2026-03-24T14:21:35.118Z</time></trkpt><trkpt lat="40.9173033" lon="14.1900283"><ele>116.00000000000001</ele><time>2026-03-24T14:21:36.118Z</time></trkpt><trkpt lat="40.9172883" lon="14.1901233"><ele>116.0</ele><time>2026-03-24T14:21:37.118Z</time></trkpt><trkpt lat="40.9172733" lon="14.1902167"><ele>116.00000000000001</ele><time>2026-03-24T14:21:38.118Z</time></trkpt><trkpt lat="40.9172567" lon="14.19031"><ele>116.00000000000001</ele><time>2026-03-24T14:21:39.122Z</time></trkpt><trkpt lat="40.91724" lon="14.190405"><ele>115.85714285714288</ele><time>2026-03-24T14:21:40.118Z</time></trkpt><trkpt lat="40.9172283" lon="14.1905"><ele>115.71428571428572</ele><time>2026-03-24T14:21:41.118Z</time></trkpt><trkpt lat="40.917215" lon="14.1905983"><ele>115.57142857142857</ele><time>2026-03-24T14:21:42.118Z</time></trkpt><trkpt lat="40.9172083" lon="14.1906933"><ele>115.42857142857143</ele><time>2026-03-24T14:21:43.118Z</time></trkpt><trkpt lat="40.9172033" lon="14.19079"><ele>115.28571428571428</ele><time>2026-03-24T14:21:44.118Z</time></trkpt><trkpt lat="40.9172" lon="14.1908867"><ele>115.14285714285712</ele><time>2026-03-24T14:21:45.119Z</time></trkpt><trkpt lat="40.9171983" lon="14.1909817"><ele>114.99999999999999</ele><time>2026-03-24T14:21:46.117Z</time></trkpt><trkpt lat="40.91719" lon="14.1910783"><ele>114.99999999999999</ele><time>2026-03-24T14:21:47.119Z</time></trkpt><trkpt lat="40.91718" lon="14.1911783"><ele>115.0</ele><time>2026-03-24T14:21:48.119Z</time></trkpt><trkpt lat="40.9171767" lon="14.19128"><ele>114.99999999999999</ele><time>2026-03-24T14:21:49.118Z</time></trkpt><trkpt lat="40.9171717" lon="14.1913733"><ele>114.99999999999999</ele><time>2026-03-24T14:21:50.119Z</time></trkpt><trkpt lat="40.9171667" lon="14.19147"><ele>115.0</ele><time>2026-03-24T14:21:51.117Z</time></trkpt><trkpt lat="40.917165" lon="14.191565"><ele>114.99999999999999</ele><time>2026-03-24T14:21:52.119Z</time></trkpt><trkpt lat="40.9171617" lon="14.191665"><ele>114.99999999999999</ele><time>2026-03-24T14:21:53.119Z</time></trkpt><trkpt lat="40.91716" lon="14.191765"><ele>114.99999999999999</ele><time>2026-03-24T14:21:54.118Z</time></trkpt><trkpt lat="40.9171567" lon="14.1918617"><ele>115.0</ele><time>2026-03-24T14:21:55.118Z</time></trkpt><trkpt lat="40.9171517" lon="14.1919567"><ele>114.99999999999999</ele><time>2026-03-24T14:21:56.12Z</time></trkpt><trkpt lat="40.917145" lon="14.1920567"><ele>114.99999999999999</ele><time>2026-03-24T14:21:57.118Z</time></trkpt><trkpt lat="40.91714" lon="14.1921567"><ele>115.0</ele><time>2026-03-24T14:21:58.118Z</time></trkpt><trkpt lat="40.9171383" lon="14.192255"><ele>114.99999999999999</ele><time>2026-03-24T14:21:59.119Z</time></trkpt><trkpt lat="40.9171383" lon="14.192355"><ele>114.99999999999999</ele><time>2026-03-24T14:22:00.12Z</time></trkpt><trkpt lat="40.91714" lon="14.1924533"><ele>115.14285714285712</ele><time>2026-03-24T14:22:01.121Z</time></trkpt><trkpt lat="40.9171417" lon="14.19255"><ele>115.28571428571428</ele><time>2026-03-24T14:22:02.118Z</time></trkpt><trkpt lat="40.9171433" lon="14.1926433"><ele>115.42857142857143</ele><time>2026-03-24T14:22:03.118Z</time></trkpt><trkpt lat="40.9171467" lon="14.1927433"><ele>115.57142857142857</ele><time>2026-03-24T14:22:04.118Z</time></trkpt><trkpt lat="40.9171517" lon="14.1928433"><ele>115.71428571428572</ele><time>2026-03-24T14:22:05.118Z</time></trkpt><trkpt lat="40.9171533" lon="14.1929417"><ele>115.85714285714288</ele><time>2026-03-24T14:22:06.12Z</time></trkpt><trkpt lat="40.9171583" lon="14.1930433"><ele>116.00000000000001</ele><time>2026-03-24T14:22:07.119Z</time></trkpt><trkpt lat="40.9171633" lon="14.1931467"><ele>115.66666666666666</ele><time>2026-03-24T14:22:08.119Z</time></trkpt><trkpt lat="40.9171633" lon="14.1932517"><ele>115.33333333333333</ele><time>2026-03-24T14:22:09.118Z</time></trkpt><trkpt lat="40.917165" lon="14.193355"><ele>115.0</ele><time>2026-03-24T14:22:10.121Z</time></trkpt><trkpt lat="40.917175" lon="14.19346"><ele>114.66666666666666</ele><time>2026-03-24T14:22:11.121Z</time></trkpt><trkpt lat="40.9171767" lon="14.1935633"><ele>114.33333333333333</ele><time>2026-03-24T14:22:12.121Z</time></trkpt><trkpt lat="40.91718" lon="14.1936633"><ele>114.0</ele><time>2026-03-24T14:22:13.121Z</time></trkpt><trkpt lat="40.9171867" lon="14.19376"><ele>114.0</ele><time>2026-03-24T14:22:14.121Z</time></trkpt><trkpt lat="40.91719" lon="14.1938583"><ele>114.0</ele><time>2026-03-24T14:22:15.118Z</time></trkpt><trkpt lat="40.917195" lon="14.1939583"><ele>114.0</ele><time>2026-03-24T14:22:16.118Z</time></trkpt><trkpt lat="40.9172" lon="14.19406"><ele>114.0</ele><time>2026-03-24T14:22:17.118Z</time></trkpt><trkpt lat="40.9172067" lon="14.1941617"><ele>114.0</ele><time>2026-03-24T14:22:18.119Z</time></trkpt><trkpt lat="40.9172133" lon="14.1942667"><ele>114.0</ele><time>2026-03-24T14:22:19.118Z</time></trkpt><trkpt lat="40.91722" lon="14.1943733"><ele>114.0</ele><time>2026-03-24T14:22:20.118Z</time></trkpt><trkpt lat="40.917225" lon="14.1944783"><ele>114.0</ele><time>2026-03-24T14:22:21.118Z</time></trkpt><trkpt lat="40.91723" lon="14.1945817"><ele>114.0</ele><time>2026-03-24T14:22:22.118Z</time></trkpt><trkpt lat="40.9172333" lon="14.1946833"><ele>114.0</ele><time>2026-03-24T14:22:23.118Z</time></trkpt><trkpt lat="40.9172333" lon="14.1947817"><ele>114.0</ele><time>2026-03-24T14:22:24.118Z</time></trkpt><trkpt lat="40.9172367" lon="14.19488"><ele>114.0</ele><time>2026-03-24T14:22:25.118Z</time></trkpt><trkpt lat="40.9172417" lon="14.19498"><ele>114.33333333333333</ele><time>2026-03-24T14:22:26.118Z</time></trkpt><trkpt lat="40.917245" lon="14.19508"><ele>114.66666666666666</ele><time>2026-03-24T14:22:27.118Z</time></trkpt><trkpt lat="40.91725" lon="14.195185"><ele>115.0</ele><time>2026-03-24T14:22:28.119Z</time></trkpt><trkpt lat="40.9172567" lon="14.1952883"><ele>115.33333333333333</ele><time>2026-03-24T14:22:29.118Z</time></trkpt><trkpt lat="40.9172567" lon="14.1953917"><ele>115.66666666666666</ele><time>2026-03-24T14:22:30.119Z</time></trkpt><trkpt lat="40.9172533" lon="14.1954917"><ele>116.0</ele><time>2026-03-24T14:22:31.118Z</time></trkpt><trkpt lat="40.9172483" lon="14.195595"><ele>116.14285714285717</ele><time>2026-03-24T14:22:32.118Z</time></trkpt><trkpt lat="40.9172367" lon="14.1956967"><ele>116.28571428571429</ele><time>2026-03-24T14:22:33.118Z</time></trkpt><trkpt lat="40.9172183" lon="14.1957917"><ele>116.42857142857144</ele><time>2026-03-24T14:22:34.118Z</time></trkpt><trkpt lat="40.9172017" lon="14.1958867"><ele>116.57142857142858</ele><time>2026-03-24T14:22:35.118Z</time></trkpt><trkpt lat="40.9171767" lon="14.1959733"><ele>116.71428571428572</ele><time>2026-03-24T14:22:36.118Z</time></trkpt><trkpt lat="40.91715" lon="14.1960517"><ele>116.85714285714286</ele><time>2026-03-24T14:22:37.118Z</time></trkpt><trkpt lat="40.9171183" lon="14.1961283"><ele>117.0</ele><time>2026-03-24T14:22:38.119Z</time></trkpt><trkpt lat="40.9170933" lon="14.1962083"><ele>117.0</ele><time>2026-03-24T14:22:39.118Z</time></trkpt><trkpt lat="40.9170733" lon="14.19629"><ele>116.99999999999999</ele><time>2026-03-24T14:22:40.118Z</time></trkpt><trkpt lat="40.9170533" lon="14.1964467"><ele>116.99999999999999</ele><time>2026-03-24T14:22:42.118Z</time></trkpt><trkpt lat="40.917075" lon="14.19655"><ele>117.0</ele><time>2026-03-24T14:22:44.119Z</time></trkpt><trkpt lat="40.917115" lon="14.196655"><ele>117.0</ele><time>2026-03-24T14:22:46.12Z</time></trkpt><trkpt lat="40.9171733" lon="14.196775"><ele>116.75</ele><time>2026-03-24T14:22:48.118Z</time></trkpt><trkpt lat="40.9172317" lon="14.1969033"><ele>116.5</ele><time>2026-03-24T14:22:50.12Z</time></trkpt><trkpt lat="40.917265" lon="14.1970567"><ele>116.25</ele><time>2026-03-24T14:22:52.118Z</time></trkpt><trkpt lat="40.9172683" lon="14.1972117"><ele>116.0</ele><time>2026-03-24T14:22:54.119Z</time></trkpt><trkpt lat="40.9172683" lon="14.19737"><ele>116.00000000000001</ele><time>2026-03-24T14:22:56.119Z</time></trkpt><trkpt lat="40.91726" lon="14.1974567"><ele>116.0</ele><time>2026-03-24T14:22:57.118Z</time></trkpt><trkpt lat="40.9172533" lon="14.1975417"><ele>116.00000000000001</ele><time>2026-03-24T14:22:58.119Z</time></trkpt><trkpt lat="40.917245" lon="14.1976317"><ele>116.00000000000001</ele><time>2026-03-24T14:22:59.12Z</time></trkpt><trkpt lat="40.9172367" lon="14.1977217"><ele>116.0</ele><time>2026-03-24T14:23:00.12Z</time></trkpt><trkpt lat="40.917235" lon="14.1978117"><ele>116.00000000000001</ele><time>2026-03-24T14:23:01.118Z</time></trkpt><trkpt lat="40.9172317" lon="14.1979"><ele>116.00000000000001</ele><time>2026-03-24T14:23:02.119Z</time></trkpt><trkpt lat="40.91723" lon="14.19799"><ele>116.00000000000001</ele><time>2026-03-24T14:23:03.118Z</time></trkpt><trkpt lat="40.9172317" lon="14.19808"><ele>116.0</ele><time>2026-03-24T14:23:04.118Z</time></trkpt><trkpt lat="40.917225" lon="14.1981733"><ele>116.00000000000001</ele><time>2026-03-24T14:23:05.118Z</time></trkpt><trkpt lat="40.917215" lon="14.1982683"><ele>116.00000000000001</ele><time>2026-03-24T14:23:06.118Z</time></trkpt><trkpt lat="40.9172083" lon="14.1983667"><ele>116.0</ele><time>2026-03-24T14:23:07.118Z</time></trkpt><trkpt lat="40.9171983" lon="14.1984617"><ele>116.00000000000001</ele><time>2026-03-24T14:23:08.119Z</time></trkpt><trkpt lat="40.9171867" lon="14.198555"><ele>116.00000000000001</ele><time>2026-03-24T14:23:09.12Z</time></trkpt><trkpt lat="40.917175" lon="14.1986483"><ele>115.71428571428572</ele><time>2026-03-24T14:23:10.118Z</time></trkpt><trkpt lat="40.9171633" lon="14.198745"><ele>115.42857142857143</ele><time>2026-03-24T14:23:11.119Z</time></trkpt><trkpt lat="40.9171467" lon="14.1988417"><ele>115.14285714285714</ele><time>2026-03-24T14:23:12.118Z</time></trkpt><trkpt lat="40.9171267" lon="14.1989383"><ele>114.85714285714286</ele><time>2026-03-24T14:23:13.123Z</time></trkpt><trkpt lat="40.91711" lon="14.1990317"><ele>114.57142857142856</ele><time>2026-03-24T14:23:14.118Z</time></trkpt><trkpt lat="40.9170967" lon="14.1991233"><ele>114.28571428571428</ele><time>2026-03-24T14:23:15.118Z</time></trkpt><trkpt lat="40.91708" lon="14.199215"><ele>114.0</ele><time>2026-03-24T14:23:16.119Z</time></trkpt><trkpt lat="40.9170633" lon="14.1993033"><ele>113.85714285714285</ele><time>2026-03-24T14:23:17.118Z</time></trkpt><trkpt lat="40.9170533" lon="14.1993883"><ele>113.7142857142857</ele><time>2026-03-24T14:23:18.121Z</time></trkpt><trkpt lat="40.917045" lon="14.1994733"><ele>113.57142857142857</ele><time>2026-03-24T14:23:19.118Z</time></trkpt><trkpt lat="40.917035" lon="14.1995583"><ele>113.42857142857142</ele><time>2026-03-24T14:23:20.119Z</time></trkpt><trkpt lat="40.917025" lon="14.1997217"><ele>113.28571428571428</ele><time>2026-03-24T14:23:22.118Z</time></trkpt><trkpt lat="40.917025" lon="14.1998067"><ele>113.14285714285714</ele><time>2026-03-24T14:23:23.118Z</time></trkpt><trkpt lat="40.9170283" lon="14.1998933"><ele>113.0</ele><time>2026-03-24T14:23:24.121Z</time></trkpt><trkpt lat="40.9170317" lon="14.19998"><ele>112.71428571428572</ele><time>2026-03-24T14:23:25.119Z</time></trkpt><trkpt lat="40.9170367" lon="14.2000717"><ele>112.42857142857142</ele><time>2026-03-24T14:23:26.119Z</time></trkpt><trkpt lat="40.9170333" lon="14.200165"><ele>112.14285714285714</ele><time>2026-03-24T14:23:27.119Z</time></trkpt><trkpt lat="40.9170317" lon="14.2002583"><ele>111.85714285714286</ele><time>2026-03-24T14:23:28.119Z</time></trkpt><trkpt lat="40.917025" lon="14.2003533"><ele>111.57142857142858</ele><time>2026-03-24T14:23:29.118Z</time></trkpt><trkpt lat="40.91702" lon="14.20045"><ele>111.28571428571428</ele><time>2026-03-24T14:23:30.119Z</time></trkpt><trkpt lat="40.9170083" lon="14.2005433"><ele>111.0</ele><time>2026-03-24T14:23:31.118Z</time></trkpt><trkpt lat="40.9169967" lon="14.2006433"><ele>111.0</ele><time>2026-03-24T14:23:32.121Z</time></trkpt><trkpt lat="40.916995" lon="14.2007417"><ele>111.0</ele><time>2026-03-24T14:23:33.122Z</time></trkpt><trkpt lat="40.916995" lon="14.20084"><ele>111.0</ele><time>2026-03-24T14:23:34.123Z</time></trkpt><trkpt lat="40.9169933" lon="14.200935"><ele>111.0</ele><time>2026-03-24T14:23:35.122Z</time></trkpt><trkpt lat="40.9169917" lon="14.20103"><ele>111.0</ele><time>2026-03-24T14:23:36.121Z</time></trkpt><trkpt lat="40.9169867" lon="14.201125"><ele>111.0</ele><time>2026-03-24T14:23:37.118Z</time></trkpt><trkpt lat="40.91698" lon="14.2012167"><ele>111.0</ele><time>2026-03-24T14:23:38.119Z</time></trkpt><trkpt lat="40.916975" lon="14.2013117"><ele>111.0</ele><time>2026-03-24T14:23:39.118Z</time></trkpt><trkpt lat="40.9169717" lon="14.2014083"><ele>111.0</ele><time>2026-03-24T14:23:40.121Z</time></trkpt><trkpt lat="40.9169667" lon="14.2015083"><ele>111.0</ele><time>2026-03-24T14:23:41.121Z</time></trkpt><trkpt lat="40.91696" lon="14.2015983"><ele>111.0</ele><time>2026-03-24T14:23:42.119Z</time></trkpt><trkpt lat="40.9169533" lon="14.2016883"><ele>111.0</ele><time>2026-03-24T14:23:43.118Z</time></trkpt><trkpt lat="40.9169483" lon="14.2017817"><ele>111.0</ele><time>2026-03-24T14:23:44.12Z</time></trkpt><trkpt lat="40.91694" lon="14.2018733"><ele>111.0</ele><time>2026-03-24T14:23:45.118Z</time></trkpt><trkpt lat="40.9169333" lon="14.201965"><ele>111.0</ele><time>2026-03-24T14:23:46.118Z</time></trkpt><trkpt lat="40.9169283" lon="14.2020583"><ele>111.0</ele><time>2026-03-24T14:23:47.118Z</time></trkpt><trkpt lat="40.9169217" lon="14.2021483"><ele>111.0</ele><time>2026-03-24T14:23:48.118Z</time></trkpt><trkpt lat="40.9169167" lon="14.2022367"><ele>111.0</ele><time>2026-03-24T14:23:49.12Z</time></trkpt><trkpt lat="40.9169033" lon="14.202405"><ele>111.0</ele><time>2026-03-24T14:23:51.118Z</time></trkpt><trkpt lat="40.9169017" lon="14.2024933"><ele>111.0</ele><time>2026-03-24T14:23:52.118Z</time></trkpt><trkpt lat="40.9169017" lon="14.202585"><ele>111.0</ele><time>2026-03-24T14:23:53.119Z</time></trkpt><trkpt lat="40.9168967" lon="14.20267"><ele>111.0</ele><time>2026-03-24T14:23:54.122Z</time></trkpt><trkpt lat="40.91689" lon="14.2027567"><ele>111.0</ele><time>2026-03-24T14:23:55.12Z</time></trkpt><trkpt lat="40.9168867" lon="14.20284"><ele>111.0</ele><time>2026-03-24T14:23:56.119Z</time></trkpt><trkpt lat="40.9168833" lon="14.2029267"><ele>111.0</ele><time>2026-03-24T14:23:57.118Z</time></trkpt><trkpt lat="40.91688" lon="14.2030183"><ele>111.0</ele><time>2026-03-24T14:23:58.121Z</time></trkpt><trkpt lat="40.9168717" lon="14.2031033"><ele>111.0</ele><time>2026-03-24T14:23:59.12Z</time></trkpt><trkpt lat="40.9168617" lon="14.2031917"><ele>111.16666666666667</ele><time>2026-03-24T14:24:00.118Z</time></trkpt><trkpt lat="40.9168517" lon="14.2032817"><ele>111.33333333333334</ele><time>2026-03-24T14:24:01.121Z</time></trkpt><trkpt lat="40.916845" lon="14.2033733"><ele>111.5</ele><time>2026-03-24T14:24:02.119Z</time></trkpt><trkpt lat="40.916835" lon="14.2034717"><ele>111.66666666666667</ele><time>2026-03-24T14:24:03.12Z</time></trkpt><trkpt lat="40.9168233" lon="14.2035783"><ele>111.83333333333334</ele><time>2026-03-24T14:24:04.122Z</time></trkpt><trkpt lat="40.9168133" lon="14.2036833"><ele>112.0</ele><time>2026-03-24T14:24:05.126Z</time></trkpt><trkpt lat="40.9168033" lon="14.2037883"><ele>112.00000000000001</ele><time>2026-03-24T14:24:06.119Z</time></trkpt><trkpt lat="40.9168" lon="14.203895"><ele>112.0</ele><time>2026-03-24T14:24:07.119Z</time></trkpt><trkpt lat="40.9167933" lon="14.2040033"><ele>112.0</ele><time>2026-03-24T14:24:08.119Z</time></trkpt><trkpt lat="40.9167833" lon="14.20411"><ele>112.0</ele><time>2026-03-24T14:24:09.118Z</time></trkpt><trkpt lat="40.916775" lon="14.20422"><ele>112.00000000000001</ele><time>2026-03-24T14:24:10.118Z</time></trkpt><trkpt lat="40.916765" lon="14.2043333"><ele>112.0</ele><time>2026-03-24T14:24:11.123Z</time></trkpt><trkpt lat="40.916755" lon="14.204445"><ele>112.00000000000001</ele><time>2026-03-24T14:24:12.119Z</time></trkpt><trkpt lat="40.9167467" lon="14.2045533"><ele>112.0</ele><time>2026-03-24T14:24:13.118Z</time></trkpt><trkpt lat="40.9167383" lon="14.2046633"><ele>112.0</ele><time>2026-03-24T14:24:14.118Z</time></trkpt><trkpt lat="40.91673" lon="14.2047733"><ele>112.0</ele><time>2026-03-24T14:24:15.118Z</time></trkpt><trkpt lat="40.91672" lon="14.2048883"><ele>112.00000000000001</ele><time>2026-03-24T14:24:16.118Z</time></trkpt><trkpt lat="40.9167133" lon="14.205"><ele>112.0</ele><time>2026-03-24T14:24:17.118Z</time></trkpt><trkpt lat="40.9167083" lon="14.205115"><ele>112.16666666666667</ele><time>2026-03-24T14:24:18.118Z</time></trkpt><trkpt lat="40.916705" lon="14.20523"><ele>112.33333333333334</ele><time>2026-03-24T14:24:19.118Z</time></trkpt><trkpt lat="40.916695" lon="14.2053417"><ele>112.5</ele><time>2026-03-24T14:24:20.118Z</time></trkpt><trkpt lat="40.9166767" lon="14.20545"><ele>112.66666666666666</ele><time>2026-03-24T14:24:21.119Z</time></trkpt><trkpt lat="40.9166483" lon="14.205555"><ele>112.83333333333333</ele><time>2026-03-24T14:24:22.118Z</time></trkpt><trkpt lat="40.91661" lon="14.2056533"><ele>113.0</ele><time>2026-03-24T14:24:23.119Z</time></trkpt><trkpt lat="40.9165767" lon="14.20575"><ele>112.99999999999999</ele><time>2026-03-24T14:24:24.119Z</time></trkpt><trkpt lat="40.9165533" lon="14.2058517"><ele>113.0</ele><time>2026-03-24T14:24:25.118Z</time></trkpt><trkpt lat="40.9165483" lon="14.2059467"><ele>113.0</ele><time>2026-03-24T14:24:26.12Z</time></trkpt><trkpt lat="40.91656" lon="14.2060433"><ele>113.0</ele><time>2026-03-24T14:24:27.118Z</time></trkpt><trkpt lat="40.9165817" lon="14.20614"><ele>112.99999999999999</ele><time>2026-03-24T14:24:28.118Z</time></trkpt><trkpt lat="40.9166017" lon="14.2062417"><ele>113.0</ele><time>2026-03-24T14:24:29.119Z</time></trkpt><trkpt lat="40.9166217" lon="14.2063383"><ele>112.99999999999999</ele><time>2026-03-24T14:24:30.12Z</time></trkpt><trkpt lat="40.9166317" lon="14.2064333"><ele>113.0</ele><time>2026-03-24T14:24:31.119Z</time></trkpt><trkpt lat="40.9166317" lon="14.2065383"><ele>113.0</ele><time>2026-03-24T14:24:32.119Z</time></trkpt><trkpt lat="40.916625" lon="14.2066467"><ele>113.0</ele><time>2026-03-24T14:24:33.12Z</time></trkpt><trkpt lat="40.916615" lon="14.20676"><ele>112.99999999999999</ele><time>2026-03-24T14:24:34.12Z</time></trkpt><trkpt lat="40.916605" lon="14.2068733"><ele>113.0</ele><time>2026-03-24T14:24:35.119Z</time></trkpt><trkpt lat="40.916595" lon="14.2069833"><ele>112.99999999999999</ele><time>2026-03-24T14:24:36.12Z</time></trkpt><trkpt lat="40.9165867" lon="14.2071"><ele>113.0</ele><time>2026-03-24T14:24:37.12Z</time></trkpt><trkpt lat="40.916575" lon="14.207215"><ele>113.0</ele><time>2026-03-24T14:24:38.118Z</time></trkpt><trkpt lat="40.916565" lon="14.20733"><ele>113.0</ele><time>2026-03-24T14:24:39.121Z</time></trkpt><trkpt lat="40.9165533" lon="14.20745"><ele>112.99999999999999</ele><time>2026-03-24T14:24:40.118Z</time></trkpt><trkpt lat="40.9165433" lon="14.20757"><ele>113.0</ele><time>2026-03-24T14:24:41.12Z</time></trkpt><trkpt lat="40.9165367" lon="14.2076917"><ele>113.0</ele><time>2026-03-24T14:24:42.119Z</time></trkpt><trkpt lat="40.9165283" lon="14.2078133"><ele>113.00000000000001</ele><time>2026-03-24T14:24:43.121Z</time></trkpt><trkpt lat="40.9165233" lon="14.207935"><ele>113.00000000000001</ele><time>2026-03-24T14:24:44.118Z</time></trkpt><trkpt lat="40.9165233" lon="14.20806"><ele>113.0</ele><time>2026-03-24T14:24:45.118Z</time></trkpt><trkpt lat="40.9165183" lon="14.2081817"><ele>113.0</ele><time>2026-03-24T14:24:46.117Z</time></trkpt><trkpt lat="40.9165083" lon="14.208305"><ele>112.60000000000001</ele><time>2026-03-24T14:24:47.118Z</time></trkpt><trkpt lat="40.9164983" lon="14.2084267"><ele>112.20000000000002</ele><time>2026-03-24T14:24:48.118Z</time></trkpt><trkpt lat="40.9164867" lon="14.2085483"><ele>111.8</ele><time>2026-03-24T14:24:49.118Z</time></trkpt><trkpt lat="40.9164733" lon="14.20867"><ele>111.4</ele><time>2026-03-24T14:24:50.118Z</time></trkpt><trkpt lat="40.9164617" lon="14.2087917"><ele>111.0</ele><time>2026-03-24T14:24:51.118Z</time></trkpt><trkpt lat="40.9164567" lon="14.2089167"><ele>110.66666666666667</ele><time>2026-03-24T14:24:52.118Z</time></trkpt><trkpt lat="40.9164517" lon="14.20904"><ele>110.33333333333334</ele><time>2026-03-24T14:24:53.122Z</time></trkpt><trkpt lat="40.916445" lon="14.2091567"><ele>110.0</ele><time>2026-03-24T14:24:54.118Z</time></trkpt><trkpt lat="40.9164383" lon="14.2092717"><ele>109.66666666666667</ele><time>2026-03-24T14:24:55.118Z</time></trkpt><trkpt lat="40.9164317" lon="14.2093867"><ele>109.33333333333334</ele><time>2026-03-24T14:24:56.118Z</time></trkpt><trkpt lat="40.9164267" lon="14.2095083"><ele>109.0</ele><time>2026-03-24T14:24:57.118Z</time></trkpt><trkpt lat="40.9164167" lon="14.209625"><ele>109.00000000000001</ele><time>2026-03-24T14:24:58.118Z</time></trkpt><trkpt lat="40.9164083" lon="14.2097383"><ele>109.0</ele><time>2026-03-24T14:24:59.12Z</time></trkpt><trkpt lat="40.9164017" lon="14.209855"><ele>109.0</ele><time>2026-03-24T14:25:00.118Z</time></trkpt><trkpt lat="40.916395" lon="14.2099733"><ele>109.0</ele><time>2026-03-24T14:25:01.121Z</time></trkpt><trkpt lat="40.916385" lon="14.210085"><ele>109.00000000000001</ele><time>2026-03-24T14:25:02.119Z</time></trkpt><trkpt lat="40.9163783" lon="14.210195"><ele>109.0</ele><time>2026-03-24T14:25:03.118Z</time></trkpt><trkpt lat="40.9163683" lon="14.2103083"><ele>109.33333333333334</ele><time>2026-03-24T14:25:04.118Z</time></trkpt><trkpt lat="40.916365" lon="14.2104217"><ele>109.66666666666667</ele><time>2026-03-24T14:25:05.118Z</time></trkpt><trkpt lat="40.9163583" lon="14.2105383"><ele>110.0</ele><time>2026-03-24T14:25:06.12Z</time></trkpt><trkpt lat="40.9163517" lon="14.2106567"><ele>110.33333333333334</ele><time>2026-03-24T14:25:07.119Z</time></trkpt><trkpt lat="40.9163433" lon="14.2107783"><ele>110.66666666666667</ele><time>2026-03-24T14:25:08.12Z</time></trkpt><trkpt lat="40.9163367" lon="14.2108983"><ele>111.0</ele><time>2026-03-24T14:25:09.118Z</time></trkpt><trkpt lat="40.9163267" lon="14.2110217"><ele>111.0</ele><time>2026-03-24T14:25:10.118Z</time></trkpt><trkpt lat="40.9163133" lon="14.2111483"><ele>111.0</ele><time>2026-03-24T14:25:11.118Z</time></trkpt><trkpt lat="40.9163033" lon="14.2112717"><ele>111.0</ele><time>2026-03-24T14:25:12.119Z</time></trkpt><trkpt lat="40.916295" lon="14.2113933"><ele>111.0</ele><time>2026-03-24T14:25:13.118Z</time></trkpt><trkpt lat="40.9162933" lon="14.2115183"><ele>111.0</ele><time>2026-03-24T14:25:14.119Z</time></trkpt><trkpt lat="40.9162917" lon="14.2116433"><ele>111.19999999999999</ele><time>2026-03-24T14:25:15.118Z</time></trkpt><trkpt lat="40.916285" lon="14.2117617"><ele>111.39999999999999</ele><time>2026-03-24T14:25:16.119Z</time></trkpt><trkpt lat="40.91628" lon="14.21189"><ele>111.6</ele><time>2026-03-24T14:25:17.118Z</time></trkpt><trkpt lat="40.9162717" lon="14.2120233"><ele>111.8</ele><time>2026-03-24T14:25:18.118Z</time></trkpt><trkpt lat="40.9162617" lon="14.21215"><ele>112.0</ele><time>2026-03-24T14:25:19.118Z</time></trkpt><trkpt lat="40.9162533" lon="14.2122767"><ele>111.6</ele><time>2026-03-24T14:25:20.118Z</time></trkpt><trkpt lat="40.9162417" lon="14.2123983"><ele>111.19999999999999</ele><time>2026-03-24T14:25:21.118Z</time></trkpt><trkpt lat="40.9162267" lon="14.2125183"><ele>110.8</ele><time>2026-03-24T14:25:22.12Z</time></trkpt><trkpt lat="40.91621" lon="14.2126367"><ele>110.4</ele><time>2026-03-24T14:25:23.119Z</time></trkpt><trkpt lat="40.9161933" lon="14.21275"><ele>110.0</ele><time>2026-03-24T14:25:24.118Z</time></trkpt><trkpt lat="40.916175" lon="14.2128683"><ele>109.99999999999999</ele><time>2026-03-24T14:25:25.118Z</time></trkpt><trkpt lat="40.9161533" lon="14.2129833"><ele>110.0</ele><time>2026-03-24T14:25:26.119Z</time></trkpt><trkpt lat="40.91613" lon="14.2130983"><ele>110.0</ele><time>2026-03-24T14:25:27.12Z</time></trkpt><trkpt lat="40.9161067" lon="14.2132133"><ele>110.0</ele><time>2026-03-24T14:25:28.123Z</time></trkpt><trkpt lat="40.9160833" lon="14.2133283"><ele>109.99999999999999</ele><time>2026-03-24T14:25:29.122Z</time></trkpt><trkpt lat="40.91606" lon="14.2134433"><ele>110.0</ele><time>2026-03-24T14:25:30.119Z</time></trkpt><trkpt lat="40.916035" lon="14.2135567"><ele>109.99999999999999</ele><time>2026-03-24T14:25:31.12Z</time></trkpt><trkpt lat="40.9160033" lon="14.21367"><ele>110.0</ele><time>2026-03-24T14:25:32.118Z</time></trkpt><trkpt lat="40.9159683" lon="14.21378"><ele>110.0</ele><time>2026-03-24T14:25:33.119Z</time></trkpt><trkpt lat="40.9159333" lon="14.21389"><ele>110.0</ele><time>2026-03-24T14:25:34.121Z</time></trkpt><trkpt lat="40.9159" lon="14.2139967"><ele>109.99999999999999</ele><time>2026-03-24T14:25:35.12Z</time></trkpt><trkpt lat="40.9158617" lon="14.214105"><ele>110.0</ele><time>2026-03-24T14:25:36.118Z</time></trkpt><trkpt lat="40.9158217" lon="14.2142117"><ele>110.0</ele><time>2026-03-24T14:25:37.125Z</time></trkpt><trkpt lat="40.9157817" lon="14.21432"><ele>110.0</ele><time>2026-03-24T14:25:38.119Z</time></trkpt><trkpt lat="40.9157367" lon="14.2144217"><ele>110.0</ele><time>2026-03-24T14:25:39.119Z</time></trkpt><trkpt lat="40.9156967" lon="14.214525"><ele>110.0</ele><time>2026-03-24T14:25:40.119Z</time></trkpt><trkpt lat="40.915655" lon="14.2146367"><ele>110.0</ele><time>2026-03-24T14:25:41.12Z</time></trkpt><trkpt lat="40.9156133" lon="14.2147433"><ele>110.0</ele><time>2026-03-24T14:25:42.119Z</time></trkpt><trkpt lat="40.915575" lon="14.2148517"><ele>110.0</ele><time>2026-03-24T14:25:43.119Z</time></trkpt><trkpt lat="40.9155383" lon="14.2149617"><ele>110.0</ele><time>2026-03-24T14:25:44.123Z</time></trkpt><trkpt lat="40.9154983" lon="14.2150717"><ele>110.0</ele><time>2026-03-24T14:25:45.123Z</time></trkpt><trkpt lat="40.9154617" lon="14.2151783"><ele>110.0</ele><time>2026-03-24T14:25:46.122Z</time></trkpt><trkpt lat="40.9154267" lon="14.2152867"><ele>110.0</ele><time>2026-03-24T14:25:47.122Z</time></trkpt><trkpt lat="40.9153933" lon="14.2153983"><ele>110.0</ele><time>2026-03-24T14:25:48.121Z</time></trkpt><trkpt lat="40.9153533" lon="14.2155083"><ele>110.0</ele><time>2026-03-24T14:25:49.119Z</time></trkpt><trkpt lat="40.9153117" lon="14.215615"><ele>110.0</ele><time>2026-03-24T14:25:50.119Z</time></trkpt><trkpt lat="40.9152717" lon="14.2157233"><ele>110.0</ele><time>2026-03-24T14:25:51.118Z</time></trkpt><trkpt lat="40.9152317" lon="14.215835"><ele>110.16666666666666</ele><time>2026-03-24T14:25:52.118Z</time></trkpt><trkpt lat="40.9151917" lon="14.215945"><ele>110.33333333333333</ele><time>2026-03-24T14:25:53.118Z</time></trkpt><trkpt lat="40.9151533" lon="14.2160533"><ele>110.5</ele><time>2026-03-24T14:25:54.119Z</time></trkpt><trkpt lat="40.9151167" lon="14.2161583"><ele>110.66666666666666</ele><time>2026-03-24T14:25:55.118Z</time></trkpt><trkpt lat="40.9150767" lon="14.2162617"><ele>110.83333333333333</ele><time>2026-03-24T14:25:56.118Z</time></trkpt><trkpt lat="40.9150383" lon="14.21636"><ele>111.0</ele><time>2026-03-24T14:25:57.12Z</time></trkpt><trkpt lat="40.914995" lon="14.2164417"><ele>111.0</ele><time>2026-03-24T14:25:58.119Z</time></trkpt><trkpt lat="40.914965" lon="14.2165167"><ele>111.0</ele><time>2026-03-24T14:25:59.12Z</time></trkpt><trkpt lat="40.9149133" lon="14.2166583"><ele>111.0</ele><time>2026-03-24T14:26:01.12Z</time></trkpt><trkpt lat="40.914865" lon="14.2167683"><ele>111.0</ele><time>2026-03-24T14:26:03.118Z</time></trkpt><trkpt lat="40.91482" lon="14.21687"><ele>111.0</ele><time>2026-03-24T14:26:05.118Z</time></trkpt><trkpt lat="40.9147817" lon="14.2169833"><ele>111.0</ele><time>2026-03-24T14:26:07.119Z</time></trkpt><trkpt lat="40.9147233" lon="14.2170983"><ele>111.0</ele><time>2026-03-24T14:26:09.119Z</time></trkpt><trkpt lat="40.9146467" lon="14.2172067"><ele>111.0</ele><time>2026-03-24T14:26:11.118Z</time></trkpt><trkpt lat="40.9145583" lon="14.217285"><ele>111.0</ele><time>2026-03-24T14:26:13.119Z</time></trkpt><trkpt lat="40.91448" lon="14.2173867"><ele>111.0</ele><time>2026-03-24T14:26:15.119Z</time></trkpt><trkpt lat="40.9144267" lon="14.2175117"><ele>110.5</ele><time>2026-03-24T14:26:17.118Z</time></trkpt><trkpt lat="40.91441" lon="14.2176767"><ele>110.0</ele><time>2026-03-24T14:26:19.119Z</time></trkpt><trkpt lat="40.9143983" lon="14.2177633"><ele>109.5</ele><time>2026-03-24T14:26:20.12Z</time></trkpt><trkpt lat="40.9143833" lon="14.2178517"><ele>109.0</ele><time>2026-03-24T14:26:21.119Z</time></trkpt><trkpt lat="40.9143717" lon="14.2179417"><ele>108.5</ele><time>2026-03-24T14:26:22.118Z</time></trkpt><trkpt lat="40.9143567" lon="14.21804"><ele>108.0</ele><time>2026-03-24T14:26:23.119Z</time></trkpt><trkpt lat="40.9143383" lon="14.2181383"><ele>108.0</ele><time>2026-03-24T14:26:24.123Z</time></trkpt><trkpt lat="40.914315" lon="14.218235"><ele>108.0</ele><time>2026-03-24T14:26:25.118Z</time></trkpt><trkpt lat="40.914285" lon="14.21833"><ele>108.0</ele><time>2026-03-24T14:26:26.119Z</time></trkpt><trkpt lat="40.9142483" lon="14.2184233"><ele>108.0</ele><time>2026-03-24T14:26:27.12Z</time></trkpt><trkpt lat="40.9142067" lon="14.2185183"><ele>108.0</ele><time>2026-03-24T14:26:28.119Z</time></trkpt><trkpt lat="40.914165" lon="14.21861"><ele>108.0</ele><time>2026-03-24T14:26:29.119Z</time></trkpt><trkpt lat="40.9141217" lon="14.2187033"><ele>108.16666666666667</ele><time>2026-03-24T14:26:30.118Z</time></trkpt><trkpt lat="40.9140817" lon="14.2187917"><ele>108.33333333333334</ele><time>2026-03-24T14:26:31.119Z</time></trkpt><trkpt lat="40.914045" lon="14.2188783"><ele>108.5</ele><time>2026-03-24T14:26:32.12Z</time></trkpt><trkpt lat="40.9140067" lon="14.2189667"><ele>108.66666666666667</ele><time>2026-03-24T14:26:33.118Z</time></trkpt><trkpt lat="40.9139717" lon="14.21906"><ele>108.83333333333334</ele><time>2026-03-24T14:26:34.118Z</time></trkpt><trkpt lat="40.9139317" lon="14.2191567"><ele>109.0</ele><time>2026-03-24T14:26:35.119Z</time></trkpt><trkpt lat="40.9138917" lon="14.219255"><ele>109.00000000000001</ele><time>2026-03-24T14:26:36.118Z</time></trkpt><trkpt lat="40.9138517" lon="14.2193517"><ele>109.0</ele><time>2026-03-24T14:26:37.118Z</time></trkpt><trkpt lat="40.9138117" lon="14.2194517"><ele>109.0</ele><time>2026-03-24T14:26:38.119Z</time></trkpt><trkpt lat="40.9137683" lon="14.21956"><ele>109.0</ele><time>2026-03-24T14:26:39.118Z</time></trkpt><trkpt lat="40.91373" lon="14.2196667"><ele>109.00000000000001</ele><time>2026-03-24T14:26:40.119Z</time></trkpt><trkpt lat="40.9136883" lon="14.2197783"><ele>109.0</ele><time>2026-03-24T14:26:41.118Z</time></trkpt><trkpt lat="40.91365" lon="14.2198867"><ele>109.16666666666667</ele><time>2026-03-24T14:26:42.119Z</time></trkpt><trkpt lat="40.9136133" lon="14.21999"><ele>109.33333333333334</ele><time>2026-03-24T14:26:43.119Z</time></trkpt><trkpt lat="40.9135767" lon="14.2200983"><ele>109.5</ele><time>2026-03-24T14:26:44.119Z</time></trkpt><trkpt lat="40.9135433" lon="14.220205"><ele>109.66666666666666</ele><time>2026-03-24T14:26:45.118Z</time></trkpt><trkpt lat="40.9135083" lon="14.220315"><ele>109.83333333333333</ele><time>2026-03-24T14:26:46.118Z</time></trkpt><trkpt lat="40.91347" lon="14.22042"><ele>110.0</ele><time>2026-03-24T14:26:47.119Z</time></trkpt><trkpt lat="40.91343" lon="14.22052"><ele>110.16666666666666</ele><time>2026-03-24T14:26:48.119Z</time></trkpt><trkpt lat="40.91339" lon="14.22062"><ele>110.33333333333333</ele><time>2026-03-24T14:26:49.121Z</time></trkpt><trkpt lat="40.9133533" lon="14.220725"><ele>110.5</ele><time>2026-03-24T14:26:50.12Z</time></trkpt><trkpt lat="40.9133133" lon="14.2208283"><ele>110.66666666666666</ele><time>2026-03-24T14:26:51.118Z</time></trkpt><trkpt lat="40.9132767" lon="14.2209317"><ele>110.83333333333333</ele><time>2026-03-24T14:26:52.118Z</time></trkpt><trkpt lat="40.913235" lon="14.2210333"><ele>111.0</ele><time>2026-03-24T14:26:53.119Z</time></trkpt><trkpt lat="40.913195" lon="14.2211383"><ele>111.0</ele><time>2026-03-24T14:26:54.119Z</time></trkpt><trkpt lat="40.9131583" lon="14.2212467"><ele>111.0</ele><time>2026-03-24T14:26:55.119Z</time></trkpt><trkpt lat="40.91312" lon="14.2213533"><ele>111.0</ele><time>2026-03-24T14:26:56.119Z</time></trkpt><trkpt lat="40.91308" lon="14.22146"><ele>111.0</ele><time>2026-03-24T14:26:57.119Z</time></trkpt><trkpt lat="40.9130433" lon="14.2215683"><ele>111.0</ele><time>2026-03-24T14:26:58.118Z</time></trkpt><trkpt lat="40.9130083" lon="14.2216733"><ele>111.0</ele><time>2026-03-24T14:26:59.118Z</time></trkpt><trkpt lat="40.9129733" lon="14.2217767"><ele>110.8</ele><time>2026-03-24T14:27:00.119Z</time></trkpt><trkpt lat="40.9129367" lon="14.2218783"><ele>110.6</ele><time>2026-03-24T14:27:01.118Z</time></trkpt><trkpt lat="40.9128933" lon="14.221985"><ele>110.4</ele><time>2026-03-24T14:27:02.119Z</time></trkpt><trkpt lat="40.91285" lon="14.2220967"><ele>110.2</ele><time>2026-03-24T14:27:03.12Z</time></trkpt><trkpt lat="40.912805" lon="14.2222067"><ele>110.0</ele><time>2026-03-24T14:27:04.118Z</time></trkpt><trkpt lat="40.9127633" lon="14.2223167"><ele>110.0</ele><time>2026-03-24T14:27:05.12Z</time></trkpt><trkpt lat="40.91272" lon="14.2224317"><ele>110.0</ele><time>2026-03-24T14:27:06.119Z</time></trkpt><trkpt lat="40.9126767" lon="14.2225517"><ele>110.0</ele><time>2026-03-24T14:27:07.119Z</time></trkpt><trkpt lat="40.912635" lon="14.2226733"><ele>110.0</ele><time>2026-03-24T14:27:08.119Z</time></trkpt><trkpt lat="40.9125917" lon="14.2227867"><ele>110.0</ele><time>2026-03-24T14:27:09.119Z</time></trkpt><trkpt lat="40.91255" lon="14.2229033"><ele>110.2</ele><time>2026-03-24T14:27:10.118Z</time></trkpt><trkpt lat="40.9125083" lon="14.2230217"><ele>110.4</ele><time>2026-03-24T14:27:11.118Z</time></trkpt><trkpt lat="40.912465" lon="14.2231367"><ele>110.6</ele><time>2026-03-24T14:27:12.119Z</time></trkpt><trkpt lat="40.91242" lon="14.2232517"><ele>110.8</ele><time>2026-03-24T14:27:13.119Z</time></trkpt><trkpt lat="40.9123767" lon="14.2233667"><ele>111.0</ele><time>2026-03-24T14:27:14.118Z</time></trkpt><trkpt lat="40.9123317" lon="14.223485"><ele>111.0</ele><time>2026-03-24T14:27:15.119Z</time></trkpt><trkpt lat="40.9122883" lon="14.2236033"><ele>111.0</ele><time>2026-03-24T14:27:16.118Z</time></trkpt><trkpt lat="40.9122433" lon="14.2237167"><ele>111.0</ele><time>2026-03-24T14:27:17.12Z</time></trkpt><trkpt lat="40.9121967" lon="14.2238333"><ele>111.0</ele><time>2026-03-24T14:27:18.119Z</time></trkpt><trkpt lat="40.9121483" lon="14.2239483"><ele>111.0</ele><time>2026-03-24T14:27:19.119Z</time></trkpt><trkpt lat="40.9121033" lon="14.2240633"><ele>110.8</ele><time>2026-03-24T14:27:20.119Z</time></trkpt><trkpt lat="40.9120567" lon="14.2241733"><ele>110.6</ele><time>2026-03-24T14:27:21.119Z</time></trkpt><trkpt lat="40.9120117" lon="14.22429"><ele>110.4</ele><time>2026-03-24T14:27:22.118Z</time></trkpt><trkpt lat="40.911965" lon="14.2244067"><ele>110.2</ele><time>2026-03-24T14:27:23.12Z</time></trkpt><trkpt lat="40.91192" lon="14.2245267"><ele>110.0</ele><time>2026-03-24T14:27:24.12Z</time></trkpt><trkpt lat="40.9118767" lon="14.2246467"><ele>110.0</ele><time>2026-03-24T14:27:25.118Z</time></trkpt><trkpt lat="40.9118333" lon="14.2247683"><ele>110.0</ele><time>2026-03-24T14:27:26.119Z</time></trkpt><trkpt lat="40.91179" lon="14.22489"><ele>110.0</ele><time>2026-03-24T14:27:27.118Z</time></trkpt><trkpt lat="40.9117433" lon="14.2250117"><ele>110.0</ele><time>2026-03-24T14:27:28.119Z</time></trkpt><trkpt lat="40.9116983" lon="14.2251333"><ele>110.0</ele><time>2026-03-24T14:27:29.12Z</time></trkpt><trkpt lat="40.9116533" lon="14.2252567"><ele>110.2</ele><time>2026-03-24T14:27:30.12Z</time></trkpt><trkpt lat="40.9116067" lon="14.2253767"><ele>110.4</ele><time>2026-03-24T14:27:31.118Z</time></trkpt><trkpt lat="40.9115617" lon="14.2254967"><ele>110.6</ele><time>2026-03-24T14:27:32.12Z</time></trkpt><trkpt lat="40.911515" lon="14.225615"><ele>110.8</ele><time>2026-03-24T14:27:33.12Z</time></trkpt><trkpt lat="40.9114683" lon="14.2257367"><ele>111.0</ele><time>2026-03-24T14:27:34.119Z</time></trkpt><trkpt lat="40.9114217" lon="14.225855"><ele>111.0</ele><time>2026-03-24T14:27:35.12Z</time></trkpt><trkpt lat="40.9113767" lon="14.22598"><ele>111.0</ele><time>2026-03-24T14:27:36.122Z</time></trkpt><trkpt lat="40.91133" lon="14.226105"><ele>111.0</ele><time>2026-03-24T14:27:37.118Z</time></trkpt><trkpt lat="40.9112917" lon="14.22623"><ele>111.0</ele><time>2026-03-24T14:27:38.119Z</time></trkpt><trkpt lat="40.911245" lon="14.2263533"><ele>111.0</ele><time>2026-03-24T14:27:39.118Z</time></trkpt><trkpt lat="40.9112033" lon="14.2264733"><ele>110.8</ele><time>2026-03-24T14:27:40.119Z</time></trkpt><trkpt lat="40.911155" lon="14.2265933"><ele>110.6</ele><time>2026-03-24T14:27:41.118Z</time></trkpt><trkpt lat="40.9111117" lon="14.2267133"><ele>110.4</ele><time>2026-03-24T14:27:42.119Z</time></trkpt><trkpt lat="40.9110667" lon="14.2268333"><ele>110.2</ele><time>2026-03-24T14:27:43.119Z</time></trkpt><trkpt lat="40.9110183" lon="14.226955"><ele>110.0</ele><time>2026-03-24T14:27:44.119Z</time></trkpt><trkpt lat="40.9109717" lon="14.2270783"><ele>110.0</ele><time>2026-03-24T14:27:45.119Z</time></trkpt><trkpt lat="40.910925" lon="14.2272033"><ele>110.0</ele><time>2026-03-24T14:27:46.118Z</time></trkpt><trkpt lat="40.9108783" lon="14.2273283"><ele>110.0</ele><time>2026-03-24T14:27:47.118Z</time></trkpt><trkpt lat="40.9108333" lon="14.22745"><ele>110.0</ele><time>2026-03-24T14:27:48.118Z</time></trkpt><trkpt lat="40.9107883" lon="14.2275717"><ele>110.0</ele><time>2026-03-24T14:27:49.119Z</time></trkpt><trkpt lat="40.9107317" lon="14.2276967"><ele>110.0</ele><time>2026-03-24T14:27:50.119Z</time></trkpt><trkpt lat="40.9106883" lon="14.2278217"><ele>110.0</ele><time>2026-03-24T14:27:51.119Z</time></trkpt><trkpt lat="40.91064" lon="14.22795"><ele>110.0</ele><time>2026-03-24T14:27:52.119Z</time></trkpt><trkpt lat="40.9105917" lon="14.2280783"><ele>110.0</ele><time>2026-03-24T14:27:53.121Z</time></trkpt><trkpt lat="40.9105433" lon="14.2282017"><ele>110.0</ele><time>2026-03-24T14:27:54.119Z</time></trkpt><trkpt lat="40.9104967" lon="14.228325"><ele>109.8</ele><time>2026-03-24T14:27:55.119Z</time></trkpt><trkpt lat="40.9104517" lon="14.2284533"><ele>109.6</ele><time>2026-03-24T14:27:56.119Z</time></trkpt><trkpt lat="40.9104033" lon="14.2285817"><ele>109.4</ele><time>2026-03-24T14:27:57.119Z</time></trkpt><trkpt lat="40.910355" lon="14.2287117"><ele>109.2</ele><time>2026-03-24T14:27:58.118Z</time></trkpt><trkpt lat="40.91031" lon="14.22884"><ele>109.0</ele><time>2026-03-24T14:27:59.126Z</time></trkpt><trkpt lat="40.9102633" lon="14.22897"><ele>108.80000000000001</ele><time>2026-03-24T14:28:00.125Z</time></trkpt><trkpt lat="40.9102183" lon="14.229095"><ele>108.60000000000001</ele><time>2026-03-24T14:28:01.119Z</time></trkpt><trkpt lat="40.91017" lon="14.22922"><ele>108.4</ele><time>2026-03-24T14:28:02.119Z</time></trkpt><trkpt lat="40.9101233" lon="14.22934"><ele>108.2</ele><time>2026-03-24T14:28:03.118Z</time></trkpt><trkpt lat="40.9100833" lon="14.2294617"><ele>108.0</ele><time>2026-03-24T14:28:04.118Z</time></trkpt><trkpt lat="40.91004" lon="14.2295867"><ele>108.2</ele><time>2026-03-24T14:28:05.119Z</time></trkpt><trkpt lat="40.9099983" lon="14.2297117"><ele>108.4</ele><time>2026-03-24T14:28:06.12Z</time></trkpt><trkpt lat="40.9099583" lon="14.2298333"><ele>108.60000000000001</ele><time>2026-03-24T14:28:07.119Z</time></trkpt><trkpt lat="40.90992" lon="14.22996"><ele>108.80000000000001</ele><time>2026-03-24T14:28:08.119Z</time></trkpt><trkpt lat="40.909885" lon="14.2300883"><ele>109.0</ele><time>2026-03-24T14:28:09.118Z</time></trkpt><trkpt lat="40.9098533" lon="14.2302183"><ele>109.0</ele><time>2026-03-24T14:28:10.118Z</time></trkpt><trkpt lat="40.9098217" lon="14.2303483"><ele>109.0</ele><time>2026-03-24T14:28:11.119Z</time></trkpt><trkpt lat="40.909795" lon="14.23048"><ele>109.0</ele><time>2026-03-24T14:28:12.119Z</time></trkpt><trkpt lat="40.909765" lon="14.2306117"><ele>109.0</ele><time>2026-03-24T14:28:13.118Z</time></trkpt><trkpt lat="40.9097483" lon="14.230745"><ele>109.0</ele><time>2026-03-24T14:28:14.118Z</time></trkpt><trkpt lat="40.909735" lon="14.2308767"><ele>108.80000000000001</ele><time>2026-03-24T14:28:15.117Z</time></trkpt><trkpt lat="40.90972" lon="14.2310117"><ele>108.60000000000001</ele><time>2026-03-24T14:28:16.119Z</time></trkpt><trkpt lat="40.9097067" lon="14.231145"><ele>108.4</ele><time>2026-03-24T14:28:17.118Z</time></trkpt><trkpt lat="40.9097" lon="14.23128"><ele>108.2</ele><time>2026-03-24T14:28:18.118Z</time></trkpt><trkpt lat="40.909695" lon="14.2314183"><ele>108.0</ele><time>2026-03-24T14:28:19.117Z</time></trkpt><trkpt lat="40.9096967" lon="14.2315567"><ele>107.60000000000001</ele><time>2026-03-24T14:28:20.121Z</time></trkpt><trkpt lat="40.909695" lon="14.23169"><ele>107.20000000000002</ele><time>2026-03-24T14:28:21.118Z</time></trkpt><trkpt lat="40.9096967" lon="14.2318233"><ele>106.8</ele><time>2026-03-24T14:28:22.118Z</time></trkpt><trkpt lat="40.9097017" lon="14.2319533"><ele>106.4</ele><time>2026-03-24T14:28:23.117Z</time></trkpt><trkpt lat="40.9097117" lon="14.2320783"><ele>106.0</ele><time>2026-03-24T14:28:24.117Z</time></trkpt><trkpt lat="40.9097283" lon="14.2322017"><ele>106.6</ele><time>2026-03-24T14:28:25.118Z</time></trkpt><trkpt lat="40.9097533" lon="14.2323217"><ele>107.19999999999999</ele><time>2026-03-24T14:28:26.118Z</time></trkpt><trkpt lat="40.9097783" lon="14.2324383"><ele>107.80000000000001</ele><time>2026-03-24T14:28:27.118Z</time></trkpt><trkpt lat="40.9098" lon="14.2325567"><ele>108.4</ele><time>2026-03-24T14:28:28.118Z</time></trkpt><trkpt lat="40.9098217" lon="14.232675"><ele>109.0</ele><time>2026-03-24T14:28:29.119Z</time></trkpt><trkpt lat="40.9098433" lon="14.2327933"><ele>109.00000000000001</ele><time>2026-03-24T14:28:30.118Z</time></trkpt><trkpt lat="40.9098683" lon="14.232905"><ele>109.0</ele><time>2026-03-24T14:28:31.117Z</time></trkpt><trkpt lat="40.9098917" lon="14.23301"><ele>109.0</ele><time>2026-03-24T14:28:32.118Z</time></trkpt><trkpt lat="40.9099167" lon="14.2331117"><ele>109.0</ele><time>2026-03-24T14:28:33.117Z</time></trkpt><trkpt lat="40.9099367" lon="14.2332017"><ele>109.00000000000001</ele><time>2026-03-24T14:28:34.118Z</time></trkpt><trkpt lat="40.90998" lon="14.23335"><ele>109.0</ele><time>2026-03-24T14:28:36.117Z</time></trkpt><trkpt lat="40.9100317" lon="14.233505"><ele>108.66666666666667</ele><time>2026-03-24T14:28:38.118Z</time></trkpt><trkpt lat="40.910055" lon="14.2335917"><ele>108.33333333333334</ele><time>2026-03-24T14:28:39.118Z</time></trkpt><trkpt lat="40.910085" lon="14.2336817"><ele>108.0</ele><time>2026-03-24T14:28:40.118Z</time></trkpt><trkpt lat="40.9101167" lon="14.2337717"><ele>107.66666666666666</ele><time>2026-03-24T14:28:41.117Z</time></trkpt><trkpt lat="40.9101533" lon="14.23386"><ele>107.33333333333333</ele><time>2026-03-24T14:28:42.118Z</time></trkpt><trkpt lat="40.9101917" lon="14.2339583"><ele>107.0</ele><time>2026-03-24T14:28:43.118Z</time></trkpt><trkpt lat="40.9102317" lon="14.234055"><ele>106.42857142857143</ele><time>2026-03-24T14:28:44.119Z</time></trkpt><trkpt lat="40.9102667" lon="14.234145"><ele>105.85714285714286</ele><time>2026-03-24T14:28:45.118Z</time></trkpt><trkpt lat="40.91031" lon="14.23423"><ele>105.28571428571428</ele><time>2026-03-24T14:28:46.118Z</time></trkpt><trkpt lat="40.9103467" lon="14.2343117"><ele>104.71428571428572</ele><time>2026-03-24T14:28:47.118Z</time></trkpt><trkpt lat="40.910385" lon="14.234395"><ele>104.14285714285714</ele><time>2026-03-24T14:28:48.119Z</time></trkpt><trkpt lat="40.9104283" lon="14.2344733"><ele>103.57142857142857</ele><time>2026-03-24T14:28:49.118Z</time></trkpt><trkpt lat="40.910475" lon="14.23455"><ele>103.0</ele><time>2026-03-24T14:28:50.118Z</time></trkpt><trkpt lat="40.910525" lon="14.2346333"><ele>103.00000000000001</ele><time>2026-03-24T14:28:51.118Z</time></trkpt><trkpt lat="40.9105767" lon="14.234715"><ele>103.0</ele><time>2026-03-24T14:28:52.118Z</time></trkpt><trkpt lat="40.9106283" lon="14.2347983"><ele>103.0</ele><time>2026-03-24T14:28:53.118Z</time></trkpt><trkpt lat="40.91068" lon="14.2348767"><ele>103.0</ele><time>2026-03-24T14:28:54.117Z</time></trkpt><trkpt lat="40.9107333" lon="14.2349583"><ele>103.00000000000001</ele><time>2026-03-24T14:28:55.117Z</time></trkpt><trkpt lat="40.9107867" lon="14.235035"><ele>103.0</ele><time>2026-03-24T14:28:56.119Z</time></trkpt><trkpt lat="40.9108433" lon="14.2351133"><ele>103.00000000000001</ele><time>2026-03-24T14:28:57.119Z</time></trkpt><trkpt lat="40.9108983" lon="14.2351933"><ele>103.0</ele><time>2026-03-24T14:28:58.119Z</time></trkpt><trkpt lat="40.910955" lon="14.2352717"><ele>103.0</ele><time>2026-03-24T14:28:59.117Z</time></trkpt><trkpt lat="40.911005" lon="14.2353467"><ele>103.0</ele><time>2026-03-24T14:29:00.118Z</time></trkpt><trkpt lat="40.911055" lon="14.2354217"><ele>103.00000000000001</ele><time>2026-03-24T14:29:01.118Z</time></trkpt><trkpt lat="40.9110983" lon="14.2354933"><ele>103.0</ele><time>2026-03-24T14:29:02.121Z</time></trkpt><trkpt lat="40.9111417" lon="14.2355633"><ele>102.85714285714285</ele><time>2026-03-24T14:29:03.118Z</time></trkpt><trkpt lat="40.91118" lon="14.2356417"><ele>102.71428571428571</ele><time>2026-03-24T14:29:04.118Z</time></trkpt><trkpt lat="40.9112017" lon="14.2357267"><ele>102.57142857142857</ele><time>2026-03-24T14:29:05.118Z</time></trkpt><trkpt lat="40.9112233" lon="14.23581"><ele>102.42857142857142</ele><time>2026-03-24T14:29:06.119Z</time></trkpt><trkpt lat="40.911255" lon="14.2358917"><ele>102.28571428571429</ele><time>2026-03-24T14:29:07.121Z</time></trkpt><trkpt lat="40.9113017" lon="14.2359667"><ele>102.14285714285714</ele><time>2026-03-24T14:29:08.117Z</time></trkpt><trkpt lat="40.9113533" lon="14.2360317"><ele>102.0</ele><time>2026-03-24T14:29:09.118Z</time></trkpt><trkpt lat="40.9114167" lon="14.2360883"><ele>102.0</ele><time>2026-03-24T14:29:10.118Z</time></trkpt><trkpt lat="40.911485" lon="14.23615"><ele>102.0</ele><time>2026-03-24T14:29:11.118Z</time></trkpt><trkpt lat="40.9115533" lon="14.2362233"><ele>102.0</ele><time>2026-03-24T14:29:12.118Z</time></trkpt><trkpt lat="40.9116183" lon="14.2363067"><ele>102.0</ele><time>2026-03-24T14:29:13.118Z</time></trkpt><trkpt lat="40.9116817" lon="14.2364"><ele>102.0</ele><time>2026-03-24T14:29:14.117Z</time></trkpt><trkpt lat="40.9117467" lon="14.2364983"><ele>102.0</ele><time>2026-03-24T14:29:15.119Z</time></trkpt><trkpt lat="40.9118167" lon="14.2366"><ele>102.0</ele><time>2026-03-24T14:29:16.119Z</time></trkpt><trkpt lat="40.9118867" lon="14.2367033"><ele>102.0</ele><time>2026-03-24T14:29:17.118Z</time></trkpt><trkpt lat="40.9119583" lon="14.2368117"><ele>102.0</ele><time>2026-03-24T14:29:18.118Z</time></trkpt><trkpt lat="40.9120317" lon="14.2369217"><ele>102.0</ele><time>2026-03-24T14:29:19.118Z</time></trkpt><trkpt lat="40.9121067" lon="14.2370317"><ele>102.0</ele><time>2026-03-24T14:29:20.118Z</time></trkpt><trkpt lat="40.9121833" lon="14.2371467"><ele>102.0</ele><time>2026-03-24T14:29:21.119Z</time></trkpt><trkpt lat="40.9122633" lon="14.2372633"><ele>102.0</ele><time>2026-03-24T14:29:22.117Z</time></trkpt><trkpt lat="40.9123433" lon="14.23738"><ele>102.0</ele><time>2026-03-24T14:29:23.119Z</time></trkpt><trkpt lat="40.9124233" lon="14.2374967"><ele>101.5</ele><time>2026-03-24T14:29:24.119Z</time></trkpt><trkpt lat="40.9125" lon="14.2376133"><ele>101.0</ele><time>2026-03-24T14:29:25.119Z</time></trkpt><trkpt lat="40.91258" lon="14.2377333"><ele>100.5</ele><time>2026-03-24T14:29:26.118Z</time></trkpt><trkpt lat="40.9126533" lon="14.2378517"><ele>100.0</ele><time>2026-03-24T14:29:27.119Z</time></trkpt><trkpt lat="40.9127283" lon="14.23797"><ele>100.0</ele><time>2026-03-24T14:29:28.117Z</time></trkpt><trkpt lat="40.9128033" lon="14.238085"><ele>100.0</ele><time>2026-03-24T14:29:29.119Z</time></trkpt><trkpt lat="40.91288" lon="14.2382017"><ele>100.0</ele><time>2026-03-24T14:29:30.119Z</time></trkpt><trkpt lat="40.9129517" lon="14.23832"><ele>100.0</ele><time>2026-03-24T14:29:31.119Z</time></trkpt><trkpt lat="40.913025" lon="14.2384367"><ele>99.6</ele><time>2026-03-24T14:29:32.119Z</time></trkpt><trkpt lat="40.913095" lon="14.2385483"><ele>99.2</ele><time>2026-03-24T14:29:33.12Z</time></trkpt><trkpt lat="40.9131633" lon="14.2386567"><ele>98.80000000000001</ele><time>2026-03-24T14:29:34.118Z</time></trkpt><trkpt lat="40.9132333" lon="14.2387617"><ele>98.4</ele><time>2026-03-24T14:29:35.117Z</time></trkpt><trkpt lat="40.9132983" lon="14.23886"><ele>98.0</ele><time>2026-03-24T14:29:36.119Z</time></trkpt><trkpt lat="40.913365" lon="14.2389533"><ele>97.2</ele><time>2026-03-24T14:29:37.12Z</time></trkpt><trkpt lat="40.9134333" lon="14.239055"><ele>96.4</ele><time>2026-03-24T14:29:38.118Z</time></trkpt><trkpt lat="40.9135017" lon="14.2391567"><ele>95.60000000000001</ele><time>2026-03-24T14:29:39.118Z</time></trkpt><trkpt lat="40.9135717" lon="14.23926"><ele>94.80000000000001</ele><time>2026-03-24T14:29:40.119Z</time></trkpt><trkpt lat="40.9136367" lon="14.2393667"><ele>94.0</ele><time>2026-03-24T14:29:41.118Z</time></trkpt><trkpt lat="40.913705" lon="14.2394767"><ele>94.0</ele><time>2026-03-24T14:29:42.118Z</time></trkpt><trkpt lat="40.9137733" lon="14.239585"><ele>94.0</ele><time>2026-03-24T14:29:43.118Z</time></trkpt><trkpt lat="40.9138433" lon="14.23969"><ele>94.0</ele><time>2026-03-24T14:29:44.12Z</time></trkpt><trkpt lat="40.913915" lon="14.2397967"><ele>94.0</ele><time>2026-03-24T14:29:45.118Z</time></trkpt><trkpt lat="40.913985" lon="14.2399"><ele>94.0</ele><time>2026-03-24T14:29:46.117Z</time></trkpt><trkpt lat="40.9140567" lon="14.240005"><ele>93.80000000000001</ele><time>2026-03-24T14:29:47.118Z</time></trkpt><trkpt lat="40.9141283" lon="14.2401117"><ele>93.60000000000001</ele><time>2026-03-24T14:29:48.119Z</time></trkpt><trkpt lat="40.9141967" lon="14.24022"><ele>93.4</ele><time>2026-03-24T14:29:49.118Z</time></trkpt><trkpt lat="40.9142633" lon="14.240325"><ele>93.2</ele><time>2026-03-24T14:29:50.117Z</time></trkpt><trkpt lat="40.9143317" lon="14.2404383"><ele>93.0</ele><time>2026-03-24T14:29:51.118Z</time></trkpt><trkpt lat="40.9143983" lon="14.2405517"><ele>93.0</ele><time>2026-03-24T14:29:52.118Z</time></trkpt><trkpt lat="40.91446" lon="14.2406683"><ele>93.0</ele><time>2026-03-24T14:29:53.117Z</time></trkpt><trkpt lat="40.9145183" lon="14.24079"><ele>93.0</ele><time>2026-03-24T14:29:54.118Z</time></trkpt><trkpt lat="40.9145733" lon="14.2409133"><ele>93.0</ele><time>2026-03-24T14:29:55.119Z</time></trkpt><trkpt lat="40.914625" lon="14.241045"><ele>93.0</ele><time>2026-03-24T14:29:56.118Z</time></trkpt><trkpt lat="40.914675" lon="14.2411817"><ele>93.0</ele><time>2026-03-24T14:29:57.118Z</time></trkpt><trkpt lat="40.91472" lon="14.2413167"><ele>93.0</ele><time>2026-03-24T14:29:58.118Z</time></trkpt><trkpt lat="40.9147617" lon="14.2414533"><ele>93.0</ele><time>2026-03-24T14:29:59.118Z</time></trkpt><trkpt lat="40.9148017" lon="14.241595"><ele>93.0</ele><time>2026-03-24T14:30:00.119Z</time></trkpt><trkpt lat="40.9148383" lon="14.2417417"><ele>92.75</ele><time>2026-03-24T14:30:01.118Z</time></trkpt><trkpt lat="40.9148717" lon="14.2418883"><ele>92.5</ele><time>2026-03-24T14:30:02.118Z</time></trkpt><trkpt lat="40.9149" lon="14.2420367"><ele>92.25</ele><time>2026-03-24T14:30:03.118Z</time></trkpt><trkpt lat="40.914925" lon="14.2421883"><ele>92.0</ele><time>2026-03-24T14:30:04.117Z</time></trkpt><trkpt lat="40.9149433" lon="14.2423383"><ele>91.8</ele><time>2026-03-24T14:30:05.118Z</time></trkpt><trkpt lat="40.9149583" lon="14.2424833"><ele>91.6</ele><time>2026-03-24T14:30:06.118Z</time></trkpt><trkpt lat="40.91497" lon="14.2426317"><ele>91.39999999999999</ele><time>2026-03-24T14:30:07.12Z</time></trkpt><trkpt lat="40.91498" lon="14.242775"><ele>91.19999999999999</ele><time>2026-03-24T14:30:08.118Z</time></trkpt><trkpt lat="40.9149883" lon="14.24292"><ele>91.0</ele><time>2026-03-24T14:30:09.118Z</time></trkpt><trkpt lat="40.9149967" lon="14.24306"><ele>90.6</ele><time>2026-03-24T14:30:10.118Z</time></trkpt><trkpt lat="40.9150017" lon="14.2432"><ele>90.19999999999999</ele><time>2026-03-24T14:30:11.118Z</time></trkpt><trkpt lat="40.915005" lon="14.24334"><ele>89.80000000000001</ele><time>2026-03-24T14:30:12.119Z</time></trkpt><trkpt lat="40.9150067" lon="14.24348"><ele>89.4</ele><time>2026-03-24T14:30:13.119Z</time></trkpt><trkpt lat="40.915005" lon="14.2436167"><ele>89.0</ele><time>2026-03-24T14:30:14.119Z</time></trkpt><trkpt lat="40.9149967" lon="14.2437533"><ele>89.0</ele><time>2026-03-24T14:30:15.117Z</time></trkpt><trkpt lat="40.9149833" lon="14.24389"><ele>89.0</ele><time>2026-03-24T14:30:16.118Z</time></trkpt><trkpt lat="40.91497" lon="14.24402"><ele>89.0</ele><time>2026-03-24T14:30:17.118Z</time></trkpt><trkpt lat="40.914955" lon="14.2441467"><ele>89.0</ele><time>2026-03-24T14:30:18.118Z</time></trkpt><trkpt lat="40.9149333" lon="14.2442767"><ele>89.0</ele><time>2026-03-24T14:30:19.118Z</time></trkpt><trkpt lat="40.9149083" lon="14.2444067"><ele>88.80000000000001</ele><time>2026-03-24T14:30:20.117Z</time></trkpt><trkpt lat="40.91488" lon="14.244535"><ele>88.60000000000001</ele><time>2026-03-24T14:30:21.119Z</time></trkpt><trkpt lat="40.91485" lon="14.2446633"><ele>88.4</ele><time>2026-03-24T14:30:22.118Z</time></trkpt><trkpt lat="40.9148167" lon="14.24479"><ele>88.2</ele><time>2026-03-24T14:30:23.118Z</time></trkpt><trkpt lat="40.9147817" lon="14.244915"><ele>88.0</ele><time>2026-03-24T14:30:24.118Z</time></trkpt><trkpt lat="40.914745" lon="14.2450417"><ele>88.0</ele><time>2026-03-24T14:30:25.118Z</time></trkpt><trkpt lat="40.914705" lon="14.2451667"><ele>88.0</ele><time>2026-03-24T14:30:26.119Z</time></trkpt><trkpt lat="40.9146667" lon="14.2452867"><ele>88.0</ele><time>2026-03-24T14:30:27.118Z</time></trkpt><trkpt lat="40.9146233" lon="14.245405"><ele>88.0</ele><time>2026-03-24T14:30:28.118Z</time></trkpt><trkpt lat="40.91458" lon="14.2455217"><ele>88.0</ele><time>2026-03-24T14:30:29.118Z</time></trkpt><trkpt lat="40.9145383" lon="14.24564"><ele>88.0</ele><time>2026-03-24T14:30:30.118Z</time></trkpt><trkpt lat="40.91449" lon="14.2457567"><ele>88.0</ele><time>2026-03-24T14:30:31.118Z</time></trkpt><trkpt lat="40.91444" lon="14.24587"><ele>88.0</ele><time>2026-03-24T14:30:32.118Z</time></trkpt><trkpt lat="40.9143883" lon="14.24598"><ele>88.0</ele><time>2026-03-24T14:30:33.118Z</time></trkpt><trkpt lat="40.9143317" lon="14.24609"><ele>88.0</ele><time>2026-03-24T14:30:34.119Z</time></trkpt><trkpt lat="40.91427" lon="14.246195"><ele>88.2</ele><time>2026-03-24T14:30:35.118Z</time></trkpt><trkpt lat="40.914205" lon="14.2462983"><ele>88.4</ele><time>2026-03-24T14:30:36.118Z</time></trkpt><trkpt lat="40.9141367" lon="14.2464017"><ele>88.60000000000001</ele><time>2026-03-24T14:30:37.118Z</time></trkpt><trkpt lat="40.9140683" lon="14.2465083"><ele>88.80000000000001</ele><time>2026-03-24T14:30:38.118Z</time></trkpt><trkpt lat="40.9140017" lon="14.2466133"><ele>89.0</ele><time>2026-03-24T14:30:39.118Z</time></trkpt><trkpt lat="40.9139367" lon="14.2467133"><ele>89.4</ele><time>2026-03-24T14:30:40.121Z</time></trkpt><trkpt lat="40.9138717" lon="14.246815"><ele>89.80000000000001</ele><time>2026-03-24T14:30:41.12Z</time></trkpt><trkpt lat="40.9138067" lon="14.246915"><ele>90.19999999999999</ele><time>2026-03-24T14:30:42.118Z</time></trkpt><trkpt lat="40.9137367" lon="14.2470117"><ele>90.6</ele><time>2026-03-24T14:30:43.119Z</time></trkpt><trkpt lat="40.913665" lon="14.2471067"><ele>91.0</ele><time>2026-03-24T14:30:44.119Z</time></trkpt><trkpt lat="40.9135933" lon="14.2472017"><ele>91.0</ele><time>2026-03-24T14:30:45.119Z</time></trkpt><trkpt lat="40.913525" lon="14.2472933"><ele>91.0</ele><time>2026-03-24T14:30:46.117Z</time></trkpt><trkpt lat="40.9134567" lon="14.2473867"><ele>91.0</ele><time>2026-03-24T14:30:47.118Z</time></trkpt><trkpt lat="40.9133867" lon="14.2474767"><ele>91.0</ele><time>2026-03-24T14:30:48.118Z</time></trkpt><trkpt lat="40.913315" lon="14.2475633"><ele>91.0</ele><time>2026-03-24T14:30:49.12Z</time></trkpt><trkpt lat="40.9132433" lon="14.2476433"><ele>91.0</ele><time>2026-03-24T14:30:50.118Z</time></trkpt><trkpt lat="40.9131717" lon="14.24772"><ele>91.0</ele><time>2026-03-24T14:30:51.118Z</time></trkpt><trkpt lat="40.9130983" lon="14.2477967"><ele>91.0</ele><time>2026-03-24T14:30:52.118Z</time></trkpt><trkpt lat="40.9130233" lon="14.2478717"><ele>91.0</ele><time>2026-03-24T14:30:53.118Z</time></trkpt><trkpt lat="40.9129483" lon="14.2479433"><ele>91.0</ele><time>2026-03-24T14:30:54.119Z</time></trkpt><trkpt lat="40.91288" lon="14.24802"><ele>91.0</ele><time>2026-03-24T14:30:55.118Z</time></trkpt><trkpt lat="40.9128083" lon="14.2480983"><ele>91.0</ele><time>2026-03-24T14:30:56.12Z</time></trkpt><trkpt lat="40.9127383" lon="14.248175"><ele>91.0</ele><time>2026-03-24T14:30:57.118Z</time></trkpt><trkpt lat="40.91267" lon="14.2482567"><ele>91.0</ele><time>2026-03-24T14:30:58.117Z</time></trkpt><trkpt lat="40.9126017" lon="14.2483367"><ele>91.0</ele><time>2026-03-24T14:30:59.118Z</time></trkpt><trkpt lat="40.9125317" lon="14.2484233"><ele>91.6</ele><time>2026-03-24T14:31:00.118Z</time></trkpt><trkpt lat="40.9124633" lon="14.2485117"><ele>92.19999999999999</ele><time>2026-03-24T14:31:01.122Z</time></trkpt><trkpt lat="40.912395" lon="14.2486"><ele>92.80000000000001</ele><time>2026-03-24T14:31:02.118Z</time></trkpt><trkpt lat="40.9123283" lon="14.248695"><ele>93.4</ele><time>2026-03-24T14:31:03.118Z</time></trkpt><trkpt lat="40.9122617" lon="14.2487867"><ele>94.0</ele><time>2026-03-24T14:31:04.117Z</time></trkpt><trkpt lat="40.9121933" lon="14.248885"><ele>94.0</ele><time>2026-03-24T14:31:05.119Z</time></trkpt><trkpt lat="40.912125" lon="14.2489867"><ele>94.0</ele><time>2026-03-24T14:31:06.12Z</time></trkpt><trkpt lat="40.9120567" lon="14.2490883"><ele>94.0</ele><time>2026-03-24T14:31:07.119Z</time></trkpt><trkpt lat="40.911985" lon="14.24919"><ele>94.0</ele><time>2026-03-24T14:31:08.119Z</time></trkpt><trkpt lat="40.911915" lon="14.2492917"><ele>94.0</ele><time>2026-03-24T14:31:09.118Z</time></trkpt><trkpt lat="40.9118483" lon="14.2493983"><ele>94.0</ele><time>2026-03-24T14:31:10.119Z</time></trkpt><trkpt lat="40.9117767" lon="14.2495017"><ele>94.0</ele><time>2026-03-24T14:31:11.118Z</time></trkpt><trkpt lat="40.9117067" lon="14.2496067"><ele>94.0</ele><time>2026-03-24T14:31:12.12Z</time></trkpt><trkpt lat="40.911635" lon="14.2497083"><ele>94.0</ele><time>2026-03-24T14:31:13.118Z</time></trkpt><trkpt lat="40.9115667" lon="14.2498067"><ele>94.0</ele><time>2026-03-24T14:31:14.119Z</time></trkpt><trkpt lat="40.9115017" lon="14.249905"><ele>93.2</ele><time>2026-03-24T14:31:15.119Z</time></trkpt><trkpt lat="40.9114367" lon="14.250005"><ele>92.4</ele><time>2026-03-24T14:31:16.118Z</time></trkpt><trkpt lat="40.9113717" lon="14.2501083"><ele>91.6</ele><time>2026-03-24T14:31:17.12Z</time></trkpt><trkpt lat="40.9113033" lon="14.25021"><ele>90.8</ele><time>2026-03-24T14:31:18.119Z</time></trkpt><trkpt lat="40.9112367" lon="14.2503117"><ele>90.0</ele><time>2026-03-24T14:31:19.118Z</time></trkpt><trkpt lat="40.9111683" lon="14.2504133"><ele>90.0</ele><time>2026-03-24T14:31:20.119Z</time></trkpt><trkpt lat="40.9111033" lon="14.2505167"><ele>90.0</ele><time>2026-03-24T14:31:21.118Z</time></trkpt><trkpt lat="40.911045" lon="14.2506233"><ele>90.0</ele><time>2026-03-24T14:31:22.118Z</time></trkpt><trkpt lat="40.9109867" lon="14.25073"><ele>90.0</ele><time>2026-03-24T14:31:23.119Z</time></trkpt><trkpt lat="40.9109283" lon="14.25084"><ele>90.0</ele><time>2026-03-24T14:31:24.119Z</time></trkpt><trkpt lat="40.9108717" lon="14.25095"><ele>90.2</ele><time>2026-03-24T14:31:25.118Z</time></trkpt><trkpt lat="40.9108183" lon="14.2510617"><ele>90.4</ele><time>2026-03-24T14:31:26.118Z</time></trkpt><trkpt lat="40.9107667" lon="14.251175"><ele>90.6</ele><time>2026-03-24T14:31:27.119Z</time></trkpt><trkpt lat="40.9107167" lon="14.25129"><ele>90.8</ele><time>2026-03-24T14:31:28.118Z</time></trkpt><trkpt lat="40.910665" lon="14.2514067"><ele>91.0</ele><time>2026-03-24T14:31:29.118Z</time></trkpt><trkpt lat="40.9106133" lon="14.25152"><ele>90.6</ele><time>2026-03-24T14:31:30.119Z</time></trkpt><trkpt lat="40.9105617" lon="14.2516283"><ele>90.19999999999999</ele><time>2026-03-24T14:31:31.12Z</time></trkpt><trkpt lat="40.910505" lon="14.2517333"><ele>89.80000000000001</ele><time>2026-03-24T14:31:32.118Z</time></trkpt><trkpt lat="40.9104483" lon="14.2518367"><ele>89.4</ele><time>2026-03-24T14:31:33.118Z</time></trkpt><trkpt lat="40.9103917" lon="14.25194"><ele>89.0</ele><time>2026-03-24T14:31:34.118Z</time></trkpt><trkpt lat="40.9103317" lon="14.2520433"><ele>89.0</ele><time>2026-03-24T14:31:35.118Z</time></trkpt><trkpt lat="40.91027" lon="14.2521467"><ele>89.0</ele><time>2026-03-24T14:31:36.118Z</time></trkpt><trkpt lat="40.9102033" lon="14.252245"><ele>89.0</ele><time>2026-03-24T14:31:37.118Z</time></trkpt><trkpt lat="40.9101367" lon="14.2523417"><ele>89.0</ele><time>2026-03-24T14:31:38.118Z</time></trkpt><trkpt lat="40.9100717" lon="14.2524367"><ele>89.0</ele><time>2026-03-24T14:31:39.119Z</time></trkpt><trkpt lat="40.910005" lon="14.25253"><ele>89.2</ele><time>2026-03-24T14:31:40.119Z</time></trkpt><trkpt lat="40.90994" lon="14.2526233"><ele>89.4</ele><time>2026-03-24T14:31:41.118Z</time></trkpt><trkpt lat="40.9098783" lon="14.2527167"><ele>89.6</ele><time>2026-03-24T14:31:42.118Z</time></trkpt><trkpt lat="40.9098167" lon="14.25281"><ele>89.8</ele><time>2026-03-24T14:31:43.118Z</time></trkpt><trkpt lat="40.909755" lon="14.252905"><ele>90.0</ele><time>2026-03-24T14:31:44.118Z</time></trkpt><trkpt lat="40.9096933" lon="14.253"><ele>90.0</ele><time>2026-03-24T14:31:45.119Z</time></trkpt><trkpt lat="40.9096317" lon="14.2530917"><ele>90.0</ele><time>2026-03-24T14:31:46.118Z</time></trkpt><trkpt lat="40.9095683" lon="14.2531833"><ele>90.0</ele><time>2026-03-24T14:31:47.126Z</time></trkpt><trkpt lat="40.909505" lon="14.2532783"><ele>90.0</ele><time>2026-03-24T14:31:48.119Z</time></trkpt><trkpt lat="40.90944" lon="14.2533733"><ele>90.0</ele><time>2026-03-24T14:31:49.118Z</time></trkpt><trkpt lat="40.909375" lon="14.2534733"><ele>90.0</ele><time>2026-03-24T14:31:50.119Z</time></trkpt><trkpt lat="40.90931" lon="14.2535733"><ele>90.0</ele><time>2026-03-24T14:31:51.12Z</time></trkpt><trkpt lat="40.9092433" lon="14.2536717"><ele>90.0</ele><time>2026-03-24T14:31:52.118Z</time></trkpt><trkpt lat="40.909175" lon="14.25377"><ele>90.0</ele><time>2026-03-24T14:31:53.12Z</time></trkpt><trkpt lat="40.9091067" lon="14.2538633"><ele>90.0</ele><time>2026-03-24T14:31:54.118Z</time></trkpt><trkpt lat="40.9090417" lon="14.2539567"><ele>89.8</ele><time>2026-03-24T14:31:55.118Z</time></trkpt><trkpt lat="40.9089717" lon="14.25405"><ele>89.6</ele><time>2026-03-24T14:31:56.118Z</time></trkpt><trkpt lat="40.9089067" lon="14.2541483"><ele>89.4</ele><time>2026-03-24T14:31:57.118Z</time></trkpt><trkpt lat="40.90884" lon="14.2542417"><ele>89.2</ele><time>2026-03-24T14:31:58.118Z</time></trkpt><trkpt lat="40.9087717" lon="14.254335"><ele>89.0</ele><time>2026-03-24T14:31:59.118Z</time></trkpt><trkpt lat="40.9087067" lon="14.2544267"><ele>89.0</ele><time>2026-03-24T14:32:00.118Z</time></trkpt><trkpt lat="40.908645" lon="14.25452"><ele>89.0</ele><time>2026-03-24T14:32:01.118Z</time></trkpt><trkpt lat="40.90858" lon="14.254615"><ele>89.0</ele><time>2026-03-24T14:32:02.118Z</time></trkpt><trkpt lat="40.9085183" lon="14.2547083"><ele>89.0</ele><time>2026-03-24T14:32:03.118Z</time></trkpt><trkpt lat="40.9084533" lon="14.2548033"><ele>89.0</ele><time>2026-03-24T14:32:04.118Z</time></trkpt><trkpt lat="40.9083867" lon="14.2549"><ele>88.80000000000001</ele><time>2026-03-24T14:32:05.118Z</time></trkpt><trkpt lat="40.9083183" lon="14.2549967"><ele>88.60000000000001</ele><time>2026-03-24T14:32:06.119Z</time></trkpt><trkpt lat="40.90825" lon="14.255095"><ele>88.4</ele><time>2026-03-24T14:32:07.118Z</time></trkpt><trkpt lat="40.90818" lon="14.2551933"><ele>88.2</ele><time>2026-03-24T14:32:08.118Z</time></trkpt><trkpt lat="40.90811" lon="14.2552933"><ele>88.0</ele><time>2026-03-24T14:32:09.118Z</time></trkpt><trkpt lat="40.9080433" lon="14.25539"><ele>88.0</ele><time>2026-03-24T14:32:10.119Z</time></trkpt><trkpt lat="40.9079733" lon="14.2554883"><ele>88.0</ele><time>2026-03-24T14:32:11.12Z</time></trkpt><trkpt lat="40.9079067" lon="14.2555867"><ele>88.0</ele><time>2026-03-24T14:32:12.118Z</time></trkpt><trkpt lat="40.90784" lon="14.2556867"><ele>88.0</ele><time>2026-03-24T14:32:13.119Z</time></trkpt><trkpt lat="40.90777" lon="14.2557883"><ele>88.0</ele><time>2026-03-24T14:32:14.118Z</time></trkpt><trkpt lat="40.9077" lon="14.2558883"><ele>88.0</ele><time>2026-03-24T14:32:15.118Z</time></trkpt><trkpt lat="40.9076317" lon="14.2559917"><ele>88.0</ele><time>2026-03-24T14:32:16.122Z</time></trkpt><trkpt lat="40.9075633" lon="14.2560917"><ele>88.0</ele><time>2026-03-24T14:32:17.119Z</time></trkpt><trkpt lat="40.9074967" lon="14.256195"><ele>88.0</ele><time>2026-03-24T14:32:18.119Z</time></trkpt><trkpt lat="40.9074283" lon="14.2563033"><ele>88.0</ele><time>2026-03-24T14:32:19.118Z</time></trkpt><trkpt lat="40.9073583" lon="14.2564083"><ele>88.2</ele><time>2026-03-24T14:32:20.118Z</time></trkpt><trkpt lat="40.9072917" lon="14.2565133"><ele>88.4</ele><time>2026-03-24T14:32:21.118Z</time></trkpt><trkpt lat="40.9072233" lon="14.2566183"><ele>88.60000000000001</ele><time>2026-03-24T14:32:22.119Z</time></trkpt><trkpt lat="40.9071533" lon="14.25672"><ele>88.80000000000001</ele><time>2026-03-24T14:32:23.118Z</time></trkpt><trkpt lat="40.907085" lon="14.2568233"><ele>89.0</ele><time>2026-03-24T14:32:24.118Z</time></trkpt><trkpt lat="40.9070167" lon="14.2569283"><ele>89.0</ele><time>2026-03-24T14:32:25.118Z</time></trkpt><trkpt lat="40.9069467" lon="14.2570333"><ele>89.0</ele><time>2026-03-24T14:32:26.119Z</time></trkpt><trkpt lat="40.9068767" lon="14.2571367"><ele>89.0</ele><time>2026-03-24T14:32:27.118Z</time></trkpt><trkpt lat="40.906805" lon="14.25724"><ele>89.0</ele><time>2026-03-24T14:32:28.118Z</time></trkpt><trkpt lat="40.906735" lon="14.2573367"><ele>89.0</ele><time>2026-03-24T14:32:29.118Z</time></trkpt><trkpt lat="40.9066683" lon="14.2574383"><ele>89.0</ele><time>2026-03-24T14:32:30.118Z</time></trkpt><trkpt lat="40.9066" lon="14.2575433"><ele>89.0</ele><time>2026-03-24T14:32:31.12Z</time></trkpt><trkpt lat="40.9065317" lon="14.2576483"><ele>89.0</ele><time>2026-03-24T14:32:32.118Z</time></trkpt><trkpt lat="40.90646" lon="14.2577533"><ele>89.0</ele><time>2026-03-24T14:32:33.119Z</time></trkpt><trkpt lat="40.9063867" lon="14.2578583"><ele>89.0</ele><time>2026-03-24T14:32:34.118Z</time></trkpt><trkpt lat="40.9063167" lon="14.257965"><ele>89.0</ele><time>2026-03-24T14:32:35.119Z</time></trkpt><trkpt lat="40.9062483" lon="14.2580733"><ele>89.0</ele><time>2026-03-24T14:32:36.118Z</time></trkpt><trkpt lat="40.9061783" lon="14.2581783"><ele>89.0</ele><time>2026-03-24T14:32:37.118Z</time></trkpt><trkpt lat="40.9061" lon="14.2582783"><ele>89.0</ele><time>2026-03-24T14:32:38.118Z</time></trkpt><trkpt lat="40.90602" lon="14.2583783"><ele>89.0</ele><time>2026-03-24T14:32:39.118Z</time></trkpt><trkpt lat="40.9059417" lon="14.25847"><ele>89.2</ele><time>2026-03-24T14:32:40.118Z</time></trkpt><trkpt lat="40.9058633" lon="14.2585633"><ele>89.4</ele><time>2026-03-24T14:32:41.118Z</time></trkpt><trkpt lat="40.90578" lon="14.2586533"><ele>89.6</ele><time>2026-03-24T14:32:42.118Z</time></trkpt><trkpt lat="40.9057017" lon="14.2587467"><ele>89.8</ele><time>2026-03-24T14:32:43.118Z</time></trkpt><trkpt lat="40.9056183" lon="14.25884"><ele>90.0</ele><time>2026-03-24T14:32:44.119Z</time></trkpt><trkpt lat="40.9055367" lon="14.25893"><ele>90.2</ele><time>2026-03-24T14:32:45.119Z</time></trkpt><trkpt lat="40.90546" lon="14.25902"><ele>90.4</ele><time>2026-03-24T14:32:46.118Z</time></trkpt><trkpt lat="40.9053817" lon="14.2591117"><ele>90.6</ele><time>2026-03-24T14:32:47.118Z</time></trkpt><trkpt lat="40.9053083" lon="14.259205"><ele>90.8</ele><time>2026-03-24T14:32:48.119Z</time></trkpt><trkpt lat="40.9052367" lon="14.259295"><ele>91.0</ele><time>2026-03-24T14:32:49.118Z</time></trkpt><trkpt lat="40.9051667" lon="14.2593917"><ele>91.0</ele><time>2026-03-24T14:32:50.118Z</time></trkpt><trkpt lat="40.905095" lon="14.259495"><ele>91.0</ele><time>2026-03-24T14:32:51.119Z</time></trkpt><trkpt lat="40.9050217" lon="14.2596"><ele>91.0</ele><time>2026-03-24T14:32:52.118Z</time></trkpt><trkpt lat="40.9049517" lon="14.2597067"><ele>91.0</ele><time>2026-03-24T14:32:53.118Z</time></trkpt><trkpt lat="40.9048833" lon="14.2598017"><ele>91.0</ele><time>2026-03-24T14:32:54.118Z</time></trkpt><trkpt lat="40.9048217" lon="14.2598967"><ele>90.8</ele><time>2026-03-24T14:32:55.118Z</time></trkpt><trkpt lat="40.904755" lon="14.259995"><ele>90.6</ele><time>2026-03-24T14:32:56.119Z</time></trkpt><trkpt lat="40.90469" lon="14.2600867"><ele>90.4</ele><time>2026-03-24T14:32:57.118Z</time></trkpt><trkpt lat="40.9046233" lon="14.2601817"><ele>90.2</ele><time>2026-03-24T14:32:58.118Z</time></trkpt><trkpt lat="40.9045583" lon="14.2602733"><ele>90.0</ele><time>2026-03-24T14:32:59.118Z</time></trkpt><trkpt lat="40.90449" lon="14.260365"><ele>90.0</ele><time>2026-03-24T14:33:00.118Z</time></trkpt><trkpt lat="40.904425" lon="14.260455"><ele>90.0</ele><time>2026-03-24T14:33:01.118Z</time></trkpt><trkpt lat="40.90436" lon="14.2605467"><ele>90.0</ele><time>2026-03-24T14:33:02.118Z</time></trkpt><trkpt lat="40.9042933" lon="14.2606417"><ele>90.0</ele><time>2026-03-24T14:33:03.118Z</time></trkpt><trkpt lat="40.9042283" lon="14.26074"><ele>90.0</ele><time>2026-03-24T14:33:04.118Z</time></trkpt><trkpt lat="40.9041633" lon="14.260835"><ele>90.2</ele><time>2026-03-24T14:33:05.119Z</time></trkpt><trkpt lat="40.9041017" lon="14.2609283"><ele>90.4</ele><time>2026-03-24T14:33:06.118Z</time></trkpt><trkpt lat="40.904035" lon="14.2610233"><ele>90.6</ele><time>2026-03-24T14:33:07.118Z</time></trkpt><trkpt lat="40.9039717" lon="14.2611167"><ele>90.8</ele><time>2026-03-24T14:33:08.123Z</time></trkpt><trkpt lat="40.90391" lon="14.2612133"><ele>91.0</ele><time>2026-03-24T14:33:09.118Z</time></trkpt><trkpt lat="40.9038467" lon="14.26131"><ele>91.0</ele><time>2026-03-24T14:33:10.119Z</time></trkpt><trkpt lat="40.9037867" lon="14.2614083"><ele>91.0</ele><time>2026-03-24T14:33:11.118Z</time></trkpt><trkpt lat="40.9037267" lon="14.2615083"><ele>91.0</ele><time>2026-03-24T14:33:12.118Z</time></trkpt><trkpt lat="40.9036667" lon="14.2616067"><ele>91.0</ele><time>2026-03-24T14:33:13.119Z</time></trkpt><trkpt lat="40.9036017" lon="14.2617"><ele>91.0</ele><time>2026-03-24T14:33:14.118Z</time></trkpt><trkpt lat="40.903535" lon="14.2617917"><ele>91.19999999999999</ele><time>2026-03-24T14:33:15.118Z</time></trkpt><trkpt lat="40.90347" lon="14.2618867"><ele>91.39999999999999</ele><time>2026-03-24T14:33:16.118Z</time></trkpt><trkpt lat="40.9034033" lon="14.261975"><ele>91.6</ele><time>2026-03-24T14:33:17.118Z</time></trkpt><trkpt lat="40.9033317" lon="14.262055"><ele>91.8</ele><time>2026-03-24T14:33:18.119Z</time></trkpt><trkpt lat="40.90326" lon="14.2621233"><ele>92.0</ele><time>2026-03-24T14:33:19.119Z</time></trkpt><trkpt lat="40.9031867" lon="14.2621767"><ele>91.5</ele><time>2026-03-24T14:33:20.118Z</time></trkpt><trkpt lat="40.9031133" lon="14.2622067"><ele>91.0</ele><time>2026-03-24T14:33:21.118Z</time></trkpt><trkpt lat="40.9030267" lon="14.2622167"><ele>90.5</ele><time>2026-03-24T14:33:22.122Z</time></trkpt><trkpt lat="40.9029483" lon="14.2622267"><ele>90.0</ele><time>2026-03-24T14:33:23.123Z</time></trkpt><trkpt lat="40.9028633" lon="14.2622333"><ele>89.5</ele><time>2026-03-24T14:33:24.123Z</time></trkpt><trkpt lat="40.9027817" lon="14.262245"><ele>89.0</ele><time>2026-03-24T14:33:25.118Z</time></trkpt><trkpt lat="40.9027083" lon="14.2622733"><ele>88.83333333333334</ele><time>2026-03-24T14:33:26.118Z</time></trkpt><trkpt lat="40.9026383" lon="14.262325"><ele>88.66666666666667</ele><time>2026-03-24T14:33:27.119Z</time></trkpt><trkpt lat="40.9025733" lon="14.2623933"><ele>88.5</ele><time>2026-03-24T14:33:28.119Z</time></trkpt><trkpt lat="40.902525" lon="14.26248"><ele>88.33333333333333</ele><time>2026-03-24T14:33:29.119Z</time></trkpt><trkpt lat="40.9024883" lon="14.2625767"><ele>88.16666666666666</ele><time>2026-03-24T14:33:30.119Z</time></trkpt><trkpt lat="40.9024617" lon="14.2626717"><ele>88.0</ele><time>2026-03-24T14:33:31.118Z</time></trkpt><trkpt lat="40.9024367" lon="14.2627667"><ele>88.0</ele><time>2026-03-24T14:33:32.121Z</time></trkpt><trkpt lat="40.9024167" lon="14.2628583"><ele>88.0</ele><time>2026-03-24T14:33:33.122Z</time></trkpt><trkpt lat="40.9024" lon="14.26295"><ele>88.0</ele><time>2026-03-24T14:33:34.121Z</time></trkpt><trkpt lat="40.902385" lon="14.2630417"><ele>88.0</ele><time>2026-03-24T14:33:35.118Z</time></trkpt><trkpt lat="40.9023683" lon="14.2631383"><ele>88.0</ele><time>2026-03-24T14:33:36.118Z</time></trkpt><trkpt lat="40.9023517" lon="14.2632317"><ele>88.0</ele><time>2026-03-24T14:33:37.119Z</time></trkpt><trkpt lat="40.9023317" lon="14.2633283"><ele>88.0</ele><time>2026-03-24T14:33:38.118Z</time></trkpt><trkpt lat="40.9023133" lon="14.263425"><ele>88.16666666666666</ele><time>2026-03-24T14:33:39.118Z</time></trkpt><trkpt lat="40.9022917" lon="14.2635217"><ele>88.33333333333333</ele><time>2026-03-24T14:33:40.119Z</time></trkpt><trkpt lat="40.902265" lon="14.2636167"><ele>88.5</ele><time>2026-03-24T14:33:41.119Z</time></trkpt><trkpt lat="40.90223" lon="14.2637083"><ele>88.66666666666667</ele><time>2026-03-24T14:33:42.118Z</time></trkpt><trkpt lat="40.9021883" lon="14.2637983"><ele>88.83333333333334</ele><time>2026-03-24T14:33:43.119Z</time></trkpt><trkpt lat="40.902145" lon="14.2638883"><ele>89.0</ele><time>2026-03-24T14:33:44.119Z</time></trkpt><trkpt lat="40.9020983" lon="14.26398"><ele>88.66666666666667</ele><time>2026-03-24T14:33:45.118Z</time></trkpt><trkpt lat="40.9020467" lon="14.2640683"><ele>88.33333333333334</ele><time>2026-03-24T14:33:46.118Z</time></trkpt><trkpt lat="40.901995" lon="14.2641567"><ele>88.0</ele><time>2026-03-24T14:33:47.118Z</time></trkpt><trkpt lat="40.9019367" lon="14.2642467"><ele>87.66666666666667</ele><time>2026-03-24T14:33:48.118Z</time></trkpt><trkpt lat="40.9018783" lon="14.26434"><ele>87.33333333333333</ele><time>2026-03-24T14:33:49.118Z</time></trkpt><trkpt lat="40.9018217" lon="14.2644367"><ele>87.0</ele><time>2026-03-24T14:33:50.119Z</time></trkpt><trkpt lat="40.9017617" lon="14.2645333"><ele>87.39999999999999</ele><time>2026-03-24T14:33:51.119Z</time></trkpt><trkpt lat="40.9017017" lon="14.2646317"><ele>87.8</ele><time>2026-03-24T14:33:52.118Z</time></trkpt><trkpt lat="40.9016367" lon="14.264735"><ele>88.2</ele><time>2026-03-24T14:33:53.119Z</time></trkpt><trkpt lat="40.9015733" lon="14.264835"><ele>88.6</ele><time>2026-03-24T14:33:54.118Z</time></trkpt><trkpt lat="40.9015083" lon="14.264935"><ele>89.0</ele><time>2026-03-24T14:33:55.119Z</time></trkpt><trkpt lat="40.9014433" lon="14.265035"><ele>89.4</ele><time>2026-03-24T14:33:56.118Z</time></trkpt><trkpt lat="40.9013783" lon="14.265135"><ele>89.80000000000001</ele><time>2026-03-24T14:33:57.118Z</time></trkpt><trkpt lat="40.9013117" lon="14.265235"><ele>90.19999999999999</ele><time>2026-03-24T14:33:58.118Z</time></trkpt><trkpt lat="40.9012483" lon="14.2653367"><ele>90.6</ele><time>2026-03-24T14:33:59.12Z</time></trkpt><trkpt lat="40.9011833" lon="14.2654367"><ele>91.0</ele><time>2026-03-24T14:34:00.118Z</time></trkpt><trkpt lat="40.9011217" lon="14.2655367"><ele>90.8</ele><time>2026-03-24T14:34:01.12Z</time></trkpt><trkpt lat="40.90106" lon="14.2656333"><ele>90.6</ele><time>2026-03-24T14:34:02.118Z</time></trkpt><trkpt lat="40.9009983" lon="14.265735"><ele>90.4</ele><time>2026-03-24T14:34:03.119Z</time></trkpt><trkpt lat="40.9009333" lon="14.2658367"><ele>90.2</ele><time>2026-03-24T14:34:04.119Z</time></trkpt><trkpt lat="40.9008667" lon="14.2659317"><ele>90.0</ele><time>2026-03-24T14:34:05.118Z</time></trkpt><trkpt lat="40.900805" lon="14.26603"><ele>89.8</ele><time>2026-03-24T14:34:06.118Z</time></trkpt><trkpt lat="40.9007417" lon="14.2661283"><ele>89.6</ele><time>2026-03-24T14:34:07.118Z</time></trkpt><trkpt lat="40.9006783" lon="14.2662317"><ele>89.4</ele><time>2026-03-24T14:34:08.119Z</time></trkpt><trkpt lat="40.900615" lon="14.2663367"><ele>89.2</ele><time>2026-03-24T14:34:09.118Z</time></trkpt><trkpt lat="40.9005517" lon="14.26644"><ele>89.0</ele><time>2026-03-24T14:34:10.118Z</time></trkpt><trkpt lat="40.9004867" lon="14.2665433"><ele>88.80000000000001</ele><time>2026-03-24T14:34:11.118Z</time></trkpt><trkpt lat="40.9004233" lon="14.26665"><ele>88.60000000000001</ele><time>2026-03-24T14:34:12.118Z</time></trkpt><trkpt lat="40.900355" lon="14.2667483"><ele>88.4</ele><time>2026-03-24T14:34:13.118Z</time></trkpt><trkpt lat="40.9002933" lon="14.2668433"><ele>88.2</ele><time>2026-03-24T14:34:14.119Z</time></trkpt><trkpt lat="40.9002367" lon="14.2669317"><ele>88.0</ele><time>2026-03-24T14:34:15.119Z</time></trkpt><trkpt lat="40.90019" lon="14.2670333"><ele>88.0</ele><time>2026-03-24T14:34:16.118Z</time></trkpt><trkpt lat="40.9001317" lon="14.267135"><ele>88.0</ele><time>2026-03-24T14:34:17.119Z</time></trkpt><trkpt lat="40.90007" lon="14.267235"><ele>88.0</ele><time>2026-03-24T14:34:18.118Z</time></trkpt><trkpt lat="40.90001" lon="14.2673283"><ele>88.0</ele><time>2026-03-24T14:34:19.118Z</time></trkpt><trkpt lat="40.89995" lon="14.2674183"><ele>88.0</ele><time>2026-03-24T14:34:20.118Z</time></trkpt><trkpt lat="40.8998867" lon="14.2675083"><ele>88.0</ele><time>2026-03-24T14:34:21.118Z</time></trkpt><trkpt lat="40.8998283" lon="14.2676"><ele>88.0</ele><time>2026-03-24T14:34:22.12Z</time></trkpt><trkpt lat="40.8997667" lon="14.2676933"><ele>88.0</ele><time>2026-03-24T14:34:23.12Z</time></trkpt><trkpt lat="40.8997033" lon="14.2677833"><ele>88.0</ele><time>2026-03-24T14:34:24.119Z</time></trkpt><trkpt lat="40.8996417" lon="14.2678733"><ele>88.0</ele><time>2026-03-24T14:34:25.118Z</time></trkpt><trkpt lat="40.8995833" lon="14.2679667"><ele>88.0</ele><time>2026-03-24T14:34:26.119Z</time></trkpt><trkpt lat="40.8995217" lon="14.26806"><ele>88.0</ele><time>2026-03-24T14:34:27.119Z</time></trkpt><trkpt lat="40.8994617" lon="14.268145"><ele>88.0</ele><time>2026-03-24T14:34:28.119Z</time></trkpt><trkpt lat="40.8993967" lon="14.268225"><ele>88.0</ele><time>2026-03-24T14:34:29.118Z</time></trkpt><trkpt lat="40.8993267" lon="14.2682983"><ele>88.0</ele><time>2026-03-24T14:34:30.118Z</time></trkpt><trkpt lat="40.8992533" lon="14.268355"><ele>88.0</ele><time>2026-03-24T14:34:31.118Z</time></trkpt><trkpt lat="40.8991817" lon="14.2683983"><ele>88.14285714285714</ele><time>2026-03-24T14:34:32.118Z</time></trkpt><trkpt lat="40.89911" lon="14.2684283"><ele>88.28571428571428</ele><time>2026-03-24T14:34:33.119Z</time></trkpt><trkpt lat="40.89904" lon="14.2684467"><ele>88.42857142857142</ele><time>2026-03-24T14:34:34.118Z</time></trkpt><trkpt lat="40.8989733" lon="14.2684683"><ele>88.57142857142857</ele><time>2026-03-24T14:34:35.119Z</time></trkpt><trkpt lat="40.8989083" lon="14.268505"><ele>88.71428571428571</ele><time>2026-03-24T14:34:36.118Z</time></trkpt><trkpt lat="40.8988483" lon="14.2685567"><ele>88.85714285714285</ele><time>2026-03-24T14:34:37.118Z</time></trkpt><trkpt lat="40.898795" lon="14.2686217"><ele>89.0</ele><time>2026-03-24T14:34:38.118Z</time></trkpt><trkpt lat="40.8987483" lon="14.2687017"><ele>89.0</ele><time>2026-03-24T14:34:39.118Z</time></trkpt><trkpt lat="40.8987133" lon="14.2687933"><ele>89.0</ele><time>2026-03-24T14:34:40.117Z</time></trkpt><trkpt lat="40.89869" lon="14.2688933"><ele>89.0</ele><time>2026-03-24T14:34:41.118Z</time></trkpt><trkpt lat="40.8986767" lon="14.269"><ele>89.0</ele><time>2026-03-24T14:34:42.118Z</time></trkpt><trkpt lat="40.89866" lon="14.2691083"><ele>89.0</ele><time>2026-03-24T14:34:43.118Z</time></trkpt><trkpt lat="40.8986433" lon="14.2692133"><ele>89.0</ele><time>2026-03-24T14:34:44.118Z</time></trkpt><trkpt lat="40.898625" lon="14.269315"><ele>89.16666666666667</ele><time>2026-03-24T14:34:45.118Z</time></trkpt><trkpt lat="40.8985917" lon="14.2694117"><ele>89.33333333333334</ele><time>2026-03-24T14:34:46.119Z</time></trkpt><trkpt lat="40.8985483" lon="14.2694967"><ele>89.5</ele><time>2026-03-24T14:34:47.118Z</time></trkpt><trkpt lat="40.8985" lon="14.2695767"><ele>89.66666666666667</ele><time>2026-03-24T14:34:48.118Z</time></trkpt><trkpt lat="40.8984517" lon="14.269655"><ele>89.83333333333333</ele><time>2026-03-24T14:34:49.119Z</time></trkpt><trkpt lat="40.8984" lon="14.2697317"><ele>90.0</ele><time>2026-03-24T14:34:50.119Z</time></trkpt><trkpt lat="40.8983483" lon="14.26981"><ele>90.0</ele><time>2026-03-24T14:34:51.119Z</time></trkpt><trkpt lat="40.8982967" lon="14.2698883"><ele>90.0</ele><time>2026-03-24T14:34:52.119Z</time></trkpt><trkpt lat="40.8982467" lon="14.2699817"><ele>90.0</ele><time>2026-03-24T14:34:53.118Z</time></trkpt><trkpt lat="40.8981967" lon="14.2700633"><ele>90.0</ele><time>2026-03-24T14:34:54.119Z</time></trkpt><trkpt lat="40.8981433" lon="14.2701483"><ele>90.0</ele><time>2026-03-24T14:34:55.119Z</time></trkpt><trkpt lat="40.8980917" lon="14.2702283"><ele>90.0</ele><time>2026-03-24T14:34:56.12Z</time></trkpt><trkpt lat="40.8980433" lon="14.2703133"><ele>90.0</ele><time>2026-03-24T14:34:57.118Z</time></trkpt><trkpt lat="40.8979967" lon="14.2703967"><ele>90.0</ele><time>2026-03-24T14:34:58.119Z</time></trkpt><trkpt lat="40.8979467" lon="14.2704767"><ele>90.0</ele><time>2026-03-24T14:34:59.119Z</time></trkpt><trkpt lat="40.8979033" lon="14.2705617"><ele>90.0</ele><time>2026-03-24T14:35:00.119Z</time></trkpt><trkpt lat="40.89786" lon="14.2706483"><ele>90.0</ele><time>2026-03-24T14:35:01.118Z</time></trkpt><trkpt lat="40.8978183" lon="14.270735"><ele>90.0</ele><time>2026-03-24T14:35:02.118Z</time></trkpt><trkpt lat="40.897775" lon="14.270825"><ele>90.14285714285714</ele><time>2026-03-24T14:35:03.118Z</time></trkpt><trkpt lat="40.89774" lon="14.2709133"><ele>90.28571428571429</ele><time>2026-03-24T14:35:04.119Z</time></trkpt><trkpt lat="40.8977067" lon="14.270995"><ele>90.42857142857143</ele><time>2026-03-24T14:35:05.118Z</time></trkpt><trkpt lat="40.89767" lon="14.27107"><ele>90.57142857142857</ele><time>2026-03-24T14:35:06.118Z</time></trkpt><trkpt lat="40.8976217" lon="14.2711367"><ele>90.71428571428572</ele><time>2026-03-24T14:35:07.118Z</time></trkpt><trkpt lat="40.897565" lon="14.2711883"><ele>90.85714285714286</ele><time>2026-03-24T14:35:08.119Z</time></trkpt><trkpt lat="40.89751" lon="14.271235"><ele>91.0</ele><time>2026-03-24T14:35:09.119Z</time></trkpt><trkpt lat="40.8974617" lon="14.27129"><ele>90.83333333333333</ele><time>2026-03-24T14:35:10.118Z</time></trkpt><trkpt lat="40.89741" lon="14.2714333"><ele>90.66666666666666</ele><time>2026-03-24T14:35:12.119Z</time></trkpt><trkpt lat="40.897405" lon="14.2715167"><ele>90.5</ele><time>2026-03-24T14:35:13.118Z</time></trkpt><trkpt lat="40.897395" lon="14.2716067"><ele>90.33333333333333</ele><time>2026-03-24T14:35:14.119Z</time></trkpt><trkpt lat="40.8973733" lon="14.2717017"><ele>90.16666666666667</ele><time>2026-03-24T14:35:15.118Z</time></trkpt><trkpt lat="40.89735" lon="14.2718033"><ele>90.0</ele><time>2026-03-24T14:35:16.119Z</time></trkpt><trkpt lat="40.8973183" lon="14.2719017"><ele>90.0</ele><time>2026-03-24T14:35:17.118Z</time></trkpt><trkpt lat="40.897285" lon="14.2720067"><ele>90.0</ele><time>2026-03-24T14:35:18.118Z</time></trkpt><trkpt lat="40.8972567" lon="14.2721217"><ele>90.0</ele><time>2026-03-24T14:35:19.118Z</time></trkpt><trkpt lat="40.8972283" lon="14.2722433"><ele>90.0</ele><time>2026-03-24T14:35:20.118Z</time></trkpt><trkpt lat="40.8972083" lon="14.27237"><ele>90.0</ele><time>2026-03-24T14:35:21.118Z</time></trkpt><trkpt lat="40.897195" lon="14.272505"><ele>90.2</ele><time>2026-03-24T14:35:22.117Z</time></trkpt><trkpt lat="40.897185" lon="14.2726417"><ele>90.4</ele><time>2026-03-24T14:35:23.118Z</time></trkpt><trkpt lat="40.897175" lon="14.2727817"><ele>90.6</ele><time>2026-03-24T14:35:24.118Z</time></trkpt><trkpt lat="40.897175" lon="14.2729183"><ele>90.8</ele><time>2026-03-24T14:35:25.122Z</time></trkpt><trkpt lat="40.8971783" lon="14.2730533"><ele>91.0</ele><time>2026-03-24T14:35:26.122Z</time></trkpt><trkpt lat="40.8971833" lon="14.2731933"><ele>91.6</ele><time>2026-03-24T14:35:27.122Z</time></trkpt><trkpt lat="40.8971867" lon="14.2733367"><ele>92.19999999999999</ele><time>2026-03-24T14:35:28.122Z</time></trkpt><trkpt lat="40.8971883" lon="14.2734817"><ele>92.80000000000001</ele><time>2026-03-24T14:35:29.121Z</time></trkpt><trkpt lat="40.8971883" lon="14.2736267"><ele>93.4</ele><time>2026-03-24T14:35:30.121Z</time></trkpt><trkpt lat="40.897185" lon="14.2737733"><ele>94.0</ele><time>2026-03-24T14:35:31.121Z</time></trkpt><trkpt lat="40.8971883" lon="14.2739267"><ele>94.5</ele><time>2026-03-24T14:35:32.122Z</time></trkpt><trkpt lat="40.8971883" lon="14.27408"><ele>95.0</ele><time>2026-03-24T14:35:33.119Z</time></trkpt><trkpt lat="40.8971867" lon="14.2742367"><ele>95.5</ele><time>2026-03-24T14:35:34.118Z</time></trkpt><trkpt lat="40.897185" lon="14.274395"><ele>96.0</ele><time>2026-03-24T14:35:35.118Z</time></trkpt><trkpt lat="40.8971833" lon="14.2745583"><ele>96.0</ele><time>2026-03-24T14:35:36.12Z</time></trkpt><trkpt lat="40.897185" lon="14.27472"><ele>96.0</ele><time>2026-03-24T14:35:37.118Z</time></trkpt><trkpt lat="40.897195" lon="14.27488"><ele>96.0</ele><time>2026-03-24T14:35:38.118Z</time></trkpt><trkpt lat="40.8972017" lon="14.275035"><ele>96.0</ele><time>2026-03-24T14:35:39.118Z</time></trkpt><trkpt lat="40.897205" lon="14.2751933"><ele>95.0</ele><time>2026-03-24T14:35:40.118Z</time></trkpt><trkpt lat="40.8972067" lon="14.27535"><ele>94.0</ele><time>2026-03-24T14:35:41.119Z</time></trkpt><trkpt lat="40.8972083" lon="14.2755067"><ele>93.0</ele><time>2026-03-24T14:35:42.118Z</time></trkpt><trkpt lat="40.89721" lon="14.27566"><ele>92.0</ele><time>2026-03-24T14:35:43.12Z</time></trkpt><trkpt lat="40.8972133" lon="14.2758117"><ele>91.0</ele><time>2026-03-24T14:35:44.119Z</time></trkpt><trkpt lat="40.8972167" lon="14.27596"><ele>90.0</ele><time>2026-03-24T14:35:45.118Z</time></trkpt><trkpt lat="40.89722" lon="14.276105"><ele>89.0</ele><time>2026-03-24T14:35:46.119Z</time></trkpt><trkpt lat="40.8972233" lon="14.2762483"><ele>88.0</ele><time>2026-03-24T14:35:47.12Z</time></trkpt><trkpt lat="40.8972217" lon="14.276395"><ele>87.0</ele><time>2026-03-24T14:35:48.119Z</time></trkpt><trkpt lat="40.89722" lon="14.2765367"><ele>86.8</ele><time>2026-03-24T14:35:49.119Z</time></trkpt><trkpt lat="40.8972183" lon="14.2766783"><ele>86.6</ele><time>2026-03-24T14:35:50.119Z</time></trkpt><trkpt lat="40.8972167" lon="14.2768183"><ele>86.39999999999999</ele><time>2026-03-24T14:35:51.118Z</time></trkpt><trkpt lat="40.897215" lon="14.2769683"><ele>86.19999999999999</ele><time>2026-03-24T14:35:52.118Z</time></trkpt><trkpt lat="40.8972117" lon="14.2771167"><ele>86.0</ele><time>2026-03-24T14:35:53.118Z</time></trkpt><trkpt lat="40.8972083" lon="14.2772533"><ele>85.8</ele><time>2026-03-24T14:35:54.118Z</time></trkpt><trkpt lat="40.897205" lon="14.27739"><ele>85.6</ele><time>2026-03-24T14:35:55.118Z</time></trkpt><trkpt lat="40.8972033" lon="14.277525"><ele>85.4</ele><time>2026-03-24T14:35:56.121Z</time></trkpt><trkpt lat="40.8972017" lon="14.2776617"><ele>85.2</ele><time>2026-03-24T14:35:57.119Z</time></trkpt><trkpt lat="40.8972017" lon="14.2777967"><ele>85.0</ele><time>2026-03-24T14:35:58.12Z</time></trkpt><trkpt lat="40.8972017" lon="14.27793"><ele>85.0</ele><time>2026-03-24T14:35:59.119Z</time></trkpt><trkpt lat="40.8972017" lon="14.2780633"><ele>85.0</ele><time>2026-03-24T14:36:00.12Z</time></trkpt><trkpt lat="40.897205" lon="14.278195"><ele>85.0</ele><time>2026-03-24T14:36:01.119Z</time></trkpt><trkpt lat="40.8972067" lon="14.278325"><ele>85.0</ele><time>2026-03-24T14:36:02.12Z</time></trkpt><trkpt lat="40.8972067" lon="14.2784583"><ele>85.0</ele><time>2026-03-24T14:36:03.119Z</time></trkpt><trkpt lat="40.8972067" lon="14.27859"><ele>85.0</ele><time>2026-03-24T14:36:04.119Z</time></trkpt><trkpt lat="40.8972067" lon="14.27872"><ele>85.0</ele><time>2026-03-24T14:36:05.118Z</time></trkpt><trkpt lat="40.8972033" lon="14.2788533"><ele>85.0</ele><time>2026-03-24T14:36:06.12Z</time></trkpt><trkpt lat="40.897195" lon="14.278985"><ele>85.0</ele><time>2026-03-24T14:36:07.118Z</time></trkpt><trkpt lat="40.897185" lon="14.2791167"><ele>85.0</ele><time>2026-03-24T14:36:08.118Z</time></trkpt><trkpt lat="40.89717" lon="14.279245"><ele>84.8</ele><time>2026-03-24T14:36:09.118Z</time></trkpt><trkpt lat="40.8971517" lon="14.27937"><ele>84.6</ele><time>2026-03-24T14:36:10.118Z</time></trkpt><trkpt lat="40.8971317" lon="14.2794917"><ele>84.4</ele><time>2026-03-24T14:36:11.121Z</time></trkpt><trkpt lat="40.89711" lon="14.2796133"><ele>84.2</ele><time>2026-03-24T14:36:12.12Z</time></trkpt><trkpt lat="40.8970817" lon="14.279735"><ele>84.0</ele><time>2026-03-24T14:36:13.119Z</time></trkpt><trkpt lat="40.8970517" lon="14.2798583"><ele>84.4</ele><time>2026-03-24T14:36:14.118Z</time></trkpt><trkpt lat="40.8970167" lon="14.27998"><ele>84.80000000000001</ele><time>2026-03-24T14:36:15.118Z</time></trkpt><trkpt lat="40.8969733" lon="14.2800933"><ele>85.19999999999999</ele><time>2026-03-24T14:36:16.118Z</time></trkpt><trkpt lat="40.8969233" lon="14.2802067"><ele>85.6</ele><time>2026-03-24T14:36:17.118Z</time></trkpt><trkpt lat="40.89687" lon="14.2803167"><ele>86.0</ele><time>2026-03-24T14:36:18.118Z</time></trkpt><trkpt lat="40.896815" lon="14.2804217"><ele>86.0</ele><time>2026-03-24T14:36:19.118Z</time></trkpt><trkpt lat="40.896755" lon="14.2805283"><ele>86.0</ele><time>2026-03-24T14:36:20.118Z</time></trkpt><trkpt lat="40.8966933" lon="14.2806333"><ele>86.0</ele><time>2026-03-24T14:36:21.119Z</time></trkpt><trkpt lat="40.8966333" lon="14.28074"><ele>86.0</ele><time>2026-03-24T14:36:22.118Z</time></trkpt><trkpt lat="40.8965733" lon="14.2808467"><ele>86.0</ele><time>2026-03-24T14:36:23.119Z</time></trkpt><trkpt lat="40.89651" lon="14.280955"><ele>85.6</ele><time>2026-03-24T14:36:24.119Z</time></trkpt><trkpt lat="40.8964467" lon="14.2810667"><ele>85.19999999999999</ele><time>2026-03-24T14:36:25.119Z</time></trkpt><trkpt lat="40.8963817" lon="14.28118"><ele>84.80000000000001</ele><time>2026-03-24T14:36:26.118Z</time></trkpt><trkpt lat="40.89632" lon="14.2812933"><ele>84.4</ele><time>2026-03-24T14:36:27.12Z</time></trkpt><trkpt lat="40.8962567" lon="14.28141"><ele>84.0</ele><time>2026-03-24T14:36:28.122Z</time></trkpt><trkpt lat="40.8961917" lon="14.2815283"><ele>84.0</ele><time>2026-03-24T14:36:29.119Z</time></trkpt><trkpt lat="40.8961217" lon="14.2816483"><ele>84.0</ele><time>2026-03-24T14:36:30.119Z</time></trkpt><trkpt lat="40.896055" lon="14.2817717"><ele>84.0</ele><time>2026-03-24T14:36:31.12Z</time></trkpt><trkpt lat="40.895985" lon="14.2819"><ele>84.0</ele><time>2026-03-24T14:36:32.119Z</time></trkpt><trkpt lat="40.895915" lon="14.2820283"><ele>83.0</ele><time>2026-03-24T14:36:33.118Z</time></trkpt><trkpt lat="40.8958417" lon="14.2821583"><ele>82.0</ele><time>2026-03-24T14:36:34.12Z</time></trkpt><trkpt lat="40.8957733" lon="14.28229"><ele>81.0</ele><time>2026-03-24T14:36:35.118Z</time></trkpt><trkpt lat="40.8957017" lon="14.2824233"><ele>80.0</ele><time>2026-03-24T14:36:36.118Z</time></trkpt><trkpt lat="40.8956283" lon="14.28256"><ele>80.0</ele><time>2026-03-24T14:36:37.119Z</time></trkpt><trkpt lat="40.895555" lon="14.2826983"><ele>80.0</ele><time>2026-03-24T14:36:38.118Z</time></trkpt><trkpt lat="40.8954817" lon="14.2828367"><ele>80.0</ele><time>2026-03-24T14:36:39.119Z</time></trkpt><trkpt lat="40.8954067" lon="14.28298"><ele>80.0</ele><time>2026-03-24T14:36:40.121Z</time></trkpt><trkpt lat="40.895335" lon="14.283125"><ele>80.25</ele><time>2026-03-24T14:36:41.119Z</time></trkpt><trkpt lat="40.89526" lon="14.2832783"><ele>80.5</ele><time>2026-03-24T14:36:42.118Z</time></trkpt><trkpt lat="40.8951933" lon="14.2834317"><ele>80.75</ele><time>2026-03-24T14:36:43.119Z</time></trkpt><trkpt lat="40.8951217" lon="14.283585"><ele>81.0</ele><time>2026-03-24T14:36:44.121Z</time></trkpt><trkpt lat="40.8950567" lon="14.28374"><ele>81.0</ele><time>2026-03-24T14:36:45.118Z</time></trkpt><trkpt lat="40.8949983" lon="14.2838967"><ele>81.0</ele><time>2026-03-24T14:36:46.12Z</time></trkpt><trkpt lat="40.8949533" lon="14.2840533"><ele>81.0</ele><time>2026-03-24T14:36:47.119Z</time></trkpt><trkpt lat="40.8949067" lon="14.2842117"><ele>81.0</ele><time>2026-03-24T14:36:48.12Z</time></trkpt><trkpt lat="40.8948633" lon="14.2843717"><ele>81.25</ele><time>2026-03-24T14:36:49.118Z</time></trkpt><trkpt lat="40.8948217" lon="14.284525"><ele>81.5</ele><time>2026-03-24T14:36:50.119Z</time></trkpt><trkpt lat="40.8947833" lon="14.2846783"><ele>81.75</ele><time>2026-03-24T14:36:51.119Z</time></trkpt><trkpt lat="40.8947533" lon="14.2848333"><ele>82.0</ele><time>2026-03-24T14:36:52.119Z</time></trkpt><trkpt lat="40.8947367" lon="14.2849883"><ele>82.0</ele><time>2026-03-24T14:36:53.118Z</time></trkpt><trkpt lat="40.894725" lon="14.285145"><ele>82.0</ele><time>2026-03-24T14:36:54.118Z</time></trkpt><trkpt lat="40.894715" lon="14.2853017"><ele>82.0</ele><time>2026-03-24T14:36:55.118Z</time></trkpt><trkpt lat="40.8947067" lon="14.28546"><ele>82.0</ele><time>2026-03-24T14:36:56.118Z</time></trkpt><trkpt lat="40.8947" lon="14.28562"><ele>81.5</ele><time>2026-03-24T14:36:57.118Z</time></trkpt><trkpt lat="40.8946967" lon="14.28578"><ele>81.0</ele><time>2026-03-24T14:36:58.118Z</time></trkpt><trkpt lat="40.8947017" lon="14.285935"><ele>80.5</ele><time>2026-03-24T14:36:59.119Z</time></trkpt><trkpt lat="40.8947083" lon="14.28609"><ele>80.0</ele><time>2026-03-24T14:37:00.118Z</time></trkpt><trkpt lat="40.8947217" lon="14.2862383"><ele>80.0</ele><time>2026-03-24T14:37:01.119Z</time></trkpt><trkpt lat="40.8947383" lon="14.2863883"><ele>80.0</ele><time>2026-03-24T14:37:02.119Z</time></trkpt><trkpt lat="40.894755" lon="14.28654"><ele>80.0</ele><time>2026-03-24T14:37:03.118Z</time></trkpt><trkpt lat="40.8947717" lon="14.2866933"><ele>80.0</ele><time>2026-03-24T14:37:04.118Z</time></trkpt><trkpt lat="40.89479" lon="14.286845"><ele>79.75</ele><time>2026-03-24T14:37:05.119Z</time></trkpt><trkpt lat="40.8948017" lon="14.2870017"><ele>79.5</ele><time>2026-03-24T14:37:06.119Z</time></trkpt><trkpt lat="40.8948117" lon="14.2871583"><ele>79.25</ele><time>2026-03-24T14:37:07.118Z</time></trkpt><trkpt lat="40.89482" lon="14.2873167"><ele>79.0</ele><time>2026-03-24T14:37:08.127Z</time></trkpt><trkpt lat="40.8948267" lon="14.2874733"><ele>78.75</ele><time>2026-03-24T14:37:09.119Z</time></trkpt><trkpt lat="40.8948333" lon="14.2876283"><ele>78.5</ele><time>2026-03-24T14:37:10.119Z</time></trkpt><trkpt lat="40.894845" lon="14.2877783"><ele>78.25</ele><time>2026-03-24T14:37:11.119Z</time></trkpt><trkpt lat="40.89486" lon="14.2879267"><ele>78.0</ele><time>2026-03-24T14:37:12.119Z</time></trkpt><trkpt lat="40.8948783" lon="14.2880683"><ele>78.0</ele><time>2026-03-24T14:37:13.122Z</time></trkpt><trkpt lat="40.894895" lon="14.2882067"><ele>78.0</ele><time>2026-03-24T14:37:14.121Z</time></trkpt><trkpt lat="40.8949133" lon="14.288345"><ele>78.0</ele><time>2026-03-24T14:37:15.119Z</time></trkpt><trkpt lat="40.8949333" lon="14.2884783"><ele>78.0</ele><time>2026-03-24T14:37:16.119Z</time></trkpt><trkpt lat="40.8949517" lon="14.2886117"><ele>78.0</ele><time>2026-03-24T14:37:17.122Z</time></trkpt><trkpt lat="40.8949717" lon="14.2887483"><ele>78.0</ele><time>2026-03-24T14:37:18.118Z</time></trkpt><trkpt lat="40.8949933" lon="14.2888867"><ele>78.0</ele><time>2026-03-24T14:37:19.118Z</time></trkpt><trkpt lat="40.8950167" lon="14.289025"><ele>78.0</ele><time>2026-03-24T14:37:20.118Z</time></trkpt><trkpt lat="40.89504" lon="14.2891583"><ele>78.0</ele><time>2026-03-24T14:37:21.118Z</time></trkpt><trkpt lat="40.8950617" lon="14.2892983"><ele>78.0</ele><time>2026-03-24T14:37:22.119Z</time></trkpt><trkpt lat="40.8950883" lon="14.2894333"><ele>78.0</ele><time>2026-03-24T14:37:23.118Z</time></trkpt><trkpt lat="40.895115" lon="14.2895767"><ele>78.0</ele><time>2026-03-24T14:37:24.119Z</time></trkpt><trkpt lat="40.89514" lon="14.2897183"><ele>78.0</ele><time>2026-03-24T14:37:25.119Z</time></trkpt><trkpt lat="40.895165" lon="14.289865"><ele>78.0</ele><time>2026-03-24T14:37:26.12Z</time></trkpt><trkpt lat="40.8951917" lon="14.2900067"><ele>78.0</ele><time>2026-03-24T14:37:27.118Z</time></trkpt><trkpt lat="40.8952167" lon="14.2901467"><ele>78.0</ele><time>2026-03-24T14:37:28.118Z</time></trkpt><trkpt lat="40.8952517" lon="14.29028"><ele>78.0</ele><time>2026-03-24T14:37:29.119Z</time></trkpt><trkpt lat="40.8953" lon="14.2904117"><ele>78.0</ele><time>2026-03-24T14:37:30.121Z</time></trkpt><trkpt lat="40.8953533" lon="14.2905417"><ele>78.0</ele><time>2026-03-24T14:37:31.119Z</time></trkpt><trkpt lat="40.8954" lon="14.2906767"><ele>78.0</ele><time>2026-03-24T14:37:32.12Z</time></trkpt><trkpt lat="40.8954383" lon="14.2908117"><ele>78.0</ele><time>2026-03-24T14:37:33.118Z</time></trkpt><trkpt lat="40.895475" lon="14.2909467"><ele>78.0</ele><time>2026-03-24T14:37:34.121Z</time></trkpt><trkpt lat="40.8955083" lon="14.2910783"><ele>78.0</ele><time>2026-03-24T14:37:35.118Z</time></trkpt><trkpt lat="40.8955383" lon="14.2912"><ele>78.0</ele><time>2026-03-24T14:37:36.119Z</time></trkpt><trkpt lat="40.8955667" lon="14.2913217"><ele>78.0</ele><time>2026-03-24T14:37:37.118Z</time></trkpt><trkpt lat="40.8955917" lon="14.2914367"><ele>77.6</ele><time>2026-03-24T14:37:38.119Z</time></trkpt><trkpt lat="40.8956183" lon="14.2915533"><ele>77.19999999999999</ele><time>2026-03-24T14:37:39.12Z</time></trkpt><trkpt lat="40.89565" lon="14.291675"><ele>76.8</ele><time>2026-03-24T14:37:40.118Z</time></trkpt><trkpt lat="40.8956833" lon="14.291795"><ele>76.39999999999999</ele><time>2026-03-24T14:37:41.118Z</time></trkpt><trkpt lat="40.89572" lon="14.2919167"><ele>76.0</ele><time>2026-03-24T14:37:42.119Z</time></trkpt><trkpt lat="40.8957517" lon="14.2920283"><ele>76.0</ele><time>2026-03-24T14:37:43.12Z</time></trkpt><trkpt lat="40.89578" lon="14.2921433"><ele>76.0</ele><time>2026-03-24T14:37:44.118Z</time></trkpt><trkpt lat="40.8957317" lon="14.2922667"><ele>76.0</ele><time>2026-03-24T14:37:45.12Z</time></trkpt><trkpt lat="40.8956283" lon="14.2923717"><ele>76.0</ele><time>2026-03-24T14:37:46.119Z</time></trkpt><trkpt lat="40.8955683" lon="14.2924467"><ele>76.0</ele><time>2026-03-24T14:37:47.118Z</time></trkpt><trkpt lat="40.8954833" lon="14.29246"><ele>76.25</ele><time>2026-03-24T14:37:48.118Z</time></trkpt><trkpt lat="40.8953717" lon="14.29247"><ele>76.5</ele><time>2026-03-24T14:37:49.118Z</time></trkpt><trkpt lat="40.8952783" lon="14.292485"><ele>76.75</ele><time>2026-03-24T14:37:50.118Z</time></trkpt><trkpt lat="40.8951567" lon="14.29244"><ele>77.0</ele><time>2026-03-24T14:37:52.118Z</time></trkpt><trkpt lat="40.8950517" lon="14.29235"><ele>77.0</ele><time>2026-03-24T14:37:54.119Z</time></trkpt><trkpt lat="40.8950133" lon="14.2922467"><ele>77.0</ele><time>2026-03-24T14:37:55.119Z</time></trkpt><trkpt lat="40.894965" lon="14.2921283"><ele>77.0</ele><time>2026-03-24T14:37:56.12Z</time></trkpt><trkpt lat="40.8949283" lon="14.2920183"><ele>77.0</ele><time>2026-03-24T14:37:57.119Z</time></trkpt><trkpt lat="40.894875" lon="14.2918817"><ele>77.0</ele><time>2026-03-24T14:37:58.118Z</time></trkpt><trkpt lat="40.8948217" lon="14.29176"><ele>77.0</ele><time>2026-03-24T14:37:59.118Z</time></trkpt><trkpt lat="40.894785" lon="14.2916717"><ele>77.0</ele><time>2026-03-24T14:38:00.119Z</time></trkpt><trkpt lat="40.89475" lon="14.2915933"><ele>77.0</ele><time>2026-03-24T14:38:01.118Z</time></trkpt><trkpt lat="40.89467" lon="14.2914583"><ele>77.0</ele><time>2026-03-24T14:38:03.119Z</time></trkpt><trkpt lat="40.8945917" lon="14.2913267"><ele>77.0</ele><time>2026-03-24T14:38:05.119Z</time></trkpt><trkpt lat="40.8945017" lon="14.29121"><ele>76.8</ele><time>2026-03-24T14:38:07.118Z</time></trkpt><trkpt lat="40.8944233" lon="14.2911067"><ele>76.6</ele><time>2026-03-24T14:38:09.119Z</time></trkpt><trkpt lat="40.8943433" lon="14.291005"><ele>76.39999999999999</ele><time>2026-03-24T14:38:11.122Z</time></trkpt><trkpt lat="40.8942733" lon="14.2909033"><ele>76.2</ele><time>2026-03-24T14:38:13.119Z</time></trkpt><trkpt lat="40.894215" lon="14.2907933"><ele>76.0</ele><time>2026-03-24T14:38:15.121Z</time></trkpt><trkpt lat="40.8941833" lon="14.2906867"><ele>76.2</ele><time>2026-03-24T14:38:17.121Z</time></trkpt><trkpt lat="40.8942283" lon="14.290585"><ele>76.39999999999999</ele><time>2026-03-24T14:38:19.122Z</time></trkpt><trkpt lat="40.8942667" lon="14.2904567"><ele>76.6</ele><time>2026-03-24T14:38:21.12Z</time></trkpt><trkpt lat="40.894305" lon="14.2903133"><ele>76.8</ele><time>2026-03-24T14:38:23.118Z</time></trkpt><trkpt lat="40.8943533" lon="14.290145"><ele>77.0</ele><time>2026-03-24T14:38:26.118Z</time></trkpt><trkpt lat="40.8943683" lon="14.2900317"><ele>77.0</ele><time>2026-03-24T14:38:28.118Z</time></trkpt><trkpt lat="40.89439" lon="14.2899467"><ele>77.0</ele><time>2026-03-24T14:38:30.118Z</time></trkpt><trkpt lat="40.8944033" lon="14.2898467"><ele>77.0</ele><time>2026-03-24T14:38:32.125Z</time></trkpt><trkpt lat="40.89442" lon="14.2897417"><ele>77.0</ele><time>2026-03-24T14:38:34.118Z</time></trkpt><trkpt lat="40.8944283" lon="14.289635"><ele>77.0</ele><time>2026-03-24T14:38:36.118Z</time></trkpt><trkpt lat="40.89445" lon="14.289525"><ele>77.0</ele><time>2026-03-24T14:38:38.12Z</time></trkpt><trkpt lat="40.89445" lon="14.2894217"><ele>78.0</ele><time>2026-03-24T14:38:40.119Z</time></trkpt><trkpt lat="40.8944367" lon="14.2893267"><ele>78.0</ele><time>2026-03-24T14:38:42.127Z</time></trkpt><trkpt lat="40.8944167" lon="14.2892333"><ele>78.0</ele><time>2026-03-24T14:38:44.118Z</time></trkpt><trkpt lat="40.8943867" lon="14.28914"><ele>78.0</ele><time>2026-03-24T14:38:46.126Z</time></trkpt><trkpt lat="40.89435" lon="14.2890433"><ele>78.0</ele><time>2026-03-24T14:38:48.119Z</time></trkpt></trkseg></trk></gpx>